<?xml version='1.0' encoding='UTF-8'?><gpx version="1.1" creator="JPX - https://github.com/jenetics/jpx" xmlns="http://www.topografix.com/GPX/1/1"><trk><trkseg><trkpt lat="43.6984994" lon="11.3089021"><ele>106.0</ele><time>2026-03-22T07:47:37.755Z</time></trkpt><trkpt lat="43.6983782" lon="11.3087767"><ele>106.0</ele><time>2026-03-22T07:47:38.754Z</time></trkpt><trkpt lat="43.6982674" lon="11.3086551"><ele>106.0</ele><time>2026-03-22T07:47:39.754Z</time></trkpt><trkpt lat="43.6981545" lon="11.3085408"><ele>106.0</ele><time>2026-03-22T07:47:40.753Z</time></trkpt><trkpt lat="43.6980443" lon="11.3084335"><ele>106.0</ele><time>2026-03-22T07:47:41.753Z</time></trkpt><trkpt lat="43.6979299" lon="11.3083325"><ele>106.0</ele><time>2026-03-22T07:47:42.754Z</time></trkpt><trkpt lat="43.6978146" lon="11.3082434"><ele>106.0</ele><time>2026-03-22T07:47:43.754Z</time></trkpt><trkpt lat="43.6976983" lon="11.3081605"><ele>106.0</ele><time>2026-03-22T07:47:44.753Z</time></trkpt><trkpt lat="43.6975795" lon="11.3080825"><ele>106.75</ele><time>2026-03-22T07:47:45.754Z</time></trkpt><trkpt lat="43.6974598" lon="11.3080044"><ele>107.5</ele><time>2026-03-22T07:47:46.754Z</time></trkpt><trkpt lat="43.6973341" lon="11.3079484"><ele>108.25</ele><time>2026-03-22T07:47:47.754Z</time></trkpt><trkpt lat="43.6972024" lon="11.3079162"><ele>109.0</ele><time>2026-03-22T07:47:48.755Z</time></trkpt><trkpt lat="43.6970655" lon="11.3079001"><ele>109.0</ele><time>2026-03-22T07:47:49.753Z</time></trkpt><trkpt lat="43.6969269" lon="11.3078995"><ele>109.0</ele><time>2026-03-22T07:47:50.754Z</time></trkpt><trkpt lat="43.6967837" lon="11.3079055"><ele>109.0</ele><time>2026-03-22T07:47:51.753Z</time></trkpt><trkpt lat="43.6966408" lon="11.3079081"><ele>109.0</ele><time>2026-03-22T07:47:52.753Z</time></trkpt><trkpt lat="43.6964947" lon="11.3078876"><ele>109.33333333333334</ele><time>2026-03-22T07:47:53.754Z</time></trkpt><trkpt lat="43.6963308" lon="11.3078513"><ele>109.66666666666666</ele><time>2026-03-22T07:47:54.754Z</time></trkpt><trkpt lat="43.6961698" lon="11.3078207"><ele>110.0</ele><time>2026-03-22T07:47:55.753Z</time></trkpt><trkpt lat="43.6960167" lon="11.3077868"><ele>110.0</ele><time>2026-03-22T07:47:56.754Z</time></trkpt><trkpt lat="43.695862" lon="11.3077543"><ele>110.0</ele><time>2026-03-22T07:47:57.754Z</time></trkpt><trkpt lat="43.6957162" lon="11.3077223"><ele>110.0</ele><time>2026-03-22T07:47:58.754Z</time></trkpt><trkpt lat="43.695573" lon="11.3076668"><ele>110.0</ele><time>2026-03-22T07:47:59.754Z</time></trkpt><trkpt lat="43.6954345" lon="11.3075763"><ele>110.0</ele><time>2026-03-22T07:48:00.754Z</time></trkpt><trkpt lat="43.6952888" lon="11.3074633"><ele>110.0</ele><time>2026-03-22T07:48:01.754Z</time></trkpt><trkpt lat="43.6951568" lon="11.3073511"><ele>109.33333333333333</ele><time>2026-03-22T07:48:02.753Z</time></trkpt><trkpt lat="43.695029" lon="11.3072329"><ele>108.66666666666666</ele><time>2026-03-22T07:48:03.754Z</time></trkpt><trkpt lat="43.6948975" lon="11.3071294"><ele>108.0</ele><time>2026-03-22T07:48:04.755Z</time></trkpt><trkpt lat="43.6947587" lon="11.3070414"><ele>108.0</ele><time>2026-03-22T07:48:05.754Z</time></trkpt><trkpt lat="43.6946174" lon="11.3069881"><ele>108.0</ele><time>2026-03-22T07:48:06.754Z</time></trkpt><trkpt lat="43.6944736" lon="11.3069648"><ele>108.0</ele><time>2026-03-22T07:48:07.755Z</time></trkpt><trkpt lat="43.6943314" lon="11.3069729"><ele>108.0</ele><time>2026-03-22T07:48:08.754Z</time></trkpt><trkpt lat="43.6941949" lon="11.30701"><ele>108.5</ele><time>2026-03-22T07:48:09.754Z</time></trkpt><trkpt lat="43.6940636" lon="11.3070736"><ele>109.0</ele><time>2026-03-22T07:48:10.753Z</time></trkpt><trkpt lat="43.6939361" lon="11.3071569"><ele>109.5</ele><time>2026-03-22T07:48:11.753Z</time></trkpt><trkpt lat="43.6938136" lon="11.3072521"><ele>110.0</ele><time>2026-03-22T07:48:12.754Z</time></trkpt><trkpt lat="43.6936908" lon="11.3073493"><ele>110.75</ele><time>2026-03-22T07:48:13.754Z</time></trkpt><trkpt lat="43.6935712" lon="11.3074479"><ele>111.5</ele><time>2026-03-22T07:48:14.753Z</time></trkpt><trkpt lat="43.6934531" lon="11.3075496"><ele>112.25</ele><time>2026-03-22T07:48:15.753Z</time></trkpt><trkpt lat="43.693333" lon="11.3076459"><ele>113.0</ele><time>2026-03-22T07:48:16.754Z</time></trkpt><trkpt lat="43.6932108" lon="11.3077393"><ele>113.0</ele><time>2026-03-22T07:48:17.755Z</time></trkpt><trkpt lat="43.6930904" lon="11.3078343"><ele>113.0</ele><time>2026-03-22T07:48:18.753Z</time></trkpt><trkpt lat="43.6929705" lon="11.3079314"><ele>113.0</ele><time>2026-03-22T07:48:19.754Z</time></trkpt><trkpt lat="43.6928487" lon="11.3080245"><ele>113.0</ele><time>2026-03-22T07:48:20.753Z</time></trkpt><trkpt lat="43.6927246" lon="11.3081078"><ele>113.5</ele><time>2026-03-22T07:48:21.753Z</time></trkpt><trkpt lat="43.6925916" lon="11.3081817"><ele>114.0</ele><time>2026-03-22T07:48:22.753Z</time></trkpt><trkpt lat="43.6924563" lon="11.3082508"><ele>114.5</ele><time>2026-03-22T07:48:23.753Z</time></trkpt><trkpt lat="43.692317" lon="11.3083146"><ele>115.0</ele><time>2026-03-22T07:48:24.753Z</time></trkpt><trkpt lat="43.6921809" lon="11.3083866"><ele>115.0</ele><time>2026-03-22T07:48:25.754Z</time></trkpt><trkpt lat="43.6920478" lon="11.3084591"><ele>115.0</ele><time>2026-03-22T07:48:26.754Z</time></trkpt><trkpt lat="43.6919207" lon="11.3085445"><ele>115.0</ele><time>2026-03-22T07:48:27.754Z</time></trkpt><trkpt lat="43.6918057" lon="11.3086483"><ele>115.0</ele><time>2026-03-22T07:48:28.754Z</time></trkpt><trkpt lat="43.6916986" lon="11.3087623"><ele>114.75</ele><time>2026-03-22T07:48:29.754Z</time></trkpt><trkpt lat="43.6915867" lon="11.3088802"><ele>114.5</ele><time>2026-03-22T07:48:30.753Z</time></trkpt><trkpt lat="43.691466" lon="11.3089851"><ele>114.25</ele><time>2026-03-22T07:48:31.753Z</time></trkpt><trkpt lat="43.691333" lon="11.3090651"><ele>114.0</ele><time>2026-03-22T07:48:32.754Z</time></trkpt><trkpt lat="43.6911936" lon="11.3091307"><ele>115.0</ele><time>2026-03-22T07:48:33.753Z</time></trkpt><trkpt lat="43.6910488" lon="11.3091903"><ele>116.0</ele><time>2026-03-22T07:48:34.753Z</time></trkpt><trkpt lat="43.6909042" lon="11.3092579"><ele>117.0</ele><time>2026-03-22T07:48:35.753Z</time></trkpt><trkpt lat="43.6907695" lon="11.3093526"><ele>117.0</ele><time>2026-03-22T07:48:36.754Z</time></trkpt><trkpt lat="43.6906413" lon="11.3094657"><ele>117.0</ele><time>2026-03-22T07:48:37.754Z</time></trkpt><trkpt lat="43.6905223" lon="11.3095941"><ele>117.0</ele><time>2026-03-22T07:48:38.753Z</time></trkpt><trkpt lat="43.6904102" lon="11.3097215"><ele>117.0</ele><time>2026-03-22T07:48:39.754Z</time></trkpt><trkpt lat="43.6903012" lon="11.3098497"><ele>120.75</ele><time>2026-03-22T07:48:40.754Z</time></trkpt><trkpt lat="43.6901951" lon="11.3099734"><ele>124.5</ele><time>2026-03-22T07:48:41.754Z</time></trkpt><trkpt lat="43.6900952" lon="11.3100943"><ele>128.25</ele><time>2026-03-22T07:48:42.755Z</time></trkpt><trkpt lat="43.6899922" lon="11.3102003"><ele>132.0</ele><time>2026-03-22T07:48:43.753Z</time></trkpt><trkpt lat="43.6898808" lon="11.3102778"><ele>132.0</ele><time>2026-03-22T07:48:44.753Z</time></trkpt><trkpt lat="43.6897567" lon="11.3103294"><ele>132.0</ele><time>2026-03-22T07:48:45.754Z</time></trkpt><trkpt lat="43.6896218" lon="11.3103669"><ele>132.0</ele><time>2026-03-22T07:48:46.753Z</time></trkpt><trkpt lat="43.6894798" lon="11.3103907"><ele>132.0</ele><time>2026-03-22T07:48:47.753Z</time></trkpt><trkpt lat="43.6893337" lon="11.3104168"><ele>134.33333333333334</ele><time>2026-03-22T07:48:48.753Z</time></trkpt><trkpt lat="43.6891815" lon="11.3104368"><ele>136.66666666666669</ele><time>2026-03-22T07:48:49.753Z</time></trkpt><trkpt lat="43.6890232" lon="11.310457"><ele>139.0</ele><time>2026-03-22T07:48:50.753Z</time></trkpt><trkpt lat="43.6888652" lon="11.3104796"><ele>139.0</ele><time>2026-03-22T07:48:51.754Z</time></trkpt><trkpt lat="43.6887307" lon="11.3104978"><ele>139.0</ele><time>2026-03-22T07:48:52.754Z</time></trkpt><trkpt lat="43.6886039" lon="11.3105143"><ele>139.0</ele><time>2026-03-22T07:48:53.753Z</time></trkpt><trkpt lat="43.6884767" lon="11.3105309"><ele>139.0</ele><time>2026-03-22T07:48:54.754Z</time></trkpt><trkpt lat="43.6883479" lon="11.3105492"><ele>144.25</ele><time>2026-03-22T07:48:55.754Z</time></trkpt><trkpt lat="43.6882178" lon="11.310575"><ele>149.5</ele><time>2026-03-22T07:48:56.754Z</time></trkpt><trkpt lat="43.6880808" lon="11.3105984"><ele>154.75</ele><time>2026-03-22T07:48:57.754Z</time></trkpt><trkpt lat="43.6879404" lon="11.3106305"><ele>160.0</ele><time>2026-03-22T07:48:58.753Z</time></trkpt><trkpt lat="43.6877939" lon="11.3106778"><ele>157.66666666666669</ele><time>2026-03-22T07:48:59.755Z</time></trkpt><trkpt lat="43.6876477" lon="11.3107292"><ele>155.33333333333334</ele><time>2026-03-22T07:49:00.754Z</time></trkpt><trkpt lat="43.6874958" lon="11.3107823"><ele>153.0</ele><time>2026-03-22T07:49:01.753Z</time></trkpt><trkpt lat="43.6873347" lon="11.3108346"><ele>153.0</ele><time>2026-03-22T07:49:02.754Z</time></trkpt><trkpt lat="43.6871791" lon="11.3108913"><ele>153.0</ele><time>2026-03-22T07:49:03.753Z</time></trkpt><trkpt lat="43.6870232" lon="11.3109428"><ele>153.0</ele><time>2026-03-22T07:49:04.753Z</time></trkpt><trkpt lat="43.6868631" lon="11.3110004"><ele>152.66666666666666</ele><time>2026-03-22T07:49:05.755Z</time></trkpt><trkpt lat="43.6866991" lon="11.3110631"><ele>152.33333333333331</ele><time>2026-03-22T07:49:06.755Z</time></trkpt><trkpt lat="43.686533" lon="11.3111249"><ele>152.0</ele><time>2026-03-22T07:49:07.755Z</time></trkpt><trkpt lat="43.6863705" lon="11.311178"><ele>152.0</ele><time>2026-03-22T07:49:08.754Z</time></trkpt><trkpt lat="43.6862062" lon="11.3112217"><ele>152.0</ele><time>2026-03-22T07:49:09.755Z</time></trkpt><trkpt lat="43.6860389" lon="11.3112555"><ele>152.0</ele><time>2026-03-22T07:49:10.754Z</time></trkpt><trkpt lat="43.685871" lon="11.3112744"><ele>152.33333333333331</ele><time>2026-03-22T07:49:11.754Z</time></trkpt><trkpt lat="43.6856975" lon="11.3112769"><ele>152.66666666666666</ele><time>2026-03-22T07:49:12.755Z</time></trkpt><trkpt lat="43.6855322" lon="11.3112799"><ele>153.0</ele><time>2026-03-22T07:49:13.754Z</time></trkpt><trkpt lat="43.6853721" lon="11.311283"><ele>153.66666666666666</ele><time>2026-03-22T07:49:14.755Z</time></trkpt><trkpt lat="43.6852174" lon="11.3112891"><ele>154.33333333333331</ele><time>2026-03-22T07:49:15.755Z</time></trkpt><trkpt lat="43.6850599" lon="11.3112936"><ele>155.0</ele><time>2026-03-22T07:49:16.754Z</time></trkpt><trkpt lat="43.6849011" lon="11.3112912"><ele>155.0</ele><time>2026-03-22T07:49:17.755Z</time></trkpt><trkpt lat="43.6847429" lon="11.3112839"><ele>155.0</ele><time>2026-03-22T07:49:18.755Z</time></trkpt><trkpt lat="43.6845812" lon="11.3112708"><ele>155.0</ele><time>2026-03-22T07:49:19.754Z</time></trkpt><trkpt lat="43.6844191" lon="11.3112586"><ele>156.66666666666666</ele><time>2026-03-22T07:49:20.754Z</time></trkpt><trkpt lat="43.6842634" lon="11.3112478"><ele>158.33333333333334</ele><time>2026-03-22T07:49:21.755Z</time></trkpt><trkpt lat="43.6841075" lon="11.3112336"><ele>160.0</ele><time>2026-03-22T07:49:22.756Z</time></trkpt><trkpt lat="43.6839512" lon="11.3112224"><ele>160.0</ele><time>2026-03-22T07:49:23.755Z</time></trkpt><trkpt lat="43.6837969" lon="11.3112138"><ele>160.0</ele><time>2026-03-22T07:49:24.755Z</time></trkpt><trkpt lat="43.6836444" lon="11.3112057"><ele>160.0</ele><time>2026-03-22T07:49:25.755Z</time></trkpt><trkpt lat="43.6834901" lon="11.3111968"><ele>162.0</ele><time>2026-03-22T07:49:26.754Z</time></trkpt><trkpt lat="43.6833412" lon="11.3111894"><ele>164.0</ele><time>2026-03-22T07:49:27.755Z</time></trkpt><trkpt lat="43.6831873" lon="11.3111851"><ele>166.0</ele><time>2026-03-22T07:49:28.756Z</time></trkpt><trkpt lat="43.6830338" lon="11.3111721"><ele>166.0</ele><time>2026-03-22T07:49:29.755Z</time></trkpt><trkpt lat="43.6828771" lon="11.3111603"><ele>166.0</ele><time>2026-03-22T07:49:30.755Z</time></trkpt><trkpt lat="43.6827225" lon="11.3111514"><ele>166.0</ele><time>2026-03-22T07:49:31.756Z</time></trkpt><trkpt lat="43.6825685" lon="11.3111406"><ele>167.66666666666669</ele><time>2026-03-22T07:49:32.755Z</time></trkpt><trkpt lat="43.6824145" lon="11.3111309"><ele>169.33333333333334</ele><time>2026-03-22T07:49:33.754Z</time></trkpt><trkpt lat="43.6822627" lon="11.3111252"><ele>171.0</ele><time>2026-03-22T07:49:34.755Z</time></trkpt><trkpt lat="43.6821102" lon="11.3111209"><ele>171.0</ele><time>2026-03-22T07:49:35.754Z</time></trkpt><trkpt lat="43.6819585" lon="11.3111195"><ele>171.0</ele><time>2026-03-22T07:49:36.754Z</time></trkpt><trkpt lat="43.6818057" lon="11.311131"><ele>171.0</ele><time>2026-03-22T07:49:37.755Z</time></trkpt><trkpt lat="43.6816521" lon="11.3111543"><ele>171.5</ele><time>2026-03-22T07:49:38.754Z</time></trkpt><trkpt lat="43.6815014" lon="11.3111749"><ele>172.0</ele><time>2026-03-22T07:49:39.755Z</time></trkpt><trkpt lat="43.6813571" lon="11.3111828"><ele>172.5</ele><time>2026-03-22T07:49:40.756Z</time></trkpt><trkpt lat="43.681208" lon="11.3111706"><ele>173.0</ele><time>2026-03-22T07:49:41.754Z</time></trkpt><trkpt lat="43.6810544" lon="11.3111329"><ele>175.0</ele><time>2026-03-22T07:49:42.755Z</time></trkpt><trkpt lat="43.6808975" lon="11.3110778"><ele>177.0</ele><time>2026-03-22T07:49:43.755Z</time></trkpt><trkpt lat="43.6807432" lon="11.3110121"><ele>179.0</ele><time>2026-03-22T07:49:44.755Z</time></trkpt><trkpt lat="43.6805921" lon="11.3109408"><ele>179.0</ele><time>2026-03-22T07:49:45.755Z</time></trkpt><trkpt lat="43.6804372" lon="11.3108696"><ele>179.0</ele><time>2026-03-22T07:49:46.755Z</time></trkpt><trkpt lat="43.6803011" lon="11.3108082"><ele>179.0</ele><time>2026-03-22T07:49:47.754Z</time></trkpt><trkpt lat="43.6801669" lon="11.3107418"><ele>179.0</ele><time>2026-03-22T07:49:48.755Z</time></trkpt><trkpt lat="43.6800748" lon="11.310674"><ele>181.79999999999998</ele><time>2026-03-22T07:49:49.755Z</time></trkpt><trkpt lat="43.6799522" lon="11.3106367"><ele>184.6</ele><time>2026-03-22T07:49:50.755Z</time></trkpt><trkpt lat="43.6798544" lon="11.310616"><ele>187.4</ele><time>2026-03-22T07:49:51.754Z</time></trkpt><trkpt lat="43.679771" lon="11.3106202"><ele>190.2</ele><time>2026-03-22T07:49:52.754Z</time></trkpt><trkpt lat="43.6796583" lon="11.310641"><ele>193.0</ele><time>2026-03-22T07:49:53.755Z</time></trkpt><trkpt lat="43.6795641" lon="11.3106818"><ele>193.0</ele><time>2026-03-22T07:49:54.754Z</time></trkpt><trkpt lat="43.6794576" lon="11.3107272"><ele>193.0</ele><time>2026-03-22T07:49:55.755Z</time></trkpt><trkpt lat="43.6792819" lon="11.3108438"><ele>193.0</ele><time>2026-03-22T07:49:56.755Z</time></trkpt><trkpt lat="43.679111" lon="11.31097"><ele>192.66666666666666</ele><time>2026-03-22T07:49:57.754Z</time></trkpt><trkpt lat="43.6789316" lon="11.31108"><ele>192.33333333333331</ele><time>2026-03-22T07:49:58.755Z</time></trkpt><trkpt lat="43.6787583" lon="11.3111651"><ele>192.0</ele><time>2026-03-22T07:49:59.756Z</time></trkpt><trkpt lat="43.6785918" lon="11.3112635"><ele>191.5</ele><time>2026-03-22T07:50:00.754Z</time></trkpt><trkpt lat="43.6784434" lon="11.3113529"><ele>191.0</ele><time>2026-03-22T07:50:01.755Z</time></trkpt><trkpt lat="43.6783081" lon="11.3114228"><ele>190.5</ele><time>2026-03-22T07:50:02.754Z</time></trkpt><trkpt lat="43.678195" lon="11.3114844"><ele>190.0</ele><time>2026-03-22T07:50:03.755Z</time></trkpt><trkpt lat="43.6780945" lon="11.3115399"><ele>190.6</ele><time>2026-03-22T07:50:04.755Z</time></trkpt><trkpt lat="43.6779985" lon="11.3115948"><ele>191.2</ele><time>2026-03-22T07:50:05.755Z</time></trkpt><trkpt lat="43.6779183" lon="11.3116393"><ele>191.8</ele><time>2026-03-22T07:50:06.756Z</time></trkpt><trkpt lat="43.6778453" lon="11.3116762"><ele>192.4</ele><time>2026-03-22T07:50:07.754Z</time></trkpt><trkpt lat="43.6777414" lon="11.3117112"><ele>193.0</ele><time>2026-03-22T07:50:09.754Z</time></trkpt><trkpt lat="43.6776783" lon="11.3116513"><ele>193.0</ele><time>2026-03-22T07:50:11.755Z</time></trkpt><trkpt lat="43.6776523" lon="11.3115189"><ele>193.0</ele><time>2026-03-22T07:50:13.754Z</time></trkpt><trkpt lat="43.677635" lon="11.3113342"><ele>193.0</ele><time>2026-03-22T07:50:15.755Z</time></trkpt><trkpt lat="43.677622" lon="11.311211"><ele>193.0</ele><time>2026-03-22T07:50:16.754Z</time></trkpt><trkpt lat="43.6776172" lon="11.3110927"><ele>193.0</ele><time>2026-03-22T07:50:17.755Z</time></trkpt><trkpt lat="43.6776186" lon="11.3109731"><ele>192.2857142857143</ele><time>2026-03-22T07:50:18.755Z</time></trkpt><trkpt lat="43.6776318" lon="11.3108655"><ele>191.57142857142858</ele><time>2026-03-22T07:50:19.755Z</time></trkpt><trkpt lat="43.6776415" lon="11.3107654"><ele>190.85714285714286</ele><time>2026-03-22T07:50:20.755Z</time></trkpt><trkpt lat="43.6776408" lon="11.3106727"><ele>190.14285714285717</ele><time>2026-03-22T07:50:21.755Z</time></trkpt><trkpt lat="43.6776131" lon="11.3105882"><ele>189.42857142857142</ele><time>2026-03-22T07:50:22.754Z</time></trkpt><trkpt lat="43.6775654" lon="11.3105262"><ele>188.71428571428572</ele><time>2026-03-22T07:50:23.756Z</time></trkpt><trkpt lat="43.6774897" lon="11.3104706"><ele>188.0</ele><time>2026-03-22T07:50:24.754Z</time></trkpt><trkpt lat="43.6773916" lon="11.3104121"><ele>186.16666666666666</ele><time>2026-03-22T07:50:25.754Z</time></trkpt><trkpt lat="43.6773034" lon="11.3103467"><ele>184.33333333333331</ele><time>2026-03-22T07:50:26.755Z</time></trkpt><trkpt lat="43.6772246" lon="11.3102824"><ele>182.5</ele><time>2026-03-22T07:50:27.755Z</time></trkpt><trkpt lat="43.6771549" lon="11.3102064"><ele>180.66666666666666</ele><time>2026-03-22T07:50:28.754Z</time></trkpt><trkpt lat="43.6770953" lon="11.310133"><ele>178.83333333333334</ele><time>2026-03-22T07:50:29.755Z</time></trkpt><trkpt lat="43.6770314" lon="11.3100786"><ele>177.0</ele><time>2026-03-22T07:50:30.754Z</time></trkpt><trkpt lat="43.6769635" lon="11.3100397"><ele>176.42857142857144</ele><time>2026-03-22T07:50:31.754Z</time></trkpt><trkpt lat="43.6768902" lon="11.3100178"><ele>175.85714285714283</ele><time>2026-03-22T07:50:32.754Z</time></trkpt><trkpt lat="43.6768163" lon="11.3100172"><ele>175.28571428571428</ele><time>2026-03-22T07:50:33.754Z</time></trkpt><trkpt lat="43.6767474" lon="11.3100429"><ele>174.71428571428572</ele><time>2026-03-22T07:50:34.754Z</time></trkpt><trkpt lat="43.6766872" lon="11.3100938"><ele>174.14285714285717</ele><time>2026-03-22T07:50:35.754Z</time></trkpt><trkpt lat="43.6766405" lon="11.3101587"><ele>173.57142857142856</ele><time>2026-03-22T07:50:36.755Z</time></trkpt><trkpt lat="43.6766019" lon="11.3102292"><ele>173.0</ele><time>2026-03-22T07:50:37.754Z</time></trkpt><trkpt lat="43.6765306" lon="11.3103366"><ele>173.0</ele><time>2026-03-22T07:50:39.755Z</time></trkpt><trkpt lat="43.6764323" lon="11.3103279"><ele>173.0</ele><time>2026-03-22T07:50:41.755Z</time></trkpt><trkpt lat="43.6763808" lon="11.3102651"><ele>173.0</ele><time>2026-03-22T07:50:42.754Z</time></trkpt><trkpt lat="43.6763133" lon="11.3101756"><ele>173.0</ele><time>2026-03-22T07:50:43.755Z</time></trkpt><trkpt lat="43.6762255" lon="11.3100729"><ele>173.0</ele><time>2026-03-22T07:50:44.755Z</time></trkpt><trkpt lat="43.6761332" lon="11.3099648"><ele>170.4</ele><time>2026-03-22T07:50:45.755Z</time></trkpt><trkpt lat="43.6760449" lon="11.3098567"><ele>167.8</ele><time>2026-03-22T07:50:46.754Z</time></trkpt><trkpt lat="43.6759704" lon="11.3097548"><ele>165.2</ele><time>2026-03-22T07:50:47.756Z</time></trkpt><trkpt lat="43.6759009" lon="11.309654"><ele>162.6</ele><time>2026-03-22T07:50:48.755Z</time></trkpt><trkpt lat="43.6758388" lon="11.3095549"><ele>160.0</ele><time>2026-03-22T07:50:49.756Z</time></trkpt><trkpt lat="43.6757833" lon="11.3094537"><ele>159.4</ele><time>2026-03-22T07:50:50.755Z</time></trkpt><trkpt lat="43.6757251" lon="11.3093494"><ele>158.8</ele><time>2026-03-22T07:50:51.755Z</time></trkpt><trkpt lat="43.6756686" lon="11.3092467"><ele>158.2</ele><time>2026-03-22T07:50:52.755Z</time></trkpt><trkpt lat="43.6756128" lon="11.3091399"><ele>157.6</ele><time>2026-03-22T07:50:53.755Z</time></trkpt><trkpt lat="43.6755629" lon="11.3090232"><ele>157.0</ele><time>2026-03-22T07:50:54.754Z</time></trkpt><trkpt lat="43.6755253" lon="11.3089033"><ele>155.79999999999998</ele><time>2026-03-22T07:50:55.755Z</time></trkpt><trkpt lat="43.6754978" lon="11.3087798"><ele>154.6</ele><time>2026-03-22T07:50:56.754Z</time></trkpt><trkpt lat="43.6754848" lon="11.3086579"><ele>153.39999999999998</ele><time>2026-03-22T07:50:57.754Z</time></trkpt><trkpt lat="43.6754851" lon="11.308536"><ele>152.2</ele><time>2026-03-22T07:50:58.754Z</time></trkpt><trkpt lat="43.6754935" lon="11.3084131"><ele>151.0</ele><time>2026-03-22T07:50:59.756Z</time></trkpt><trkpt lat="43.6755013" lon="11.3082892"><ele>151.0</ele><time>2026-03-22T07:51:00.755Z</time></trkpt><trkpt lat="43.6755079" lon="11.3081625"><ele>151.0</ele><time>2026-03-22T07:51:01.755Z</time></trkpt><trkpt lat="43.6755064" lon="11.3080347"><ele>151.0</ele><time>2026-03-22T07:51:02.754Z</time></trkpt><trkpt lat="43.6754971" lon="11.3079096"><ele>151.0</ele><time>2026-03-22T07:51:03.755Z</time></trkpt><trkpt lat="43.67549" lon="11.3077882"><ele>151.0</ele><time>2026-03-22T07:51:04.756Z</time></trkpt><trkpt lat="43.6755015" lon="11.3076707"><ele>151.0</ele><time>2026-03-22T07:51:05.754Z</time></trkpt><trkpt lat="43.6755344" lon="11.3075475"><ele>149.4</ele><time>2026-03-22T07:51:06.754Z</time></trkpt><trkpt lat="43.6755843" lon="11.307421"><ele>147.8</ele><time>2026-03-22T07:51:07.755Z</time></trkpt><trkpt lat="43.6756424" lon="11.307303"><ele>146.20000000000002</ele><time>2026-03-22T07:51:08.755Z</time></trkpt><trkpt lat="43.6756943" lon="11.3071962"><ele>144.6</ele><time>2026-03-22T07:51:09.756Z</time></trkpt><trkpt lat="43.6757315" lon="11.3070924"><ele>143.0</ele><time>2026-03-22T07:51:10.755Z</time></trkpt><trkpt lat="43.675747" lon="11.3069914"><ele>141.0</ele><time>2026-03-22T07:51:11.754Z</time></trkpt><trkpt lat="43.6757478" lon="11.3068989"><ele>139.0</ele><time>2026-03-22T07:51:12.755Z</time></trkpt><trkpt lat="43.6757477" lon="11.3067373"><ele>137.0</ele><time>2026-03-22T07:51:14.755Z</time></trkpt><trkpt lat="43.6757117" lon="11.3065495"><ele>135.0</ele><time>2026-03-22T07:51:16.755Z</time></trkpt><trkpt lat="43.6756795" lon="11.3064571"><ele>133.0</ele><time>2026-03-22T07:51:17.754Z</time></trkpt><trkpt lat="43.6756406" lon="11.306383"><ele>132.66666666666669</ele><time>2026-03-22T07:51:18.755Z</time></trkpt><trkpt lat="43.6756027" lon="11.3063037"><ele>132.33333333333334</ele><time>2026-03-22T07:51:19.754Z</time></trkpt><trkpt lat="43.6755664" lon="11.3062243"><ele>132.0</ele><time>2026-03-22T07:51:20.755Z</time></trkpt><trkpt lat="43.6755261" lon="11.3061492"><ele>131.66666666666666</ele><time>2026-03-22T07:51:21.754Z</time></trkpt><trkpt lat="43.6754788" lon="11.3060059"><ele>131.33333333333331</ele><time>2026-03-22T07:51:23.755Z</time></trkpt><trkpt lat="43.6754141" lon="11.30592"><ele>131.0</ele><time>2026-03-22T07:51:25.756Z</time></trkpt><trkpt lat="43.6753287" lon="11.3058612"><ele>131.33333333333331</ele><time>2026-03-22T07:51:27.754Z</time></trkpt><trkpt lat="43.6752556" lon="11.3058591"><ele>131.66666666666666</ele><time>2026-03-22T07:51:50.755Z</time></trkpt><trkpt lat="43.6751974" lon="11.3057812"><ele>132.0</ele><time>2026-03-22T07:51:55.755Z</time></trkpt><trkpt lat="43.675123" lon="11.3057311"><ele>132.33333333333334</ele><time>2026-03-22T07:52:10.755Z</time></trkpt><trkpt lat="43.6750437" lon="11.3057836"><ele>132.66666666666669</ele><time>2026-03-22T07:52:12.754Z</time></trkpt><trkpt lat="43.6749566" lon="11.305841"><ele>133.0</ele><time>2026-03-22T07:52:14.755Z</time></trkpt><trkpt lat="43.6748629" lon="11.3058658"><ele>133.0</ele><time>2026-03-22T07:52:16.755Z</time></trkpt><trkpt lat="43.6747929" lon="11.3059193"><ele>133.0</ele><time>2026-03-22T07:52:18.754Z</time></trkpt><trkpt lat="43.674757" lon="11.3060258"><ele>133.0</ele><time>2026-03-22T07:52:21.756Z</time></trkpt><trkpt lat="43.674704" lon="11.3061207"><ele>133.0</ele><time>2026-03-22T07:52:24.754Z</time></trkpt><trkpt lat="43.6746349" lon="11.3061202"><ele>133.0</ele><time>2026-03-22T07:52:26.755Z</time></trkpt><trkpt lat="43.674597" lon="11.3059704"><ele>133.0</ele><time>2026-03-22T07:52:27.756Z</time></trkpt><trkpt lat="43.6745324" lon="11.3058709"><ele>133.0</ele><time>2026-03-22T07:52:29.754Z</time></trkpt><trkpt lat="43.6744636" lon="11.3058874"><ele>133.0</ele><time>2026-03-22T07:52:30.756Z</time></trkpt><trkpt lat="43.6743489" lon="11.3058803"><ele>133.0</ele><time>2026-03-22T07:52:32.755Z</time></trkpt><trkpt lat="43.6742898" lon="11.3058444"><ele>133.0</ele><time>2026-03-22T07:52:33.755Z</time></trkpt><trkpt lat="43.6742095" lon="11.3057964"><ele>133.0</ele><time>2026-03-22T07:52:34.755Z</time></trkpt><trkpt lat="43.6741541" lon="11.3057355"><ele>133.0</ele><time>2026-03-22T07:52:35.756Z</time></trkpt><trkpt lat="43.6740967" lon="11.3056608"><ele>134.4</ele><time>2026-03-22T07:52:36.755Z</time></trkpt><trkpt lat="43.6739957" lon="11.3055572"><ele>135.8</ele><time>2026-03-22T07:52:38.754Z</time></trkpt><trkpt lat="43.6739116" lon="11.3054969"><ele>137.2</ele><time>2026-03-22T07:52:39.755Z</time></trkpt><trkpt lat="43.6738403" lon="11.3055232"><ele>138.6</ele><time>2026-03-22T07:52:40.755Z</time></trkpt><trkpt lat="43.6737529" lon="11.3055256"><ele>140.0</ele><time>2026-03-22T07:52:41.753Z</time></trkpt><trkpt lat="43.6736645" lon="11.3055291"><ele>139.66666666666666</ele><time>2026-03-22T07:52:42.754Z</time></trkpt><trkpt lat="43.6735784" lon="11.3055339"><ele>139.33333333333331</ele><time>2026-03-22T07:52:43.755Z</time></trkpt><trkpt lat="43.6734909" lon="11.3055265"><ele>139.0</ele><time>2026-03-22T07:52:44.754Z</time></trkpt><trkpt lat="43.6734104" lon="11.3055212"><ele>138.66666666666666</ele><time>2026-03-22T07:52:45.755Z</time></trkpt><trkpt lat="43.6733303" lon="11.3055431"><ele>138.33333333333334</ele><time>2026-03-22T07:52:46.754Z</time></trkpt><trkpt lat="43.6732545" lon="11.3055995"><ele>138.0</ele><time>2026-03-22T07:52:50.755Z</time></trkpt><trkpt lat="43.6731758" lon="11.3056119"><ele>138.0</ele><time>2026-03-22T07:52:52.755Z</time></trkpt><trkpt lat="43.6731024" lon="11.3056074"><ele>138.0</ele><time>2026-03-22T07:52:54.754Z</time></trkpt><trkpt lat="43.6730097" lon="11.3055423"><ele>138.0</ele><time>2026-03-22T07:52:57.755Z</time></trkpt><trkpt lat="43.6729072" lon="11.3054685"><ele>138.0</ele><time>2026-03-22T07:52:59.755Z</time></trkpt><trkpt lat="43.6728443" lon="11.3054204"><ele>138.0</ele><time>2026-03-22T07:53:00.754Z</time></trkpt><trkpt lat="43.6727734" lon="11.3054003"><ele>138.0</ele><time>2026-03-22T07:53:01.755Z</time></trkpt><trkpt lat="43.6727063" lon="11.3053757"><ele>138.0</ele><time>2026-03-22T07:53:02.755Z</time></trkpt><trkpt lat="43.6726317" lon="11.3053697"><ele>138.0</ele><time>2026-03-22T07:53:03.755Z</time></trkpt><trkpt lat="43.6725592" lon="11.3053563"><ele>138.0</ele><time>2026-03-22T07:53:04.754Z</time></trkpt><trkpt lat="43.672478" lon="11.3053308"><ele>138.0</ele><time>2026-03-22T07:53:05.754Z</time></trkpt><trkpt lat="43.6724011" lon="11.3052991"><ele>138.0</ele><time>2026-03-22T07:53:06.754Z</time></trkpt><trkpt lat="43.6723261" lon="11.3053424"><ele>138.0</ele><time>2026-03-22T07:53:07.754Z</time></trkpt><trkpt lat="43.6722554" lon="11.3053393"><ele>138.0</ele><time>2026-03-22T07:53:08.755Z</time></trkpt><trkpt lat="43.6721573" lon="11.3053489"><ele>138.0</ele><time>2026-03-22T07:53:10.755Z</time></trkpt><trkpt lat="43.6721689" lon="11.3052617"><ele>138.0</ele><time>2026-03-22T07:53:15.755Z</time></trkpt><trkpt lat="43.6721164" lon="11.3051994"><ele>138.0</ele><time>2026-03-22T07:53:20.755Z</time></trkpt><trkpt lat="43.672055" lon="11.3052674"><ele>138.0</ele><time>2026-03-22T07:53:24.754Z</time></trkpt><trkpt lat="43.6719828" lon="11.3052122"><ele>138.0</ele><time>2026-03-22T07:53:27.755Z</time></trkpt><trkpt lat="43.6719225" lon="11.3051601"><ele>138.28571428571428</ele><time>2026-03-22T07:53:29.754Z</time></trkpt><trkpt lat="43.6718637" lon="11.3050903"><ele>138.57142857142858</ele><time>2026-03-22T07:53:31.756Z</time></trkpt><trkpt lat="43.6718057" lon="11.3050558"><ele>138.85714285714286</ele><time>2026-03-22T07:53:33.755Z</time></trkpt><trkpt lat="43.6717294" lon="11.3050505"><ele>139.14285714285714</ele><time>2026-03-22T07:53:36.754Z</time></trkpt><trkpt lat="43.6716649" lon="11.3050871"><ele>139.42857142857144</ele><time>2026-03-22T07:53:38.754Z</time></trkpt><trkpt lat="43.6715849" lon="11.3051158"><ele>139.71428571428572</ele><time>2026-03-22T07:53:39.755Z</time></trkpt><trkpt lat="43.6715198" lon="11.3051396"><ele>140.0</ele><time>2026-03-22T07:53:40.755Z</time></trkpt><trkpt lat="43.6714361" lon="11.3051739"><ele>140.0</ele><time>2026-03-22T07:53:41.754Z</time></trkpt><trkpt lat="43.6713322" lon="11.3052064"><ele>140.0</ele><time>2026-03-22T07:53:43.755Z</time></trkpt><trkpt lat="43.6712751" lon="11.3052601"><ele>140.0</ele><time>2026-03-22T07:53:45.755Z</time></trkpt><trkpt lat="43.6712679" lon="11.3053854"><ele>140.0</ele><time>2026-03-22T07:53:48.755Z</time></trkpt><trkpt lat="43.6712133" lon="11.305447"><ele>140.0</ele><time>2026-03-22T07:53:55.755Z</time></trkpt><trkpt lat="43.6711227" lon="11.3054717"><ele>140.0</ele><time>2026-03-22T07:53:57.755Z</time></trkpt><trkpt lat="43.6710645" lon="11.3055064"><ele>140.33333333333331</ele><time>2026-03-22T07:53:58.755Z</time></trkpt><trkpt lat="43.6709955" lon="11.3055496"><ele>140.66666666666666</ele><time>2026-03-22T07:53:59.756Z</time></trkpt><trkpt lat="43.6709175" lon="11.3055927"><ele>141.0</ele><time>2026-03-22T07:54:00.754Z</time></trkpt><trkpt lat="43.6708356" lon="11.3056307"><ele>141.33333333333334</ele><time>2026-03-22T07:54:01.754Z</time></trkpt><trkpt lat="43.6707717" lon="11.3056311"><ele>141.66666666666669</ele><time>2026-03-22T07:54:02.755Z</time></trkpt><trkpt lat="43.670694" lon="11.3055894"><ele>142.0</ele><time>2026-03-22T07:54:03.755Z</time></trkpt><trkpt lat="43.670589" lon="11.3055207"><ele>142.0</ele><time>2026-03-22T07:54:04.755Z</time></trkpt><trkpt lat="43.670461" lon="11.3054458"><ele>142.0</ele><time>2026-03-22T07:54:05.754Z</time></trkpt><trkpt lat="43.6703204" lon="11.305374"><ele>142.0</ele><time>2026-03-22T07:54:06.755Z</time></trkpt><trkpt lat="43.6701842" lon="11.3053102"><ele>142.0</ele><time>2026-03-22T07:54:07.754Z</time></trkpt><trkpt lat="43.6700407" lon="11.3052445"><ele>141.25</ele><time>2026-03-22T07:54:08.755Z</time></trkpt><trkpt lat="43.6699084" lon="11.3051772"><ele>140.5</ele><time>2026-03-22T07:54:09.754Z</time></trkpt><trkpt lat="43.6698036" lon="11.3050968"><ele>139.75</ele><time>2026-03-22T07:54:10.756Z</time></trkpt><trkpt lat="43.6697191" lon="11.3050305"><ele>139.0</ele><time>2026-03-22T07:54:11.755Z</time></trkpt><trkpt lat="43.6696446" lon="11.3049308"><ele>139.0</ele><time>2026-03-22T07:54:12.756Z</time></trkpt><trkpt lat="43.6695942" lon="11.3048313"><ele>139.0</ele><time>2026-03-22T07:54:13.755Z</time></trkpt><trkpt lat="43.6695765" lon="11.304639"><ele>139.0</ele><time>2026-03-22T07:54:14.756Z</time></trkpt><trkpt lat="43.6695339" lon="11.3044604"><ele>139.0</ele><time>2026-03-22T07:54:15.755Z</time></trkpt><trkpt lat="43.6695057" lon="11.3042714"><ele>140.5</ele><time>2026-03-22T07:54:16.754Z</time></trkpt><trkpt lat="43.6694712" lon="11.3040841"><ele>142.0</ele><time>2026-03-22T07:54:17.754Z</time></trkpt><trkpt lat="43.6694561" lon="11.3039188"><ele>143.5</ele><time>2026-03-22T07:54:18.755Z</time></trkpt><trkpt lat="43.6694209" lon="11.3037569"><ele>145.0</ele><time>2026-03-22T07:54:19.755Z</time></trkpt><trkpt lat="43.6694354" lon="11.3036643"><ele>145.0</ele><time>2026-03-22T07:54:20.755Z</time></trkpt><trkpt lat="43.669411" lon="11.3035452"><ele>145.0</ele><time>2026-03-22T07:54:21.754Z</time></trkpt><trkpt lat="43.6694017" lon="11.3034233"><ele>145.0</ele><time>2026-03-22T07:54:22.754Z</time></trkpt><trkpt lat="43.6693607" lon="11.3033221"><ele>145.0</ele><time>2026-03-22T07:54:23.755Z</time></trkpt><trkpt lat="43.6693236" lon="11.3032441"><ele>145.0</ele><time>2026-03-22T07:54:24.754Z</time></trkpt><trkpt lat="43.6692979" lon="11.3031247"><ele>145.0</ele><time>2026-03-22T07:54:26.755Z</time></trkpt><trkpt lat="43.6692651" lon="11.303043"><ele>145.0</ele><time>2026-03-22T07:54:27.755Z</time></trkpt><trkpt lat="43.669228" lon="11.3029629"><ele>145.0</ele><time>2026-03-22T07:54:28.754Z</time></trkpt><trkpt lat="43.669182" lon="11.3028724"><ele>145.0</ele><time>2026-03-22T07:54:29.754Z</time></trkpt><trkpt lat="43.6691379" lon="11.3027584"><ele>145.0</ele><time>2026-03-22T07:54:31.755Z</time></trkpt><trkpt lat="43.6691133" lon="11.3026697"><ele>145.0</ele><time>2026-03-22T07:54:32.754Z</time></trkpt><trkpt lat="43.669048" lon="11.3024952"><ele>145.0</ele><time>2026-03-22T07:54:34.755Z</time></trkpt><trkpt lat="43.6689999" lon="11.302414"><ele>145.0</ele><time>2026-03-22T07:54:35.754Z</time></trkpt><trkpt lat="43.6689402" lon="11.3022857"><ele>145.0</ele><time>2026-03-22T07:54:36.755Z</time></trkpt><trkpt lat="43.6688803" lon="11.3022167"><ele>145.0</ele><time>2026-03-22T07:54:37.754Z</time></trkpt><trkpt lat="43.6688512" lon="11.3021291"><ele>145.0</ele><time>2026-03-22T07:54:38.754Z</time></trkpt><trkpt lat="43.6689603" lon="11.3020388"><ele>146.8</ele><time>2026-03-22T07:54:40.754Z</time></trkpt><trkpt lat="43.6690291" lon="11.3019136"><ele>148.6</ele><time>2026-03-22T07:54:42.754Z</time></trkpt><trkpt lat="43.6690734" lon="11.3018294"><ele>150.4</ele><time>2026-03-22T07:54:43.755Z</time></trkpt><trkpt lat="43.6691009" lon="11.3017408"><ele>152.2</ele><time>2026-03-22T07:54:44.755Z</time></trkpt><trkpt lat="43.669096" lon="11.3016402"><ele>154.0</ele><time>2026-03-22T07:54:45.754Z</time></trkpt><trkpt lat="43.6690104" lon="11.3015054"><ele>155.33333333333334</ele><time>2026-03-22T07:54:46.755Z</time></trkpt><trkpt lat="43.6689807" lon="11.3014034"><ele>156.66666666666669</ele><time>2026-03-22T07:54:47.755Z</time></trkpt><trkpt lat="43.6689643" lon="11.3012849"><ele>158.0</ele><time>2026-03-22T07:54:48.755Z</time></trkpt><trkpt lat="43.6689502" lon="11.301177"><ele>159.33333333333334</ele><time>2026-03-22T07:54:49.755Z</time></trkpt><trkpt lat="43.6689336" lon="11.301074"><ele>160.66666666666666</ele><time>2026-03-22T07:54:50.755Z</time></trkpt><trkpt lat="43.6689034" lon="11.3009819"><ele>162.0</ele><time>2026-03-22T07:54:51.754Z</time></trkpt><trkpt lat="43.6688567" lon="11.3008653"><ele>162.0</ele><time>2026-03-22T07:54:52.754Z</time></trkpt><trkpt lat="43.6687815" lon="11.300762"><ele>162.0</ele><time>2026-03-22T07:54:53.754Z</time></trkpt><trkpt lat="43.6687174" lon="11.3006778"><ele>162.0</ele><time>2026-03-22T07:54:54.755Z</time></trkpt><trkpt lat="43.6686327" lon="11.3006015"><ele>162.0</ele><time>2026-03-22T07:54:55.755Z</time></trkpt><trkpt lat="43.6685908" lon="11.3005023"><ele>162.0</ele><time>2026-03-22T07:54:56.755Z</time></trkpt><trkpt lat="43.6685765" lon="11.3003722"><ele>166.2</ele><time>2026-03-22T07:54:58.755Z</time></trkpt><trkpt lat="43.6685477" lon="11.3002847"><ele>170.39999999999998</ele><time>2026-03-22T07:54:59.754Z</time></trkpt><trkpt lat="43.6685063" lon="11.3001808"><ele>174.60000000000002</ele><time>2026-03-22T07:55:01.755Z</time></trkpt><trkpt lat="43.6685007" lon="11.3000068"><ele>178.8</ele><time>2026-03-22T07:55:03.755Z</time></trkpt><trkpt lat="43.6684899" lon="11.2998762"><ele>183.0</ele><time>2026-03-22T07:55:05.754Z</time></trkpt><trkpt lat="43.6683663" lon="11.2998156"><ele>183.0</ele><time>2026-03-22T07:55:07.754Z</time></trkpt><trkpt lat="43.6682929" lon="11.2997849"><ele>183.0</ele><time>2026-03-22T07:55:08.755Z</time></trkpt><trkpt lat="43.6681737" lon="11.2996191"><ele>183.0</ele><time>2026-03-22T07:55:10.754Z</time></trkpt><trkpt lat="43.6681495" lon="11.2994774"><ele>183.0</ele><time>2026-03-22T07:55:11.755Z</time></trkpt><trkpt lat="43.668108" lon="11.2993462"><ele>183.4</ele><time>2026-03-22T07:55:12.754Z</time></trkpt><trkpt lat="43.6681117" lon="11.2992032"><ele>183.8</ele><time>2026-03-22T07:55:13.755Z</time></trkpt><trkpt lat="43.668095" lon="11.2990892"><ele>184.2</ele><time>2026-03-22T07:55:14.755Z</time></trkpt><trkpt lat="43.6680774" lon="11.2989724"><ele>184.6</ele><time>2026-03-22T07:55:15.756Z</time></trkpt><trkpt lat="43.667993" lon="11.2989036"><ele>185.0</ele><time>2026-03-22T07:55:16.755Z</time></trkpt><trkpt lat="43.6678611" lon="11.2988913"><ele>185.4</ele><time>2026-03-22T07:55:18.755Z</time></trkpt><trkpt lat="43.6677781" lon="11.2989078"><ele>185.8</ele><time>2026-03-22T07:55:19.756Z</time></trkpt><trkpt lat="43.6676694" lon="11.298897"><ele>186.2</ele><time>2026-03-22T07:55:21.754Z</time></trkpt><trkpt lat="43.6675995" lon="11.2987735"><ele>186.6</ele><time>2026-03-22T07:55:23.754Z</time></trkpt><trkpt lat="43.6675412" lon="11.2987042"><ele>187.0</ele><time>2026-03-22T07:55:25.755Z</time></trkpt><trkpt lat="43.6674627" lon="11.2986768"><ele>188.85714285714286</ele><time>2026-03-22T07:55:35.756Z</time></trkpt><trkpt lat="43.6673973" lon="11.2987398"><ele>190.71428571428572</ele><time>2026-03-22T07:55:37.755Z</time></trkpt><trkpt lat="43.6673157" lon="11.2987243"><ele>192.57142857142858</ele><time>2026-03-22T07:55:38.755Z</time></trkpt><trkpt lat="43.6672544" lon="11.298693"><ele>194.42857142857144</ele><time>2026-03-22T07:55:39.754Z</time></trkpt><trkpt lat="43.6671934" lon="11.2986663"><ele>196.28571428571428</ele><time>2026-03-22T07:55:40.756Z</time></trkpt><trkpt lat="43.6671276" lon="11.2986325"><ele>198.14285714285717</ele><time>2026-03-22T07:55:41.755Z</time></trkpt><trkpt lat="43.66706" lon="11.2985767"><ele>200.0</ele><time>2026-03-22T07:55:42.755Z</time></trkpt><trkpt lat="43.6669893" lon="11.2985127"><ele>199.33333333333334</ele><time>2026-03-22T07:55:43.754Z</time></trkpt><trkpt lat="43.666923" lon="11.2984734"><ele>198.66666666666669</ele><time>2026-03-22T07:55:44.754Z</time></trkpt><trkpt lat="43.6668368" lon="11.2984949"><ele>198.0</ele><time>2026-03-22T07:55:45.754Z</time></trkpt><trkpt lat="43.6667521" lon="11.2984835"><ele>197.33333333333331</ele><time>2026-03-22T07:55:46.755Z</time></trkpt><trkpt lat="43.6666771" lon="11.2985073"><ele>196.66666666666666</ele><time>2026-03-22T07:55:47.755Z</time></trkpt><trkpt lat="43.6665801" lon="11.298529"><ele>196.0</ele><time>2026-03-22T07:55:48.755Z</time></trkpt><trkpt lat="43.666502" lon="11.2985489"><ele>195.99999999999997</ele><time>2026-03-22T07:55:49.756Z</time></trkpt><trkpt lat="43.6664158" lon="11.2985647"><ele>196.0</ele><time>2026-03-22T07:55:50.755Z</time></trkpt><trkpt lat="43.6663373" lon="11.2985485"><ele>196.0</ele><time>2026-03-22T07:55:51.755Z</time></trkpt><trkpt lat="43.6662554" lon="11.2985403"><ele>196.0</ele><time>2026-03-22T07:55:52.755Z</time></trkpt><trkpt lat="43.6661921" lon="11.2985582"><ele>195.99999999999997</ele><time>2026-03-22T07:55:53.755Z</time></trkpt><trkpt lat="43.6660902" lon="11.2986471"><ele>196.0</ele><time>2026-03-22T07:55:55.754Z</time></trkpt><trkpt lat="43.6659853" lon="11.2987273"><ele>195.66666666666666</ele><time>2026-03-22T07:55:57.754Z</time></trkpt><trkpt lat="43.6659141" lon="11.2987851"><ele>195.33333333333331</ele><time>2026-03-22T07:55:58.756Z</time></trkpt><trkpt lat="43.6658454" lon="11.2988508"><ele>195.0</ele><time>2026-03-22T07:55:59.755Z</time></trkpt><trkpt lat="43.6657674" lon="11.2988998"><ele>194.66666666666669</ele><time>2026-03-22T07:56:00.754Z</time></trkpt><trkpt lat="43.6657031" lon="11.2989475"><ele>194.33333333333334</ele><time>2026-03-22T07:56:01.755Z</time></trkpt><trkpt lat="43.6656563" lon="11.2990294"><ele>194.0</ele><time>2026-03-22T07:56:02.755Z</time></trkpt><trkpt lat="43.665586" lon="11.2991129"><ele>194.2</ele><time>2026-03-22T07:56:03.754Z</time></trkpt><trkpt lat="43.6655421" lon="11.2992113"><ele>194.39999999999998</ele><time>2026-03-22T07:56:04.755Z</time></trkpt><trkpt lat="43.6654925" lon="11.2993052"><ele>194.6</ele><time>2026-03-22T07:56:05.754Z</time></trkpt><trkpt lat="43.6654332" lon="11.2993992"><ele>194.8</ele><time>2026-03-22T07:56:06.754Z</time></trkpt><trkpt lat="43.6653612" lon="11.2994855"><ele>195.0</ele><time>2026-03-22T07:56:07.756Z</time></trkpt><trkpt lat="43.665278" lon="11.2995582"><ele>195.0</ele><time>2026-03-22T07:56:08.756Z</time></trkpt><trkpt lat="43.6652143" lon="11.299638"><ele>195.0</ele><time>2026-03-22T07:56:09.755Z</time></trkpt><trkpt lat="43.6651397" lon="11.2997114"><ele>195.0</ele><time>2026-03-22T07:56:10.755Z</time></trkpt><trkpt lat="43.6650619" lon="11.2997248"><ele>195.0</ele><time>2026-03-22T07:56:11.755Z</time></trkpt><trkpt lat="43.6649833" lon="11.299755"><ele>195.0</ele><time>2026-03-22T07:56:12.756Z</time></trkpt><trkpt lat="43.6648971" lon="11.2997801"><ele>195.0</ele><time>2026-03-22T07:56:13.754Z</time></trkpt><trkpt lat="43.6648233" lon="11.2997637"><ele>193.4</ele><time>2026-03-22T07:56:14.755Z</time></trkpt><trkpt lat="43.6647191" lon="11.2998051"><ele>191.8</ele><time>2026-03-22T07:56:15.754Z</time></trkpt><trkpt lat="43.6646305" lon="11.2998456"><ele>190.2</ele><time>2026-03-22T07:56:16.755Z</time></trkpt><trkpt lat="43.6645321" lon="11.2998754"><ele>188.6</ele><time>2026-03-22T07:56:17.755Z</time></trkpt><trkpt lat="43.6644453" lon="11.2998462"><ele>187.0</ele><time>2026-03-22T07:56:18.756Z</time></trkpt><trkpt lat="43.6643411" lon="11.2998233"><ele>187.0</ele><time>2026-03-22T07:56:19.754Z</time></trkpt><trkpt lat="43.6642596" lon="11.2997957"><ele>187.0</ele><time>2026-03-22T07:56:20.755Z</time></trkpt><trkpt lat="43.6641866" lon="11.2997383"><ele>187.0</ele><time>2026-03-22T07:56:21.755Z</time></trkpt><trkpt lat="43.664135" lon="11.2996594"><ele>187.0</ele><time>2026-03-22T07:56:22.755Z</time></trkpt><trkpt lat="43.6640647" lon="11.2995775"><ele>187.0</ele><time>2026-03-22T07:56:23.755Z</time></trkpt><trkpt lat="43.6639895" lon="11.2995021"><ele>187.0</ele><time>2026-03-22T07:56:24.754Z</time></trkpt><trkpt lat="43.6639134" lon="11.2994263"><ele>189.8</ele><time>2026-03-22T07:56:25.754Z</time></trkpt><trkpt lat="43.6637949" lon="11.2994062"><ele>192.6</ele><time>2026-03-22T07:56:26.755Z</time></trkpt><trkpt lat="43.6637024" lon="11.2994376"><ele>195.4</ele><time>2026-03-22T07:56:27.754Z</time></trkpt><trkpt lat="43.6636279" lon="11.299418"><ele>198.20000000000002</ele><time>2026-03-22T07:56:28.754Z</time></trkpt><trkpt lat="43.6635686" lon="11.299328"><ele>201.0</ele><time>2026-03-22T07:56:29.754Z</time></trkpt><trkpt lat="43.6635018" lon="11.2992155"><ele>201.0</ele><time>2026-03-22T07:56:30.755Z</time></trkpt><trkpt lat="43.6634439" lon="11.2990524"><ele>201.0</ele><time>2026-03-22T07:56:31.754Z</time></trkpt><trkpt lat="43.6633925" lon="11.298929"><ele>201.0</ele><time>2026-03-22T07:56:32.755Z</time></trkpt><trkpt lat="43.6633149" lon="11.2987696"><ele>201.0</ele><time>2026-03-22T07:56:33.754Z</time></trkpt><trkpt lat="43.6631972" lon="11.298583"><ele>204.33333333333331</ele><time>2026-03-22T07:56:34.755Z</time></trkpt><trkpt lat="43.6630949" lon="11.2984094"><ele>207.66666666666666</ele><time>2026-03-22T07:56:35.755Z</time></trkpt><trkpt lat="43.662996" lon="11.2982152"><ele>211.0</ele><time>2026-03-22T07:56:36.754Z</time></trkpt><trkpt lat="43.6629004" lon="11.298045"><ele>212.33333333333331</ele><time>2026-03-22T07:56:37.755Z</time></trkpt><trkpt lat="43.6628" lon="11.297878"><ele>213.66666666666669</ele><time>2026-03-22T07:56:38.754Z</time></trkpt><trkpt lat="43.6627075" lon="11.2977068"><ele>215.0</ele><time>2026-03-22T07:56:39.754Z</time></trkpt><trkpt lat="43.6626226" lon="11.2975513"><ele>215.0</ele><time>2026-03-22T07:56:40.754Z</time></trkpt><trkpt lat="43.6625423" lon="11.2974792"><ele>215.0</ele><time>2026-03-22T07:56:41.756Z</time></trkpt><trkpt lat="43.6624722" lon="11.2973731"><ele>215.0</ele><time>2026-03-22T07:56:42.755Z</time></trkpt><trkpt lat="43.6623647" lon="11.2972576"><ele>215.0</ele><time>2026-03-22T07:56:43.755Z</time></trkpt><trkpt lat="43.6622659" lon="11.2972233"><ele>215.0</ele><time>2026-03-22T07:56:44.755Z</time></trkpt><trkpt lat="43.6621647" lon="11.2971702"><ele>215.5</ele><time>2026-03-22T07:56:45.754Z</time></trkpt><trkpt lat="43.6620493" lon="11.2971268"><ele>216.0</ele><time>2026-03-22T07:56:46.754Z</time></trkpt><trkpt lat="43.6619191" lon="11.2970879"><ele>216.5</ele><time>2026-03-22T07:56:47.754Z</time></trkpt><trkpt lat="43.6617894" lon="11.2970779"><ele>217.0</ele><time>2026-03-22T07:56:48.756Z</time></trkpt><trkpt lat="43.6616711" lon="11.2970546"><ele>217.6</ele><time>2026-03-22T07:56:49.755Z</time></trkpt><trkpt lat="43.6615556" lon="11.2970175"><ele>218.2</ele><time>2026-03-22T07:56:50.754Z</time></trkpt><trkpt lat="43.6614363" lon="11.2969944"><ele>218.8</ele><time>2026-03-22T07:56:51.756Z</time></trkpt><trkpt lat="43.6613406" lon="11.2969541"><ele>219.4</ele><time>2026-03-22T07:56:52.755Z</time></trkpt><trkpt lat="43.6612457" lon="11.2969274"><ele>220.0</ele><time>2026-03-22T07:56:53.754Z</time></trkpt><trkpt lat="43.6611596" lon="11.2969093"><ele>222.2</ele><time>2026-03-22T07:56:54.755Z</time></trkpt><trkpt lat="43.6610535" lon="11.2969105"><ele>224.4</ele><time>2026-03-22T07:56:55.755Z</time></trkpt><trkpt lat="43.6609596" lon="11.2968938"><ele>226.60000000000002</ele><time>2026-03-22T07:56:56.756Z</time></trkpt><trkpt lat="43.6608635" lon="11.2968733"><ele>228.8</ele><time>2026-03-22T07:56:57.755Z</time></trkpt><trkpt lat="43.6607655" lon="11.2968544"><ele>231.0</ele><time>2026-03-22T07:56:58.754Z</time></trkpt><trkpt lat="43.6606774" lon="11.2968547"><ele>231.0</ele><time>2026-03-22T07:56:59.755Z</time></trkpt><trkpt lat="43.6605847" lon="11.2968744"><ele>231.0</ele><time>2026-03-22T07:57:00.755Z</time></trkpt><trkpt lat="43.6604958" lon="11.2969026"><ele>231.0</ele><time>2026-03-22T07:57:01.755Z</time></trkpt><trkpt lat="43.6604132" lon="11.296934"><ele>231.0</ele><time>2026-03-22T07:57:02.754Z</time></trkpt><trkpt lat="43.6603354" lon="11.2969783"><ele>231.0</ele><time>2026-03-22T07:57:03.754Z</time></trkpt><trkpt lat="43.6602571" lon="11.2970258"><ele>231.0</ele><time>2026-03-22T07:57:04.755Z</time></trkpt><trkpt lat="43.6601572" lon="11.2970911"><ele>233.4</ele><time>2026-03-22T07:57:06.755Z</time></trkpt><trkpt lat="43.6600854" lon="11.2971204"><ele>235.8</ele><time>2026-03-22T07:57:09.755Z</time></trkpt><trkpt lat="43.6600398" lon="11.2972188"><ele>238.20000000000002</ele><time>2026-03-22T07:57:13.754Z</time></trkpt><trkpt lat="43.660088" lon="11.297385"><ele>240.60000000000002</ele><time>2026-03-22T07:57:15.754Z</time></trkpt><trkpt lat="43.6601118" lon="11.297482"><ele>243.0</ele><time>2026-03-22T07:57:16.754Z</time></trkpt><trkpt lat="43.6601288" lon="11.29762"><ele>243.66666666666666</ele><time>2026-03-22T07:57:18.755Z</time></trkpt><trkpt lat="43.6600921" lon="11.2977115"><ele>244.33333333333331</ele><time>2026-03-22T07:57:20.755Z</time></trkpt><trkpt lat="43.659986" lon="11.2977409"><ele>245.0</ele><time>2026-03-22T07:57:22.754Z</time></trkpt><trkpt lat="43.6599072" lon="11.2977357"><ele>245.66666666666666</ele><time>2026-03-22T07:57:23.754Z</time></trkpt><trkpt lat="43.6598177" lon="11.2977368"><ele>246.33333333333331</ele><time>2026-03-22T07:57:24.755Z</time></trkpt><trkpt lat="43.6597229" lon="11.2977438"><ele>247.0</ele><time>2026-03-22T07:57:25.754Z</time></trkpt><trkpt lat="43.6596255" lon="11.2977771"><ele>246.99999999999997</ele><time>2026-03-22T07:57:26.755Z</time></trkpt><trkpt lat="43.6595401" lon="11.2978225"><ele>247.0</ele><time>2026-03-22T07:57:27.754Z</time></trkpt><trkpt lat="43.6594686" lon="11.2978681"><ele>247.0</ele><time>2026-03-22T07:57:28.754Z</time></trkpt><trkpt lat="43.6593982" lon="11.2979119"><ele>247.0</ele><time>2026-03-22T07:57:29.754Z</time></trkpt><trkpt lat="43.6593309" lon="11.2979606"><ele>246.99999999999997</ele><time>2026-03-22T07:57:30.755Z</time></trkpt><trkpt lat="43.6592642" lon="11.2980099"><ele>247.0</ele><time>2026-03-22T07:57:31.754Z</time></trkpt><trkpt lat="43.6591987" lon="11.2980591"><ele>247.16666666666666</ele><time>2026-03-22T07:57:32.754Z</time></trkpt><trkpt lat="43.6591372" lon="11.2981152"><ele>247.33333333333331</ele><time>2026-03-22T07:57:33.754Z</time></trkpt><trkpt lat="43.6590827" lon="11.2981597"><ele>247.5</ele><time>2026-03-22T07:57:34.755Z</time></trkpt><trkpt lat="43.6589837" lon="11.2982379"><ele>247.66666666666669</ele><time>2026-03-22T07:57:36.754Z</time></trkpt><trkpt lat="43.6589019" lon="11.2982341"><ele>247.83333333333334</ele><time>2026-03-22T07:57:38.754Z</time></trkpt><trkpt lat="43.658838" lon="11.2981389"><ele>248.0</ele><time>2026-03-22T07:57:40.755Z</time></trkpt><trkpt lat="43.6587749" lon="11.2980442"><ele>247.66666666666669</ele><time>2026-03-22T07:57:42.755Z</time></trkpt><trkpt lat="43.6587101" lon="11.2979585"><ele>247.33333333333334</ele><time>2026-03-22T07:57:44.754Z</time></trkpt><trkpt lat="43.6586423" lon="11.29786"><ele>247.0</ele><time>2026-03-22T07:57:46.754Z</time></trkpt><trkpt lat="43.6585679" lon="11.2977708"><ele>246.66666666666669</ele><time>2026-03-22T07:57:48.755Z</time></trkpt><trkpt lat="43.6585072" lon="11.2976949"><ele>246.33333333333334</ele><time>2026-03-22T07:57:50.756Z</time></trkpt><trkpt lat="43.658447" lon="11.2976561"><ele>246.0</ele><time>2026-03-22T07:57:58.754Z</time></trkpt><trkpt lat="43.6584572" lon="11.2975349"><ele>246.0</ele><time>2026-03-22T07:58:01.756Z</time></trkpt><trkpt lat="43.658524" lon="11.2974801"><ele>246.0</ele><time>2026-03-22T07:58:02.755Z</time></trkpt><trkpt lat="43.6585871" lon="11.2974229"><ele>246.0</ele><time>2026-03-22T07:58:03.754Z</time></trkpt><trkpt lat="43.6586673" lon="11.2973578"><ele>246.0</ele><time>2026-03-22T07:58:04.755Z</time></trkpt><trkpt lat="43.6587543" lon="11.2972809"><ele>246.0</ele><time>2026-03-22T07:58:05.755Z</time></trkpt><trkpt lat="43.6588357" lon="11.2972033"><ele>246.0</ele><time>2026-03-22T07:58:06.754Z</time></trkpt><trkpt lat="43.6589132" lon="11.2971306"><ele>245.0</ele><time>2026-03-22T07:58:07.755Z</time></trkpt><trkpt lat="43.6589843" lon="11.2970578"><ele>244.0</ele><time>2026-03-22T07:58:08.755Z</time></trkpt><trkpt lat="43.6590496" lon="11.296997"><ele>243.0</ele><time>2026-03-22T07:58:09.756Z</time></trkpt><trkpt lat="43.6591108" lon="11.2969342"><ele>242.0</ele><time>2026-03-22T07:58:10.755Z</time></trkpt><trkpt lat="43.6591758" lon="11.2968567"><ele>241.0</ele><time>2026-03-22T07:58:11.754Z</time></trkpt><trkpt lat="43.6592455" lon="11.2967776"><ele>240.0</ele><time>2026-03-22T07:58:12.754Z</time></trkpt><trkpt lat="43.659313" lon="11.2966838"><ele>240.0</ele><time>2026-03-22T07:58:13.755Z</time></trkpt><trkpt lat="43.6594052" lon="11.2965971"><ele>240.0</ele><time>2026-03-22T07:58:14.754Z</time></trkpt><trkpt lat="43.6594869" lon="11.2965192"><ele>240.0</ele><time>2026-03-22T07:58:15.755Z</time></trkpt><trkpt lat="43.6595715" lon="11.2964416"><ele>240.0</ele><time>2026-03-22T07:58:16.754Z</time></trkpt><trkpt lat="43.6596571" lon="11.2963598"><ele>240.0</ele><time>2026-03-22T07:58:17.755Z</time></trkpt><trkpt lat="43.6597399" lon="11.2962684"><ele>240.2</ele><time>2026-03-22T07:58:18.754Z</time></trkpt><trkpt lat="43.6598237" lon="11.2961776"><ele>240.4</ele><time>2026-03-22T07:58:19.755Z</time></trkpt><trkpt lat="43.6599056" lon="11.2960886"><ele>240.60000000000002</ele><time>2026-03-22T07:58:20.754Z</time></trkpt><trkpt lat="43.6599815" lon="11.2959938"><ele>240.8</ele><time>2026-03-22T07:58:21.755Z</time></trkpt><trkpt lat="43.660058" lon="11.295904"><ele>241.0</ele><time>2026-03-22T07:58:22.755Z</time></trkpt><trkpt lat="43.6601386" lon="11.2958231"><ele>240.99999999999997</ele><time>2026-03-22T07:58:23.755Z</time></trkpt><trkpt lat="43.6602213" lon="11.2957511"><ele>241.0</ele><time>2026-03-22T07:58:24.755Z</time></trkpt><trkpt lat="43.6602988" lon="11.2956788"><ele>241.0</ele><time>2026-03-22T07:58:25.754Z</time></trkpt><trkpt lat="43.660372" lon="11.295613"><ele>241.0</ele><time>2026-03-22T07:58:26.754Z</time></trkpt><trkpt lat="43.6604332" lon="11.2955509"><ele>240.99999999999997</ele><time>2026-03-22T07:58:27.755Z</time></trkpt><trkpt lat="43.6604833" lon="11.2954942"><ele>241.0</ele><time>2026-03-22T07:58:28.754Z</time></trkpt><trkpt lat="43.6605266" lon="11.2953555"><ele>241.20000000000002</ele><time>2026-03-22T07:58:30.754Z</time></trkpt><trkpt lat="43.6604698" lon="11.2952227"><ele>241.40000000000003</ele><time>2026-03-22T07:58:32.755Z</time></trkpt><trkpt lat="43.6603818" lon="11.2951123"><ele>241.6</ele><time>2026-03-22T07:58:34.754Z</time></trkpt><trkpt lat="43.6602912" lon="11.2949725"><ele>241.8</ele><time>2026-03-22T07:58:36.755Z</time></trkpt><trkpt lat="43.660249" lon="11.2948859"><ele>242.0</ele><time>2026-03-22T07:58:37.755Z</time></trkpt><trkpt lat="43.6602029" lon="11.2947939"><ele>241.0</ele><time>2026-03-22T07:58:38.754Z</time></trkpt><trkpt lat="43.6601533" lon="11.294691"><ele>240.0</ele><time>2026-03-22T07:58:39.755Z</time></trkpt><trkpt lat="43.6601026" lon="11.2945851"><ele>239.0</ele><time>2026-03-22T07:58:40.755Z</time></trkpt><trkpt lat="43.66005" lon="11.2944753"><ele>238.0</ele><time>2026-03-22T07:58:41.754Z</time></trkpt><trkpt lat="43.6599912" lon="11.2943767"><ele>237.0</ele><time>2026-03-22T07:58:42.755Z</time></trkpt><trkpt lat="43.6599237" lon="11.2942894"><ele>237.0</ele><time>2026-03-22T07:58:43.756Z</time></trkpt><trkpt lat="43.6598575" lon="11.2942151"><ele>237.0</ele><time>2026-03-22T07:58:44.755Z</time></trkpt><trkpt lat="43.6597901" lon="11.2941453"><ele>237.0</ele><time>2026-03-22T07:58:45.754Z</time></trkpt><trkpt lat="43.6597251" lon="11.2940719"><ele>237.0</ele><time>2026-03-22T07:58:46.755Z</time></trkpt><trkpt lat="43.6596637" lon="11.293997"><ele>237.0</ele><time>2026-03-22T07:58:47.756Z</time></trkpt><trkpt lat="43.6596013" lon="11.2939135"><ele>237.0</ele><time>2026-03-22T07:58:48.754Z</time></trkpt><trkpt lat="43.6595535" lon="11.2938184"><ele>235.85714285714283</ele><time>2026-03-22T07:58:49.755Z</time></trkpt><trkpt lat="43.6595119" lon="11.2937238"><ele>234.71428571428572</ele><time>2026-03-22T07:58:50.755Z</time></trkpt><trkpt lat="43.6594763" lon="11.2936358"><ele>233.57142857142856</ele><time>2026-03-22T07:58:51.754Z</time></trkpt><trkpt lat="43.6594472" lon="11.2935562"><ele>232.42857142857142</ele><time>2026-03-22T07:58:52.755Z</time></trkpt><trkpt lat="43.6594049" lon="11.2934727"><ele>231.28571428571428</ele><time>2026-03-22T07:58:53.756Z</time></trkpt><trkpt lat="43.6593477" lon="11.2934137"><ele>230.14285714285714</ele><time>2026-03-22T07:58:54.755Z</time></trkpt><trkpt lat="43.6592828" lon="11.2933992"><ele>229.0</ele><time>2026-03-22T07:58:55.755Z</time></trkpt><trkpt lat="43.6591866" lon="11.2934995"><ele>229.39999999999998</ele><time>2026-03-22T07:58:57.755Z</time></trkpt><trkpt lat="43.6591557" lon="11.2936"><ele>229.79999999999998</ele><time>2026-03-22T07:58:58.755Z</time></trkpt><trkpt lat="43.6591159" lon="11.2937173"><ele>230.20000000000002</ele><time>2026-03-22T07:58:59.756Z</time></trkpt><trkpt lat="43.6590552" lon="11.2938305"><ele>230.60000000000002</ele><time>2026-03-22T07:59:00.755Z</time></trkpt><trkpt lat="43.6589702" lon="11.2939263"><ele>231.0</ele><time>2026-03-22T07:59:01.756Z</time></trkpt><trkpt lat="43.6588766" lon="11.2940154"><ele>231.0</ele><time>2026-03-22T07:59:02.756Z</time></trkpt><trkpt lat="43.6587806" lon="11.2940945"><ele>231.0</ele><time>2026-03-22T07:59:03.756Z</time></trkpt><trkpt lat="43.6586843" lon="11.2941748"><ele>231.0</ele><time>2026-03-22T07:59:04.755Z</time></trkpt><trkpt lat="43.6585869" lon="11.2942533"><ele>231.0</ele><time>2026-03-22T07:59:05.756Z</time></trkpt><trkpt lat="43.6584883" lon="11.2943365"><ele>231.60000000000002</ele><time>2026-03-22T07:59:06.755Z</time></trkpt><trkpt lat="43.6583884" lon="11.2944196"><ele>232.20000000000002</ele><time>2026-03-22T07:59:07.756Z</time></trkpt><trkpt lat="43.6582902" lon="11.2944982"><ele>232.79999999999998</ele><time>2026-03-22T07:59:08.756Z</time></trkpt><trkpt lat="43.6582005" lon="11.2945728"><ele>233.39999999999998</ele><time>2026-03-22T07:59:09.756Z</time></trkpt><trkpt lat="43.6581136" lon="11.2946457"><ele>234.0</ele><time>2026-03-22T07:59:10.755Z</time></trkpt><trkpt lat="43.6580282" lon="11.2947157"><ele>233.79999999999998</ele><time>2026-03-22T07:59:11.756Z</time></trkpt><trkpt lat="43.6579428" lon="11.2947925"><ele>233.59999999999997</ele><time>2026-03-22T07:59:12.756Z</time></trkpt><trkpt lat="43.6578519" lon="11.2948725"><ele>233.4</ele><time>2026-03-22T07:59:13.756Z</time></trkpt><trkpt lat="43.6577589" lon="11.2949597"><ele>233.2</ele><time>2026-03-22T07:59:14.755Z</time></trkpt><trkpt lat="43.6576645" lon="11.295056"><ele>233.0</ele><time>2026-03-22T07:59:15.756Z</time></trkpt><trkpt lat="43.6575717" lon="11.2951601"><ele>233.0</ele><time>2026-03-22T07:59:16.755Z</time></trkpt><trkpt lat="43.6574843" lon="11.2952743"><ele>233.0</ele><time>2026-03-22T07:59:17.756Z</time></trkpt><trkpt lat="43.6573996" lon="11.2953968"><ele>233.0</ele><time>2026-03-22T07:59:18.756Z</time></trkpt><trkpt lat="43.6573189" lon="11.2955158"><ele>233.0</ele><time>2026-03-22T07:59:19.756Z</time></trkpt><trkpt lat="43.6572412" lon="11.2956469"><ele>233.0</ele><time>2026-03-22T07:59:20.755Z</time></trkpt><trkpt lat="43.6571646" lon="11.2957898"><ele>233.0</ele><time>2026-03-22T07:59:21.757Z</time></trkpt><trkpt lat="43.6570889" lon="11.2959417"><ele>233.0</ele><time>2026-03-22T07:59:22.756Z</time></trkpt><trkpt lat="43.657016" lon="11.2961071"><ele>233.0</ele><time>2026-03-22T07:59:23.755Z</time></trkpt><trkpt lat="43.6569469" lon="11.2962766"><ele>230.25</ele><time>2026-03-22T07:59:24.755Z</time></trkpt><trkpt lat="43.656875" lon="11.2964561"><ele>227.5</ele><time>2026-03-22T07:59:25.756Z</time></trkpt><trkpt lat="43.6568052" lon="11.2966362"><ele>224.75</ele><time>2026-03-22T07:59:26.756Z</time></trkpt><trkpt lat="43.6567352" lon="11.2968179"><ele>222.0</ele><time>2026-03-22T07:59:27.756Z</time></trkpt><trkpt lat="43.656664" lon="11.2970005"><ele>222.0</ele><time>2026-03-22T07:59:28.756Z</time></trkpt><trkpt lat="43.6565919" lon="11.2971816"><ele>222.0</ele><time>2026-03-22T07:59:29.756Z</time></trkpt><trkpt lat="43.6565179" lon="11.2973539"><ele>222.0</ele><time>2026-03-22T07:59:30.756Z</time></trkpt><trkpt lat="43.6564427" lon="11.2975202"><ele>222.0</ele><time>2026-03-22T07:59:31.756Z</time></trkpt><trkpt lat="43.6563607" lon="11.2976861"><ele>221.75</ele><time>2026-03-22T07:59:32.756Z</time></trkpt><trkpt lat="43.6562755" lon="11.2978494"><ele>221.5</ele><time>2026-03-22T07:59:33.756Z</time></trkpt><trkpt lat="43.6561863" lon="11.298009"><ele>221.25</ele><time>2026-03-22T07:59:34.755Z</time></trkpt><trkpt lat="43.6560931" lon="11.2981622"><ele>221.0</ele><time>2026-03-22T07:59:35.756Z</time></trkpt><trkpt lat="43.6559921" lon="11.2983132"><ele>216.33333333333334</ele><time>2026-03-22T07:59:36.755Z</time></trkpt><trkpt lat="43.6558877" lon="11.2984652"><ele>211.66666666666669</ele><time>2026-03-22T07:59:37.756Z</time></trkpt><trkpt lat="43.6557797" lon="11.2986145"><ele>207.0</ele><time>2026-03-22T07:59:38.757Z</time></trkpt><trkpt lat="43.6556686" lon="11.2987649"><ele>207.0</ele><time>2026-03-22T07:59:39.755Z</time></trkpt><trkpt lat="43.6555587" lon="11.2989123"><ele>207.0</ele><time>2026-03-22T07:59:40.756Z</time></trkpt><trkpt lat="43.655452" lon="11.2990592"><ele>207.0</ele><time>2026-03-22T07:59:41.756Z</time></trkpt><trkpt lat="43.6553444" lon="11.2991998"><ele>207.5</ele><time>2026-03-22T07:59:42.756Z</time></trkpt><trkpt lat="43.6552354" lon="11.2993365"><ele>208.0</ele><time>2026-03-22T07:59:43.756Z</time></trkpt><trkpt lat="43.6551299" lon="11.2994742"><ele>208.5</ele><time>2026-03-22T07:59:44.755Z</time></trkpt><trkpt lat="43.6550253" lon="11.2996056"><ele>209.0</ele><time>2026-03-22T07:59:45.755Z</time></trkpt><trkpt lat="43.6549196" lon="11.2997421"><ele>212.33333333333334</ele><time>2026-03-22T07:59:46.756Z</time></trkpt><trkpt lat="43.6548022" lon="11.2998906"><ele>215.66666666666669</ele><time>2026-03-22T07:59:47.756Z</time></trkpt><trkpt lat="43.6546838" lon="11.3000308"><ele>219.0</ele><time>2026-03-22T07:59:48.755Z</time></trkpt><trkpt lat="43.654562" lon="11.3001718"><ele>216.66666666666669</ele><time>2026-03-22T07:59:49.756Z</time></trkpt><trkpt lat="43.6544396" lon="11.3003153"><ele>214.33333333333334</ele><time>2026-03-22T07:59:50.756Z</time></trkpt><trkpt lat="43.6543254" lon="11.300464"><ele>212.0</ele><time>2026-03-22T07:59:51.756Z</time></trkpt><trkpt lat="43.6542202" lon="11.3006269"><ele>212.0</ele><time>2026-03-22T07:59:52.756Z</time></trkpt><trkpt lat="43.654125" lon="11.3008049"><ele>212.0</ele><time>2026-03-22T07:59:53.757Z</time></trkpt><trkpt lat="43.6540414" lon="11.3010013"><ele>212.0</ele><time>2026-03-22T07:59:54.757Z</time></trkpt><trkpt lat="43.6539773" lon="11.3012112"><ele>213.0</ele><time>2026-03-22T07:59:55.757Z</time></trkpt><trkpt lat="43.6539278" lon="11.3014311"><ele>214.0</ele><time>2026-03-22T07:59:56.757Z</time></trkpt><trkpt lat="43.6538855" lon="11.3016593"><ele>215.0</ele><time>2026-03-22T07:59:57.756Z</time></trkpt><trkpt lat="43.6538482" lon="11.3018875"><ele>215.0</ele><time>2026-03-22T07:59:58.756Z</time></trkpt><trkpt lat="43.6538126" lon="11.3021135"><ele>215.0</ele><time>2026-03-22T07:59:59.755Z</time></trkpt><trkpt lat="43.6537791" lon="11.3023313"><ele>215.0</ele><time>2026-03-22T08:00:00.755Z</time></trkpt><trkpt lat="43.6537434" lon="11.3025437"><ele>215.66666666666669</ele><time>2026-03-22T08:00:01.756Z</time></trkpt><trkpt lat="43.6537086" lon="11.3027596"><ele>216.33333333333331</ele><time>2026-03-22T08:00:02.756Z</time></trkpt><trkpt lat="43.6536727" lon="11.3029741"><ele>217.0</ele><time>2026-03-22T08:00:03.755Z</time></trkpt><trkpt lat="43.6536376" lon="11.3031989"><ele>210.66666666666666</ele><time>2026-03-22T08:00:04.755Z</time></trkpt><trkpt lat="43.6536025" lon="11.303425"><ele>204.33333333333331</ele><time>2026-03-22T08:00:05.755Z</time></trkpt><trkpt lat="43.6535669" lon="11.3036487"><ele>198.0</ele><time>2026-03-22T08:00:06.756Z</time></trkpt><trkpt lat="43.6535311" lon="11.3038635"><ele>199.0</ele><time>2026-03-22T08:00:07.756Z</time></trkpt><trkpt lat="43.653489" lon="11.3040785"><ele>200.0</ele><time>2026-03-22T08:00:08.756Z</time></trkpt><trkpt lat="43.6534361" lon="11.3042912"><ele>201.0</ele><time>2026-03-22T08:00:09.757Z</time></trkpt><trkpt lat="43.6533767" lon="11.3045004"><ele>201.0</ele><time>2026-03-22T08:00:10.756Z</time></trkpt><trkpt lat="43.6533109" lon="11.3047086"><ele>201.0</ele><time>2026-03-22T08:00:11.756Z</time></trkpt><trkpt lat="43.6532414" lon="11.3049127"><ele>201.0</ele><time>2026-03-22T08:00:12.755Z</time></trkpt><trkpt lat="43.6531736" lon="11.3051139"><ele>203.33333333333331</ele><time>2026-03-22T08:00:13.756Z</time></trkpt><trkpt lat="43.6531085" lon="11.3053139"><ele>205.66666666666666</ele><time>2026-03-22T08:00:14.755Z</time></trkpt><trkpt lat="43.6530423" lon="11.3055082"><ele>208.0</ele><time>2026-03-22T08:00:15.757Z</time></trkpt><trkpt lat="43.6529757" lon="11.3056964"><ele>208.5</ele><time>2026-03-22T08:00:16.756Z</time></trkpt><trkpt lat="43.6529094" lon="11.3058805"><ele>209.0</ele><time>2026-03-22T08:00:17.756Z</time></trkpt><trkpt lat="43.6528454" lon="11.3060661"><ele>209.5</ele><time>2026-03-22T08:00:18.756Z</time></trkpt><trkpt lat="43.6527836" lon="11.3062523"><ele>210.0</ele><time>2026-03-22T08:00:19.756Z</time></trkpt><trkpt lat="43.6527203" lon="11.3064381"><ele>210.0</ele><time>2026-03-22T08:00:20.756Z</time></trkpt><trkpt lat="43.6526574" lon="11.3066223"><ele>210.0</ele><time>2026-03-22T08:00:21.756Z</time></trkpt><trkpt lat="43.6525922" lon="11.3068079"><ele>210.0</ele><time>2026-03-22T08:00:22.755Z</time></trkpt><trkpt lat="43.6525274" lon="11.3069929"><ele>210.0</ele><time>2026-03-22T08:00:23.755Z</time></trkpt><trkpt lat="43.6524607" lon="11.3071787"><ele>211.0</ele><time>2026-03-22T08:00:24.755Z</time></trkpt><trkpt lat="43.6523925" lon="11.307363"><ele>212.0</ele><time>2026-03-22T08:00:25.756Z</time></trkpt><trkpt lat="43.6523186" lon="11.3075507"><ele>213.0</ele><time>2026-03-22T08:00:26.755Z</time></trkpt><trkpt lat="43.6522408" lon="11.3077305"><ele>213.0</ele><time>2026-03-22T08:00:27.756Z</time></trkpt><trkpt lat="43.6521643" lon="11.3079112"><ele>213.0</ele><time>2026-03-22T08:00:28.757Z</time></trkpt><trkpt lat="43.6520873" lon="11.3080903"><ele>213.0</ele><time>2026-03-22T08:00:29.755Z</time></trkpt><trkpt lat="43.6520019" lon="11.3082666"><ele>213.25</ele><time>2026-03-22T08:00:30.755Z</time></trkpt><trkpt lat="43.6519093" lon="11.3084357"><ele>213.5</ele><time>2026-03-22T08:00:31.756Z</time></trkpt><trkpt lat="43.6518168" lon="11.3085953"><ele>213.75</ele><time>2026-03-22T08:00:32.755Z</time></trkpt><trkpt lat="43.6517224" lon="11.3087382"><ele>214.0</ele><time>2026-03-22T08:00:33.755Z</time></trkpt><trkpt lat="43.6516251" lon="11.3088691"><ele>214.25</ele><time>2026-03-22T08:00:34.757Z</time></trkpt><trkpt lat="43.6515165" lon="11.3089883"><ele>214.5</ele><time>2026-03-22T08:00:35.756Z</time></trkpt><trkpt lat="43.6514006" lon="11.3091003"><ele>214.75</ele><time>2026-03-22T08:00:36.756Z</time></trkpt><trkpt lat="43.651277" lon="11.3092092"><ele>215.0</ele><time>2026-03-22T08:00:37.756Z</time></trkpt><trkpt lat="43.6511504" lon="11.3093177"><ele>216.0</ele><time>2026-03-22T08:00:38.755Z</time></trkpt><trkpt lat="43.6510232" lon="11.3094333"><ele>217.0</ele><time>2026-03-22T08:00:39.756Z</time></trkpt><trkpt lat="43.6508954" lon="11.3095489"><ele>218.0</ele><time>2026-03-22T08:00:40.756Z</time></trkpt><trkpt lat="43.6507671" lon="11.3096606"><ele>218.66666666666669</ele><time>2026-03-22T08:00:41.756Z</time></trkpt><trkpt lat="43.6506407" lon="11.3097787"><ele>219.33333333333331</ele><time>2026-03-22T08:00:42.757Z</time></trkpt><trkpt lat="43.6505112" lon="11.3098975"><ele>220.0</ele><time>2026-03-22T08:00:43.756Z</time></trkpt><trkpt lat="43.650381" lon="11.3100178"><ele>220.66666666666666</ele><time>2026-03-22T08:00:44.756Z</time></trkpt><trkpt lat="43.6502512" lon="11.3101423"><ele>221.33333333333331</ele><time>2026-03-22T08:00:45.757Z</time></trkpt><trkpt lat="43.6501205" lon="11.3102651"><ele>222.0</ele><time>2026-03-22T08:00:46.756Z</time></trkpt><trkpt lat="43.6499893" lon="11.3103855"><ele>222.0</ele><time>2026-03-22T08:00:47.755Z</time></trkpt><trkpt lat="43.6498599" lon="11.3105059"><ele>222.0</ele><time>2026-03-22T08:00:48.755Z</time></trkpt><trkpt lat="43.649733" lon="11.3106254"><ele>222.0</ele><time>2026-03-22T08:00:49.756Z</time></trkpt><trkpt lat="43.6496024" lon="11.3107385"><ele>223.33333333333331</ele><time>2026-03-22T08:00:50.756Z</time></trkpt><trkpt lat="43.6494642" lon="11.3108306"><ele>224.66666666666666</ele><time>2026-03-22T08:00:51.756Z</time></trkpt><trkpt lat="43.6493099" lon="11.3108841"><ele>226.0</ele><time>2026-03-22T08:00:52.757Z</time></trkpt><trkpt lat="43.6491429" lon="11.3109193"><ele>226.66666666666666</ele><time>2026-03-22T08:00:53.755Z</time></trkpt><trkpt lat="43.64897" lon="11.3109539"><ele>227.33333333333331</ele><time>2026-03-22T08:00:54.755Z</time></trkpt><trkpt lat="43.6487975" lon="11.3109904"><ele>228.0</ele><time>2026-03-22T08:00:55.756Z</time></trkpt><trkpt lat="43.6486295" lon="11.3110252"><ele>229.33333333333331</ele><time>2026-03-22T08:00:56.756Z</time></trkpt><trkpt lat="43.6484653" lon="11.311057"><ele>230.66666666666666</ele><time>2026-03-22T08:00:57.756Z</time></trkpt><trkpt lat="43.6483014" lon="11.3110904"><ele>232.0</ele><time>2026-03-22T08:00:58.757Z</time></trkpt><trkpt lat="43.6481384" lon="11.3111241"><ele>232.0</ele><time>2026-03-22T08:00:59.756Z</time></trkpt><trkpt lat="43.6479764" lon="11.3111582"><ele>232.0</ele><time>2026-03-22T08:01:00.756Z</time></trkpt><trkpt lat="43.6478142" lon="11.3111954"><ele>232.0</ele><time>2026-03-22T08:01:01.755Z</time></trkpt><trkpt lat="43.6476507" lon="11.3112392"><ele>233.33333333333331</ele><time>2026-03-22T08:01:02.756Z</time></trkpt><trkpt lat="43.6474885" lon="11.3112849"><ele>234.66666666666669</ele><time>2026-03-22T08:01:03.755Z</time></trkpt><trkpt lat="43.6473234" lon="11.311338"><ele>236.0</ele><time>2026-03-22T08:01:04.755Z</time></trkpt><trkpt lat="43.6471566" lon="11.3113951"><ele>239.0</ele><time>2026-03-22T08:01:05.755Z</time></trkpt><trkpt lat="43.6469908" lon="11.3114546"><ele>242.0</ele><time>2026-03-22T08:01:06.755Z</time></trkpt><trkpt lat="43.646826" lon="11.3115121"><ele>245.0</ele><time>2026-03-22T08:01:07.755Z</time></trkpt><trkpt lat="43.6466627" lon="11.3115716"><ele>245.0</ele><time>2026-03-22T08:01:08.756Z</time></trkpt><trkpt lat="43.6464991" lon="11.3116317"><ele>245.0</ele><time>2026-03-22T08:01:09.755Z</time></trkpt><trkpt lat="43.646341" lon="11.3116921"><ele>245.0</ele><time>2026-03-22T08:01:10.755Z</time></trkpt><trkpt lat="43.6461867" lon="11.3117567"><ele>244.33333333333334</ele><time>2026-03-22T08:01:11.755Z</time></trkpt><trkpt lat="43.64603" lon="11.3118349"><ele>243.66666666666669</ele><time>2026-03-22T08:01:12.756Z</time></trkpt><trkpt lat="43.6458755" lon="11.3119155"><ele>243.0</ele><time>2026-03-22T08:01:13.755Z</time></trkpt><trkpt lat="43.6457184" lon="11.3119956"><ele>243.0</ele><time>2026-03-22T08:01:14.755Z</time></trkpt><trkpt lat="43.6455468" lon="11.3120701"><ele>243.0</ele><time>2026-03-22T08:01:15.755Z</time></trkpt><trkpt lat="43.6453791" lon="11.3121212"><ele>243.0</ele><time>2026-03-22T08:01:16.755Z</time></trkpt><trkpt lat="43.6452107" lon="11.3121558"><ele>243.0</ele><time>2026-03-22T08:01:17.755Z</time></trkpt><trkpt lat="43.6450444" lon="11.3121834"><ele>243.0</ele><time>2026-03-22T08:01:18.757Z</time></trkpt><trkpt lat="43.6448837" lon="11.3122126"><ele>243.0</ele><time>2026-03-22T08:01:19.755Z</time></trkpt><trkpt lat="43.6447256" lon="11.312241"><ele>244.66666666666669</ele><time>2026-03-22T08:01:20.756Z</time></trkpt><trkpt lat="43.6445623" lon="11.3122631"><ele>246.33333333333334</ele><time>2026-03-22T08:01:21.756Z</time></trkpt><trkpt lat="43.644398" lon="11.3122907"><ele>248.0</ele><time>2026-03-22T08:01:22.755Z</time></trkpt><trkpt lat="43.6442347" lon="11.3123158"><ele>249.66666666666669</ele><time>2026-03-22T08:01:23.757Z</time></trkpt><trkpt lat="43.6440705" lon="11.3123457"><ele>251.33333333333331</ele><time>2026-03-22T08:01:24.756Z</time></trkpt><trkpt lat="43.6439058" lon="11.3123699"><ele>253.0</ele><time>2026-03-22T08:01:25.755Z</time></trkpt><trkpt lat="43.6437423" lon="11.312395"><ele>253.33333333333331</ele><time>2026-03-22T08:01:26.755Z</time></trkpt><trkpt lat="43.6435737" lon="11.3124193"><ele>253.66666666666669</ele><time>2026-03-22T08:01:27.756Z</time></trkpt><trkpt lat="43.6434076" lon="11.312444"><ele>254.0</ele><time>2026-03-22T08:01:28.755Z</time></trkpt><trkpt lat="43.6432406" lon="11.3124726"><ele>254.0</ele><time>2026-03-22T08:01:29.755Z</time></trkpt><trkpt lat="43.6430771" lon="11.3125025"><ele>254.0</ele><time>2026-03-22T08:01:30.756Z</time></trkpt><trkpt lat="43.6429089" lon="11.3125308"><ele>254.0</ele><time>2026-03-22T08:01:31.756Z</time></trkpt><trkpt lat="43.6427414" lon="11.3125568"><ele>255.66666666666669</ele><time>2026-03-22T08:01:32.756Z</time></trkpt><trkpt lat="43.6425728" lon="11.3125839"><ele>257.3333333333333</ele><time>2026-03-22T08:01:33.756Z</time></trkpt><trkpt lat="43.6424081" lon="11.3126136"><ele>259.0</ele><time>2026-03-22T08:01:34.756Z</time></trkpt><trkpt lat="43.642244" lon="11.3126447"><ele>259.0</ele><time>2026-03-22T08:01:35.756Z</time></trkpt><trkpt lat="43.6420829" lon="11.3126703"><ele>259.0</ele><time>2026-03-22T08:01:36.755Z</time></trkpt><trkpt lat="43.6419203" lon="11.3126964"><ele>259.0</ele><time>2026-03-22T08:01:37.755Z</time></trkpt><trkpt lat="43.6417493" lon="11.3127222"><ele>261.3333333333333</ele><time>2026-03-22T08:01:38.756Z</time></trkpt><trkpt lat="43.6415832" lon="11.3127535"><ele>263.6666666666667</ele><time>2026-03-22T08:01:39.756Z</time></trkpt><trkpt lat="43.6414102" lon="11.3127969"><ele>266.0</ele><time>2026-03-22T08:01:40.756Z</time></trkpt><trkpt lat="43.641242" lon="11.3128556"><ele>267.33333333333337</ele><time>2026-03-22T08:01:41.756Z</time></trkpt><trkpt lat="43.6410796" lon="11.3129337"><ele>268.6666666666667</ele><time>2026-03-22T08:01:42.756Z</time></trkpt><trkpt lat="43.6409237" lon="11.3130256"><ele>270.0</ele><time>2026-03-22T08:01:43.756Z</time></trkpt><trkpt lat="43.6407698" lon="11.3131146"><ele>270.0</ele><time>2026-03-22T08:01:44.756Z</time></trkpt><trkpt lat="43.6406185" lon="11.313196"><ele>270.0</ele><time>2026-03-22T08:01:45.756Z</time></trkpt><trkpt lat="43.6404621" lon="11.3132625"><ele>270.0</ele><time>2026-03-22T08:01:46.756Z</time></trkpt><trkpt lat="43.6403049" lon="11.3133035"><ele>272.6666666666667</ele><time>2026-03-22T08:01:47.755Z</time></trkpt><trkpt lat="43.6401432" lon="11.3133256"><ele>275.33333333333337</ele><time>2026-03-22T08:01:48.755Z</time></trkpt><trkpt lat="43.6399876" lon="11.3133424"><ele>278.0</ele><time>2026-03-22T08:01:49.756Z</time></trkpt><trkpt lat="43.639842" lon="11.3133596"><ele>278.0</ele><time>2026-03-22T08:01:50.755Z</time></trkpt><trkpt lat="43.6397103" lon="11.3133772"><ele>278.0</ele><time>2026-03-22T08:01:51.755Z</time></trkpt><trkpt lat="43.6395879" lon="11.3133945"><ele>278.0</ele><time>2026-03-22T08:01:52.757Z</time></trkpt><trkpt lat="43.639458" lon="11.3134203"><ele>278.0</ele><time>2026-03-22T08:01:53.756Z</time></trkpt><trkpt lat="43.6393288" lon="11.3134542"><ele>277.75</ele><time>2026-03-22T08:01:54.757Z</time></trkpt><trkpt lat="43.6391965" lon="11.3134969"><ele>277.5</ele><time>2026-03-22T08:01:55.757Z</time></trkpt><trkpt lat="43.6390612" lon="11.3135487"><ele>277.25</ele><time>2026-03-22T08:01:56.756Z</time></trkpt><trkpt lat="43.6389259" lon="11.3136141"><ele>277.0</ele><time>2026-03-22T08:01:57.755Z</time></trkpt><trkpt lat="43.6388025" lon="11.3136776"><ele>277.0</ele><time>2026-03-22T08:01:58.755Z</time></trkpt><trkpt lat="43.6386876" lon="11.3137371"><ele>277.0</ele><time>2026-03-22T08:01:59.756Z</time></trkpt><trkpt lat="43.6385792" lon="11.3137956"><ele>277.0</ele><time>2026-03-22T08:02:00.756Z</time></trkpt><trkpt lat="43.6384696" lon="11.3138503"><ele>277.0</ele><time>2026-03-22T08:02:01.755Z</time></trkpt><trkpt lat="43.6383599" lon="11.3139016"><ele>278.0</ele><time>2026-03-22T08:02:02.756Z</time></trkpt><trkpt lat="43.6382595" lon="11.3139381"><ele>279.0</ele><time>2026-03-22T08:02:03.756Z</time></trkpt><trkpt lat="43.6381661" lon="11.3139591"><ele>280.0</ele><time>2026-03-22T08:02:04.756Z</time></trkpt><trkpt lat="43.6380828" lon="11.3139738"><ele>281.0</ele><time>2026-03-22T08:02:05.757Z</time></trkpt><trkpt lat="43.638018" lon="11.313986"><ele>282.0</ele><time>2026-03-22T08:02:06.755Z</time></trkpt><trkpt lat="43.6379211" lon="11.3140025"><ele>283.0</ele><time>2026-03-22T08:02:08.757Z</time></trkpt><trkpt lat="43.6378443" lon="11.3140103"><ele>283.0</ele><time>2026-03-22T08:02:10.756Z</time></trkpt><trkpt lat="43.6377826" lon="11.3140509"><ele>283.0</ele><time>2026-03-22T08:02:12.755Z</time></trkpt><trkpt lat="43.6378084" lon="11.3141496"><ele>283.0</ele><time>2026-03-22T08:02:15.755Z</time></trkpt><trkpt lat="43.6378729" lon="11.3141743"><ele>283.0</ele><time>2026-03-22T08:02:16.755Z</time></trkpt><trkpt lat="43.6379686" lon="11.3142511"><ele>283.0</ele><time>2026-03-22T08:02:18.756Z</time></trkpt><trkpt lat="43.6380449" lon="11.3143542"><ele>283.0</ele><time>2026-03-22T08:02:20.755Z</time></trkpt><trkpt lat="43.638114" lon="11.314484"><ele>283.0</ele><time>2026-03-22T08:02:22.755Z</time></trkpt><trkpt lat="43.6381688" lon="11.3146077"><ele>283.0</ele><time>2026-03-22T08:02:24.756Z</time></trkpt><trkpt lat="43.6381629" lon="11.3147216"><ele>283.0</ele><time>2026-03-22T08:02:26.756Z</time></trkpt><trkpt lat="43.6380765" lon="11.3148172"><ele>283.0</ele><time>2026-03-22T08:02:28.755Z</time></trkpt><trkpt lat="43.6380172" lon="11.3148625"><ele>283.0</ele><time>2026-03-22T08:02:29.756Z</time></trkpt><trkpt lat="43.6379575" lon="11.3149034"><ele>283.0</ele><time>2026-03-22T08:02:30.755Z</time></trkpt><trkpt lat="43.6378962" lon="11.3149375"><ele>283.8571428571429</ele><time>2026-03-22T08:02:31.755Z</time></trkpt><trkpt lat="43.6378362" lon="11.3149801"><ele>284.7142857142857</ele><time>2026-03-22T08:02:32.756Z</time></trkpt><trkpt lat="43.6377807" lon="11.3150401"><ele>285.57142857142856</ele><time>2026-03-22T08:02:33.755Z</time></trkpt><trkpt lat="43.6377317" lon="11.3151045"><ele>286.42857142857144</ele><time>2026-03-22T08:02:34.755Z</time></trkpt><trkpt lat="43.6376844" lon="11.3151741"><ele>287.2857142857143</ele><time>2026-03-22T08:02:35.756Z</time></trkpt><trkpt lat="43.6376385" lon="11.3152476"><ele>288.14285714285717</ele><time>2026-03-22T08:02:36.756Z</time></trkpt><trkpt lat="43.6375947" lon="11.3153263"><ele>289.0</ele><time>2026-03-22T08:02:37.755Z</time></trkpt><trkpt lat="43.6375487" lon="11.3154136"><ele>290.3333333333333</ele><time>2026-03-22T08:02:38.756Z</time></trkpt><trkpt lat="43.6375054" lon="11.3154967"><ele>291.66666666666663</ele><time>2026-03-22T08:02:39.755Z</time></trkpt><trkpt lat="43.6374551" lon="11.3155815"><ele>293.0</ele><time>2026-03-22T08:02:40.755Z</time></trkpt><trkpt lat="43.6374026" lon="11.3156498"><ele>294.3333333333333</ele><time>2026-03-22T08:02:41.756Z</time></trkpt><trkpt lat="43.6373503" lon="11.3157205"><ele>295.6666666666667</ele><time>2026-03-22T08:02:42.756Z</time></trkpt><trkpt lat="43.6372966" lon="11.3157894"><ele>297.0</ele><time>2026-03-22T08:02:43.755Z</time></trkpt><trkpt lat="43.6371952" lon="11.3159311"><ele>298.5</ele><time>2026-03-22T08:02:45.755Z</time></trkpt><trkpt lat="43.6371526" lon="11.316006"><ele>300.0</ele><time>2026-03-22T08:02:46.755Z</time></trkpt><trkpt lat="43.6371082" lon="11.3160986"><ele>301.5</ele><time>2026-03-22T08:02:47.756Z</time></trkpt><trkpt lat="43.637025" lon="11.3162175"><ele>303.0</ele><time>2026-03-22T08:02:49.756Z</time></trkpt><trkpt lat="43.6369583" lon="11.3162828"><ele>304.5</ele><time>2026-03-22T08:02:50.755Z</time></trkpt><trkpt lat="43.6368905" lon="11.3163592"><ele>306.0</ele><time>2026-03-22T08:02:51.755Z</time></trkpt><trkpt lat="43.6368149" lon="11.3164418"><ele>308.3333333333333</ele><time>2026-03-22T08:02:52.756Z</time></trkpt><trkpt lat="43.6367431" lon="11.3165168"><ele>310.6666666666667</ele><time>2026-03-22T08:02:53.756Z</time></trkpt><trkpt lat="43.636683" lon="11.316587"><ele>313.0</ele><time>2026-03-22T08:02:54.756Z</time></trkpt><trkpt lat="43.6366294" lon="11.3166736"><ele>315.33333333333337</ele><time>2026-03-22T08:02:55.757Z</time></trkpt><trkpt lat="43.6365868" lon="11.3167443"><ele>317.6666666666667</ele><time>2026-03-22T08:02:56.756Z</time></trkpt><trkpt lat="43.6364724" lon="11.3167959"><ele>320.0</ele><time>2026-03-22T08:02:58.757Z</time></trkpt><trkpt lat="43.6363919" lon="11.3168147"><ele>320.0</ele><time>2026-03-22T08:02:59.756Z</time></trkpt><trkpt lat="43.6363185" lon="11.3168274"><ele>320.0</ele><time>2026-03-22T08:03:00.757Z</time></trkpt><trkpt lat="43.6362368" lon="11.3168099"><ele>320.0</ele><time>2026-03-22T08:03:01.756Z</time></trkpt><trkpt lat="43.6361555" lon="11.3167799"><ele>320.0</ele><time>2026-03-22T08:03:02.756Z</time></trkpt><trkpt lat="43.6360839" lon="11.3167539"><ele>320.0</ele><time>2026-03-22T08:03:03.756Z</time></trkpt><trkpt lat="43.6360062" lon="11.3167274"><ele>320.0</ele><time>2026-03-22T08:03:04.756Z</time></trkpt><trkpt lat="43.6359392" lon="11.3168462"><ele>322.0</ele><time>2026-03-22T08:03:07.755Z</time></trkpt><trkpt lat="43.6358779" lon="11.3169236"><ele>324.0</ele><time>2026-03-22T08:03:09.756Z</time></trkpt><trkpt lat="43.6357793" lon="11.3169883"><ele>326.0</ele><time>2026-03-22T08:03:11.757Z</time></trkpt><trkpt lat="43.6356859" lon="11.3170835"><ele>328.0</ele><time>2026-03-22T08:03:13.755Z</time></trkpt><trkpt lat="43.6356263" lon="11.3171286"><ele>330.0</ele><time>2026-03-22T08:03:14.756Z</time></trkpt><trkpt lat="43.6355609" lon="11.3171673"><ele>332.0</ele><time>2026-03-22T08:03:15.756Z</time></trkpt><trkpt lat="43.6354924" lon="11.317231"><ele>333.5</ele><time>2026-03-22T08:03:16.755Z</time></trkpt><trkpt lat="43.6354268" lon="11.3172781"><ele>335.0</ele><time>2026-03-22T08:03:17.755Z</time></trkpt><trkpt lat="43.6353754" lon="11.3173389"><ele>336.5</ele><time>2026-03-22T08:03:18.755Z</time></trkpt><trkpt lat="43.6352975" lon="11.3174774"><ele>338.0</ele><time>2026-03-22T08:03:20.755Z</time></trkpt><trkpt lat="43.635247" lon="11.3175441"><ele>339.5</ele><time>2026-03-22T08:03:21.755Z</time></trkpt><trkpt lat="43.635177" lon="11.317613"><ele>341.0</ele><time>2026-03-22T08:03:22.756Z</time></trkpt><trkpt lat="43.6351067" lon="11.3176943"><ele>341.83333333333337</ele><time>2026-03-22T08:03:23.756Z</time></trkpt><trkpt lat="43.6350476" lon="11.3177598"><ele>342.6666666666667</ele><time>2026-03-22T08:03:24.755Z</time></trkpt><trkpt lat="43.6349821" lon="11.3177865"><ele>343.5</ele><time>2026-03-22T08:03:25.755Z</time></trkpt><trkpt lat="43.6348639" lon="11.317769"><ele>344.3333333333333</ele><time>2026-03-22T08:03:27.755Z</time></trkpt><trkpt lat="43.6347952" lon="11.3177665"><ele>345.16666666666663</ele><time>2026-03-22T08:03:28.755Z</time></trkpt><trkpt lat="43.6347295" lon="11.3177604"><ele>346.0</ele><time>2026-03-22T08:03:29.755Z</time></trkpt><trkpt lat="43.6346629" lon="11.3177746"><ele>346.0</ele><time>2026-03-22T08:03:30.755Z</time></trkpt><trkpt lat="43.6345813" lon="11.3177868"><ele>346.0</ele><time>2026-03-22T08:03:31.755Z</time></trkpt><trkpt lat="43.634503" lon="11.3177866"><ele>346.0</ele><time>2026-03-22T08:03:32.756Z</time></trkpt><trkpt lat="43.6344292" lon="11.317789"><ele>346.0</ele><time>2026-03-22T08:03:33.755Z</time></trkpt><trkpt lat="43.6343657" lon="11.317803"><ele>346.0</ele><time>2026-03-22T08:03:34.756Z</time></trkpt><trkpt lat="43.6342591" lon="11.3177971"><ele>346.0</ele><time>2026-03-22T08:03:36.756Z</time></trkpt><trkpt lat="43.6341873" lon="11.3178154"><ele>346.57142857142856</ele><time>2026-03-22T08:03:37.756Z</time></trkpt><trkpt lat="43.6341205" lon="11.3178548"><ele>347.14285714285717</ele><time>2026-03-22T08:03:38.755Z</time></trkpt><trkpt lat="43.6340449" lon="11.3178919"><ele>347.7142857142857</ele><time>2026-03-22T08:03:39.756Z</time></trkpt><trkpt lat="43.6339728" lon="11.3178755"><ele>348.2857142857143</ele><time>2026-03-22T08:03:40.756Z</time></trkpt><trkpt lat="43.6339044" lon="11.3178511"><ele>348.8571428571429</ele><time>2026-03-22T08:03:41.757Z</time></trkpt><trkpt lat="43.6338306" lon="11.3178165"><ele>349.42857142857144</ele><time>2026-03-22T08:03:42.755Z</time></trkpt><trkpt lat="43.6337621" lon="11.3177835"><ele>350.0</ele><time>2026-03-22T08:03:43.755Z</time></trkpt><trkpt lat="43.633697" lon="11.3177649"><ele>351.0</ele><time>2026-03-22T08:03:44.755Z</time></trkpt><trkpt lat="43.6336134" lon="11.3178276"><ele>352.0</ele><time>2026-03-22T08:03:47.756Z</time></trkpt><trkpt lat="43.6335529" lon="11.317902"><ele>353.0</ele><time>2026-03-22T08:03:49.755Z</time></trkpt><trkpt lat="43.6334676" lon="11.3179797"><ele>354.0</ele><time>2026-03-22T08:03:51.756Z</time></trkpt><trkpt lat="43.6333667" lon="11.3180676"><ele>355.0</ele><time>2026-03-22T08:03:53.756Z</time></trkpt><trkpt lat="43.6333087" lon="11.3181168"><ele>356.8333333333333</ele><time>2026-03-22T08:03:54.755Z</time></trkpt><trkpt lat="43.6332443" lon="11.3181715"><ele>358.66666666666663</ele><time>2026-03-22T08:03:55.756Z</time></trkpt><trkpt lat="43.633179" lon="11.3182381"><ele>360.5</ele><time>2026-03-22T08:03:56.755Z</time></trkpt><trkpt lat="43.6331125" lon="11.3183098"><ele>362.3333333333333</ele><time>2026-03-22T08:03:57.755Z</time></trkpt><trkpt lat="43.6330508" lon="11.3183456"><ele>364.1666666666667</ele><time>2026-03-22T08:03:58.756Z</time></trkpt><trkpt lat="43.6329859" lon="11.3183851"><ele>366.0</ele><time>2026-03-22T08:03:59.756Z</time></trkpt><trkpt lat="43.6328792" lon="11.3184726"><ele>366.0</ele><time>2026-03-22T08:04:01.756Z</time></trkpt><trkpt lat="43.6328136" lon="11.3185166"><ele>366.0</ele><time>2026-03-22T08:04:02.756Z</time></trkpt><trkpt lat="43.6327443" lon="11.3185791"><ele>366.0</ele><time>2026-03-22T08:04:03.756Z</time></trkpt><trkpt lat="43.6326733" lon="11.3186591"><ele>366.0</ele><time>2026-03-22T08:04:04.755Z</time></trkpt><trkpt lat="43.6326081" lon="11.3187282"><ele>366.0</ele><time>2026-03-22T08:04:05.755Z</time></trkpt><trkpt lat="43.6325399" lon="11.3187964"><ele>366.0</ele><time>2026-03-22T08:04:06.755Z</time></trkpt><trkpt lat="43.6324798" lon="11.318857"><ele>369.4</ele><time>2026-03-22T08:04:07.756Z</time></trkpt><trkpt lat="43.6324177" lon="11.3189128"><ele>372.8</ele><time>2026-03-22T08:04:08.755Z</time></trkpt><trkpt lat="43.6323546" lon="11.3189554"><ele>376.2</ele><time>2026-03-22T08:04:09.756Z</time></trkpt><trkpt lat="43.6322485" lon="11.3190317"><ele>379.59999999999997</ele><time>2026-03-22T08:04:11.755Z</time></trkpt><trkpt lat="43.6321567" lon="11.3191072"><ele>383.0</ele><time>2026-03-22T08:04:13.756Z</time></trkpt><trkpt lat="43.6320857" lon="11.3191864"><ele>383.0</ele><time>2026-03-22T08:04:15.756Z</time></trkpt><trkpt lat="43.632005" lon="11.3192498"><ele>383.0</ele><time>2026-03-22T08:04:17.756Z</time></trkpt><trkpt lat="43.6319603" lon="11.319352"><ele>383.0</ele><time>2026-03-22T08:04:20.755Z</time></trkpt><trkpt lat="43.6319552" lon="11.3194888"><ele>383.0</ele><time>2026-03-22T08:04:22.756Z</time></trkpt><trkpt lat="43.6319493" lon="11.3196678"><ele>383.0</ele><time>2026-03-22T08:04:24.755Z</time></trkpt><trkpt lat="43.6319391" lon="11.319767"><ele>386.79999999999995</ele><time>2026-03-22T08:04:25.755Z</time></trkpt><trkpt lat="43.6319229" lon="11.3198658"><ele>390.6</ele><time>2026-03-22T08:04:26.755Z</time></trkpt><trkpt lat="43.631883" lon="11.3199953"><ele>394.4</ele><time>2026-03-22T08:04:28.756Z</time></trkpt><trkpt lat="43.6318063" lon="11.3200501"><ele>398.20000000000005</ele><time>2026-03-22T08:04:31.756Z</time></trkpt><trkpt lat="43.6317301" lon="11.3201371"><ele>402.0</ele><time>2026-03-22T08:04:34.755Z</time></trkpt><trkpt lat="43.6316743" lon="11.3202367"><ele>402.0</ele><time>2026-03-22T08:04:36.756Z</time></trkpt><trkpt lat="43.631616" lon="11.3203385"><ele>402.0</ele><time>2026-03-22T08:04:38.755Z</time></trkpt><trkpt lat="43.6315491" lon="11.3204901"><ele>402.0</ele><time>2026-03-22T08:04:40.755Z</time></trkpt><trkpt lat="43.6315164" lon="11.3206011"><ele>402.0</ele><time>2026-03-22T08:04:42.755Z</time></trkpt><trkpt lat="43.6315378" lon="11.3207447"><ele>402.0</ele><time>2026-03-22T08:04:45.756Z</time></trkpt><trkpt lat="43.6316076" lon="11.3207465"><ele>404.40000000000003</ele><time>2026-03-22T08:04:46.756Z</time></trkpt><trkpt lat="43.6316953" lon="11.3208396"><ele>406.8</ele><time>2026-03-22T08:04:48.755Z</time></trkpt><trkpt lat="43.6317368" lon="11.3209132"><ele>409.2</ele><time>2026-03-22T08:04:49.757Z</time></trkpt><trkpt lat="43.6317975" lon="11.3209786"><ele>411.6</ele><time>2026-03-22T08:04:50.756Z</time></trkpt><trkpt lat="43.6318615" lon="11.3210574"><ele>414.0</ele><time>2026-03-22T08:04:51.756Z</time></trkpt><trkpt lat="43.6319225" lon="11.3212117"><ele>414.0</ele><time>2026-03-22T08:04:53.755Z</time></trkpt><trkpt lat="43.631964" lon="11.3212977"><ele>414.0</ele><time>2026-03-22T08:04:54.755Z</time></trkpt><trkpt lat="43.6320009" lon="11.3213736"><ele>414.0</ele><time>2026-03-22T08:04:55.757Z</time></trkpt><trkpt lat="43.6320654" lon="11.3215006"><ele>414.0</ele><time>2026-03-22T08:04:57.755Z</time></trkpt><trkpt lat="43.6321888" lon="11.3215512"><ele>414.0</ele><time>2026-03-22T08:04:59.756Z</time></trkpt><trkpt lat="43.6322906" lon="11.3215627"><ele>415.6</ele><time>2026-03-22T08:05:00.756Z</time></trkpt><trkpt lat="43.6323814" lon="11.3216213"><ele>417.2</ele><time>2026-03-22T08:05:01.757Z</time></trkpt><trkpt lat="43.6324748" lon="11.3216781"><ele>418.8</ele><time>2026-03-22T08:05:02.755Z</time></trkpt><trkpt lat="43.6325454" lon="11.3217865"><ele>420.40000000000003</ele><time>2026-03-22T08:05:03.756Z</time></trkpt><trkpt lat="43.6325989" lon="11.3218862"><ele>422.0</ele><time>2026-03-22T08:05:04.755Z</time></trkpt><trkpt lat="43.632633" lon="11.3219828"><ele>421.99999999999994</ele><time>2026-03-22T08:05:05.756Z</time></trkpt><trkpt lat="43.632666" lon="11.3220817"><ele>422.0</ele><time>2026-03-22T08:05:06.756Z</time></trkpt><trkpt lat="43.6326889" lon="11.3221826"><ele>422.0</ele><time>2026-03-22T08:05:07.757Z</time></trkpt><trkpt lat="43.632716" lon="11.322289"><ele>422.0</ele><time>2026-03-22T08:05:08.756Z</time></trkpt><trkpt lat="43.6327391" lon="11.3224154"><ele>421.99999999999994</ele><time>2026-03-22T08:05:10.756Z</time></trkpt><trkpt lat="43.6328094" lon="11.3225013"><ele>422.0</ele><time>2026-03-22T08:05:12.757Z</time></trkpt><trkpt lat="43.6328831" lon="11.3225738"><ele>423.8</ele><time>2026-03-22T08:05:14.757Z</time></trkpt><trkpt lat="43.6329887" lon="11.3226296"><ele>425.6</ele><time>2026-03-22T08:05:16.757Z</time></trkpt><trkpt lat="43.6330641" lon="11.3226461"><ele>427.40000000000003</ele><time>2026-03-22T08:05:17.757Z</time></trkpt><trkpt lat="43.6331523" lon="11.3227102"><ele>429.20000000000005</ele><time>2026-03-22T08:05:19.758Z</time></trkpt><trkpt lat="43.6331824" lon="11.3228617"><ele>431.0</ele><time>2026-03-22T08:05:21.756Z</time></trkpt><trkpt lat="43.633234" lon="11.3229691"><ele>432.66666666666663</ele><time>2026-03-22T08:05:22.756Z</time></trkpt><trkpt lat="43.6332921" lon="11.3230837"><ele>434.3333333333333</ele><time>2026-03-22T08:05:23.758Z</time></trkpt><trkpt lat="43.6333414" lon="11.323186"><ele>436.0</ele><time>2026-03-22T08:05:24.756Z</time></trkpt><trkpt lat="43.6333625" lon="11.3232803"><ele>437.66666666666663</ele><time>2026-03-22T08:05:25.757Z</time></trkpt><trkpt lat="43.6333924" lon="11.3233805"><ele>439.3333333333333</ele><time>2026-03-22T08:05:26.756Z</time></trkpt><trkpt lat="43.6334163" lon="11.3234743"><ele>441.0</ele><time>2026-03-22T08:05:27.756Z</time></trkpt><trkpt lat="43.6334485" lon="11.3235953"><ele>441.0</ele><time>2026-03-22T08:05:28.757Z</time></trkpt><trkpt lat="43.6334794" lon="11.3237332"><ele>441.0</ele><time>2026-03-22T08:05:29.756Z</time></trkpt><trkpt lat="43.6335079" lon="11.3238458"><ele>441.0</ele><time>2026-03-22T08:05:30.757Z</time></trkpt><trkpt lat="43.633535" lon="11.3239269"><ele>441.0</ele><time>2026-03-22T08:05:31.757Z</time></trkpt><trkpt lat="43.6335578" lon="11.3240176"><ele>441.0</ele><time>2026-03-22T08:05:32.756Z</time></trkpt><trkpt lat="43.6336223" lon="11.3241277"><ele>441.0</ele><time>2026-03-22T08:05:34.756Z</time></trkpt><trkpt lat="43.6336755" lon="11.324246"><ele>441.0</ele><time>2026-03-22T08:05:35.756Z</time></trkpt><trkpt lat="43.6337172" lon="11.3243445"><ele>441.0</ele><time>2026-03-22T08:05:36.756Z</time></trkpt><trkpt lat="43.6337751" lon="11.3244585"><ele>441.0</ele><time>2026-03-22T08:05:37.756Z</time></trkpt><trkpt lat="43.6338192" lon="11.3245482"><ele>441.0</ele><time>2026-03-22T08:05:38.757Z</time></trkpt><trkpt lat="43.63389" lon="11.3246571"><ele>441.0</ele><time>2026-03-22T08:05:39.756Z</time></trkpt><trkpt lat="43.6339393" lon="11.3247395"><ele>441.0</ele><time>2026-03-22T08:05:40.757Z</time></trkpt><trkpt lat="43.6340417" lon="11.3248381"><ele>443.20000000000005</ele><time>2026-03-22T08:05:42.758Z</time></trkpt><trkpt lat="43.6341232" lon="11.32479"><ele>445.40000000000003</ele><time>2026-03-22T08:05:43.757Z</time></trkpt><trkpt lat="43.6341882" lon="11.3248128"><ele>447.6</ele><time>2026-03-22T08:05:44.756Z</time></trkpt><trkpt lat="43.6342626" lon="11.3248224"><ele>449.8</ele><time>2026-03-22T08:05:45.756Z</time></trkpt><trkpt lat="43.6343644" lon="11.3248885"><ele>452.0</ele><time>2026-03-22T08:05:46.757Z</time></trkpt><trkpt lat="43.6344739" lon="11.3249537"><ele>452.0</ele><time>2026-03-22T08:05:47.757Z</time></trkpt><trkpt lat="43.6345816" lon="11.325017"><ele>452.00000000000006</ele><time>2026-03-22T08:05:48.758Z</time></trkpt><trkpt lat="43.6346763" lon="11.3250628"><ele>452.00000000000006</ele><time>2026-03-22T08:05:49.757Z</time></trkpt><trkpt lat="43.6347756" lon="11.3250856"><ele>452.0</ele><time>2026-03-22T08:05:50.758Z</time></trkpt><trkpt lat="43.6348592" lon="11.325129"><ele>452.0</ele><time>2026-03-22T08:05:51.756Z</time></trkpt><trkpt lat="43.6349865" lon="11.3252315"><ele>452.0</ele><time>2026-03-22T08:05:53.757Z</time></trkpt><trkpt lat="43.6350584" lon="11.3252494"><ele>452.00000000000006</ele><time>2026-03-22T08:05:54.757Z</time></trkpt><trkpt lat="43.6351298" lon="11.3252175"><ele>452.00000000000006</ele><time>2026-03-22T08:05:55.757Z</time></trkpt><trkpt lat="43.6352184" lon="11.3251426"><ele>452.0</ele><time>2026-03-22T08:05:56.756Z</time></trkpt><trkpt lat="43.6353023" lon="11.3250694"><ele>452.0</ele><time>2026-03-22T08:05:57.757Z</time></trkpt><trkpt lat="43.6353935" lon="11.3249931"><ele>451.3333333333333</ele><time>2026-03-22T08:05:58.756Z</time></trkpt><trkpt lat="43.6354855" lon="11.3249301"><ele>450.66666666666663</ele><time>2026-03-22T08:05:59.758Z</time></trkpt><trkpt lat="43.635568" lon="11.3248976"><ele>450.0</ele><time>2026-03-22T08:06:00.756Z</time></trkpt><trkpt lat="43.6356318" lon="11.3248944"><ele>449.33333333333337</ele><time>2026-03-22T08:06:01.757Z</time></trkpt><trkpt lat="43.635704" lon="11.3249313"><ele>448.6666666666667</ele><time>2026-03-22T08:06:03.758Z</time></trkpt><trkpt lat="43.6357403" lon="11.3250478"><ele>448.0</ele><time>2026-03-22T08:08:08.757Z</time></trkpt><trkpt lat="43.6357212" lon="11.3251574"><ele>448.0</ele><time>2026-03-22T08:08:10.757Z</time></trkpt><trkpt lat="43.6356802" lon="11.3252712"><ele>447.99999999999994</ele><time>2026-03-22T08:08:12.757Z</time></trkpt><trkpt lat="43.6356013" lon="11.3253815"><ele>447.99999999999994</ele><time>2026-03-22T08:08:14.756Z</time></trkpt><trkpt lat="43.6355102" lon="11.3254956"><ele>448.0</ele><time>2026-03-22T08:08:16.757Z</time></trkpt><trkpt lat="43.6354572" lon="11.3255768"><ele>448.0</ele><time>2026-03-22T08:08:17.758Z</time></trkpt><trkpt lat="43.6354032" lon="11.325648"><ele>449.0</ele><time>2026-03-22T08:08:18.756Z</time></trkpt><trkpt lat="43.6353508" lon="11.3257169"><ele>450.0</ele><time>2026-03-22T08:08:19.756Z</time></trkpt><trkpt lat="43.6353096" lon="11.3257981"><ele>451.0</ele><time>2026-03-22T08:08:20.758Z</time></trkpt><trkpt lat="43.6352708" lon="11.3258736"><ele>452.0</ele><time>2026-03-22T08:08:21.757Z</time></trkpt><trkpt lat="43.6352271" lon="11.3259628"><ele>453.0</ele><time>2026-03-22T08:08:22.756Z</time></trkpt><trkpt lat="43.6351821" lon="11.3260375"><ele>454.0</ele><time>2026-03-22T08:08:23.757Z</time></trkpt><trkpt lat="43.6351413" lon="11.3261207"><ele>455.0</ele><time>2026-03-22T08:08:24.756Z</time></trkpt><trkpt lat="43.6350461" lon="11.3262034"><ele>458.2</ele><time>2026-03-22T08:08:26.757Z</time></trkpt><trkpt lat="43.6349271" lon="11.3262047"><ele>461.4</ele><time>2026-03-22T08:08:28.756Z</time></trkpt><trkpt lat="43.6348224" lon="11.3261699"><ele>464.6</ele><time>2026-03-22T08:08:30.756Z</time></trkpt><trkpt lat="43.6347141" lon="11.3261991"><ele>467.8</ele><time>2026-03-22T08:08:32.757Z</time></trkpt><trkpt lat="43.6346421" lon="11.3262232"><ele>471.0</ele><time>2026-03-22T08:08:33.757Z</time></trkpt><trkpt lat="43.6345737" lon="11.3262747"><ele>471.0</ele><time>2026-03-22T08:08:34.757Z</time></trkpt><trkpt lat="43.6345282" lon="11.3263505"><ele>471.0</ele><time>2026-03-22T08:08:35.757Z</time></trkpt><trkpt lat="43.6344867" lon="11.3264486"><ele>471.0</ele><time>2026-03-22T08:08:36.756Z</time></trkpt><trkpt lat="43.634458" lon="11.3265399"><ele>471.0</ele><time>2026-03-22T08:08:37.757Z</time></trkpt><trkpt lat="43.6344653" lon="11.3266702"><ele>471.0</ele><time>2026-03-22T08:08:38.757Z</time></trkpt><trkpt lat="43.6344544" lon="11.3267879"><ele>471.0</ele><time>2026-03-22T08:08:39.757Z</time></trkpt><trkpt lat="43.6344633" lon="11.3269156"><ele>473.0</ele><time>2026-03-22T08:08:40.758Z</time></trkpt><trkpt lat="43.6345031" lon="11.3270525"><ele>475.0</ele><time>2026-03-22T08:08:41.757Z</time></trkpt><trkpt lat="43.6345243" lon="11.3271596"><ele>477.0</ele><time>2026-03-22T08:08:42.757Z</time></trkpt><trkpt lat="43.6345458" lon="11.3272565"><ele>479.0</ele><time>2026-03-22T08:08:43.757Z</time></trkpt><trkpt lat="43.6345879" lon="11.3273614"><ele>481.0</ele><time>2026-03-22T08:08:44.757Z</time></trkpt><trkpt lat="43.6346148" lon="11.3274657"><ele>483.0</ele><time>2026-03-22T08:08:45.756Z</time></trkpt><trkpt lat="43.6346212" lon="11.3275728"><ele>484.6666666666667</ele><time>2026-03-22T08:08:46.758Z</time></trkpt><trkpt lat="43.6345631" lon="11.3276576"><ele>486.33333333333337</ele><time>2026-03-22T08:08:47.756Z</time></trkpt><trkpt lat="43.6345183" lon="11.3277446"><ele>488.0</ele><time>2026-03-22T08:08:48.757Z</time></trkpt><trkpt lat="43.6344855" lon="11.3278269"><ele>489.6666666666667</ele><time>2026-03-22T08:08:49.756Z</time></trkpt><trkpt lat="43.6344393" lon="11.3279219"><ele>491.33333333333337</ele><time>2026-03-22T08:08:50.756Z</time></trkpt><trkpt lat="43.6344044" lon="11.3280193"><ele>493.0</ele><time>2026-03-22T08:08:51.757Z</time></trkpt><trkpt lat="43.6343629" lon="11.3281248"><ele>498.4</ele><time>2026-03-22T08:08:52.756Z</time></trkpt><trkpt lat="43.6343388" lon="11.3282447"><ele>503.79999999999995</ele><time>2026-03-22T08:08:53.757Z</time></trkpt><trkpt lat="43.6343073" lon="11.3283635"><ele>509.2</ele><time>2026-03-22T08:08:54.756Z</time></trkpt><trkpt lat="43.634287" lon="11.3284849"><ele>514.6</ele><time>2026-03-22T08:08:55.757Z</time></trkpt><trkpt lat="43.6343149" lon="11.3285874"><ele>520.0</ele><time>2026-03-22T08:08:56.757Z</time></trkpt><trkpt lat="43.6343144" lon="11.3287288"><ele>520.0</ele><time>2026-03-22T08:08:57.757Z</time></trkpt><trkpt lat="43.6343191" lon="11.3288661"><ele>520.0</ele><time>2026-03-22T08:08:58.758Z</time></trkpt><trkpt lat="43.6343189" lon="11.3289638"><ele>520.0</ele><time>2026-03-22T08:08:59.757Z</time></trkpt><trkpt lat="43.6343405" lon="11.3290637"><ele>520.0</ele><time>2026-03-22T08:09:00.757Z</time></trkpt><trkpt lat="43.6343186" lon="11.329146"><ele>520.0</ele><time>2026-03-22T08:09:01.757Z</time></trkpt><trkpt lat="43.6342853" lon="11.3292477"><ele>520.0</ele><time>2026-03-22T08:09:02.757Z</time></trkpt><trkpt lat="43.6342785" lon="11.3294078"><ele>520.0</ele><time>2026-03-22T08:09:04.757Z</time></trkpt><trkpt lat="43.6342913" lon="11.3295424"><ele>520.0</ele><time>2026-03-22T08:09:05.757Z</time></trkpt><trkpt lat="43.634299" lon="11.3296934"><ele>520.0</ele><time>2026-03-22T08:09:06.757Z</time></trkpt><trkpt lat="43.6343027" lon="11.3298262"><ele>520.0</ele><time>2026-03-22T08:09:07.757Z</time></trkpt><trkpt lat="43.6343026" lon="11.3299545"><ele>520.0</ele><time>2026-03-22T08:09:08.757Z</time></trkpt><trkpt lat="43.6342953" lon="11.330066"><ele>520.0</ele><time>2026-03-22T08:09:09.757Z</time></trkpt><trkpt lat="43.6343123" lon="11.3301946"><ele>520.0</ele><time>2026-03-22T08:09:10.757Z</time></trkpt><trkpt lat="43.6343266" lon="11.330347"><ele>520.0</ele><time>2026-03-22T08:09:11.756Z</time></trkpt><trkpt lat="43.6343329" lon="11.3305006"><ele>520.0</ele><time>2026-03-22T08:09:12.756Z</time></trkpt><trkpt lat="43.6343287" lon="11.3306185"><ele>520.0</ele><time>2026-03-22T08:09:13.756Z</time></trkpt><trkpt lat="43.6342715" lon="11.330678"><ele>520.0</ele><time>2026-03-22T08:09:15.757Z</time></trkpt><trkpt lat="43.6342058" lon="11.3306688"><ele>520.0</ele><time>2026-03-22T08:09:18.757Z</time></trkpt><trkpt lat="43.6341392" lon="11.3306091"><ele>520.0</ele><time>2026-03-22T08:09:20.757Z</time></trkpt><trkpt lat="43.6340811" lon="11.3305657"><ele>520.0</ele><time>2026-03-22T08:09:21.756Z</time></trkpt><trkpt lat="43.6340309" lon="11.330512"><ele>520.0</ele><time>2026-03-22T08:09:22.757Z</time></trkpt><trkpt lat="43.6339941" lon="11.3303903"><ele>520.0</ele><time>2026-03-22T08:09:24.757Z</time></trkpt><trkpt lat="43.6339229" lon="11.3303159"><ele>520.0</ele><time>2026-03-22T08:09:26.757Z</time></trkpt><trkpt lat="43.6338404" lon="11.3302908"><ele>520.0</ele><time>2026-03-22T08:09:27.758Z</time></trkpt><trkpt lat="43.6337637" lon="11.3302637"><ele>520.0</ele><time>2026-03-22T08:09:28.757Z</time></trkpt><trkpt lat="43.6336748" lon="11.330205"><ele>520.0</ele><time>2026-03-22T08:09:29.757Z</time></trkpt><trkpt lat="43.6335973" lon="11.3301425"><ele>520.0</ele><time>2026-03-22T08:09:30.758Z</time></trkpt><trkpt lat="43.6335155" lon="11.3300924"><ele>520.0</ele><time>2026-03-22T08:09:31.757Z</time></trkpt><trkpt lat="43.6334367" lon="11.3300508"><ele>523.8333333333334</ele><time>2026-03-22T08:09:32.757Z</time></trkpt><trkpt lat="43.6333694" lon="11.3300339"><ele>527.6666666666667</ele><time>2026-03-22T08:09:33.757Z</time></trkpt><trkpt lat="43.63329" lon="11.3300217"><ele>531.5</ele><time>2026-03-22T08:09:34.756Z</time></trkpt><trkpt lat="43.6332244" lon="11.3300208"><ele>535.3333333333334</ele><time>2026-03-22T08:09:35.757Z</time></trkpt><trkpt lat="43.6331581" lon="11.3300248"><ele>539.1666666666666</ele><time>2026-03-22T08:09:36.757Z</time></trkpt><trkpt lat="43.6330771" lon="11.3301149"><ele>543.0</ele><time>2026-03-22T08:09:38.757Z</time></trkpt><trkpt lat="43.6329797" lon="11.3301455"><ele>543.0</ele><time>2026-03-22T08:09:40.758Z</time></trkpt><trkpt lat="43.6329144" lon="11.3301608"><ele>543.0</ele><time>2026-03-22T08:09:41.758Z</time></trkpt><trkpt lat="43.6328389" lon="11.3301736"><ele>543.0</ele><time>2026-03-22T08:09:42.756Z</time></trkpt><trkpt lat="43.6327623" lon="11.3301948"><ele>543.0</ele><time>2026-03-22T08:09:43.757Z</time></trkpt><trkpt lat="43.6326999" lon="11.3302582"><ele>543.0</ele><time>2026-03-22T08:09:44.757Z</time></trkpt><trkpt lat="43.6325978" lon="11.33026"><ele>543.0</ele><time>2026-03-22T08:09:46.757Z</time></trkpt><trkpt lat="43.6325119" lon="11.330221"><ele>546.3333333333334</ele><time>2026-03-22T08:09:48.756Z</time></trkpt><trkpt lat="43.6323964" lon="11.3301887"><ele>549.6666666666666</ele><time>2026-03-22T08:09:50.756Z</time></trkpt><trkpt lat="43.6323339" lon="11.3301748"><ele>553.0</ele><time>2026-03-22T08:09:51.757Z</time></trkpt><trkpt lat="43.6322713" lon="11.3301497"><ele>556.3333333333333</ele><time>2026-03-22T08:09:52.756Z</time></trkpt><trkpt lat="43.6322011" lon="11.330121"><ele>559.6666666666666</ele><time>2026-03-22T08:09:53.757Z</time></trkpt><trkpt lat="43.6321289" lon="11.3301229"><ele>563.0</ele><time>2026-03-22T08:09:54.756Z</time></trkpt><trkpt lat="43.6320241" lon="11.3301452"><ele>566.0</ele><time>2026-03-22T08:09:56.757Z</time></trkpt><trkpt lat="43.6319172" lon="11.3301078"><ele>569.0</ele><time>2026-03-22T08:09:58.756Z</time></trkpt><trkpt lat="43.6318004" lon="11.3300935"><ele>572.0</ele><time>2026-03-22T08:10:00.757Z</time></trkpt><trkpt lat="43.6317318" lon="11.3300996"><ele>575.0</ele><time>2026-03-22T08:10:01.756Z</time></trkpt><trkpt lat="43.6316617" lon="11.3301194"><ele>578.0</ele><time>2026-03-22T08:10:02.757Z</time></trkpt><trkpt lat="43.6315406" lon="11.3301699"><ele>578.0</ele><time>2026-03-22T08:10:04.756Z</time></trkpt><trkpt lat="43.631473" lon="11.3301991"><ele>578.0</ele><time>2026-03-22T08:10:05.757Z</time></trkpt><trkpt lat="43.6313586" lon="11.3302689"><ele>578.0</ele><time>2026-03-22T08:10:07.757Z</time></trkpt><trkpt lat="43.6312906" lon="11.330295"><ele>578.0</ele><time>2026-03-22T08:10:08.756Z</time></trkpt><trkpt lat="43.6312101" lon="11.3303212"><ele>578.0</ele><time>2026-03-22T08:10:09.757Z</time></trkpt><trkpt lat="43.6311386" lon="11.3303526"><ele>578.0</ele><time>2026-03-22T08:10:10.756Z</time></trkpt><trkpt lat="43.6310663" lon="11.3303792"><ele>579.0</ele><time>2026-03-22T08:10:11.756Z</time></trkpt><trkpt lat="43.6310164" lon="11.3302908"><ele>580.0</ele><time>2026-03-22T08:10:12.757Z</time></trkpt><trkpt lat="43.6309521" lon="11.330278"><ele>581.0</ele><time>2026-03-22T08:10:13.757Z</time></trkpt><trkpt lat="43.6308842" lon="11.330274"><ele>582.0</ele><time>2026-03-22T08:10:14.756Z</time></trkpt><trkpt lat="43.6307628" lon="11.3302913"><ele>583.0</ele><time>2026-03-22T08:10:16.757Z</time></trkpt><trkpt lat="43.6306832" lon="11.3303516"><ele>584.0</ele><time>2026-03-22T08:10:18.757Z</time></trkpt><trkpt lat="43.6306538" lon="11.3304457"><ele>584.2</ele><time>2026-03-22T08:10:19.757Z</time></trkpt><trkpt lat="43.630561" lon="11.3305841"><ele>584.4</ele><time>2026-03-22T08:10:21.757Z</time></trkpt><trkpt lat="43.6305138" lon="11.3306629"><ele>584.6</ele><time>2026-03-22T08:10:22.756Z</time></trkpt><trkpt lat="43.6304744" lon="11.3307591"><ele>584.8</ele><time>2026-03-22T08:10:23.756Z</time></trkpt><trkpt lat="43.6304404" lon="11.3308564"><ele>585.0</ele><time>2026-03-22T08:10:24.756Z</time></trkpt><trkpt lat="43.6304079" lon="11.3309719"><ele>585.0</ele><time>2026-03-22T08:10:25.757Z</time></trkpt><trkpt lat="43.6303684" lon="11.331087"><ele>585.0</ele><time>2026-03-22T08:10:26.757Z</time></trkpt><trkpt lat="43.6303345" lon="11.3311895"><ele>585.0</ele><time>2026-03-22T08:10:27.756Z</time></trkpt><trkpt lat="43.6303134" lon="11.331312"><ele>585.0</ele><time>2026-03-22T08:10:28.756Z</time></trkpt><trkpt lat="43.6303093" lon="11.3314206"><ele>585.0</ele><time>2026-03-22T08:10:29.757Z</time></trkpt><trkpt lat="43.6302923" lon="11.331509"><ele>585.0</ele><time>2026-03-22T08:10:30.756Z</time></trkpt><trkpt lat="43.6302709" lon="11.3315921"><ele>587.6666666666666</ele><time>2026-03-22T08:10:31.757Z</time></trkpt><trkpt lat="43.6302436" lon="11.331678"><ele>590.3333333333334</ele><time>2026-03-22T08:10:32.757Z</time></trkpt><trkpt lat="43.6302106" lon="11.3318199"><ele>593.0</ele><time>2026-03-22T08:10:33.758Z</time></trkpt><trkpt lat="43.6301829" lon="11.3319416"><ele>595.6666666666667</ele><time>2026-03-22T08:10:34.757Z</time></trkpt><trkpt lat="43.6301593" lon="11.3320507"><ele>598.3333333333334</ele><time>2026-03-22T08:10:35.756Z</time></trkpt><trkpt lat="43.6301544" lon="11.3321667"><ele>601.0</ele><time>2026-03-22T08:10:36.757Z</time></trkpt><trkpt lat="43.6301384" lon="11.3322838"><ele>601.2</ele><time>2026-03-22T08:10:37.757Z</time></trkpt><trkpt lat="43.6301097" lon="11.3324011"><ele>601.4000000000001</ele><time>2026-03-22T08:10:38.756Z</time></trkpt><trkpt lat="43.6300817" lon="11.3325188"><ele>601.6</ele><time>2026-03-22T08:10:39.757Z</time></trkpt><trkpt lat="43.630072" lon="11.3326526"><ele>601.8000000000001</ele><time>2026-03-22T08:10:40.757Z</time></trkpt><trkpt lat="43.6300595" lon="11.3327707"><ele>602.0</ele><time>2026-03-22T08:10:41.756Z</time></trkpt><trkpt lat="43.6300395" lon="11.3328894"><ele>602.0</ele><time>2026-03-22T08:10:42.757Z</time></trkpt><trkpt lat="43.6300041" lon="11.3330094"><ele>602.0</ele><time>2026-03-22T08:10:43.756Z</time></trkpt><trkpt lat="43.6299551" lon="11.3331136"><ele>602.0</ele><time>2026-03-22T08:10:44.756Z</time></trkpt><trkpt lat="43.6299116" lon="11.3332305"><ele>602.0</ele><time>2026-03-22T08:10:45.757Z</time></trkpt><trkpt lat="43.6298582" lon="11.3333653"><ele>602.0</ele><time>2026-03-22T08:10:46.756Z</time></trkpt><trkpt lat="43.6297987" lon="11.3334868"><ele>601.6666666666666</ele><time>2026-03-22T08:10:47.757Z</time></trkpt><trkpt lat="43.6297395" lon="11.3335789"><ele>601.3333333333333</ele><time>2026-03-22T08:10:48.756Z</time></trkpt><trkpt lat="43.629665" lon="11.3336611"><ele>601.0</ele><time>2026-03-22T08:10:50.756Z</time></trkpt><trkpt lat="43.629564" lon="11.3337324"><ele>600.6666666666666</ele><time>2026-03-22T08:10:55.756Z</time></trkpt><trkpt lat="43.6295042" lon="11.3337617"><ele>600.3333333333334</ele><time>2026-03-22T08:10:56.757Z</time></trkpt><trkpt lat="43.6294393" lon="11.3337982"><ele>600.0</ele><time>2026-03-22T08:10:57.757Z</time></trkpt><trkpt lat="43.629368" lon="11.3338439"><ele>600.6666666666666</ele><time>2026-03-22T08:10:58.756Z</time></trkpt><trkpt lat="43.6292931" lon="11.3338906"><ele>601.3333333333334</ele><time>2026-03-22T08:10:59.757Z</time></trkpt><trkpt lat="43.6292245" lon="11.3339361"><ele>602.0</ele><time>2026-03-22T08:11:00.756Z</time></trkpt><trkpt lat="43.6291642" lon="11.3339981"><ele>602.6666666666667</ele><time>2026-03-22T08:11:01.756Z</time></trkpt><trkpt lat="43.6291225" lon="11.3341029"><ele>603.3333333333334</ele><time>2026-03-22T08:11:02.756Z</time></trkpt><trkpt lat="43.6290709" lon="11.334185"><ele>604.0</ele><time>2026-03-22T08:11:03.756Z</time></trkpt><trkpt lat="43.6290182" lon="11.3342716"><ele>604.0</ele><time>2026-03-22T08:11:04.756Z</time></trkpt><trkpt lat="43.6289635" lon="11.334332"><ele>604.0</ele><time>2026-03-22T08:11:05.756Z</time></trkpt><trkpt lat="43.6288952" lon="11.3343891"><ele>604.0</ele><time>2026-03-22T08:11:06.756Z</time></trkpt><trkpt lat="43.6288282" lon="11.3344459"><ele>604.0</ele><time>2026-03-22T08:11:07.757Z</time></trkpt><trkpt lat="43.6287535" lon="11.3344992"><ele>604.0</ele><time>2026-03-22T08:11:08.756Z</time></trkpt><trkpt lat="43.6286662" lon="11.3345684"><ele>604.0</ele><time>2026-03-22T08:11:09.756Z</time></trkpt><trkpt lat="43.6285858" lon="11.3346136"><ele>605.0</ele><time>2026-03-22T08:11:10.756Z</time></trkpt><trkpt lat="43.6285389" lon="11.3347223"><ele>606.0</ele><time>2026-03-22T08:11:11.756Z</time></trkpt><trkpt lat="43.6284527" lon="11.3348195"><ele>607.0</ele><time>2026-03-22T08:11:12.756Z</time></trkpt><trkpt lat="43.6283705" lon="11.3349037"><ele>608.0</ele><time>2026-03-22T08:11:13.758Z</time></trkpt><trkpt lat="43.6282958" lon="11.3349929"><ele>609.0</ele><time>2026-03-22T08:11:14.756Z</time></trkpt><trkpt lat="43.6282291" lon="11.3350244"><ele>609.0</ele><time>2026-03-22T08:11:15.758Z</time></trkpt><trkpt lat="43.6281425" lon="11.3350812"><ele>609.0</ele><time>2026-03-22T08:11:16.758Z</time></trkpt><trkpt lat="43.6280758" lon="11.3351349"><ele>609.0</ele><time>2026-03-22T08:11:17.758Z</time></trkpt><trkpt lat="43.6280071" lon="11.3352494"><ele>609.0</ele><time>2026-03-22T08:11:19.759Z</time></trkpt><trkpt lat="43.6279301" lon="11.3353706"><ele>609.0</ele><time>2026-03-22T08:11:21.758Z</time></trkpt><trkpt lat="43.6278731" lon="11.3354156"><ele>608.8</ele><time>2026-03-22T08:11:22.757Z</time></trkpt><trkpt lat="43.6277785" lon="11.3355369"><ele>608.5999999999999</ele><time>2026-03-22T08:11:24.757Z</time></trkpt><trkpt lat="43.6277262" lon="11.3356154"><ele>608.4</ele><time>2026-03-22T08:11:25.758Z</time></trkpt><trkpt lat="43.6276235" lon="11.3357385"><ele>608.1999999999999</ele><time>2026-03-22T08:11:27.758Z</time></trkpt><trkpt lat="43.6275462" lon="11.335785"><ele>608.0</ele><time>2026-03-22T08:11:28.758Z</time></trkpt><trkpt lat="43.6274848" lon="11.3358285"><ele>608.0</ele><time>2026-03-22T08:11:29.758Z</time></trkpt><trkpt lat="43.6274075" lon="11.3358703"><ele>608.0</ele><time>2026-03-22T08:11:30.757Z</time></trkpt><trkpt lat="43.62732" lon="11.3359138"><ele>608.0</ele><time>2026-03-22T08:11:31.757Z</time></trkpt><trkpt lat="43.6272513" lon="11.3359116"><ele>608.0</ele><time>2026-03-22T08:11:32.758Z</time></trkpt><trkpt lat="43.627172" lon="11.3359185"><ele>608.0</ele><time>2026-03-22T08:11:33.758Z</time></trkpt><trkpt lat="43.6270834" lon="11.3359069"><ele>608.0</ele><time>2026-03-22T08:11:34.758Z</time></trkpt><trkpt lat="43.6269969" lon="11.3358871"><ele>607.1999999999999</ele><time>2026-03-22T08:11:35.758Z</time></trkpt><trkpt lat="43.6269205" lon="11.3359182"><ele>606.4</ele><time>2026-03-22T08:11:36.757Z</time></trkpt><trkpt lat="43.6268073" lon="11.3359669"><ele>605.5999999999999</ele><time>2026-03-22T08:11:37.759Z</time></trkpt><trkpt lat="43.6266915" lon="11.3360333"><ele>604.8</ele><time>2026-03-22T08:11:38.757Z</time></trkpt><trkpt lat="43.6265827" lon="11.3360856"><ele>604.0</ele><time>2026-03-22T08:11:39.757Z</time></trkpt><trkpt lat="43.6264706" lon="11.3361427"><ele>604.0</ele><time>2026-03-22T08:11:40.758Z</time></trkpt><trkpt lat="43.6263876" lon="11.3361856"><ele>604.0</ele><time>2026-03-22T08:11:41.758Z</time></trkpt><trkpt lat="43.6262887" lon="11.3362256"><ele>604.0</ele><time>2026-03-22T08:11:42.758Z</time></trkpt><trkpt lat="43.6261892" lon="11.3362686"><ele>604.0</ele><time>2026-03-22T08:11:43.757Z</time></trkpt><trkpt lat="43.6261031" lon="11.3363076"><ele>604.0</ele><time>2026-03-22T08:11:44.758Z</time></trkpt><trkpt lat="43.6260203" lon="11.3363452"><ele>604.8333333333334</ele><time>2026-03-22T08:11:45.758Z</time></trkpt><trkpt lat="43.625935" lon="11.3363775"><ele>605.6666666666667</ele><time>2026-03-22T08:11:46.758Z</time></trkpt><trkpt lat="43.6258533" lon="11.3364183"><ele>606.5</ele><time>2026-03-22T08:11:47.758Z</time></trkpt><trkpt lat="43.6257629" lon="11.3364638"><ele>607.3333333333334</ele><time>2026-03-22T08:11:48.757Z</time></trkpt><trkpt lat="43.6256906" lon="11.3365227"><ele>608.1666666666666</ele><time>2026-03-22T08:11:49.757Z</time></trkpt><trkpt lat="43.6256175" lon="11.3365804"><ele>609.0</ele><time>2026-03-22T08:11:50.757Z</time></trkpt><trkpt lat="43.6255372" lon="11.3366466"><ele>609.0</ele><time>2026-03-22T08:11:51.758Z</time></trkpt><trkpt lat="43.625456" lon="11.3366856"><ele>609.0</ele><time>2026-03-22T08:11:52.757Z</time></trkpt><trkpt lat="43.6253727" lon="11.3366892"><ele>609.0</ele><time>2026-03-22T08:11:53.758Z</time></trkpt><trkpt lat="43.6252967" lon="11.3366843"><ele>609.0</ele><time>2026-03-22T08:11:54.759Z</time></trkpt><trkpt lat="43.6252299" lon="11.3366874"><ele>609.0</ele><time>2026-03-22T08:11:55.758Z</time></trkpt><trkpt lat="43.6251551" lon="11.3367285"><ele>609.0</ele><time>2026-03-22T08:11:56.757Z</time></trkpt><trkpt lat="43.6250849" lon="11.3367496"><ele>607.6666666666666</ele><time>2026-03-22T08:11:57.758Z</time></trkpt><trkpt lat="43.6250188" lon="11.3367914"><ele>606.3333333333334</ele><time>2026-03-22T08:11:58.758Z</time></trkpt><trkpt lat="43.6249761" lon="11.3368705"><ele>605.0</ele><time>2026-03-22T08:12:00.758Z</time></trkpt><trkpt lat="43.6248871" lon="11.3370101"><ele>603.6666666666667</ele><time>2026-03-22T08:12:02.758Z</time></trkpt><trkpt lat="43.6248284" lon="11.3370757"><ele>602.3333333333334</ele><time>2026-03-22T08:12:03.758Z</time></trkpt><trkpt lat="43.6247441" lon="11.3371183"><ele>601.0</ele><time>2026-03-22T08:12:04.758Z</time></trkpt><trkpt lat="43.6246779" lon="11.3371344"><ele>601.0</ele><time>2026-03-22T08:12:05.757Z</time></trkpt><trkpt lat="43.6246138" lon="11.3371571"><ele>601.0</ele><time>2026-03-22T08:12:06.758Z</time></trkpt><trkpt lat="43.6245409" lon="11.337243"><ele>601.0</ele><time>2026-03-22T08:12:08.758Z</time></trkpt><trkpt lat="43.6244905" lon="11.3373672"><ele>601.0</ele><time>2026-03-22T08:12:10.757Z</time></trkpt><trkpt lat="43.6244485" lon="11.3374588"><ele>601.0</ele><time>2026-03-22T08:12:12.757Z</time></trkpt><trkpt lat="43.6243625" lon="11.3375859"><ele>604.1666666666667</ele><time>2026-03-22T08:12:14.757Z</time></trkpt><trkpt lat="43.62434" lon="11.3376844"><ele>607.3333333333334</ele><time>2026-03-22T08:12:15.757Z</time></trkpt><trkpt lat="43.6242763" lon="11.3377701"><ele>610.5</ele><time>2026-03-22T08:12:17.757Z</time></trkpt><trkpt lat="43.6241974" lon="11.337783"><ele>613.6666666666666</ele><time>2026-03-22T08:12:20.68Z</time></trkpt><trkpt lat="43.6241204" lon="11.3377697"><ele>616.8333333333333</ele><time>2026-03-22T08:12:22.581Z</time></trkpt><trkpt lat="43.6240536" lon="11.3377039"><ele>620.0</ele><time>2026-03-22T08:12:24.781Z</time></trkpt><trkpt lat="43.6239869" lon="11.337662"><ele>620.0</ele><time>2026-03-22T08:12:26.757Z</time></trkpt><trkpt lat="43.6239262" lon="11.3376119"><ele>620.0</ele><time>2026-03-22T08:12:28.661Z</time></trkpt><trkpt lat="43.6238559" lon="11.3374961"><ele>620.0</ele><time>2026-03-22T08:12:30.758Z</time></trkpt><trkpt lat="43.6238134" lon="11.3374002"><ele>620.0</ele><time>2026-03-22T08:12:32.758Z</time></trkpt><trkpt lat="43.6237254" lon="11.3373052"><ele>620.0</ele><time>2026-03-22T08:12:34.758Z</time></trkpt><trkpt lat="43.6236668" lon="11.3371875"><ele>618.0</ele><time>2026-03-22T08:12:36.758Z</time></trkpt><trkpt lat="43.623626" lon="11.337113"><ele>616.0</ele><time>2026-03-22T08:12:38.757Z</time></trkpt><trkpt lat="43.623535" lon="11.3371419"><ele>614.0</ele><time>2026-03-22T08:12:40.757Z</time></trkpt><trkpt lat="43.6234548" lon="11.3371674"><ele>612.0</ele><time>2026-03-22T08:12:41.758Z</time></trkpt><trkpt lat="43.6233679" lon="11.3371823"><ele>610.0</ele><time>2026-03-22T08:12:42.757Z</time></trkpt><trkpt lat="43.6232777" lon="11.3371908"><ele>608.0</ele><time>2026-03-22T08:12:43.757Z</time></trkpt><trkpt lat="43.6232055" lon="11.3371503"><ele>608.0</ele><time>2026-03-22T08:12:44.758Z</time></trkpt><trkpt lat="43.6231222" lon="11.3371067"><ele>608.0</ele><time>2026-03-22T08:12:45.759Z</time></trkpt><trkpt lat="43.6230451" lon="11.3370532"><ele>608.0</ele><time>2026-03-22T08:12:46.757Z</time></trkpt><trkpt lat="43.622963" lon="11.3370143"><ele>608.0</ele><time>2026-03-22T08:12:47.758Z</time></trkpt><trkpt lat="43.6228737" lon="11.3369617"><ele>608.0</ele><time>2026-03-22T08:12:48.758Z</time></trkpt><trkpt lat="43.6227942" lon="11.3369204"><ele>608.0</ele><time>2026-03-22T08:12:49.757Z</time></trkpt><trkpt lat="43.6226899" lon="11.3368916"><ele>609.3333333333333</ele><time>2026-03-22T08:12:50.757Z</time></trkpt><trkpt lat="43.622588" lon="11.3368499"><ele>610.6666666666666</ele><time>2026-03-22T08:12:51.758Z</time></trkpt><trkpt lat="43.6224941" lon="11.33683"><ele>612.0</ele><time>2026-03-22T08:12:52.758Z</time></trkpt><trkpt lat="43.6224309" lon="11.3368461"><ele>613.3333333333334</ele><time>2026-03-22T08:12:53.757Z</time></trkpt><trkpt lat="43.622336" lon="11.3368506"><ele>614.6666666666667</ele><time>2026-03-22T08:12:55.758Z</time></trkpt><trkpt lat="43.6222716" lon="11.3368689"><ele>616.0</ele><time>2026-03-22T08:12:56.757Z</time></trkpt><trkpt lat="43.6222007" lon="11.3368976"><ele>616.0</ele><time>2026-03-22T08:12:57.759Z</time></trkpt><trkpt lat="43.6220726" lon="11.3368815"><ele>616.0</ele><time>2026-03-22T08:12:59.758Z</time></trkpt><trkpt lat="43.622005" lon="11.3368911"><ele>616.0</ele><time>2026-03-22T08:13:00.757Z</time></trkpt><trkpt lat="43.6219362" lon="11.3368935"><ele>616.0</ele><time>2026-03-22T08:13:01.758Z</time></trkpt><trkpt lat="43.6218793" lon="11.3369341"><ele>616.0</ele><time>2026-03-22T08:13:02.758Z</time></trkpt><trkpt lat="43.6217817" lon="11.3370134"><ele>616.0</ele><time>2026-03-22T08:13:04.758Z</time></trkpt><trkpt lat="43.6217176" lon="11.3370539"><ele>615.8333333333334</ele><time>2026-03-22T08:13:05.758Z</time></trkpt><trkpt lat="43.6216436" lon="11.3372056"><ele>615.6666666666667</ele><time>2026-03-22T08:13:07.757Z</time></trkpt><trkpt lat="43.621627" lon="11.3372976"><ele>615.5</ele><time>2026-03-22T08:13:08.757Z</time></trkpt><trkpt lat="43.6216046" lon="11.3373923"><ele>615.3333333333334</ele><time>2026-03-22T08:13:09.758Z</time></trkpt><trkpt lat="43.6215908" lon="11.337511"><ele>615.1666666666666</ele><time>2026-03-22T08:13:10.759Z</time></trkpt><trkpt lat="43.6215346" lon="11.3376048"><ele>615.0</ele><time>2026-03-22T08:13:11.759Z</time></trkpt><trkpt lat="43.6214327" lon="11.3376263"><ele>616.5</ele><time>2026-03-22T08:13:12.757Z</time></trkpt><trkpt lat="43.6213776" lon="11.3376777"><ele>618.0</ele><time>2026-03-22T08:13:13.758Z</time></trkpt><trkpt lat="43.6212923" lon="11.3377238"><ele>619.5</ele><time>2026-03-22T08:13:14.757Z</time></trkpt><trkpt lat="43.6211833" lon="11.337774"><ele>621.0</ele><time>2026-03-22T08:13:15.758Z</time></trkpt><trkpt lat="43.6211186" lon="11.337825"><ele>622.5</ele><time>2026-03-22T08:13:16.758Z</time></trkpt><trkpt lat="43.6210413" lon="11.3378136"><ele>624.0</ele><time>2026-03-22T08:13:17.759Z</time></trkpt><trkpt lat="43.6209608" lon="11.3378168"><ele>624.0</ele><time>2026-03-22T08:13:18.757Z</time></trkpt><trkpt lat="43.6208444" lon="11.337735"><ele>624.0</ele><time>2026-03-22T08:13:19.757Z</time></trkpt><trkpt lat="43.6207545" lon="11.3376798"><ele>624.0</ele><time>2026-03-22T08:13:20.758Z</time></trkpt><trkpt lat="43.6206511" lon="11.3376293"><ele>624.0</ele><time>2026-03-22T08:13:21.758Z</time></trkpt><trkpt lat="43.6205307" lon="11.3376017"><ele>624.0</ele><time>2026-03-22T08:13:22.757Z</time></trkpt><trkpt lat="43.6204067" lon="11.3375812"><ele>624.0</ele><time>2026-03-22T08:13:23.758Z</time></trkpt><trkpt lat="43.62032" lon="11.3375717"><ele>624.0</ele><time>2026-03-22T08:13:24.757Z</time></trkpt><trkpt lat="43.6202176" lon="11.3375567"><ele>624.0</ele><time>2026-03-22T08:13:25.758Z</time></trkpt><trkpt lat="43.6201385" lon="11.3375604"><ele>624.0</ele><time>2026-03-22T08:13:26.758Z</time></trkpt><trkpt lat="43.6200525" lon="11.337576"><ele>623.8</ele><time>2026-03-22T08:13:27.758Z</time></trkpt><trkpt lat="43.6199266" lon="11.3376262"><ele>623.5999999999999</ele><time>2026-03-22T08:13:29.758Z</time></trkpt><trkpt lat="43.6198393" lon="11.3376491"><ele>623.4</ele><time>2026-03-22T08:13:30.758Z</time></trkpt><trkpt lat="43.6197391" lon="11.3376597"><ele>623.1999999999999</ele><time>2026-03-22T08:13:31.758Z</time></trkpt><trkpt lat="43.6196302" lon="11.3376561"><ele>623.0</ele><time>2026-03-22T08:13:32.757Z</time></trkpt><trkpt lat="43.6195428" lon="11.3376889"><ele>622.1999999999999</ele><time>2026-03-22T08:13:33.757Z</time></trkpt><trkpt lat="43.6194592" lon="11.3377156"><ele>621.4</ele><time>2026-03-22T08:13:34.758Z</time></trkpt><trkpt lat="43.6193923" lon="11.337741"><ele>620.5999999999999</ele><time>2026-03-22T08:13:35.757Z</time></trkpt><trkpt lat="43.6193311" lon="11.3377737"><ele>619.8</ele><time>2026-03-22T08:13:36.758Z</time></trkpt><trkpt lat="43.6192273" lon="11.3378673"><ele>619.0</ele><time>2026-03-22T08:13:38.758Z</time></trkpt><trkpt lat="43.6191389" lon="11.337971"><ele>619.0</ele><time>2026-03-22T08:13:40.758Z</time></trkpt><trkpt lat="43.6190795" lon="11.3380242"><ele>619.0</ele><time>2026-03-22T08:13:41.758Z</time></trkpt><trkpt lat="43.6190118" lon="11.338091"><ele>619.0</ele><time>2026-03-22T08:13:42.758Z</time></trkpt><trkpt lat="43.6189583" lon="11.3381528"><ele>619.0</ele><time>2026-03-22T08:13:43.757Z</time></trkpt><trkpt lat="43.6189105" lon="11.3382628"><ele>619.0</ele><time>2026-03-22T08:13:44.758Z</time></trkpt><trkpt lat="43.618844" lon="11.3383669"><ele>619.0</ele><time>2026-03-22T08:13:45.757Z</time></trkpt><trkpt lat="43.6187992" lon="11.3384421"><ele>621.6666666666667</ele><time>2026-03-22T08:13:46.758Z</time></trkpt><trkpt lat="43.6187773" lon="11.338545"><ele>624.3333333333334</ele><time>2026-03-22T08:13:47.757Z</time></trkpt><trkpt lat="43.6187553" lon="11.338657"><ele>627.0</ele><time>2026-03-22T08:13:48.757Z</time></trkpt><trkpt lat="43.6187664" lon="11.3387462"><ele>629.6666666666666</ele><time>2026-03-22T08:13:49.759Z</time></trkpt><trkpt lat="43.6187788" lon="11.3388611"><ele>632.3333333333333</ele><time>2026-03-22T08:13:50.757Z</time></trkpt><trkpt lat="43.6188105" lon="11.3390051"><ele>635.0</ele><time>2026-03-22T08:13:51.758Z</time></trkpt><trkpt lat="43.6188494" lon="11.3390936"><ele>635.8333333333333</ele><time>2026-03-22T08:13:52.758Z</time></trkpt><trkpt lat="43.6188926" lon="11.3391584"><ele>636.6666666666666</ele><time>2026-03-22T08:13:53.758Z</time></trkpt><trkpt lat="43.6189415" lon="11.3393015"><ele>637.5</ele><time>2026-03-22T08:13:55.759Z</time></trkpt><trkpt lat="43.6189751" lon="11.3393764"><ele>638.3333333333334</ele><time>2026-03-22T08:13:56.758Z</time></trkpt><trkpt lat="43.6189928" lon="11.3394768"><ele>639.1666666666667</ele><time>2026-03-22T08:13:57.758Z</time></trkpt><trkpt lat="43.6189511" lon="11.3395924"><ele>640.0</ele><time>2026-03-22T08:13:58.758Z</time></trkpt><trkpt lat="43.6189249" lon="11.339687"><ele>640.1666666666667</ele><time>2026-03-22T08:13:59.758Z</time></trkpt><trkpt lat="43.6188941" lon="11.339779"><ele>640.3333333333334</ele><time>2026-03-22T08:14:00.757Z</time></trkpt><trkpt lat="43.6188576" lon="11.3398906"><ele>640.5</ele><time>2026-03-22T08:14:01.757Z</time></trkpt><trkpt lat="43.6188065" lon="11.3399929"><ele>640.6666666666666</ele><time>2026-03-22T08:14:02.758Z</time></trkpt><trkpt lat="43.6187695" lon="11.3400995"><ele>640.8333333333333</ele><time>2026-03-22T08:14:03.757Z</time></trkpt><trkpt lat="43.618726" lon="11.3402227"><ele>641.0</ele><time>2026-03-22T08:14:04.758Z</time></trkpt><trkpt lat="43.6186948" lon="11.3403107"><ele>641.0</ele><time>2026-03-22T08:14:05.757Z</time></trkpt><trkpt lat="43.6186601" lon="11.3404186"><ele>641.0</ele><time>2026-03-22T08:14:06.757Z</time></trkpt><trkpt lat="43.6186406" lon="11.3405596"><ele>641.0</ele><time>2026-03-22T08:14:07.758Z</time></trkpt><trkpt lat="43.6186326" lon="11.3406963"><ele>641.0</ele><time>2026-03-22T08:14:08.758Z</time></trkpt><trkpt lat="43.61862" lon="11.3408636"><ele>641.0</ele><time>2026-03-22T08:14:09.758Z</time></trkpt><trkpt lat="43.6186011" lon="11.3409975"><ele>640.0</ele><time>2026-03-22T08:14:10.758Z</time></trkpt><trkpt lat="43.6185787" lon="11.341116"><ele>639.0</ele><time>2026-03-22T08:14:11.758Z</time></trkpt><trkpt lat="43.6185641" lon="11.3412275"><ele>638.0</ele><time>2026-03-22T08:14:12.757Z</time></trkpt><trkpt lat="43.6185461" lon="11.3413266"><ele>637.0</ele><time>2026-03-22T08:14:13.758Z</time></trkpt><trkpt lat="43.6185415" lon="11.3414218"><ele>636.0</ele><time>2026-03-22T08:14:14.758Z</time></trkpt><trkpt lat="43.6185286" lon="11.3415468"><ele>635.0</ele><time>2026-03-22T08:14:15.758Z</time></trkpt><trkpt lat="43.618515" lon="11.3416805"><ele>635.0</ele><time>2026-03-22T08:14:16.757Z</time></trkpt><trkpt lat="43.6185057" lon="11.3417955"><ele>635.0</ele><time>2026-03-22T08:14:17.759Z</time></trkpt><trkpt lat="43.6184641" lon="11.3418803"><ele>635.0</ele><time>2026-03-22T08:14:18.758Z</time></trkpt><trkpt lat="43.6184282" lon="11.3419913"><ele>635.0</ele><time>2026-03-22T08:14:19.757Z</time></trkpt><trkpt lat="43.6183818" lon="11.342051"><ele>635.0</ele><time>2026-03-22T08:14:20.759Z</time></trkpt><trkpt lat="43.6183009" lon="11.3420961"><ele>635.0</ele><time>2026-03-22T08:14:22.758Z</time></trkpt><trkpt lat="43.6182407" lon="11.342042"><ele>635.0</ele><time>2026-03-22T08:14:25.758Z</time></trkpt><trkpt lat="43.6181898" lon="11.3419722"><ele>635.0</ele><time>2026-03-22T08:14:27.757Z</time></trkpt><trkpt lat="43.6181414" lon="11.3419037"><ele>635.0</ele><time>2026-03-22T08:14:28.758Z</time></trkpt><trkpt lat="43.6180741" lon="11.341841"><ele>635.0</ele><time>2026-03-22T08:14:29.757Z</time></trkpt><trkpt lat="43.6180082" lon="11.3418134"><ele>635.0</ele><time>2026-03-22T08:14:30.758Z</time></trkpt><trkpt lat="43.6179231" lon="11.3418097"><ele>635.0</ele><time>2026-03-22T08:14:31.758Z</time></trkpt><trkpt lat="43.6178476" lon="11.3417977"><ele>634.3333333333333</ele><time>2026-03-22T08:14:32.758Z</time></trkpt><trkpt lat="43.6177885" lon="11.3417514"><ele>633.6666666666666</ele><time>2026-03-22T08:14:33.758Z</time></trkpt><trkpt lat="43.6177264" lon="11.3416924"><ele>633.0</ele><time>2026-03-22T08:14:34.758Z</time></trkpt><trkpt lat="43.6176682" lon="11.3416472"><ele>632.3333333333334</ele><time>2026-03-22T08:14:35.757Z</time></trkpt><trkpt lat="43.6175686" lon="11.3416047"><ele>631.6666666666667</ele><time>2026-03-22T08:14:37.758Z</time></trkpt><trkpt lat="43.6175075" lon="11.3415703"><ele>631.0</ele><time>2026-03-22T08:14:38.758Z</time></trkpt><trkpt lat="43.6174163" lon="11.3415005"><ele>631.0</ele><time>2026-03-22T08:14:40.757Z</time></trkpt><trkpt lat="43.6173041" lon="11.3414855"><ele>631.0</ele><time>2026-03-22T08:14:42.758Z</time></trkpt><trkpt lat="43.6171832" lon="11.3415399"><ele>631.0</ele><time>2026-03-22T08:14:44.758Z</time></trkpt><trkpt lat="43.6171117" lon="11.3415717"><ele>631.0</ele><time>2026-03-22T08:14:45.758Z</time></trkpt><trkpt lat="43.6170623" lon="11.3416992"><ele>631.0</ele><time>2026-03-22T08:14:46.757Z</time></trkpt><trkpt lat="43.6169956" lon="11.3418213"><ele>628.0</ele><time>2026-03-22T08:14:47.758Z</time></trkpt><trkpt lat="43.6169462" lon="11.3418896"><ele>625.0</ele><time>2026-03-22T08:14:48.758Z</time></trkpt><trkpt lat="43.6168841" lon="11.3419686"><ele>622.0</ele><time>2026-03-22T08:14:49.758Z</time></trkpt><trkpt lat="43.6168261" lon="11.3420393"><ele>619.0</ele><time>2026-03-22T08:14:50.759Z</time></trkpt><trkpt lat="43.6167685" lon="11.3421045"><ele>616.0</ele><time>2026-03-22T08:14:51.758Z</time></trkpt><trkpt lat="43.6166519" lon="11.3421246"><ele>613.0</ele><time>2026-03-22T08:14:53.758Z</time></trkpt><trkpt lat="43.616543" lon="11.3421898"><ele>613.4</ele><time>2026-03-22T08:14:55.758Z</time></trkpt><trkpt lat="43.6164368" lon="11.3422161"><ele>613.8</ele><time>2026-03-22T08:14:57.758Z</time></trkpt><trkpt lat="43.6163429" lon="11.3422625"><ele>614.2</ele><time>2026-03-22T08:14:59.758Z</time></trkpt><trkpt lat="43.6162774" lon="11.34227"><ele>614.6</ele><time>2026-03-22T08:15:00.757Z</time></trkpt><trkpt lat="43.6161641" lon="11.3422923"><ele>615.0</ele><time>2026-03-22T08:15:02.757Z</time></trkpt><trkpt lat="43.6160907" lon="11.342257"><ele>615.0</ele><time>2026-03-22T08:15:03.758Z</time></trkpt><trkpt lat="43.6159692" lon="11.3422297"><ele>615.0</ele><time>2026-03-22T08:15:05.758Z</time></trkpt><trkpt lat="43.6158906" lon="11.3422397"><ele>615.0</ele><time>2026-03-22T08:15:06.757Z</time></trkpt><trkpt lat="43.6158539" lon="11.3423297"><ele>615.0</ele><time>2026-03-22T08:15:07.758Z</time></trkpt><trkpt lat="43.615798" lon="11.3423779"><ele>615.0</ele><time>2026-03-22T08:15:08.758Z</time></trkpt><trkpt lat="43.6157079" lon="11.3425038"><ele>615.0</ele><time>2026-03-22T08:15:10.757Z</time></trkpt><trkpt lat="43.6156488" lon="11.3425387"><ele>615.0</ele><time>2026-03-22T08:15:11.757Z</time></trkpt><trkpt lat="43.6155854" lon="11.3425894"><ele>615.0</ele><time>2026-03-22T08:15:12.758Z</time></trkpt><trkpt lat="43.6154546" lon="11.342625"><ele>615.0</ele><time>2026-03-22T08:15:14.758Z</time></trkpt><trkpt lat="43.6153921" lon="11.3426565"><ele>615.0</ele><time>2026-03-22T08:15:15.758Z</time></trkpt><trkpt lat="43.6152741" lon="11.3426361"><ele>610.8</ele><time>2026-03-22T08:15:17.757Z</time></trkpt><trkpt lat="43.6152097" lon="11.3426121"><ele>606.6</ele><time>2026-03-22T08:15:18.759Z</time></trkpt><trkpt lat="43.6150973" lon="11.3425899"><ele>602.4</ele><time>2026-03-22T08:15:20.758Z</time></trkpt><trkpt lat="43.6150138" lon="11.3425739"><ele>598.2</ele><time>2026-03-22T08:15:21.757Z</time></trkpt><trkpt lat="43.6149267" lon="11.3426182"><ele>594.0</ele><time>2026-03-22T08:15:22.758Z</time></trkpt><trkpt lat="43.6148351" lon="11.3426375"><ele>594.0</ele><time>2026-03-22T08:15:23.757Z</time></trkpt><trkpt lat="43.614742" lon="11.3426445"><ele>594.0</ele><time>2026-03-22T08:15:24.757Z</time></trkpt><trkpt lat="43.6146744" lon="11.3426649"><ele>594.0</ele><time>2026-03-22T08:15:25.757Z</time></trkpt><trkpt lat="43.6145701" lon="11.3427157"><ele>594.0</ele><time>2026-03-22T08:15:27.758Z</time></trkpt><trkpt lat="43.6145052" lon="11.342739"><ele>594.0</ele><time>2026-03-22T08:15:28.757Z</time></trkpt><trkpt lat="43.6144328" lon="11.3428062"><ele>594.0</ele><time>2026-03-22T08:15:30.757Z</time></trkpt><trkpt lat="43.6143612" lon="11.3428643"><ele>594.0</ele><time>2026-03-22T08:15:32.757Z</time></trkpt><trkpt lat="43.6142788" lon="11.3429161"><ele>594.0</ele><time>2026-03-22T08:15:35.757Z</time></trkpt><trkpt lat="43.6142066" lon="11.3429643"><ele>594.0</ele><time>2026-03-22T08:15:36.758Z</time></trkpt><trkpt lat="43.6140953" lon="11.3430444"><ele>594.0</ele><time>2026-03-22T08:15:38.757Z</time></trkpt><trkpt lat="43.6139767" lon="11.3431095"><ele>594.0</ele><time>2026-03-22T08:15:40.759Z</time></trkpt><trkpt lat="43.6139161" lon="11.3431471"><ele>594.0</ele><time>2026-03-22T08:15:41.758Z</time></trkpt><trkpt lat="43.6137901" lon="11.3432032"><ele>594.0</ele><time>2026-03-22T08:15:43.757Z</time></trkpt><trkpt lat="43.6137211" lon="11.3432343"><ele>594.0</ele><time>2026-03-22T08:15:44.757Z</time></trkpt><trkpt lat="43.6136363" lon="11.3432621"><ele>594.0</ele><time>2026-03-22T08:15:45.757Z</time></trkpt><trkpt lat="43.6135387" lon="11.3432883"><ele>594.0</ele><time>2026-03-22T08:15:46.758Z</time></trkpt><trkpt lat="43.6134479" lon="11.3432813"><ele>590.3333333333334</ele><time>2026-03-22T08:15:47.757Z</time></trkpt><trkpt lat="43.6133845" lon="11.3432905"><ele>586.6666666666666</ele><time>2026-03-22T08:15:48.758Z</time></trkpt><trkpt lat="43.6132907" lon="11.3433633"><ele>583.0</ele><time>2026-03-22T08:15:50.758Z</time></trkpt><trkpt lat="43.6131989" lon="11.3434051"><ele>579.3333333333333</ele><time>2026-03-22T08:15:52.758Z</time></trkpt><trkpt lat="43.6131331" lon="11.3433576"><ele>575.6666666666666</ele><time>2026-03-22T08:15:54.758Z</time></trkpt><trkpt lat="43.6131032" lon="11.3432762"><ele>572.0</ele><time>2026-03-22T08:15:55.757Z</time></trkpt><trkpt lat="43.6130723" lon="11.3431153"><ele>567.2</ele><time>2026-03-22T08:15:57.757Z</time></trkpt><trkpt lat="43.6130662" lon="11.3429576"><ele>562.4000000000001</ele><time>2026-03-22T08:15:59.758Z</time></trkpt><trkpt lat="43.6130667" lon="11.3427898"><ele>557.5999999999999</ele><time>2026-03-22T08:16:01.758Z</time></trkpt><trkpt lat="43.6130213" lon="11.3426435"><ele>552.8</ele><time>2026-03-22T08:16:03.758Z</time></trkpt><trkpt lat="43.6129739" lon="11.3425635"><ele>548.0</ele><time>2026-03-22T08:16:04.758Z</time></trkpt><trkpt lat="43.6128684" lon="11.342512"><ele>550.8</ele><time>2026-03-22T08:16:06.758Z</time></trkpt><trkpt lat="43.6127908" lon="11.3424896"><ele>553.5999999999999</ele><time>2026-03-22T08:16:07.758Z</time></trkpt><trkpt lat="43.6126953" lon="11.3424631"><ele>556.4000000000001</ele><time>2026-03-22T08:16:08.757Z</time></trkpt><trkpt lat="43.6125985" lon="11.3424091"><ele>559.2</ele><time>2026-03-22T08:16:09.757Z</time></trkpt><trkpt lat="43.6125503" lon="11.3423102"><ele>562.0</ele><time>2026-03-22T08:16:10.759Z</time></trkpt><trkpt lat="43.6124792" lon="11.3422267"><ele>555.5</ele><time>2026-03-22T08:16:11.757Z</time></trkpt><trkpt lat="43.6124099" lon="11.3421074"><ele>549.0</ele><time>2026-03-22T08:16:12.758Z</time></trkpt><trkpt lat="43.612348" lon="11.3418947"><ele>542.5</ele><time>2026-03-22T08:16:13.757Z</time></trkpt><trkpt lat="43.6122852" lon="11.3418169"><ele>536.0</ele><time>2026-03-22T08:16:14.758Z</time></trkpt><trkpt lat="43.6122187" lon="11.3417273"><ele>536.0</ele><time>2026-03-22T08:16:15.759Z</time></trkpt><trkpt lat="43.6121379" lon="11.3416454"><ele>536.0</ele><time>2026-03-22T08:16:16.758Z</time></trkpt><trkpt lat="43.6120436" lon="11.3415825"><ele>536.0</ele><time>2026-03-22T08:16:17.758Z</time></trkpt><trkpt lat="43.6119216" lon="11.3414958"><ele>536.0</ele><time>2026-03-22T08:16:18.758Z</time></trkpt><trkpt lat="43.6118197" lon="11.341421"><ele>535.0</ele><time>2026-03-22T08:16:19.757Z</time></trkpt><trkpt lat="43.611711" lon="11.3413296"><ele>534.0</ele><time>2026-03-22T08:16:20.757Z</time></trkpt><trkpt lat="43.611617" lon="11.3412666"><ele>533.0</ele><time>2026-03-22T08:16:21.759Z</time></trkpt><trkpt lat="43.6115325" lon="11.3412683"><ele>532.0</ele><time>2026-03-22T08:16:22.758Z</time></trkpt><trkpt lat="43.6114427" lon="11.3412503"><ele>531.0</ele><time>2026-03-22T08:16:23.758Z</time></trkpt><trkpt lat="43.6113601" lon="11.3412641"><ele>531.0</ele><time>2026-03-22T08:16:24.759Z</time></trkpt><trkpt lat="43.6112815" lon="11.3412369"><ele>531.0</ele><time>2026-03-22T08:16:25.758Z</time></trkpt><trkpt lat="43.6112173" lon="11.3411969"><ele>531.0</ele><time>2026-03-22T08:16:26.758Z</time></trkpt><trkpt lat="43.6111508" lon="11.3411084"><ele>531.0</ele><time>2026-03-22T08:16:27.757Z</time></trkpt><trkpt lat="43.6110884" lon="11.3410354"><ele>531.0</ele><time>2026-03-22T08:16:28.757Z</time></trkpt><trkpt lat="43.6110216" lon="11.3409693"><ele>531.0</ele><time>2026-03-22T08:16:29.757Z</time></trkpt><trkpt lat="43.6109528" lon="11.3409119"><ele>531.8333333333334</ele><time>2026-03-22T08:16:30.757Z</time></trkpt><trkpt lat="43.61089" lon="11.3408939"><ele>532.6666666666666</ele><time>2026-03-22T08:16:31.758Z</time></trkpt><trkpt lat="43.6108259" lon="11.3409111"><ele>533.5</ele><time>2026-03-22T08:16:33.758Z</time></trkpt><trkpt lat="43.6107803" lon="11.3409901"><ele>534.3333333333333</ele><time>2026-03-22T08:16:45.757Z</time></trkpt><trkpt lat="43.6107507" lon="11.3410904"><ele>535.1666666666666</ele><time>2026-03-22T08:16:47.758Z</time></trkpt><trkpt lat="43.6107284" lon="11.3412478"><ele>536.0</ele><time>2026-03-22T08:16:49.759Z</time></trkpt><trkpt lat="43.6106821" lon="11.3414036"><ele>537.8333333333333</ele><time>2026-03-22T08:16:51.759Z</time></trkpt><trkpt lat="43.6106572" lon="11.3414855"><ele>539.6666666666666</ele><time>2026-03-22T08:16:52.759Z</time></trkpt><trkpt lat="43.6106331" lon="11.341579"><ele>541.5</ele><time>2026-03-22T08:16:53.758Z</time></trkpt><trkpt lat="43.6106129" lon="11.3416906"><ele>543.3333333333334</ele><time>2026-03-22T08:16:54.759Z</time></trkpt><trkpt lat="43.6106275" lon="11.341776"><ele>545.1666666666667</ele><time>2026-03-22T08:16:55.759Z</time></trkpt><trkpt lat="43.6106248" lon="11.3418787"><ele>547.0</ele><time>2026-03-22T08:16:56.758Z</time></trkpt><trkpt lat="43.6106221" lon="11.3420145"><ele>547.0</ele><time>2026-03-22T08:16:57.758Z</time></trkpt><trkpt lat="43.6106286" lon="11.3421051"><ele>547.0</ele><time>2026-03-22T08:16:58.758Z</time></trkpt><trkpt lat="43.6106329" lon="11.3421972"><ele>547.0</ele><time>2026-03-22T08:16:59.759Z</time></trkpt><trkpt lat="43.610654" lon="11.342308"><ele>547.0</ele><time>2026-03-22T08:17:00.759Z</time></trkpt><trkpt lat="43.6106743" lon="11.3424124"><ele>547.0</ele><time>2026-03-22T08:17:01.76Z</time></trkpt><trkpt lat="43.6106928" lon="11.342556"><ele>547.0</ele><time>2026-03-22T08:17:02.759Z</time></trkpt><trkpt lat="43.6107138" lon="11.3427464"><ele>548.8000000000001</ele><time>2026-03-22T08:17:04.759Z</time></trkpt><trkpt lat="43.6107102" lon="11.3428827"><ele>550.6</ele><time>2026-03-22T08:17:05.758Z</time></trkpt><trkpt lat="43.6107103" lon="11.3430039"><ele>552.4000000000001</ele><time>2026-03-22T08:17:06.759Z</time></trkpt><trkpt lat="43.6107091" lon="11.343143"><ele>554.2</ele><time>2026-03-22T08:17:07.759Z</time></trkpt><trkpt lat="43.6107193" lon="11.3432817"><ele>556.0</ele><time>2026-03-22T08:17:08.759Z</time></trkpt><trkpt lat="43.6107282" lon="11.343384"><ele>558.4</ele><time>2026-03-22T08:17:09.76Z</time></trkpt><trkpt lat="43.6106399" lon="11.3434058"><ele>560.8</ele><time>2026-03-22T08:17:11.76Z</time></trkpt><trkpt lat="43.610515" lon="11.343433"><ele>563.1999999999999</ele><time>2026-03-22T08:17:13.759Z</time></trkpt><trkpt lat="43.6104284" lon="11.3434767"><ele>565.6</ele><time>2026-03-22T08:17:15.758Z</time></trkpt><trkpt lat="43.6103836" lon="11.3435719"><ele>568.0</ele><time>2026-03-22T08:17:17.759Z</time></trkpt><trkpt lat="43.6103369" lon="11.3436466"><ele>569.8</ele><time>2026-03-22T08:17:19.759Z</time></trkpt><trkpt lat="43.6102357" lon="11.3437261"><ele>571.5999999999999</ele><time>2026-03-22T08:17:21.759Z</time></trkpt><trkpt lat="43.6101188" lon="11.3437746"><ele>573.4000000000001</ele><time>2026-03-22T08:17:23.758Z</time></trkpt><trkpt lat="43.6100123" lon="11.3438242"><ele>575.2</ele><time>2026-03-22T08:17:26.759Z</time></trkpt><trkpt lat="43.6099375" lon="11.3438565"><ele>577.0</ele><time>2026-03-22T08:17:27.759Z</time></trkpt><trkpt lat="43.6098497" lon="11.3438849"><ele>577.0</ele><time>2026-03-22T08:17:28.758Z</time></trkpt><trkpt lat="43.6097592" lon="11.3438947"><ele>577.0</ele><time>2026-03-22T08:17:29.76Z</time></trkpt><trkpt lat="43.6096464" lon="11.3439395"><ele>577.0</ele><time>2026-03-22T08:17:31.759Z</time></trkpt><trkpt lat="43.6095543" lon="11.3440591"><ele>577.0</ele><time>2026-03-22T08:17:33.759Z</time></trkpt><trkpt lat="43.6094953" lon="11.344111"><ele>577.0</ele><time>2026-03-22T08:17:34.76Z</time></trkpt><trkpt lat="43.6094033" lon="11.3442417"><ele>576.6666666666667</ele><time>2026-03-22T08:17:36.759Z</time></trkpt><trkpt lat="43.6093449" lon="11.3443289"><ele>576.3333333333334</ele><time>2026-03-22T08:17:37.758Z</time></trkpt><trkpt lat="43.6092755" lon="11.344423"><ele>576.0</ele><time>2026-03-22T08:17:38.759Z</time></trkpt><trkpt lat="43.6092482" lon="11.3445041"><ele>575.6666666666666</ele><time>2026-03-22T08:17:41.758Z</time></trkpt><trkpt lat="43.6091734" lon="11.3445739"><ele>575.3333333333333</ele><time>2026-03-22T08:17:43.758Z</time></trkpt><trkpt lat="43.6090998" lon="11.3446626"><ele>575.0</ele><time>2026-03-22T08:17:45.758Z</time></trkpt><trkpt lat="43.6090549" lon="11.3447359"><ele>575.0</ele><time>2026-03-22T08:17:46.759Z</time></trkpt><trkpt lat="43.6089957" lon="11.3447996"><ele>575.0</ele><time>2026-03-22T08:17:47.76Z</time></trkpt><trkpt lat="43.6089556" lon="11.3448765"><ele>575.0</ele><time>2026-03-22T08:17:48.759Z</time></trkpt><trkpt lat="43.6089134" lon="11.3449471"><ele>575.0</ele><time>2026-03-22T08:17:49.759Z</time></trkpt><trkpt lat="43.6088823" lon="11.3450326"><ele>575.0</ele><time>2026-03-22T08:17:50.758Z</time></trkpt><trkpt lat="43.608855" lon="11.3451781"><ele>575.0</ele><time>2026-03-22T08:17:52.758Z</time></trkpt><trkpt lat="43.6088064" lon="11.3452918"><ele>575.0</ele><time>2026-03-22T08:17:54.759Z</time></trkpt><trkpt lat="43.6087839" lon="11.3454494"><ele>575.0</ele><time>2026-03-22T08:17:56.758Z</time></trkpt><trkpt lat="43.6087528" lon="11.3456186"><ele>575.0</ele><time>2026-03-22T08:17:58.76Z</time></trkpt><trkpt lat="43.6087278" lon="11.3457853"><ele>575.0</ele><time>2026-03-22T08:18:00.759Z</time></trkpt><trkpt lat="43.6087073" lon="11.3459379"><ele>577.8</ele><time>2026-03-22T08:18:02.759Z</time></trkpt><trkpt lat="43.6087083" lon="11.3460859"><ele>580.6</ele><time>2026-03-22T08:18:04.758Z</time></trkpt><trkpt lat="43.6087233" lon="11.3462447"><ele>583.4</ele><time>2026-03-22T08:18:06.758Z</time></trkpt><trkpt lat="43.6087657" lon="11.346373"><ele>586.2</ele><time>2026-03-22T08:18:08.759Z</time></trkpt><trkpt lat="43.6087987" lon="11.3464484"><ele>589.0</ele><time>2026-03-22T08:18:10.759Z</time></trkpt><trkpt lat="43.6088059" lon="11.3465973"><ele>589.8</ele><time>2026-03-22T08:18:12.758Z</time></trkpt><trkpt lat="43.6087445" lon="11.3467353"><ele>590.5999999999999</ele><time>2026-03-22T08:18:14.759Z</time></trkpt><trkpt lat="43.6086619" lon="11.3467621"><ele>591.4</ele><time>2026-03-22T08:18:16.759Z</time></trkpt><trkpt lat="43.6085858" lon="11.346842"><ele>592.1999999999999</ele><time>2026-03-22T08:18:18.758Z</time></trkpt><trkpt lat="43.6085189" lon="11.3469181"><ele>593.0</ele><time>2026-03-22T08:18:21.759Z</time></trkpt><trkpt lat="43.6084521" lon="11.3470059"><ele>590.1666666666666</ele><time>2026-03-22T08:18:23.76Z</time></trkpt><trkpt lat="43.608417" lon="11.3471544"><ele>587.3333333333333</ele><time>2026-03-22T08:18:25.758Z</time></trkpt><trkpt lat="43.6084012" lon="11.3472705"><ele>584.5</ele><time>2026-03-22T08:18:26.759Z</time></trkpt><trkpt lat="43.6083901" lon="11.3473755"><ele>581.6666666666666</ele><time>2026-03-22T08:18:27.759Z</time></trkpt><trkpt lat="43.6083601" lon="11.3474842"><ele>578.8333333333334</ele><time>2026-03-22T08:18:28.759Z</time></trkpt><trkpt lat="43.608327" lon="11.3475705"><ele>576.0</ele><time>2026-03-22T08:18:29.758Z</time></trkpt><trkpt lat="43.6083055" lon="11.3476672"><ele>576.0</ele><time>2026-03-22T08:18:30.759Z</time></trkpt><trkpt lat="43.6082721" lon="11.3477725"><ele>576.0</ele><time>2026-03-22T08:18:31.759Z</time></trkpt><trkpt lat="43.6082466" lon="11.3478682"><ele>576.0</ele><time>2026-03-22T08:18:32.758Z</time></trkpt><trkpt lat="43.6081848" lon="11.3479411"><ele>576.0</ele><time>2026-03-22T08:18:33.759Z</time></trkpt><trkpt lat="43.6081204" lon="11.3480143"><ele>576.0</ele><time>2026-03-22T08:18:36.758Z</time></trkpt><trkpt lat="43.608047" lon="11.3480821"><ele>576.0</ele><time>2026-03-22T08:18:39.758Z</time></trkpt><trkpt lat="43.6079589" lon="11.3481657"><ele>576.0</ele><time>2026-03-22T08:18:41.759Z</time></trkpt><trkpt lat="43.6078875" lon="11.348231"><ele>576.0</ele><time>2026-03-22T08:18:43.758Z</time></trkpt><trkpt lat="43.6078303" lon="11.3482948"><ele>576.0</ele><time>2026-03-22T08:18:45.759Z</time></trkpt><trkpt lat="43.6077705" lon="11.3484026"><ele>576.0</ele><time>2026-03-22T08:18:47.759Z</time></trkpt><trkpt lat="43.6076868" lon="11.34852"><ele>576.0</ele><time>2026-03-22T08:18:49.759Z</time></trkpt><trkpt lat="43.6076052" lon="11.3486533"><ele>576.0</ele><time>2026-03-22T08:18:51.759Z</time></trkpt><trkpt lat="43.6075615" lon="11.3487168"><ele>576.0</ele><time>2026-03-22T08:18:52.759Z</time></trkpt><trkpt lat="43.6075126" lon="11.3488335"><ele>576.0</ele><time>2026-03-22T08:18:54.759Z</time></trkpt><trkpt lat="43.607476" lon="11.3489352"><ele>576.0</ele><time>2026-03-22T08:18:56.758Z</time></trkpt><trkpt lat="43.6074466" lon="11.349053"><ele>576.0</ele><time>2026-03-22T08:18:58.758Z</time></trkpt><trkpt lat="43.6074394" lon="11.3491581"><ele>576.0</ele><time>2026-03-22T08:18:59.759Z</time></trkpt><trkpt lat="43.6074355" lon="11.349319"><ele>579.6</ele><time>2026-03-22T08:19:01.759Z</time></trkpt><trkpt lat="43.6074122" lon="11.3494058"><ele>583.2</ele><time>2026-03-22T08:19:02.758Z</time></trkpt><trkpt lat="43.6073641" lon="11.3495441"><ele>586.8</ele><time>2026-03-22T08:19:04.76Z</time></trkpt><trkpt lat="43.6072976" lon="11.3496254"><ele>590.4</ele><time>2026-03-22T08:19:06.758Z</time></trkpt><trkpt lat="43.607233" lon="11.3497205"><ele>594.0</ele><time>2026-03-22T08:19:08.759Z</time></trkpt><trkpt lat="43.6071809" lon="11.3498433"><ele>592.4</ele><time>2026-03-22T08:19:10.76Z</time></trkpt><trkpt lat="43.607092" lon="11.3499824"><ele>590.8</ele><time>2026-03-22T08:19:12.758Z</time></trkpt><trkpt lat="43.6070449" lon="11.3500637"><ele>589.2</ele><time>2026-03-22T08:19:13.759Z</time></trkpt><trkpt lat="43.6069883" lon="11.3501604"><ele>587.6</ele><time>2026-03-22T08:19:14.758Z</time></trkpt><trkpt lat="43.6069185" lon="11.3503176"><ele>586.0</ele><time>2026-03-22T08:19:15.759Z</time></trkpt><trkpt lat="43.6068548" lon="11.3503714"><ele>586.0</ele><time>2026-03-22T08:19:16.76Z</time></trkpt><trkpt lat="43.6067979" lon="11.3505038"><ele>586.0</ele><time>2026-03-22T08:19:18.758Z</time></trkpt><trkpt lat="43.6067371" lon="11.3506441"><ele>586.0</ele><time>2026-03-22T08:19:19.759Z</time></trkpt><trkpt lat="43.6066906" lon="11.3507428"><ele>586.0</ele><time>2026-03-22T08:19:20.758Z</time></trkpt><trkpt lat="43.6066417" lon="11.3508238"><ele>586.0</ele><time>2026-03-22T08:19:21.759Z</time></trkpt><trkpt lat="43.6065902" lon="11.3508999"><ele>589.0</ele><time>2026-03-22T08:19:22.759Z</time></trkpt><trkpt lat="43.6065548" lon="11.3509776"><ele>592.0</ele><time>2026-03-22T08:19:23.759Z</time></trkpt><trkpt lat="43.6065083" lon="11.3510648"><ele>595.0</ele><time>2026-03-22T08:19:24.758Z</time></trkpt><trkpt lat="43.6064527" lon="11.3511864"><ele>598.0</ele><time>2026-03-22T08:19:25.758Z</time></trkpt><trkpt lat="43.6063738" lon="11.3512637"><ele>601.0</ele><time>2026-03-22T08:19:26.759Z</time></trkpt><trkpt lat="43.6063157" lon="11.3513698"><ele>604.0</ele><time>2026-03-22T08:19:27.759Z</time></trkpt><trkpt lat="43.6062494" lon="11.3514734"><ele>601.5</ele><time>2026-03-22T08:19:28.759Z</time></trkpt><trkpt lat="43.6061842" lon="11.3515639"><ele>599.0</ele><time>2026-03-22T08:19:29.759Z</time></trkpt><trkpt lat="43.6061046" lon="11.3516627"><ele>596.5</ele><time>2026-03-22T08:19:31.759Z</time></trkpt><trkpt lat="43.6061159" lon="11.3518394"><ele>594.0</ele><time>2026-03-22T08:19:33.759Z</time></trkpt><trkpt lat="43.6060927" lon="11.3520078"><ele>594.0</ele><time>2026-03-22T08:19:35.758Z</time></trkpt><trkpt lat="43.6060719" lon="11.3520948"><ele>594.0</ele><time>2026-03-22T08:19:36.76Z</time></trkpt><trkpt lat="43.6060292" lon="11.3522195"><ele>594.0</ele><time>2026-03-22T08:19:37.758Z</time></trkpt><trkpt lat="43.6060064" lon="11.3523394"><ele>594.0</ele><time>2026-03-22T08:19:38.759Z</time></trkpt><trkpt lat="43.60597" lon="11.3524543"><ele>594.0</ele><time>2026-03-22T08:19:39.759Z</time></trkpt><trkpt lat="43.6059036" lon="11.352548"><ele>594.0</ele><time>2026-03-22T08:19:40.759Z</time></trkpt><trkpt lat="43.6058551" lon="11.352746"><ele>595.8333333333334</ele><time>2026-03-22T08:19:42.76Z</time></trkpt><trkpt lat="43.6058225" lon="11.3528512"><ele>597.6666666666666</ele><time>2026-03-22T08:19:43.759Z</time></trkpt><trkpt lat="43.6057949" lon="11.3529449"><ele>599.5</ele><time>2026-03-22T08:19:44.758Z</time></trkpt><trkpt lat="43.6057473" lon="11.353106"><ele>601.3333333333333</ele><time>2026-03-22T08:19:46.758Z</time></trkpt><trkpt lat="43.6057217" lon="11.3531943"><ele>603.1666666666666</ele><time>2026-03-22T08:19:47.758Z</time></trkpt><trkpt lat="43.605685" lon="11.3532723"><ele>605.0</ele><time>2026-03-22T08:19:48.758Z</time></trkpt><trkpt lat="43.6056618" lon="11.3534339"><ele>606.8</ele><time>2026-03-22T08:19:50.758Z</time></trkpt><trkpt lat="43.6056598" lon="11.3535345"><ele>608.6</ele><time>2026-03-22T08:19:51.759Z</time></trkpt><trkpt lat="43.6056789" lon="11.3536716"><ele>610.4</ele><time>2026-03-22T08:19:52.76Z</time></trkpt><trkpt lat="43.6056961" lon="11.3538029"><ele>612.2</ele><time>2026-03-22T08:19:53.759Z</time></trkpt><trkpt lat="43.6056881" lon="11.3539344"><ele>614.0</ele><time>2026-03-22T08:19:54.758Z</time></trkpt><trkpt lat="43.6056832" lon="11.3540683"><ele>615.5</ele><time>2026-03-22T08:19:55.758Z</time></trkpt><trkpt lat="43.6056859" lon="11.3541972"><ele>617.0</ele><time>2026-03-22T08:19:56.76Z</time></trkpt><trkpt lat="43.605645" lon="11.3542746"><ele>618.5</ele><time>2026-03-22T08:19:57.758Z</time></trkpt><trkpt lat="43.6056214" lon="11.3543678"><ele>620.0</ele><time>2026-03-22T08:19:58.759Z</time></trkpt><trkpt lat="43.6055691" lon="11.3544711"><ele>621.5</ele><time>2026-03-22T08:20:00.76Z</time></trkpt><trkpt lat="43.6055012" lon="11.3545425"><ele>623.0</ele><time>2026-03-22T08:20:02.759Z</time></trkpt><trkpt lat="43.6054001" lon="11.3545959"><ele>622.5</ele><time>2026-03-22T08:20:04.759Z</time></trkpt><trkpt lat="43.6053203" lon="11.3546822"><ele>622.0</ele><time>2026-03-22T08:20:06.758Z</time></trkpt><trkpt lat="43.6052964" lon="11.3547852"><ele>621.5</ele><time>2026-03-22T08:20:08.759Z</time></trkpt><trkpt lat="43.6053205" lon="11.3548755"><ele>621.0</ele><time>2026-03-22T08:20:11.76Z</time></trkpt><trkpt lat="43.60541" lon="11.3549647"><ele>620.5</ele><time>2026-03-22T08:26:39.76Z</time></trkpt><trkpt lat="43.6054632" lon="11.3550219"><ele>620.0</ele><time>2026-03-22T08:26:40.759Z</time></trkpt><trkpt lat="43.6055181" lon="11.3550923"><ele>620.0</ele><time>2026-03-22T08:26:41.76Z</time></trkpt><trkpt lat="43.6055754" lon="11.3551643"><ele>620.0</ele><time>2026-03-22T08:26:42.759Z</time></trkpt><trkpt lat="43.6056432" lon="11.3552373"><ele>620.0</ele><time>2026-03-22T08:26:43.759Z</time></trkpt><trkpt lat="43.6057171" lon="11.3553165"><ele>620.0</ele><time>2026-03-22T08:26:44.76Z</time></trkpt><trkpt lat="43.6057896" lon="11.3554078"><ele>620.0</ele><time>2026-03-22T08:26:45.76Z</time></trkpt><trkpt lat="43.60588" lon="11.3554645"><ele>620.0</ele><time>2026-03-22T08:26:46.761Z</time></trkpt><trkpt lat="43.6059842" lon="11.3555163"><ele>620.0</ele><time>2026-03-22T08:26:47.76Z</time></trkpt><trkpt lat="43.6060708" lon="11.3555789"><ele>620.0</ele><time>2026-03-22T08:26:48.759Z</time></trkpt><trkpt lat="43.6061643" lon="11.3556474"><ele>620.0</ele><time>2026-03-22T08:26:49.76Z</time></trkpt><trkpt lat="43.6062551" lon="11.3557165"><ele>620.0</ele><time>2026-03-22T08:26:50.76Z</time></trkpt><trkpt lat="43.6063417" lon="11.3557827"><ele>618.2</ele><time>2026-03-22T08:26:51.759Z</time></trkpt><trkpt lat="43.606433" lon="11.3558535"><ele>616.4</ele><time>2026-03-22T08:26:52.759Z</time></trkpt><trkpt lat="43.6065236" lon="11.3559143"><ele>614.6</ele><time>2026-03-22T08:26:53.76Z</time></trkpt><trkpt lat="43.6066217" lon="11.3559778"><ele>612.8</ele><time>2026-03-22T08:26:54.761Z</time></trkpt><trkpt lat="43.6066992" lon="11.3560323"><ele>611.0</ele><time>2026-03-22T08:26:55.759Z</time></trkpt><trkpt lat="43.6067731" lon="11.3560814"><ele>611.0</ele><time>2026-03-22T08:26:56.76Z</time></trkpt><trkpt lat="43.6068381" lon="11.3561827"><ele>611.0</ele><time>2026-03-22T08:26:57.76Z</time></trkpt><trkpt lat="43.6068926" lon="11.3562268"><ele>611.0</ele><time>2026-03-22T08:26:58.759Z</time></trkpt><trkpt lat="43.6069322" lon="11.3563171"><ele>611.0</ele><time>2026-03-22T08:27:01.759Z</time></trkpt><trkpt lat="43.6069277" lon="11.3565206"><ele>611.0</ele><time>2026-03-22T08:27:02.76Z</time></trkpt><trkpt lat="43.6068985" lon="11.356607"><ele>608.2</ele><time>2026-03-22T08:27:03.76Z</time></trkpt><trkpt lat="43.6068506" lon="11.3566948"><ele>605.4000000000001</ele><time>2026-03-22T08:27:04.76Z</time></trkpt><trkpt lat="43.6067868" lon="11.3567607"><ele>602.6</ele><time>2026-03-22T08:27:05.76Z</time></trkpt><trkpt lat="43.6067039" lon="11.3568211"><ele>599.8000000000001</ele><time>2026-03-22T08:27:06.761Z</time></trkpt><trkpt lat="43.6066131" lon="11.3568907"><ele>597.0</ele><time>2026-03-22T08:27:07.76Z</time></trkpt><trkpt lat="43.6065295" lon="11.3569642"><ele>597.0</ele><time>2026-03-22T08:27:08.76Z</time></trkpt><trkpt lat="43.6064465" lon="11.3570524"><ele>597.0</ele><time>2026-03-22T08:27:09.759Z</time></trkpt><trkpt lat="43.6063638" lon="11.3571547"><ele>597.0</ele><time>2026-03-22T08:27:10.759Z</time></trkpt><trkpt lat="43.6062875" lon="11.3572629"><ele>597.0</ele><time>2026-03-22T08:27:11.759Z</time></trkpt><trkpt lat="43.6062086" lon="11.3573768"><ele>597.0</ele><time>2026-03-22T08:27:12.761Z</time></trkpt><trkpt lat="43.6061295" lon="11.3574867"><ele>594.4</ele><time>2026-03-22T08:27:13.759Z</time></trkpt><trkpt lat="43.6060525" lon="11.3575961"><ele>591.8000000000001</ele><time>2026-03-22T08:27:14.759Z</time></trkpt><trkpt lat="43.6059771" lon="11.3577112"><ele>589.2</ele><time>2026-03-22T08:27:15.759Z</time></trkpt><trkpt lat="43.6059015" lon="11.3578142"><ele>586.6</ele><time>2026-03-22T08:27:16.759Z</time></trkpt><trkpt lat="43.6058214" lon="11.3579025"><ele>584.0</ele><time>2026-03-22T08:27:17.761Z</time></trkpt><trkpt lat="43.6057245" lon="11.357981"><ele>583.0</ele><time>2026-03-22T08:27:18.76Z</time></trkpt><trkpt lat="43.6056202" lon="11.3580605"><ele>582.0</ele><time>2026-03-22T08:27:19.76Z</time></trkpt><trkpt lat="43.6055105" lon="11.3581378"><ele>581.0</ele><time>2026-03-22T08:27:20.759Z</time></trkpt><trkpt lat="43.605404" lon="11.3582172"><ele>580.0</ele><time>2026-03-22T08:27:21.761Z</time></trkpt><trkpt lat="43.6052978" lon="11.3582882"><ele>577.75</ele><time>2026-03-22T08:27:22.759Z</time></trkpt><trkpt lat="43.6051893" lon="11.3583588"><ele>575.5</ele><time>2026-03-22T08:27:23.761Z</time></trkpt><trkpt lat="43.6050845" lon="11.3584289"><ele>573.25</ele><time>2026-03-22T08:27:24.759Z</time></trkpt><trkpt lat="43.6049789" lon="11.3584983"><ele>571.0</ele><time>2026-03-22T08:27:25.76Z</time></trkpt><trkpt lat="43.6048714" lon="11.3585648"><ele>571.0</ele><time>2026-03-22T08:27:26.761Z</time></trkpt><trkpt lat="43.6047651" lon="11.3586181"><ele>571.0</ele><time>2026-03-22T08:27:27.76Z</time></trkpt><trkpt lat="43.6046545" lon="11.3586654"><ele>571.0</ele><time>2026-03-22T08:27:28.761Z</time></trkpt><trkpt lat="43.6045469" lon="11.3587056"><ele>571.0</ele><time>2026-03-22T08:27:29.759Z</time></trkpt><trkpt lat="43.6044402" lon="11.3587468"><ele>570.25</ele><time>2026-03-22T08:27:30.76Z</time></trkpt><trkpt lat="43.6043286" lon="11.3587889"><ele>569.5</ele><time>2026-03-22T08:27:31.761Z</time></trkpt><trkpt lat="43.6042208" lon="11.3588271"><ele>568.75</ele><time>2026-03-22T08:27:32.761Z</time></trkpt><trkpt lat="43.6041088" lon="11.3588712"><ele>568.0</ele><time>2026-03-22T08:27:33.762Z</time></trkpt><trkpt lat="43.6039961" lon="11.3589163"><ele>568.0</ele><time>2026-03-22T08:27:34.762Z</time></trkpt><trkpt lat="43.6038834" lon="11.3589653"><ele>568.0</ele><time>2026-03-22T08:27:35.761Z</time></trkpt><trkpt lat="43.6037727" lon="11.3590137"><ele>568.0</ele><time>2026-03-22T08:27:36.761Z</time></trkpt><trkpt lat="43.603658" lon="11.3590575"><ele>568.0</ele><time>2026-03-22T08:27:37.761Z</time></trkpt><trkpt lat="43.603544" lon="11.3590909"><ele>566.0</ele><time>2026-03-22T08:27:38.762Z</time></trkpt><trkpt lat="43.6034312" lon="11.3591123"><ele>564.0</ele><time>2026-03-22T08:27:39.761Z</time></trkpt><trkpt lat="43.6033161" lon="11.3591266"><ele>562.0</ele><time>2026-03-22T08:27:40.761Z</time></trkpt><trkpt lat="43.603201" lon="11.3591379"><ele>560.0</ele><time>2026-03-22T08:27:41.76Z</time></trkpt><trkpt lat="43.60308" lon="11.3591552"><ele>560.0</ele><time>2026-03-22T08:27:42.761Z</time></trkpt><trkpt lat="43.6029604" lon="11.3591817"><ele>560.0</ele><time>2026-03-22T08:27:43.762Z</time></trkpt><trkpt lat="43.6028407" lon="11.3592129"><ele>560.0</ele><time>2026-03-22T08:27:44.76Z</time></trkpt><trkpt lat="43.6027183" lon="11.3592455"><ele>560.0</ele><time>2026-03-22T08:27:45.761Z</time></trkpt><trkpt lat="43.6024919" lon="11.3593081"><ele>558.6</ele><time>2026-03-22T08:27:47.761Z</time></trkpt><trkpt lat="43.6023851" lon="11.3593312"><ele>557.2</ele><time>2026-03-22T08:27:48.761Z</time></trkpt><trkpt lat="43.6022851" lon="11.3593576"><ele>555.8</ele><time>2026-03-22T08:27:49.76Z</time></trkpt><trkpt lat="43.6021897" lon="11.3593927"><ele>554.4</ele><time>2026-03-22T08:27:50.76Z</time></trkpt><trkpt lat="43.6021032" lon="11.3594443"><ele>553.0</ele><time>2026-03-22T08:27:51.76Z</time></trkpt><trkpt lat="43.6020166" lon="11.3595178"><ele>552.25</ele><time>2026-03-22T08:27:52.761Z</time></trkpt><trkpt lat="43.6019316" lon="11.3596154"><ele>551.5</ele><time>2026-03-22T08:27:53.76Z</time></trkpt><trkpt lat="43.6018428" lon="11.3597324"><ele>550.75</ele><time>2026-03-22T08:27:54.761Z</time></trkpt><trkpt lat="43.6017544" lon="11.359851"><ele>550.0</ele><time>2026-03-22T08:27:55.761Z</time></trkpt><trkpt lat="43.6016615" lon="11.3599641"><ele>550.0</ele><time>2026-03-22T08:27:56.761Z</time></trkpt><trkpt lat="43.6015728" lon="11.3600679"><ele>550.0</ele><time>2026-03-22T08:27:57.761Z</time></trkpt><trkpt lat="43.6014874" lon="11.3601812"><ele>550.0</ele><time>2026-03-22T08:27:58.761Z</time></trkpt><trkpt lat="43.601408" lon="11.3603119"><ele>550.0</ele><time>2026-03-22T08:27:59.761Z</time></trkpt><trkpt lat="43.6013375" lon="11.3604533"><ele>551.25</ele><time>2026-03-22T08:28:00.761Z</time></trkpt><trkpt lat="43.6012795" lon="11.3606074"><ele>552.5</ele><time>2026-03-22T08:28:01.761Z</time></trkpt><trkpt lat="43.6012252" lon="11.3607659"><ele>553.75</ele><time>2026-03-22T08:28:02.76Z</time></trkpt><trkpt lat="43.601174" lon="11.3609196"><ele>555.0</ele><time>2026-03-22T08:28:03.76Z</time></trkpt><trkpt lat="43.6011178" lon="11.3610585"><ele>552.0</ele><time>2026-03-22T08:28:04.76Z</time></trkpt><trkpt lat="43.601056" lon="11.3611829"><ele>549.0</ele><time>2026-03-22T08:28:05.761Z</time></trkpt><trkpt lat="43.6009788" lon="11.3612925"><ele>546.0</ele><time>2026-03-22T08:28:06.762Z</time></trkpt><trkpt lat="43.6008915" lon="11.3613834"><ele>543.0</ele><time>2026-03-22T08:28:07.76Z</time></trkpt><trkpt lat="43.6007978" lon="11.3614609"><ele>540.0</ele><time>2026-03-22T08:28:08.762Z</time></trkpt><trkpt lat="43.6006976" lon="11.3615348"><ele>540.0</ele><time>2026-03-22T08:28:09.762Z</time></trkpt><trkpt lat="43.6005967" lon="11.3616173"><ele>540.0</ele><time>2026-03-22T08:28:10.761Z</time></trkpt><trkpt lat="43.600495" lon="11.3617044"><ele>540.0</ele><time>2026-03-22T08:28:11.76Z</time></trkpt><trkpt lat="43.6003884" lon="11.3617992"><ele>540.0</ele><time>2026-03-22T08:28:12.761Z</time></trkpt><trkpt lat="43.600284" lon="11.3619082"><ele>539.3333333333334</ele><time>2026-03-22T08:28:13.762Z</time></trkpt><trkpt lat="43.6001795" lon="11.3620515"><ele>538.6666666666667</ele><time>2026-03-22T08:28:14.76Z</time></trkpt><trkpt lat="43.6000631" lon="11.3622201"><ele>538.0</ele><time>2026-03-22T08:28:15.761Z</time></trkpt><trkpt lat="43.599953" lon="11.3623836"><ele>538.0</ele><time>2026-03-22T08:28:16.761Z</time></trkpt><trkpt lat="43.599845" lon="11.3625415"><ele>538.0</ele><time>2026-03-22T08:28:17.761Z</time></trkpt><trkpt lat="43.5997403" lon="11.3626865"><ele>538.0</ele><time>2026-03-22T08:28:18.761Z</time></trkpt><trkpt lat="43.5996468" lon="11.3628229"><ele>538.0</ele><time>2026-03-22T08:28:19.76Z</time></trkpt><trkpt lat="43.5995585" lon="11.3629527"><ele>537.4</ele><time>2026-03-22T08:28:20.76Z</time></trkpt><trkpt lat="43.5994755" lon="11.3630664"><ele>536.8</ele><time>2026-03-22T08:28:21.761Z</time></trkpt><trkpt lat="43.5993931" lon="11.3631666"><ele>536.2</ele><time>2026-03-22T08:28:22.761Z</time></trkpt><trkpt lat="43.5993106" lon="11.363252"><ele>535.6</ele><time>2026-03-22T08:28:23.76Z</time></trkpt><trkpt lat="43.5992179" lon="11.3633174"><ele>535.0</ele><time>2026-03-22T08:28:24.761Z</time></trkpt><trkpt lat="43.5991148" lon="11.3633701"><ele>535.0</ele><time>2026-03-22T08:28:25.761Z</time></trkpt><trkpt lat="43.5990144" lon="11.3634257"><ele>535.0</ele><time>2026-03-22T08:28:26.761Z</time></trkpt><trkpt lat="43.5989162" lon="11.3634823"><ele>535.0</ele><time>2026-03-22T08:28:27.762Z</time></trkpt><trkpt lat="43.5988184" lon="11.3635325"><ele>535.0</ele><time>2026-03-22T08:28:28.76Z</time></trkpt><trkpt lat="43.5987224" lon="11.3635875"><ele>535.0</ele><time>2026-03-22T08:28:29.76Z</time></trkpt><trkpt lat="43.5986331" lon="11.3636411"><ele>534.4</ele><time>2026-03-22T08:28:30.761Z</time></trkpt><trkpt lat="43.5985429" lon="11.3636907"><ele>533.8</ele><time>2026-03-22T08:28:31.76Z</time></trkpt><trkpt lat="43.598455" lon="11.3637397"><ele>533.2</ele><time>2026-03-22T08:28:32.761Z</time></trkpt><trkpt lat="43.5983875" lon="11.3637671"><ele>532.6</ele><time>2026-03-22T08:28:33.76Z</time></trkpt><trkpt lat="43.5982903" lon="11.3638112"><ele>532.0</ele><time>2026-03-22T08:28:35.761Z</time></trkpt><trkpt lat="43.5981879" lon="11.3638077"><ele>532.0</ele><time>2026-03-22T08:28:39.76Z</time></trkpt><trkpt lat="43.5981081" lon="11.3638202"><ele>532.0</ele><time>2026-03-22T08:28:41.76Z</time></trkpt><trkpt lat="43.5979942" lon="11.3638122"><ele>532.0</ele><time>2026-03-22T08:28:43.761Z</time></trkpt><trkpt lat="43.5979205" lon="11.3637991"><ele>532.0</ele><time>2026-03-22T08:28:44.761Z</time></trkpt><trkpt lat="43.5978271" lon="11.3637831"><ele>532.0</ele><time>2026-03-22T08:28:45.761Z</time></trkpt><trkpt lat="43.5977248" lon="11.3637536"><ele>532.0</ele><time>2026-03-22T08:28:46.761Z</time></trkpt><trkpt lat="43.5976142" lon="11.3637247"><ele>532.0</ele><time>2026-03-22T08:28:47.76Z</time></trkpt><trkpt lat="43.5975197" lon="11.3637243"><ele>532.0</ele><time>2026-03-22T08:28:48.76Z</time></trkpt><trkpt lat="43.59742" lon="11.3637585"><ele>532.0</ele><time>2026-03-22T08:28:49.76Z</time></trkpt><trkpt lat="43.5973249" lon="11.3638168"><ele>532.0</ele><time>2026-03-22T08:28:50.76Z</time></trkpt><trkpt lat="43.5972273" lon="11.3638736"><ele>533.4</ele><time>2026-03-22T08:28:51.761Z</time></trkpt><trkpt lat="43.5971235" lon="11.3639173"><ele>534.8000000000001</ele><time>2026-03-22T08:28:52.76Z</time></trkpt><trkpt lat="43.5970208" lon="11.363944"><ele>536.2</ele><time>2026-03-22T08:28:53.76Z</time></trkpt><trkpt lat="43.5969175" lon="11.3639658"><ele>537.6</ele><time>2026-03-22T08:28:54.76Z</time></trkpt><trkpt lat="43.5968271" lon="11.3639545"><ele>539.0</ele><time>2026-03-22T08:28:55.76Z</time></trkpt><trkpt lat="43.5967402" lon="11.3639043"><ele>539.8</ele><time>2026-03-22T08:28:56.76Z</time></trkpt><trkpt lat="43.5966552" lon="11.3638146"><ele>540.5999999999999</ele><time>2026-03-22T08:28:57.762Z</time></trkpt><trkpt lat="43.5965649" lon="11.3637275"><ele>541.4</ele><time>2026-03-22T08:28:58.761Z</time></trkpt><trkpt lat="43.5964605" lon="11.3636482"><ele>542.1999999999999</ele><time>2026-03-22T08:28:59.76Z</time></trkpt><trkpt lat="43.5963633" lon="11.3635886"><ele>543.0</ele><time>2026-03-22T08:29:00.761Z</time></trkpt><trkpt lat="43.5962634" lon="11.3635561"><ele>543.0</ele><time>2026-03-22T08:29:01.761Z</time></trkpt><trkpt lat="43.5961847" lon="11.3635557"><ele>543.0</ele><time>2026-03-22T08:29:02.761Z</time></trkpt><trkpt lat="43.5960946" lon="11.3635848"><ele>543.0</ele><time>2026-03-22T08:29:03.761Z</time></trkpt><trkpt lat="43.5960048" lon="11.3636338"><ele>543.0</ele><time>2026-03-22T08:29:04.761Z</time></trkpt><trkpt lat="43.595923" lon="11.3636827"><ele>543.0</ele><time>2026-03-22T08:29:05.76Z</time></trkpt><trkpt lat="43.5958551" lon="11.3637444"><ele>543.0</ele><time>2026-03-22T08:29:06.76Z</time></trkpt><trkpt lat="43.5958017" lon="11.3638299"><ele>546.3333333333334</ele><time>2026-03-22T08:29:07.76Z</time></trkpt><trkpt lat="43.5957624" lon="11.3639285"><ele>549.6666666666666</ele><time>2026-03-22T08:29:08.76Z</time></trkpt><trkpt lat="43.5957262" lon="11.3640364"><ele>553.0</ele><time>2026-03-22T08:29:09.761Z</time></trkpt><trkpt lat="43.5957021" lon="11.3641543"><ele>556.3333333333333</ele><time>2026-03-22T08:29:10.761Z</time></trkpt><trkpt lat="43.5956757" lon="11.3642756"><ele>559.6666666666666</ele><time>2026-03-22T08:29:11.76Z</time></trkpt><trkpt lat="43.5956797" lon="11.3644007"><ele>563.0</ele><time>2026-03-22T08:29:12.762Z</time></trkpt><trkpt lat="43.5956829" lon="11.3645606"><ele>565.25</ele><time>2026-03-22T08:29:13.762Z</time></trkpt><trkpt lat="43.5956955" lon="11.3647315"><ele>567.5</ele><time>2026-03-22T08:29:14.76Z</time></trkpt><trkpt lat="43.5957221" lon="11.364909"><ele>569.75</ele><time>2026-03-22T08:29:15.76Z</time></trkpt><trkpt lat="43.5957355" lon="11.3650795"><ele>572.0</ele><time>2026-03-22T08:29:16.762Z</time></trkpt><trkpt lat="43.595745" lon="11.3652372"><ele>572.0</ele><time>2026-03-22T08:29:17.761Z</time></trkpt><trkpt lat="43.5957084" lon="11.3653916"><ele>572.0</ele><time>2026-03-22T08:29:18.76Z</time></trkpt><trkpt lat="43.5956664" lon="11.3655383"><ele>572.0</ele><time>2026-03-22T08:29:19.761Z</time></trkpt><trkpt lat="43.5956141" lon="11.365657"><ele>572.0</ele><time>2026-03-22T08:29:20.761Z</time></trkpt><trkpt lat="43.5955355" lon="11.3657409"><ele>572.0</ele><time>2026-03-22T08:29:21.761Z</time></trkpt><trkpt lat="43.595451" lon="11.3658097"><ele>573.2</ele><time>2026-03-22T08:29:22.76Z</time></trkpt><trkpt lat="43.59536" lon="11.3658688"><ele>574.4000000000001</ele><time>2026-03-22T08:29:23.761Z</time></trkpt><trkpt lat="43.5952645" lon="11.3659267"><ele>575.5999999999999</ele><time>2026-03-22T08:29:24.761Z</time></trkpt><trkpt lat="43.595156" lon="11.36598"><ele>576.8</ele><time>2026-03-22T08:29:25.762Z</time></trkpt><trkpt lat="43.5950505" lon="11.366011"><ele>578.0</ele><time>2026-03-22T08:29:26.76Z</time></trkpt><trkpt lat="43.5949463" lon="11.3660074"><ele>578.0</ele><time>2026-03-22T08:29:27.761Z</time></trkpt><trkpt lat="43.5948443" lon="11.3659737"><ele>578.0</ele><time>2026-03-22T08:29:28.761Z</time></trkpt><trkpt lat="43.594735" lon="11.3659248"><ele>578.0</ele><time>2026-03-22T08:29:29.761Z</time></trkpt><trkpt lat="43.5946288" lon="11.3658762"><ele>578.0</ele><time>2026-03-22T08:29:30.761Z</time></trkpt><trkpt lat="43.5945296" lon="11.3658344"><ele>578.0</ele><time>2026-03-22T08:29:31.76Z</time></trkpt><trkpt lat="43.5944512" lon="11.3658108"><ele>579.8333333333333</ele><time>2026-03-22T08:29:32.76Z</time></trkpt><trkpt lat="43.5943774" lon="11.3658253"><ele>581.6666666666666</ele><time>2026-03-22T08:29:33.761Z</time></trkpt><trkpt lat="43.594305" lon="11.3659093"><ele>583.5</ele><time>2026-03-22T08:29:34.761Z</time></trkpt><trkpt lat="43.5942357" lon="11.3659537"><ele>585.3333333333334</ele><time>2026-03-22T08:29:35.76Z</time></trkpt><trkpt lat="43.5941458" lon="11.3660402"><ele>587.1666666666667</ele><time>2026-03-22T08:29:36.76Z</time></trkpt><trkpt lat="43.5940654" lon="11.3660719"><ele>589.0</ele><time>2026-03-22T08:29:37.761Z</time></trkpt><trkpt lat="43.5939915" lon="11.3660762"><ele>589.0</ele><time>2026-03-22T08:29:38.76Z</time></trkpt><trkpt lat="43.5938835" lon="11.3660759"><ele>589.0</ele><time>2026-03-22T08:29:40.761Z</time></trkpt><trkpt lat="43.5938079" lon="11.3660652"><ele>589.0</ele><time>2026-03-22T08:29:43.76Z</time></trkpt><trkpt lat="43.5938072" lon="11.3662043"><ele>589.0</ele><time>2026-03-22T08:29:45.76Z</time></trkpt><trkpt lat="43.5937732" lon="11.3663097"><ele>589.0</ele><time>2026-03-22T08:29:47.76Z</time></trkpt><trkpt lat="43.5937045" lon="11.3664178"><ele>592.2</ele><time>2026-03-22T08:29:49.76Z</time></trkpt><trkpt lat="43.5936541" lon="11.3664867"><ele>595.4</ele><time>2026-03-22T08:29:50.76Z</time></trkpt><trkpt lat="43.5935988" lon="11.3665532"><ele>598.6</ele><time>2026-03-22T08:29:51.76Z</time></trkpt><trkpt lat="43.5935375" lon="11.366626"><ele>601.8</ele><time>2026-03-22T08:29:52.76Z</time></trkpt><trkpt lat="43.5934062" lon="11.3666837"><ele>605.0</ele><time>2026-03-22T08:29:54.762Z</time></trkpt><trkpt lat="43.5933201" lon="11.3665597"><ele>605.0</ele><time>2026-03-22T08:29:56.76Z</time></trkpt><trkpt lat="43.5932489" lon="11.3664399"><ele>605.0</ele><time>2026-03-22T08:29:57.76Z</time></trkpt><trkpt lat="43.5931639" lon="11.3663629"><ele>605.0</ele><time>2026-03-22T08:29:58.761Z</time></trkpt><trkpt lat="43.5930929" lon="11.3662576"><ele>605.0</ele><time>2026-03-22T08:29:59.761Z</time></trkpt><trkpt lat="43.5930205" lon="11.3662"><ele>605.0</ele><time>2026-03-22T08:30:00.76Z</time></trkpt><trkpt lat="43.5929435" lon="11.3661751"><ele>605.0</ele><time>2026-03-22T08:30:01.76Z</time></trkpt><trkpt lat="43.5928724" lon="11.3661739"><ele>605.0</ele><time>2026-03-22T08:30:02.76Z</time></trkpt><trkpt lat="43.5927217" lon="11.3662225"><ele>605.0</ele><time>2026-03-22T08:30:03.76Z</time></trkpt><trkpt lat="43.5926275" lon="11.3662346"><ele>605.0</ele><time>2026-03-22T08:30:04.761Z</time></trkpt><trkpt lat="43.5925388" lon="11.3662617"><ele>605.0</ele><time>2026-03-22T08:30:05.761Z</time></trkpt><trkpt lat="43.5924519" lon="11.3662723"><ele>604.8</ele><time>2026-03-22T08:30:06.76Z</time></trkpt><trkpt lat="43.5923079" lon="11.3662803"><ele>604.6</ele><time>2026-03-22T08:30:08.76Z</time></trkpt><trkpt lat="43.5922236" lon="11.3662788"><ele>604.4</ele><time>2026-03-22T08:30:09.761Z</time></trkpt><trkpt lat="43.592146" lon="11.3663121"><ele>604.2</ele><time>2026-03-22T08:30:11.761Z</time></trkpt><trkpt lat="43.5920768" lon="11.3663581"><ele>604.0</ele><time>2026-03-22T08:30:15.761Z</time></trkpt><trkpt lat="43.5919749" lon="11.3663861"><ele>603.6666666666667</ele><time>2026-03-22T08:30:17.761Z</time></trkpt><trkpt lat="43.5919014" lon="11.3664625"><ele>603.3333333333334</ele><time>2026-03-22T08:30:18.76Z</time></trkpt><trkpt lat="43.5918001" lon="11.3665379"><ele>603.0</ele><time>2026-03-22T08:30:20.76Z</time></trkpt><trkpt lat="43.5918008" lon="11.3666294"><ele>602.6666666666666</ele><time>2026-03-22T08:30:23.761Z</time></trkpt><trkpt lat="43.5917128" lon="11.3666365"><ele>602.3333333333333</ele><time>2026-03-22T08:30:26.761Z</time></trkpt><trkpt lat="43.5916426" lon="11.3666902"><ele>602.0</ele><time>2026-03-22T08:30:28.76Z</time></trkpt><trkpt lat="43.5915925" lon="11.3667674"><ele>602.0</ele><time>2026-03-22T08:30:29.761Z</time></trkpt><trkpt lat="43.5915389" lon="11.3668397"><ele>602.0</ele><time>2026-03-22T08:30:30.761Z</time></trkpt><trkpt lat="43.5914747" lon="11.3668861"><ele>602.0</ele><time>2026-03-22T08:30:31.761Z</time></trkpt><trkpt lat="43.5914099" lon="11.3669403"><ele>602.0</ele><time>2026-03-22T08:30:32.761Z</time></trkpt><trkpt lat="43.5913374" lon="11.3669895"><ele>602.0</ele><time>2026-03-22T08:30:33.761Z</time></trkpt><trkpt lat="43.5912523" lon="11.3670179"><ele>602.0</ele><time>2026-03-22T08:30:34.762Z</time></trkpt><trkpt lat="43.5911687" lon="11.3670541"><ele>601.2</ele><time>2026-03-22T08:30:35.76Z</time></trkpt><trkpt lat="43.5910589" lon="11.3670447"><ele>600.4000000000001</ele><time>2026-03-22T08:30:37.761Z</time></trkpt><trkpt lat="43.5909611" lon="11.366941"><ele>599.5999999999999</ele><time>2026-03-22T08:30:39.76Z</time></trkpt><trkpt lat="43.5910202" lon="11.3667696"><ele>598.8</ele><time>2026-03-22T08:30:40.761Z</time></trkpt><trkpt lat="43.591008" lon="11.3666736"><ele>598.0</ele><time>2026-03-22T08:30:41.76Z</time></trkpt><trkpt lat="43.5909641" lon="11.3665101"><ele>598.0</ele><time>2026-03-22T08:30:43.76Z</time></trkpt><trkpt lat="43.5908886" lon="11.3665014"><ele>598.0</ele><time>2026-03-22T08:30:44.76Z</time></trkpt><trkpt lat="43.5908425" lon="11.3664213"><ele>598.0</ele><time>2026-03-22T08:30:46.761Z</time></trkpt><trkpt lat="43.5907625" lon="11.3663269"><ele>598.0</ele><time>2026-03-22T08:30:48.76Z</time></trkpt><trkpt lat="43.5907118" lon="11.3662701"><ele>598.0</ele><time>2026-03-22T08:30:49.762Z</time></trkpt><trkpt lat="43.590655" lon="11.3662098"><ele>598.0</ele><time>2026-03-22T08:30:50.761Z</time></trkpt><trkpt lat="43.5905911" lon="11.3662919"><ele>598.0</ele><time>2026-03-22T08:30:52.761Z</time></trkpt><trkpt lat="43.5905661" lon="11.3663787"><ele>598.0</ele><time>2026-03-22T08:30:53.761Z</time></trkpt><trkpt lat="43.5905143" lon="11.3664956"><ele>598.0</ele><time>2026-03-22T08:30:54.761Z</time></trkpt><trkpt lat="43.5904451" lon="11.3666196"><ele>598.0</ele><time>2026-03-22T08:30:55.76Z</time></trkpt><trkpt lat="43.5903817" lon="11.3667198"><ele>598.0</ele><time>2026-03-22T08:30:56.76Z</time></trkpt><trkpt lat="43.5903062" lon="11.3667794"><ele>600.6</ele><time>2026-03-22T08:30:57.761Z</time></trkpt><trkpt lat="43.5902324" lon="11.3668263"><ele>603.1999999999999</ele><time>2026-03-22T08:30:58.761Z</time></trkpt><trkpt lat="43.5901627" lon="11.3668839"><ele>605.8</ele><time>2026-03-22T08:30:59.761Z</time></trkpt><trkpt lat="43.5900464" lon="11.366952"><ele>608.4</ele><time>2026-03-22T08:31:01.76Z</time></trkpt><trkpt lat="43.5899277" lon="11.3670316"><ele>611.0</ele><time>2026-03-22T08:31:03.76Z</time></trkpt><trkpt lat="43.5898187" lon="11.3670579"><ele>611.0</ele><time>2026-03-22T08:31:05.762Z</time></trkpt><trkpt lat="43.5896962" lon="11.3669962"><ele>611.0</ele><time>2026-03-22T08:31:07.761Z</time></trkpt><trkpt lat="43.589587" lon="11.3669055"><ele>611.0</ele><time>2026-03-22T08:31:09.761Z</time></trkpt><trkpt lat="43.5894772" lon="11.3668292"><ele>611.0</ele><time>2026-03-22T08:31:11.76Z</time></trkpt><trkpt lat="43.5893911" lon="11.3667469"><ele>612.1666666666666</ele><time>2026-03-22T08:31:13.762Z</time></trkpt><trkpt lat="43.5893197" lon="11.3666673"><ele>613.3333333333333</ele><time>2026-03-22T08:31:15.762Z</time></trkpt><trkpt lat="43.5891878" lon="11.3666553"><ele>614.5</ele><time>2026-03-22T08:31:17.761Z</time></trkpt><trkpt lat="43.5891122" lon="11.3666348"><ele>615.6666666666666</ele><time>2026-03-22T08:31:18.761Z</time></trkpt><trkpt lat="43.5890451" lon="11.3666072"><ele>616.8333333333334</ele><time>2026-03-22T08:31:19.761Z</time></trkpt><trkpt lat="43.5889732" lon="11.3665881"><ele>618.0</ele><time>2026-03-22T08:31:20.761Z</time></trkpt><trkpt lat="43.5888923" lon="11.3665495"><ele>618.0</ele><time>2026-03-22T08:31:21.761Z</time></trkpt><trkpt lat="43.5888134" lon="11.3665111"><ele>618.0</ele><time>2026-03-22T08:31:22.761Z</time></trkpt><trkpt lat="43.5887337" lon="11.3664793"><ele>618.0</ele><time>2026-03-22T08:31:23.761Z</time></trkpt><trkpt lat="43.5886319" lon="11.3665139"><ele>618.0</ele><time>2026-03-22T08:31:24.76Z</time></trkpt><trkpt lat="43.5885325" lon="11.3665523"><ele>618.0</ele><time>2026-03-22T08:31:25.76Z</time></trkpt><trkpt lat="43.5884016" lon="11.3665536"><ele>618.4</ele><time>2026-03-22T08:31:26.762Z</time></trkpt><trkpt lat="43.588275" lon="11.3665393"><ele>618.8</ele><time>2026-03-22T08:31:27.762Z</time></trkpt><trkpt lat="43.5881905" lon="11.3665219"><ele>619.2</ele><time>2026-03-22T08:31:28.761Z</time></trkpt><trkpt lat="43.5881103" lon="11.3665003"><ele>619.6</ele><time>2026-03-22T08:31:29.761Z</time></trkpt><trkpt lat="43.5880238" lon="11.366482"><ele>620.0</ele><time>2026-03-22T08:31:30.761Z</time></trkpt><trkpt lat="43.5879304" lon="11.366458"><ele>620.6</ele><time>2026-03-22T08:31:31.762Z</time></trkpt><trkpt lat="43.5878346" lon="11.3664432"><ele>621.2</ele><time>2026-03-22T08:31:32.761Z</time></trkpt><trkpt lat="43.5877323" lon="11.3664247"><ele>621.8</ele><time>2026-03-22T08:31:33.761Z</time></trkpt><trkpt lat="43.5876177" lon="11.3664058"><ele>622.4</ele><time>2026-03-22T08:31:34.76Z</time></trkpt><trkpt lat="43.587501" lon="11.3663941"><ele>623.0</ele><time>2026-03-22T08:31:35.76Z</time></trkpt><trkpt lat="43.5873764" lon="11.3663877"><ele>623.0</ele><time>2026-03-22T08:31:36.761Z</time></trkpt><trkpt lat="43.5872556" lon="11.3664009"><ele>623.0</ele><time>2026-03-22T08:31:37.76Z</time></trkpt><trkpt lat="43.5871408" lon="11.3664046"><ele>623.0</ele><time>2026-03-22T08:31:38.761Z</time></trkpt><trkpt lat="43.5870231" lon="11.3664126"><ele>623.0</ele><time>2026-03-22T08:31:39.76Z</time></trkpt><trkpt lat="43.5869061" lon="11.3664224"><ele>624.0</ele><time>2026-03-22T08:31:40.76Z</time></trkpt><trkpt lat="43.5867892" lon="11.3664174"><ele>625.0</ele><time>2026-03-22T08:31:41.761Z</time></trkpt><trkpt lat="43.5866728" lon="11.3664159"><ele>626.0</ele><time>2026-03-22T08:31:42.762Z</time></trkpt><trkpt lat="43.586552" lon="11.3664085"><ele>627.0</ele><time>2026-03-22T08:31:43.761Z</time></trkpt><trkpt lat="43.5864288" lon="11.3663955"><ele>627.0</ele><time>2026-03-22T08:31:44.76Z</time></trkpt><trkpt lat="43.586313" lon="11.3663783"><ele>627.0</ele><time>2026-03-22T08:31:45.76Z</time></trkpt><trkpt lat="43.5861922" lon="11.3663698"><ele>627.0</ele><time>2026-03-22T08:31:46.761Z</time></trkpt><trkpt lat="43.5860764" lon="11.3663567"><ele>627.0</ele><time>2026-03-22T08:31:47.76Z</time></trkpt><trkpt lat="43.5859578" lon="11.3663486"><ele>627.0</ele><time>2026-03-22T08:31:48.761Z</time></trkpt><trkpt lat="43.5858473" lon="11.3663394"><ele>627.0</ele><time>2026-03-22T08:31:49.761Z</time></trkpt><trkpt lat="43.5857469" lon="11.3663259"><ele>627.0</ele><time>2026-03-22T08:31:50.76Z</time></trkpt><trkpt lat="43.5856606" lon="11.3663186"><ele>627.0</ele><time>2026-03-22T08:31:51.761Z</time></trkpt><trkpt lat="43.5855863" lon="11.3663194"><ele>627.0</ele><time>2026-03-22T08:31:52.76Z</time></trkpt><trkpt lat="43.585473" lon="11.3663297"><ele>627.0</ele><time>2026-03-22T08:31:54.761Z</time></trkpt><trkpt lat="43.5853842" lon="11.366397"><ele>627.0</ele><time>2026-03-22T08:31:56.762Z</time></trkpt><trkpt lat="43.5853892" lon="11.366489"><ele>627.0</ele><time>2026-03-22T08:31:57.761Z</time></trkpt><trkpt lat="43.5853779" lon="11.3665913"><ele>627.0</ele><time>2026-03-22T08:31:58.76Z</time></trkpt><trkpt lat="43.5853652" lon="11.3667093"><ele>627.0</ele><time>2026-03-22T08:31:59.761Z</time></trkpt><trkpt lat="43.5853548" lon="11.3668288"><ele>627.0</ele><time>2026-03-22T08:32:00.761Z</time></trkpt><trkpt lat="43.5853381" lon="11.3669521"><ele>628.0</ele><time>2026-03-22T08:32:01.761Z</time></trkpt><trkpt lat="43.5853257" lon="11.367085"><ele>629.0</ele><time>2026-03-22T08:32:02.761Z</time></trkpt><trkpt lat="43.5853143" lon="11.3672221"><ele>630.0</ele><time>2026-03-22T08:32:03.761Z</time></trkpt><trkpt lat="43.5853128" lon="11.3673755"><ele>631.0</ele><time>2026-03-22T08:32:04.761Z</time></trkpt><trkpt lat="43.5853262" lon="11.367531"><ele>632.0</ele><time>2026-03-22T08:32:05.76Z</time></trkpt><trkpt lat="43.5853504" lon="11.3676813"><ele>632.0</ele><time>2026-03-22T08:32:06.761Z</time></trkpt><trkpt lat="43.5853674" lon="11.367828"><ele>632.0</ele><time>2026-03-22T08:32:07.76Z</time></trkpt><trkpt lat="43.5853622" lon="11.3679644"><ele>632.0</ele><time>2026-03-22T08:32:08.76Z</time></trkpt><trkpt lat="43.5853342" lon="11.3680732"><ele>632.0</ele><time>2026-03-22T08:32:09.761Z</time></trkpt><trkpt lat="43.5852802" lon="11.3681611"><ele>632.0</ele><time>2026-03-22T08:32:10.762Z</time></trkpt><trkpt lat="43.5852056" lon="11.3682534"><ele>635.75</ele><time>2026-03-22T08:32:11.761Z</time></trkpt><trkpt lat="43.5851116" lon="11.3683372"><ele>639.5</ele><time>2026-03-22T08:32:12.761Z</time></trkpt><trkpt lat="43.5850131" lon="11.3684246"><ele>643.25</ele><time>2026-03-22T08:32:13.76Z</time></trkpt><trkpt lat="43.5849108" lon="11.3685175"><ele>647.0</ele><time>2026-03-22T08:32:14.76Z</time></trkpt><trkpt lat="43.5848041" lon="11.3686162"><ele>647.0</ele><time>2026-03-22T08:32:15.761Z</time></trkpt><trkpt lat="43.584688" lon="11.3687248"><ele>647.0</ele><time>2026-03-22T08:32:16.761Z</time></trkpt><trkpt lat="43.5845605" lon="11.3688438"><ele>647.0</ele><time>2026-03-22T08:32:17.761Z</time></trkpt><trkpt lat="43.584435" lon="11.3689563"><ele>647.0</ele><time>2026-03-22T08:32:18.761Z</time></trkpt><trkpt lat="43.584317" lon="11.369075"><ele>650.0</ele><time>2026-03-22T08:32:19.76Z</time></trkpt><trkpt lat="43.584199" lon="11.3692009"><ele>653.0</ele><time>2026-03-22T08:32:20.761Z</time></trkpt><trkpt lat="43.5840868" lon="11.3693278"><ele>656.0</ele><time>2026-03-22T08:32:21.762Z</time></trkpt><trkpt lat="43.5839761" lon="11.369455"><ele>659.0</ele><time>2026-03-22T08:32:22.761Z</time></trkpt><trkpt lat="43.5838638" lon="11.3695856"><ele>658.5</ele><time>2026-03-22T08:32:23.762Z</time></trkpt><trkpt lat="43.5837499" lon="11.3697113"><ele>658.0</ele><time>2026-03-22T08:32:24.761Z</time></trkpt><trkpt lat="43.5836356" lon="11.3698393"><ele>657.5</ele><time>2026-03-22T08:32:25.761Z</time></trkpt><trkpt lat="43.5835203" lon="11.369972"><ele>657.0</ele><time>2026-03-22T08:32:26.76Z</time></trkpt><trkpt lat="43.5834054" lon="11.3701038"><ele>658.0</ele><time>2026-03-22T08:32:27.76Z</time></trkpt><trkpt lat="43.58329" lon="11.3702335"><ele>659.0</ele><time>2026-03-22T08:32:28.761Z</time></trkpt><trkpt lat="43.583177" lon="11.3703598"><ele>660.0</ele><time>2026-03-22T08:32:29.762Z</time></trkpt><trkpt lat="43.583067" lon="11.370482"><ele>661.0</ele><time>2026-03-22T08:32:30.761Z</time></trkpt><trkpt lat="43.5829548" lon="11.3705971"><ele>663.25</ele><time>2026-03-22T08:32:31.762Z</time></trkpt><trkpt lat="43.5828386" lon="11.3707021"><ele>665.5</ele><time>2026-03-22T08:32:32.76Z</time></trkpt><trkpt lat="43.5827137" lon="11.3707885"><ele>667.75</ele><time>2026-03-22T08:32:33.762Z</time></trkpt><trkpt lat="43.5825824" lon="11.370865"><ele>670.0</ele><time>2026-03-22T08:32:34.76Z</time></trkpt><trkpt lat="43.5824439" lon="11.3709322"><ele>670.0</ele><time>2026-03-22T08:32:35.761Z</time></trkpt><trkpt lat="43.5823038" lon="11.3709935"><ele>670.0</ele><time>2026-03-22T08:32:36.761Z</time></trkpt><trkpt lat="43.5821668" lon="11.3710416"><ele>670.0</ele><time>2026-03-22T08:32:37.76Z</time></trkpt><trkpt lat="43.5820302" lon="11.3710903"><ele>670.0</ele><time>2026-03-22T08:32:38.762Z</time></trkpt><trkpt lat="43.5818922" lon="11.3711312"><ele>672.25</ele><time>2026-03-22T08:32:39.761Z</time></trkpt><trkpt lat="43.5817585" lon="11.3711659"><ele>674.5</ele><time>2026-03-22T08:32:40.761Z</time></trkpt><trkpt lat="43.5816219" lon="11.3711902"><ele>676.75</ele><time>2026-03-22T08:32:41.761Z</time></trkpt><trkpt lat="43.5814814" lon="11.3712134"><ele>679.0</ele><time>2026-03-22T08:32:42.761Z</time></trkpt><trkpt lat="43.5813393" lon="11.3712378"><ele>679.0</ele><time>2026-03-22T08:32:43.76Z</time></trkpt><trkpt lat="43.5811968" lon="11.3712538"><ele>679.0</ele><time>2026-03-22T08:32:44.76Z</time></trkpt><trkpt lat="43.5810555" lon="11.3712518"><ele>679.0</ele><time>2026-03-22T08:32:45.76Z</time></trkpt><trkpt lat="43.5809205" lon="11.3712268"><ele>679.0</ele><time>2026-03-22T08:32:46.761Z</time></trkpt><trkpt lat="43.5807915" lon="11.3711759"><ele>681.5</ele><time>2026-03-22T08:32:47.761Z</time></trkpt><trkpt lat="43.5806691" lon="11.3710986"><ele>684.0</ele><time>2026-03-22T08:32:48.761Z</time></trkpt><trkpt lat="43.5805594" lon="11.3710225"><ele>686.5</ele><time>2026-03-22T08:32:49.76Z</time></trkpt><trkpt lat="43.5804636" lon="11.3709646"><ele>689.0</ele><time>2026-03-22T08:32:50.761Z</time></trkpt><trkpt lat="43.580378" lon="11.3709378"><ele>690.0</ele><time>2026-03-22T08:32:51.761Z</time></trkpt><trkpt lat="43.5802967" lon="11.3709071"><ele>691.0</ele><time>2026-03-22T08:32:52.761Z</time></trkpt><trkpt lat="43.5802378" lon="11.3710073"><ele>692.0</ele><time>2026-03-22T08:32:53.761Z</time></trkpt><trkpt lat="43.5801766" lon="11.371081"><ele>693.0</ele><time>2026-03-22T08:32:54.761Z</time></trkpt><trkpt lat="43.5801083" lon="11.3711895"><ele>694.0</ele><time>2026-03-22T08:32:55.761Z</time></trkpt><trkpt lat="43.5800272" lon="11.3713018"><ele>698.5</ele><time>2026-03-22T08:32:56.761Z</time></trkpt><trkpt lat="43.5799379" lon="11.3713849"><ele>703.0</ele><time>2026-03-22T08:32:57.761Z</time></trkpt><trkpt lat="43.5798368" lon="11.3714294"><ele>707.5</ele><time>2026-03-22T08:32:58.762Z</time></trkpt><trkpt lat="43.5797129" lon="11.3714511"><ele>712.0</ele><time>2026-03-22T08:32:59.76Z</time></trkpt><trkpt lat="43.5795929" lon="11.3714719"><ele>711.25</ele><time>2026-03-22T08:33:00.761Z</time></trkpt><trkpt lat="43.5794827" lon="11.371506"><ele>710.5</ele><time>2026-03-22T08:33:01.76Z</time></trkpt><trkpt lat="43.579383" lon="11.3715705"><ele>709.75</ele><time>2026-03-22T08:33:02.761Z</time></trkpt><trkpt lat="43.5792949" lon="11.3716627"><ele>709.0</ele><time>2026-03-22T08:33:03.761Z</time></trkpt><trkpt lat="43.5792075" lon="11.3717834"><ele>709.0</ele><time>2026-03-22T08:33:04.762Z</time></trkpt><trkpt lat="43.5791268" lon="11.3719055"><ele>709.0</ele><time>2026-03-22T08:33:05.761Z</time></trkpt><trkpt lat="43.5790412" lon="11.3720148"><ele>709.0</ele><time>2026-03-22T08:33:06.76Z</time></trkpt><trkpt lat="43.5789367" lon="11.3720985"><ele>709.0</ele><time>2026-03-22T08:33:07.761Z</time></trkpt><trkpt lat="43.5788107" lon="11.3721735"><ele>712.25</ele><time>2026-03-22T08:33:08.761Z</time></trkpt><trkpt lat="43.5786941" lon="11.3722603"><ele>715.5</ele><time>2026-03-22T08:33:09.761Z</time></trkpt><trkpt lat="43.5785832" lon="11.3723505"><ele>718.75</ele><time>2026-03-22T08:33:10.762Z</time></trkpt><trkpt lat="43.578477" lon="11.3724428"><ele>722.0</ele><time>2026-03-22T08:33:11.762Z</time></trkpt><trkpt lat="43.5783749" lon="11.3725446"><ele>722.0</ele><time>2026-03-22T08:33:12.761Z</time></trkpt><trkpt lat="43.5782764" lon="11.372656"><ele>722.0</ele><time>2026-03-22T08:33:13.761Z</time></trkpt><trkpt lat="43.578194" lon="11.3727714"><ele>722.0</ele><time>2026-03-22T08:33:14.761Z</time></trkpt><trkpt lat="43.5781195" lon="11.3728903"><ele>722.0</ele><time>2026-03-22T08:33:15.762Z</time></trkpt><trkpt lat="43.5780554" lon="11.3730158"><ele>722.2</ele><time>2026-03-22T08:33:16.763Z</time></trkpt><trkpt lat="43.5779908" lon="11.3731367"><ele>722.4000000000001</ele><time>2026-03-22T08:33:17.762Z</time></trkpt><trkpt lat="43.5779218" lon="11.3732534"><ele>722.5999999999999</ele><time>2026-03-22T08:33:18.761Z</time></trkpt><trkpt lat="43.5778498" lon="11.3733417"><ele>722.8</ele><time>2026-03-22T08:33:19.762Z</time></trkpt><trkpt lat="43.5777717" lon="11.3734052"><ele>723.0</ele><time>2026-03-22T08:33:20.763Z</time></trkpt><trkpt lat="43.5776727" lon="11.3734404"><ele>723.5</ele><time>2026-03-22T08:33:21.763Z</time></trkpt><trkpt lat="43.5775631" lon="11.373456"><ele>724.0</ele><time>2026-03-22T08:33:22.762Z</time></trkpt><trkpt lat="43.5774457" lon="11.3734647"><ele>724.5</ele><time>2026-03-22T08:33:23.761Z</time></trkpt><trkpt lat="43.5773255" lon="11.3734765"><ele>725.0</ele><time>2026-03-22T08:33:24.762Z</time></trkpt><trkpt lat="43.5772058" lon="11.3735007"><ele>725.0</ele><time>2026-03-22T08:33:25.761Z</time></trkpt><trkpt lat="43.577093" lon="11.3735542"><ele>725.0</ele><time>2026-03-22T08:33:26.761Z</time></trkpt><trkpt lat="43.5769831" lon="11.3735991"><ele>725.0</ele><time>2026-03-22T08:33:27.762Z</time></trkpt><trkpt lat="43.5768702" lon="11.3736262"><ele>725.0</ele><time>2026-03-22T08:33:28.763Z</time></trkpt><trkpt lat="43.576749" lon="11.3736286"><ele>725.75</ele><time>2026-03-22T08:33:29.762Z</time></trkpt><trkpt lat="43.5766217" lon="11.3736146"><ele>726.5</ele><time>2026-03-22T08:33:30.762Z</time></trkpt><trkpt lat="43.576496" lon="11.3735814"><ele>727.25</ele><time>2026-03-22T08:33:31.761Z</time></trkpt><trkpt lat="43.5763696" lon="11.3735436"><ele>728.0</ele><time>2026-03-22T08:33:32.762Z</time></trkpt><trkpt lat="43.5762428" lon="11.3735242"><ele>726.75</ele><time>2026-03-22T08:33:33.762Z</time></trkpt><trkpt lat="43.5761205" lon="11.373528"><ele>725.5</ele><time>2026-03-22T08:33:34.762Z</time></trkpt><trkpt lat="43.5759975" lon="11.3735516"><ele>724.25</ele><time>2026-03-22T08:33:35.761Z</time></trkpt><trkpt lat="43.5758781" lon="11.373599"><ele>723.0</ele><time>2026-03-22T08:33:36.761Z</time></trkpt><trkpt lat="43.5757671" lon="11.3736648"><ele>723.0</ele><time>2026-03-22T08:33:37.762Z</time></trkpt><trkpt lat="43.5756565" lon="11.3737542"><ele>723.0</ele><time>2026-03-22T08:33:38.762Z</time></trkpt><trkpt lat="43.5755497" lon="11.3738611"><ele>723.0</ele><time>2026-03-22T08:33:39.762Z</time></trkpt><trkpt lat="43.5754441" lon="11.3739874"><ele>723.0</ele><time>2026-03-22T08:33:40.762Z</time></trkpt><trkpt lat="43.5753338" lon="11.3741331"><ele>723.6666666666666</ele><time>2026-03-22T08:33:41.761Z</time></trkpt><trkpt lat="43.5752258" lon="11.3742848"><ele>724.3333333333333</ele><time>2026-03-22T08:33:42.762Z</time></trkpt><trkpt lat="43.5751137" lon="11.3744427"><ele>725.0</ele><time>2026-03-22T08:33:43.761Z</time></trkpt><trkpt lat="43.5750068" lon="11.3745952"><ele>727.25</ele><time>2026-03-22T08:33:44.762Z</time></trkpt><trkpt lat="43.5749028" lon="11.3747415"><ele>729.5</ele><time>2026-03-22T08:33:45.763Z</time></trkpt><trkpt lat="43.5748043" lon="11.3748859"><ele>731.75</ele><time>2026-03-22T08:33:46.762Z</time></trkpt><trkpt lat="43.574709" lon="11.3750248"><ele>734.0</ele><time>2026-03-22T08:33:47.762Z</time></trkpt><trkpt lat="43.5746157" lon="11.3751582"><ele>733.75</ele><time>2026-03-22T08:33:48.762Z</time></trkpt><trkpt lat="43.57452" lon="11.3752715"><ele>733.5</ele><time>2026-03-22T08:33:49.761Z</time></trkpt><trkpt lat="43.574421" lon="11.3753614"><ele>733.25</ele><time>2026-03-22T08:33:50.761Z</time></trkpt><trkpt lat="43.574312" lon="11.3754428"><ele>733.0</ele><time>2026-03-22T08:33:51.761Z</time></trkpt><trkpt lat="43.5741954" lon="11.3755185"><ele>735.0</ele><time>2026-03-22T08:33:52.761Z</time></trkpt><trkpt lat="43.5740685" lon="11.3755909"><ele>737.0</ele><time>2026-03-22T08:33:53.762Z</time></trkpt><trkpt lat="43.5739388" lon="11.3756635"><ele>739.0</ele><time>2026-03-22T08:33:54.763Z</time></trkpt><trkpt lat="43.5738073" lon="11.3757397"><ele>741.0</ele><time>2026-03-22T08:33:55.762Z</time></trkpt><trkpt lat="43.573672" lon="11.3758177"><ele>741.0</ele><time>2026-03-22T08:33:56.762Z</time></trkpt><trkpt lat="43.5735388" lon="11.3759007"><ele>741.0</ele><time>2026-03-22T08:33:57.761Z</time></trkpt><trkpt lat="43.5734078" lon="11.3759947"><ele>741.0</ele><time>2026-03-22T08:33:58.762Z</time></trkpt><trkpt lat="43.573289" lon="11.3760769"><ele>741.0</ele><time>2026-03-22T08:33:59.762Z</time></trkpt><trkpt lat="43.5731645" lon="11.37614"><ele>741.0</ele><time>2026-03-22T08:34:00.762Z</time></trkpt><trkpt lat="43.5730301" lon="11.3761855"><ele>741.0</ele><time>2026-03-22T08:34:01.761Z</time></trkpt><trkpt lat="43.5728928" lon="11.3762215"><ele>741.0</ele><time>2026-03-22T08:34:02.762Z</time></trkpt><trkpt lat="43.5727597" lon="11.376265"><ele>741.0</ele><time>2026-03-22T08:34:03.763Z</time></trkpt><trkpt lat="43.5726273" lon="11.3763176"><ele>742.75</ele><time>2026-03-22T08:34:04.762Z</time></trkpt><trkpt lat="43.5724955" lon="11.3763811"><ele>744.5</ele><time>2026-03-22T08:34:05.761Z</time></trkpt><trkpt lat="43.5723641" lon="11.3764363"><ele>746.25</ele><time>2026-03-22T08:34:06.761Z</time></trkpt><trkpt lat="43.5722297" lon="11.3764902"><ele>748.0</ele><time>2026-03-22T08:34:07.762Z</time></trkpt><trkpt lat="43.5720925" lon="11.3765489"><ele>748.75</ele><time>2026-03-22T08:34:08.761Z</time></trkpt><trkpt lat="43.5719568" lon="11.3766154"><ele>749.5</ele><time>2026-03-22T08:34:09.761Z</time></trkpt><trkpt lat="43.5718207" lon="11.3766882"><ele>750.25</ele><time>2026-03-22T08:34:10.762Z</time></trkpt><trkpt lat="43.571681" lon="11.3767525"><ele>751.0</ele><time>2026-03-22T08:34:11.762Z</time></trkpt><trkpt lat="43.5715435" lon="11.3768112"><ele>751.0</ele><time>2026-03-22T08:34:12.761Z</time></trkpt><trkpt lat="43.5714048" lon="11.3768606"><ele>751.0</ele><time>2026-03-22T08:34:13.763Z</time></trkpt><trkpt lat="43.5712786" lon="11.3768888"><ele>751.0</ele><time>2026-03-22T08:34:14.761Z</time></trkpt><trkpt lat="43.5711595" lon="11.3769122"><ele>751.0</ele><time>2026-03-22T08:34:15.762Z</time></trkpt><trkpt lat="43.571051" lon="11.3769304"><ele>750.5</ele><time>2026-03-22T08:34:16.761Z</time></trkpt><trkpt lat="43.5709338" lon="11.3769605"><ele>750.0</ele><time>2026-03-22T08:34:17.762Z</time></trkpt><trkpt lat="43.5708146" lon="11.3770037"><ele>749.5</ele><time>2026-03-22T08:34:18.762Z</time></trkpt><trkpt lat="43.5706941" lon="11.3770651"><ele>749.0</ele><time>2026-03-22T08:34:19.761Z</time></trkpt><trkpt lat="43.5705743" lon="11.3771388"><ele>749.0</ele><time>2026-03-22T08:34:20.762Z</time></trkpt><trkpt lat="43.5704618" lon="11.3772143"><ele>749.0</ele><time>2026-03-22T08:34:21.761Z</time></trkpt><trkpt lat="43.5703498" lon="11.3772906"><ele>749.0</ele><time>2026-03-22T08:34:22.762Z</time></trkpt><trkpt lat="43.5702356" lon="11.3773653"><ele>749.0</ele><time>2026-03-22T08:34:23.761Z</time></trkpt><trkpt lat="43.5701202" lon="11.3774398"><ele>748.0</ele><time>2026-03-22T08:34:24.762Z</time></trkpt><trkpt lat="43.5700014" lon="11.3775165"><ele>747.0</ele><time>2026-03-22T08:34:25.763Z</time></trkpt><trkpt lat="43.5698803" lon="11.3775944"><ele>746.0</ele><time>2026-03-22T08:34:26.762Z</time></trkpt><trkpt lat="43.5697654" lon="11.3776716"><ele>745.0</ele><time>2026-03-22T08:34:27.762Z</time></trkpt><trkpt lat="43.5696636" lon="11.3777469"><ele>745.0</ele><time>2026-03-22T08:34:28.762Z</time></trkpt><trkpt lat="43.569564" lon="11.3778192"><ele>745.0</ele><time>2026-03-22T08:34:29.761Z</time></trkpt><trkpt lat="43.5694577" lon="11.3778868"><ele>745.0</ele><time>2026-03-22T08:34:30.762Z</time></trkpt><trkpt lat="43.5693408" lon="11.3779589"><ele>745.0</ele><time>2026-03-22T08:34:31.762Z</time></trkpt><trkpt lat="43.5692316" lon="11.3780379"><ele>745.6</ele><time>2026-03-22T08:34:32.762Z</time></trkpt><trkpt lat="43.5691425" lon="11.3781146"><ele>746.2</ele><time>2026-03-22T08:34:33.762Z</time></trkpt><trkpt lat="43.5690434" lon="11.3782048"><ele>746.8</ele><time>2026-03-22T08:34:34.762Z</time></trkpt><trkpt lat="43.5689569" lon="11.3782705"><ele>747.4</ele><time>2026-03-22T08:34:35.761Z</time></trkpt><trkpt lat="43.5688772" lon="11.3783048"><ele>748.0</ele><time>2026-03-22T08:34:36.762Z</time></trkpt><trkpt lat="43.568811" lon="11.3783"><ele>748.0</ele><time>2026-03-22T08:34:37.761Z</time></trkpt><trkpt lat="43.5687121" lon="11.3781685"><ele>748.0</ele><time>2026-03-22T08:34:39.761Z</time></trkpt><trkpt lat="43.5686664" lon="11.3780462"><ele>748.0</ele><time>2026-03-22T08:34:40.762Z</time></trkpt><trkpt lat="43.5686247" lon="11.3778922"><ele>748.0</ele><time>2026-03-22T08:34:41.762Z</time></trkpt><trkpt lat="43.5685795" lon="11.3777264"><ele>751.0</ele><time>2026-03-22T08:34:42.762Z</time></trkpt><trkpt lat="43.5685349" lon="11.3775615"><ele>754.0</ele><time>2026-03-22T08:34:43.762Z</time></trkpt><trkpt lat="43.5684873" lon="11.3774017"><ele>757.0</ele><time>2026-03-22T08:34:44.762Z</time></trkpt><trkpt lat="43.5684411" lon="11.3772738"><ele>760.0</ele><time>2026-03-22T08:34:45.761Z</time></trkpt><trkpt lat="43.5683919" lon="11.3771787"><ele>763.0</ele><time>2026-03-22T08:34:46.761Z</time></trkpt><trkpt lat="43.5683269" lon="11.3771174"><ele>763.0</ele><time>2026-03-22T08:34:47.763Z</time></trkpt><trkpt lat="43.5682649" lon="11.3771012"><ele>763.0</ele><time>2026-03-22T08:34:48.762Z</time></trkpt><trkpt lat="43.5682017" lon="11.3771282"><ele>763.0</ele><time>2026-03-22T08:34:49.762Z</time></trkpt><trkpt lat="43.5681526" lon="11.3771875"><ele>763.0</ele><time>2026-03-22T08:34:50.761Z</time></trkpt><trkpt lat="43.5681187" lon="11.3772785"><ele>763.0</ele><time>2026-03-22T08:34:51.762Z</time></trkpt><trkpt lat="43.568102" lon="11.377392"><ele>763.0</ele><time>2026-03-22T08:34:52.761Z</time></trkpt><trkpt lat="43.5680899" lon="11.3775328"><ele>763.4</ele><time>2026-03-22T08:34:53.763Z</time></trkpt><trkpt lat="43.5680571" lon="11.377664"><ele>763.8</ele><time>2026-03-22T08:34:54.761Z</time></trkpt><trkpt lat="43.5680035" lon="11.377778"><ele>764.2</ele><time>2026-03-22T08:34:55.762Z</time></trkpt><trkpt lat="43.5679234" lon="11.3778984"><ele>764.6</ele><time>2026-03-22T08:34:56.762Z</time></trkpt><trkpt lat="43.5678402" lon="11.3779999"><ele>765.0</ele><time>2026-03-22T08:34:57.761Z</time></trkpt><trkpt lat="43.5677524" lon="11.3780794"><ele>767.2</ele><time>2026-03-22T08:34:58.763Z</time></trkpt><trkpt lat="43.5676611" lon="11.3781402"><ele>769.4</ele><time>2026-03-22T08:34:59.761Z</time></trkpt><trkpt lat="43.5675686" lon="11.3781764"><ele>771.5999999999999</ele><time>2026-03-22T08:35:00.761Z</time></trkpt><trkpt lat="43.5674736" lon="11.378188"><ele>773.8</ele><time>2026-03-22T08:35:01.762Z</time></trkpt><trkpt lat="43.5673699" lon="11.3781757"><ele>776.0</ele><time>2026-03-22T08:35:02.762Z</time></trkpt><trkpt lat="43.5672591" lon="11.3781511"><ele>776.0</ele><time>2026-03-22T08:35:03.763Z</time></trkpt><trkpt lat="43.5671425" lon="11.3781172"><ele>776.0</ele><time>2026-03-22T08:35:04.762Z</time></trkpt><trkpt lat="43.5670308" lon="11.3780843"><ele>776.0</ele><time>2026-03-22T08:35:05.763Z</time></trkpt><trkpt lat="43.5669176" lon="11.3780523"><ele>776.0</ele><time>2026-03-22T08:35:06.762Z</time></trkpt><trkpt lat="43.566805" lon="11.3780237"><ele>777.75</ele><time>2026-03-22T08:35:07.762Z</time></trkpt><trkpt lat="43.5666877" lon="11.3779865"><ele>779.5</ele><time>2026-03-22T08:35:08.762Z</time></trkpt><trkpt lat="43.5665651" lon="11.3779341"><ele>781.25</ele><time>2026-03-22T08:35:09.762Z</time></trkpt><trkpt lat="43.5664422" lon="11.3778711"><ele>783.0</ele><time>2026-03-22T08:35:10.762Z</time></trkpt><trkpt lat="43.5663278" lon="11.3777988"><ele>783.0</ele><time>2026-03-22T08:35:11.762Z</time></trkpt><trkpt lat="43.5662154" lon="11.3777328"><ele>783.0</ele><time>2026-03-22T08:35:12.762Z</time></trkpt><trkpt lat="43.5660999" lon="11.3776753"><ele>783.0</ele><time>2026-03-22T08:35:13.762Z</time></trkpt><trkpt lat="43.5659815" lon="11.3776452"><ele>783.0</ele><time>2026-03-22T08:35:14.761Z</time></trkpt><trkpt lat="43.5658683" lon="11.3776415"><ele>785.75</ele><time>2026-03-22T08:35:15.762Z</time></trkpt><trkpt lat="43.5657651" lon="11.3776764"><ele>788.5</ele><time>2026-03-22T08:35:16.762Z</time></trkpt><trkpt lat="43.5656588" lon="11.3777513"><ele>791.25</ele><time>2026-03-22T08:35:17.762Z</time></trkpt><trkpt lat="43.5655453" lon="11.3778632"><ele>794.0</ele><time>2026-03-22T08:35:18.762Z</time></trkpt><trkpt lat="43.5654312" lon="11.3779992"><ele>797.25</ele><time>2026-03-22T08:35:19.761Z</time></trkpt><trkpt lat="43.5653279" lon="11.3781266"><ele>800.5</ele><time>2026-03-22T08:35:20.762Z</time></trkpt><trkpt lat="43.5652294" lon="11.3782537"><ele>803.75</ele><time>2026-03-22T08:35:21.762Z</time></trkpt><trkpt lat="43.5651276" lon="11.3783627"><ele>807.0</ele><time>2026-03-22T08:35:22.763Z</time></trkpt><trkpt lat="43.565008" lon="11.378463"><ele>807.0</ele><time>2026-03-22T08:35:23.761Z</time></trkpt><trkpt lat="43.5648726" lon="11.3785514"><ele>807.0</ele><time>2026-03-22T08:35:24.761Z</time></trkpt><trkpt lat="43.5647418" lon="11.37862"><ele>807.0</ele><time>2026-03-22T08:35:25.762Z</time></trkpt><trkpt lat="43.5646111" lon="11.3786756"><ele>807.0</ele><time>2026-03-22T08:35:26.762Z</time></trkpt><trkpt lat="43.5644826" lon="11.3787216"><ele>810.0</ele><time>2026-03-22T08:35:27.762Z</time></trkpt><trkpt lat="43.5643598" lon="11.3787593"><ele>813.0</ele><time>2026-03-22T08:35:28.762Z</time></trkpt><trkpt lat="43.5642424" lon="11.3787812"><ele>816.0</ele><time>2026-03-22T08:35:29.762Z</time></trkpt><trkpt lat="43.5641388" lon="11.3787938"><ele>819.0</ele><time>2026-03-22T08:35:30.761Z</time></trkpt><trkpt lat="43.5640413" lon="11.3787862"><ele>822.0</ele><time>2026-03-22T08:35:31.761Z</time></trkpt><trkpt lat="43.5639586" lon="11.3787534"><ele>822.0</ele><time>2026-03-22T08:35:32.762Z</time></trkpt><trkpt lat="43.5639009" lon="11.3786897"><ele>822.0</ele><time>2026-03-22T08:35:33.761Z</time></trkpt><trkpt lat="43.5638655" lon="11.3786055"><ele>822.0</ele><time>2026-03-22T08:35:34.763Z</time></trkpt><trkpt lat="43.5638568" lon="11.3785034"><ele>822.0</ele><time>2026-03-22T08:35:35.762Z</time></trkpt><trkpt lat="43.56388" lon="11.3783761"><ele>822.0</ele><time>2026-03-22T08:35:36.761Z</time></trkpt><trkpt lat="43.5639246" lon="11.3782468"><ele>822.0</ele><time>2026-03-22T08:35:37.762Z</time></trkpt><trkpt lat="43.5639454" lon="11.3781285"><ele>822.3333333333334</ele><time>2026-03-22T08:35:38.761Z</time></trkpt><trkpt lat="43.5639391" lon="11.378016"><ele>822.6666666666667</ele><time>2026-03-22T08:35:39.762Z</time></trkpt><trkpt lat="43.5639104" lon="11.3779215"><ele>823.0</ele><time>2026-03-22T08:35:40.762Z</time></trkpt><trkpt lat="43.5638577" lon="11.3778606"><ele>823.3333333333334</ele><time>2026-03-22T08:35:41.761Z</time></trkpt><trkpt lat="43.5637915" lon="11.3778117"><ele>823.6666666666667</ele><time>2026-03-22T08:35:42.761Z</time></trkpt><trkpt lat="43.5637193" lon="11.3777868"><ele>824.0</ele><time>2026-03-22T08:35:43.761Z</time></trkpt><trkpt lat="43.5636358" lon="11.377786"><ele>825.0</ele><time>2026-03-22T08:35:44.763Z</time></trkpt><trkpt lat="43.5635486" lon="11.3778103"><ele>826.0</ele><time>2026-03-22T08:35:45.762Z</time></trkpt><trkpt lat="43.5634502" lon="11.3778488"><ele>827.0</ele><time>2026-03-22T08:35:46.762Z</time></trkpt><trkpt lat="43.5633608" lon="11.3778906"><ele>828.0</ele><time>2026-03-22T08:35:47.762Z</time></trkpt><trkpt lat="43.5632715" lon="11.3779343"><ele>829.0</ele><time>2026-03-22T08:35:48.762Z</time></trkpt><trkpt lat="43.5631827" lon="11.3779733"><ele>828.9999999999999</ele><time>2026-03-22T08:35:49.762Z</time></trkpt><trkpt lat="43.5630976" lon="11.3780155"><ele>829.0</ele><time>2026-03-22T08:35:50.762Z</time></trkpt><trkpt lat="43.5630159" lon="11.3780557"><ele>829.0</ele><time>2026-03-22T08:35:51.762Z</time></trkpt><trkpt lat="43.5629325" lon="11.3780929"><ele>829.0</ele><time>2026-03-22T08:35:52.763Z</time></trkpt><trkpt lat="43.5628465" lon="11.3781296"><ele>828.9999999999999</ele><time>2026-03-22T08:35:53.762Z</time></trkpt><trkpt lat="43.5627646" lon="11.3781629"><ele>829.0</ele><time>2026-03-22T08:35:54.762Z</time></trkpt><trkpt lat="43.5626981" lon="11.3781927"><ele>831.8000000000001</ele><time>2026-03-22T08:35:55.762Z</time></trkpt><trkpt lat="43.5626185" lon="11.3782238"><ele>834.6</ele><time>2026-03-22T08:35:57.761Z</time></trkpt><trkpt lat="43.5625532" lon="11.3782065"><ele>837.4</ele><time>2026-03-22T08:36:00.763Z</time></trkpt><trkpt lat="43.5624876" lon="11.3781026"><ele>840.2</ele><time>2026-03-22T08:36:03.762Z</time></trkpt><trkpt lat="43.5624485" lon="11.3779366"><ele>843.0</ele><time>2026-03-22T08:36:05.762Z</time></trkpt><trkpt lat="43.5624164" lon="11.3777998"><ele>843.0</ele><time>2026-03-22T08:36:06.761Z</time></trkpt><trkpt lat="43.5624033" lon="11.3776989"><ele>843.0</ele><time>2026-03-22T08:36:07.762Z</time></trkpt><trkpt lat="43.5623758" lon="11.3775838"><ele>843.0</ele><time>2026-03-22T08:36:08.761Z</time></trkpt><trkpt lat="43.5623717" lon="11.3774506"><ele>843.0</ele><time>2026-03-22T08:36:09.761Z</time></trkpt><trkpt lat="43.562302" lon="11.3773537"><ele>843.0</ele><time>2026-03-22T08:36:10.762Z</time></trkpt><trkpt lat="43.5622768" lon="11.3772437"><ele>843.0</ele><time>2026-03-22T08:36:11.762Z</time></trkpt><trkpt lat="43.5622101" lon="11.3771238"><ele>843.0</ele><time>2026-03-22T08:36:12.763Z</time></trkpt><trkpt lat="43.5621413" lon="11.3770499"><ele>843.0</ele><time>2026-03-22T08:36:13.761Z</time></trkpt><trkpt lat="43.562044" lon="11.3769717"><ele>843.0</ele><time>2026-03-22T08:36:14.761Z</time></trkpt><trkpt lat="43.5619723" lon="11.3768801"><ele>843.0</ele><time>2026-03-22T08:36:15.762Z</time></trkpt><trkpt lat="43.5619012" lon="11.3768052"><ele>843.0</ele><time>2026-03-22T08:36:16.761Z</time></trkpt><trkpt lat="43.5618318" lon="11.3767272"><ele>846.4</ele><time>2026-03-22T08:36:17.762Z</time></trkpt><trkpt lat="43.5617253" lon="11.3766729"><ele>849.8</ele><time>2026-03-22T08:36:18.761Z</time></trkpt><trkpt lat="43.5616427" lon="11.3766142"><ele>853.2</ele><time>2026-03-22T08:36:19.763Z</time></trkpt><trkpt lat="43.5615598" lon="11.3766069"><ele>856.6</ele><time>2026-03-22T08:36:20.761Z</time></trkpt><trkpt lat="43.5614743" lon="11.3765284"><ele>860.0</ele><time>2026-03-22T08:36:21.763Z</time></trkpt><trkpt lat="43.5613891" lon="11.3764665"><ele>860.0000000000001</ele><time>2026-03-22T08:36:22.761Z</time></trkpt><trkpt lat="43.5613107" lon="11.3764156"><ele>860.0</ele><time>2026-03-22T08:36:23.761Z</time></trkpt><trkpt lat="43.5612577" lon="11.3763611"><ele>860.0</ele><time>2026-03-22T08:36:24.761Z</time></trkpt><trkpt lat="43.5611999" lon="11.3762915"><ele>860.0</ele><time>2026-03-22T08:36:25.762Z</time></trkpt><trkpt lat="43.5611689" lon="11.3761409"><ele>860.0000000000001</ele><time>2026-03-22T08:36:26.762Z</time></trkpt><trkpt lat="43.5611174" lon="11.3760243"><ele>860.0</ele><time>2026-03-22T08:36:27.762Z</time></trkpt><trkpt lat="43.5610606" lon="11.3759151"><ele>858.2</ele><time>2026-03-22T08:36:28.762Z</time></trkpt><trkpt lat="43.5609934" lon="11.3758239"><ele>856.4</ele><time>2026-03-22T08:36:29.762Z</time></trkpt><trkpt lat="43.5609112" lon="11.3757201"><ele>854.5999999999999</ele><time>2026-03-22T08:36:30.761Z</time></trkpt><trkpt lat="43.5608252" lon="11.3756262"><ele>852.8</ele><time>2026-03-22T08:36:31.761Z</time></trkpt><trkpt lat="43.5607485" lon="11.3755294"><ele>851.0</ele><time>2026-03-22T08:36:32.762Z</time></trkpt><trkpt lat="43.5606821" lon="11.3754268"><ele>849.1999999999999</ele><time>2026-03-22T08:36:33.761Z</time></trkpt><trkpt lat="43.5606214" lon="11.3753105"><ele>847.4</ele><time>2026-03-22T08:36:34.761Z</time></trkpt><trkpt lat="43.560562" lon="11.3752103"><ele>845.6</ele><time>2026-03-22T08:36:35.762Z</time></trkpt><trkpt lat="43.5604902" lon="11.3751203"><ele>843.8</ele><time>2026-03-22T08:36:36.761Z</time></trkpt><trkpt lat="43.560382" lon="11.3750221"><ele>842.0</ele><time>2026-03-22T08:36:37.762Z</time></trkpt><trkpt lat="43.5602859" lon="11.3749522"><ele>841.8</ele><time>2026-03-22T08:36:38.762Z</time></trkpt><trkpt lat="43.5602193" lon="11.374898"><ele>841.6</ele><time>2026-03-22T08:36:39.762Z</time></trkpt><trkpt lat="43.5601621" lon="11.3748492"><ele>841.4</ele><time>2026-03-22T08:36:40.761Z</time></trkpt><trkpt lat="43.5600349" lon="11.3747306"><ele>841.1999999999999</ele><time>2026-03-22T08:36:42.762Z</time></trkpt><trkpt lat="43.5599469" lon="11.374647"><ele>841.0</ele><time>2026-03-22T08:36:43.762Z</time></trkpt><trkpt lat="43.5598432" lon="11.3745546"><ele>841.0</ele><time>2026-03-22T08:36:44.761Z</time></trkpt><trkpt lat="43.5597442" lon="11.3744815"><ele>841.0</ele><time>2026-03-22T08:36:45.762Z</time></trkpt><trkpt lat="43.5596662" lon="11.3744092"><ele>841.0</ele><time>2026-03-22T08:36:46.762Z</time></trkpt><trkpt lat="43.5596052" lon="11.3743357"><ele>841.0</ele><time>2026-03-22T08:36:47.761Z</time></trkpt><trkpt lat="43.5595595" lon="11.3742097"><ele>841.0</ele><time>2026-03-22T08:36:49.762Z</time></trkpt><trkpt lat="43.5595905" lon="11.3740694"><ele>840.9999999999999</ele><time>2026-03-22T08:36:51.761Z</time></trkpt><trkpt lat="43.5596284" lon="11.3739946"><ele>841.0</ele><time>2026-03-22T08:36:52.762Z</time></trkpt><trkpt lat="43.5596746" lon="11.3739151"><ele>841.0</ele><time>2026-03-22T08:36:53.761Z</time></trkpt><trkpt lat="43.5597353" lon="11.3738251"><ele>841.0</ele><time>2026-03-22T08:36:54.762Z</time></trkpt><trkpt lat="43.5597894" lon="11.3737435"><ele>840.9999999999999</ele><time>2026-03-22T08:36:55.763Z</time></trkpt><trkpt lat="43.5598396" lon="11.3736591"><ele>841.0</ele><time>2026-03-22T08:36:56.762Z</time></trkpt><trkpt lat="43.5598984" lon="11.3735532"><ele>840.8</ele><time>2026-03-22T08:36:57.762Z</time></trkpt><trkpt lat="43.5599575" lon="11.3734366"><ele>840.5999999999999</ele><time>2026-03-22T08:36:58.761Z</time></trkpt><trkpt lat="43.5600038" lon="11.3733167"><ele>840.4</ele><time>2026-03-22T08:36:59.762Z</time></trkpt><trkpt lat="43.5600415" lon="11.3731853"><ele>840.2</ele><time>2026-03-22T08:37:00.762Z</time></trkpt><trkpt lat="43.5600814" lon="11.3730684"><ele>840.0</ele><time>2026-03-22T08:37:01.762Z</time></trkpt><trkpt lat="43.5601258" lon="11.3729753"><ele>840.0</ele><time>2026-03-22T08:37:02.762Z</time></trkpt><trkpt lat="43.560183" lon="11.3728982"><ele>840.0</ele><time>2026-03-22T08:37:03.762Z</time></trkpt><trkpt lat="43.560247" lon="11.3728226"><ele>840.0</ele><time>2026-03-22T08:37:04.761Z</time></trkpt><trkpt lat="43.5603017" lon="11.3727281"><ele>840.0</ele><time>2026-03-22T08:37:05.763Z</time></trkpt><trkpt lat="43.5603475" lon="11.3726142"><ele>840.0</ele><time>2026-03-22T08:37:06.762Z</time></trkpt><trkpt lat="43.5603861" lon="11.3724556"><ele>836.6</ele><time>2026-03-22T08:37:07.761Z</time></trkpt><trkpt lat="43.5604235" lon="11.3723038"><ele>833.2</ele><time>2026-03-22T08:37:08.762Z</time></trkpt><trkpt lat="43.5604567" lon="11.3721717"><ele>829.8</ele><time>2026-03-22T08:37:09.762Z</time></trkpt><trkpt lat="43.5604851" lon="11.3720578"><ele>826.4</ele><time>2026-03-22T08:37:10.762Z</time></trkpt><trkpt lat="43.5605111" lon="11.3719503"><ele>823.0</ele><time>2026-03-22T08:37:11.761Z</time></trkpt><trkpt lat="43.5605353" lon="11.3718456"><ele>821.8333333333333</ele><time>2026-03-22T08:37:12.762Z</time></trkpt><trkpt lat="43.5605445" lon="11.3717329"><ele>820.6666666666666</ele><time>2026-03-22T08:37:13.763Z</time></trkpt><trkpt lat="43.560541" lon="11.3716108"><ele>819.5</ele><time>2026-03-22T08:37:14.762Z</time></trkpt><trkpt lat="43.5605299" lon="11.3714879"><ele>818.3333333333333</ele><time>2026-03-22T08:37:15.763Z</time></trkpt><trkpt lat="43.5605263" lon="11.3713814"><ele>817.1666666666666</ele><time>2026-03-22T08:37:16.762Z</time></trkpt><trkpt lat="43.5605275" lon="11.3712757"><ele>816.0</ele><time>2026-03-22T08:37:17.762Z</time></trkpt><trkpt lat="43.5605333" lon="11.3711652"><ele>814.3333333333334</ele><time>2026-03-22T08:37:18.762Z</time></trkpt><trkpt lat="43.5605469" lon="11.3710495"><ele>812.6666666666667</ele><time>2026-03-22T08:37:19.761Z</time></trkpt><trkpt lat="43.5605469" lon="11.3709486"><ele>811.0</ele><time>2026-03-22T08:37:20.762Z</time></trkpt><trkpt lat="43.5605307" lon="11.3708472"><ele>809.3333333333334</ele><time>2026-03-22T08:37:21.763Z</time></trkpt><trkpt lat="43.5604936" lon="11.3707555"><ele>807.6666666666667</ele><time>2026-03-22T08:37:22.761Z</time></trkpt><trkpt lat="43.5604641" lon="11.3706561"><ele>806.0</ele><time>2026-03-22T08:37:23.762Z</time></trkpt><trkpt lat="43.5604767" lon="11.3705614"><ele>803.8333333333334</ele><time>2026-03-22T08:37:24.761Z</time></trkpt><trkpt lat="43.5605481" lon="11.3704402"><ele>801.6666666666667</ele><time>2026-03-22T08:37:26.763Z</time></trkpt><trkpt lat="43.5606114" lon="11.370421"><ele>799.5</ele><time>2026-03-22T08:37:27.762Z</time></trkpt><trkpt lat="43.5606929" lon="11.3704351"><ele>797.3333333333333</ele><time>2026-03-22T08:37:28.761Z</time></trkpt><trkpt lat="43.5607583" lon="11.3704285"><ele>795.1666666666666</ele><time>2026-03-22T08:37:29.761Z</time></trkpt><trkpt lat="43.5608115" lon="11.3703723"><ele>793.0</ele><time>2026-03-22T08:37:30.761Z</time></trkpt><trkpt lat="43.5608541" lon="11.3702496"><ele>792.9999999999999</ele><time>2026-03-22T08:37:32.762Z</time></trkpt><trkpt lat="43.5608485" lon="11.3701508"><ele>793.0</ele><time>2026-03-22T08:37:33.762Z</time></trkpt><trkpt lat="43.5608065" lon="11.3700179"><ele>793.0</ele><time>2026-03-22T08:37:34.761Z</time></trkpt><trkpt lat="43.5607812" lon="11.3698963"><ele>793.0</ele><time>2026-03-22T08:37:35.762Z</time></trkpt><trkpt lat="43.5607678" lon="11.3698014"><ele>792.9999999999999</ele><time>2026-03-22T08:37:36.761Z</time></trkpt><trkpt lat="43.5608181" lon="11.3696841"><ele>793.0</ele><time>2026-03-22T08:37:38.761Z</time></trkpt><trkpt lat="43.5608479" lon="11.3696066"><ele>791.4999999999999</ele><time>2026-03-22T08:37:39.761Z</time></trkpt><trkpt lat="43.560877" lon="11.3695231"><ele>790.0</ele><time>2026-03-22T08:37:40.762Z</time></trkpt><trkpt lat="43.5609147" lon="11.3694415"><ele>788.5</ele><time>2026-03-22T08:37:41.762Z</time></trkpt><trkpt lat="43.5609764" lon="11.369392"><ele>787.0</ele><time>2026-03-22T08:37:42.762Z</time></trkpt><trkpt lat="43.5609841" lon="11.3692263"><ele>785.4999999999999</ele><time>2026-03-22T08:37:44.761Z</time></trkpt><trkpt lat="43.5609624" lon="11.3691392"><ele>784.0</ele><time>2026-03-22T08:37:45.763Z</time></trkpt><trkpt lat="43.5609403" lon="11.3690277"><ele>783.9999999999999</ele><time>2026-03-22T08:37:46.761Z</time></trkpt><trkpt lat="43.56092" lon="11.3689025"><ele>784.0</ele><time>2026-03-22T08:37:47.762Z</time></trkpt><trkpt lat="43.5608975" lon="11.3687727"><ele>784.0</ele><time>2026-03-22T08:37:48.761Z</time></trkpt><trkpt lat="43.560879" lon="11.3686658"><ele>784.0</ele><time>2026-03-22T08:37:49.762Z</time></trkpt><trkpt lat="43.5608604" lon="11.368571"><ele>783.9999999999999</ele><time>2026-03-22T08:37:50.762Z</time></trkpt><trkpt lat="43.5607952" lon="11.3685172"><ele>784.0</ele><time>2026-03-22T08:38:04.763Z</time></trkpt><trkpt lat="43.5607154" lon="11.3685575"><ele>782.4000000000001</ele><time>2026-03-22T08:38:07.763Z</time></trkpt><trkpt lat="43.5606157" lon="11.3685207"><ele>780.8</ele><time>2026-03-22T08:38:08.763Z</time></trkpt><trkpt lat="43.5605292" lon="11.368551"><ele>779.2</ele><time>2026-03-22T08:38:09.763Z</time></trkpt><trkpt lat="43.5604363" lon="11.3685876"><ele>777.5999999999999</ele><time>2026-03-22T08:38:10.762Z</time></trkpt><trkpt lat="43.5603506" lon="11.3686252"><ele>776.0</ele><time>2026-03-22T08:38:11.762Z</time></trkpt><trkpt lat="43.5602599" lon="11.3686522"><ele>777.4</ele><time>2026-03-22T08:38:12.763Z</time></trkpt><trkpt lat="43.5601789" lon="11.3686759"><ele>778.8</ele><time>2026-03-22T08:38:13.762Z</time></trkpt><trkpt lat="43.56008" lon="11.3687135"><ele>780.1999999999999</ele><time>2026-03-22T08:38:15.762Z</time></trkpt><trkpt lat="43.5599791" lon="11.3688081"><ele>781.5999999999999</ele><time>2026-03-22T08:38:17.763Z</time></trkpt><trkpt lat="43.5598811" lon="11.3689029"><ele>783.0</ele><time>2026-03-22T08:38:18.762Z</time></trkpt><trkpt lat="43.5597972" lon="11.3689545"><ele>783.0</ele><time>2026-03-22T08:38:19.762Z</time></trkpt><trkpt lat="43.5597196" lon="11.3689765"><ele>783.0</ele><time>2026-03-22T08:38:20.763Z</time></trkpt><trkpt lat="43.5596345" lon="11.3689958"><ele>783.0</ele><time>2026-03-22T08:38:21.762Z</time></trkpt><trkpt lat="43.5595478" lon="11.3690124"><ele>783.0</ele><time>2026-03-22T08:38:22.763Z</time></trkpt><trkpt lat="43.5594564" lon="11.369033"><ele>783.0</ele><time>2026-03-22T08:38:23.763Z</time></trkpt><trkpt lat="43.5593708" lon="11.3690617"><ele>783.0</ele><time>2026-03-22T08:38:24.763Z</time></trkpt><trkpt lat="43.5593051" lon="11.3691305"><ele>780.5999999999999</ele><time>2026-03-22T08:38:25.763Z</time></trkpt><trkpt lat="43.5592156" lon="11.3691928"><ele>778.1999999999999</ele><time>2026-03-22T08:38:26.762Z</time></trkpt><trkpt lat="43.5591523" lon="11.3692514"><ele>775.8</ele><time>2026-03-22T08:38:27.762Z</time></trkpt><trkpt lat="43.5591623" lon="11.3693435"><ele>773.4</ele><time>2026-03-22T08:38:28.764Z</time></trkpt><trkpt lat="43.5590953" lon="11.3694245"><ele>771.0</ele><time>2026-03-22T08:38:30.762Z</time></trkpt><trkpt lat="43.5589731" lon="11.3694048"><ele>771.0</ele><time>2026-03-22T08:38:32.763Z</time></trkpt><trkpt lat="43.5588575" lon="11.3692236"><ele>771.0</ele><time>2026-03-22T08:38:34.763Z</time></trkpt><trkpt lat="43.5588173" lon="11.3691136"><ele>771.0</ele><time>2026-03-22T08:38:35.762Z</time></trkpt><trkpt lat="43.5587626" lon="11.3689876"><ele>771.0</ele><time>2026-03-22T08:38:36.764Z</time></trkpt><trkpt lat="43.5587132" lon="11.3688688"><ele>768.8333333333334</ele><time>2026-03-22T08:38:37.763Z</time></trkpt><trkpt lat="43.5586787" lon="11.3687638"><ele>766.6666666666666</ele><time>2026-03-22T08:38:38.762Z</time></trkpt><trkpt lat="43.5586048" lon="11.3687313"><ele>764.5</ele><time>2026-03-22T08:38:39.762Z</time></trkpt><trkpt lat="43.5585393" lon="11.3686514"><ele>762.3333333333333</ele><time>2026-03-22T08:38:40.763Z</time></trkpt><trkpt lat="43.5584772" lon="11.3685849"><ele>760.1666666666666</ele><time>2026-03-22T08:38:41.762Z</time></trkpt><trkpt lat="43.5584199" lon="11.3685197"><ele>758.0</ele><time>2026-03-22T08:38:42.762Z</time></trkpt><trkpt lat="43.5583597" lon="11.3684673"><ele>758.0</ele><time>2026-03-22T08:38:43.762Z</time></trkpt><trkpt lat="43.5583031" lon="11.3684149"><ele>758.0</ele><time>2026-03-22T08:38:44.762Z</time></trkpt><trkpt lat="43.5582345" lon="11.3683764"><ele>758.0</ele><time>2026-03-22T08:38:45.763Z</time></trkpt><trkpt lat="43.5581728" lon="11.3683376"><ele>758.0</ele><time>2026-03-22T08:38:46.762Z</time></trkpt><trkpt lat="43.5580866" lon="11.3684327"><ele>758.0</ele><time>2026-03-22T08:38:48.763Z</time></trkpt><trkpt lat="43.55806" lon="11.3685243"><ele>758.0</ele><time>2026-03-22T08:38:49.763Z</time></trkpt><trkpt lat="43.5580231" lon="11.3686115"><ele>758.0</ele><time>2026-03-22T08:38:50.763Z</time></trkpt><trkpt lat="43.5580196" lon="11.3686998"><ele>758.0</ele><time>2026-03-22T08:38:51.763Z</time></trkpt><trkpt lat="43.5580163" lon="11.3688004"><ele>758.0</ele><time>2026-03-22T08:38:52.763Z</time></trkpt><trkpt lat="43.5580168" lon="11.3689673"><ele>758.0</ele><time>2026-03-22T08:38:54.763Z</time></trkpt><trkpt lat="43.5579494" lon="11.3690948"><ele>758.0</ele><time>2026-03-22T08:38:56.764Z</time></trkpt><trkpt lat="43.5578223" lon="11.3691333"><ele>758.1666666666666</ele><time>2026-03-22T08:38:57.763Z</time></trkpt><trkpt lat="43.5577456" lon="11.3691589"><ele>758.3333333333333</ele><time>2026-03-22T08:38:58.763Z</time></trkpt><trkpt lat="43.5576565" lon="11.3691589"><ele>758.5</ele><time>2026-03-22T08:39:00.763Z</time></trkpt><trkpt lat="43.5575811" lon="11.3691339"><ele>758.6666666666666</ele><time>2026-03-22T08:39:02.762Z</time></trkpt><trkpt lat="43.5575107" lon="11.3691014"><ele>758.8333333333334</ele><time>2026-03-22T08:39:03.763Z</time></trkpt><trkpt lat="43.5574378" lon="11.3690694"><ele>759.0</ele><time>2026-03-22T08:39:04.762Z</time></trkpt><trkpt lat="43.5573654" lon="11.3690317"><ele>759.0</ele><time>2026-03-22T08:39:05.762Z</time></trkpt><trkpt lat="43.5572891" lon="11.3689966"><ele>759.0</ele><time>2026-03-22T08:39:06.763Z</time></trkpt><trkpt lat="43.5572129" lon="11.3689631"><ele>759.0</ele><time>2026-03-22T08:39:07.763Z</time></trkpt><trkpt lat="43.5571312" lon="11.3689339"><ele>759.0</ele><time>2026-03-22T08:39:08.764Z</time></trkpt><trkpt lat="43.5570134" lon="11.3689427"><ele>759.0</ele><time>2026-03-22T08:39:09.762Z</time></trkpt><trkpt lat="43.5569036" lon="11.3689394"><ele>758.8333333333334</ele><time>2026-03-22T08:39:10.762Z</time></trkpt><trkpt lat="43.5568079" lon="11.368951"><ele>758.6666666666666</ele><time>2026-03-22T08:39:11.762Z</time></trkpt><trkpt lat="43.556715" lon="11.3689556"><ele>758.5</ele><time>2026-03-22T08:39:12.762Z</time></trkpt><trkpt lat="43.5566434" lon="11.3689864"><ele>758.3333333333333</ele><time>2026-03-22T08:39:13.763Z</time></trkpt><trkpt lat="43.5565688" lon="11.3690187"><ele>758.1666666666666</ele><time>2026-03-22T08:39:14.763Z</time></trkpt><trkpt lat="43.556477" lon="11.3689967"><ele>758.0</ele><time>2026-03-22T08:39:15.763Z</time></trkpt><trkpt lat="43.5563722" lon="11.3689443"><ele>758.0</ele><time>2026-03-22T08:39:16.762Z</time></trkpt><trkpt lat="43.5562805" lon="11.3689284"><ele>758.0</ele><time>2026-03-22T08:39:17.762Z</time></trkpt><trkpt lat="43.556215" lon="11.3689034"><ele>758.0</ele><time>2026-03-22T08:39:18.763Z</time></trkpt><trkpt lat="43.5561405" lon="11.368871"><ele>758.0</ele><time>2026-03-22T08:39:19.763Z</time></trkpt><trkpt lat="43.5560765" lon="11.3688113"><ele>758.0</ele><time>2026-03-22T08:39:20.763Z</time></trkpt><trkpt lat="43.5560226" lon="11.3687482"><ele>758.0</ele><time>2026-03-22T08:39:21.762Z</time></trkpt><trkpt lat="43.5559608" lon="11.3687036"><ele>753.5</ele><time>2026-03-22T08:39:22.762Z</time></trkpt><trkpt lat="43.5558873" lon="11.3686429"><ele>749.0</ele><time>2026-03-22T08:39:23.762Z</time></trkpt><trkpt lat="43.5558022" lon="11.3686171"><ele>744.5</ele><time>2026-03-22T08:39:24.762Z</time></trkpt><trkpt lat="43.5557251" lon="11.3685989"><ele>740.0</ele><time>2026-03-22T08:39:25.762Z</time></trkpt><trkpt lat="43.5556424" lon="11.3685743"><ele>735.5</ele><time>2026-03-22T08:39:26.762Z</time></trkpt><trkpt lat="43.5555462" lon="11.3685365"><ele>731.0</ele><time>2026-03-22T08:39:27.763Z</time></trkpt><trkpt lat="43.5554408" lon="11.368509"><ele>729.6666666666666</ele><time>2026-03-22T08:39:28.763Z</time></trkpt><trkpt lat="43.5553419" lon="11.3685043"><ele>728.3333333333333</ele><time>2026-03-22T08:39:29.762Z</time></trkpt><trkpt lat="43.5552618" lon="11.3684792"><ele>727.0</ele><time>2026-03-22T08:39:30.762Z</time></trkpt><trkpt lat="43.5551846" lon="11.3684431"><ele>725.6666666666666</ele><time>2026-03-22T08:39:31.763Z</time></trkpt><trkpt lat="43.5551141" lon="11.3684058"><ele>724.3333333333334</ele><time>2026-03-22T08:39:32.763Z</time></trkpt><trkpt lat="43.5550334" lon="11.368368"><ele>723.0</ele><time>2026-03-22T08:39:33.763Z</time></trkpt><trkpt lat="43.554958" lon="11.3683276"><ele>723.0</ele><time>2026-03-22T08:39:34.764Z</time></trkpt><trkpt lat="43.5548884" lon="11.3683051"><ele>723.0</ele><time>2026-03-22T08:39:35.764Z</time></trkpt><trkpt lat="43.5548138" lon="11.3682886"><ele>723.0</ele><time>2026-03-22T08:39:36.762Z</time></trkpt><trkpt lat="43.5547295" lon="11.3682656"><ele>723.0</ele><time>2026-03-22T08:39:37.762Z</time></trkpt><trkpt lat="43.5546504" lon="11.3682564"><ele>723.0</ele><time>2026-03-22T08:39:38.763Z</time></trkpt><trkpt lat="43.5545747" lon="11.3682352"><ele>723.0</ele><time>2026-03-22T08:39:39.763Z</time></trkpt><trkpt lat="43.5544947" lon="11.3682201"><ele>719.1666666666666</ele><time>2026-03-22T08:39:40.762Z</time></trkpt><trkpt lat="43.5544314" lon="11.368204"><ele>715.3333333333334</ele><time>2026-03-22T08:39:41.764Z</time></trkpt><trkpt lat="43.554369" lon="11.3681757"><ele>711.5</ele><time>2026-03-22T08:39:42.762Z</time></trkpt><trkpt lat="43.5542773" lon="11.3680525"><ele>707.6666666666667</ele><time>2026-03-22T08:39:44.763Z</time></trkpt><trkpt lat="43.554241" lon="11.3679781"><ele>703.8333333333334</ele><time>2026-03-22T08:39:45.763Z</time></trkpt><trkpt lat="43.5542024" lon="11.3678984"><ele>700.0</ele><time>2026-03-22T08:39:46.764Z</time></trkpt><trkpt lat="43.5541255" lon="11.3677759"><ele>699.3333333333334</ele><time>2026-03-22T08:39:48.763Z</time></trkpt><trkpt lat="43.5540654" lon="11.3677445"><ele>698.6666666666667</ele><time>2026-03-22T08:39:49.763Z</time></trkpt><trkpt lat="43.5540368" lon="11.367634"><ele>698.0</ele><time>2026-03-22T08:39:51.762Z</time></trkpt><trkpt lat="43.554094" lon="11.3675093"><ele>697.3333333333334</ele><time>2026-03-22T08:39:53.762Z</time></trkpt><trkpt lat="43.5541452" lon="11.3674274"><ele>696.6666666666666</ele><time>2026-03-22T08:39:54.762Z</time></trkpt><trkpt lat="43.5542031" lon="11.3673451"><ele>696.0</ele><time>2026-03-22T08:39:55.763Z</time></trkpt><trkpt lat="43.554262" lon="11.3672686"><ele>693.8</ele><time>2026-03-22T08:39:56.762Z</time></trkpt><trkpt lat="43.5543366" lon="11.3671907"><ele>691.5999999999999</ele><time>2026-03-22T08:39:57.763Z</time></trkpt><trkpt lat="43.5544184" lon="11.3671223"><ele>689.4</ele><time>2026-03-22T08:39:58.763Z</time></trkpt><trkpt lat="43.5545025" lon="11.3670505"><ele>687.2</ele><time>2026-03-22T08:39:59.762Z</time></trkpt><trkpt lat="43.5545882" lon="11.3669799"><ele>685.0</ele><time>2026-03-22T08:40:00.762Z</time></trkpt><trkpt lat="43.5546776" lon="11.3669048"><ele>685.0</ele><time>2026-03-22T08:40:01.763Z</time></trkpt><trkpt lat="43.5547691" lon="11.3668283"><ele>685.0</ele><time>2026-03-22T08:40:02.762Z</time></trkpt><trkpt lat="43.5548619" lon="11.3667523"><ele>685.0</ele><time>2026-03-22T08:40:03.763Z</time></trkpt><trkpt lat="43.5549507" lon="11.3666744"><ele>685.0</ele><time>2026-03-22T08:40:04.763Z</time></trkpt><trkpt lat="43.5550387" lon="11.3666013"><ele>685.0</ele><time>2026-03-22T08:40:05.764Z</time></trkpt><trkpt lat="43.5551156" lon="11.3665228"><ele>685.0</ele><time>2026-03-22T08:40:06.764Z</time></trkpt><trkpt lat="43.555189" lon="11.3664374"><ele>685.0</ele><time>2026-03-22T08:40:07.763Z</time></trkpt><trkpt lat="43.5552651" lon="11.3663446"><ele>685.0</ele><time>2026-03-22T08:40:08.763Z</time></trkpt><trkpt lat="43.5553453" lon="11.3662511"><ele>685.0</ele><time>2026-03-22T08:40:09.762Z</time></trkpt><trkpt lat="43.5554288" lon="11.3661558"><ele>685.0</ele><time>2026-03-22T08:40:10.763Z</time></trkpt><trkpt lat="43.5555087" lon="11.3660579"><ele>684.6666666666667</ele><time>2026-03-22T08:40:11.763Z</time></trkpt><trkpt lat="43.5555837" lon="11.3659666"><ele>684.3333333333334</ele><time>2026-03-22T08:40:12.763Z</time></trkpt><trkpt lat="43.5556548" lon="11.3658776"><ele>684.0</ele><time>2026-03-22T08:40:13.764Z</time></trkpt><trkpt lat="43.5557269" lon="11.3657843"><ele>683.6666666666666</ele><time>2026-03-22T08:40:14.763Z</time></trkpt><trkpt lat="43.5557937" lon="11.3657129"><ele>683.3333333333333</ele><time>2026-03-22T08:40:15.763Z</time></trkpt><trkpt lat="43.5558555" lon="11.3656681"><ele>683.0</ele><time>2026-03-22T08:40:16.763Z</time></trkpt><trkpt lat="43.5558996" lon="11.3655916"><ele>680.0</ele><time>2026-03-22T08:40:17.763Z</time></trkpt><trkpt lat="43.5559321" lon="11.3655085"><ele>677.0</ele><time>2026-03-22T08:40:18.762Z</time></trkpt><trkpt lat="43.5559032" lon="11.3653688"><ele>674.0</ele><time>2026-03-22T08:40:20.762Z</time></trkpt><trkpt lat="43.555817" lon="11.3653352"><ele>671.0</ele><time>2026-03-22T08:40:22.764Z</time></trkpt><trkpt lat="43.5557544" lon="11.3653571"><ele>668.0</ele><time>2026-03-22T08:40:23.763Z</time></trkpt><trkpt lat="43.5556837" lon="11.3653753"><ele>665.0</ele><time>2026-03-22T08:40:24.763Z</time></trkpt><trkpt lat="43.5556159" lon="11.3654445"><ele>665.0</ele><time>2026-03-22T08:40:25.762Z</time></trkpt><trkpt lat="43.5555575" lon="11.3655243"><ele>665.0</ele><time>2026-03-22T08:40:26.764Z</time></trkpt><trkpt lat="43.5554931" lon="11.3655987"><ele>665.0</ele><time>2026-03-22T08:40:27.763Z</time></trkpt><trkpt lat="43.5554195" lon="11.3656449"><ele>665.0</ele><time>2026-03-22T08:40:28.762Z</time></trkpt><trkpt lat="43.5553342" lon="11.3656803"><ele>665.0</ele><time>2026-03-22T08:40:29.763Z</time></trkpt><trkpt lat="43.5552378" lon="11.3656912"><ele>665.0</ele><time>2026-03-22T08:40:30.762Z</time></trkpt><trkpt lat="43.5551537" lon="11.3656727"><ele>665.6</ele><time>2026-03-22T08:40:31.763Z</time></trkpt><trkpt lat="43.5550729" lon="11.3656796"><ele>666.2</ele><time>2026-03-22T08:40:32.762Z</time></trkpt><trkpt lat="43.5549875" lon="11.3657179"><ele>666.8</ele><time>2026-03-22T08:40:33.762Z</time></trkpt><trkpt lat="43.5549085" lon="11.3657769"><ele>667.4</ele><time>2026-03-22T08:40:34.763Z</time></trkpt><trkpt lat="43.5548132" lon="11.3658664"><ele>668.0</ele><time>2026-03-22T08:40:35.762Z</time></trkpt><trkpt lat="43.5547125" lon="11.3659626"><ele>668.0</ele><time>2026-03-22T08:40:36.762Z</time></trkpt><trkpt lat="43.5546116" lon="11.3660661"><ele>668.0</ele><time>2026-03-22T08:40:37.763Z</time></trkpt><trkpt lat="43.5545197" lon="11.3661649"><ele>668.0</ele><time>2026-03-22T08:40:38.762Z</time></trkpt><trkpt lat="43.5544345" lon="11.366244"><ele>668.0</ele><time>2026-03-22T08:40:39.763Z</time></trkpt><trkpt lat="43.5543604" lon="11.3663158"><ele>668.0</ele><time>2026-03-22T08:40:40.764Z</time></trkpt><trkpt lat="43.5542866" lon="11.3663854"><ele>669.0</ele><time>2026-03-22T08:40:41.763Z</time></trkpt><trkpt lat="43.554207" lon="11.3664382"><ele>670.0</ele><time>2026-03-22T08:40:42.762Z</time></trkpt><trkpt lat="43.554121" lon="11.3664789"><ele>671.0</ele><time>2026-03-22T08:40:43.763Z</time></trkpt><trkpt lat="43.5540269" lon="11.3665208"><ele>672.0</ele><time>2026-03-22T08:40:44.762Z</time></trkpt><trkpt lat="43.5539318" lon="11.3665578"><ele>673.0</ele><time>2026-03-22T08:40:45.763Z</time></trkpt><trkpt lat="43.5538328" lon="11.3665806"><ele>673.0</ele><time>2026-03-22T08:40:46.763Z</time></trkpt><trkpt lat="43.553731" lon="11.3665216"><ele>673.0</ele><time>2026-03-22T08:40:47.763Z</time></trkpt><trkpt lat="43.5536293" lon="11.3664955"><ele>673.0</ele><time>2026-03-22T08:40:48.763Z</time></trkpt><trkpt lat="43.5535348" lon="11.3664643"><ele>673.0</ele><time>2026-03-22T08:40:49.763Z</time></trkpt><trkpt lat="43.5534411" lon="11.3664339"><ele>673.0</ele><time>2026-03-22T08:40:50.763Z</time></trkpt><trkpt lat="43.5533827" lon="11.3663868"><ele>667.8571428571429</ele><time>2026-03-22T08:40:51.763Z</time></trkpt><trkpt lat="43.5533345" lon="11.3663221"><ele>662.7142857142857</ele><time>2026-03-22T08:40:52.763Z</time></trkpt><trkpt lat="43.5533187" lon="11.3662302"><ele>657.5714285714286</ele><time>2026-03-22T08:40:53.763Z</time></trkpt><trkpt lat="43.5533307" lon="11.366131"><ele>652.4285714285714</ele><time>2026-03-22T08:40:54.762Z</time></trkpt><trkpt lat="43.5533644" lon="11.3660369"><ele>647.2857142857142</ele><time>2026-03-22T08:40:55.763Z</time></trkpt><trkpt lat="43.5534046" lon="11.3659501"><ele>642.1428571428571</ele><time>2026-03-22T08:40:56.763Z</time></trkpt><trkpt lat="43.5534601" lon="11.3658758"><ele>637.0</ele><time>2026-03-22T08:40:57.763Z</time></trkpt><trkpt lat="43.5535194" lon="11.3658311"><ele>637.0</ele><time>2026-03-22T08:40:58.762Z</time></trkpt><trkpt lat="43.5536244" lon="11.3658043"><ele>637.0</ele><time>2026-03-22T08:41:00.764Z</time></trkpt><trkpt lat="43.5537016" lon="11.3657864"><ele>637.0</ele><time>2026-03-22T08:41:02.763Z</time></trkpt><trkpt lat="43.5537171" lon="11.3656979"><ele>637.0</ele><time>2026-03-22T08:41:06.763Z</time></trkpt><trkpt lat="43.5536483" lon="11.365693"><ele>637.0</ele><time>2026-03-22T08:41:08.763Z</time></trkpt><trkpt lat="43.5535232" lon="11.3656775"><ele>637.0</ele><time>2026-03-22T08:41:10.764Z</time></trkpt><trkpt lat="43.5533951" lon="11.3656533"><ele>637.0</ele><time>2026-03-22T08:41:12.763Z</time></trkpt><trkpt lat="43.5533102" lon="11.3656342"><ele>637.0</ele><time>2026-03-22T08:41:13.763Z</time></trkpt><trkpt lat="43.5532342" lon="11.3655932"><ele>637.0</ele><time>2026-03-22T08:41:14.763Z</time></trkpt><trkpt lat="43.5531495" lon="11.3655786"><ele>637.0</ele><time>2026-03-22T08:41:15.762Z</time></trkpt><trkpt lat="43.5530631" lon="11.3656089"><ele>637.0</ele><time>2026-03-22T08:41:16.763Z</time></trkpt><trkpt lat="43.5529897" lon="11.3656322"><ele>637.0</ele><time>2026-03-22T08:41:17.763Z</time></trkpt><trkpt lat="43.5529123" lon="11.3656417"><ele>635.1666666666667</ele><time>2026-03-22T08:41:18.763Z</time></trkpt><trkpt lat="43.5528359" lon="11.3656641"><ele>633.3333333333334</ele><time>2026-03-22T08:41:19.763Z</time></trkpt><trkpt lat="43.5527527" lon="11.3656828"><ele>631.5</ele><time>2026-03-22T08:41:20.763Z</time></trkpt><trkpt lat="43.5526761" lon="11.3657202"><ele>629.6666666666666</ele><time>2026-03-22T08:41:21.763Z</time></trkpt><trkpt lat="43.5526117" lon="11.3657633"><ele>627.8333333333333</ele><time>2026-03-22T08:41:22.763Z</time></trkpt><trkpt lat="43.5525514" lon="11.3658193"><ele>626.0</ele><time>2026-03-22T08:41:23.763Z</time></trkpt><trkpt lat="43.5524995" lon="11.3658892"><ele>626.0</ele><time>2026-03-22T08:41:24.762Z</time></trkpt><trkpt lat="43.5524478" lon="11.3659749"><ele>626.0</ele><time>2026-03-22T08:41:25.763Z</time></trkpt><trkpt lat="43.5523922" lon="11.366069"><ele>626.0</ele><time>2026-03-22T08:41:26.763Z</time></trkpt><trkpt lat="43.5523296" lon="11.366155"><ele>626.0</ele><time>2026-03-22T08:41:27.763Z</time></trkpt><trkpt lat="43.552254" lon="11.366209"><ele>626.0</ele><time>2026-03-22T08:41:28.762Z</time></trkpt><trkpt lat="43.5521728" lon="11.3662474"><ele>626.0</ele><time>2026-03-22T08:41:29.763Z</time></trkpt><trkpt lat="43.552096" lon="11.3662608"><ele>626.0</ele><time>2026-03-22T08:41:30.763Z</time></trkpt><trkpt lat="43.5520268" lon="11.3662765"><ele>626.0</ele><time>2026-03-22T08:41:31.763Z</time></trkpt><trkpt lat="43.5519111" lon="11.3663212"><ele>626.0</ele><time>2026-03-22T08:41:33.762Z</time></trkpt><trkpt lat="43.5518357" lon="11.3663728"><ele>626.0</ele><time>2026-03-22T08:41:35.764Z</time></trkpt><trkpt lat="43.5517635" lon="11.3664392"><ele>626.0</ele><time>2026-03-22T08:41:37.763Z</time></trkpt><trkpt lat="43.5517275" lon="11.3665303"><ele>626.0</ele><time>2026-03-22T08:41:38.763Z</time></trkpt><trkpt lat="43.5516772" lon="11.3665962"><ele>626.0</ele><time>2026-03-22T08:41:39.763Z</time></trkpt><trkpt lat="43.5516334" lon="11.3666658"><ele>626.0</ele><time>2026-03-22T08:41:40.762Z</time></trkpt><trkpt lat="43.5515783" lon="11.3667451"><ele>626.0</ele><time>2026-03-22T08:41:41.763Z</time></trkpt><trkpt lat="43.5515307" lon="11.3668223"><ele>626.0</ele><time>2026-03-22T08:41:42.762Z</time></trkpt><trkpt lat="43.5514898" lon="11.3668969"><ele>626.0</ele><time>2026-03-22T08:41:43.762Z</time></trkpt><trkpt lat="43.5514367" lon="11.3670216"><ele>626.0</ele><time>2026-03-22T08:41:45.764Z</time></trkpt><trkpt lat="43.5513638" lon="11.3671109"><ele>625.5</ele><time>2026-03-22T08:41:47.762Z</time></trkpt><trkpt lat="43.5513199" lon="11.3672482"><ele>625.0</ele><time>2026-03-22T08:41:49.763Z</time></trkpt><trkpt lat="43.5512758" lon="11.3673232"><ele>624.5</ele><time>2026-03-22T08:41:50.763Z</time></trkpt><trkpt lat="43.5512305" lon="11.3674054"><ele>624.0</ele><time>2026-03-22T08:41:51.763Z</time></trkpt><trkpt lat="43.5511789" lon="11.3674814"><ele>623.5</ele><time>2026-03-22T08:41:52.762Z</time></trkpt><trkpt lat="43.5511168" lon="11.3675516"><ele>623.0</ele><time>2026-03-22T08:41:53.762Z</time></trkpt><trkpt lat="43.5510646" lon="11.3676113"><ele>623.0</ele><time>2026-03-22T08:41:54.762Z</time></trkpt><trkpt lat="43.5510098" lon="11.3676606"><ele>623.0</ele><time>2026-03-22T08:41:55.763Z</time></trkpt><trkpt lat="43.5509131" lon="11.3677424"><ele>623.0</ele><time>2026-03-22T08:41:57.764Z</time></trkpt><trkpt lat="43.5508228" lon="11.367828"><ele>623.0</ele><time>2026-03-22T08:41:59.763Z</time></trkpt><trkpt lat="43.5507448" lon="11.367874"><ele>623.0</ele><time>2026-03-22T08:42:01.762Z</time></trkpt><trkpt lat="43.550649" lon="11.3678817"><ele>623.0</ele><time>2026-03-22T08:42:04.763Z</time></trkpt><trkpt lat="43.5505789" lon="11.3679015"><ele>623.0</ele><time>2026-03-22T08:42:06.763Z</time></trkpt><trkpt lat="43.5505253" lon="11.3679493"><ele>623.0</ele><time>2026-03-22T08:42:07.763Z</time></trkpt><trkpt lat="43.5504414" lon="11.368014"><ele>623.0</ele><time>2026-03-22T08:42:09.762Z</time></trkpt><trkpt lat="43.5503891" lon="11.3680957"><ele>623.0</ele><time>2026-03-22T08:42:11.764Z</time></trkpt><trkpt lat="43.550412" lon="11.3681833"><ele>623.0</ele><time>2026-03-22T08:42:31.764Z</time></trkpt><trkpt lat="43.5503667" lon="11.3682731"><ele>626.3333333333333</ele><time>2026-03-22T08:42:38.764Z</time></trkpt><trkpt lat="43.550343" lon="11.3683766"><ele>629.6666666666666</ele><time>2026-03-22T08:42:41.764Z</time></trkpt><trkpt lat="43.5503212" lon="11.368493"><ele>633.0</ele><time>2026-03-22T08:42:50.764Z</time></trkpt><trkpt lat="43.5502929" lon="11.3685908"><ele>636.3333333333334</ele><time>2026-03-22T08:42:52.763Z</time></trkpt><trkpt lat="43.5502502" lon="11.368663"><ele>639.6666666666667</ele><time>2026-03-22T08:42:54.763Z</time></trkpt><trkpt lat="43.5501801" lon="11.3687626"><ele>643.0</ele><time>2026-03-22T08:42:57.764Z</time></trkpt><trkpt lat="43.5501261" lon="11.368833"><ele>645.1666666666667</ele><time>2026-03-22T08:42:59.764Z</time></trkpt><trkpt lat="43.5500757" lon="11.3689059"><ele>647.3333333333334</ele><time>2026-03-22T08:43:02.763Z</time></trkpt><trkpt lat="43.5500188" lon="11.3689484"><ele>649.5</ele><time>2026-03-22T08:43:04.764Z</time></trkpt><trkpt lat="43.5499468" lon="11.3690026"><ele>651.6666666666666</ele><time>2026-03-22T08:43:06.763Z</time></trkpt><trkpt lat="43.5498744" lon="11.368978"><ele>653.8333333333333</ele><time>2026-03-22T08:43:22.763Z</time></trkpt><trkpt lat="43.5497973" lon="11.3689505"><ele>656.0</ele><time>2026-03-22T08:43:25.764Z</time></trkpt><trkpt lat="43.5497009" lon="11.3688721"><ele>656.0</ele><time>2026-03-22T08:43:27.764Z</time></trkpt><trkpt lat="43.5496254" lon="11.3688475"><ele>656.0</ele><time>2026-03-22T08:43:28.763Z</time></trkpt><trkpt lat="43.5495364" lon="11.3687473"><ele>656.0</ele><time>2026-03-22T08:43:30.763Z</time></trkpt><trkpt lat="43.5494829" lon="11.3687015"><ele>656.0</ele><time>2026-03-22T08:43:31.765Z</time></trkpt><trkpt lat="43.5494359" lon="11.3686428"><ele>656.0</ele><time>2026-03-22T08:43:32.764Z</time></trkpt><trkpt lat="43.5493619" lon="11.3685211"><ele>656.0</ele><time>2026-03-22T08:43:34.764Z</time></trkpt><trkpt lat="43.5493158" lon="11.3684239"><ele>656.0</ele><time>2026-03-22T08:43:36.763Z</time></trkpt><trkpt lat="43.5492204" lon="11.3684002"><ele>656.0</ele><time>2026-03-22T08:43:38.763Z</time></trkpt><trkpt lat="43.5490844" lon="11.3683673"><ele>656.0</ele><time>2026-03-22T08:43:40.763Z</time></trkpt><trkpt lat="43.5489856" lon="11.3683854"><ele>656.0</ele><time>2026-03-22T08:43:41.764Z</time></trkpt><trkpt lat="43.5488956" lon="11.3683964"><ele>656.0</ele><time>2026-03-22T08:43:42.764Z</time></trkpt><trkpt lat="43.5488143" lon="11.3684047"><ele>657.4</ele><time>2026-03-22T08:43:43.764Z</time></trkpt><trkpt lat="43.5486773" lon="11.368429"><ele>658.8</ele><time>2026-03-22T08:43:45.764Z</time></trkpt><trkpt lat="43.548607" lon="11.3684532"><ele>660.1999999999999</ele><time>2026-03-22T08:43:46.763Z</time></trkpt><trkpt lat="43.5485294" lon="11.3684703"><ele>661.5999999999999</ele><time>2026-03-22T08:43:47.763Z</time></trkpt><trkpt lat="43.5484555" lon="11.3684934"><ele>663.0</ele><time>2026-03-22T08:43:48.764Z</time></trkpt><trkpt lat="43.5483356" lon="11.3685835"><ele>663.0</ele><time>2026-03-22T08:43:50.764Z</time></trkpt><trkpt lat="43.5482662" lon="11.3686237"><ele>663.0</ele><time>2026-03-22T08:43:51.764Z</time></trkpt><trkpt lat="43.5482071" lon="11.3686714"><ele>663.0</ele><time>2026-03-22T08:43:52.763Z</time></trkpt><trkpt lat="43.5481383" lon="11.368799"><ele>663.0</ele><time>2026-03-22T08:43:54.765Z</time></trkpt><trkpt lat="43.5481133" lon="11.3689462"><ele>663.0</ele><time>2026-03-22T08:43:56.763Z</time></trkpt><trkpt lat="43.5481368" lon="11.3690287"><ele>663.0</ele><time>2026-03-22T08:43:57.763Z</time></trkpt><trkpt lat="43.5481657" lon="11.3691066"><ele>666.2</ele><time>2026-03-22T08:43:58.764Z</time></trkpt><trkpt lat="43.5482618" lon="11.3692305"><ele>669.4</ele><time>2026-03-22T08:44:00.765Z</time></trkpt><trkpt lat="43.5483208" lon="11.3693176"><ele>672.6</ele><time>2026-03-22T08:44:01.763Z</time></trkpt><trkpt lat="43.5483731" lon="11.3694056"><ele>675.8000000000001</ele><time>2026-03-22T08:44:02.764Z</time></trkpt><trkpt lat="43.548413" lon="11.3694951"><ele>679.0</ele><time>2026-03-22T08:44:03.763Z</time></trkpt><trkpt lat="43.5484564" lon="11.3695822"><ele>681.8333333333334</ele><time>2026-03-22T08:44:04.763Z</time></trkpt><trkpt lat="43.5484911" lon="11.3696971"><ele>684.6666666666667</ele><time>2026-03-22T08:44:05.764Z</time></trkpt><trkpt lat="43.5485196" lon="11.3697891"><ele>687.5</ele><time>2026-03-22T08:44:06.764Z</time></trkpt><trkpt lat="43.548543" lon="11.3698806"><ele>690.3333333333334</ele><time>2026-03-22T08:44:07.764Z</time></trkpt><trkpt lat="43.5485394" lon="11.3699724"><ele>693.1666666666666</ele><time>2026-03-22T08:44:08.765Z</time></trkpt><trkpt lat="43.5485229" lon="11.3700772"><ele>696.0</ele><time>2026-03-22T08:44:09.764Z</time></trkpt><trkpt lat="43.5485268" lon="11.3701913"><ele>696.0</ele><time>2026-03-22T08:44:10.764Z</time></trkpt><trkpt lat="43.5485404" lon="11.3703123"><ele>696.0</ele><time>2026-03-22T08:44:11.763Z</time></trkpt><trkpt lat="43.5485616" lon="11.3703982"><ele>696.0</ele><time>2026-03-22T08:44:12.763Z</time></trkpt><trkpt lat="43.548566" lon="11.3704864"><ele>696.0</ele><time>2026-03-22T08:44:13.764Z</time></trkpt><trkpt lat="43.5485699" lon="11.3705817"><ele>696.0</ele><time>2026-03-22T08:44:14.763Z</time></trkpt><trkpt lat="43.5485658" lon="11.370679"><ele>696.0</ele><time>2026-03-22T08:44:15.763Z</time></trkpt><trkpt lat="43.5485571" lon="11.3707715"><ele>696.0</ele><time>2026-03-22T08:44:16.764Z</time></trkpt><trkpt lat="43.5485485" lon="11.3708702"><ele>698.1428571428571</ele><time>2026-03-22T08:44:17.765Z</time></trkpt><trkpt lat="43.548531" lon="11.3709564"><ele>700.2857142857143</ele><time>2026-03-22T08:44:18.763Z</time></trkpt><trkpt lat="43.5485126" lon="11.3710413"><ele>702.4285714285714</ele><time>2026-03-22T08:44:19.764Z</time></trkpt><trkpt lat="43.5485069" lon="11.371136"><ele>704.5714285714286</ele><time>2026-03-22T08:44:20.763Z</time></trkpt><trkpt lat="43.5484939" lon="11.3712455"><ele>706.7142857142857</ele><time>2026-03-22T08:44:21.763Z</time></trkpt><trkpt lat="43.5484795" lon="11.3713473"><ele>708.8571428571429</ele><time>2026-03-22T08:44:22.763Z</time></trkpt><trkpt lat="43.5484686" lon="11.3714742"><ele>711.0</ele><time>2026-03-22T08:44:23.765Z</time></trkpt><trkpt lat="43.5484572" lon="11.3716095"><ele>713.8</ele><time>2026-03-22T08:44:24.764Z</time></trkpt><trkpt lat="43.5484423" lon="11.371735"><ele>716.5999999999999</ele><time>2026-03-22T08:44:25.764Z</time></trkpt><trkpt lat="43.5484329" lon="11.3718717"><ele>719.4</ele><time>2026-03-22T08:44:26.765Z</time></trkpt><trkpt lat="43.5484188" lon="11.371993"><ele>722.2</ele><time>2026-03-22T08:44:27.764Z</time></trkpt><trkpt lat="43.5484033" lon="11.372127"><ele>725.0</ele><time>2026-03-22T08:44:28.763Z</time></trkpt><trkpt lat="43.5483853" lon="11.3722708"><ele>727.1666666666666</ele><time>2026-03-22T08:44:29.765Z</time></trkpt><trkpt lat="43.5483755" lon="11.3723818"><ele>729.3333333333333</ele><time>2026-03-22T08:44:30.763Z</time></trkpt><trkpt lat="43.5483612" lon="11.3724926"><ele>731.5</ele><time>2026-03-22T08:44:31.763Z</time></trkpt><trkpt lat="43.5483409" lon="11.3726099"><ele>733.6666666666666</ele><time>2026-03-22T08:44:32.763Z</time></trkpt><trkpt lat="43.5483167" lon="11.372731"><ele>735.8333333333334</ele><time>2026-03-22T08:44:33.764Z</time></trkpt><trkpt lat="43.5482948" lon="11.37284"><ele>738.0</ele><time>2026-03-22T08:44:34.764Z</time></trkpt><trkpt lat="43.548264" lon="11.3729459"><ele>738.0</ele><time>2026-03-22T08:44:35.764Z</time></trkpt><trkpt lat="43.5482152" lon="11.373022"><ele>738.0</ele><time>2026-03-22T08:44:36.765Z</time></trkpt><trkpt lat="43.5481829" lon="11.3731152"><ele>738.0</ele><time>2026-03-22T08:44:37.764Z</time></trkpt><trkpt lat="43.5481524" lon="11.3732131"><ele>738.0</ele><time>2026-03-22T08:44:38.764Z</time></trkpt><trkpt lat="43.5481023" lon="11.3733983"><ele>738.0</ele><time>2026-03-22T08:44:40.764Z</time></trkpt><trkpt lat="43.5481033" lon="11.3735087"><ele>738.0</ele><time>2026-03-22T08:44:41.763Z</time></trkpt><trkpt lat="43.5481035" lon="11.3735995"><ele>740.5999999999999</ele><time>2026-03-22T08:44:42.764Z</time></trkpt><trkpt lat="43.5481204" lon="11.3736991"><ele>743.1999999999999</ele><time>2026-03-22T08:44:43.765Z</time></trkpt><trkpt lat="43.548142" lon="11.3737894"><ele>745.8</ele><time>2026-03-22T08:44:44.765Z</time></trkpt><trkpt lat="43.5481692" lon="11.3739556"><ele>748.4</ele><time>2026-03-22T08:44:46.764Z</time></trkpt><trkpt lat="43.5481833" lon="11.374042"><ele>751.0</ele><time>2026-03-22T08:44:47.764Z</time></trkpt><trkpt lat="43.5482034" lon="11.3742193"><ele>754.5999999999999</ele><time>2026-03-22T08:44:49.764Z</time></trkpt><trkpt lat="43.5482306" lon="11.3743324"><ele>758.2</ele><time>2026-03-22T08:44:50.764Z</time></trkpt><trkpt lat="43.548266" lon="11.3744436"><ele>761.8</ele><time>2026-03-22T08:44:51.763Z</time></trkpt><trkpt lat="43.5483099" lon="11.374595"><ele>765.4000000000001</ele><time>2026-03-22T08:44:53.763Z</time></trkpt><trkpt lat="43.5483434" lon="11.3747213"><ele>769.0</ele><time>2026-03-22T08:44:55.763Z</time></trkpt><trkpt lat="43.5483923" lon="11.3748766"><ele>771.1666666666666</ele><time>2026-03-22T08:44:57.764Z</time></trkpt><trkpt lat="43.5484281" lon="11.3749655"><ele>773.3333333333333</ele><time>2026-03-22T08:44:58.764Z</time></trkpt><trkpt lat="43.5484601" lon="11.3750473"><ele>775.5</ele><time>2026-03-22T08:44:59.763Z</time></trkpt><trkpt lat="43.5484809" lon="11.3751322"><ele>777.6666666666667</ele><time>2026-03-22T08:45:00.764Z</time></trkpt><trkpt lat="43.5485266" lon="11.3752687"><ele>779.8333333333334</ele><time>2026-03-22T08:45:02.764Z</time></trkpt><trkpt lat="43.5485729" lon="11.3753817"><ele>782.0</ele><time>2026-03-22T08:45:04.763Z</time></trkpt><trkpt lat="43.5485829" lon="11.3755309"><ele>785.2</ele><time>2026-03-22T08:45:06.764Z</time></trkpt><trkpt lat="43.5486288" lon="11.3756244"><ele>788.4000000000001</ele><time>2026-03-22T08:45:08.764Z</time></trkpt><trkpt lat="43.5486677" lon="11.375753"><ele>791.5999999999999</ele><time>2026-03-22T08:45:10.763Z</time></trkpt><trkpt lat="43.5486976" lon="11.3759129"><ele>794.8</ele><time>2026-03-22T08:45:12.764Z</time></trkpt><trkpt lat="43.5487164" lon="11.376059"><ele>798.0</ele><time>2026-03-22T08:45:14.765Z</time></trkpt><trkpt lat="43.5487101" lon="11.3761922"><ele>798.2</ele><time>2026-03-22T08:45:16.763Z</time></trkpt><trkpt lat="43.548722" lon="11.3763392"><ele>798.4</ele><time>2026-03-22T08:45:18.764Z</time></trkpt><trkpt lat="43.5487511" lon="11.3764653"><ele>798.6</ele><time>2026-03-22T08:45:20.763Z</time></trkpt><trkpt lat="43.5488008" lon="11.3765854"><ele>798.8000000000001</ele><time>2026-03-22T08:45:22.765Z</time></trkpt><trkpt lat="43.548879" lon="11.3766974"><ele>799.0</ele><time>2026-03-22T08:45:24.763Z</time></trkpt><trkpt lat="43.5489499" lon="11.3767926"><ele>801.1666666666666</ele><time>2026-03-22T08:45:26.764Z</time></trkpt><trkpt lat="43.5489877" lon="11.3768967"><ele>803.3333333333333</ele><time>2026-03-22T08:45:28.764Z</time></trkpt><trkpt lat="43.5490011" lon="11.3770036"><ele>805.5</ele><time>2026-03-22T08:45:30.764Z</time></trkpt><trkpt lat="43.5490016" lon="11.377102"><ele>807.6666666666667</ele><time>2026-03-22T08:45:32.764Z</time></trkpt><trkpt lat="43.5489637" lon="11.3771786"><ele>809.8333333333334</ele><time>2026-03-22T08:46:26.765Z</time></trkpt><trkpt lat="43.5489037" lon="11.3772481"><ele>812.0</ele><time>2026-03-22T08:46:28.763Z</time></trkpt><trkpt lat="43.5488365" lon="11.3773644"><ele>814.5</ele><time>2026-03-22T08:46:30.764Z</time></trkpt><trkpt lat="43.5487673" lon="11.3774856"><ele>817.0</ele><time>2026-03-22T08:46:32.763Z</time></trkpt><trkpt lat="43.5486996" lon="11.3776795"><ele>819.5</ele><time>2026-03-22T08:46:34.764Z</time></trkpt><trkpt lat="43.5486488" lon="11.3777957"><ele>822.0</ele><time>2026-03-22T08:46:35.765Z</time></trkpt><trkpt lat="43.5485851" lon="11.3779162"><ele>824.5</ele><time>2026-03-22T08:46:36.764Z</time></trkpt><trkpt lat="43.5485222" lon="11.3780227"><ele>827.0</ele><time>2026-03-22T08:46:37.764Z</time></trkpt><trkpt lat="43.548457" lon="11.3781278"><ele>829.5</ele><time>2026-03-22T08:46:38.763Z</time></trkpt><trkpt lat="43.5484003" lon="11.3782325"><ele>832.0</ele><time>2026-03-22T08:46:39.764Z</time></trkpt><trkpt lat="43.5483539" lon="11.3783182"><ele>834.5</ele><time>2026-03-22T08:46:40.764Z</time></trkpt><trkpt lat="43.5483107" lon="11.3783988"><ele>837.0</ele><time>2026-03-22T08:46:41.763Z</time></trkpt><trkpt lat="43.5482399" lon="11.3785412"><ele>837.0</ele><time>2026-03-22T08:46:43.764Z</time></trkpt><trkpt lat="43.5482063" lon="11.3786269"><ele>837.0</ele><time>2026-03-22T08:46:44.764Z</time></trkpt><trkpt lat="43.5481164" lon="11.3787994"><ele>837.0</ele><time>2026-03-22T08:46:46.763Z</time></trkpt><trkpt lat="43.5480644" lon="11.3789133"><ele>837.0</ele><time>2026-03-22T08:46:47.765Z</time></trkpt><trkpt lat="43.5480111" lon="11.3790256"><ele>837.0</ele><time>2026-03-22T08:46:48.764Z</time></trkpt><trkpt lat="43.5479532" lon="11.3791531"><ele>837.8</ele><time>2026-03-22T08:46:49.764Z</time></trkpt><trkpt lat="43.5478921" lon="11.3792729"><ele>838.6</ele><time>2026-03-22T08:46:50.764Z</time></trkpt><trkpt lat="43.5478534" lon="11.3794237"><ele>839.4</ele><time>2026-03-22T08:46:51.765Z</time></trkpt><trkpt lat="43.5478098" lon="11.3795177"><ele>840.1999999999999</ele><time>2026-03-22T08:46:52.765Z</time></trkpt><trkpt lat="43.5477537" lon="11.3796175"><ele>841.0</ele><time>2026-03-22T08:46:53.764Z</time></trkpt><trkpt lat="43.5477022" lon="11.3797285"><ele>843.4</ele><time>2026-03-22T08:46:54.764Z</time></trkpt><trkpt lat="43.5476379" lon="11.3798597"><ele>845.8</ele><time>2026-03-22T08:46:55.764Z</time></trkpt><trkpt lat="43.547589" lon="11.37999"><ele>848.1999999999999</ele><time>2026-03-22T08:46:56.764Z</time></trkpt><trkpt lat="43.5475512" lon="11.3801084"><ele>850.5999999999999</ele><time>2026-03-22T08:46:57.764Z</time></trkpt><trkpt lat="43.547507" lon="11.3802409"><ele>853.0</ele><time>2026-03-22T08:46:58.763Z</time></trkpt><trkpt lat="43.5474444" lon="11.3803609"><ele>853.0</ele><time>2026-03-22T08:46:59.764Z</time></trkpt><trkpt lat="43.5474177" lon="11.3805159"><ele>853.0</ele><time>2026-03-22T08:47:00.764Z</time></trkpt><trkpt lat="43.5473689" lon="11.3806586"><ele>853.0</ele><time>2026-03-22T08:47:01.764Z</time></trkpt><trkpt lat="43.5473385" lon="11.3808002"><ele>853.0</ele><time>2026-03-22T08:47:02.764Z</time></trkpt><trkpt lat="43.5473176" lon="11.3809182"><ele>853.0</ele><time>2026-03-22T08:47:03.765Z</time></trkpt><trkpt lat="43.5472822" lon="11.3810294"><ele>852.8333333333333</ele><time>2026-03-22T08:47:04.765Z</time></trkpt><trkpt lat="43.5472535" lon="11.3811877"><ele>852.6666666666666</ele><time>2026-03-22T08:47:06.765Z</time></trkpt><trkpt lat="43.5472306" lon="11.3812727"><ele>852.5</ele><time>2026-03-22T08:47:07.765Z</time></trkpt><trkpt lat="43.5472062" lon="11.3813611"><ele>852.3333333333333</ele><time>2026-03-22T08:47:08.765Z</time></trkpt><trkpt lat="43.5471656" lon="11.3814784"><ele>852.1666666666666</ele><time>2026-03-22T08:47:10.764Z</time></trkpt><trkpt lat="43.5470917" lon="11.3815175"><ele>852.0</ele><time>2026-03-22T08:47:13.766Z</time></trkpt><trkpt lat="43.5470208" lon="11.3814543"><ele>851.8</ele><time>2026-03-22T08:47:15.764Z</time></trkpt><trkpt lat="43.5469135" lon="11.3813525"><ele>851.6</ele><time>2026-03-22T08:47:17.765Z</time></trkpt><trkpt lat="43.5468587" lon="11.3812968"><ele>851.4</ele><time>2026-03-22T08:47:18.764Z</time></trkpt><trkpt lat="43.5467341" lon="11.3812366"><ele>851.1999999999999</ele><time>2026-03-22T08:47:20.764Z</time></trkpt><trkpt lat="43.5466736" lon="11.3811972"><ele>851.0</ele><time>2026-03-22T08:47:21.765Z</time></trkpt><trkpt lat="43.546607" lon="11.3811595"><ele>851.0</ele><time>2026-03-22T08:47:22.765Z</time></trkpt><trkpt lat="43.5465167" lon="11.3811162"><ele>851.0</ele><time>2026-03-22T08:47:23.764Z</time></trkpt><trkpt lat="43.546436" lon="11.3810699"><ele>851.0</ele><time>2026-03-22T08:47:24.765Z</time></trkpt><trkpt lat="43.5463205" lon="11.3810519"><ele>851.0</ele><time>2026-03-22T08:47:25.766Z</time></trkpt><trkpt lat="43.5462361" lon="11.3810235"><ele>851.0</ele><time>2026-03-22T08:47:26.764Z</time></trkpt><trkpt lat="43.5461513" lon="11.3809811"><ele>850.8</ele><time>2026-03-22T08:47:27.765Z</time></trkpt><trkpt lat="43.5461291" lon="11.3808377"><ele>850.5999999999999</ele><time>2026-03-22T08:47:30.765Z</time></trkpt><trkpt lat="43.5460646" lon="11.3807749"><ele>850.4</ele><time>2026-03-22T08:47:32.766Z</time></trkpt><trkpt lat="43.5459655" lon="11.3806525"><ele>850.2</ele><time>2026-03-22T08:47:34.764Z</time></trkpt><trkpt lat="43.5459026" lon="11.3805815"><ele>850.0</ele><time>2026-03-22T08:47:35.765Z</time></trkpt><trkpt lat="43.5458235" lon="11.380494"><ele>848.2857142857142</ele><time>2026-03-22T08:47:36.765Z</time></trkpt><trkpt lat="43.5457657" lon="11.3804122"><ele>846.5714285714286</ele><time>2026-03-22T08:47:37.765Z</time></trkpt><trkpt lat="43.5457021" lon="11.3803356"><ele>844.8571428571429</ele><time>2026-03-22T08:47:38.765Z</time></trkpt><trkpt lat="43.5456642" lon="11.3802597"><ele>843.1428571428571</ele><time>2026-03-22T08:47:39.766Z</time></trkpt><trkpt lat="43.5456171" lon="11.380192"><ele>841.4285714285714</ele><time>2026-03-22T08:47:40.766Z</time></trkpt><trkpt lat="43.5455696" lon="11.3801221"><ele>839.7142857142857</ele><time>2026-03-22T08:47:41.765Z</time></trkpt><trkpt lat="43.5455117" lon="11.3800782"><ele>838.0</ele><time>2026-03-22T08:47:42.765Z</time></trkpt><trkpt lat="43.5454461" lon="11.3800183"><ele>837.9999999999999</ele><time>2026-03-22T08:47:43.764Z</time></trkpt><trkpt lat="43.5453177" lon="11.380016"><ele>838.0</ele><time>2026-03-22T08:47:45.765Z</time></trkpt><trkpt lat="43.545255" lon="11.3799941"><ele>838.0</ele><time>2026-03-22T08:47:46.764Z</time></trkpt><trkpt lat="43.5451959" lon="11.3799563"><ele>838.0</ele><time>2026-03-22T08:47:47.765Z</time></trkpt><trkpt lat="43.5451403" lon="11.3798974"><ele>837.9999999999999</ele><time>2026-03-22T08:47:48.764Z</time></trkpt><trkpt lat="43.5450999" lon="11.3798129"><ele>838.0</ele><time>2026-03-22T08:47:49.765Z</time></trkpt><trkpt lat="43.5450538" lon="11.3797165"><ele>837.3333333333333</ele><time>2026-03-22T08:47:50.766Z</time></trkpt><trkpt lat="43.5450109" lon="11.3796157"><ele>836.6666666666666</ele><time>2026-03-22T08:47:51.765Z</time></trkpt><trkpt lat="43.5449559" lon="11.3795229"><ele>836.0</ele><time>2026-03-22T08:47:52.765Z</time></trkpt><trkpt lat="43.5448931" lon="11.3794376"><ele>835.3333333333333</ele><time>2026-03-22T08:47:53.765Z</time></trkpt><trkpt lat="43.5448564" lon="11.3793491"><ele>834.6666666666666</ele><time>2026-03-22T08:47:54.765Z</time></trkpt><trkpt lat="43.5448263" lon="11.3792529"><ele>834.0</ele><time>2026-03-22T08:47:55.764Z</time></trkpt><trkpt lat="43.5447821" lon="11.37916"><ele>834.0</ele><time>2026-03-22T08:47:56.764Z</time></trkpt><trkpt lat="43.5447362" lon="11.379086"><ele>834.0</ele><time>2026-03-22T08:47:57.764Z</time></trkpt><trkpt lat="43.5446912" lon="11.3790159"><ele>834.0</ele><time>2026-03-22T08:47:58.766Z</time></trkpt><trkpt lat="43.5445896" lon="11.3789485"><ele>834.0</ele><time>2026-03-22T08:48:00.764Z</time></trkpt><trkpt lat="43.5445319" lon="11.3788981"><ele>834.0</ele><time>2026-03-22T08:48:11.765Z</time></trkpt><trkpt lat="43.5445546" lon="11.3788157"><ele>834.0</ele><time>2026-03-22T08:48:30.765Z</time></trkpt><trkpt lat="43.5445988" lon="11.3788973"><ele>835.0</ele><time>2026-03-22T08:49:36.764Z</time></trkpt><trkpt lat="43.5445127" lon="11.3789463"><ele>836.0</ele><time>2026-03-22T08:49:39.764Z</time></trkpt><trkpt lat="43.5444368" lon="11.3789333"><ele>837.0</ele><time>2026-03-22T08:49:40.764Z</time></trkpt><trkpt lat="43.5443702" lon="11.3789354"><ele>838.0</ele><time>2026-03-22T08:49:41.764Z</time></trkpt><trkpt lat="43.5442792" lon="11.3789385"><ele>839.0</ele><time>2026-03-22T08:49:42.764Z</time></trkpt><trkpt lat="43.5441532" lon="11.3788983"><ele>839.0</ele><time>2026-03-22T08:49:43.764Z</time></trkpt><trkpt lat="43.5440148" lon="11.3789272"><ele>839.0</ele><time>2026-03-22T08:49:44.764Z</time></trkpt><trkpt lat="43.543916" lon="11.37894"><ele>839.0</ele><time>2026-03-22T08:49:45.764Z</time></trkpt><trkpt lat="43.5438295" lon="11.3789745"><ele>839.0</ele><time>2026-03-22T08:49:46.764Z</time></trkpt><trkpt lat="43.5437293" lon="11.379038"><ele>839.0</ele><time>2026-03-22T08:49:47.764Z</time></trkpt><trkpt lat="43.543635" lon="11.3791064"><ele>838.6</ele><time>2026-03-22T08:49:48.764Z</time></trkpt><trkpt lat="43.5435395" lon="11.3791666"><ele>838.2</ele><time>2026-03-22T08:49:49.764Z</time></trkpt><trkpt lat="43.5434331" lon="11.3792315"><ele>837.8000000000001</ele><time>2026-03-22T08:49:50.766Z</time></trkpt><trkpt lat="43.5433347" lon="11.3792904"><ele>837.4000000000001</ele><time>2026-03-22T08:49:51.765Z</time></trkpt><trkpt lat="43.5432482" lon="11.3793288"><ele>837.0</ele><time>2026-03-22T08:49:52.765Z</time></trkpt><trkpt lat="43.5431589" lon="11.3793698"><ele>837.0</ele><time>2026-03-22T08:49:53.765Z</time></trkpt><trkpt lat="43.5430776" lon="11.379384"><ele>837.0</ele><time>2026-03-22T08:49:54.764Z</time></trkpt><trkpt lat="43.5429786" lon="11.3794254"><ele>837.0</ele><time>2026-03-22T08:49:55.764Z</time></trkpt><trkpt lat="43.5428713" lon="11.379476"><ele>837.0</ele><time>2026-03-22T08:49:56.764Z</time></trkpt><trkpt lat="43.5427357" lon="11.3795554"><ele>837.0</ele><time>2026-03-22T08:49:57.765Z</time></trkpt><trkpt lat="43.5426202" lon="11.3796097"><ele>836.6</ele><time>2026-03-22T08:49:58.765Z</time></trkpt><trkpt lat="43.5425182" lon="11.3796558"><ele>836.2</ele><time>2026-03-22T08:49:59.765Z</time></trkpt><trkpt lat="43.5424097" lon="11.3797237"><ele>835.8</ele><time>2026-03-22T08:50:00.764Z</time></trkpt><trkpt lat="43.5423048" lon="11.3798005"><ele>835.4</ele><time>2026-03-22T08:50:01.766Z</time></trkpt><trkpt lat="43.5422128" lon="11.3798608"><ele>835.0</ele><time>2026-03-22T08:50:02.765Z</time></trkpt><trkpt lat="43.5421178" lon="11.3799147"><ele>833.2</ele><time>2026-03-22T08:50:03.764Z</time></trkpt><trkpt lat="43.5420201" lon="11.379956"><ele>831.4</ele><time>2026-03-22T08:50:04.765Z</time></trkpt><trkpt lat="43.5419174" lon="11.3799901"><ele>829.5999999999999</ele><time>2026-03-22T08:50:05.764Z</time></trkpt><trkpt lat="43.5418109" lon="11.3800344"><ele>827.8</ele><time>2026-03-22T08:50:06.764Z</time></trkpt><trkpt lat="43.5417056" lon="11.3800814"><ele>826.0</ele><time>2026-03-22T08:50:07.764Z</time></trkpt><trkpt lat="43.5416084" lon="11.380215"><ele>826.0</ele><time>2026-03-22T08:50:08.765Z</time></trkpt><trkpt lat="43.5415158" lon="11.3802991"><ele>826.0</ele><time>2026-03-22T08:50:09.764Z</time></trkpt><trkpt lat="43.5414203" lon="11.3804002"><ele>826.0</ele><time>2026-03-22T08:50:10.765Z</time></trkpt><trkpt lat="43.5413392" lon="11.3804992"><ele>826.0</ele><time>2026-03-22T08:50:11.764Z</time></trkpt><trkpt lat="43.5412535" lon="11.3806307"><ele>824.4</ele><time>2026-03-22T08:50:12.765Z</time></trkpt><trkpt lat="43.541151" lon="11.3807174"><ele>822.8</ele><time>2026-03-22T08:50:13.766Z</time></trkpt><trkpt lat="43.5410661" lon="11.380815"><ele>821.1999999999999</ele><time>2026-03-22T08:50:14.765Z</time></trkpt><trkpt lat="43.5409875" lon="11.3809066"><ele>819.5999999999999</ele><time>2026-03-22T08:50:15.765Z</time></trkpt><trkpt lat="43.5409139" lon="11.3809883"><ele>818.0</ele><time>2026-03-22T08:50:16.766Z</time></trkpt><trkpt lat="43.5408622" lon="11.3810527"><ele>818.0000000000001</ele><time>2026-03-22T08:50:17.764Z</time></trkpt><trkpt lat="43.540803" lon="11.3811087"><ele>818.0</ele><time>2026-03-22T08:50:18.765Z</time></trkpt><trkpt lat="43.540749" lon="11.3811733"><ele>818.0</ele><time>2026-03-22T08:50:19.764Z</time></trkpt><trkpt lat="43.540686" lon="11.3812318"><ele>818.0</ele><time>2026-03-22T08:50:20.765Z</time></trkpt><trkpt lat="43.5406087" lon="11.3812733"><ele>818.0000000000001</ele><time>2026-03-22T08:50:21.764Z</time></trkpt><trkpt lat="43.5405244" lon="11.3813078"><ele>818.0</ele><time>2026-03-22T08:50:22.764Z</time></trkpt><trkpt lat="43.5404432" lon="11.3813542"><ele>818.0</ele><time>2026-03-22T08:50:23.765Z</time></trkpt><trkpt lat="43.5403581" lon="11.3814021"><ele>818.0</ele><time>2026-03-22T08:50:24.765Z</time></trkpt><trkpt lat="43.540273" lon="11.3814497"><ele>818.0</ele><time>2026-03-22T08:50:25.764Z</time></trkpt><trkpt lat="43.5401874" lon="11.3814977"><ele>818.0</ele><time>2026-03-22T08:50:26.765Z</time></trkpt><trkpt lat="43.5400935" lon="11.3815412"><ele>818.0</ele><time>2026-03-22T08:50:27.764Z</time></trkpt><trkpt lat="43.539995" lon="11.3815899"><ele>818.0</ele><time>2026-03-22T08:50:28.766Z</time></trkpt><trkpt lat="43.5398914" lon="11.3816324"><ele>818.0</ele><time>2026-03-22T08:50:29.765Z</time></trkpt><trkpt lat="43.5397795" lon="11.3816844"><ele>818.0</ele><time>2026-03-22T08:50:30.765Z</time></trkpt><trkpt lat="43.5396572" lon="11.3817336"><ele>818.0</ele><time>2026-03-22T08:50:31.764Z</time></trkpt><trkpt lat="43.5395478" lon="11.3817849"><ele>818.2</ele><time>2026-03-22T08:50:32.764Z</time></trkpt><trkpt lat="43.5394434" lon="11.3818375"><ele>818.4</ele><time>2026-03-22T08:50:33.765Z</time></trkpt><trkpt lat="43.5393372" lon="11.3818815"><ele>818.6</ele><time>2026-03-22T08:50:34.765Z</time></trkpt><trkpt lat="43.5392339" lon="11.3819292"><ele>818.8000000000001</ele><time>2026-03-22T08:50:35.764Z</time></trkpt><trkpt lat="43.5391392" lon="11.3819942"><ele>819.0</ele><time>2026-03-22T08:50:36.764Z</time></trkpt><trkpt lat="43.539048" lon="11.3820515"><ele>819.0</ele><time>2026-03-22T08:50:37.765Z</time></trkpt><trkpt lat="43.5389593" lon="11.3821198"><ele>819.0</ele><time>2026-03-22T08:50:38.765Z</time></trkpt><trkpt lat="43.5388684" lon="11.3821883"><ele>819.0</ele><time>2026-03-22T08:50:39.764Z</time></trkpt><trkpt lat="43.538774" lon="11.3822454"><ele>819.0</ele><time>2026-03-22T08:50:40.764Z</time></trkpt><trkpt lat="43.5386694" lon="11.3822784"><ele>819.0</ele><time>2026-03-22T08:50:41.765Z</time></trkpt><trkpt lat="43.5385681" lon="11.3823102"><ele>820.2</ele><time>2026-03-22T08:50:42.765Z</time></trkpt><trkpt lat="43.5384688" lon="11.3823577"><ele>821.4000000000001</ele><time>2026-03-22T08:50:43.765Z</time></trkpt><trkpt lat="43.5383702" lon="11.3824278"><ele>822.6</ele><time>2026-03-22T08:50:44.765Z</time></trkpt><trkpt lat="43.5382703" lon="11.3824615"><ele>823.8</ele><time>2026-03-22T08:50:45.765Z</time></trkpt><trkpt lat="43.5381976" lon="11.382473"><ele>825.0</ele><time>2026-03-22T08:50:46.765Z</time></trkpt><trkpt lat="43.5381345" lon="11.382511"><ele>825.0</ele><time>2026-03-22T08:50:47.764Z</time></trkpt><trkpt lat="43.538067" lon="11.3825708"><ele>825.0</ele><time>2026-03-22T08:50:48.764Z</time></trkpt><trkpt lat="43.5380137" lon="11.382635"><ele>825.0</ele><time>2026-03-22T08:50:49.764Z</time></trkpt><trkpt lat="43.537979" lon="11.382735"><ele>825.0</ele><time>2026-03-22T08:50:50.765Z</time></trkpt><trkpt lat="43.5379603" lon="11.3828613"><ele>825.0</ele><time>2026-03-22T08:50:51.765Z</time></trkpt><trkpt lat="43.537932" lon="11.3829466"><ele>825.0</ele><time>2026-03-22T08:50:52.765Z</time></trkpt><trkpt lat="43.5378798" lon="11.3830273"><ele>824.4</ele><time>2026-03-22T08:50:53.766Z</time></trkpt><trkpt lat="43.5378055" lon="11.3830981"><ele>823.8</ele><time>2026-03-22T08:50:54.764Z</time></trkpt><trkpt lat="43.5377246" lon="11.3831628"><ele>823.2</ele><time>2026-03-22T08:50:55.764Z</time></trkpt><trkpt lat="43.5376451" lon="11.3832248"><ele>822.6</ele><time>2026-03-22T08:50:56.765Z</time></trkpt><trkpt lat="43.5375651" lon="11.3832795"><ele>822.0</ele><time>2026-03-22T08:50:57.764Z</time></trkpt><trkpt lat="43.5374828" lon="11.3833344"><ele>822.0</ele><time>2026-03-22T08:50:58.765Z</time></trkpt><trkpt lat="43.5374052" lon="11.3833772"><ele>822.0</ele><time>2026-03-22T08:50:59.764Z</time></trkpt><trkpt lat="43.5373266" lon="11.3833869"><ele>822.0</ele><time>2026-03-22T08:51:00.765Z</time></trkpt><trkpt lat="43.5372447" lon="11.3834025"><ele>822.0</ele><time>2026-03-22T08:51:01.765Z</time></trkpt><trkpt lat="43.537172" lon="11.3834046"><ele>822.0</ele><time>2026-03-22T08:51:02.765Z</time></trkpt><trkpt lat="43.537047" lon="11.3833464"><ele>822.0</ele><time>2026-03-22T08:51:04.765Z</time></trkpt><trkpt lat="43.5369709" lon="11.3832834"><ele>822.0</ele><time>2026-03-22T08:51:05.766Z</time></trkpt><trkpt lat="43.5368721" lon="11.3831911"><ele>822.0</ele><time>2026-03-22T08:51:06.764Z</time></trkpt><trkpt lat="43.5367645" lon="11.3830992"><ele>822.0</ele><time>2026-03-22T08:51:07.765Z</time></trkpt><trkpt lat="43.5366527" lon="11.3830116"><ele>821.2</ele><time>2026-03-22T08:51:08.765Z</time></trkpt><trkpt lat="43.5365493" lon="11.3829466"><ele>820.4000000000001</ele><time>2026-03-22T08:51:09.766Z</time></trkpt><trkpt lat="43.536442" lon="11.3829033"><ele>819.5999999999999</ele><time>2026-03-22T08:51:10.764Z</time></trkpt><trkpt lat="43.5363519" lon="11.3828605"><ele>818.8</ele><time>2026-03-22T08:51:11.765Z</time></trkpt><trkpt lat="43.5362624" lon="11.3828158"><ele>818.0</ele><time>2026-03-22T08:51:12.764Z</time></trkpt><trkpt lat="43.5361882" lon="11.3827712"><ele>818.0000000000001</ele><time>2026-03-22T08:51:13.764Z</time></trkpt><trkpt lat="43.5361201" lon="11.3827338"><ele>818.0</ele><time>2026-03-22T08:51:14.764Z</time></trkpt><trkpt lat="43.5360583" lon="11.3827062"><ele>818.0</ele><time>2026-03-22T08:51:15.764Z</time></trkpt><trkpt lat="43.5359648" lon="11.3826779"><ele>818.0</ele><time>2026-03-22T08:51:17.765Z</time></trkpt><trkpt lat="43.5358784" lon="11.3826718"><ele>818.0000000000001</ele><time>2026-03-22T08:51:19.765Z</time></trkpt><trkpt lat="43.5358015" lon="11.3826616"><ele>818.0</ele><time>2026-03-22T08:51:21.765Z</time></trkpt><trkpt lat="43.5356727" lon="11.382668"><ele>818.0000000000001</ele><time>2026-03-22T08:51:23.765Z</time></trkpt><trkpt lat="43.5355943" lon="11.3826677"><ele>818.0</ele><time>2026-03-22T08:51:24.765Z</time></trkpt><trkpt lat="43.5355266" lon="11.3826672"><ele>818.0</ele><time>2026-03-22T08:51:25.765Z</time></trkpt><trkpt lat="43.5354353" lon="11.3827465"><ele>818.0</ele><time>2026-03-22T08:51:27.765Z</time></trkpt><trkpt lat="43.5353513" lon="11.3828165"><ele>818.0000000000001</ele><time>2026-03-22T08:51:29.766Z</time></trkpt><trkpt lat="43.5352982" lon="11.3828708"><ele>818.0</ele><time>2026-03-22T08:51:30.765Z</time></trkpt><trkpt lat="43.535223" lon="11.38292"><ele>818.0000000000001</ele><time>2026-03-22T08:51:31.765Z</time></trkpt><trkpt lat="43.5351308" lon="11.3829788"><ele>818.0</ele><time>2026-03-22T08:51:32.766Z</time></trkpt><trkpt lat="43.5350463" lon="11.3830411"><ele>818.0</ele><time>2026-03-22T08:51:33.764Z</time></trkpt><trkpt lat="43.5349826" lon="11.3830898"><ele>818.0</ele><time>2026-03-22T08:51:34.765Z</time></trkpt><trkpt lat="43.534919" lon="11.3831064"><ele>818.0000000000001</ele><time>2026-03-22T08:51:35.765Z</time></trkpt><trkpt lat="43.5348488" lon="11.3830876"><ele>818.0</ele><time>2026-03-22T08:51:36.766Z</time></trkpt><trkpt lat="43.5347791" lon="11.383051"><ele>818.1666666666667</ele><time>2026-03-22T08:51:37.765Z</time></trkpt><trkpt lat="43.5346831" lon="11.3829544"><ele>818.3333333333334</ele><time>2026-03-22T08:51:39.766Z</time></trkpt><trkpt lat="43.5346239" lon="11.3828971"><ele>818.5</ele><time>2026-03-22T08:51:40.764Z</time></trkpt><trkpt lat="43.5345644" lon="11.3828419"><ele>818.6666666666667</ele><time>2026-03-22T08:51:41.765Z</time></trkpt><trkpt lat="43.5344969" lon="11.3827939"><ele>818.8333333333334</ele><time>2026-03-22T08:51:42.765Z</time></trkpt><trkpt lat="43.5344155" lon="11.3827689"><ele>819.0</ele><time>2026-03-22T08:51:43.764Z</time></trkpt><trkpt lat="43.5343291" lon="11.3827518"><ele>819.0</ele><time>2026-03-22T08:51:44.766Z</time></trkpt><trkpt lat="43.5342381" lon="11.3827329"><ele>819.0</ele><time>2026-03-22T08:51:45.765Z</time></trkpt><trkpt lat="43.5341421" lon="11.3827212"><ele>819.0</ele><time>2026-03-22T08:51:46.765Z</time></trkpt><trkpt lat="43.5340432" lon="11.3827124"><ele>819.0</ele><time>2026-03-22T08:51:47.765Z</time></trkpt><trkpt lat="43.5339443" lon="11.3827028"><ele>819.0</ele><time>2026-03-22T08:51:48.765Z</time></trkpt><trkpt lat="43.533848" lon="11.3826942"><ele>819.0</ele><time>2026-03-22T08:51:49.765Z</time></trkpt><trkpt lat="43.5337501" lon="11.3826913"><ele>819.0</ele><time>2026-03-22T08:51:50.764Z</time></trkpt><trkpt lat="43.5336548" lon="11.3826865"><ele>819.0</ele><time>2026-03-22T08:51:51.765Z</time></trkpt><trkpt lat="43.5335542" lon="11.3826717"><ele>819.0</ele><time>2026-03-22T08:51:52.765Z</time></trkpt><trkpt lat="43.5334591" lon="11.3826674"><ele>819.0</ele><time>2026-03-22T08:51:53.765Z</time></trkpt><trkpt lat="43.5333761" lon="11.3826445"><ele>821.5</ele><time>2026-03-22T08:51:54.765Z</time></trkpt><trkpt lat="43.5332942" lon="11.3826022"><ele>824.0</ele><time>2026-03-22T08:51:55.765Z</time></trkpt><trkpt lat="43.5332443" lon="11.3825297"><ele>826.5</ele><time>2026-03-22T08:51:56.765Z</time></trkpt><trkpt lat="43.533154" lon="11.3824822"><ele>829.0</ele><time>2026-03-22T08:51:57.765Z</time></trkpt><trkpt lat="43.5330942" lon="11.3824237"><ele>831.5</ele><time>2026-03-22T08:51:58.766Z</time></trkpt><trkpt lat="43.5330096" lon="11.3823796"><ele>834.0</ele><time>2026-03-22T08:51:59.766Z</time></trkpt><trkpt lat="43.5329275" lon="11.3823013"><ele>834.6666666666666</ele><time>2026-03-22T08:52:00.765Z</time></trkpt><trkpt lat="43.5328151" lon="11.3822429"><ele>835.3333333333333</ele><time>2026-03-22T08:52:02.766Z</time></trkpt><trkpt lat="43.5327463" lon="11.3822005"><ele>836.0</ele><time>2026-03-22T08:52:03.766Z</time></trkpt><trkpt lat="43.5326685" lon="11.3821467"><ele>836.6666666666666</ele><time>2026-03-22T08:52:04.766Z</time></trkpt><trkpt lat="43.5326075" lon="11.3820848"><ele>837.3333333333333</ele><time>2026-03-22T08:52:05.766Z</time></trkpt><trkpt lat="43.5325804" lon="11.3819724"><ele>838.0</ele><time>2026-03-22T08:52:06.766Z</time></trkpt><trkpt lat="43.5325481" lon="11.3818417"><ele>837.9999999999999</ele><time>2026-03-22T08:52:07.765Z</time></trkpt><trkpt lat="43.532503" lon="11.3816916"><ele>838.0</ele><time>2026-03-22T08:52:08.767Z</time></trkpt><trkpt lat="43.5324692" lon="11.3815767"><ele>838.0</ele><time>2026-03-22T08:52:09.766Z</time></trkpt><trkpt lat="43.5324514" lon="11.3814699"><ele>838.0</ele><time>2026-03-22T08:52:10.765Z</time></trkpt><trkpt lat="43.5324404" lon="11.3813501"><ele>837.9999999999999</ele><time>2026-03-22T08:52:11.765Z</time></trkpt><trkpt lat="43.532445" lon="11.3812543"><ele>838.0</ele><time>2026-03-22T08:52:12.765Z</time></trkpt><trkpt lat="43.5324765" lon="11.3810852"><ele>838.0</ele><time>2026-03-22T08:52:14.766Z</time></trkpt><trkpt lat="43.5325125" lon="11.3809923"><ele>838.0</ele><time>2026-03-22T08:52:15.766Z</time></trkpt><trkpt lat="43.532534" lon="11.3809051"><ele>838.0</ele><time>2026-03-22T08:52:16.765Z</time></trkpt><trkpt lat="43.5325516" lon="11.3808116"><ele>838.0</ele><time>2026-03-22T08:52:17.765Z</time></trkpt><trkpt lat="43.5325121" lon="11.3806124"><ele>838.0</ele><time>2026-03-22T08:52:19.766Z</time></trkpt><trkpt lat="43.5325033" lon="11.3804732"><ele>838.0</ele><time>2026-03-22T08:52:20.767Z</time></trkpt><trkpt lat="43.5324989" lon="11.3803317"><ele>838.0</ele><time>2026-03-22T08:52:21.765Z</time></trkpt><trkpt lat="43.5324868" lon="11.3802035"><ele>838.0</ele><time>2026-03-22T08:52:22.765Z</time></trkpt><trkpt lat="43.5324665" lon="11.3800759"><ele>838.0</ele><time>2026-03-22T08:52:23.765Z</time></trkpt><trkpt lat="43.5324599" lon="11.3799419"><ele>838.0</ele><time>2026-03-22T08:52:24.765Z</time></trkpt><trkpt lat="43.5324561" lon="11.3798157"><ele>838.0</ele><time>2026-03-22T08:52:25.767Z</time></trkpt><trkpt lat="43.5324521" lon="11.3796997"><ele>838.0</ele><time>2026-03-22T08:52:26.765Z</time></trkpt><trkpt lat="43.5324498" lon="11.3795801"><ele>838.0</ele><time>2026-03-22T08:52:27.766Z</time></trkpt><trkpt lat="43.5324412" lon="11.3794564"><ele>838.0</ele><time>2026-03-22T08:52:28.766Z</time></trkpt><trkpt lat="43.5324194" lon="11.3793555"><ele>838.0</ele><time>2026-03-22T08:52:29.765Z</time></trkpt><trkpt lat="43.5323511" lon="11.379215"><ele>837.6666666666666</ele><time>2026-03-22T08:52:31.765Z</time></trkpt><trkpt lat="43.5322823" lon="11.3791175"><ele>837.3333333333333</ele><time>2026-03-22T08:52:33.765Z</time></trkpt><trkpt lat="43.532242" lon="11.3789707"><ele>837.0</ele><time>2026-03-22T08:52:35.766Z</time></trkpt><trkpt lat="43.53222" lon="11.3788796"><ele>836.6666666666667</ele><time>2026-03-22T08:52:36.767Z</time></trkpt><trkpt lat="43.5321942" lon="11.3787753"><ele>836.3333333333334</ele><time>2026-03-22T08:52:37.767Z</time></trkpt><trkpt lat="43.5321613" lon="11.3786834"><ele>836.0</ele><time>2026-03-22T08:52:38.766Z</time></trkpt><trkpt lat="43.5321148" lon="11.3785992"><ele>834.0000000000001</ele><time>2026-03-22T08:52:39.765Z</time></trkpt><trkpt lat="43.5320618" lon="11.3785138"><ele>832.0</ele><time>2026-03-22T08:52:40.765Z</time></trkpt><trkpt lat="43.5320141" lon="11.3784346"><ele>830.0</ele><time>2026-03-22T08:52:41.765Z</time></trkpt><trkpt lat="43.5319411" lon="11.3783021"><ele>828.0</ele><time>2026-03-22T08:52:43.766Z</time></trkpt><trkpt lat="43.5318985" lon="11.3782359"><ele>826.0000000000001</ele><time>2026-03-22T08:52:44.765Z</time></trkpt><trkpt lat="43.5318508" lon="11.378163"><ele>824.0</ele><time>2026-03-22T08:52:45.766Z</time></trkpt><trkpt lat="43.5318003" lon="11.3780809"><ele>822.3333333333334</ele><time>2026-03-22T08:52:46.766Z</time></trkpt><trkpt lat="43.5317494" lon="11.3780007"><ele>820.6666666666667</ele><time>2026-03-22T08:52:47.765Z</time></trkpt><trkpt lat="43.5317088" lon="11.3779335"><ele>819.0</ele><time>2026-03-22T08:52:48.767Z</time></trkpt><trkpt lat="43.5316567" lon="11.3778681"><ele>817.3333333333333</ele><time>2026-03-22T08:52:49.765Z</time></trkpt><trkpt lat="43.5315878" lon="11.3777912"><ele>815.6666666666666</ele><time>2026-03-22T08:52:50.767Z</time></trkpt><trkpt lat="43.5315086" lon="11.3777005"><ele>814.0</ele><time>2026-03-22T08:52:51.765Z</time></trkpt><trkpt lat="43.5314424" lon="11.3776037"><ele>814.0</ele><time>2026-03-22T08:52:52.765Z</time></trkpt><trkpt lat="43.5313884" lon="11.3775096"><ele>814.0</ele><time>2026-03-22T08:52:53.766Z</time></trkpt><trkpt lat="43.531331" lon="11.3774066"><ele>814.0</ele><time>2026-03-22T08:52:54.767Z</time></trkpt><trkpt lat="43.5312571" lon="11.3772664"><ele>814.0</ele><time>2026-03-22T08:52:55.765Z</time></trkpt><trkpt lat="43.5311728" lon="11.3771035"><ele>813.8000000000001</ele><time>2026-03-22T08:52:56.765Z</time></trkpt><trkpt lat="43.5311028" lon="11.37695"><ele>813.6</ele><time>2026-03-22T08:52:57.766Z</time></trkpt><trkpt lat="43.5310495" lon="11.3768189"><ele>813.4</ele><time>2026-03-22T08:52:58.767Z</time></trkpt><trkpt lat="43.5310027" lon="11.3767024"><ele>813.2</ele><time>2026-03-22T08:52:59.766Z</time></trkpt><trkpt lat="43.5309563" lon="11.3765746"><ele>813.0</ele><time>2026-03-22T08:53:00.765Z</time></trkpt><trkpt lat="43.5309" lon="11.3764239"><ele>811.4</ele><time>2026-03-22T08:53:01.765Z</time></trkpt><trkpt lat="43.5308503" lon="11.3762619"><ele>809.8</ele><time>2026-03-22T08:53:02.767Z</time></trkpt><trkpt lat="43.5308218" lon="11.3761188"><ele>808.2</ele><time>2026-03-22T08:53:03.765Z</time></trkpt><trkpt lat="43.5308174" lon="11.3759952"><ele>806.6</ele><time>2026-03-22T08:53:04.765Z</time></trkpt><trkpt lat="43.5308212" lon="11.3758737"><ele>805.0</ele><time>2026-03-22T08:53:05.766Z</time></trkpt><trkpt lat="43.5308092" lon="11.3757239"><ele>805.0</ele><time>2026-03-22T08:53:06.766Z</time></trkpt><trkpt lat="43.5308075" lon="11.375578"><ele>805.0</ele><time>2026-03-22T08:53:07.766Z</time></trkpt><trkpt lat="43.5308159" lon="11.3754372"><ele>805.0</ele><time>2026-03-22T08:53:08.765Z</time></trkpt><trkpt lat="43.5308145" lon="11.375306"><ele>805.0</ele><time>2026-03-22T08:53:09.765Z</time></trkpt><trkpt lat="43.5308164" lon="11.3751736"><ele>805.0</ele><time>2026-03-22T08:53:10.766Z</time></trkpt><trkpt lat="43.5308205" lon="11.3750393"><ele>803.4</ele><time>2026-03-22T08:53:11.765Z</time></trkpt><trkpt lat="43.5308162" lon="11.3749191"><ele>801.8</ele><time>2026-03-22T08:53:12.766Z</time></trkpt><trkpt lat="43.5308011" lon="11.3748019"><ele>800.2</ele><time>2026-03-22T08:53:13.765Z</time></trkpt><trkpt lat="43.5307849" lon="11.3746557"><ele>798.6</ele><time>2026-03-22T08:53:14.765Z</time></trkpt><trkpt lat="43.5307744" lon="11.3745077"><ele>797.0</ele><time>2026-03-22T08:53:15.766Z</time></trkpt><trkpt lat="43.5307717" lon="11.3743769"><ele>795.5000000000001</ele><time>2026-03-22T08:53:16.766Z</time></trkpt><trkpt lat="43.530741" lon="11.3742661"><ele>794.0</ele><time>2026-03-22T08:53:17.766Z</time></trkpt><trkpt lat="43.530709" lon="11.3741634"><ele>792.5</ele><time>2026-03-22T08:53:18.767Z</time></trkpt><trkpt lat="43.5306653" lon="11.3740625"><ele>791.0</ele><time>2026-03-22T08:53:19.767Z</time></trkpt><trkpt lat="43.5306171" lon="11.3739398"><ele>789.5000000000001</ele><time>2026-03-22T08:53:20.766Z</time></trkpt><trkpt lat="43.5305795" lon="11.3738294"><ele>788.0</ele><time>2026-03-22T08:53:21.766Z</time></trkpt><trkpt lat="43.5305382" lon="11.3737187"><ele>786.0</ele><time>2026-03-22T08:53:22.765Z</time></trkpt><trkpt lat="43.530489" lon="11.3736009"><ele>784.0</ele><time>2026-03-22T08:53:23.765Z</time></trkpt><trkpt lat="43.5304288" lon="11.373489"><ele>782.0</ele><time>2026-03-22T08:53:24.765Z</time></trkpt><trkpt lat="43.5303719" lon="11.3734129"><ele>780.0</ele><time>2026-03-22T08:53:25.766Z</time></trkpt><trkpt lat="43.530299" lon="11.3733647"><ele>778.0</ele><time>2026-03-22T08:53:26.765Z</time></trkpt><trkpt lat="43.5302029" lon="11.3732986"><ele>778.0</ele><time>2026-03-22T08:53:27.765Z</time></trkpt><trkpt lat="43.5301074" lon="11.3732315"><ele>778.0</ele><time>2026-03-22T08:53:28.765Z</time></trkpt><trkpt lat="43.5300132" lon="11.3731649"><ele>778.0</ele><time>2026-03-22T08:53:29.765Z</time></trkpt><trkpt lat="43.5299185" lon="11.3730917"><ele>778.0</ele><time>2026-03-22T08:53:30.767Z</time></trkpt><trkpt lat="43.5298438" lon="11.3730007"><ele>778.0</ele><time>2026-03-22T08:53:31.767Z</time></trkpt><trkpt lat="43.5297664" lon="11.3728988"><ele>776.5</ele><time>2026-03-22T08:53:32.765Z</time></trkpt><trkpt lat="43.529694" lon="11.3727495"><ele>775.0</ele><time>2026-03-22T08:53:33.765Z</time></trkpt><trkpt lat="43.5296299" lon="11.3726199"><ele>773.5</ele><time>2026-03-22T08:53:34.765Z</time></trkpt><trkpt lat="43.5295738" lon="11.3724872"><ele>772.0</ele><time>2026-03-22T08:53:35.765Z</time></trkpt><trkpt lat="43.5295311" lon="11.372344"><ele>770.2</ele><time>2026-03-22T08:53:36.765Z</time></trkpt><trkpt lat="43.5295001" lon="11.3721859"><ele>768.4000000000001</ele><time>2026-03-22T08:53:37.767Z</time></trkpt><trkpt lat="43.5294828" lon="11.3720441"><ele>766.5999999999999</ele><time>2026-03-22T08:53:38.765Z</time></trkpt><trkpt lat="43.5294597" lon="11.3718955"><ele>764.8</ele><time>2026-03-22T08:53:39.767Z</time></trkpt><trkpt lat="43.5294264" lon="11.3717824"><ele>763.0</ele><time>2026-03-22T08:53:40.765Z</time></trkpt><trkpt lat="43.5294062" lon="11.3716582"><ele>763.0</ele><time>2026-03-22T08:53:41.765Z</time></trkpt><trkpt lat="43.5293889" lon="11.3715284"><ele>763.0</ele><time>2026-03-22T08:53:42.766Z</time></trkpt><trkpt lat="43.5293659" lon="11.3713965"><ele>763.0</ele><time>2026-03-22T08:53:43.766Z</time></trkpt><trkpt lat="43.5293176" lon="11.3712327"><ele>763.0</ele><time>2026-03-22T08:53:44.765Z</time></trkpt><trkpt lat="43.5292893" lon="11.3710993"><ele>763.0</ele><time>2026-03-22T08:53:45.765Z</time></trkpt><trkpt lat="43.5292719" lon="11.3709709"><ele>762.0</ele><time>2026-03-22T08:53:46.766Z</time></trkpt><trkpt lat="43.529243" lon="11.3708458"><ele>761.0</ele><time>2026-03-22T08:53:47.765Z</time></trkpt><trkpt lat="43.5292307" lon="11.3706933"><ele>760.0</ele><time>2026-03-22T08:53:48.766Z</time></trkpt><trkpt lat="43.5292324" lon="11.3705063"><ele>759.0</ele><time>2026-03-22T08:53:49.766Z</time></trkpt><trkpt lat="43.5292029" lon="11.3703661"><ele>758.0</ele><time>2026-03-22T08:53:50.766Z</time></trkpt><trkpt lat="43.529152" lon="11.3702401"><ele>756.8</ele><time>2026-03-22T08:53:51.765Z</time></trkpt><trkpt lat="43.529104" lon="11.3701325"><ele>755.5999999999999</ele><time>2026-03-22T08:53:52.767Z</time></trkpt><trkpt lat="43.5290375" lon="11.3700142"><ele>754.4000000000001</ele><time>2026-03-22T08:53:53.766Z</time></trkpt><trkpt lat="43.5289922" lon="11.3699003"><ele>753.2</ele><time>2026-03-22T08:53:54.766Z</time></trkpt><trkpt lat="43.5289509" lon="11.3697814"><ele>752.0</ele><time>2026-03-22T08:53:55.765Z</time></trkpt><trkpt lat="43.5289029" lon="11.369657"><ele>750.2</ele><time>2026-03-22T08:53:56.765Z</time></trkpt><trkpt lat="43.5288415" lon="11.3695187"><ele>748.4000000000001</ele><time>2026-03-22T08:53:57.766Z</time></trkpt><trkpt lat="43.5288092" lon="11.3693716"><ele>746.5999999999999</ele><time>2026-03-22T08:53:58.766Z</time></trkpt><trkpt lat="43.5287727" lon="11.3692504"><ele>744.8</ele><time>2026-03-22T08:53:59.765Z</time></trkpt><trkpt lat="43.5287449" lon="11.3691306"><ele>743.0</ele><time>2026-03-22T08:54:00.766Z</time></trkpt><trkpt lat="43.5286848" lon="11.369085"><ele>742.0</ele><time>2026-03-22T08:54:01.767Z</time></trkpt><trkpt lat="43.5286371" lon="11.3690229"><ele>741.0</ele><time>2026-03-22T08:54:02.766Z</time></trkpt><trkpt lat="43.5285903" lon="11.3689445"><ele>740.0</ele><time>2026-03-22T08:54:03.766Z</time></trkpt><trkpt lat="43.5285465" lon="11.3688698"><ele>739.0</ele><time>2026-03-22T08:54:04.766Z</time></trkpt><trkpt lat="43.5284711" lon="11.3687974"><ele>738.0</ele><time>2026-03-22T08:54:05.766Z</time></trkpt><trkpt lat="43.5284149" lon="11.3686657"><ele>737.0</ele><time>2026-03-22T08:54:06.765Z</time></trkpt><trkpt lat="43.5283461" lon="11.3685768"><ele>735.8333333333333</ele><time>2026-03-22T08:54:07.765Z</time></trkpt><trkpt lat="43.5282778" lon="11.3685031"><ele>734.6666666666666</ele><time>2026-03-22T08:54:08.766Z</time></trkpt><trkpt lat="43.5282121" lon="11.3684539"><ele>733.5</ele><time>2026-03-22T08:54:09.765Z</time></trkpt><trkpt lat="43.528149" lon="11.3683937"><ele>732.3333333333334</ele><time>2026-03-22T08:54:10.765Z</time></trkpt><trkpt lat="43.5280869" lon="11.3683127"><ele>731.1666666666667</ele><time>2026-03-22T08:54:11.766Z</time></trkpt><trkpt lat="43.5280228" lon="11.3682206"><ele>730.0</ele><time>2026-03-22T08:54:12.766Z</time></trkpt><trkpt lat="43.5279723" lon="11.3681278"><ele>730.0</ele><time>2026-03-22T08:54:13.765Z</time></trkpt><trkpt lat="43.5279312" lon="11.3680319"><ele>730.0</ele><time>2026-03-22T08:54:14.765Z</time></trkpt><trkpt lat="43.527884" lon="11.3679189"><ele>730.0</ele><time>2026-03-22T08:54:15.765Z</time></trkpt><trkpt lat="43.5278357" lon="11.3678029"><ele>730.0</ele><time>2026-03-22T08:54:16.766Z</time></trkpt><trkpt lat="43.5277704" lon="11.3676769"><ele>730.0</ele><time>2026-03-22T08:54:17.765Z</time></trkpt><trkpt lat="43.5277075" lon="11.36755"><ele>728.0</ele><time>2026-03-22T08:54:18.766Z</time></trkpt><trkpt lat="43.5276667" lon="11.3674485"><ele>726.0</ele><time>2026-03-22T08:54:19.765Z</time></trkpt><trkpt lat="43.5276215" lon="11.3673579"><ele>724.0</ele><time>2026-03-22T08:54:20.765Z</time></trkpt><trkpt lat="43.5275929" lon="11.3672709"><ele>722.0</ele><time>2026-03-22T08:54:21.767Z</time></trkpt><trkpt lat="43.5275405" lon="11.3671624"><ele>720.0</ele><time>2026-03-22T08:54:23.765Z</time></trkpt><trkpt lat="43.5274999" lon="11.3670462"><ele>718.0</ele><time>2026-03-22T09:03:41.768Z</time></trkpt><trkpt lat="43.5274683" lon="11.3669661"><ele>717.5</ele><time>2026-03-22T09:03:42.768Z</time></trkpt><trkpt lat="43.5274391" lon="11.3668752"><ele>717.0</ele><time>2026-03-22T09:03:43.768Z</time></trkpt><trkpt lat="43.5273984" lon="11.3667818"><ele>716.5</ele><time>2026-03-22T09:03:44.768Z</time></trkpt><trkpt lat="43.5273559" lon="11.3666817"><ele>716.0</ele><time>2026-03-22T09:03:45.767Z</time></trkpt><trkpt lat="43.5273054" lon="11.3665802"><ele>715.5</ele><time>2026-03-22T09:03:46.769Z</time></trkpt><trkpt lat="43.5272694" lon="11.3664832"><ele>715.0</ele><time>2026-03-22T09:03:47.767Z</time></trkpt><trkpt lat="43.5272383" lon="11.3663779"><ele>713.8333333333334</ele><time>2026-03-22T09:03:48.768Z</time></trkpt><trkpt lat="43.5272062" lon="11.3662768"><ele>712.6666666666667</ele><time>2026-03-22T09:03:49.768Z</time></trkpt><trkpt lat="43.5271704" lon="11.3661829"><ele>711.5</ele><time>2026-03-22T09:03:50.769Z</time></trkpt><trkpt lat="43.5271366" lon="11.3661008"><ele>710.3333333333334</ele><time>2026-03-22T09:03:51.768Z</time></trkpt><trkpt lat="43.5270926" lon="11.3660183"><ele>709.1666666666666</ele><time>2026-03-22T09:03:52.767Z</time></trkpt><trkpt lat="43.5270549" lon="11.3659182"><ele>708.0</ele><time>2026-03-22T09:03:53.768Z</time></trkpt><trkpt lat="43.5270133" lon="11.36581"><ele>707.5</ele><time>2026-03-22T09:03:54.768Z</time></trkpt><trkpt lat="43.5269649" lon="11.3657102"><ele>707.0</ele><time>2026-03-22T09:03:55.769Z</time></trkpt><trkpt lat="43.5269103" lon="11.365606"><ele>706.5</ele><time>2026-03-22T09:03:56.767Z</time></trkpt><trkpt lat="43.5268628" lon="11.3655108"><ele>706.0</ele><time>2026-03-22T09:03:57.767Z</time></trkpt><trkpt lat="43.5268057" lon="11.365407"><ele>705.5</ele><time>2026-03-22T09:03:58.768Z</time></trkpt><trkpt lat="43.5267737" lon="11.3652987"><ele>705.0</ele><time>2026-03-22T09:03:59.768Z</time></trkpt><trkpt lat="43.5267336" lon="11.3651853"><ele>704.3333333333334</ele><time>2026-03-22T09:04:00.768Z</time></trkpt><trkpt lat="43.5266872" lon="11.3650805"><ele>703.6666666666666</ele><time>2026-03-22T09:04:01.767Z</time></trkpt><trkpt lat="43.5266413" lon="11.3649852"><ele>703.0</ele><time>2026-03-22T09:04:02.768Z</time></trkpt><trkpt lat="43.5265918" lon="11.3648889"><ele>702.3333333333333</ele><time>2026-03-22T09:04:03.769Z</time></trkpt><trkpt lat="43.5265381" lon="11.364793"><ele>701.6666666666666</ele><time>2026-03-22T09:04:04.767Z</time></trkpt><trkpt lat="43.5264901" lon="11.3646951"><ele>701.0</ele><time>2026-03-22T09:04:05.768Z</time></trkpt><trkpt lat="43.5264303" lon="11.3646007"><ele>699.4</ele><time>2026-03-22T09:04:06.769Z</time></trkpt><trkpt lat="43.5263714" lon="11.3645052"><ele>697.8</ele><time>2026-03-22T09:04:07.767Z</time></trkpt><trkpt lat="43.5263047" lon="11.3643999"><ele>696.1999999999999</ele><time>2026-03-22T09:04:08.768Z</time></trkpt><trkpt lat="43.5262391" lon="11.3642817"><ele>694.5999999999999</ele><time>2026-03-22T09:04:09.769Z</time></trkpt><trkpt lat="43.526175" lon="11.3641454"><ele>693.0</ele><time>2026-03-22T09:04:10.769Z</time></trkpt><trkpt lat="43.5261205" lon="11.3639951"><ele>693.0</ele><time>2026-03-22T09:04:11.767Z</time></trkpt><trkpt lat="43.5260779" lon="11.3638373"><ele>693.0</ele><time>2026-03-22T09:04:12.767Z</time></trkpt><trkpt lat="43.5260458" lon="11.3636764"><ele>693.0</ele><time>2026-03-22T09:04:13.767Z</time></trkpt><trkpt lat="43.5260256" lon="11.3635122"><ele>693.0</ele><time>2026-03-22T09:04:14.768Z</time></trkpt><trkpt lat="43.5260058" lon="11.3633241"><ele>693.0</ele><time>2026-03-22T09:04:15.768Z</time></trkpt><trkpt lat="43.5259847" lon="11.3631172"><ele>693.0</ele><time>2026-03-22T09:04:16.768Z</time></trkpt><trkpt lat="43.5259648" lon="11.3629116"><ele>693.0</ele><time>2026-03-22T09:04:17.768Z</time></trkpt><trkpt lat="43.5259454" lon="11.362726"><ele>693.0</ele><time>2026-03-22T09:04:18.768Z</time></trkpt><trkpt lat="43.5259263" lon="11.3625276"><ele>693.0</ele><time>2026-03-22T09:04:19.767Z</time></trkpt><trkpt lat="43.5259121" lon="11.3623555"><ele>693.0</ele><time>2026-03-22T09:04:20.769Z</time></trkpt><trkpt lat="43.5258964" lon="11.3621685"><ele>693.0</ele><time>2026-03-22T09:04:21.768Z</time></trkpt><trkpt lat="43.5258781" lon="11.3619919"><ele>693.0</ele><time>2026-03-22T09:04:22.768Z</time></trkpt><trkpt lat="43.5258634" lon="11.3617994"><ele>693.0</ele><time>2026-03-22T09:04:23.768Z</time></trkpt><trkpt lat="43.5258448" lon="11.3616172"><ele>693.0</ele><time>2026-03-22T09:04:24.769Z</time></trkpt><trkpt lat="43.5258298" lon="11.3614286"><ele>693.0</ele><time>2026-03-22T09:04:25.767Z</time></trkpt><trkpt lat="43.5258214" lon="11.3612549"><ele>693.0</ele><time>2026-03-22T09:04:26.767Z</time></trkpt><trkpt lat="43.5258219" lon="11.3610893"><ele>692.25</ele><time>2026-03-22T09:04:27.767Z</time></trkpt><trkpt lat="43.5258294" lon="11.3609267"><ele>691.5</ele><time>2026-03-22T09:04:28.769Z</time></trkpt><trkpt lat="43.5258709" lon="11.3607938"><ele>690.75</ele><time>2026-03-22T09:04:29.768Z</time></trkpt><trkpt lat="43.5259301" lon="11.3606461"><ele>690.0</ele><time>2026-03-22T09:04:30.767Z</time></trkpt><trkpt lat="43.5260137" lon="11.3605223"><ele>688.75</ele><time>2026-03-22T09:04:31.768Z</time></trkpt><trkpt lat="43.5261002" lon="11.3603761"><ele>687.5</ele><time>2026-03-22T09:04:32.767Z</time></trkpt><trkpt lat="43.5261999" lon="11.3602354"><ele>686.25</ele><time>2026-03-22T09:04:33.767Z</time></trkpt><trkpt lat="43.5262989" lon="11.3600894"><ele>685.0</ele><time>2026-03-22T09:04:34.768Z</time></trkpt><trkpt lat="43.5263998" lon="11.3599348"><ele>685.0</ele><time>2026-03-22T09:04:35.767Z</time></trkpt><trkpt lat="43.5265071" lon="11.3597782"><ele>685.0</ele><time>2026-03-22T09:04:36.768Z</time></trkpt><trkpt lat="43.5266181" lon="11.3596287"><ele>685.0</ele><time>2026-03-22T09:04:37.767Z</time></trkpt><trkpt lat="43.5267371" lon="11.3594861"><ele>688.6666666666667</ele><time>2026-03-22T09:04:38.767Z</time></trkpt><trkpt lat="43.5268637" lon="11.359348"><ele>692.3333333333334</ele><time>2026-03-22T09:04:39.767Z</time></trkpt><trkpt lat="43.526992" lon="11.3592249"><ele>696.0</ele><time>2026-03-22T09:04:40.767Z</time></trkpt><trkpt lat="43.5271063" lon="11.3591155"><ele>691.5</ele><time>2026-03-22T09:04:41.769Z</time></trkpt><trkpt lat="43.5272119" lon="11.3589826"><ele>687.0</ele><time>2026-03-22T09:04:42.769Z</time></trkpt><trkpt lat="43.5273082" lon="11.3588379"><ele>682.5</ele><time>2026-03-22T09:04:43.768Z</time></trkpt><trkpt lat="43.5273931" lon="11.3586821"><ele>678.0</ele><time>2026-03-22T09:04:44.767Z</time></trkpt><trkpt lat="43.5274624" lon="11.3585212"><ele>678.0</ele><time>2026-03-22T09:04:45.769Z</time></trkpt><trkpt lat="43.5275145" lon="11.3583501"><ele>678.0</ele><time>2026-03-22T09:04:46.767Z</time></trkpt><trkpt lat="43.5275472" lon="11.3581745"><ele>678.0</ele><time>2026-03-22T09:04:47.768Z</time></trkpt><trkpt lat="43.5275538" lon="11.3580043"><ele>678.0</ele><time>2026-03-22T09:04:48.767Z</time></trkpt><trkpt lat="43.5275462" lon="11.3578383"><ele>677.75</ele><time>2026-03-22T09:04:49.767Z</time></trkpt><trkpt lat="43.5275386" lon="11.3576707"><ele>677.5</ele><time>2026-03-22T09:04:50.768Z</time></trkpt><trkpt lat="43.5275576" lon="11.357506"><ele>677.25</ele><time>2026-03-22T09:04:51.768Z</time></trkpt><trkpt lat="43.5275905" lon="11.3573338"><ele>677.0</ele><time>2026-03-22T09:04:52.767Z</time></trkpt><trkpt lat="43.5276439" lon="11.357169"><ele>676.5</ele><time>2026-03-22T09:04:53.767Z</time></trkpt><trkpt lat="43.5277096" lon="11.357008"><ele>676.0</ele><time>2026-03-22T09:04:54.767Z</time></trkpt><trkpt lat="43.527778" lon="11.3568469"><ele>675.5</ele><time>2026-03-22T09:04:55.768Z</time></trkpt><trkpt lat="43.5278469" lon="11.3566863"><ele>675.0</ele><time>2026-03-22T09:04:56.768Z</time></trkpt><trkpt lat="43.5279163" lon="11.3565277"><ele>674.6</ele><time>2026-03-22T09:04:57.767Z</time></trkpt><trkpt lat="43.5279791" lon="11.3563808"><ele>674.2</ele><time>2026-03-22T09:04:58.768Z</time></trkpt><trkpt lat="43.5280358" lon="11.3562404"><ele>673.8</ele><time>2026-03-22T09:04:59.768Z</time></trkpt><trkpt lat="43.5280859" lon="11.3561238"><ele>673.4</ele><time>2026-03-22T09:05:00.768Z</time></trkpt><trkpt lat="43.5281291" lon="11.3560292"><ele>673.0</ele><time>2026-03-22T09:05:01.767Z</time></trkpt><trkpt lat="43.5281619" lon="11.35595"><ele>671.2</ele><time>2026-03-22T09:05:02.768Z</time></trkpt><trkpt lat="43.5281811" lon="11.3558302"><ele>669.4</ele><time>2026-03-22T09:05:04.769Z</time></trkpt><trkpt lat="43.5281099" lon="11.3557751"><ele>667.6</ele><time>2026-03-22T09:05:06.769Z</time></trkpt><trkpt lat="43.5279579" lon="11.3557609"><ele>665.8000000000001</ele><time>2026-03-22T09:05:08.768Z</time></trkpt><trkpt lat="43.5278597" lon="11.3557517"><ele>664.0</ele><time>2026-03-22T09:05:09.768Z</time></trkpt><trkpt lat="43.5277432" lon="11.3557276"><ele>663.0</ele><time>2026-03-22T09:05:10.768Z</time></trkpt><trkpt lat="43.5276146" lon="11.3557"><ele>662.0</ele><time>2026-03-22T09:05:11.767Z</time></trkpt><trkpt lat="43.527469" lon="11.3556744"><ele>661.0</ele><time>2026-03-22T09:05:12.768Z</time></trkpt><trkpt lat="43.527327" lon="11.3556644"><ele>660.0</ele><time>2026-03-22T09:05:13.768Z</time></trkpt><trkpt lat="43.5271714" lon="11.3556728"><ele>660.25</ele><time>2026-03-22T09:05:14.768Z</time></trkpt><trkpt lat="43.5270219" lon="11.3556786"><ele>660.5</ele><time>2026-03-22T09:05:15.769Z</time></trkpt><trkpt lat="43.5268859" lon="11.3556863"><ele>660.75</ele><time>2026-03-22T09:05:16.768Z</time></trkpt><trkpt lat="43.5267607" lon="11.3556499"><ele>661.0</ele><time>2026-03-22T09:05:17.768Z</time></trkpt><trkpt lat="43.5266226" lon="11.3555845"><ele>655.6666666666667</ele><time>2026-03-22T09:05:18.768Z</time></trkpt><trkpt lat="43.5264586" lon="11.3554979"><ele>650.3333333333334</ele><time>2026-03-22T09:05:19.767Z</time></trkpt><trkpt lat="43.526297" lon="11.3554175"><ele>645.0</ele><time>2026-03-22T09:05:20.767Z</time></trkpt><trkpt lat="43.5261368" lon="11.3553422"><ele>645.0</ele><time>2026-03-22T09:05:21.767Z</time></trkpt><trkpt lat="43.5259855" lon="11.3552615"><ele>645.0</ele><time>2026-03-22T09:05:22.768Z</time></trkpt><trkpt lat="43.525846" lon="11.3551723"><ele>645.0</ele><time>2026-03-22T09:05:23.767Z</time></trkpt><trkpt lat="43.5257174" lon="11.3550987"><ele>645.0</ele><time>2026-03-22T09:05:24.769Z</time></trkpt><trkpt lat="43.5255958" lon="11.3550234"><ele>645.0</ele><time>2026-03-22T09:05:25.767Z</time></trkpt><trkpt lat="43.5254761" lon="11.3549648"><ele>645.0</ele><time>2026-03-22T09:05:26.767Z</time></trkpt><trkpt lat="43.5253595" lon="11.3549018"><ele>645.0</ele><time>2026-03-22T09:05:27.768Z</time></trkpt><trkpt lat="43.5252404" lon="11.3548721"><ele>645.0</ele><time>2026-03-22T09:05:28.769Z</time></trkpt><trkpt lat="43.525091" lon="11.3549149"><ele>645.0</ele><time>2026-03-22T09:05:29.767Z</time></trkpt><trkpt lat="43.5249587" lon="11.3549018"><ele>645.0</ele><time>2026-03-22T09:05:30.768Z</time></trkpt><trkpt lat="43.5248077" lon="11.354852"><ele>645.0</ele><time>2026-03-22T09:05:31.767Z</time></trkpt><trkpt lat="43.5246692" lon="11.3547974"><ele>646.25</ele><time>2026-03-22T09:05:32.768Z</time></trkpt><trkpt lat="43.5245424" lon="11.3547459"><ele>647.5</ele><time>2026-03-22T09:05:33.768Z</time></trkpt><trkpt lat="43.5244243" lon="11.3546966"><ele>648.75</ele><time>2026-03-22T09:05:34.767Z</time></trkpt><trkpt lat="43.5243277" lon="11.3546468"><ele>650.0</ele><time>2026-03-22T09:05:35.768Z</time></trkpt><trkpt lat="43.524248" lon="11.3545798"><ele>646.5</ele><time>2026-03-22T09:05:36.767Z</time></trkpt><trkpt lat="43.5241904" lon="11.3544886"><ele>643.0</ele><time>2026-03-22T09:05:37.767Z</time></trkpt><trkpt lat="43.5241609" lon="11.354353"><ele>639.5</ele><time>2026-03-22T09:05:38.767Z</time></trkpt><trkpt lat="43.5241315" lon="11.3541653"><ele>636.0</ele><time>2026-03-22T09:05:39.769Z</time></trkpt><trkpt lat="43.5241067" lon="11.353994"><ele>633.2</ele><time>2026-03-22T09:05:40.768Z</time></trkpt><trkpt lat="43.524075" lon="11.353834"><ele>630.4000000000001</ele><time>2026-03-22T09:05:41.768Z</time></trkpt><trkpt lat="43.5240333" lon="11.3536801"><ele>627.6</ele><time>2026-03-22T09:05:42.767Z</time></trkpt><trkpt lat="43.5239992" lon="11.3535859"><ele>624.8000000000001</ele><time>2026-03-22T09:05:43.767Z</time></trkpt><trkpt lat="43.5239524" lon="11.3534964"><ele>622.0</ele><time>2026-03-22T09:05:44.768Z</time></trkpt><trkpt lat="43.5238262" lon="11.3535512"><ele>622.0</ele><time>2026-03-22T09:05:45.767Z</time></trkpt><trkpt lat="43.5237498" lon="11.3535104"><ele>622.0</ele><time>2026-03-22T09:05:46.767Z</time></trkpt><trkpt lat="43.5236399" lon="11.3535522"><ele>622.0</ele><time>2026-03-22T09:05:47.768Z</time></trkpt><trkpt lat="43.5235186" lon="11.353622"><ele>622.0</ele><time>2026-03-22T09:05:48.768Z</time></trkpt><trkpt lat="43.5234083" lon="11.3536965"><ele>621.25</ele><time>2026-03-22T09:05:49.767Z</time></trkpt><trkpt lat="43.523289" lon="11.3538006"><ele>620.5</ele><time>2026-03-22T09:05:50.768Z</time></trkpt><trkpt lat="43.523174" lon="11.3538997"><ele>619.75</ele><time>2026-03-22T09:05:51.768Z</time></trkpt><trkpt lat="43.5230574" lon="11.353977"><ele>619.0</ele><time>2026-03-22T09:05:52.767Z</time></trkpt><trkpt lat="43.5229242" lon="11.3540302"><ele>622.0</ele><time>2026-03-22T09:05:53.767Z</time></trkpt><trkpt lat="43.5228069" lon="11.3540638"><ele>625.0</ele><time>2026-03-22T09:05:54.768Z</time></trkpt><trkpt lat="43.5226748" lon="11.3540658"><ele>628.0</ele><time>2026-03-22T09:05:55.767Z</time></trkpt><trkpt lat="43.5225534" lon="11.3540501"><ele>631.0</ele><time>2026-03-22T09:05:56.767Z</time></trkpt><trkpt lat="43.5224435" lon="11.353996"><ele>631.0</ele><time>2026-03-22T09:05:57.769Z</time></trkpt><trkpt lat="43.5223433" lon="11.3539294"><ele>631.0</ele><time>2026-03-22T09:05:58.769Z</time></trkpt><trkpt lat="43.5222491" lon="11.3538891"><ele>631.0</ele><time>2026-03-22T09:05:59.768Z</time></trkpt><trkpt lat="43.5221497" lon="11.3538452"><ele>631.0</ele><time>2026-03-22T09:06:00.767Z</time></trkpt><trkpt lat="43.5220574" lon="11.3537842"><ele>631.0</ele><time>2026-03-22T09:06:01.767Z</time></trkpt><trkpt lat="43.5219744" lon="11.3537109"><ele>628.8</ele><time>2026-03-22T09:06:02.769Z</time></trkpt><trkpt lat="43.5218925" lon="11.3536288"><ele>626.6</ele><time>2026-03-22T09:06:03.767Z</time></trkpt><trkpt lat="43.5218075" lon="11.3535385"><ele>624.4</ele><time>2026-03-22T09:06:04.767Z</time></trkpt><trkpt lat="43.5217143" lon="11.3534465"><ele>622.2</ele><time>2026-03-22T09:06:05.768Z</time></trkpt><trkpt lat="43.521618" lon="11.3533494"><ele>620.0</ele><time>2026-03-22T09:06:06.767Z</time></trkpt><trkpt lat="43.5215256" lon="11.3532688"><ele>620.0</ele><time>2026-03-22T09:06:07.768Z</time></trkpt><trkpt lat="43.5214508" lon="11.3532072"><ele>620.0</ele><time>2026-03-22T09:06:08.768Z</time></trkpt><trkpt lat="43.5213856" lon="11.3531578"><ele>620.0</ele><time>2026-03-22T09:06:09.767Z</time></trkpt><trkpt lat="43.5213066" lon="11.3530625"><ele>620.0</ele><time>2026-03-22T09:06:11.767Z</time></trkpt><trkpt lat="43.5212657" lon="11.3529326"><ele>620.0</ele><time>2026-03-22T09:06:13.767Z</time></trkpt><trkpt lat="43.5211975" lon="11.35281"><ele>619.8</ele><time>2026-03-22T09:06:15.767Z</time></trkpt><trkpt lat="43.521127" lon="11.3527554"><ele>619.6</ele><time>2026-03-22T09:06:16.767Z</time></trkpt><trkpt lat="43.5210355" lon="11.3526886"><ele>619.4</ele><time>2026-03-22T09:06:17.769Z</time></trkpt><trkpt lat="43.5209377" lon="11.3526288"><ele>619.2</ele><time>2026-03-22T09:06:18.767Z</time></trkpt><trkpt lat="43.5208401" lon="11.3525603"><ele>619.0</ele><time>2026-03-22T09:06:19.768Z</time></trkpt><trkpt lat="43.5207403" lon="11.3524657"><ele>619.0</ele><time>2026-03-22T09:06:20.768Z</time></trkpt><trkpt lat="43.5206367" lon="11.3523781"><ele>619.0</ele><time>2026-03-22T09:06:21.767Z</time></trkpt><trkpt lat="43.5205463" lon="11.3522665"><ele>619.0</ele><time>2026-03-22T09:06:22.768Z</time></trkpt><trkpt lat="43.5204696" lon="11.3521754"><ele>619.0</ele><time>2026-03-22T09:06:23.767Z</time></trkpt><trkpt lat="43.5204079" lon="11.3520769"><ele>619.0</ele><time>2026-03-22T09:06:24.767Z</time></trkpt><trkpt lat="43.5203424" lon="11.3519755"><ele>620.0</ele><time>2026-03-22T09:06:25.767Z</time></trkpt><trkpt lat="43.5202698" lon="11.3518673"><ele>621.0</ele><time>2026-03-22T09:06:26.769Z</time></trkpt><trkpt lat="43.5201962" lon="11.3517548"><ele>622.0</ele><time>2026-03-22T09:06:27.767Z</time></trkpt><trkpt lat="43.5201147" lon="11.3516367"><ele>623.0</ele><time>2026-03-22T09:06:28.769Z</time></trkpt><trkpt lat="43.5200335" lon="11.3515239"><ele>623.0</ele><time>2026-03-22T09:06:29.769Z</time></trkpt><trkpt lat="43.5199596" lon="11.3514093"><ele>623.0</ele><time>2026-03-22T09:06:30.767Z</time></trkpt><trkpt lat="43.5198905" lon="11.3512895"><ele>623.0</ele><time>2026-03-22T09:06:31.767Z</time></trkpt><trkpt lat="43.5198274" lon="11.3511648"><ele>623.0</ele><time>2026-03-22T09:06:32.767Z</time></trkpt><trkpt lat="43.5197633" lon="11.3510051"><ele>621.5</ele><time>2026-03-22T09:06:33.768Z</time></trkpt><trkpt lat="43.5197053" lon="11.3508437"><ele>620.0</ele><time>2026-03-22T09:06:34.767Z</time></trkpt><trkpt lat="43.5196469" lon="11.3506886"><ele>618.5</ele><time>2026-03-22T09:06:35.767Z</time></trkpt><trkpt lat="43.519593" lon="11.3505444"><ele>617.0</ele><time>2026-03-22T09:06:36.768Z</time></trkpt><trkpt lat="43.51955" lon="11.3504205"><ele>616.8333333333333</ele><time>2026-03-22T09:06:37.768Z</time></trkpt><trkpt lat="43.5195118" lon="11.3503181"><ele>616.6666666666666</ele><time>2026-03-22T09:06:38.767Z</time></trkpt><trkpt lat="43.5194839" lon="11.3502183"><ele>616.5</ele><time>2026-03-22T09:06:39.768Z</time></trkpt><trkpt lat="43.5194396" lon="11.3501159"><ele>616.3333333333334</ele><time>2026-03-22T09:06:40.767Z</time></trkpt><trkpt lat="43.5193676" lon="11.3500143"><ele>616.1666666666667</ele><time>2026-03-22T09:06:41.768Z</time></trkpt><trkpt lat="43.5193129" lon="11.3499123"><ele>616.0</ele><time>2026-03-22T09:06:42.768Z</time></trkpt><trkpt lat="43.5192604" lon="11.3498315"><ele>616.0</ele><time>2026-03-22T09:06:43.768Z</time></trkpt><trkpt lat="43.5191995" lon="11.3497609"><ele>616.0</ele><time>2026-03-22T09:06:44.767Z</time></trkpt><trkpt lat="43.5191874" lon="11.349627"><ele>616.0</ele><time>2026-03-22T09:06:46.767Z</time></trkpt><trkpt lat="43.5192117" lon="11.3495409"><ele>616.0</ele><time>2026-03-22T09:06:47.767Z</time></trkpt><trkpt lat="43.5192553" lon="11.3494494"><ele>616.0</ele><time>2026-03-22T09:06:48.768Z</time></trkpt><trkpt lat="43.5193217" lon="11.3493613"><ele>616.0</ele><time>2026-03-22T09:06:49.768Z</time></trkpt><trkpt lat="43.5193914" lon="11.3492798"><ele>615.2</ele><time>2026-03-22T09:06:50.767Z</time></trkpt><trkpt lat="43.5194521" lon="11.3491774"><ele>614.4000000000001</ele><time>2026-03-22T09:06:51.767Z</time></trkpt><trkpt lat="43.5195083" lon="11.3490728"><ele>613.6</ele><time>2026-03-22T09:06:52.767Z</time></trkpt><trkpt lat="43.5195767" lon="11.3489713"><ele>612.8000000000001</ele><time>2026-03-22T09:06:53.768Z</time></trkpt><trkpt lat="43.5196471" lon="11.3488792"><ele>612.0</ele><time>2026-03-22T09:06:54.769Z</time></trkpt><trkpt lat="43.5197122" lon="11.3487786"><ele>610.6666666666666</ele><time>2026-03-22T09:06:55.767Z</time></trkpt><trkpt lat="43.519774" lon="11.3486807"><ele>609.3333333333334</ele><time>2026-03-22T09:06:56.767Z</time></trkpt><trkpt lat="43.519837" lon="11.3485864"><ele>608.0</ele><time>2026-03-22T09:06:57.768Z</time></trkpt><trkpt lat="43.5198938" lon="11.3484998"><ele>606.6666666666667</ele><time>2026-03-22T09:06:58.769Z</time></trkpt><trkpt lat="43.5199379" lon="11.3484016"><ele>605.3333333333334</ele><time>2026-03-22T09:06:59.768Z</time></trkpt><trkpt lat="43.519979" lon="11.3482922"><ele>604.0</ele><time>2026-03-22T09:07:00.768Z</time></trkpt><trkpt lat="43.520026" lon="11.3481897"><ele>604.0</ele><time>2026-03-22T09:07:01.768Z</time></trkpt><trkpt lat="43.5200812" lon="11.3480824"><ele>604.0</ele><time>2026-03-22T09:07:02.768Z</time></trkpt><trkpt lat="43.5201301" lon="11.3479953"><ele>604.0</ele><time>2026-03-22T09:07:03.768Z</time></trkpt><trkpt lat="43.5201856" lon="11.347897"><ele>604.0</ele><time>2026-03-22T09:07:04.767Z</time></trkpt><trkpt lat="43.5202417" lon="11.3477953"><ele>604.0</ele><time>2026-03-22T09:07:05.768Z</time></trkpt><trkpt lat="43.5202905" lon="11.3477204"><ele>604.0</ele><time>2026-03-22T09:07:06.767Z</time></trkpt><trkpt lat="43.5203642" lon="11.3476391"><ele>604.1666666666667</ele><time>2026-03-22T09:07:08.768Z</time></trkpt><trkpt lat="43.5204161" lon="11.3475145"><ele>604.3333333333334</ele><time>2026-03-22T09:07:10.767Z</time></trkpt><trkpt lat="43.5204376" lon="11.3474105"><ele>604.5</ele><time>2026-03-22T09:07:11.768Z</time></trkpt><trkpt lat="43.5204647" lon="11.3472818"><ele>604.6666666666666</ele><time>2026-03-22T09:07:12.767Z</time></trkpt><trkpt lat="43.5204877" lon="11.3471705"><ele>604.8333333333333</ele><time>2026-03-22T09:07:13.767Z</time></trkpt><trkpt lat="43.5205034" lon="11.3470706"><ele>605.0</ele><time>2026-03-22T09:07:14.767Z</time></trkpt><trkpt lat="43.5205042" lon="11.346976"><ele>605.0</ele><time>2026-03-22T09:07:15.767Z</time></trkpt><trkpt lat="43.5204842" lon="11.3468196"><ele>605.0</ele><time>2026-03-22T09:07:17.768Z</time></trkpt><trkpt lat="43.5204986" lon="11.3467108"><ele>605.0</ele><time>2026-03-22T09:07:18.768Z</time></trkpt><trkpt lat="43.5205084" lon="11.3466114"><ele>605.0</ele><time>2026-03-22T09:07:19.768Z</time></trkpt><trkpt lat="43.5205168" lon="11.3465104"><ele>605.0</ele><time>2026-03-22T09:07:20.767Z</time></trkpt><trkpt lat="43.5205138" lon="11.3463732"><ele>605.0</ele><time>2026-03-22T09:07:22.768Z</time></trkpt><trkpt lat="43.5204687" lon="11.3463081"><ele>604.8</ele><time>2026-03-22T09:07:24.769Z</time></trkpt><trkpt lat="43.5203623" lon="11.3462783"><ele>604.6</ele><time>2026-03-22T09:07:26.769Z</time></trkpt><trkpt lat="43.5202881" lon="11.3461967"><ele>604.4</ele><time>2026-03-22T09:07:27.767Z</time></trkpt><trkpt lat="43.5202236" lon="11.3461261"><ele>604.2</ele><time>2026-03-22T09:07:28.767Z</time></trkpt><trkpt lat="43.5201531" lon="11.3460418"><ele>604.0</ele><time>2026-03-22T09:07:29.767Z</time></trkpt><trkpt lat="43.520082" lon="11.3459837"><ele>604.0</ele><time>2026-03-22T09:07:30.768Z</time></trkpt><trkpt lat="43.5199889" lon="11.3459483"><ele>604.0</ele><time>2026-03-22T09:07:31.768Z</time></trkpt><trkpt lat="43.5199139" lon="11.3459015"><ele>604.0</ele><time>2026-03-22T09:07:32.768Z</time></trkpt><trkpt lat="43.5198149" lon="11.3458374"><ele>604.0</ele><time>2026-03-22T09:07:34.768Z</time></trkpt><trkpt lat="43.5197336" lon="11.34577"><ele>604.0</ele><time>2026-03-22T09:07:36.767Z</time></trkpt><trkpt lat="43.5196261" lon="11.3456944"><ele>603.0</ele><time>2026-03-22T09:07:38.768Z</time></trkpt><trkpt lat="43.5195504" lon="11.3456542"><ele>602.0</ele><time>2026-03-22T09:07:39.768Z</time></trkpt><trkpt lat="43.5194872" lon="11.3456139"><ele>601.0</ele><time>2026-03-22T09:07:40.767Z</time></trkpt><trkpt lat="43.5193964" lon="11.3455644"><ele>600.0</ele><time>2026-03-22T09:07:42.767Z</time></trkpt><trkpt lat="43.519323" lon="11.3455253"><ele>599.0</ele><time>2026-03-22T09:07:43.769Z</time></trkpt><trkpt lat="43.5192424" lon="11.3454753"><ele>598.0</ele><time>2026-03-22T09:07:44.768Z</time></trkpt><trkpt lat="43.5191781" lon="11.345422"><ele>598.0</ele><time>2026-03-22T09:07:45.768Z</time></trkpt><trkpt lat="43.5191293" lon="11.3453528"><ele>598.0</ele><time>2026-03-22T09:07:46.768Z</time></trkpt><trkpt lat="43.5190909" lon="11.3452616"><ele>598.0</ele><time>2026-03-22T09:07:47.767Z</time></trkpt><trkpt lat="43.5190481" lon="11.3450935"><ele>598.0</ele><time>2026-03-22T09:07:49.768Z</time></trkpt><trkpt lat="43.5190155" lon="11.3449453"><ele>598.0</ele><time>2026-03-22T09:07:50.767Z</time></trkpt><trkpt lat="43.519003" lon="11.3448261"><ele>597.1999999999999</ele><time>2026-03-22T09:07:51.768Z</time></trkpt><trkpt lat="43.5190074" lon="11.3446989"><ele>596.4</ele><time>2026-03-22T09:07:52.768Z</time></trkpt><trkpt lat="43.5190221" lon="11.3445606"><ele>595.5999999999999</ele><time>2026-03-22T09:07:53.768Z</time></trkpt><trkpt lat="43.5190415" lon="11.3444271"><ele>594.8</ele><time>2026-03-22T09:07:54.768Z</time></trkpt><trkpt lat="43.5190592" lon="11.3442996"><ele>594.0</ele><time>2026-03-22T09:07:55.769Z</time></trkpt><trkpt lat="43.5190646" lon="11.3441597"><ele>594.0</ele><time>2026-03-22T09:07:56.768Z</time></trkpt><trkpt lat="43.5190923" lon="11.3440505"><ele>594.0</ele><time>2026-03-22T09:07:57.769Z</time></trkpt><trkpt lat="43.5191156" lon="11.3439182"><ele>594.0</ele><time>2026-03-22T09:07:58.768Z</time></trkpt><trkpt lat="43.5191379" lon="11.3438064"><ele>594.0</ele><time>2026-03-22T09:07:59.769Z</time></trkpt><trkpt lat="43.5191486" lon="11.3436858"><ele>594.0</ele><time>2026-03-22T09:08:00.767Z</time></trkpt><trkpt lat="43.5191596" lon="11.3435784"><ele>594.0</ele><time>2026-03-22T09:08:01.767Z</time></trkpt><trkpt lat="43.5191713" lon="11.3434743"><ele>592.7142857142858</ele><time>2026-03-22T09:08:02.768Z</time></trkpt><trkpt lat="43.5191637" lon="11.3433592"><ele>591.4285714285714</ele><time>2026-03-22T09:08:03.767Z</time></trkpt><trkpt lat="43.5191565" lon="11.3432391"><ele>590.1428571428571</ele><time>2026-03-22T09:08:04.768Z</time></trkpt><trkpt lat="43.5191511" lon="11.3431381"><ele>588.8571428571429</ele><time>2026-03-22T09:08:05.768Z</time></trkpt><trkpt lat="43.5191427" lon="11.3430443"><ele>587.5714285714286</ele><time>2026-03-22T09:08:06.769Z</time></trkpt><trkpt lat="43.5191236" lon="11.3429574"><ele>586.2857142857143</ele><time>2026-03-22T09:08:07.768Z</time></trkpt><trkpt lat="43.5190954" lon="11.3428749"><ele>585.0</ele><time>2026-03-22T09:08:08.769Z</time></trkpt><trkpt lat="43.5190352" lon="11.3427378"><ele>584.0</ele><time>2026-03-22T09:08:10.767Z</time></trkpt><trkpt lat="43.5190224" lon="11.3426082"><ele>583.0</ele><time>2026-03-22T09:08:12.768Z</time></trkpt><trkpt lat="43.5190301" lon="11.3424939"><ele>582.0</ele><time>2026-03-22T09:08:13.768Z</time></trkpt><trkpt lat="43.5190563" lon="11.3423571"><ele>581.0</ele><time>2026-03-22T09:08:14.769Z</time></trkpt><trkpt lat="43.5190855" lon="11.3422203"><ele>580.0</ele><time>2026-03-22T09:08:15.768Z</time></trkpt><trkpt lat="43.5191059" lon="11.3421041"><ele>578.8333333333334</ele><time>2026-03-22T09:08:16.767Z</time></trkpt><trkpt lat="43.5191494" lon="11.3420222"><ele>577.6666666666667</ele><time>2026-03-22T09:08:17.769Z</time></trkpt><trkpt lat="43.519154" lon="11.3418562"><ele>576.5</ele><time>2026-03-22T09:08:19.768Z</time></trkpt><trkpt lat="43.5191067" lon="11.3417163"><ele>575.3333333333334</ele><time>2026-03-22T09:08:21.768Z</time></trkpt><trkpt lat="43.5190825" lon="11.341636"><ele>574.1666666666666</ele><time>2026-03-22T09:08:22.768Z</time></trkpt><trkpt lat="43.5190679" lon="11.3415513"><ele>573.0</ele><time>2026-03-22T09:08:23.768Z</time></trkpt><trkpt lat="43.5190584" lon="11.3414638"><ele>571.1666666666666</ele><time>2026-03-22T09:08:24.767Z</time></trkpt><trkpt lat="43.5190311" lon="11.3413673"><ele>569.3333333333334</ele><time>2026-03-22T09:08:25.767Z</time></trkpt><trkpt lat="43.5189975" lon="11.3412747"><ele>567.5</ele><time>2026-03-22T09:08:26.767Z</time></trkpt><trkpt lat="43.5189548" lon="11.3411783"><ele>565.6666666666667</ele><time>2026-03-22T09:08:27.769Z</time></trkpt><trkpt lat="43.5188731" lon="11.3410856"><ele>563.8333333333334</ele><time>2026-03-22T09:08:28.769Z</time></trkpt><trkpt lat="43.5188036" lon="11.3409865"><ele>562.0</ele><time>2026-03-22T09:08:29.768Z</time></trkpt><trkpt lat="43.5187188" lon="11.3408903"><ele>561.2</ele><time>2026-03-22T09:08:30.769Z</time></trkpt><trkpt lat="43.5186334" lon="11.3408096"><ele>560.4000000000001</ele><time>2026-03-22T09:08:31.767Z</time></trkpt><trkpt lat="43.5185511" lon="11.34074"><ele>559.5999999999999</ele><time>2026-03-22T09:08:32.768Z</time></trkpt><trkpt lat="43.5184647" lon="11.340678"><ele>558.8</ele><time>2026-03-22T09:08:33.768Z</time></trkpt><trkpt lat="43.5183828" lon="11.3406127"><ele>558.0</ele><time>2026-03-22T09:08:34.768Z</time></trkpt><trkpt lat="43.5183226" lon="11.3405328"><ele>557.8</ele><time>2026-03-22T09:08:35.768Z</time></trkpt><trkpt lat="43.5182692" lon="11.3404327"><ele>557.5999999999999</ele><time>2026-03-22T09:08:36.769Z</time></trkpt><trkpt lat="43.5182195" lon="11.3402975"><ele>557.4000000000001</ele><time>2026-03-22T09:08:37.767Z</time></trkpt><trkpt lat="43.5181787" lon="11.3401686"><ele>557.2</ele><time>2026-03-22T09:08:38.767Z</time></trkpt><trkpt lat="43.5181453" lon="11.3400555"><ele>557.0</ele><time>2026-03-22T09:08:39.769Z</time></trkpt><trkpt lat="43.5181169" lon="11.3399445"><ele>557.0</ele><time>2026-03-22T09:08:40.768Z</time></trkpt><trkpt lat="43.5180906" lon="11.3398275"><ele>557.0</ele><time>2026-03-22T09:08:41.767Z</time></trkpt><trkpt lat="43.5180758" lon="11.3397213"><ele>557.0</ele><time>2026-03-22T09:08:42.768Z</time></trkpt><trkpt lat="43.5180671" lon="11.3396222"><ele>557.0</ele><time>2026-03-22T09:08:43.768Z</time></trkpt><trkpt lat="43.5180751" lon="11.3394638"><ele>557.0</ele><time>2026-03-22T09:08:45.767Z</time></trkpt><trkpt lat="43.5181445" lon="11.3393218"><ele>556.2</ele><time>2026-03-22T09:08:47.768Z</time></trkpt><trkpt lat="43.5182083" lon="11.3392487"><ele>555.4000000000001</ele><time>2026-03-22T09:08:48.768Z</time></trkpt><trkpt lat="43.5182815" lon="11.3391797"><ele>554.5999999999999</ele><time>2026-03-22T09:08:49.768Z</time></trkpt><trkpt lat="43.5183386" lon="11.3391182"><ele>553.8</ele><time>2026-03-22T09:08:50.769Z</time></trkpt><trkpt lat="43.5183728" lon="11.3389859"><ele>553.0</ele><time>2026-03-22T09:08:52.769Z</time></trkpt><trkpt lat="43.5183083" lon="11.3388239"><ele>551.5</ele><time>2026-03-22T09:08:54.769Z</time></trkpt><trkpt lat="43.5182643" lon="11.338725"><ele>550.0</ele><time>2026-03-22T09:08:55.768Z</time></trkpt><trkpt lat="43.5182121" lon="11.338618"><ele>548.5</ele><time>2026-03-22T09:08:56.768Z</time></trkpt><trkpt lat="43.5181638" lon="11.3385185"><ele>547.0</ele><time>2026-03-22T09:08:57.769Z</time></trkpt><trkpt lat="43.518118" lon="11.3384199"><ele>545.5</ele><time>2026-03-22T09:08:58.768Z</time></trkpt><trkpt lat="43.5180757" lon="11.3383197"><ele>544.0</ele><time>2026-03-22T09:08:59.768Z</time></trkpt><trkpt lat="43.5180297" lon="11.3382103"><ele>544.0</ele><time>2026-03-22T09:09:00.768Z</time></trkpt><trkpt lat="43.5179859" lon="11.3381083"><ele>544.0</ele><time>2026-03-22T09:09:01.767Z</time></trkpt><trkpt lat="43.5179472" lon="11.3380061"><ele>544.0</ele><time>2026-03-22T09:09:02.768Z</time></trkpt><trkpt lat="43.5179108" lon="11.337916"><ele>544.0</ele><time>2026-03-22T09:09:03.768Z</time></trkpt><trkpt lat="43.5178741" lon="11.3378416"><ele>544.0</ele><time>2026-03-22T09:09:04.768Z</time></trkpt><trkpt lat="43.5177821" lon="11.337738"><ele>544.0</ele><time>2026-03-22T09:09:06.768Z</time></trkpt><trkpt lat="43.5176806" lon="11.3376681"><ele>541.0</ele><time>2026-03-22T09:09:08.767Z</time></trkpt><trkpt lat="43.5176234" lon="11.3376313"><ele>538.0</ele><time>2026-03-22T09:09:09.767Z</time></trkpt><trkpt lat="43.517563" lon="11.3375905"><ele>535.0</ele><time>2026-03-22T09:09:10.768Z</time></trkpt><trkpt lat="43.5174958" lon="11.3375385"><ele>532.0</ele><time>2026-03-22T09:09:11.768Z</time></trkpt><trkpt lat="43.5174237" lon="11.3374765"><ele>529.0</ele><time>2026-03-22T09:09:12.767Z</time></trkpt><trkpt lat="43.5173535" lon="11.3374111"><ele>526.0</ele><time>2026-03-22T09:09:13.768Z</time></trkpt><trkpt lat="43.5172829" lon="11.3373443"><ele>526.0</ele><time>2026-03-22T09:09:14.767Z</time></trkpt><trkpt lat="43.5172042" lon="11.3372867"><ele>526.0</ele><time>2026-03-22T09:09:15.767Z</time></trkpt><trkpt lat="43.5171152" lon="11.337237"><ele>526.0</ele><time>2026-03-22T09:09:16.767Z</time></trkpt><trkpt lat="43.517" lon="11.3371755"><ele>526.0</ele><time>2026-03-22T09:09:17.768Z</time></trkpt><trkpt lat="43.5168939" lon="11.3371347"><ele>526.0</ele><time>2026-03-22T09:09:18.768Z</time></trkpt><trkpt lat="43.5167862" lon="11.33708"><ele>518.75</ele><time>2026-03-22T09:09:19.767Z</time></trkpt><trkpt lat="43.5166817" lon="11.3370009"><ele>511.5</ele><time>2026-03-22T09:09:20.768Z</time></trkpt><trkpt lat="43.5165717" lon="11.3369292"><ele>504.25</ele><time>2026-03-22T09:09:21.767Z</time></trkpt><trkpt lat="43.5164624" lon="11.3368727"><ele>497.0</ele><time>2026-03-22T09:09:22.768Z</time></trkpt><trkpt lat="43.5163466" lon="11.3368295"><ele>497.0</ele><time>2026-03-22T09:09:23.768Z</time></trkpt><trkpt lat="43.5162449" lon="11.3368016"><ele>497.00000000000006</ele><time>2026-03-22T09:09:24.769Z</time></trkpt><trkpt lat="43.5161608" lon="11.3367782"><ele>497.00000000000006</ele><time>2026-03-22T09:09:25.768Z</time></trkpt><trkpt lat="43.5160846" lon="11.3367593"><ele>497.0</ele><time>2026-03-22T09:09:26.768Z</time></trkpt><trkpt lat="43.5160227" lon="11.3367408"><ele>497.0</ele><time>2026-03-22T09:09:27.768Z</time></trkpt><trkpt lat="43.5159372" lon="11.3366242"><ele>495.3333333333333</ele><time>2026-03-22T09:09:29.769Z</time></trkpt><trkpt lat="43.5158959" lon="11.3365159"><ele>493.66666666666663</ele><time>2026-03-22T09:09:30.768Z</time></trkpt><trkpt lat="43.5158671" lon="11.3364173"><ele>492.0</ele><time>2026-03-22T09:09:31.767Z</time></trkpt><trkpt lat="43.5158417" lon="11.3363156"><ele>490.33333333333337</ele><time>2026-03-22T09:09:32.768Z</time></trkpt><trkpt lat="43.5158169" lon="11.336223"><ele>488.6666666666667</ele><time>2026-03-22T09:09:33.768Z</time></trkpt><trkpt lat="43.5157896" lon="11.336126"><ele>487.0</ele><time>2026-03-22T09:09:34.768Z</time></trkpt><trkpt lat="43.5157492" lon="11.3360375"><ele>486.40000000000003</ele><time>2026-03-22T09:09:35.767Z</time></trkpt><trkpt lat="43.5156928" lon="11.3359548"><ele>485.80000000000007</ele><time>2026-03-22T09:09:36.768Z</time></trkpt><trkpt lat="43.51563" lon="11.3358563"><ele>485.2</ele><time>2026-03-22T09:09:37.767Z</time></trkpt><trkpt lat="43.5155697" lon="11.3357436"><ele>484.6</ele><time>2026-03-22T09:09:38.768Z</time></trkpt><trkpt lat="43.5155142" lon="11.3356249"><ele>484.0</ele><time>2026-03-22T09:09:39.767Z</time></trkpt><trkpt lat="43.5154638" lon="11.3354987"><ele>483.2</ele><time>2026-03-22T09:09:40.767Z</time></trkpt><trkpt lat="43.5154146" lon="11.3353721"><ele>482.4</ele><time>2026-03-22T09:09:41.767Z</time></trkpt><trkpt lat="43.5153698" lon="11.3352404"><ele>481.6</ele><time>2026-03-22T09:09:42.767Z</time></trkpt><trkpt lat="43.5153232" lon="11.3351081"><ele>480.8</ele><time>2026-03-22T09:09:43.768Z</time></trkpt><trkpt lat="43.5152775" lon="11.3349775"><ele>480.0</ele><time>2026-03-22T09:09:44.767Z</time></trkpt><trkpt lat="43.5152325" lon="11.3348399"><ele>477.5</ele><time>2026-03-22T09:09:45.767Z</time></trkpt><trkpt lat="43.5151954" lon="11.3346948"><ele>475.0</ele><time>2026-03-22T09:09:46.767Z</time></trkpt><trkpt lat="43.5151636" lon="11.3345412"><ele>472.5</ele><time>2026-03-22T09:09:47.769Z</time></trkpt><trkpt lat="43.5151265" lon="11.3343869"><ele>470.0</ele><time>2026-03-22T09:09:48.767Z</time></trkpt><trkpt lat="43.5151027" lon="11.3342221"><ele>470.0</ele><time>2026-03-22T09:09:49.768Z</time></trkpt><trkpt lat="43.5150719" lon="11.3340595"><ele>470.0</ele><time>2026-03-22T09:09:50.768Z</time></trkpt><trkpt lat="43.5150375" lon="11.3338967"><ele>470.0</ele><time>2026-03-22T09:09:51.769Z</time></trkpt><trkpt lat="43.5150017" lon="11.3337296"><ele>470.0</ele><time>2026-03-22T09:09:52.767Z</time></trkpt><trkpt lat="43.5149642" lon="11.3335659"><ele>467.5</ele><time>2026-03-22T09:09:53.768Z</time></trkpt><trkpt lat="43.5149283" lon="11.3333961"><ele>465.0</ele><time>2026-03-22T09:09:54.768Z</time></trkpt><trkpt lat="43.514886" lon="11.3332263"><ele>462.5</ele><time>2026-03-22T09:09:55.767Z</time></trkpt><trkpt lat="43.5148317" lon="11.3330654"><ele>460.0</ele><time>2026-03-22T09:09:56.769Z</time></trkpt><trkpt lat="43.5147611" lon="11.332907"><ele>458.0</ele><time>2026-03-22T09:09:57.769Z</time></trkpt><trkpt lat="43.5146794" lon="11.3327548"><ele>456.0</ele><time>2026-03-22T09:09:58.769Z</time></trkpt><trkpt lat="43.5145922" lon="11.3326003"><ele>454.0</ele><time>2026-03-22T09:09:59.769Z</time></trkpt><trkpt lat="43.5145054" lon="11.3324516"><ele>452.0</ele><time>2026-03-22T09:10:00.769Z</time></trkpt><trkpt lat="43.5144172" lon="11.332309"><ele>450.25</ele><time>2026-03-22T09:10:01.77Z</time></trkpt><trkpt lat="43.5143272" lon="11.3321685"><ele>448.5</ele><time>2026-03-22T09:10:02.77Z</time></trkpt><trkpt lat="43.5142393" lon="11.3320336"><ele>446.75</ele><time>2026-03-22T09:10:03.768Z</time></trkpt><trkpt lat="43.5141496" lon="11.3319144"><ele>445.0</ele><time>2026-03-22T09:10:04.769Z</time></trkpt><trkpt lat="43.5140619" lon="11.3318096"><ele>445.0</ele><time>2026-03-22T09:10:05.768Z</time></trkpt><trkpt lat="43.5139766" lon="11.3317129"><ele>445.0</ele><time>2026-03-22T09:10:06.769Z</time></trkpt><trkpt lat="43.5138895" lon="11.3316228"><ele>445.0</ele><time>2026-03-22T09:10:07.768Z</time></trkpt><trkpt lat="43.513801" lon="11.3315377"><ele>445.0</ele><time>2026-03-22T09:10:08.768Z</time></trkpt><trkpt lat="43.5137088" lon="11.3314408"><ele>445.0</ele><time>2026-03-22T09:10:09.768Z</time></trkpt><trkpt lat="43.5136125" lon="11.3313273"><ele>443.75</ele><time>2026-03-22T09:10:10.768Z</time></trkpt><trkpt lat="43.5135052" lon="11.3312064"><ele>442.5</ele><time>2026-03-22T09:10:11.769Z</time></trkpt><trkpt lat="43.5134014" lon="11.3310825"><ele>441.25</ele><time>2026-03-22T09:10:12.768Z</time></trkpt><trkpt lat="43.5133053" lon="11.3309738"><ele>440.0</ele><time>2026-03-22T09:10:13.768Z</time></trkpt><trkpt lat="43.5131981" lon="11.3308825"><ele>440.0</ele><time>2026-03-22T09:10:14.768Z</time></trkpt><trkpt lat="43.5130805" lon="11.3307921"><ele>440.0</ele><time>2026-03-22T09:10:15.769Z</time></trkpt><trkpt lat="43.512974" lon="11.3307252"><ele>440.0</ele><time>2026-03-22T09:10:16.769Z</time></trkpt><trkpt lat="43.5128799" lon="11.3306807"><ele>440.0</ele><time>2026-03-22T09:10:17.769Z</time></trkpt><trkpt lat="43.5127815" lon="11.3306613"><ele>439.3333333333333</ele><time>2026-03-22T09:10:18.768Z</time></trkpt><trkpt lat="43.5126677" lon="11.3306584"><ele>438.66666666666663</ele><time>2026-03-22T09:10:19.769Z</time></trkpt><trkpt lat="43.5125758" lon="11.3306563"><ele>438.0</ele><time>2026-03-22T09:10:20.77Z</time></trkpt><trkpt lat="43.512489" lon="11.3306626"><ele>437.33333333333337</ele><time>2026-03-22T09:10:21.769Z</time></trkpt><trkpt lat="43.5124163" lon="11.3306878"><ele>436.6666666666667</ele><time>2026-03-22T09:10:22.769Z</time></trkpt><trkpt lat="43.5123477" lon="11.3307301"><ele>436.0</ele><time>2026-03-22T09:10:23.77Z</time></trkpt><trkpt lat="43.5122603" lon="11.330778"><ele>436.0</ele><time>2026-03-22T09:10:25.769Z</time></trkpt><trkpt lat="43.512208" lon="11.3306901"><ele>436.0</ele><time>2026-03-22T09:10:27.769Z</time></trkpt><trkpt lat="43.5122243" lon="11.3304632"><ele>436.0</ele><time>2026-03-22T09:10:29.768Z</time></trkpt><trkpt lat="43.5122369" lon="11.3302871"><ele>436.0</ele><time>2026-03-22T09:10:30.768Z</time></trkpt><trkpt lat="43.5122422" lon="11.3301297"><ele>435.20000000000005</ele><time>2026-03-22T09:10:31.769Z</time></trkpt><trkpt lat="43.5122475" lon="11.3299793"><ele>434.40000000000003</ele><time>2026-03-22T09:10:32.768Z</time></trkpt><trkpt lat="43.5122552" lon="11.3298443"><ele>433.6</ele><time>2026-03-22T09:10:33.768Z</time></trkpt><trkpt lat="43.5122793" lon="11.3297241"><ele>432.8</ele><time>2026-03-22T09:10:34.768Z</time></trkpt><trkpt lat="43.51231" lon="11.3296112"><ele>432.0</ele><time>2026-03-22T09:10:35.769Z</time></trkpt><trkpt lat="43.5123413" lon="11.3294995"><ele>429.3333333333333</ele><time>2026-03-22T09:10:36.768Z</time></trkpt><trkpt lat="43.5123741" lon="11.3293869"><ele>426.66666666666663</ele><time>2026-03-22T09:10:37.768Z</time></trkpt><trkpt lat="43.5124088" lon="11.3292766"><ele>424.0</ele><time>2026-03-22T09:10:38.769Z</time></trkpt><trkpt lat="43.5124351" lon="11.3291666"><ele>421.3333333333333</ele><time>2026-03-22T09:10:39.768Z</time></trkpt><trkpt lat="43.5124522" lon="11.3290567"><ele>418.66666666666663</ele><time>2026-03-22T09:10:40.769Z</time></trkpt><trkpt lat="43.5124705" lon="11.3289584"><ele>416.0</ele><time>2026-03-22T09:10:41.768Z</time></trkpt><trkpt lat="43.5125005" lon="11.3288031"><ele>414.0</ele><time>2026-03-22T09:10:43.768Z</time></trkpt><trkpt lat="43.5124995" lon="11.3286642"><ele>412.0</ele><time>2026-03-22T09:10:45.77Z</time></trkpt><trkpt lat="43.5124466" lon="11.3285329"><ele>410.0</ele><time>2026-03-22T09:10:47.768Z</time></trkpt><trkpt lat="43.5124088" lon="11.3284462"><ele>408.0</ele><time>2026-03-22T09:10:48.769Z</time></trkpt><trkpt lat="43.512363" lon="11.3283433"><ele>406.0</ele><time>2026-03-22T09:10:49.768Z</time></trkpt><trkpt lat="43.5123101" lon="11.3282363"><ele>406.0</ele><time>2026-03-22T09:10:50.768Z</time></trkpt><trkpt lat="43.5122543" lon="11.3281213"><ele>406.0</ele><time>2026-03-22T09:10:51.768Z</time></trkpt><trkpt lat="43.5121958" lon="11.3280078"><ele>406.0</ele><time>2026-03-22T09:10:52.768Z</time></trkpt><trkpt lat="43.5121409" lon="11.327891"><ele>406.0</ele><time>2026-03-22T09:10:53.769Z</time></trkpt><trkpt lat="43.5120931" lon="11.3277698"><ele>406.0</ele><time>2026-03-22T09:10:54.769Z</time></trkpt><trkpt lat="43.5120608" lon="11.3276557"><ele>404.6666666666667</ele><time>2026-03-22T09:10:55.769Z</time></trkpt><trkpt lat="43.5120294" lon="11.3275562"><ele>403.33333333333337</ele><time>2026-03-22T09:10:56.769Z</time></trkpt><trkpt lat="43.5120051" lon="11.3274574"><ele>402.0</ele><time>2026-03-22T09:10:57.769Z</time></trkpt><trkpt lat="43.5119385" lon="11.3274252"><ele>400.66666666666663</ele><time>2026-03-22T09:10:58.768Z</time></trkpt><trkpt lat="43.5118904" lon="11.3273477"><ele>399.3333333333333</ele><time>2026-03-22T09:10:59.77Z</time></trkpt><trkpt lat="43.5118237" lon="11.3272721"><ele>398.0</ele><time>2026-03-22T09:11:00.768Z</time></trkpt><trkpt lat="43.5117898" lon="11.3271704"><ele>397.66666666666663</ele><time>2026-03-22T09:11:01.768Z</time></trkpt><trkpt lat="43.5117517" lon="11.3270617"><ele>397.3333333333333</ele><time>2026-03-22T09:11:02.768Z</time></trkpt><trkpt lat="43.5117306" lon="11.3269521"><ele>397.0</ele><time>2026-03-22T09:11:03.769Z</time></trkpt><trkpt lat="43.511726" lon="11.3268416"><ele>396.66666666666663</ele><time>2026-03-22T09:11:04.769Z</time></trkpt><trkpt lat="43.5117437" lon="11.3267163"><ele>396.3333333333333</ele><time>2026-03-22T09:11:05.769Z</time></trkpt><trkpt lat="43.511779" lon="11.3265952"><ele>396.0</ele><time>2026-03-22T09:11:06.768Z</time></trkpt><trkpt lat="43.5118142" lon="11.3264895"><ele>394.1666666666667</ele><time>2026-03-22T09:11:07.769Z</time></trkpt><trkpt lat="43.5118288" lon="11.3263872"><ele>392.33333333333337</ele><time>2026-03-22T09:11:08.768Z</time></trkpt><trkpt lat="43.5118232" lon="11.3262889"><ele>390.5</ele><time>2026-03-22T09:11:09.768Z</time></trkpt><trkpt lat="43.5118009" lon="11.3261981"><ele>388.6666666666667</ele><time>2026-03-22T09:11:10.77Z</time></trkpt><trkpt lat="43.5117776" lon="11.3260924"><ele>386.83333333333337</ele><time>2026-03-22T09:11:11.769Z</time></trkpt><trkpt lat="43.511766" lon="11.325973"><ele>385.0</ele><time>2026-03-22T09:11:12.768Z</time></trkpt><trkpt lat="43.5117411" lon="11.3258599"><ele>385.0</ele><time>2026-03-22T09:11:13.768Z</time></trkpt><trkpt lat="43.5117001" lon="11.3257587"><ele>385.0</ele><time>2026-03-22T09:11:14.769Z</time></trkpt><trkpt lat="43.5116395" lon="11.3256732"><ele>385.0</ele><time>2026-03-22T09:11:15.769Z</time></trkpt><trkpt lat="43.5115756" lon="11.3256103"><ele>385.0</ele><time>2026-03-22T09:11:16.769Z</time></trkpt><trkpt lat="43.5115005" lon="11.3255784"><ele>385.0</ele><time>2026-03-22T09:11:17.768Z</time></trkpt><trkpt lat="43.5113927" lon="11.3256576"><ele>385.0</ele><time>2026-03-22T09:11:18.769Z</time></trkpt><trkpt lat="43.5112959" lon="11.3256951"><ele>385.0</ele><time>2026-03-22T09:11:19.768Z</time></trkpt><trkpt lat="43.5112058" lon="11.3257161"><ele>385.0</ele><time>2026-03-22T09:11:20.768Z</time></trkpt><trkpt lat="43.5111027" lon="11.325729"><ele>385.0</ele><time>2026-03-22T09:11:21.769Z</time></trkpt><trkpt lat="43.5109829" lon="11.3257352"><ele>385.0</ele><time>2026-03-22T09:11:22.769Z</time></trkpt><trkpt lat="43.5108687" lon="11.3257249"><ele>382.5</ele><time>2026-03-22T09:11:23.768Z</time></trkpt><trkpt lat="43.5107497" lon="11.3257148"><ele>380.0</ele><time>2026-03-22T09:11:24.769Z</time></trkpt><trkpt lat="43.5106334" lon="11.3256951"><ele>377.5</ele><time>2026-03-22T09:11:25.768Z</time></trkpt><trkpt lat="43.5105176" lon="11.3256646"><ele>375.0</ele><time>2026-03-22T09:11:26.77Z</time></trkpt><trkpt lat="43.5103987" lon="11.3256243"><ele>372.8</ele><time>2026-03-22T09:11:27.77Z</time></trkpt><trkpt lat="43.5102917" lon="11.3255857"><ele>370.6</ele><time>2026-03-22T09:11:28.768Z</time></trkpt><trkpt lat="43.5101809" lon="11.3255483"><ele>368.4</ele><time>2026-03-22T09:11:29.769Z</time></trkpt><trkpt lat="43.5100782" lon="11.3255089"><ele>366.2</ele><time>2026-03-22T09:11:30.768Z</time></trkpt><trkpt lat="43.5099837" lon="11.3254625"><ele>364.0</ele><time>2026-03-22T09:11:31.769Z</time></trkpt><trkpt lat="43.5098962" lon="11.325417"><ele>362.2</ele><time>2026-03-22T09:11:32.768Z</time></trkpt><trkpt lat="43.5098045" lon="11.325382"><ele>360.4</ele><time>2026-03-22T09:11:33.768Z</time></trkpt><trkpt lat="43.509709" lon="11.3253614"><ele>358.6</ele><time>2026-03-22T09:11:34.77Z</time></trkpt><trkpt lat="43.5096063" lon="11.3253582"><ele>356.8</ele><time>2026-03-22T09:11:35.768Z</time></trkpt><trkpt lat="43.5094981" lon="11.3253661"><ele>355.0</ele><time>2026-03-22T09:11:36.769Z</time></trkpt><trkpt lat="43.5093932" lon="11.325368"><ele>352.0</ele><time>2026-03-22T09:11:37.768Z</time></trkpt><trkpt lat="43.509284" lon="11.3253781"><ele>349.0</ele><time>2026-03-22T09:11:38.77Z</time></trkpt><trkpt lat="43.5091702" lon="11.3254111"><ele>346.0</ele><time>2026-03-22T09:11:39.769Z</time></trkpt><trkpt lat="43.5090495" lon="11.3254339"><ele>343.0</ele><time>2026-03-22T09:11:40.769Z</time></trkpt><trkpt lat="43.5089304" lon="11.3254758"><ele>343.0</ele><time>2026-03-22T09:11:41.768Z</time></trkpt><trkpt lat="43.5088125" lon="11.3255279"><ele>343.0</ele><time>2026-03-22T09:11:42.769Z</time></trkpt><trkpt lat="43.5086992" lon="11.3256018"><ele>343.0</ele><time>2026-03-22T09:11:43.77Z</time></trkpt><trkpt lat="43.5085919" lon="11.3256918"><ele>343.0</ele><time>2026-03-22T09:11:44.77Z</time></trkpt><trkpt lat="43.5085161" lon="11.3257923"><ele>340.79999999999995</ele><time>2026-03-22T09:11:45.768Z</time></trkpt><trkpt lat="43.5084525" lon="11.325889"><ele>338.6</ele><time>2026-03-22T09:11:46.769Z</time></trkpt><trkpt lat="43.5083942" lon="11.326004"><ele>336.4</ele><time>2026-03-22T09:11:47.769Z</time></trkpt><trkpt lat="43.5083366" lon="11.326125"><ele>334.20000000000005</ele><time>2026-03-22T09:11:48.768Z</time></trkpt><trkpt lat="43.5082872" lon="11.3262527"><ele>332.0</ele><time>2026-03-22T09:11:49.77Z</time></trkpt><trkpt lat="43.5082465" lon="11.3263692"><ele>331.33333333333337</ele><time>2026-03-22T09:11:50.769Z</time></trkpt><trkpt lat="43.5082224" lon="11.3264866"><ele>330.6666666666667</ele><time>2026-03-22T09:11:51.77Z</time></trkpt><trkpt lat="43.5082033" lon="11.3266114"><ele>330.0</ele><time>2026-03-22T09:11:52.768Z</time></trkpt><trkpt lat="43.5081927" lon="11.3267274"><ele>329.3333333333333</ele><time>2026-03-22T09:11:53.769Z</time></trkpt><trkpt lat="43.5082433" lon="11.326824"><ele>328.66666666666663</ele><time>2026-03-22T09:11:54.768Z</time></trkpt><trkpt lat="43.5082724" lon="11.3269408"><ele>328.0</ele><time>2026-03-22T09:11:55.769Z</time></trkpt><trkpt lat="43.508321" lon="11.327052"><ele>328.0</ele><time>2026-03-22T09:11:56.769Z</time></trkpt><trkpt lat="43.5084079" lon="11.3271369"><ele>328.0</ele><time>2026-03-22T09:11:57.768Z</time></trkpt><trkpt lat="43.5084663" lon="11.3271937"><ele>328.0</ele><time>2026-03-22T09:11:58.769Z</time></trkpt><trkpt lat="43.5085226" lon="11.32726"><ele>328.0</ele><time>2026-03-22T09:11:59.77Z</time></trkpt><trkpt lat="43.5085683" lon="11.3273214"><ele>328.0</ele><time>2026-03-22T09:12:00.768Z</time></trkpt><trkpt lat="43.5086099" lon="11.3274485"><ele>328.0</ele><time>2026-03-22T09:12:02.769Z</time></trkpt><trkpt lat="43.5085516" lon="11.327534"><ele>325.2</ele><time>2026-03-22T09:12:04.768Z</time></trkpt><trkpt lat="43.5084324" lon="11.3275044"><ele>322.4</ele><time>2026-03-22T09:12:06.77Z</time></trkpt><trkpt lat="43.5083547" lon="11.3274659"><ele>319.59999999999997</ele><time>2026-03-22T09:12:07.769Z</time></trkpt><trkpt lat="43.5082646" lon="11.327408"><ele>316.79999999999995</ele><time>2026-03-22T09:12:08.77Z</time></trkpt><trkpt lat="43.5081629" lon="11.3273321"><ele>314.0</ele><time>2026-03-22T09:12:09.768Z</time></trkpt><trkpt lat="43.5080579" lon="11.3272528"><ele>312.4</ele><time>2026-03-22T09:12:10.769Z</time></trkpt><trkpt lat="43.5079607" lon="11.3271823"><ele>310.79999999999995</ele><time>2026-03-22T09:12:11.769Z</time></trkpt><trkpt lat="43.5078663" lon="11.3271237"><ele>309.20000000000005</ele><time>2026-03-22T09:12:12.77Z</time></trkpt><trkpt lat="43.5077781" lon="11.3270719"><ele>307.6</ele><time>2026-03-22T09:12:13.768Z</time></trkpt><trkpt lat="43.5076995" lon="11.3270277"><ele>306.0</ele><time>2026-03-22T09:12:14.769Z</time></trkpt><trkpt lat="43.5076272" lon="11.3269905"><ele>306.0</ele><time>2026-03-22T09:12:15.768Z</time></trkpt><trkpt lat="43.5075613" lon="11.3269624"><ele>306.0</ele><time>2026-03-22T09:12:16.768Z</time></trkpt><trkpt lat="43.5074595" lon="11.3269316"><ele>306.0</ele><time>2026-03-22T09:12:18.768Z</time></trkpt><trkpt lat="43.5073889" lon="11.3269596"><ele>306.0</ele><time>2026-03-22T09:12:21.77Z</time></trkpt><trkpt lat="43.5073148" lon="11.3269966"><ele>306.0</ele><time>2026-03-22T09:12:23.769Z</time></trkpt><trkpt lat="43.5071894" lon="11.3270661"><ele>306.0</ele><time>2026-03-22T09:12:25.769Z</time></trkpt><trkpt lat="43.5071001" lon="11.3271031"><ele>306.0</ele><time>2026-03-22T09:12:26.768Z</time></trkpt><trkpt lat="43.5070023" lon="11.327139"><ele>306.0</ele><time>2026-03-22T09:12:27.768Z</time></trkpt><trkpt lat="43.5068912" lon="11.3271781"><ele>306.0</ele><time>2026-03-22T09:12:28.769Z</time></trkpt><trkpt lat="43.5067539" lon="11.3272324"><ele>303.3333333333333</ele><time>2026-03-22T09:12:29.77Z</time></trkpt><trkpt lat="43.5066024" lon="11.3273019"><ele>300.66666666666663</ele><time>2026-03-22T09:12:30.768Z</time></trkpt><trkpt lat="43.5064635" lon="11.3273909"><ele>298.0</ele><time>2026-03-22T09:12:31.769Z</time></trkpt><trkpt lat="43.5063339" lon="11.327485"><ele>298.3333333333333</ele><time>2026-03-22T09:12:32.768Z</time></trkpt><trkpt lat="43.5061981" lon="11.327594"><ele>298.6666666666667</ele><time>2026-03-22T09:12:33.769Z</time></trkpt><trkpt lat="43.5060705" lon="11.3277083"><ele>299.0</ele><time>2026-03-22T09:12:34.768Z</time></trkpt><trkpt lat="43.5059464" lon="11.3278239"><ele>299.0</ele><time>2026-03-22T09:12:35.769Z</time></trkpt><trkpt lat="43.5058269" lon="11.3279456"><ele>299.0</ele><time>2026-03-22T09:12:36.768Z</time></trkpt><trkpt lat="43.5057078" lon="11.3280668"><ele>299.0</ele><time>2026-03-22T09:12:37.769Z</time></trkpt><trkpt lat="43.505594" lon="11.3281867"><ele>299.0</ele><time>2026-03-22T09:12:38.768Z</time></trkpt><trkpt lat="43.5054767" lon="11.3283094"><ele>300.25</ele><time>2026-03-22T09:12:39.769Z</time></trkpt><trkpt lat="43.5053576" lon="11.328428"><ele>301.5</ele><time>2026-03-22T09:12:40.769Z</time></trkpt><trkpt lat="43.5052362" lon="11.3285439"><ele>302.75</ele><time>2026-03-22T09:12:41.768Z</time></trkpt><trkpt lat="43.5051127" lon="11.3286521"><ele>304.0</ele><time>2026-03-22T09:12:42.769Z</time></trkpt><trkpt lat="43.5049885" lon="11.3287536"><ele>304.0</ele><time>2026-03-22T09:12:43.769Z</time></trkpt><trkpt lat="43.5048757" lon="11.3288423"><ele>304.0</ele><time>2026-03-22T09:12:44.768Z</time></trkpt><trkpt lat="43.5047795" lon="11.328909"><ele>304.0</ele><time>2026-03-22T09:12:45.768Z</time></trkpt><trkpt lat="43.5046998" lon="11.3289627"><ele>304.0</ele><time>2026-03-22T09:12:46.77Z</time></trkpt><trkpt lat="43.5045939" lon="11.3289648"><ele>304.0</ele><time>2026-03-22T09:12:48.769Z</time></trkpt><trkpt lat="43.5045131" lon="11.3288436"><ele>304.59999999999997</ele><time>2026-03-22T09:12:50.77Z</time></trkpt><trkpt lat="43.5044708" lon="11.3287383"><ele>305.2</ele><time>2026-03-22T09:12:51.769Z</time></trkpt><trkpt lat="43.5044297" lon="11.3286244"><ele>305.79999999999995</ele><time>2026-03-22T09:12:52.768Z</time></trkpt><trkpt lat="43.5043937" lon="11.3285097"><ele>306.4</ele><time>2026-03-22T09:12:53.77Z</time></trkpt><trkpt lat="43.504382" lon="11.3284114"><ele>307.0</ele><time>2026-03-22T09:12:54.77Z</time></trkpt><trkpt lat="43.5044064" lon="11.3282265"><ele>307.0</ele><time>2026-03-22T09:12:56.769Z</time></trkpt><trkpt lat="43.5044265" lon="11.3281232"><ele>307.0</ele><time>2026-03-22T09:12:57.77Z</time></trkpt><trkpt lat="43.5044247" lon="11.3280252"><ele>307.0</ele><time>2026-03-22T09:12:58.768Z</time></trkpt><trkpt lat="43.5043968" lon="11.3279192"><ele>307.0</ele><time>2026-03-22T09:12:59.768Z</time></trkpt><trkpt lat="43.5043688" lon="11.3278166"><ele>307.0</ele><time>2026-03-22T09:13:00.769Z</time></trkpt><trkpt lat="43.5043379" lon="11.3277104"><ele>307.0</ele><time>2026-03-22T09:13:01.77Z</time></trkpt><trkpt lat="43.5043077" lon="11.327604"><ele>308.0</ele><time>2026-03-22T09:13:02.768Z</time></trkpt><trkpt lat="43.5042818" lon="11.3274929"><ele>309.0</ele><time>2026-03-22T09:13:03.769Z</time></trkpt><trkpt lat="43.5042603" lon="11.3273755"><ele>310.0</ele><time>2026-03-22T09:13:04.769Z</time></trkpt><trkpt lat="43.5042498" lon="11.3272455"><ele>311.0</ele><time>2026-03-22T09:13:05.769Z</time></trkpt><trkpt lat="43.5042325" lon="11.3270646"><ele>312.0</ele><time>2026-03-22T09:13:06.769Z</time></trkpt><trkpt lat="43.504227" lon="11.3269021"><ele>313.3333333333333</ele><time>2026-03-22T09:13:07.769Z</time></trkpt><trkpt lat="43.504223" lon="11.3267672"><ele>314.6666666666667</ele><time>2026-03-22T09:13:08.769Z</time></trkpt><trkpt lat="43.5042248" lon="11.3266198"><ele>316.0</ele><time>2026-03-22T09:13:09.768Z</time></trkpt><trkpt lat="43.5042266" lon="11.3265146"><ele>317.33333333333337</ele><time>2026-03-22T09:13:10.769Z</time></trkpt><trkpt lat="43.5042339" lon="11.3264003"><ele>318.6666666666667</ele><time>2026-03-22T09:13:11.768Z</time></trkpt><trkpt lat="43.5042365" lon="11.3262922"><ele>320.0</ele><time>2026-03-22T09:13:12.768Z</time></trkpt><trkpt lat="43.5042329" lon="11.3261739"><ele>321.83333333333337</ele><time>2026-03-22T09:13:13.769Z</time></trkpt><trkpt lat="43.5042221" lon="11.3260644"><ele>323.6666666666667</ele><time>2026-03-22T09:13:14.768Z</time></trkpt><trkpt lat="43.5042137" lon="11.3259706"><ele>325.5</ele><time>2026-03-22T09:13:15.77Z</time></trkpt><trkpt lat="43.5041709" lon="11.3258544"><ele>327.3333333333333</ele><time>2026-03-22T09:13:16.768Z</time></trkpt><trkpt lat="43.504142" lon="11.3257545"><ele>329.16666666666663</ele><time>2026-03-22T09:13:17.77Z</time></trkpt><trkpt lat="43.5040722" lon="11.3256845"><ele>331.0</ele><time>2026-03-22T09:13:18.768Z</time></trkpt><trkpt lat="43.5040565" lon="11.3255264"><ele>334.0</ele><time>2026-03-22T09:13:20.768Z</time></trkpt><trkpt lat="43.5040861" lon="11.3253423"><ele>337.0</ele><time>2026-03-22T09:13:22.768Z</time></trkpt><trkpt lat="43.5041186" lon="11.3252382"><ele>340.0</ele><time>2026-03-22T09:13:23.768Z</time></trkpt><trkpt lat="43.5041601" lon="11.3251175"><ele>343.0</ele><time>2026-03-22T09:13:24.769Z</time></trkpt><trkpt lat="43.5041919" lon="11.3249766"><ele>346.0</ele><time>2026-03-22T09:13:25.768Z</time></trkpt><trkpt lat="43.5042443" lon="11.3248479"><ele>349.8</ele><time>2026-03-22T09:13:26.769Z</time></trkpt><trkpt lat="43.5042955" lon="11.3247222"><ele>353.6</ele><time>2026-03-22T09:13:27.768Z</time></trkpt><trkpt lat="43.5043489" lon="11.3245921"><ele>357.4</ele><time>2026-03-22T09:13:28.769Z</time></trkpt><trkpt lat="43.5044013" lon="11.3244595"><ele>361.2</ele><time>2026-03-22T09:13:29.768Z</time></trkpt><trkpt lat="43.5044605" lon="11.3243255"><ele>365.0</ele><time>2026-03-22T09:13:30.77Z</time></trkpt><trkpt lat="43.504517" lon="11.3241844"><ele>366.75</ele><time>2026-03-22T09:13:31.769Z</time></trkpt><trkpt lat="43.5045821" lon="11.3240343"><ele>368.5</ele><time>2026-03-22T09:13:32.769Z</time></trkpt><trkpt lat="43.5046527" lon="11.3238893"><ele>370.25</ele><time>2026-03-22T09:13:33.768Z</time></trkpt><trkpt lat="43.5047293" lon="11.3237519"><ele>372.0</ele><time>2026-03-22T09:13:34.77Z</time></trkpt><trkpt lat="43.5048107" lon="11.3236264"><ele>372.0</ele><time>2026-03-22T09:13:35.769Z</time></trkpt><trkpt lat="43.5048903" lon="11.3235038"><ele>372.0</ele><time>2026-03-22T09:13:36.769Z</time></trkpt><trkpt lat="43.5049712" lon="11.323382"><ele>372.0</ele><time>2026-03-22T09:13:37.77Z</time></trkpt><trkpt lat="43.5050584" lon="11.3232696"><ele>372.0</ele><time>2026-03-22T09:13:38.768Z</time></trkpt><trkpt lat="43.5051362" lon="11.3231529"><ele>373.0</ele><time>2026-03-22T09:13:39.768Z</time></trkpt><trkpt lat="43.5052189" lon="11.3230535"><ele>374.0</ele><time>2026-03-22T09:13:40.77Z</time></trkpt><trkpt lat="43.5053043" lon="11.3229602"><ele>375.0</ele><time>2026-03-22T09:13:41.769Z</time></trkpt><trkpt lat="43.50539" lon="11.3228594"><ele>376.0</ele><time>2026-03-22T09:13:42.768Z</time></trkpt><trkpt lat="43.5054804" lon="11.3227878"><ele>377.0</ele><time>2026-03-22T09:13:43.768Z</time></trkpt><trkpt lat="43.5055552" lon="11.3227003"><ele>377.0</ele><time>2026-03-22T09:13:44.769Z</time></trkpt><trkpt lat="43.5056354" lon="11.3226269"><ele>377.0</ele><time>2026-03-22T09:13:45.769Z</time></trkpt><trkpt lat="43.5057093" lon="11.3225524"><ele>377.0</ele><time>2026-03-22T09:13:46.769Z</time></trkpt><trkpt lat="43.5057093" lon="11.3223861"><ele>377.0</ele><time>2026-03-22T09:13:48.768Z</time></trkpt><trkpt lat="43.5057454" lon="11.3222567"><ele>377.0</ele><time>2026-03-22T09:13:50.768Z</time></trkpt><trkpt lat="43.5057967" lon="11.3220977"><ele>381.8</ele><time>2026-03-22T09:13:52.768Z</time></trkpt><trkpt lat="43.5058461" lon="11.3220105"><ele>386.6</ele><time>2026-03-22T09:13:53.769Z</time></trkpt><trkpt lat="43.5059056" lon="11.3219122"><ele>391.40000000000003</ele><time>2026-03-22T09:13:54.769Z</time></trkpt><trkpt lat="43.5059746" lon="11.3218299"><ele>396.20000000000005</ele><time>2026-03-22T09:13:55.769Z</time></trkpt><trkpt lat="43.5060788" lon="11.3217764"><ele>401.0</ele><time>2026-03-22T09:13:56.768Z</time></trkpt><trkpt lat="43.5061639" lon="11.3217128"><ele>398.4</ele><time>2026-03-22T09:13:57.768Z</time></trkpt><trkpt lat="43.5062486" lon="11.3216446"><ele>395.8</ele><time>2026-03-22T09:13:58.769Z</time></trkpt><trkpt lat="43.5063204" lon="11.3215892"><ele>393.2</ele><time>2026-03-22T09:13:59.768Z</time></trkpt><trkpt lat="43.5063322" lon="11.3215001"><ele>390.59999999999997</ele><time>2026-03-22T09:14:00.77Z</time></trkpt><trkpt lat="43.5063311" lon="11.3213547"><ele>388.0</ele><time>2026-03-22T09:14:02.768Z</time></trkpt><trkpt lat="43.5062612" lon="11.3212138"><ele>392.00000000000006</ele><time>2026-03-22T09:14:04.768Z</time></trkpt><trkpt lat="43.5062211" lon="11.32114"><ele>396.0</ele><time>2026-03-22T09:14:05.769Z</time></trkpt><trkpt lat="43.5061534" lon="11.3210736"><ele>400.0</ele><time>2026-03-22T09:14:06.77Z</time></trkpt><trkpt lat="43.506085" lon="11.3210012"><ele>404.0</ele><time>2026-03-22T09:14:07.769Z</time></trkpt><trkpt lat="43.5060086" lon="11.3209217"><ele>408.00000000000006</ele><time>2026-03-22T09:14:08.77Z</time></trkpt><trkpt lat="43.5059239" lon="11.3208366"><ele>412.0</ele><time>2026-03-22T09:14:09.769Z</time></trkpt><trkpt lat="43.5058469" lon="11.3207317"><ele>412.0</ele><time>2026-03-22T09:14:10.768Z</time></trkpt><trkpt lat="43.5057676" lon="11.3206135"><ele>412.0</ele><time>2026-03-22T09:14:11.769Z</time></trkpt><trkpt lat="43.5057043" lon="11.3204881"><ele>412.0</ele><time>2026-03-22T09:14:12.768Z</time></trkpt><trkpt lat="43.5056408" lon="11.3203621"><ele>412.0</ele><time>2026-03-22T09:14:13.769Z</time></trkpt><trkpt lat="43.5055744" lon="11.3202339"><ele>413.20000000000005</ele><time>2026-03-22T09:14:14.769Z</time></trkpt><trkpt lat="43.5055147" lon="11.3201077"><ele>414.4</ele><time>2026-03-22T09:14:15.768Z</time></trkpt><trkpt lat="43.5054588" lon="11.3199777"><ele>415.6</ele><time>2026-03-22T09:14:16.77Z</time></trkpt><trkpt lat="43.5054557" lon="11.3198299"><ele>416.79999999999995</ele><time>2026-03-22T09:14:17.769Z</time></trkpt><trkpt lat="43.5054515" lon="11.3197053"><ele>418.0</ele><time>2026-03-22T09:14:18.768Z</time></trkpt><trkpt lat="43.5054475" lon="11.319587"><ele>421.59999999999997</ele><time>2026-03-22T09:14:19.769Z</time></trkpt><trkpt lat="43.5055339" lon="11.3195029"><ele>425.2</ele><time>2026-03-22T09:14:20.769Z</time></trkpt><trkpt lat="43.5055948" lon="11.3194074"><ele>428.8</ele><time>2026-03-22T09:14:21.769Z</time></trkpt><trkpt lat="43.5056442" lon="11.3193195"><ele>432.4</ele><time>2026-03-22T09:14:22.77Z</time></trkpt><trkpt lat="43.505644" lon="11.3192038"><ele>436.0</ele><time>2026-03-22T09:14:24.769Z</time></trkpt><trkpt lat="43.505528" lon="11.3191376"><ele>436.0</ele><time>2026-03-22T09:14:26.769Z</time></trkpt><trkpt lat="43.5054567" lon="11.3191156"><ele>436.0</ele><time>2026-03-22T09:14:27.769Z</time></trkpt><trkpt lat="43.50539" lon="11.3191043"><ele>436.0</ele><time>2026-03-22T09:14:28.77Z</time></trkpt><trkpt lat="43.505322" lon="11.3190955"><ele>436.0</ele><time>2026-03-22T09:14:29.77Z</time></trkpt><trkpt lat="43.5052528" lon="11.319091"><ele>436.0</ele><time>2026-03-22T09:14:30.768Z</time></trkpt><trkpt lat="43.5051878" lon="11.3190874"><ele>436.0</ele><time>2026-03-22T09:14:31.769Z</time></trkpt><trkpt lat="43.5051229" lon="11.3190848"><ele>436.0</ele><time>2026-03-22T09:14:32.768Z</time></trkpt><trkpt lat="43.505003" lon="11.3191079"><ele>437.7142857142857</ele><time>2026-03-22T09:14:34.769Z</time></trkpt><trkpt lat="43.5049448" lon="11.3191472"><ele>439.42857142857144</ele><time>2026-03-22T09:14:35.768Z</time></trkpt><trkpt lat="43.5048861" lon="11.3191987"><ele>441.1428571428571</ele><time>2026-03-22T09:14:36.769Z</time></trkpt><trkpt lat="43.5048307" lon="11.3192618"><ele>442.8571428571429</ele><time>2026-03-22T09:14:37.769Z</time></trkpt><trkpt lat="43.5047754" lon="11.3193359"><ele>444.57142857142856</ele><time>2026-03-22T09:14:38.768Z</time></trkpt><trkpt lat="43.5047198" lon="11.319402"><ele>446.2857142857143</ele><time>2026-03-22T09:14:39.769Z</time></trkpt><trkpt lat="43.5046659" lon="11.319475"><ele>448.0</ele><time>2026-03-22T09:14:40.768Z</time></trkpt><trkpt lat="43.5046193" lon="11.3195335"><ele>450.0</ele><time>2026-03-22T09:14:41.768Z</time></trkpt><trkpt lat="43.5045321" lon="11.3195726"><ele>451.99999999999994</ele><time>2026-03-22T09:14:43.768Z</time></trkpt><trkpt lat="43.5044707" lon="11.3194566"><ele>453.99999999999994</ele><time>2026-03-22T09:14:46.769Z</time></trkpt><trkpt lat="43.5044586" lon="11.3193046"><ele>456.0</ele><time>2026-03-22T09:14:48.768Z</time></trkpt><trkpt lat="43.5044411" lon="11.3191622"><ele>458.0</ele><time>2026-03-22T09:14:50.769Z</time></trkpt><trkpt lat="43.5043915" lon="11.3190309"><ele>458.66666666666663</ele><time>2026-03-22T09:14:52.77Z</time></trkpt><trkpt lat="43.5043773" lon="11.318875"><ele>459.3333333333333</ele><time>2026-03-22T09:14:54.768Z</time></trkpt><trkpt lat="43.5043714" lon="11.3187881"><ele>460.0</ele><time>2026-03-22T09:14:55.769Z</time></trkpt><trkpt lat="43.5043508" lon="11.3187006"><ele>460.66666666666663</ele><time>2026-03-22T09:14:56.768Z</time></trkpt><trkpt lat="43.5043116" lon="11.3185307"><ele>461.3333333333333</ele><time>2026-03-22T09:14:58.77Z</time></trkpt><trkpt lat="43.504268" lon="11.3184581"><ele>462.0</ele><time>2026-03-22T09:14:59.768Z</time></trkpt><trkpt lat="43.5042191" lon="11.3183768"><ele>462.0</ele><time>2026-03-22T09:15:00.77Z</time></trkpt><trkpt lat="43.5041777" lon="11.3182939"><ele>462.0</ele><time>2026-03-22T09:15:01.768Z</time></trkpt><trkpt lat="43.5041414" lon="11.318201"><ele>462.0</ele><time>2026-03-22T09:15:02.769Z</time></trkpt><trkpt lat="43.504107" lon="11.3181134"><ele>462.0</ele><time>2026-03-22T09:15:03.77Z</time></trkpt><trkpt lat="43.504091" lon="11.3180243"><ele>462.0</ele><time>2026-03-22T09:15:04.769Z</time></trkpt><trkpt lat="43.5040837" lon="11.3178721"><ele>462.0</ele><time>2026-03-22T09:15:06.768Z</time></trkpt><trkpt lat="43.5040694" lon="11.3177682"><ele>462.0</ele><time>2026-03-22T09:15:08.768Z</time></trkpt><trkpt lat="43.5040325" lon="11.3176876"><ele>462.0</ele><time>2026-03-22T09:15:36.768Z</time></trkpt><trkpt lat="43.5039695" lon="11.3176521"><ele>462.0</ele><time>2026-03-22T09:16:41.769Z</time></trkpt><trkpt lat="43.5038968" lon="11.3175691"><ele>462.0</ele><time>2026-03-22T09:16:44.769Z</time></trkpt><trkpt lat="43.5038228" lon="11.3174964"><ele>462.0</ele><time>2026-03-22T09:16:46.77Z</time></trkpt><trkpt lat="43.5037162" lon="11.3174146"><ele>462.0</ele><time>2026-03-22T09:16:48.77Z</time></trkpt><trkpt lat="43.5036566" lon="11.3173818"><ele>461.25</ele><time>2026-03-22T09:16:49.77Z</time></trkpt><trkpt lat="43.5035506" lon="11.3172818"><ele>460.5</ele><time>2026-03-22T09:16:51.77Z</time></trkpt><trkpt lat="43.5034774" lon="11.3171355"><ele>459.75</ele><time>2026-03-22T09:16:53.77Z</time></trkpt><trkpt lat="43.5034579" lon="11.3169774"><ele>459.0</ele><time>2026-03-22T09:16:55.769Z</time></trkpt><trkpt lat="43.5034567" lon="11.3168409"><ele>461.5</ele><time>2026-03-22T09:16:57.769Z</time></trkpt><trkpt lat="43.5033877" lon="11.3167668"><ele>464.0</ele><time>2026-03-22T09:16:59.77Z</time></trkpt><trkpt lat="43.503337" lon="11.3167143"><ele>466.5</ele><time>2026-03-22T09:17:00.769Z</time></trkpt><trkpt lat="43.5032687" lon="11.3166538"><ele>469.0</ele><time>2026-03-22T09:17:01.769Z</time></trkpt><trkpt lat="43.5031986" lon="11.3166138"><ele>471.5</ele><time>2026-03-22T09:17:02.769Z</time></trkpt><trkpt lat="43.5031254" lon="11.3165578"><ele>474.0</ele><time>2026-03-22T09:17:03.77Z</time></trkpt><trkpt lat="43.5030541" lon="11.316511"><ele>474.0</ele><time>2026-03-22T09:17:04.77Z</time></trkpt><trkpt lat="43.5029704" lon="11.3164602"><ele>474.0</ele><time>2026-03-22T09:17:05.769Z</time></trkpt><trkpt lat="43.5028877" lon="11.3164196"><ele>474.0</ele><time>2026-03-22T09:17:06.77Z</time></trkpt><trkpt lat="43.5027804" lon="11.3163638"><ele>474.0</ele><time>2026-03-22T09:17:07.769Z</time></trkpt><trkpt lat="43.5026974" lon="11.3163307"><ele>474.0</ele><time>2026-03-22T09:17:08.77Z</time></trkpt><trkpt lat="43.5026257" lon="11.3162886"><ele>476.6666666666667</ele><time>2026-03-22T09:17:09.769Z</time></trkpt><trkpt lat="43.5025587" lon="11.3161821"><ele>479.33333333333337</ele><time>2026-03-22T09:17:11.77Z</time></trkpt><trkpt lat="43.5024898" lon="11.316078"><ele>482.0</ele><time>2026-03-22T09:17:13.771Z</time></trkpt><trkpt lat="43.5024158" lon="11.3159923"><ele>484.6666666666667</ele><time>2026-03-22T09:17:15.77Z</time></trkpt><trkpt lat="43.5023981" lon="11.3159057"><ele>487.33333333333337</ele><time>2026-03-22T09:17:16.769Z</time></trkpt><trkpt lat="43.502397" lon="11.315809"><ele>490.0</ele><time>2026-03-22T09:17:17.77Z</time></trkpt><trkpt lat="43.5023933" lon="11.315704"><ele>490.00000000000006</ele><time>2026-03-22T09:17:18.77Z</time></trkpt><trkpt lat="43.5024088" lon="11.3155967"><ele>490.0</ele><time>2026-03-22T09:17:19.769Z</time></trkpt><trkpt lat="43.5024212" lon="11.3154823"><ele>490.0</ele><time>2026-03-22T09:17:20.769Z</time></trkpt><trkpt lat="43.5024224" lon="11.3153653"><ele>490.0</ele><time>2026-03-22T09:17:21.771Z</time></trkpt><trkpt lat="43.5024104" lon="11.3152671"><ele>490.00000000000006</ele><time>2026-03-22T09:17:22.77Z</time></trkpt><trkpt lat="43.5023949" lon="11.3151647"><ele>490.0</ele><time>2026-03-22T09:17:23.77Z</time></trkpt><trkpt lat="43.5022952" lon="11.3151003"><ele>490.6</ele><time>2026-03-22T09:17:24.77Z</time></trkpt><trkpt lat="43.5022328" lon="11.315015"><ele>491.2</ele><time>2026-03-22T09:17:25.769Z</time></trkpt><trkpt lat="43.5021424" lon="11.3149485"><ele>491.79999999999995</ele><time>2026-03-22T09:17:26.769Z</time></trkpt><trkpt lat="43.502036" lon="11.3148983"><ele>492.4</ele><time>2026-03-22T09:17:27.771Z</time></trkpt><trkpt lat="43.501944" lon="11.3148451"><ele>493.0</ele><time>2026-03-22T09:17:28.77Z</time></trkpt><trkpt lat="43.5018372" lon="11.3148252"><ele>493.0</ele><time>2026-03-22T09:17:29.77Z</time></trkpt><trkpt lat="43.5017237" lon="11.3147827"><ele>493.0</ele><time>2026-03-22T09:17:30.77Z</time></trkpt><trkpt lat="43.5016149" lon="11.3147376"><ele>493.0</ele><time>2026-03-22T09:17:31.77Z</time></trkpt><trkpt lat="43.5014968" lon="11.3146846"><ele>493.0</ele><time>2026-03-22T09:17:32.77Z</time></trkpt><trkpt lat="43.5013884" lon="11.3146259"><ele>493.0</ele><time>2026-03-22T09:17:33.769Z</time></trkpt><trkpt lat="43.501278" lon="11.3145666"><ele>492.99999999999994</ele><time>2026-03-22T09:17:34.77Z</time></trkpt><trkpt lat="43.5011564" lon="11.3145318"><ele>492.99999999999994</ele><time>2026-03-22T09:17:35.769Z</time></trkpt><trkpt lat="43.5010639" lon="11.3144945"><ele>493.0</ele><time>2026-03-22T09:17:36.77Z</time></trkpt><trkpt lat="43.5009798" lon="11.314443"><ele>493.0</ele><time>2026-03-22T09:17:37.771Z</time></trkpt><trkpt lat="43.500899" lon="11.3143926"><ele>496.59999999999997</ele><time>2026-03-22T09:17:38.769Z</time></trkpt><trkpt lat="43.5008146" lon="11.3143192"><ele>500.19999999999993</ele><time>2026-03-22T09:17:39.77Z</time></trkpt><trkpt lat="43.5007329" lon="11.3142517"><ele>503.8</ele><time>2026-03-22T09:17:40.769Z</time></trkpt><trkpt lat="43.5006736" lon="11.3141912"><ele>507.4</ele><time>2026-03-22T09:17:41.77Z</time></trkpt><trkpt lat="43.5006217" lon="11.3141165"><ele>511.0</ele><time>2026-03-22T09:17:42.769Z</time></trkpt><trkpt lat="43.5005831" lon="11.3139394"><ele>511.4</ele><time>2026-03-22T09:17:44.769Z</time></trkpt><trkpt lat="43.5005648" lon="11.3138232"><ele>511.8</ele><time>2026-03-22T09:17:45.77Z</time></trkpt><trkpt lat="43.5005442" lon="11.3136838"><ele>512.1999999999999</ele><time>2026-03-22T09:17:46.769Z</time></trkpt><trkpt lat="43.5005304" lon="11.3135432"><ele>512.6</ele><time>2026-03-22T09:17:47.771Z</time></trkpt><trkpt lat="43.5005194" lon="11.3134061"><ele>513.0</ele><time>2026-03-22T09:17:48.769Z</time></trkpt><trkpt lat="43.500519" lon="11.3132417"><ele>513.0</ele><time>2026-03-22T09:17:49.769Z</time></trkpt><trkpt lat="43.50051" lon="11.3130925"><ele>513.0</ele><time>2026-03-22T09:17:50.769Z</time></trkpt><trkpt lat="43.5004994" lon="11.3129597"><ele>513.0</ele><time>2026-03-22T09:17:51.77Z</time></trkpt><trkpt lat="43.5004897" lon="11.3128312"><ele>513.0</ele><time>2026-03-22T09:17:52.77Z</time></trkpt><trkpt lat="43.5004789" lon="11.3127125"><ele>513.0</ele><time>2026-03-22T09:17:53.77Z</time></trkpt><trkpt lat="43.5004455" lon="11.3125983"><ele>515.1999999999999</ele><time>2026-03-22T09:17:54.77Z</time></trkpt><trkpt lat="43.5004098" lon="11.3125182"><ele>517.4</ele><time>2026-03-22T09:17:55.771Z</time></trkpt><trkpt lat="43.5003026" lon="11.3124724"><ele>519.5999999999999</ele><time>2026-03-22T09:17:56.769Z</time></trkpt><trkpt lat="43.5002184" lon="11.3124142"><ele>521.8</ele><time>2026-03-22T09:17:57.769Z</time></trkpt><trkpt lat="43.5001162" lon="11.312384"><ele>524.0</ele><time>2026-03-22T09:17:58.769Z</time></trkpt><trkpt lat="43.5000312" lon="11.3123463"><ele>524.0</ele><time>2026-03-22T09:17:59.769Z</time></trkpt><trkpt lat="43.4999577" lon="11.3122651"><ele>524.0</ele><time>2026-03-22T09:18:00.77Z</time></trkpt><trkpt lat="43.4999416" lon="11.312082"><ele>524.0</ele><time>2026-03-22T09:18:02.77Z</time></trkpt><trkpt lat="43.4999525" lon="11.3119436"><ele>524.0</ele><time>2026-03-22T09:18:03.769Z</time></trkpt><trkpt lat="43.4999555" lon="11.3118315"><ele>524.0</ele><time>2026-03-22T09:18:04.771Z</time></trkpt><trkpt lat="43.499944" lon="11.3117162"><ele>525.0</ele><time>2026-03-22T09:18:05.77Z</time></trkpt><trkpt lat="43.4999286" lon="11.3115934"><ele>526.0</ele><time>2026-03-22T09:18:06.769Z</time></trkpt><trkpt lat="43.4998828" lon="11.3114562"><ele>527.0</ele><time>2026-03-22T09:18:07.77Z</time></trkpt><trkpt lat="43.4998484" lon="11.3113195"><ele>528.0</ele><time>2026-03-22T09:18:08.77Z</time></trkpt><trkpt lat="43.4998099" lon="11.311186"><ele>529.0</ele><time>2026-03-22T09:18:09.77Z</time></trkpt><trkpt lat="43.499773" lon="11.3110523"><ele>529.25</ele><time>2026-03-22T09:18:10.77Z</time></trkpt><trkpt lat="43.4997391" lon="11.3109308"><ele>529.5</ele><time>2026-03-22T09:18:11.769Z</time></trkpt><trkpt lat="43.4997014" lon="11.3107864"><ele>529.75</ele><time>2026-03-22T09:18:12.77Z</time></trkpt><trkpt lat="43.4996557" lon="11.3106125"><ele>530.0</ele><time>2026-03-22T09:18:13.77Z</time></trkpt><trkpt lat="43.4996082" lon="11.3104477"><ele>533.75</ele><time>2026-03-22T09:18:14.77Z</time></trkpt><trkpt lat="43.4995667" lon="11.3102964"><ele>537.5</ele><time>2026-03-22T09:18:15.769Z</time></trkpt><trkpt lat="43.4995406" lon="11.31014"><ele>541.25</ele><time>2026-03-22T09:18:16.769Z</time></trkpt><trkpt lat="43.4995134" lon="11.3099389"><ele>545.0</ele><time>2026-03-22T09:18:17.771Z</time></trkpt><trkpt lat="43.4994866" lon="11.3096964"><ele>546.75</ele><time>2026-03-22T09:18:18.77Z</time></trkpt><trkpt lat="43.4994628" lon="11.3094855"><ele>548.5</ele><time>2026-03-22T09:18:19.77Z</time></trkpt><trkpt lat="43.499438" lon="11.309306"><ele>550.25</ele><time>2026-03-22T09:18:20.77Z</time></trkpt><trkpt lat="43.4994164" lon="11.3091511"><ele>552.0</ele><time>2026-03-22T09:18:21.77Z</time></trkpt><trkpt lat="43.4994053" lon="11.3090097"><ele>551.75</ele><time>2026-03-22T09:18:22.77Z</time></trkpt><trkpt lat="43.4994139" lon="11.3088722"><ele>551.5</ele><time>2026-03-22T09:18:23.77Z</time></trkpt><trkpt lat="43.4994335" lon="11.30873"><ele>551.25</ele><time>2026-03-22T09:18:24.77Z</time></trkpt><trkpt lat="43.4994683" lon="11.3085319"><ele>551.0</ele><time>2026-03-22T09:18:25.769Z</time></trkpt><trkpt lat="43.4995142" lon="11.3083523"><ele>551.0</ele><time>2026-03-22T09:18:26.771Z</time></trkpt><trkpt lat="43.4995633" lon="11.3082102"><ele>551.0</ele><time>2026-03-22T09:18:27.77Z</time></trkpt><trkpt lat="43.4995935" lon="11.3080838"><ele>551.0</ele><time>2026-03-22T09:18:28.771Z</time></trkpt><trkpt lat="43.4995953" lon="11.3079631"><ele>551.0</ele><time>2026-03-22T09:18:29.77Z</time></trkpt><trkpt lat="43.49959" lon="11.307815"><ele>551.0</ele><time>2026-03-22T09:18:30.769Z</time></trkpt><trkpt lat="43.4995687" lon="11.3076884"><ele>550.4</ele><time>2026-03-22T09:18:31.77Z</time></trkpt><trkpt lat="43.4995394" lon="11.3076014"><ele>549.8</ele><time>2026-03-22T09:18:32.769Z</time></trkpt><trkpt lat="43.499507" lon="11.3074543"><ele>549.1999999999999</ele><time>2026-03-22T09:18:34.769Z</time></trkpt><trkpt lat="43.499535" lon="11.3073587"><ele>548.6</ele><time>2026-03-22T09:18:35.771Z</time></trkpt><trkpt lat="43.4995912" lon="11.3072422"><ele>548.0</ele><time>2026-03-22T09:18:36.77Z</time></trkpt><trkpt lat="43.499659" lon="11.3071018"><ele>548.0</ele><time>2026-03-22T09:18:37.77Z</time></trkpt><trkpt lat="43.4997159" lon="11.3069717"><ele>548.0</ele><time>2026-03-22T09:18:38.769Z</time></trkpt><trkpt lat="43.4997431" lon="11.3068655"><ele>548.0</ele><time>2026-03-22T09:18:39.769Z</time></trkpt><trkpt lat="43.4997544" lon="11.3067454"><ele>548.0</ele><time>2026-03-22T09:18:40.769Z</time></trkpt><trkpt lat="43.4997329" lon="11.3065845"><ele>548.0</ele><time>2026-03-22T09:18:41.77Z</time></trkpt><trkpt lat="43.4997369" lon="11.3064643"><ele>547.6</ele><time>2026-03-22T09:18:42.769Z</time></trkpt><trkpt lat="43.4997549" lon="11.3063474"><ele>547.1999999999999</ele><time>2026-03-22T09:18:43.769Z</time></trkpt><trkpt lat="43.4997829" lon="11.3062452"><ele>546.8</ele><time>2026-03-22T09:18:44.771Z</time></trkpt><trkpt lat="43.499842" lon="11.3060952"><ele>546.4</ele><time>2026-03-22T09:18:46.769Z</time></trkpt><trkpt lat="43.4999165" lon="11.3059825"><ele>546.0</ele><time>2026-03-22T09:18:48.769Z</time></trkpt><trkpt lat="43.499981" lon="11.3059088"><ele>546.0</ele><time>2026-03-22T09:18:49.77Z</time></trkpt><trkpt lat="43.5000497" lon="11.3057942"><ele>546.0</ele><time>2026-03-22T09:18:50.769Z</time></trkpt><trkpt lat="43.5001224" lon="11.3056624"><ele>546.0</ele><time>2026-03-22T09:18:51.771Z</time></trkpt><trkpt lat="43.5001739" lon="11.3055271"><ele>546.0</ele><time>2026-03-22T09:18:52.769Z</time></trkpt><trkpt lat="43.5002143" lon="11.3054049"><ele>546.0</ele><time>2026-03-22T09:18:53.769Z</time></trkpt><trkpt lat="43.5002587" lon="11.3052916"><ele>545.3333333333334</ele><time>2026-03-22T09:18:54.77Z</time></trkpt><trkpt lat="43.5003072" lon="11.3051832"><ele>544.6666666666666</ele><time>2026-03-22T09:18:55.77Z</time></trkpt><trkpt lat="43.5003517" lon="11.3050847"><ele>544.0</ele><time>2026-03-22T09:18:56.77Z</time></trkpt><trkpt lat="43.5003848" lon="11.304947"><ele>543.3333333333333</ele><time>2026-03-22T09:18:58.77Z</time></trkpt><trkpt lat="43.5003317" lon="11.3048723"><ele>542.6666666666666</ele><time>2026-03-22T09:19:00.769Z</time></trkpt><trkpt lat="43.5002441" lon="11.304844"><ele>542.0</ele><time>2026-03-22T09:19:02.769Z</time></trkpt><trkpt lat="43.500121" lon="11.3048059"><ele>542.0</ele><time>2026-03-22T09:19:04.77Z</time></trkpt><trkpt lat="43.5000274" lon="11.3047929"><ele>542.0</ele><time>2026-03-22T09:19:05.769Z</time></trkpt><trkpt lat="43.4999463" lon="11.3047885"><ele>542.0</ele><time>2026-03-22T09:19:06.771Z</time></trkpt><trkpt lat="43.4998638" lon="11.3047832"><ele>542.0</ele><time>2026-03-22T09:19:07.769Z</time></trkpt><trkpt lat="43.4997856" lon="11.3047699"><ele>542.0</ele><time>2026-03-22T09:19:08.769Z</time></trkpt><trkpt lat="43.4997016" lon="11.3047533"><ele>542.0</ele><time>2026-03-22T09:19:09.77Z</time></trkpt><trkpt lat="43.4996088" lon="11.3047318"><ele>541.2</ele><time>2026-03-22T09:19:10.77Z</time></trkpt><trkpt lat="43.499507" lon="11.3047072"><ele>540.4000000000001</ele><time>2026-03-22T09:19:11.77Z</time></trkpt><trkpt lat="43.4994195" lon="11.3046986"><ele>539.5999999999999</ele><time>2026-03-22T09:19:12.77Z</time></trkpt><trkpt lat="43.4993196" lon="11.3047147"><ele>538.8</ele><time>2026-03-22T09:19:13.769Z</time></trkpt><trkpt lat="43.4992357" lon="11.3047465"><ele>538.0</ele><time>2026-03-22T09:19:14.77Z</time></trkpt><trkpt lat="43.4991609" lon="11.3048076"><ele>538.0</ele><time>2026-03-22T09:19:15.769Z</time></trkpt><trkpt lat="43.4990926" lon="11.3048472"><ele>538.0</ele><time>2026-03-22T09:19:16.771Z</time></trkpt><trkpt lat="43.4990018" lon="11.3048854"><ele>538.0</ele><time>2026-03-22T09:19:17.77Z</time></trkpt><trkpt lat="43.4988979" lon="11.3049534"><ele>538.0</ele><time>2026-03-22T09:19:18.771Z</time></trkpt><trkpt lat="43.4987773" lon="11.3050326"><ele>538.0</ele><time>2026-03-22T09:19:19.769Z</time></trkpt><trkpt lat="43.4986699" lon="11.3051089"><ele>536.0</ele><time>2026-03-22T09:19:20.77Z</time></trkpt><trkpt lat="43.4985751" lon="11.3051741"><ele>534.0</ele><time>2026-03-22T09:19:21.769Z</time></trkpt><trkpt lat="43.4984895" lon="11.3052248"><ele>532.0</ele><time>2026-03-22T09:19:22.77Z</time></trkpt><trkpt lat="43.4984072" lon="11.3052583"><ele>530.0</ele><time>2026-03-22T09:19:23.771Z</time></trkpt><trkpt lat="43.4983136" lon="11.3052735"><ele>528.0</ele><time>2026-03-22T09:19:24.771Z</time></trkpt><trkpt lat="43.4982145" lon="11.305292"><ele>528.0</ele><time>2026-03-22T09:19:25.77Z</time></trkpt><trkpt lat="43.4981115" lon="11.3053093"><ele>528.0</ele><time>2026-03-22T09:19:26.77Z</time></trkpt><trkpt lat="43.4980108" lon="11.3053317"><ele>528.0</ele><time>2026-03-22T09:19:27.77Z</time></trkpt><trkpt lat="43.4979105" lon="11.3053754"><ele>528.0</ele><time>2026-03-22T09:19:28.769Z</time></trkpt><trkpt lat="43.4978358" lon="11.3053986"><ele>528.0</ele><time>2026-03-22T09:19:29.769Z</time></trkpt><trkpt lat="43.4977408" lon="11.3053847"><ele>528.5</ele><time>2026-03-22T09:19:30.77Z</time></trkpt><trkpt lat="43.4976216" lon="11.3053344"><ele>529.0</ele><time>2026-03-22T09:19:31.77Z</time></trkpt><trkpt lat="43.4974846" lon="11.3052987"><ele>529.5</ele><time>2026-03-22T09:19:32.77Z</time></trkpt><trkpt lat="43.4973526" lon="11.3052569"><ele>530.0</ele><time>2026-03-22T09:19:33.771Z</time></trkpt><trkpt lat="43.4972335" lon="11.3052241"><ele>530.0</ele><time>2026-03-22T09:19:34.769Z</time></trkpt><trkpt lat="43.4971203" lon="11.3051803"><ele>530.0</ele><time>2026-03-22T09:19:35.77Z</time></trkpt><trkpt lat="43.4970018" lon="11.3051167"><ele>530.0</ele><time>2026-03-22T09:19:36.769Z</time></trkpt><trkpt lat="43.4968649" lon="11.3050427"><ele>530.0</ele><time>2026-03-22T09:19:37.77Z</time></trkpt><trkpt lat="43.4967527" lon="11.3049814"><ele>530.6</ele><time>2026-03-22T09:19:38.77Z</time></trkpt><trkpt lat="43.4966487" lon="11.3049189"><ele>531.2</ele><time>2026-03-22T09:19:39.769Z</time></trkpt><trkpt lat="43.4965384" lon="11.3048537"><ele>531.8</ele><time>2026-03-22T09:19:40.77Z</time></trkpt><trkpt lat="43.4964397" lon="11.3047916"><ele>532.4</ele><time>2026-03-22T09:19:41.77Z</time></trkpt><trkpt lat="43.4963502" lon="11.3047372"><ele>533.0</ele><time>2026-03-22T09:19:42.769Z</time></trkpt><trkpt lat="43.4962562" lon="11.3046899"><ele>536.8</ele><time>2026-03-22T09:19:43.77Z</time></trkpt><trkpt lat="43.4961604" lon="11.3046696"><ele>540.5999999999999</ele><time>2026-03-22T09:19:44.77Z</time></trkpt><trkpt lat="43.4960858" lon="11.3046211"><ele>544.4000000000001</ele><time>2026-03-22T09:19:45.77Z</time></trkpt><trkpt lat="43.4960088" lon="11.3045532"><ele>548.2</ele><time>2026-03-22T09:19:46.769Z</time></trkpt><trkpt lat="43.4959438" lon="11.3044479"><ele>552.0</ele><time>2026-03-22T09:19:47.769Z</time></trkpt><trkpt lat="43.4958261" lon="11.3043053"><ele>552.0</ele><time>2026-03-22T09:19:48.769Z</time></trkpt><trkpt lat="43.4957299" lon="11.3041714"><ele>552.0</ele><time>2026-03-22T09:19:49.77Z</time></trkpt><trkpt lat="43.4956434" lon="11.3040439"><ele>552.0</ele><time>2026-03-22T09:19:50.769Z</time></trkpt><trkpt lat="43.4955647" lon="11.3039292"><ele>552.0</ele><time>2026-03-22T09:19:51.77Z</time></trkpt><trkpt lat="43.4954813" lon="11.3038093"><ele>552.8571428571429</ele><time>2026-03-22T09:19:52.771Z</time></trkpt><trkpt lat="43.4954283" lon="11.3037437"><ele>553.7142857142858</ele><time>2026-03-22T09:19:53.769Z</time></trkpt><trkpt lat="43.4953733" lon="11.303686"><ele>554.5714285714286</ele><time>2026-03-22T09:19:54.771Z</time></trkpt><trkpt lat="43.4952993" lon="11.3036275"><ele>555.4285714285714</ele><time>2026-03-22T09:19:55.77Z</time></trkpt><trkpt lat="43.4952402" lon="11.3035975"><ele>556.2857142857142</ele><time>2026-03-22T09:19:56.77Z</time></trkpt><trkpt lat="43.4951829" lon="11.303555"><ele>557.1428571428571</ele><time>2026-03-22T09:19:57.77Z</time></trkpt><trkpt lat="43.4951095" lon="11.3035006"><ele>558.0</ele><time>2026-03-22T09:19:59.769Z</time></trkpt><trkpt lat="43.4950367" lon="11.3034813"><ele>558.0</ele><time>2026-03-22T09:22:09.77Z</time></trkpt><trkpt lat="43.4949725" lon="11.3034036"><ele>558.0</ele><time>2026-03-22T09:22:11.77Z</time></trkpt><trkpt lat="43.4948881" lon="11.3032849"><ele>558.0</ele><time>2026-03-22T09:22:13.771Z</time></trkpt><trkpt lat="43.4948414" lon="11.3032208"><ele>558.0</ele><time>2026-03-22T09:22:14.77Z</time></trkpt><trkpt lat="43.4947994" lon="11.3031558"><ele>558.0</ele><time>2026-03-22T09:22:15.769Z</time></trkpt><trkpt lat="43.4947281" lon="11.3030478"><ele>558.0</ele><time>2026-03-22T09:22:17.77Z</time></trkpt><trkpt lat="43.494665" lon="11.3029563"><ele>558.5</ele><time>2026-03-22T09:22:19.77Z</time></trkpt><trkpt lat="43.4946001" lon="11.3028908"><ele>559.0</ele><time>2026-03-22T09:22:21.771Z</time></trkpt><trkpt lat="43.4945327" lon="11.3028939"><ele>559.5</ele><time>2026-03-22T09:22:23.771Z</time></trkpt><trkpt lat="43.4944722" lon="11.3029206"><ele>560.0</ele><time>2026-03-22T09:22:25.77Z</time></trkpt><trkpt lat="43.4944069" lon="11.302937"><ele>560.5</ele><time>2026-03-22T09:22:28.77Z</time></trkpt><trkpt lat="43.494412" lon="11.3027996"><ele>561.0</ele><time>2026-03-22T09:22:31.77Z</time></trkpt><trkpt lat="43.4943999" lon="11.3026723"><ele>561.0</ele><time>2026-03-22T09:22:33.77Z</time></trkpt><trkpt lat="43.4943715" lon="11.3025308"><ele>561.0</ele><time>2026-03-22T09:22:35.769Z</time></trkpt><trkpt lat="43.4943352" lon="11.3024581"><ele>561.0</ele><time>2026-03-22T09:22:36.771Z</time></trkpt><trkpt lat="43.4943009" lon="11.3023063"><ele>561.0</ele><time>2026-03-22T09:22:38.769Z</time></trkpt><trkpt lat="43.4942473" lon="11.3021734"><ele>561.0</ele><time>2026-03-22T09:22:40.769Z</time></trkpt><trkpt lat="43.4941392" lon="11.3020761"><ele>558.4</ele><time>2026-03-22T09:22:42.77Z</time></trkpt><trkpt lat="43.4940164" lon="11.3020576"><ele>555.8</ele><time>2026-03-22T09:22:44.771Z</time></trkpt><trkpt lat="43.4938857" lon="11.302072"><ele>553.1999999999999</ele><time>2026-03-22T09:22:46.77Z</time></trkpt><trkpt lat="43.4938151" lon="11.302078"><ele>550.6</ele><time>2026-03-22T09:22:47.769Z</time></trkpt><trkpt lat="43.4937454" lon="11.3020821"><ele>548.0</ele><time>2026-03-22T09:22:48.77Z</time></trkpt><trkpt lat="43.4936745" lon="11.3020923"><ele>547.4</ele><time>2026-03-22T09:22:49.77Z</time></trkpt><trkpt lat="43.4935432" lon="11.3020572"><ele>546.8</ele><time>2026-03-22T09:22:51.77Z</time></trkpt><trkpt lat="43.4934783" lon="11.3020094"><ele>546.2</ele><time>2026-03-22T09:22:52.77Z</time></trkpt><trkpt lat="43.4934032" lon="11.3019524"><ele>545.6</ele><time>2026-03-22T09:22:53.77Z</time></trkpt><trkpt lat="43.4933203" lon="11.3018892"><ele>545.0</ele><time>2026-03-22T09:22:54.77Z</time></trkpt><trkpt lat="43.4932392" lon="11.3018194"><ele>545.0</ele><time>2026-03-22T09:22:55.769Z</time></trkpt><trkpt lat="43.4931565" lon="11.3017506"><ele>545.0</ele><time>2026-03-22T09:22:56.77Z</time></trkpt><trkpt lat="43.4930731" lon="11.3016846"><ele>545.0</ele><time>2026-03-22T09:22:57.77Z</time></trkpt><trkpt lat="43.4929885" lon="11.3016242"><ele>545.0</ele><time>2026-03-22T09:22:58.77Z</time></trkpt><trkpt lat="43.4929035" lon="11.3015574"><ele>545.0</ele><time>2026-03-22T09:22:59.769Z</time></trkpt><trkpt lat="43.4928223" lon="11.3014929"><ele>542.6</ele><time>2026-03-22T09:23:00.769Z</time></trkpt><trkpt lat="43.492739" lon="11.3014329"><ele>540.2</ele><time>2026-03-22T09:23:01.769Z</time></trkpt><trkpt lat="43.4926489" lon="11.301371"><ele>537.8</ele><time>2026-03-22T09:23:02.77Z</time></trkpt><trkpt lat="43.4925544" lon="11.301306"><ele>535.4</ele><time>2026-03-22T09:23:03.769Z</time></trkpt><trkpt lat="43.4924558" lon="11.3012482"><ele>533.0</ele><time>2026-03-22T09:23:04.77Z</time></trkpt><trkpt lat="43.4923537" lon="11.3011821"><ele>533.0</ele><time>2026-03-22T09:23:05.77Z</time></trkpt><trkpt lat="43.4922458" lon="11.3011143"><ele>533.0</ele><time>2026-03-22T09:23:06.771Z</time></trkpt><trkpt lat="43.4921404" lon="11.3010594"><ele>533.0</ele><time>2026-03-22T09:23:07.77Z</time></trkpt><trkpt lat="43.4920337" lon="11.3010119"><ele>533.0</ele><time>2026-03-22T09:23:08.77Z</time></trkpt><trkpt lat="43.491935" lon="11.3009405"><ele>531.1999999999999</ele><time>2026-03-22T09:23:09.77Z</time></trkpt><trkpt lat="43.4918303" lon="11.3008837"><ele>529.4</ele><time>2026-03-22T09:23:10.769Z</time></trkpt><trkpt lat="43.4917447" lon="11.3008207"><ele>527.5999999999999</ele><time>2026-03-22T09:23:11.771Z</time></trkpt><trkpt lat="43.4916615" lon="11.3007581"><ele>525.8</ele><time>2026-03-22T09:23:12.77Z</time></trkpt><trkpt lat="43.4915721" lon="11.3007029"><ele>524.0</ele><time>2026-03-22T09:23:13.771Z</time></trkpt><trkpt lat="43.4914916" lon="11.3006445"><ele>524.0</ele><time>2026-03-22T09:23:14.77Z</time></trkpt><trkpt lat="43.491411" lon="11.3005902"><ele>524.0</ele><time>2026-03-22T09:23:15.77Z</time></trkpt><trkpt lat="43.4913404" lon="11.3005344"><ele>524.0</ele><time>2026-03-22T09:23:16.769Z</time></trkpt><trkpt lat="43.4912706" lon="11.3004894"><ele>524.0</ele><time>2026-03-22T09:23:17.77Z</time></trkpt><trkpt lat="43.4912119" lon="11.3004525"><ele>524.0</ele><time>2026-03-22T09:23:18.77Z</time></trkpt><trkpt lat="43.4911282" lon="11.3003859"><ele>524.0</ele><time>2026-03-22T09:23:20.769Z</time></trkpt><trkpt lat="43.4911122" lon="11.3002617"><ele>524.2</ele><time>2026-03-22T09:23:23.77Z</time></trkpt><trkpt lat="43.4910562" lon="11.3001364"><ele>524.4</ele><time>2026-03-22T09:23:25.77Z</time></trkpt><trkpt lat="43.4909718" lon="11.3000347"><ele>524.6</ele><time>2026-03-22T09:23:27.77Z</time></trkpt><trkpt lat="43.4909038" lon="11.2999066"><ele>524.8</ele><time>2026-03-22T09:23:29.77Z</time></trkpt><trkpt lat="43.4908435" lon="11.2998015"><ele>525.0</ele><time>2026-03-22T09:23:31.77Z</time></trkpt><trkpt lat="43.4907604" lon="11.2997222"><ele>525.4</ele><time>2026-03-22T09:23:33.77Z</time></trkpt><trkpt lat="43.4906917" lon="11.2997413"><ele>525.8</ele><time>2026-03-22T09:23:35.769Z</time></trkpt><trkpt lat="43.4906064" lon="11.299738"><ele>526.2</ele><time>2026-03-22T09:23:37.769Z</time></trkpt><trkpt lat="43.4905114" lon="11.2996733"><ele>526.6</ele><time>2026-03-22T09:23:39.771Z</time></trkpt><trkpt lat="43.490447" lon="11.2995354"><ele>527.0</ele><time>2026-03-22T09:23:41.77Z</time></trkpt><trkpt lat="43.4904194" lon="11.2994461"><ele>528.5</ele><time>2026-03-22T09:23:42.771Z</time></trkpt><trkpt lat="43.4903966" lon="11.2993531"><ele>530.0</ele><time>2026-03-22T09:23:43.771Z</time></trkpt><trkpt lat="43.490363" lon="11.2992426"><ele>531.5</ele><time>2026-03-22T09:23:44.77Z</time></trkpt><trkpt lat="43.4903323" lon="11.2991415"><ele>533.0</ele><time>2026-03-22T09:23:45.769Z</time></trkpt><trkpt lat="43.490301" lon="11.2990398"><ele>534.5</ele><time>2026-03-22T09:23:46.77Z</time></trkpt><trkpt lat="43.4902748" lon="11.2989594"><ele>536.0</ele><time>2026-03-22T09:23:47.771Z</time></trkpt><trkpt lat="43.4902202" lon="11.2988879"><ele>536.4</ele><time>2026-03-22T09:23:48.77Z</time></trkpt><trkpt lat="43.4901233" lon="11.2988104"><ele>536.8</ele><time>2026-03-22T09:23:49.769Z</time></trkpt><trkpt lat="43.4900318" lon="11.2987157"><ele>537.1999999999999</ele><time>2026-03-22T09:23:50.771Z</time></trkpt><trkpt lat="43.4899656" lon="11.2986182"><ele>537.6</ele><time>2026-03-22T09:23:51.769Z</time></trkpt><trkpt lat="43.4898954" lon="11.298515"><ele>538.0</ele><time>2026-03-22T09:23:52.77Z</time></trkpt><trkpt lat="43.4898313" lon="11.2984252"><ele>538.0</ele><time>2026-03-22T09:23:53.771Z</time></trkpt><trkpt lat="43.4897707" lon="11.2983592"><ele>538.0</ele><time>2026-03-22T09:23:54.77Z</time></trkpt><trkpt lat="43.4896863" lon="11.2983139"><ele>538.0</ele><time>2026-03-22T09:23:55.77Z</time></trkpt><trkpt lat="43.4896071" lon="11.2982725"><ele>538.0</ele><time>2026-03-22T09:23:56.77Z</time></trkpt><trkpt lat="43.4895276" lon="11.2982423"><ele>538.0</ele><time>2026-03-22T09:23:57.769Z</time></trkpt><trkpt lat="43.4894447" lon="11.2982304"><ele>538.0</ele><time>2026-03-22T09:23:58.769Z</time></trkpt><trkpt lat="43.4893674" lon="11.2982106"><ele>539.1666666666667</ele><time>2026-03-22T09:23:59.77Z</time></trkpt><trkpt lat="43.489301" lon="11.298174"><ele>540.3333333333334</ele><time>2026-03-22T09:24:00.77Z</time></trkpt><trkpt lat="43.4892287" lon="11.2980673"><ele>541.5</ele><time>2026-03-22T09:24:02.771Z</time></trkpt><trkpt lat="43.4891563" lon="11.2980985"><ele>542.6666666666666</ele><time>2026-03-22T09:24:03.771Z</time></trkpt><trkpt lat="43.4890355" lon="11.2981173"><ele>543.8333333333333</ele><time>2026-03-22T09:24:05.77Z</time></trkpt><trkpt lat="43.4889746" lon="11.2980767"><ele>545.0</ele><time>2026-03-22T09:24:06.77Z</time></trkpt><trkpt lat="43.4889028" lon="11.2980375"><ele>545.0</ele><time>2026-03-22T09:24:07.769Z</time></trkpt><trkpt lat="43.4888242" lon="11.297962"><ele>545.0</ele><time>2026-03-22T09:24:08.77Z</time></trkpt><trkpt lat="43.4887515" lon="11.2978872"><ele>545.0</ele><time>2026-03-22T09:24:09.769Z</time></trkpt><trkpt lat="43.4886606" lon="11.297799"><ele>545.0</ele><time>2026-03-22T09:24:10.77Z</time></trkpt><trkpt lat="43.4885548" lon="11.2976816"><ele>545.0</ele><time>2026-03-22T09:24:11.769Z</time></trkpt><trkpt lat="43.4884482" lon="11.2975582"><ele>546.2</ele><time>2026-03-22T09:24:12.77Z</time></trkpt><trkpt lat="43.488362" lon="11.2974472"><ele>547.4</ele><time>2026-03-22T09:24:13.769Z</time></trkpt><trkpt lat="43.4883093" lon="11.2973659"><ele>548.6</ele><time>2026-03-22T09:24:14.77Z</time></trkpt><trkpt lat="43.4882264" lon="11.2973032"><ele>549.8</ele><time>2026-03-22T09:24:15.77Z</time></trkpt><trkpt lat="43.4881301" lon="11.2972317"><ele>551.0</ele><time>2026-03-22T09:24:16.771Z</time></trkpt><trkpt lat="43.4880513" lon="11.2971432"><ele>551.0</ele><time>2026-03-22T09:24:17.77Z</time></trkpt><trkpt lat="43.4879697" lon="11.2970506"><ele>551.0</ele><time>2026-03-22T09:24:18.77Z</time></trkpt><trkpt lat="43.487897" lon="11.2969754"><ele>551.0</ele><time>2026-03-22T09:24:19.769Z</time></trkpt><trkpt lat="43.4878313" lon="11.2969252"><ele>551.0</ele><time>2026-03-22T09:24:20.771Z</time></trkpt><trkpt lat="43.4877143" lon="11.2969434"><ele>551.0</ele><time>2026-03-22T09:24:21.769Z</time></trkpt><trkpt lat="43.4876237" lon="11.2969327"><ele>553.0</ele><time>2026-03-22T09:24:22.77Z</time></trkpt><trkpt lat="43.487525" lon="11.2969168"><ele>555.0</ele><time>2026-03-22T09:24:23.77Z</time></trkpt><trkpt lat="43.4874188" lon="11.2968884"><ele>557.0</ele><time>2026-03-22T09:24:24.769Z</time></trkpt><trkpt lat="43.4873268" lon="11.2968588"><ele>559.0</ele><time>2026-03-22T09:24:25.769Z</time></trkpt><trkpt lat="43.4872515" lon="11.2968657"><ele>561.0</ele><time>2026-03-22T09:24:27.77Z</time></trkpt><trkpt lat="43.4871846" lon="11.2968539"><ele>563.0</ele><time>2026-03-22T09:24:29.77Z</time></trkpt><trkpt lat="43.4871057" lon="11.2968083"><ele>563.8333333333333</ele><time>2026-03-22T09:24:31.77Z</time></trkpt><trkpt lat="43.4869863" lon="11.2967591"><ele>564.6666666666666</ele><time>2026-03-22T09:24:33.769Z</time></trkpt><trkpt lat="43.4869114" lon="11.2967386"><ele>565.5</ele><time>2026-03-22T09:24:34.769Z</time></trkpt><trkpt lat="43.4868407" lon="11.2967115"><ele>566.3333333333334</ele><time>2026-03-22T09:24:35.77Z</time></trkpt><trkpt lat="43.4867652" lon="11.2966819"><ele>567.1666666666667</ele><time>2026-03-22T09:24:36.77Z</time></trkpt><trkpt lat="43.486683" lon="11.2966415"><ele>568.0</ele><time>2026-03-22T09:24:37.769Z</time></trkpt><trkpt lat="43.4865983" lon="11.2965899"><ele>568.0</ele><time>2026-03-22T09:24:38.77Z</time></trkpt><trkpt lat="43.4865212" lon="11.2965306"><ele>568.0</ele><time>2026-03-22T09:24:39.769Z</time></trkpt><trkpt lat="43.4864495" lon="11.2964747"><ele>568.0</ele><time>2026-03-22T09:24:40.77Z</time></trkpt><trkpt lat="43.4863788" lon="11.2964325"><ele>568.0</ele><time>2026-03-22T09:24:41.77Z</time></trkpt><trkpt lat="43.4863037" lon="11.2964151"><ele>568.0</ele><time>2026-03-22T09:24:42.77Z</time></trkpt><trkpt lat="43.4862232" lon="11.2964177"><ele>568.0</ele><time>2026-03-22T09:24:43.77Z</time></trkpt><trkpt lat="43.4861437" lon="11.2964293"><ele>568.0</ele><time>2026-03-22T09:24:44.77Z</time></trkpt><trkpt lat="43.4860601" lon="11.296453"><ele>568.0</ele><time>2026-03-22T09:24:45.771Z</time></trkpt><trkpt lat="43.4859747" lon="11.2964814"><ele>568.0</ele><time>2026-03-22T09:24:46.77Z</time></trkpt><trkpt lat="43.4858896" lon="11.296512"><ele>568.0</ele><time>2026-03-22T09:24:47.772Z</time></trkpt><trkpt lat="43.4857966" lon="11.29654"><ele>568.0</ele><time>2026-03-22T09:24:48.771Z</time></trkpt><trkpt lat="43.4856975" lon="11.2965559"><ele>568.0</ele><time>2026-03-22T09:24:49.77Z</time></trkpt><trkpt lat="43.4856006" lon="11.2965704"><ele>568.0</ele><time>2026-03-22T09:24:50.771Z</time></trkpt><trkpt lat="43.4855055" lon="11.2965789"><ele>568.0</ele><time>2026-03-22T09:24:51.771Z</time></trkpt><trkpt lat="43.4854141" lon="11.2965942"><ele>568.0</ele><time>2026-03-22T09:24:52.771Z</time></trkpt><trkpt lat="43.4853313" lon="11.2965976"><ele>568.0</ele><time>2026-03-22T09:24:53.772Z</time></trkpt><trkpt lat="43.4852547" lon="11.2965885"><ele>568.0</ele><time>2026-03-22T09:24:54.77Z</time></trkpt><trkpt lat="43.485176" lon="11.2965767"><ele>567.1666666666667</ele><time>2026-03-22T09:24:55.771Z</time></trkpt><trkpt lat="43.4850956" lon="11.2965688"><ele>566.3333333333334</ele><time>2026-03-22T09:24:56.771Z</time></trkpt><trkpt lat="43.4850211" lon="11.2965266"><ele>565.5</ele><time>2026-03-22T09:24:57.77Z</time></trkpt><trkpt lat="43.4849483" lon="11.2964937"><ele>564.6666666666666</ele><time>2026-03-22T09:24:58.771Z</time></trkpt><trkpt lat="43.4848765" lon="11.2964585"><ele>563.8333333333333</ele><time>2026-03-22T09:24:59.771Z</time></trkpt><trkpt lat="43.4848095" lon="11.2964281"><ele>563.0</ele><time>2026-03-22T09:25:00.771Z</time></trkpt><trkpt lat="43.4847432" lon="11.2963888"><ele>563.5</ele><time>2026-03-22T09:25:01.771Z</time></trkpt><trkpt lat="43.4846747" lon="11.2963427"><ele>564.0</ele><time>2026-03-22T09:25:02.771Z</time></trkpt><trkpt lat="43.4845975" lon="11.2962931"><ele>564.5</ele><time>2026-03-22T09:25:03.77Z</time></trkpt><trkpt lat="43.4845189" lon="11.2962395"><ele>565.0</ele><time>2026-03-22T09:25:04.771Z</time></trkpt><trkpt lat="43.4844411" lon="11.2961927"><ele>565.5</ele><time>2026-03-22T09:25:05.77Z</time></trkpt><trkpt lat="43.4843575" lon="11.2961407"><ele>566.0</ele><time>2026-03-22T09:25:06.772Z</time></trkpt><trkpt lat="43.4842746" lon="11.2961013"><ele>566.0</ele><time>2026-03-22T09:25:07.77Z</time></trkpt><trkpt lat="43.4841912" lon="11.2960553"><ele>566.0</ele><time>2026-03-22T09:25:08.771Z</time></trkpt><trkpt lat="43.4841116" lon="11.2960089"><ele>566.0</ele><time>2026-03-22T09:25:09.771Z</time></trkpt><trkpt lat="43.4840312" lon="11.2959687"><ele>566.0</ele><time>2026-03-22T09:25:10.771Z</time></trkpt><trkpt lat="43.4839591" lon="11.2959077"><ele>566.0</ele><time>2026-03-22T09:25:11.771Z</time></trkpt><trkpt lat="43.4838824" lon="11.2958504"><ele>566.0</ele><time>2026-03-22T09:25:12.771Z</time></trkpt><trkpt lat="43.4837983" lon="11.2958077"><ele>567.8</ele><time>2026-03-22T09:25:13.772Z</time></trkpt><trkpt lat="43.4837071" lon="11.2957975"><ele>569.6</ele><time>2026-03-22T09:25:14.771Z</time></trkpt><trkpt lat="43.4836097" lon="11.2958038"><ele>571.4</ele><time>2026-03-22T09:25:15.77Z</time></trkpt><trkpt lat="43.4835116" lon="11.2957987"><ele>573.2</ele><time>2026-03-22T09:25:16.772Z</time></trkpt><trkpt lat="43.4834111" lon="11.2957805"><ele>575.0</ele><time>2026-03-22T09:25:17.77Z</time></trkpt><trkpt lat="43.483304" lon="11.2957672"><ele>575.0</ele><time>2026-03-22T09:25:18.771Z</time></trkpt><trkpt lat="43.4832076" lon="11.2957505"><ele>575.0</ele><time>2026-03-22T09:25:19.771Z</time></trkpt><trkpt lat="43.4831066" lon="11.2957593"><ele>575.0</ele><time>2026-03-22T09:25:20.771Z</time></trkpt><trkpt lat="43.4830014" lon="11.2957786"><ele>575.0</ele><time>2026-03-22T09:25:21.771Z</time></trkpt><trkpt lat="43.4828984" lon="11.2957722"><ele>575.0</ele><time>2026-03-22T09:25:22.77Z</time></trkpt><trkpt lat="43.4827886" lon="11.2957494"><ele>574.4</ele><time>2026-03-22T09:25:23.77Z</time></trkpt><trkpt lat="43.4826859" lon="11.2957225"><ele>573.8</ele><time>2026-03-22T09:25:24.771Z</time></trkpt><trkpt lat="43.4825749" lon="11.2957172"><ele>573.2</ele><time>2026-03-22T09:25:25.771Z</time></trkpt><trkpt lat="43.4824706" lon="11.2957207"><ele>572.6</ele><time>2026-03-22T09:25:26.771Z</time></trkpt><trkpt lat="43.4823685" lon="11.2957195"><ele>572.0</ele><time>2026-03-22T09:25:27.771Z</time></trkpt><trkpt lat="43.4822627" lon="11.2957225"><ele>572.0</ele><time>2026-03-22T09:25:28.771Z</time></trkpt><trkpt lat="43.4821569" lon="11.2957201"><ele>572.0</ele><time>2026-03-22T09:25:29.77Z</time></trkpt><trkpt lat="43.4820574" lon="11.2957056"><ele>572.0</ele><time>2026-03-22T09:25:30.771Z</time></trkpt><trkpt lat="43.4819576" lon="11.2956748"><ele>572.0</ele><time>2026-03-22T09:25:31.77Z</time></trkpt><trkpt lat="43.4818637" lon="11.2956406"><ele>572.0</ele><time>2026-03-22T09:25:32.77Z</time></trkpt><trkpt lat="43.4817658" lon="11.2956064"><ele>569.6</ele><time>2026-03-22T09:25:33.771Z</time></trkpt><trkpt lat="43.4816634" lon="11.2955848"><ele>567.2</ele><time>2026-03-22T09:25:34.771Z</time></trkpt><trkpt lat="43.4815543" lon="11.2955708"><ele>564.8</ele><time>2026-03-22T09:25:35.771Z</time></trkpt><trkpt lat="43.4814574" lon="11.295558"><ele>562.4</ele><time>2026-03-22T09:25:36.77Z</time></trkpt><trkpt lat="43.4813702" lon="11.2955439"><ele>560.0</ele><time>2026-03-22T09:25:37.771Z</time></trkpt><trkpt lat="43.4812894" lon="11.2955366"><ele>561.0</ele><time>2026-03-22T09:25:38.77Z</time></trkpt><trkpt lat="43.4812143" lon="11.2955261"><ele>562.0</ele><time>2026-03-22T09:25:39.771Z</time></trkpt><trkpt lat="43.4811368" lon="11.2955234"><ele>563.0</ele><time>2026-03-22T09:25:40.771Z</time></trkpt><trkpt lat="43.4810626" lon="11.2955215"><ele>564.0</ele><time>2026-03-22T09:25:41.771Z</time></trkpt><trkpt lat="43.4809968" lon="11.295502"><ele>565.0</ele><time>2026-03-22T09:25:42.771Z</time></trkpt><trkpt lat="43.4809286" lon="11.2954832"><ele>566.0</ele><time>2026-03-22T09:25:43.771Z</time></trkpt><trkpt lat="43.4808636" lon="11.2954631"><ele>567.0</ele><time>2026-03-22T09:25:44.77Z</time></trkpt><trkpt lat="43.480797" lon="11.295445"><ele>567.0</ele><time>2026-03-22T09:25:45.771Z</time></trkpt><trkpt lat="43.4807294" lon="11.2954242"><ele>567.0</ele><time>2026-03-22T09:25:46.77Z</time></trkpt><trkpt lat="43.4806649" lon="11.2953961"><ele>567.0</ele><time>2026-03-22T09:25:47.77Z</time></trkpt><trkpt lat="43.4805998" lon="11.2953516"><ele>567.0</ele><time>2026-03-22T09:25:48.771Z</time></trkpt><trkpt lat="43.4805309" lon="11.295304"><ele>567.0</ele><time>2026-03-22T09:25:49.771Z</time></trkpt><trkpt lat="43.4804617" lon="11.2952563"><ele>567.0</ele><time>2026-03-22T09:25:50.771Z</time></trkpt><trkpt lat="43.4803924" lon="11.295211"><ele>567.0</ele><time>2026-03-22T09:25:51.77Z</time></trkpt><trkpt lat="43.4803174" lon="11.295175"><ele>567.3333333333334</ele><time>2026-03-22T09:25:52.771Z</time></trkpt><trkpt lat="43.4802555" lon="11.2951229"><ele>567.6666666666666</ele><time>2026-03-22T09:25:53.77Z</time></trkpt><trkpt lat="43.4802019" lon="11.2950638"><ele>568.0</ele><time>2026-03-22T09:25:54.77Z</time></trkpt><trkpt lat="43.4801522" lon="11.294998"><ele>568.3333333333333</ele><time>2026-03-22T09:25:55.77Z</time></trkpt><trkpt lat="43.4801112" lon="11.2949232"><ele>568.6666666666666</ele><time>2026-03-22T09:25:56.772Z</time></trkpt><trkpt lat="43.4800749" lon="11.2948494"><ele>569.0</ele><time>2026-03-22T09:25:57.772Z</time></trkpt><trkpt lat="43.4800223" lon="11.2947086"><ele>570.0</ele><time>2026-03-22T09:25:59.77Z</time></trkpt><trkpt lat="43.4800196" lon="11.2946206"><ele>571.0</ele><time>2026-03-22T09:26:00.771Z</time></trkpt><trkpt lat="43.480013" lon="11.2945226"><ele>572.0</ele><time>2026-03-22T09:26:01.772Z</time></trkpt><trkpt lat="43.4800065" lon="11.2944307"><ele>573.0</ele><time>2026-03-22T09:26:02.771Z</time></trkpt><trkpt lat="43.4799573" lon="11.2942801"><ele>574.0</ele><time>2026-03-22T09:26:04.771Z</time></trkpt><trkpt lat="43.479908" lon="11.2941935"><ele>575.0</ele><time>2026-03-22T09:26:05.772Z</time></trkpt><trkpt lat="43.4798446" lon="11.2940981"><ele>575.0</ele><time>2026-03-22T09:26:06.772Z</time></trkpt><trkpt lat="43.4797698" lon="11.2940007"><ele>575.0</ele><time>2026-03-22T09:26:07.77Z</time></trkpt><trkpt lat="43.4796979" lon="11.2938911"><ele>575.0</ele><time>2026-03-22T09:26:08.77Z</time></trkpt><trkpt lat="43.4796332" lon="11.2937858"><ele>575.0</ele><time>2026-03-22T09:26:09.77Z</time></trkpt><trkpt lat="43.4795788" lon="11.2937029"><ele>575.0</ele><time>2026-03-22T09:26:10.77Z</time></trkpt><trkpt lat="43.4795116" lon="11.2936233"><ele>577.2</ele><time>2026-03-22T09:26:11.77Z</time></trkpt><trkpt lat="43.4794395" lon="11.2935447"><ele>579.4</ele><time>2026-03-22T09:26:12.771Z</time></trkpt><trkpt lat="43.4793409" lon="11.2934998"><ele>581.6</ele><time>2026-03-22T09:26:13.771Z</time></trkpt><trkpt lat="43.4792489" lon="11.2934558"><ele>583.8</ele><time>2026-03-22T09:26:14.771Z</time></trkpt><trkpt lat="43.4791447" lon="11.2934168"><ele>586.0</ele><time>2026-03-22T09:26:15.772Z</time></trkpt><trkpt lat="43.4790462" lon="11.293375"><ele>586.0</ele><time>2026-03-22T09:26:16.77Z</time></trkpt><trkpt lat="43.4789526" lon="11.2933024"><ele>586.0</ele><time>2026-03-22T09:26:17.77Z</time></trkpt><trkpt lat="43.4788627" lon="11.2932274"><ele>586.0</ele><time>2026-03-22T09:26:18.771Z</time></trkpt><trkpt lat="43.4787691" lon="11.2931542"><ele>586.0</ele><time>2026-03-22T09:26:19.77Z</time></trkpt><trkpt lat="43.4787045" lon="11.2930625"><ele>586.0</ele><time>2026-03-22T09:26:20.77Z</time></trkpt><trkpt lat="43.4786288" lon="11.2929801"><ele>586.4</ele><time>2026-03-22T09:26:21.771Z</time></trkpt><trkpt lat="43.4785461" lon="11.2929231"><ele>586.8</ele><time>2026-03-22T09:26:22.771Z</time></trkpt><trkpt lat="43.4784476" lon="11.2928898"><ele>587.1999999999999</ele><time>2026-03-22T09:26:23.771Z</time></trkpt><trkpt lat="43.4783501" lon="11.2928362"><ele>587.6</ele><time>2026-03-22T09:26:24.77Z</time></trkpt><trkpt lat="43.4782224" lon="11.2928172"><ele>588.0</ele><time>2026-03-22T09:26:25.771Z</time></trkpt><trkpt lat="43.4781187" lon="11.2927966"><ele>588.0</ele><time>2026-03-22T09:26:26.771Z</time></trkpt><trkpt lat="43.4780167" lon="11.2927397"><ele>588.0</ele><time>2026-03-22T09:26:27.772Z</time></trkpt><trkpt lat="43.4779462" lon="11.2926319"><ele>588.0</ele><time>2026-03-22T09:26:28.77Z</time></trkpt><trkpt lat="43.477857" lon="11.2925693"><ele>588.0</ele><time>2026-03-22T09:26:30.77Z</time></trkpt><trkpt lat="43.4778548" lon="11.2924627"><ele>588.0</ele><time>2026-03-22T09:29:18.77Z</time></trkpt><trkpt lat="43.4778401" lon="11.2923701"><ele>587.1428571428571</ele><time>2026-03-22T09:29:19.77Z</time></trkpt><trkpt lat="43.4778104" lon="11.2922683"><ele>586.2857142857142</ele><time>2026-03-22T09:29:20.771Z</time></trkpt><trkpt lat="43.477779" lon="11.2921896"><ele>585.4285714285714</ele><time>2026-03-22T09:29:21.77Z</time></trkpt><trkpt lat="43.4777363" lon="11.2921085"><ele>584.5714285714286</ele><time>2026-03-22T09:29:22.771Z</time></trkpt><trkpt lat="43.4776998" lon="11.2920137"><ele>583.7142857142857</ele><time>2026-03-22T09:29:23.77Z</time></trkpt><trkpt lat="43.4776596" lon="11.2919305"><ele>582.8571428571429</ele><time>2026-03-22T09:29:24.771Z</time></trkpt><trkpt lat="43.4776661" lon="11.2918281"><ele>582.0</ele><time>2026-03-22T09:29:25.772Z</time></trkpt><trkpt lat="43.4776705" lon="11.2917138"><ele>580.6</ele><time>2026-03-22T09:29:26.772Z</time></trkpt><trkpt lat="43.4776926" lon="11.2916137"><ele>579.2</ele><time>2026-03-22T09:29:27.77Z</time></trkpt><trkpt lat="43.4777449" lon="11.2914683"><ele>577.8</ele><time>2026-03-22T09:29:29.77Z</time></trkpt><trkpt lat="43.4777716" lon="11.2913759"><ele>576.4</ele><time>2026-03-22T09:29:30.77Z</time></trkpt><trkpt lat="43.4778133" lon="11.2912377"><ele>575.0</ele><time>2026-03-22T09:29:32.77Z</time></trkpt><trkpt lat="43.4778615" lon="11.2911159"><ele>574.8</ele><time>2026-03-22T09:29:34.772Z</time></trkpt><trkpt lat="43.4779041" lon="11.2909784"><ele>574.6</ele><time>2026-03-22T09:29:36.771Z</time></trkpt><trkpt lat="43.4779417" lon="11.290883"><ele>574.4</ele><time>2026-03-22T09:29:37.77Z</time></trkpt><trkpt lat="43.4780147" lon="11.2908045"><ele>574.2</ele><time>2026-03-22T09:29:39.772Z</time></trkpt><trkpt lat="43.4781197" lon="11.2907615"><ele>574.0</ele><time>2026-03-22T09:29:41.77Z</time></trkpt><trkpt lat="43.4781987" lon="11.2906984"><ele>576.3333333333334</ele><time>2026-03-22T09:29:43.77Z</time></trkpt><trkpt lat="43.4782734" lon="11.2906127"><ele>578.6666666666667</ele><time>2026-03-22T09:29:45.771Z</time></trkpt><trkpt lat="43.4783197" lon="11.2905392"><ele>581.0</ele><time>2026-03-22T09:29:47.771Z</time></trkpt><trkpt lat="43.4783744" lon="11.2904928"><ele>583.3333333333334</ele><time>2026-03-22T09:29:49.77Z</time></trkpt><trkpt lat="43.4784471" lon="11.2904584"><ele>585.6666666666666</ele><time>2026-03-22T09:29:51.77Z</time></trkpt><trkpt lat="43.4785478" lon="11.2903914"><ele>588.0</ele><time>2026-03-22T09:29:53.77Z</time></trkpt><trkpt lat="43.4786469" lon="11.2903563"><ele>588.0</ele><time>2026-03-22T09:29:55.77Z</time></trkpt><trkpt lat="43.4787611" lon="11.2903539"><ele>588.0</ele><time>2026-03-22T09:29:57.77Z</time></trkpt><trkpt lat="43.478882" lon="11.2903304"><ele>588.0</ele><time>2026-03-22T09:29:59.771Z</time></trkpt><trkpt lat="43.4789714" lon="11.2902753"><ele>588.0</ele><time>2026-03-22T09:30:01.771Z</time></trkpt><trkpt lat="43.4789433" lon="11.2901718"><ele>588.0</ele><time>2026-03-22T09:31:34.77Z</time></trkpt><trkpt lat="43.4790194" lon="11.2900993"><ele>588.6666666666666</ele><time>2026-03-22T09:31:37.77Z</time></trkpt><trkpt lat="43.479094" lon="11.2900341"><ele>589.3333333333334</ele><time>2026-03-22T09:31:38.771Z</time></trkpt><trkpt lat="43.4791599" lon="11.2899753"><ele>590.0</ele><time>2026-03-22T09:31:39.771Z</time></trkpt><trkpt lat="43.4792291" lon="11.2899159"><ele>590.6666666666667</ele><time>2026-03-22T09:31:40.772Z</time></trkpt><trkpt lat="43.4792952" lon="11.2898242"><ele>591.3333333333334</ele><time>2026-03-22T09:31:41.77Z</time></trkpt><trkpt lat="43.4793693" lon="11.2897463"><ele>592.0</ele><time>2026-03-22T09:31:42.77Z</time></trkpt><trkpt lat="43.47943" lon="11.2896701"><ele>592.0</ele><time>2026-03-22T09:31:43.771Z</time></trkpt><trkpt lat="43.4794922" lon="11.2895895"><ele>592.0</ele><time>2026-03-22T09:31:44.771Z</time></trkpt><trkpt lat="43.4795604" lon="11.2895215"><ele>592.0</ele><time>2026-03-22T09:31:45.771Z</time></trkpt><trkpt lat="43.4796227" lon="11.2894865"><ele>592.0</ele><time>2026-03-22T09:31:46.771Z</time></trkpt><trkpt lat="43.4796865" lon="11.2894326"><ele>592.0</ele><time>2026-03-22T09:31:47.771Z</time></trkpt><trkpt lat="43.4797383" lon="11.2893657"><ele>592.0</ele><time>2026-03-22T09:31:48.771Z</time></trkpt><trkpt lat="43.4798032" lon="11.2892696"><ele>591.8333333333334</ele><time>2026-03-22T09:31:49.77Z</time></trkpt><trkpt lat="43.4798598" lon="11.2891827"><ele>591.6666666666667</ele><time>2026-03-22T09:31:50.77Z</time></trkpt><trkpt lat="43.4799064" lon="11.289101"><ele>591.5</ele><time>2026-03-22T09:31:51.772Z</time></trkpt><trkpt lat="43.4799526" lon="11.2890106"><ele>591.3333333333334</ele><time>2026-03-22T09:31:52.771Z</time></trkpt><trkpt lat="43.4799954" lon="11.2889184"><ele>591.1666666666666</ele><time>2026-03-22T09:31:53.772Z</time></trkpt><trkpt lat="43.4800315" lon="11.2888229"><ele>591.0</ele><time>2026-03-22T09:31:54.771Z</time></trkpt><trkpt lat="43.4800704" lon="11.2887212"><ele>591.0</ele><time>2026-03-22T09:31:55.77Z</time></trkpt><trkpt lat="43.4801125" lon="11.2886186"><ele>591.0</ele><time>2026-03-22T09:31:56.77Z</time></trkpt><trkpt lat="43.4801561" lon="11.2885168"><ele>591.0</ele><time>2026-03-22T09:31:57.773Z</time></trkpt><trkpt lat="43.4802077" lon="11.2883491"><ele>591.0</ele><time>2026-03-22T09:31:59.771Z</time></trkpt><trkpt lat="43.4802258" lon="11.2882574"><ele>591.0</ele><time>2026-03-22T09:32:00.772Z</time></trkpt><trkpt lat="43.4802089" lon="11.2881668"><ele>591.0</ele><time>2026-03-22T09:32:01.771Z</time></trkpt><trkpt lat="43.4801912" lon="11.288018"><ele>590.2</ele><time>2026-03-22T09:32:03.771Z</time></trkpt><trkpt lat="43.4801815" lon="11.2879279"><ele>589.4000000000001</ele><time>2026-03-22T09:32:04.771Z</time></trkpt><trkpt lat="43.4802346" lon="11.2877781"><ele>588.6</ele><time>2026-03-22T09:32:06.771Z</time></trkpt><trkpt lat="43.4802664" lon="11.2876266"><ele>587.8000000000001</ele><time>2026-03-22T09:32:08.772Z</time></trkpt><trkpt lat="43.4802758" lon="11.2874737"><ele>587.0</ele><time>2026-03-22T09:32:10.772Z</time></trkpt><trkpt lat="43.4802583" lon="11.2873816"><ele>588.0</ele><time>2026-03-22T09:32:11.772Z</time></trkpt><trkpt lat="43.4801896" lon="11.2872353"><ele>589.0</ele><time>2026-03-22T09:32:13.772Z</time></trkpt><trkpt lat="43.480182" lon="11.2870935"><ele>590.0</ele><time>2026-03-22T09:32:14.772Z</time></trkpt><trkpt lat="43.4801684" lon="11.286989"><ele>591.0</ele><time>2026-03-22T09:32:15.771Z</time></trkpt><trkpt lat="43.4801818" lon="11.2868943"><ele>592.0</ele><time>2026-03-22T09:32:16.773Z</time></trkpt><trkpt lat="43.480174" lon="11.2867297"><ele>592.0</ele><time>2026-03-22T09:32:18.773Z</time></trkpt><trkpt lat="43.4801664" lon="11.2866426"><ele>592.0</ele><time>2026-03-22T09:32:19.772Z</time></trkpt><trkpt lat="43.4801598" lon="11.2865398"><ele>592.0</ele><time>2026-03-22T09:32:20.771Z</time></trkpt><trkpt lat="43.4801655" lon="11.2864327"><ele>592.0</ele><time>2026-03-22T09:32:21.771Z</time></trkpt><trkpt lat="43.4801539" lon="11.2863356"><ele>592.0</ele><time>2026-03-22T09:32:22.772Z</time></trkpt><trkpt lat="43.4801392" lon="11.2862203"><ele>592.0</ele><time>2026-03-22T09:32:23.772Z</time></trkpt><trkpt lat="43.4801278" lon="11.2861145"><ele>593.3333333333334</ele><time>2026-03-22T09:32:24.772Z</time></trkpt><trkpt lat="43.4801145" lon="11.2859491"><ele>594.6666666666667</ele><time>2026-03-22T09:32:26.772Z</time></trkpt><trkpt lat="43.4801121" lon="11.2858614"><ele>596.0</ele><time>2026-03-22T09:32:27.772Z</time></trkpt><trkpt lat="43.4800933" lon="11.2856987"><ele>597.3333333333334</ele><time>2026-03-22T09:32:29.773Z</time></trkpt><trkpt lat="43.4800801" lon="11.2856126"><ele>598.6666666666666</ele><time>2026-03-22T09:32:30.771Z</time></trkpt><trkpt lat="43.4800796" lon="11.2855224"><ele>600.0</ele><time>2026-03-22T09:32:31.772Z</time></trkpt><trkpt lat="43.4800881" lon="11.285374"><ele>601.75</ele><time>2026-03-22T09:32:33.771Z</time></trkpt><trkpt lat="43.4799897" lon="11.2852585"><ele>603.5</ele><time>2026-03-22T09:32:35.772Z</time></trkpt><trkpt lat="43.4799446" lon="11.2851902"><ele>605.25</ele><time>2026-03-22T09:32:36.771Z</time></trkpt><trkpt lat="43.4799336" lon="11.2850356"><ele>607.0</ele><time>2026-03-22T09:32:38.772Z</time></trkpt><trkpt lat="43.4798801" lon="11.2848546"><ele>606.8571428571428</ele><time>2026-03-22T09:32:40.771Z</time></trkpt><trkpt lat="43.4798621" lon="11.2847608"><ele>606.7142857142857</ele><time>2026-03-22T09:32:41.771Z</time></trkpt><trkpt lat="43.4798311" lon="11.2846684"><ele>606.5714285714286</ele><time>2026-03-22T09:32:42.771Z</time></trkpt><trkpt lat="43.47984" lon="11.2845733"><ele>606.4285714285713</ele><time>2026-03-22T09:32:43.772Z</time></trkpt><trkpt lat="43.4798317" lon="11.2844735"><ele>606.2857142857142</ele><time>2026-03-22T09:32:44.771Z</time></trkpt><trkpt lat="43.4798217" lon="11.2843755"><ele>606.1428571428571</ele><time>2026-03-22T09:32:45.772Z</time></trkpt><trkpt lat="43.4798227" lon="11.2842759"><ele>606.0</ele><time>2026-03-22T09:32:46.773Z</time></trkpt><trkpt lat="43.4798408" lon="11.2841602"><ele>606.0</ele><time>2026-03-22T09:32:47.771Z</time></trkpt><trkpt lat="43.4799179" lon="11.284028"><ele>606.0</ele><time>2026-03-22T09:32:49.772Z</time></trkpt><trkpt lat="43.4799552" lon="11.2839566"><ele>606.0</ele><time>2026-03-22T09:32:50.772Z</time></trkpt><trkpt lat="43.4799935" lon="11.2838837"><ele>606.0</ele><time>2026-03-22T09:32:51.771Z</time></trkpt><trkpt lat="43.4800372" lon="11.2837338"><ele>606.0</ele><time>2026-03-22T09:32:53.772Z</time></trkpt><trkpt lat="43.4800468" lon="11.2836262"><ele>606.0</ele><time>2026-03-22T09:32:54.773Z</time></trkpt><trkpt lat="43.4800699" lon="11.2835242"><ele>605.1666666666666</ele><time>2026-03-22T09:32:55.771Z</time></trkpt><trkpt lat="43.4801048" lon="11.2834187"><ele>604.3333333333334</ele><time>2026-03-22T09:32:56.772Z</time></trkpt><trkpt lat="43.4801279" lon="11.2833108"><ele>603.5</ele><time>2026-03-22T09:32:57.773Z</time></trkpt><trkpt lat="43.4801535" lon="11.2832131"><ele>602.6666666666667</ele><time>2026-03-22T09:32:58.773Z</time></trkpt><trkpt lat="43.4801782" lon="11.2831286"><ele>601.8333333333334</ele><time>2026-03-22T09:32:59.772Z</time></trkpt><trkpt lat="43.4802129" lon="11.2829737"><ele>601.0</ele><time>2026-03-22T09:33:01.771Z</time></trkpt><trkpt lat="43.480252" lon="11.2828523"><ele>600.5</ele><time>2026-03-22T09:33:03.772Z</time></trkpt><trkpt lat="43.4803415" lon="11.2827206"><ele>600.0</ele><time>2026-03-22T09:33:05.773Z</time></trkpt><trkpt lat="43.4803872" lon="11.2826498"><ele>599.5</ele><time>2026-03-22T09:33:06.772Z</time></trkpt><trkpt lat="43.4804365" lon="11.2825682"><ele>599.0</ele><time>2026-03-22T09:33:07.772Z</time></trkpt><trkpt lat="43.4804337" lon="11.2824645"><ele>598.5</ele><time>2026-03-22T09:33:08.772Z</time></trkpt><trkpt lat="43.4804678" lon="11.2823632"><ele>598.0</ele><time>2026-03-22T09:33:09.772Z</time></trkpt><trkpt lat="43.480483" lon="11.2822621"><ele>598.0</ele><time>2026-03-22T09:33:10.772Z</time></trkpt><trkpt lat="43.4805128" lon="11.2821689"><ele>598.0</ele><time>2026-03-22T09:33:11.771Z</time></trkpt><trkpt lat="43.4805335" lon="11.2820778"><ele>598.0</ele><time>2026-03-22T09:33:12.772Z</time></trkpt><trkpt lat="43.4805272" lon="11.281933"><ele>598.0</ele><time>2026-03-22T09:33:14.772Z</time></trkpt><trkpt lat="43.4805096" lon="11.2818125"><ele>598.0</ele><time>2026-03-22T09:33:16.771Z</time></trkpt><trkpt lat="43.4804732" lon="11.2817407"><ele>598.0</ele><time>2026-03-22T09:33:17.771Z</time></trkpt><trkpt lat="43.4804287" lon="11.2815812"><ele>597.6</ele><time>2026-03-22T09:33:19.772Z</time></trkpt><trkpt lat="43.4803955" lon="11.2814324"><ele>597.1999999999999</ele><time>2026-03-22T09:33:21.772Z</time></trkpt><trkpt lat="43.480362" lon="11.2813493"><ele>596.8</ele><time>2026-03-22T09:33:22.772Z</time></trkpt><trkpt lat="43.4802911" lon="11.2812069"><ele>596.4</ele><time>2026-03-22T09:33:24.773Z</time></trkpt><trkpt lat="43.4802338" lon="11.2810796"><ele>596.0</ele><time>2026-03-22T09:33:26.771Z</time></trkpt><trkpt lat="43.4802138" lon="11.2809112"><ele>596.0</ele><time>2026-03-22T09:33:28.771Z</time></trkpt><trkpt lat="43.4802054" lon="11.2808102"><ele>596.0</ele><time>2026-03-22T09:33:29.772Z</time></trkpt><trkpt lat="43.4802289" lon="11.2807214"><ele>596.0</ele><time>2026-03-22T09:33:30.772Z</time></trkpt><trkpt lat="43.4802257" lon="11.2805968"><ele>596.0</ele><time>2026-03-22T09:33:31.773Z</time></trkpt><trkpt lat="43.4802568" lon="11.2804959"><ele>596.0</ele><time>2026-03-22T09:33:33.772Z</time></trkpt><trkpt lat="43.4802754" lon="11.2804075"><ele>596.0</ele><time>2026-03-22T09:33:35.771Z</time></trkpt><trkpt lat="43.4802805" lon="11.2803113"><ele>596.0</ele><time>2026-03-22T09:33:37.771Z</time></trkpt><trkpt lat="43.4802579" lon="11.2801404"><ele>596.2</ele><time>2026-03-22T09:33:39.771Z</time></trkpt><trkpt lat="43.4802314" lon="11.2799634"><ele>596.4000000000001</ele><time>2026-03-22T09:33:41.771Z</time></trkpt><trkpt lat="43.4802068" lon="11.2798488"><ele>596.6</ele><time>2026-03-22T09:33:42.772Z</time></trkpt><trkpt lat="43.480183" lon="11.2797281"><ele>596.8000000000001</ele><time>2026-03-22T09:33:43.772Z</time></trkpt><trkpt lat="43.4801696" lon="11.2796163"><ele>597.0</ele><time>2026-03-22T09:33:44.772Z</time></trkpt><trkpt lat="43.4801602" lon="11.2794786"><ele>597.1666666666666</ele><time>2026-03-22T09:33:45.773Z</time></trkpt><trkpt lat="43.4801431" lon="11.279367"><ele>597.3333333333334</ele><time>2026-03-22T09:33:46.772Z</time></trkpt><trkpt lat="43.4801369" lon="11.2792629"><ele>597.5</ele><time>2026-03-22T09:33:47.772Z</time></trkpt><trkpt lat="43.4801217" lon="11.2791471"><ele>597.6666666666667</ele><time>2026-03-22T09:33:48.772Z</time></trkpt><trkpt lat="43.4801237" lon="11.2790126"><ele>597.8333333333334</ele><time>2026-03-22T09:33:49.771Z</time></trkpt><trkpt lat="43.4801389" lon="11.2788692"><ele>598.0</ele><time>2026-03-22T09:33:50.772Z</time></trkpt><trkpt lat="43.4801376" lon="11.2787612"><ele>598.0</ele><time>2026-03-22T09:33:51.771Z</time></trkpt><trkpt lat="43.4801708" lon="11.2786618"><ele>598.0</ele><time>2026-03-22T09:33:52.771Z</time></trkpt><trkpt lat="43.480187" lon="11.2785611"><ele>598.0</ele><time>2026-03-22T09:33:53.772Z</time></trkpt><trkpt lat="43.4802024" lon="11.2784477"><ele>598.0</ele><time>2026-03-22T09:33:54.772Z</time></trkpt><trkpt lat="43.4802367" lon="11.278349"><ele>598.0</ele><time>2026-03-22T09:33:55.771Z</time></trkpt><trkpt lat="43.4802727" lon="11.2782413"><ele>598.0</ele><time>2026-03-22T09:33:56.772Z</time></trkpt><trkpt lat="43.4802919" lon="11.278125"><ele>598.8333333333334</ele><time>2026-03-22T09:33:57.772Z</time></trkpt><trkpt lat="43.4803071" lon="11.278003"><ele>599.6666666666667</ele><time>2026-03-22T09:33:58.771Z</time></trkpt><trkpt lat="43.4803262" lon="11.2778953"><ele>600.5</ele><time>2026-03-22T09:33:59.772Z</time></trkpt><trkpt lat="43.4803395" lon="11.2777987"><ele>601.3333333333334</ele><time>2026-03-22T09:34:00.772Z</time></trkpt><trkpt lat="43.4803395" lon="11.2777008"><ele>602.1666666666666</ele><time>2026-03-22T09:34:01.772Z</time></trkpt><trkpt lat="43.4803527" lon="11.2776027"><ele>603.0</ele><time>2026-03-22T09:34:02.772Z</time></trkpt><trkpt lat="43.4803222" lon="11.2775216"><ele>603.0</ele><time>2026-03-22T09:34:03.771Z</time></trkpt><trkpt lat="43.4802708" lon="11.2773688"><ele>603.0</ele><time>2026-03-22T09:34:05.773Z</time></trkpt><trkpt lat="43.4802208" lon="11.2772289"><ele>603.0</ele><time>2026-03-22T09:34:07.771Z</time></trkpt><trkpt lat="43.480192" lon="11.2771304"><ele>603.0</ele><time>2026-03-22T09:34:08.772Z</time></trkpt><trkpt lat="43.4801291" lon="11.2769925"><ele>603.0</ele><time>2026-03-22T09:34:10.772Z</time></trkpt><trkpt lat="43.4800455" lon="11.2768564"><ele>604.8333333333334</ele><time>2026-03-22T09:34:12.771Z</time></trkpt><trkpt lat="43.4800076" lon="11.2767839"><ele>606.6666666666666</ele><time>2026-03-22T09:34:13.771Z</time></trkpt><trkpt lat="43.479972" lon="11.2767109"><ele>608.5</ele><time>2026-03-22T09:34:14.772Z</time></trkpt><trkpt lat="43.4799312" lon="11.2766403"><ele>610.3333333333333</ele><time>2026-03-22T09:34:15.772Z</time></trkpt><trkpt lat="43.4798743" lon="11.2764972"><ele>612.1666666666666</ele><time>2026-03-22T09:34:17.772Z</time></trkpt><trkpt lat="43.4798304" lon="11.2764223"><ele>614.0</ele><time>2026-03-22T09:34:18.771Z</time></trkpt><trkpt lat="43.4797269" lon="11.2763541"><ele>616.0</ele><time>2026-03-22T09:34:20.772Z</time></trkpt><trkpt lat="43.4796084" lon="11.2763102"><ele>618.0</ele><time>2026-03-22T09:34:22.773Z</time></trkpt><trkpt lat="43.479546" lon="11.2762662"><ele>620.0</ele><time>2026-03-22T09:34:23.771Z</time></trkpt><trkpt lat="43.4794843" lon="11.2762228"><ele>622.0</ele><time>2026-03-22T09:34:24.771Z</time></trkpt><trkpt lat="43.4794135" lon="11.2761828"><ele>624.0</ele><time>2026-03-22T09:34:25.772Z</time></trkpt><trkpt lat="43.4792976" lon="11.2761109"><ele>624.4</ele><time>2026-03-22T09:34:27.771Z</time></trkpt><trkpt lat="43.4792262" lon="11.2760397"><ele>624.8</ele><time>2026-03-22T09:34:29.771Z</time></trkpt><trkpt lat="43.4791782" lon="11.2759503"><ele>625.2</ele><time>2026-03-22T09:34:31.771Z</time></trkpt><trkpt lat="43.4791293" lon="11.2758594"><ele>625.6</ele><time>2026-03-22T09:34:33.771Z</time></trkpt><trkpt lat="43.4790616" lon="11.2757439"><ele>626.0</ele><time>2026-03-22T09:34:35.771Z</time></trkpt><trkpt lat="43.4789772" lon="11.2756148"><ele>626.0</ele><time>2026-03-22T09:34:37.772Z</time></trkpt><trkpt lat="43.478939" lon="11.2755444"><ele>626.0</ele><time>2026-03-22T09:34:38.772Z</time></trkpt><trkpt lat="43.4788999" lon="11.2754735"><ele>626.0</ele><time>2026-03-22T09:34:39.771Z</time></trkpt><trkpt lat="43.478856" lon="11.2754089"><ele>626.0</ele><time>2026-03-22T09:34:40.772Z</time></trkpt><trkpt lat="43.4788038" lon="11.2753554"><ele>626.0</ele><time>2026-03-22T09:34:41.772Z</time></trkpt><trkpt lat="43.4787449" lon="11.2753185"><ele>626.0</ele><time>2026-03-22T09:34:42.771Z</time></trkpt><trkpt lat="43.4786897" lon="11.2752685"><ele>626.0</ele><time>2026-03-22T09:34:43.772Z</time></trkpt><trkpt lat="43.4786522" lon="11.2751978"><ele>624.3333333333333</ele><time>2026-03-22T09:34:44.772Z</time></trkpt><trkpt lat="43.4786391" lon="11.2751114"><ele>622.6666666666666</ele><time>2026-03-22T09:34:45.772Z</time></trkpt><trkpt lat="43.4786411" lon="11.2750032"><ele>621.0</ele><time>2026-03-22T09:34:46.771Z</time></trkpt><trkpt lat="43.4786514" lon="11.2748802"><ele>619.3333333333334</ele><time>2026-03-22T09:34:47.771Z</time></trkpt><trkpt lat="43.4786666" lon="11.2747522"><ele>617.6666666666667</ele><time>2026-03-22T09:34:48.772Z</time></trkpt><trkpt lat="43.4786831" lon="11.2746218"><ele>616.0</ele><time>2026-03-22T09:34:49.771Z</time></trkpt><trkpt lat="43.4787023" lon="11.2745017"><ele>615.1666666666667</ele><time>2026-03-22T09:34:50.771Z</time></trkpt><trkpt lat="43.4787149" lon="11.2743946"><ele>614.3333333333334</ele><time>2026-03-22T09:34:51.772Z</time></trkpt><trkpt lat="43.4787289" lon="11.2743023"><ele>613.5</ele><time>2026-03-22T09:34:52.772Z</time></trkpt><trkpt lat="43.478744" lon="11.2741927"><ele>612.6666666666666</ele><time>2026-03-22T09:34:54.772Z</time></trkpt><trkpt lat="43.4787565" lon="11.2741046"><ele>611.8333333333333</ele><time>2026-03-22T09:34:57.772Z</time></trkpt><trkpt lat="43.4787407" lon="11.2739473"><ele>611.0</ele><time>2026-03-22T09:37:21.771Z</time></trkpt><trkpt lat="43.4786882" lon="11.2738065"><ele>609.6</ele><time>2026-03-22T09:37:23.772Z</time></trkpt><trkpt lat="43.4786111" lon="11.2736934"><ele>608.2</ele><time>2026-03-22T09:37:25.771Z</time></trkpt><trkpt lat="43.478549" lon="11.2736537"><ele>606.8</ele><time>2026-03-22T09:37:26.772Z</time></trkpt><trkpt lat="43.478442" lon="11.2736679"><ele>605.4</ele><time>2026-03-22T09:37:27.772Z</time></trkpt><trkpt lat="43.4783378" lon="11.2736415"><ele>604.0</ele><time>2026-03-22T09:37:28.772Z</time></trkpt><trkpt lat="43.4782421" lon="11.2736209"><ele>604.0</ele><time>2026-03-22T09:37:29.772Z</time></trkpt><trkpt lat="43.4781428" lon="11.273609"><ele>604.0</ele><time>2026-03-22T09:37:30.772Z</time></trkpt><trkpt lat="43.478051" lon="11.2736238"><ele>604.0</ele><time>2026-03-22T09:37:31.772Z</time></trkpt><trkpt lat="43.4779518" lon="11.27367"><ele>604.0</ele><time>2026-03-22T09:37:32.772Z</time></trkpt><trkpt lat="43.4778553" lon="11.273719"><ele>604.0</ele><time>2026-03-22T09:37:33.772Z</time></trkpt><trkpt lat="43.4777714" lon="11.2737554"><ele>604.5</ele><time>2026-03-22T09:37:34.771Z</time></trkpt><trkpt lat="43.4776873" lon="11.2737723"><ele>605.0</ele><time>2026-03-22T09:37:35.773Z</time></trkpt><trkpt lat="43.4776104" lon="11.2737555"><ele>605.5</ele><time>2026-03-22T09:37:36.771Z</time></trkpt><trkpt lat="43.4775493" lon="11.2736992"><ele>606.0</ele><time>2026-03-22T09:37:37.772Z</time></trkpt><trkpt lat="43.4774996" lon="11.273629"><ele>606.5</ele><time>2026-03-22T09:37:38.772Z</time></trkpt><trkpt lat="43.4774386" lon="11.2735525"><ele>607.0</ele><time>2026-03-22T09:37:39.772Z</time></trkpt><trkpt lat="43.4773687" lon="11.273499"><ele>607.0</ele><time>2026-03-22T09:37:40.772Z</time></trkpt><trkpt lat="43.4772995" lon="11.2734869"><ele>607.0</ele><time>2026-03-22T09:37:41.772Z</time></trkpt><trkpt lat="43.4772173" lon="11.2734745"><ele>607.0</ele><time>2026-03-22T09:37:42.771Z</time></trkpt><trkpt lat="43.4771477" lon="11.2734309"><ele>607.0</ele><time>2026-03-22T09:37:43.771Z</time></trkpt><trkpt lat="43.47708" lon="11.2733787"><ele>607.0</ele><time>2026-03-22T09:37:44.772Z</time></trkpt><trkpt lat="43.4770114" lon="11.2733249"><ele>607.0</ele><time>2026-03-22T09:37:45.772Z</time></trkpt><trkpt lat="43.476935" lon="11.2732982"><ele>608.3333333333334</ele><time>2026-03-22T09:37:46.772Z</time></trkpt><trkpt lat="43.4768494" lon="11.273291"><ele>609.6666666666667</ele><time>2026-03-22T09:37:47.771Z</time></trkpt><trkpt lat="43.4767579" lon="11.2732937"><ele>611.0</ele><time>2026-03-22T09:37:48.771Z</time></trkpt><trkpt lat="43.4766677" lon="11.2732918"><ele>612.3333333333334</ele><time>2026-03-22T09:37:49.772Z</time></trkpt><trkpt lat="43.47658" lon="11.2732855"><ele>613.6666666666666</ele><time>2026-03-22T09:37:50.772Z</time></trkpt><trkpt lat="43.4764917" lon="11.2732771"><ele>615.0</ele><time>2026-03-22T09:37:51.771Z</time></trkpt><trkpt lat="43.4764122" lon="11.2732528"><ele>615.0</ele><time>2026-03-22T09:37:52.772Z</time></trkpt><trkpt lat="43.4763504" lon="11.2732138"><ele>615.0</ele><time>2026-03-22T09:37:53.771Z</time></trkpt><trkpt lat="43.4763058" lon="11.273147"><ele>615.0</ele><time>2026-03-22T09:37:54.773Z</time></trkpt><trkpt lat="43.4762677" lon="11.2730654"><ele>615.0</ele><time>2026-03-22T09:37:55.772Z</time></trkpt><trkpt lat="43.4762304" lon="11.2729776"><ele>615.0</ele><time>2026-03-22T09:37:56.772Z</time></trkpt><trkpt lat="43.4762034" lon="11.2728798"><ele>615.0</ele><time>2026-03-22T09:37:57.772Z</time></trkpt><trkpt lat="43.4761616" lon="11.2727882"><ele>615.0</ele><time>2026-03-22T09:37:58.771Z</time></trkpt><trkpt lat="43.4761028" lon="11.2727151"><ele>615.3333333333334</ele><time>2026-03-22T09:37:59.772Z</time></trkpt><trkpt lat="43.476056" lon="11.2726266"><ele>615.6666666666666</ele><time>2026-03-22T09:38:00.771Z</time></trkpt><trkpt lat="43.4760286" lon="11.2725383"><ele>616.0</ele><time>2026-03-22T09:38:01.771Z</time></trkpt><trkpt lat="43.476021" lon="11.2724497"><ele>616.3333333333333</ele><time>2026-03-22T09:38:02.771Z</time></trkpt><trkpt lat="43.4760341" lon="11.272316"><ele>616.6666666666666</ele><time>2026-03-22T09:38:04.772Z</time></trkpt><trkpt lat="43.4760434" lon="11.2722051"><ele>617.0</ele><time>2026-03-22T09:38:06.772Z</time></trkpt><trkpt lat="43.4760786" lon="11.2721149"><ele>615.0</ele><time>2026-03-22T09:38:08.772Z</time></trkpt><trkpt lat="43.4761933" lon="11.2719894"><ele>613.0</ele><time>2026-03-22T09:38:10.773Z</time></trkpt><trkpt lat="43.4762624" lon="11.271907"><ele>611.0</ele><time>2026-03-22T09:38:11.773Z</time></trkpt><trkpt lat="43.4763449" lon="11.2718112"><ele>609.0</ele><time>2026-03-22T09:38:12.772Z</time></trkpt><trkpt lat="43.4764254" lon="11.2717028"><ele>613.25</ele><time>2026-03-22T09:38:13.772Z</time></trkpt><trkpt lat="43.476503" lon="11.2715725"><ele>617.5</ele><time>2026-03-22T09:38:14.772Z</time></trkpt><trkpt lat="43.4765719" lon="11.2714297"><ele>621.75</ele><time>2026-03-22T09:38:15.773Z</time></trkpt><trkpt lat="43.476639" lon="11.2712774"><ele>626.0</ele><time>2026-03-22T09:38:16.771Z</time></trkpt><trkpt lat="43.4767005" lon="11.2711297"><ele>626.0</ele><time>2026-03-22T09:38:17.771Z</time></trkpt><trkpt lat="43.4767593" lon="11.2709941"><ele>626.0</ele><time>2026-03-22T09:38:18.771Z</time></trkpt><trkpt lat="43.4768137" lon="11.2708594"><ele>626.0</ele><time>2026-03-22T09:38:19.771Z</time></trkpt><trkpt lat="43.4768708" lon="11.2707194"><ele>626.0</ele><time>2026-03-22T09:38:20.772Z</time></trkpt><trkpt lat="43.4769291" lon="11.2705884"><ele>625.5</ele><time>2026-03-22T09:38:21.772Z</time></trkpt><trkpt lat="43.4769849" lon="11.2704572"><ele>625.0</ele><time>2026-03-22T09:38:22.771Z</time></trkpt><trkpt lat="43.477047" lon="11.2703279"><ele>624.5</ele><time>2026-03-22T09:38:23.771Z</time></trkpt><trkpt lat="43.4771206" lon="11.2701956"><ele>624.0</ele><time>2026-03-22T09:38:24.772Z</time></trkpt><trkpt lat="43.477204" lon="11.2700644"><ele>624.0</ele><time>2026-03-22T09:38:25.772Z</time></trkpt><trkpt lat="43.4772979" lon="11.2699445"><ele>624.0</ele><time>2026-03-22T09:38:26.773Z</time></trkpt><trkpt lat="43.4774005" lon="11.2698289"><ele>624.0</ele><time>2026-03-22T09:38:27.772Z</time></trkpt><trkpt lat="43.4774983" lon="11.269712"><ele>624.0</ele><time>2026-03-22T09:38:28.772Z</time></trkpt><trkpt lat="43.4775941" lon="11.2695968"><ele>624.25</ele><time>2026-03-22T09:38:29.772Z</time></trkpt><trkpt lat="43.4776842" lon="11.2694797"><ele>624.5</ele><time>2026-03-22T09:38:30.772Z</time></trkpt><trkpt lat="43.4777783" lon="11.2693604"><ele>624.75</ele><time>2026-03-22T09:38:31.772Z</time></trkpt><trkpt lat="43.4778563" lon="11.2692357"><ele>625.0</ele><time>2026-03-22T09:38:32.773Z</time></trkpt><trkpt lat="43.4779458" lon="11.2691096"><ele>625.0</ele><time>2026-03-22T09:38:33.772Z</time></trkpt><trkpt lat="43.4780403" lon="11.2689824"><ele>625.0</ele><time>2026-03-22T09:38:34.772Z</time></trkpt><trkpt lat="43.4781324" lon="11.2688484"><ele>625.0</ele><time>2026-03-22T09:38:35.771Z</time></trkpt><trkpt lat="43.4782302" lon="11.2687137"><ele>625.0</ele><time>2026-03-22T09:38:36.772Z</time></trkpt><trkpt lat="43.4783213" lon="11.2685988"><ele>625.0</ele><time>2026-03-22T09:38:37.771Z</time></trkpt><trkpt lat="43.4784083" lon="11.2684932"><ele>625.0</ele><time>2026-03-22T09:38:38.772Z</time></trkpt><trkpt lat="43.4784891" lon="11.2683963"><ele>625.0</ele><time>2026-03-22T09:38:39.772Z</time></trkpt><trkpt lat="43.4785737" lon="11.2683078"><ele>625.0</ele><time>2026-03-22T09:38:40.771Z</time></trkpt><trkpt lat="43.4786732" lon="11.2682233"><ele>625.0</ele><time>2026-03-22T09:38:41.771Z</time></trkpt><trkpt lat="43.4787832" lon="11.268159"><ele>624.0</ele><time>2026-03-22T09:38:42.772Z</time></trkpt><trkpt lat="43.4788996" lon="11.2681277"><ele>623.0</ele><time>2026-03-22T09:38:43.772Z</time></trkpt><trkpt lat="43.4790176" lon="11.268119"><ele>622.0</ele><time>2026-03-22T09:38:44.772Z</time></trkpt><trkpt lat="43.4791428" lon="11.2681145"><ele>621.0</ele><time>2026-03-22T09:38:45.772Z</time></trkpt><trkpt lat="43.4792798" lon="11.2681142"><ele>621.0</ele><time>2026-03-22T09:38:46.771Z</time></trkpt><trkpt lat="43.4794159" lon="11.2681132"><ele>621.0</ele><time>2026-03-22T09:38:47.773Z</time></trkpt><trkpt lat="43.4795557" lon="11.2681151"><ele>621.0</ele><time>2026-03-22T09:38:48.772Z</time></trkpt><trkpt lat="43.4796876" lon="11.2681249"><ele>621.0</ele><time>2026-03-22T09:38:49.773Z</time></trkpt><trkpt lat="43.4798224" lon="11.268142"><ele>619.5</ele><time>2026-03-22T09:38:50.772Z</time></trkpt><trkpt lat="43.4799565" lon="11.2681683"><ele>618.0</ele><time>2026-03-22T09:38:51.772Z</time></trkpt><trkpt lat="43.4800918" lon="11.2682039"><ele>616.5</ele><time>2026-03-22T09:38:52.772Z</time></trkpt><trkpt lat="43.480225" lon="11.2682413"><ele>615.0</ele><time>2026-03-22T09:38:53.772Z</time></trkpt><trkpt lat="43.480363" lon="11.2682813"><ele>615.0</ele><time>2026-03-22T09:38:54.771Z</time></trkpt><trkpt lat="43.4805004" lon="11.2683151"><ele>615.0</ele><time>2026-03-22T09:38:55.771Z</time></trkpt><trkpt lat="43.4806377" lon="11.2683432"><ele>615.0</ele><time>2026-03-22T09:38:56.772Z</time></trkpt><trkpt lat="43.4807655" lon="11.2683625"><ele>615.0</ele><time>2026-03-22T09:38:57.773Z</time></trkpt><trkpt lat="43.4808833" lon="11.2683808"><ele>615.0</ele><time>2026-03-22T09:38:58.772Z</time></trkpt><trkpt lat="43.4809986" lon="11.2683753"><ele>615.0</ele><time>2026-03-22T09:38:59.772Z</time></trkpt><trkpt lat="43.4811159" lon="11.2683521"><ele>615.0</ele><time>2026-03-22T09:39:00.771Z</time></trkpt><trkpt lat="43.4812346" lon="11.2683156"><ele>615.0</ele><time>2026-03-22T09:39:01.771Z</time></trkpt><trkpt lat="43.481344" lon="11.2682774"><ele>614.4</ele><time>2026-03-22T09:39:02.771Z</time></trkpt><trkpt lat="43.48144" lon="11.2682358"><ele>613.8</ele><time>2026-03-22T09:39:03.772Z</time></trkpt><trkpt lat="43.481543" lon="11.2681965"><ele>613.2</ele><time>2026-03-22T09:39:04.772Z</time></trkpt><trkpt lat="43.4816512" lon="11.2681552"><ele>612.6</ele><time>2026-03-22T09:39:05.772Z</time></trkpt><trkpt lat="43.4817562" lon="11.2680992"><ele>612.0</ele><time>2026-03-22T09:39:06.771Z</time></trkpt><trkpt lat="43.4818594" lon="11.2680325"><ele>609.0</ele><time>2026-03-22T09:39:07.772Z</time></trkpt><trkpt lat="43.48196" lon="11.2679558"><ele>606.0</ele><time>2026-03-22T09:39:08.773Z</time></trkpt><trkpt lat="43.4820644" lon="11.2678748"><ele>603.0</ele><time>2026-03-22T09:39:09.772Z</time></trkpt><trkpt lat="43.4821637" lon="11.2677954"><ele>600.0</ele><time>2026-03-22T09:39:10.771Z</time></trkpt><trkpt lat="43.4822633" lon="11.2677138"><ele>600.0</ele><time>2026-03-22T09:39:11.772Z</time></trkpt><trkpt lat="43.482368" lon="11.2676347"><ele>600.0</ele><time>2026-03-22T09:39:12.772Z</time></trkpt><trkpt lat="43.4824759" lon="11.2675482"><ele>600.0</ele><time>2026-03-22T09:39:13.773Z</time></trkpt><trkpt lat="43.4825829" lon="11.267465"><ele>600.0</ele><time>2026-03-22T09:39:14.771Z</time></trkpt><trkpt lat="43.4826826" lon="11.2673825"><ele>600.0</ele><time>2026-03-22T09:39:15.772Z</time></trkpt><trkpt lat="43.4827752" lon="11.2673045"><ele>600.0</ele><time>2026-03-22T09:39:16.771Z</time></trkpt><trkpt lat="43.482862" lon="11.2672269"><ele>600.0</ele><time>2026-03-22T09:39:17.773Z</time></trkpt><trkpt lat="43.4829449" lon="11.267142"><ele>600.0</ele><time>2026-03-22T09:39:18.772Z</time></trkpt><trkpt lat="43.4830136" lon="11.2670421"><ele>600.0</ele><time>2026-03-22T09:39:19.773Z</time></trkpt><trkpt lat="43.483073" lon="11.2669317"><ele>599.4</ele><time>2026-03-22T09:39:20.772Z</time></trkpt><trkpt lat="43.483123" lon="11.2668119"><ele>598.8</ele><time>2026-03-22T09:39:21.771Z</time></trkpt><trkpt lat="43.4831614" lon="11.2666786"><ele>598.2</ele><time>2026-03-22T09:39:22.772Z</time></trkpt><trkpt lat="43.483191" lon="11.2665315"><ele>597.6</ele><time>2026-03-22T09:39:23.771Z</time></trkpt><trkpt lat="43.4832178" lon="11.2663827"><ele>597.0</ele><time>2026-03-22T09:39:24.772Z</time></trkpt><trkpt lat="43.4832447" lon="11.2662341"><ele>596.0</ele><time>2026-03-22T09:39:25.771Z</time></trkpt><trkpt lat="43.4832814" lon="11.2660927"><ele>595.0</ele><time>2026-03-22T09:39:26.772Z</time></trkpt><trkpt lat="43.4833331" lon="11.2659506"><ele>594.0</ele><time>2026-03-22T09:39:27.771Z</time></trkpt><trkpt lat="43.4833998" lon="11.2658188"><ele>593.0</ele><time>2026-03-22T09:39:28.771Z</time></trkpt><trkpt lat="43.483489" lon="11.2657016"><ele>592.5</ele><time>2026-03-22T09:39:29.772Z</time></trkpt><trkpt lat="43.4835897" lon="11.2655903"><ele>592.0</ele><time>2026-03-22T09:39:30.771Z</time></trkpt><trkpt lat="43.4836985" lon="11.2654871"><ele>591.5</ele><time>2026-03-22T09:39:31.772Z</time></trkpt><trkpt lat="43.4838128" lon="11.2653908"><ele>591.0</ele><time>2026-03-22T09:39:32.771Z</time></trkpt><trkpt lat="43.4839298" lon="11.2652941"><ele>591.0</ele><time>2026-03-22T09:39:33.772Z</time></trkpt><trkpt lat="43.4840434" lon="11.265197"><ele>591.0</ele><time>2026-03-22T09:39:34.773Z</time></trkpt><trkpt lat="43.4841506" lon="11.2650948"><ele>591.0</ele><time>2026-03-22T09:39:35.771Z</time></trkpt><trkpt lat="43.4842553" lon="11.2649835"><ele>591.0</ele><time>2026-03-22T09:39:36.773Z</time></trkpt><trkpt lat="43.4843546" lon="11.2648673"><ele>590.75</ele><time>2026-03-22T09:39:37.771Z</time></trkpt><trkpt lat="43.4844528" lon="11.2647472"><ele>590.5</ele><time>2026-03-22T09:39:38.771Z</time></trkpt><trkpt lat="43.4845458" lon="11.2646219"><ele>590.25</ele><time>2026-03-22T09:39:39.772Z</time></trkpt><trkpt lat="43.4846393" lon="11.264495"><ele>590.0</ele><time>2026-03-22T09:39:40.772Z</time></trkpt><trkpt lat="43.4847382" lon="11.2643687"><ele>591.25</ele><time>2026-03-22T09:39:41.772Z</time></trkpt><trkpt lat="43.4848406" lon="11.2642453"><ele>592.5</ele><time>2026-03-22T09:39:42.771Z</time></trkpt><trkpt lat="43.4849515" lon="11.2641275"><ele>593.75</ele><time>2026-03-22T09:39:43.771Z</time></trkpt><trkpt lat="43.4850661" lon="11.2640264"><ele>595.0</ele><time>2026-03-22T09:39:44.771Z</time></trkpt><trkpt lat="43.4851819" lon="11.2639405"><ele>595.75</ele><time>2026-03-22T09:39:45.771Z</time></trkpt><trkpt lat="43.485303" lon="11.2638647"><ele>596.5</ele><time>2026-03-22T09:39:46.772Z</time></trkpt><trkpt lat="43.485427" lon="11.2638016"><ele>597.25</ele><time>2026-03-22T09:39:47.771Z</time></trkpt><trkpt lat="43.4855516" lon="11.2637516"><ele>598.0</ele><time>2026-03-22T09:39:48.771Z</time></trkpt><trkpt lat="43.4856758" lon="11.2637057"><ele>598.0</ele><time>2026-03-22T09:39:49.771Z</time></trkpt><trkpt lat="43.4857983" lon="11.263661"><ele>598.0</ele><time>2026-03-22T09:39:50.771Z</time></trkpt><trkpt lat="43.4859183" lon="11.2636133"><ele>598.0</ele><time>2026-03-22T09:39:51.772Z</time></trkpt><trkpt lat="43.4860379" lon="11.2635659"><ele>598.0</ele><time>2026-03-22T09:39:52.771Z</time></trkpt><trkpt lat="43.4861481" lon="11.2635152"><ele>598.0</ele><time>2026-03-22T09:39:53.772Z</time></trkpt><trkpt lat="43.486256" lon="11.2634628"><ele>598.0</ele><time>2026-03-22T09:39:54.772Z</time></trkpt><trkpt lat="43.4863637" lon="11.2634094"><ele>598.0</ele><time>2026-03-22T09:39:55.771Z</time></trkpt><trkpt lat="43.4864749" lon="11.2633495"><ele>598.0</ele><time>2026-03-22T09:39:56.773Z</time></trkpt><trkpt lat="43.4865848" lon="11.2632895"><ele>598.25</ele><time>2026-03-22T09:39:57.771Z</time></trkpt><trkpt lat="43.4866955" lon="11.2632303"><ele>598.5</ele><time>2026-03-22T09:39:58.772Z</time></trkpt><trkpt lat="43.4868064" lon="11.2631649"><ele>598.75</ele><time>2026-03-22T09:39:59.771Z</time></trkpt><trkpt lat="43.4869166" lon="11.2630918"><ele>599.0</ele><time>2026-03-22T09:40:00.772Z</time></trkpt><trkpt lat="43.4870181" lon="11.2630111"><ele>597.75</ele><time>2026-03-22T09:40:01.771Z</time></trkpt><trkpt lat="43.487116" lon="11.262926"><ele>596.5</ele><time>2026-03-22T09:40:02.771Z</time></trkpt><trkpt lat="43.4872138" lon="11.2628348"><ele>595.25</ele><time>2026-03-22T09:40:03.772Z</time></trkpt><trkpt lat="43.487295" lon="11.262731"><ele>594.0</ele><time>2026-03-22T09:40:04.772Z</time></trkpt><trkpt lat="43.487377" lon="11.262614"><ele>594.0</ele><time>2026-03-22T09:40:05.772Z</time></trkpt><trkpt lat="43.4874546" lon="11.2624829"><ele>594.0</ele><time>2026-03-22T09:40:06.771Z</time></trkpt><trkpt lat="43.4875284" lon="11.262349"><ele>594.0</ele><time>2026-03-22T09:40:07.771Z</time></trkpt><trkpt lat="43.4876008" lon="11.2622202"><ele>594.0</ele><time>2026-03-22T09:40:08.772Z</time></trkpt><trkpt lat="43.4876736" lon="11.2620924"><ele>594.25</ele><time>2026-03-22T09:40:09.771Z</time></trkpt><trkpt lat="43.487752" lon="11.2619766"><ele>594.5</ele><time>2026-03-22T09:40:10.771Z</time></trkpt><trkpt lat="43.4878447" lon="11.2618773"><ele>594.75</ele><time>2026-03-22T09:40:11.772Z</time></trkpt><trkpt lat="43.4879491" lon="11.2617994"><ele>595.0</ele><time>2026-03-22T09:40:12.772Z</time></trkpt><trkpt lat="43.4880607" lon="11.2617323"><ele>595.5</ele><time>2026-03-22T09:40:13.771Z</time></trkpt><trkpt lat="43.488174" lon="11.2616684"><ele>596.0</ele><time>2026-03-22T09:40:14.771Z</time></trkpt><trkpt lat="43.4882814" lon="11.2616026"><ele>596.5</ele><time>2026-03-22T09:40:15.772Z</time></trkpt><trkpt lat="43.4883827" lon="11.261535"><ele>597.0</ele><time>2026-03-22T09:40:16.771Z</time></trkpt><trkpt lat="43.4884821" lon="11.261467"><ele>596.6</ele><time>2026-03-22T09:40:17.771Z</time></trkpt><trkpt lat="43.4885774" lon="11.2613954"><ele>596.2</ele><time>2026-03-22T09:40:18.771Z</time></trkpt><trkpt lat="43.4886707" lon="11.2613213"><ele>595.8</ele><time>2026-03-22T09:40:19.771Z</time></trkpt><trkpt lat="43.4887678" lon="11.2612459"><ele>595.4</ele><time>2026-03-22T09:40:20.771Z</time></trkpt><trkpt lat="43.4888665" lon="11.2611703"><ele>595.0</ele><time>2026-03-22T09:40:21.771Z</time></trkpt><trkpt lat="43.4889671" lon="11.2610956"><ele>595.0</ele><time>2026-03-22T09:40:22.771Z</time></trkpt><trkpt lat="43.489068" lon="11.2610085"><ele>595.0</ele><time>2026-03-22T09:40:23.771Z</time></trkpt><trkpt lat="43.4891753" lon="11.2609282"><ele>595.0</ele><time>2026-03-22T09:40:24.773Z</time></trkpt><trkpt lat="43.4892864" lon="11.2608665"><ele>595.0</ele><time>2026-03-22T09:40:25.771Z</time></trkpt><trkpt lat="43.4894032" lon="11.2608272"><ele>595.0</ele><time>2026-03-22T09:40:26.772Z</time></trkpt><trkpt lat="43.4895257" lon="11.2607996"><ele>595.0</ele><time>2026-03-22T09:40:27.771Z</time></trkpt><trkpt lat="43.4896492" lon="11.2607779"><ele>595.0</ele><time>2026-03-22T09:40:28.771Z</time></trkpt><trkpt lat="43.4897672" lon="11.2607542"><ele>595.0</ele><time>2026-03-22T09:40:29.773Z</time></trkpt><trkpt lat="43.4898817" lon="11.260714"><ele>595.25</ele><time>2026-03-22T09:40:30.772Z</time></trkpt><trkpt lat="43.4899942" lon="11.2606546"><ele>595.5</ele><time>2026-03-22T09:40:31.771Z</time></trkpt><trkpt lat="43.4900923" lon="11.2605687"><ele>595.75</ele><time>2026-03-22T09:40:32.772Z</time></trkpt><trkpt lat="43.4901757" lon="11.2604644"><ele>596.0</ele><time>2026-03-22T09:40:33.772Z</time></trkpt><trkpt lat="43.4902402" lon="11.2603427"><ele>596.4</ele><time>2026-03-22T09:40:34.772Z</time></trkpt><trkpt lat="43.490289" lon="11.2602206"><ele>596.8</ele><time>2026-03-22T09:40:35.772Z</time></trkpt><trkpt lat="43.490331" lon="11.2601063"><ele>597.1999999999999</ele><time>2026-03-22T09:40:36.772Z</time></trkpt><trkpt lat="43.4903674" lon="11.2599961"><ele>597.6</ele><time>2026-03-22T09:40:37.772Z</time></trkpt><trkpt lat="43.4904107" lon="11.2598867"><ele>598.0</ele><time>2026-03-22T09:40:38.771Z</time></trkpt><trkpt lat="43.4904623" lon="11.2597816"><ele>598.0</ele><time>2026-03-22T09:40:39.771Z</time></trkpt><trkpt lat="43.4905198" lon="11.2596913"><ele>598.0</ele><time>2026-03-22T09:40:40.772Z</time></trkpt><trkpt lat="43.4905878" lon="11.259612"><ele>598.0</ele><time>2026-03-22T09:40:41.771Z</time></trkpt><trkpt lat="43.4906707" lon="11.2595426"><ele>598.0</ele><time>2026-03-22T09:40:42.772Z</time></trkpt><trkpt lat="43.4907632" lon="11.2594827"><ele>598.0</ele><time>2026-03-22T09:40:43.772Z</time></trkpt><trkpt lat="43.4908633" lon="11.2594195"><ele>598.0</ele><time>2026-03-22T09:40:44.772Z</time></trkpt><trkpt lat="43.4909705" lon="11.2593592"><ele>598.0</ele><time>2026-03-22T09:40:45.771Z</time></trkpt><trkpt lat="43.4910789" lon="11.2592946"><ele>598.0</ele><time>2026-03-22T09:40:46.772Z</time></trkpt><trkpt lat="43.4911845" lon="11.2592271"><ele>598.0</ele><time>2026-03-22T09:40:47.772Z</time></trkpt><trkpt lat="43.4912916" lon="11.2591626"><ele>596.25</ele><time>2026-03-22T09:40:48.772Z</time></trkpt><trkpt lat="43.4913962" lon="11.259097"><ele>594.5</ele><time>2026-03-22T09:40:49.771Z</time></trkpt><trkpt lat="43.4914994" lon="11.2590272"><ele>592.75</ele><time>2026-03-22T09:40:50.771Z</time></trkpt><trkpt lat="43.4915984" lon="11.2589497"><ele>591.0</ele><time>2026-03-22T09:40:51.773Z</time></trkpt><trkpt lat="43.4916955" lon="11.2588672"><ele>589.5</ele><time>2026-03-22T09:40:52.772Z</time></trkpt><trkpt lat="43.4917887" lon="11.2587729"><ele>588.0</ele><time>2026-03-22T09:40:53.771Z</time></trkpt><trkpt lat="43.4918746" lon="11.2586714"><ele>586.5</ele><time>2026-03-22T09:40:54.772Z</time></trkpt><trkpt lat="43.4919568" lon="11.2585622"><ele>585.0</ele><time>2026-03-22T09:40:55.772Z</time></trkpt><trkpt lat="43.4920364" lon="11.2584487"><ele>585.8</ele><time>2026-03-22T09:40:56.772Z</time></trkpt><trkpt lat="43.4921118" lon="11.2583304"><ele>586.6</ele><time>2026-03-22T09:40:57.771Z</time></trkpt><trkpt lat="43.4921879" lon="11.2582149"><ele>587.4</ele><time>2026-03-22T09:40:58.771Z</time></trkpt><trkpt lat="43.4922638" lon="11.2581003"><ele>588.2</ele><time>2026-03-22T09:40:59.771Z</time></trkpt><trkpt lat="43.492337" lon="11.2579906"><ele>589.0</ele><time>2026-03-22T09:41:00.771Z</time></trkpt><trkpt lat="43.4924193" lon="11.2578919"><ele>589.0</ele><time>2026-03-22T09:41:01.772Z</time></trkpt><trkpt lat="43.4925097" lon="11.2578051"><ele>589.0</ele><time>2026-03-22T09:41:02.772Z</time></trkpt><trkpt lat="43.4925981" lon="11.2577397"><ele>589.0</ele><time>2026-03-22T09:41:03.773Z</time></trkpt><trkpt lat="43.4926764" lon="11.2576897"><ele>589.0</ele><time>2026-03-22T09:41:04.772Z</time></trkpt><trkpt lat="43.4927352" lon="11.2576522"><ele>589.0</ele><time>2026-03-22T09:41:05.771Z</time></trkpt><trkpt lat="43.4928209" lon="11.2576002"><ele>589.0</ele><time>2026-03-22T09:41:07.772Z</time></trkpt><trkpt lat="43.4928841" lon="11.2575825"><ele>589.0</ele><time>2026-03-22T09:41:09.773Z</time></trkpt><trkpt lat="43.4929688" lon="11.2575687"><ele>589.0</ele><time>2026-03-22T09:42:16.773Z</time></trkpt><trkpt lat="43.4931053" lon="11.2576228"><ele>589.0</ele><time>2026-03-22T09:42:18.772Z</time></trkpt><trkpt lat="43.4931971" lon="11.2576686"><ele>589.0</ele><time>2026-03-22T09:42:19.773Z</time></trkpt><trkpt lat="43.4932872" lon="11.2577165"><ele>588.8</ele><time>2026-03-22T09:42:20.772Z</time></trkpt><trkpt lat="43.4933806" lon="11.2577616"><ele>588.5999999999999</ele><time>2026-03-22T09:42:21.771Z</time></trkpt><trkpt lat="43.4934759" lon="11.2578075"><ele>588.4</ele><time>2026-03-22T09:42:22.772Z</time></trkpt><trkpt lat="43.4935696" lon="11.2578469"><ele>588.1999999999999</ele><time>2026-03-22T09:42:23.772Z</time></trkpt><trkpt lat="43.4936572" lon="11.2578949"><ele>588.0</ele><time>2026-03-22T09:42:24.771Z</time></trkpt><trkpt lat="43.4937404" lon="11.2579531"><ele>586.8</ele><time>2026-03-22T09:42:25.771Z</time></trkpt><trkpt lat="43.4938174" lon="11.2580215"><ele>585.5999999999999</ele><time>2026-03-22T09:42:26.771Z</time></trkpt><trkpt lat="43.4938936" lon="11.2581042"><ele>584.4000000000001</ele><time>2026-03-22T09:42:27.772Z</time></trkpt><trkpt lat="43.4939633" lon="11.2581953"><ele>583.2</ele><time>2026-03-22T09:42:28.771Z</time></trkpt><trkpt lat="43.494037" lon="11.2583042"><ele>582.0</ele><time>2026-03-22T09:42:29.771Z</time></trkpt><trkpt lat="43.4941134" lon="11.2584269"><ele>581.2</ele><time>2026-03-22T09:42:30.772Z</time></trkpt><trkpt lat="43.4941767" lon="11.2585397"><ele>580.4000000000001</ele><time>2026-03-22T09:42:31.771Z</time></trkpt><trkpt lat="43.4942321" lon="11.2586477"><ele>579.5999999999999</ele><time>2026-03-22T09:42:32.772Z</time></trkpt><trkpt lat="43.4942941" lon="11.2587386"><ele>578.8</ele><time>2026-03-22T09:42:33.772Z</time></trkpt><trkpt lat="43.4943457" lon="11.2588137"><ele>578.0</ele><time>2026-03-22T09:42:34.771Z</time></trkpt><trkpt lat="43.4944086" lon="11.2589023"><ele>578.6</ele><time>2026-03-22T09:42:35.772Z</time></trkpt><trkpt lat="43.4944601" lon="11.2589993"><ele>579.1999999999999</ele><time>2026-03-22T09:42:36.771Z</time></trkpt><trkpt lat="43.4945212" lon="11.2590752"><ele>579.8</ele><time>2026-03-22T09:42:37.772Z</time></trkpt><trkpt lat="43.4945901" lon="11.2591589"><ele>580.4</ele><time>2026-03-22T09:42:38.772Z</time></trkpt><trkpt lat="43.4946601" lon="11.2592075"><ele>581.0</ele><time>2026-03-22T09:42:39.772Z</time></trkpt><trkpt lat="43.4947754" lon="11.2592325"><ele>581.5</ele><time>2026-03-22T09:42:40.772Z</time></trkpt><trkpt lat="43.4948902" lon="11.259263"><ele>582.0</ele><time>2026-03-22T09:42:41.771Z</time></trkpt><trkpt lat="43.495019" lon="11.2593048"><ele>582.5</ele><time>2026-03-22T09:42:42.773Z</time></trkpt><trkpt lat="43.4951387" lon="11.2593243"><ele>583.0</ele><time>2026-03-22T09:42:43.772Z</time></trkpt><trkpt lat="43.4952428" lon="11.2593663"><ele>583.0</ele><time>2026-03-22T09:42:44.771Z</time></trkpt><trkpt lat="43.4953546" lon="11.2594174"><ele>583.0</ele><time>2026-03-22T09:42:45.772Z</time></trkpt><trkpt lat="43.4954639" lon="11.2594947"><ele>583.0</ele><time>2026-03-22T09:42:46.771Z</time></trkpt><trkpt lat="43.4955562" lon="11.2595984"><ele>583.0</ele><time>2026-03-22T09:42:47.771Z</time></trkpt><trkpt lat="43.4956484" lon="11.2597124"><ele>582.0</ele><time>2026-03-22T09:42:48.772Z</time></trkpt><trkpt lat="43.4957368" lon="11.259849"><ele>581.0</ele><time>2026-03-22T09:42:49.772Z</time></trkpt><trkpt lat="43.4958107" lon="11.2600028"><ele>580.0</ele><time>2026-03-22T09:42:50.771Z</time></trkpt><trkpt lat="43.4958821" lon="11.260163"><ele>579.0</ele><time>2026-03-22T09:42:51.772Z</time></trkpt><trkpt lat="43.4959648" lon="11.2602982"><ele>579.0</ele><time>2026-03-22T09:42:52.772Z</time></trkpt><trkpt lat="43.4960509" lon="11.2604519"><ele>579.0</ele><time>2026-03-22T09:42:53.772Z</time></trkpt><trkpt lat="43.4961361" lon="11.2605759"><ele>579.0</ele><time>2026-03-22T09:42:54.772Z</time></trkpt><trkpt lat="43.4962124" lon="11.260703"><ele>579.0</ele><time>2026-03-22T09:42:55.772Z</time></trkpt><trkpt lat="43.4962874" lon="11.2608166"><ele>577.4</ele><time>2026-03-22T09:42:56.771Z</time></trkpt><trkpt lat="43.4963672" lon="11.260921"><ele>575.8</ele><time>2026-03-22T09:42:57.771Z</time></trkpt><trkpt lat="43.4964366" lon="11.2610106"><ele>574.2</ele><time>2026-03-22T09:42:58.772Z</time></trkpt><trkpt lat="43.4965058" lon="11.2610798"><ele>572.6</ele><time>2026-03-22T09:42:59.772Z</time></trkpt><trkpt lat="43.4965702" lon="11.2611608"><ele>571.0</ele><time>2026-03-22T09:43:00.771Z</time></trkpt><trkpt lat="43.496623" lon="11.2612581"><ele>571.0</ele><time>2026-03-22T09:43:01.771Z</time></trkpt><trkpt lat="43.4966854" lon="11.2613639"><ele>571.0</ele><time>2026-03-22T09:43:02.771Z</time></trkpt><trkpt lat="43.496764" lon="11.2614686"><ele>571.0</ele><time>2026-03-22T09:43:03.771Z</time></trkpt><trkpt lat="43.4968577" lon="11.2615568"><ele>571.0</ele><time>2026-03-22T09:43:04.771Z</time></trkpt><trkpt lat="43.4969607" lon="11.2616457"><ele>571.0</ele><time>2026-03-22T09:43:05.772Z</time></trkpt><trkpt lat="43.4970637" lon="11.2617509"><ele>570.25</ele><time>2026-03-22T09:43:06.771Z</time></trkpt><trkpt lat="43.4971613" lon="11.2618644"><ele>569.5</ele><time>2026-03-22T09:43:07.773Z</time></trkpt><trkpt lat="43.4972405" lon="11.2619799"><ele>568.75</ele><time>2026-03-22T09:43:08.772Z</time></trkpt><trkpt lat="43.4973221" lon="11.2621029"><ele>568.0</ele><time>2026-03-22T09:43:09.772Z</time></trkpt><trkpt lat="43.4973986" lon="11.2622415"><ele>567.8</ele><time>2026-03-22T09:43:10.772Z</time></trkpt><trkpt lat="43.4974598" lon="11.2623801"><ele>567.5999999999999</ele><time>2026-03-22T09:43:11.771Z</time></trkpt><trkpt lat="43.4975064" lon="11.2625211"><ele>567.4000000000001</ele><time>2026-03-22T09:43:12.771Z</time></trkpt><trkpt lat="43.4975389" lon="11.2626564"><ele>567.2</ele><time>2026-03-22T09:43:13.771Z</time></trkpt><trkpt lat="43.4975587" lon="11.2627891"><ele>567.0</ele><time>2026-03-22T09:43:14.771Z</time></trkpt><trkpt lat="43.4975799" lon="11.2629046"><ele>567.0</ele><time>2026-03-22T09:43:15.771Z</time></trkpt><trkpt lat="43.4976172" lon="11.2630111"><ele>567.0</ele><time>2026-03-22T09:43:16.772Z</time></trkpt><trkpt lat="43.4976763" lon="11.2630999"><ele>567.0</ele><time>2026-03-22T09:43:17.771Z</time></trkpt><trkpt lat="43.497747" lon="11.2631768"><ele>567.0</ele><time>2026-03-22T09:43:18.773Z</time></trkpt><trkpt lat="43.497833" lon="11.2632264"><ele>567.0</ele><time>2026-03-22T09:43:19.772Z</time></trkpt><trkpt lat="43.4979261" lon="11.2632707"><ele>570.0</ele><time>2026-03-22T09:43:20.771Z</time></trkpt><trkpt lat="43.4980312" lon="11.2633106"><ele>573.0</ele><time>2026-03-22T09:43:21.773Z</time></trkpt><trkpt lat="43.4981029" lon="11.263393"><ele>576.0</ele><time>2026-03-22T09:43:22.773Z</time></trkpt><trkpt lat="43.4981769" lon="11.2634716"><ele>579.0</ele><time>2026-03-22T09:43:23.772Z</time></trkpt><trkpt lat="43.4982274" lon="11.2635586"><ele>582.0</ele><time>2026-03-22T09:43:24.772Z</time></trkpt><trkpt lat="43.4982832" lon="11.263636"><ele>582.0</ele><time>2026-03-22T09:43:25.771Z</time></trkpt><trkpt lat="43.4983211" lon="11.2637071"><ele>582.0</ele><time>2026-03-22T09:43:26.772Z</time></trkpt><trkpt lat="43.4983641" lon="11.2638719"><ele>582.0</ele><time>2026-03-22T09:43:28.772Z</time></trkpt><trkpt lat="43.4984191" lon="11.2639237"><ele>582.0</ele><time>2026-03-22T09:43:29.772Z</time></trkpt><trkpt lat="43.4984763" lon="11.2639626"><ele>582.0</ele><time>2026-03-22T09:43:30.772Z</time></trkpt><trkpt lat="43.4985386" lon="11.2639795"><ele>582.0</ele><time>2026-03-22T09:43:31.773Z</time></trkpt><trkpt lat="43.4986094" lon="11.2639763"><ele>581.8333333333334</ele><time>2026-03-22T09:43:32.773Z</time></trkpt><trkpt lat="43.4986811" lon="11.2639511"><ele>581.6666666666666</ele><time>2026-03-22T09:43:33.771Z</time></trkpt><trkpt lat="43.4987602" lon="11.2639161"><ele>581.5</ele><time>2026-03-22T09:43:34.771Z</time></trkpt><trkpt lat="43.4988476" lon="11.263889"><ele>581.3333333333333</ele><time>2026-03-22T09:43:35.771Z</time></trkpt><trkpt lat="43.4989428" lon="11.2638853"><ele>581.1666666666666</ele><time>2026-03-22T09:43:36.772Z</time></trkpt><trkpt lat="43.499037" lon="11.2638931"><ele>581.0</ele><time>2026-03-22T09:43:37.772Z</time></trkpt><trkpt lat="43.4991355" lon="11.2638984"><ele>580.4</ele><time>2026-03-22T09:43:38.772Z</time></trkpt><trkpt lat="43.4992266" lon="11.2638962"><ele>579.8</ele><time>2026-03-22T09:43:39.771Z</time></trkpt><trkpt lat="43.499322" lon="11.2639463"><ele>579.1999999999999</ele><time>2026-03-22T09:43:40.772Z</time></trkpt><trkpt lat="43.4994262" lon="11.2639562"><ele>578.6</ele><time>2026-03-22T09:43:41.772Z</time></trkpt><trkpt lat="43.4995124" lon="11.2639495"><ele>578.0</ele><time>2026-03-22T09:43:42.771Z</time></trkpt><trkpt lat="43.4996113" lon="11.2639332"><ele>576.8</ele><time>2026-03-22T09:43:43.771Z</time></trkpt><trkpt lat="43.4996918" lon="11.2639039"><ele>575.5999999999999</ele><time>2026-03-22T09:43:44.771Z</time></trkpt><trkpt lat="43.4997783" lon="11.2638529"><ele>574.4000000000001</ele><time>2026-03-22T09:43:45.772Z</time></trkpt><trkpt lat="43.4998675" lon="11.2638156"><ele>573.2</ele><time>2026-03-22T09:43:46.771Z</time></trkpt><trkpt lat="43.4999605" lon="11.2637952"><ele>572.0</ele><time>2026-03-22T09:43:47.771Z</time></trkpt><trkpt lat="43.5000547" lon="11.2638004"><ele>572.0</ele><time>2026-03-22T09:43:48.772Z</time></trkpt><trkpt lat="43.5001494" lon="11.2638023"><ele>572.0</ele><time>2026-03-22T09:43:49.772Z</time></trkpt><trkpt lat="43.5002414" lon="11.2637979"><ele>572.0</ele><time>2026-03-22T09:43:50.772Z</time></trkpt><trkpt lat="43.5003326" lon="11.2637784"><ele>572.0</ele><time>2026-03-22T09:43:51.771Z</time></trkpt><trkpt lat="43.5004223" lon="11.2637417"><ele>572.0</ele><time>2026-03-22T09:43:52.772Z</time></trkpt><trkpt lat="43.5005059" lon="11.2636827"><ele>572.8000000000001</ele><time>2026-03-22T09:43:53.771Z</time></trkpt><trkpt lat="43.5005835" lon="11.2636038"><ele>573.6</ele><time>2026-03-22T09:43:54.772Z</time></trkpt><trkpt lat="43.5006579" lon="11.2635152"><ele>574.4000000000001</ele><time>2026-03-22T09:43:55.772Z</time></trkpt><trkpt lat="43.5007425" lon="11.2634313"><ele>575.2</ele><time>2026-03-22T09:43:56.772Z</time></trkpt><trkpt lat="43.5008306" lon="11.2633525"><ele>576.0</ele><time>2026-03-22T09:43:57.771Z</time></trkpt><trkpt lat="43.5009168" lon="11.2632893"><ele>576.0000000000001</ele><time>2026-03-22T09:43:58.772Z</time></trkpt><trkpt lat="43.5009975" lon="11.2632444"><ele>576.0</ele><time>2026-03-22T09:43:59.772Z</time></trkpt><trkpt lat="43.5010683" lon="11.263216"><ele>576.0</ele><time>2026-03-22T09:44:00.772Z</time></trkpt><trkpt lat="43.5011377" lon="11.2631967"><ele>576.0</ele><time>2026-03-22T09:44:01.771Z</time></trkpt><trkpt lat="43.5012022" lon="11.2631726"><ele>576.0</ele><time>2026-03-22T09:44:02.772Z</time></trkpt><trkpt lat="43.5012608" lon="11.26314"><ele>576.0000000000001</ele><time>2026-03-22T09:44:03.771Z</time></trkpt><trkpt lat="43.5013238" lon="11.2631107"><ele>576.0</ele><time>2026-03-22T09:44:05.771Z</time></trkpt><trkpt lat="43.5014084" lon="11.2630487"><ele>575.0</ele><time>2026-03-22T09:44:29.772Z</time></trkpt><trkpt lat="43.5015018" lon="11.262971"><ele>574.0</ele><time>2026-03-22T09:44:31.773Z</time></trkpt><trkpt lat="43.5016016" lon="11.2628802"><ele>573.0</ele><time>2026-03-22T09:44:33.771Z</time></trkpt><trkpt lat="43.5016658" lon="11.2628269"><ele>572.0</ele><time>2026-03-22T09:44:34.773Z</time></trkpt><trkpt lat="43.5017482" lon="11.2627618"><ele>571.0</ele><time>2026-03-22T09:44:35.772Z</time></trkpt><trkpt lat="43.5018384" lon="11.2626915"><ele>571.0</ele><time>2026-03-22T09:44:36.771Z</time></trkpt><trkpt lat="43.5019375" lon="11.2626295"><ele>571.0</ele><time>2026-03-22T09:44:37.773Z</time></trkpt><trkpt lat="43.5020311" lon="11.2625748"><ele>571.0</ele><time>2026-03-22T09:44:38.771Z</time></trkpt><trkpt lat="43.5021236" lon="11.2625241"><ele>571.0</ele><time>2026-03-22T09:44:39.771Z</time></trkpt><trkpt lat="43.5022158" lon="11.2624728"><ele>571.0</ele><time>2026-03-22T09:44:40.771Z</time></trkpt><trkpt lat="43.5023068" lon="11.2624168"><ele>570.8</ele><time>2026-03-22T09:44:41.771Z</time></trkpt><trkpt lat="43.502402" lon="11.2623646"><ele>570.6</ele><time>2026-03-22T09:44:42.772Z</time></trkpt><trkpt lat="43.502496" lon="11.2623136"><ele>570.4</ele><time>2026-03-22T09:44:43.772Z</time></trkpt><trkpt lat="43.5025817" lon="11.2622637"><ele>570.2</ele><time>2026-03-22T09:44:44.771Z</time></trkpt><trkpt lat="43.5026598" lon="11.2622129"><ele>570.0</ele><time>2026-03-22T09:44:45.771Z</time></trkpt><trkpt lat="43.5027361" lon="11.2621461"><ele>568.6</ele><time>2026-03-22T09:44:46.773Z</time></trkpt><trkpt lat="43.5027991" lon="11.2620626"><ele>567.2</ele><time>2026-03-22T09:44:47.771Z</time></trkpt><trkpt lat="43.5028483" lon="11.2619515"><ele>565.8</ele><time>2026-03-22T09:44:48.771Z</time></trkpt><trkpt lat="43.5028861" lon="11.2618174"><ele>564.4</ele><time>2026-03-22T09:44:49.772Z</time></trkpt><trkpt lat="43.5029072" lon="11.2616736"><ele>563.0</ele><time>2026-03-22T09:44:50.771Z</time></trkpt><trkpt lat="43.5029188" lon="11.2615381"><ele>563.6</ele><time>2026-03-22T09:44:51.772Z</time></trkpt><trkpt lat="43.502921" lon="11.2613973"><ele>564.1999999999999</ele><time>2026-03-22T09:44:52.772Z</time></trkpt><trkpt lat="43.5029136" lon="11.261253"><ele>564.8</ele><time>2026-03-22T09:44:53.771Z</time></trkpt><trkpt lat="43.5028972" lon="11.2611009"><ele>565.4</ele><time>2026-03-22T09:44:54.771Z</time></trkpt><trkpt lat="43.5028804" lon="11.2609465"><ele>566.0</ele><time>2026-03-22T09:44:55.771Z</time></trkpt><trkpt lat="43.5028706" lon="11.2608127"><ele>566.0</ele><time>2026-03-22T09:44:56.772Z</time></trkpt><trkpt lat="43.5028676" lon="11.2606985"><ele>566.0</ele><time>2026-03-22T09:44:57.773Z</time></trkpt><trkpt lat="43.5028815" lon="11.2605985"><ele>566.0</ele><time>2026-03-22T09:44:58.771Z</time></trkpt><trkpt lat="43.5029124" lon="11.2605214"><ele>566.0</ele><time>2026-03-22T09:44:59.772Z</time></trkpt><trkpt lat="43.5029489" lon="11.2604419"><ele>566.0</ele><time>2026-03-22T09:45:00.771Z</time></trkpt><trkpt lat="43.5030135" lon="11.260393"><ele>566.0</ele><time>2026-03-22T09:45:01.772Z</time></trkpt><trkpt lat="43.5030804" lon="11.2603426"><ele>566.0</ele><time>2026-03-22T09:45:02.772Z</time></trkpt><trkpt lat="43.5031554" lon="11.2602936"><ele>566.4</ele><time>2026-03-22T09:45:03.772Z</time></trkpt><trkpt lat="43.5032315" lon="11.260252"><ele>566.8</ele><time>2026-03-22T09:45:04.772Z</time></trkpt><trkpt lat="43.5033182" lon="11.2602036"><ele>567.1999999999999</ele><time>2026-03-22T09:45:05.772Z</time></trkpt><trkpt lat="43.5034051" lon="11.2601494"><ele>567.6</ele><time>2026-03-22T09:45:06.771Z</time></trkpt><trkpt lat="43.5034994" lon="11.2601009"><ele>568.0</ele><time>2026-03-22T09:45:07.772Z</time></trkpt><trkpt lat="43.5035899" lon="11.260061"><ele>568.0</ele><time>2026-03-22T09:45:08.772Z</time></trkpt><trkpt lat="43.5036774" lon="11.2600153"><ele>568.0</ele><time>2026-03-22T09:45:09.772Z</time></trkpt><trkpt lat="43.5037649" lon="11.2599888"><ele>568.0</ele><time>2026-03-22T09:45:10.772Z</time></trkpt><trkpt lat="43.5038526" lon="11.259973"><ele>568.0</ele><time>2026-03-22T09:45:11.772Z</time></trkpt><trkpt lat="43.5039447" lon="11.2599602"><ele>568.0</ele><time>2026-03-22T09:45:12.772Z</time></trkpt><trkpt lat="43.5040334" lon="11.2599331"><ele>566.8</ele><time>2026-03-22T09:45:13.772Z</time></trkpt><trkpt lat="43.504115" lon="11.2598904"><ele>565.5999999999999</ele><time>2026-03-22T09:45:14.772Z</time></trkpt><trkpt lat="43.5041912" lon="11.259826"><ele>564.4000000000001</ele><time>2026-03-22T09:45:15.771Z</time></trkpt><trkpt lat="43.504266" lon="11.2597439"><ele>563.2</ele><time>2026-03-22T09:45:16.771Z</time></trkpt><trkpt lat="43.5043485" lon="11.2596562"><ele>562.0</ele><time>2026-03-22T09:45:17.772Z</time></trkpt><trkpt lat="43.5044361" lon="11.2595658"><ele>560.2</ele><time>2026-03-22T09:45:18.772Z</time></trkpt><trkpt lat="43.5045267" lon="11.259482"><ele>558.4000000000001</ele><time>2026-03-22T09:45:19.771Z</time></trkpt><trkpt lat="43.5046166" lon="11.2594142"><ele>556.5999999999999</ele><time>2026-03-22T09:45:20.772Z</time></trkpt><trkpt lat="43.5047043" lon="11.2593779"><ele>554.8</ele><time>2026-03-22T09:45:21.772Z</time></trkpt><trkpt lat="43.5047982" lon="11.2593642"><ele>553.0</ele><time>2026-03-22T09:45:22.771Z</time></trkpt><trkpt lat="43.5048975" lon="11.2593488"><ele>552.8</ele><time>2026-03-22T09:45:23.772Z</time></trkpt><trkpt lat="43.5049951" lon="11.2593305"><ele>552.5999999999999</ele><time>2026-03-22T09:45:24.771Z</time></trkpt><trkpt lat="43.5050907" lon="11.2593124"><ele>552.4000000000001</ele><time>2026-03-22T09:45:25.772Z</time></trkpt><trkpt lat="43.5051807" lon="11.259292"><ele>552.2</ele><time>2026-03-22T09:45:26.771Z</time></trkpt><trkpt lat="43.5052712" lon="11.259269"><ele>552.0</ele><time>2026-03-22T09:45:27.771Z</time></trkpt><trkpt lat="43.5053646" lon="11.2592437"><ele>550.6</ele><time>2026-03-22T09:45:28.773Z</time></trkpt><trkpt lat="43.5054612" lon="11.2592328"><ele>549.2</ele><time>2026-03-22T09:45:29.772Z</time></trkpt><trkpt lat="43.5055669" lon="11.2592416"><ele>547.8</ele><time>2026-03-22T09:45:30.773Z</time></trkpt><trkpt lat="43.5056795" lon="11.2592635"><ele>546.4</ele><time>2026-03-22T09:45:31.772Z</time></trkpt><trkpt lat="43.5057874" lon="11.2592866"><ele>545.0</ele><time>2026-03-22T09:45:32.773Z</time></trkpt><trkpt lat="43.5058916" lon="11.2593141"><ele>545.0</ele><time>2026-03-22T09:45:33.772Z</time></trkpt><trkpt lat="43.5059951" lon="11.2593454"><ele>545.0</ele><time>2026-03-22T09:45:34.772Z</time></trkpt><trkpt lat="43.506087" lon="11.2593806"><ele>545.0</ele><time>2026-03-22T09:45:35.772Z</time></trkpt><trkpt lat="43.5061647" lon="11.2594324"><ele>545.0</ele><time>2026-03-22T09:45:36.772Z</time></trkpt><trkpt lat="43.5062333" lon="11.2595161"><ele>545.0</ele><time>2026-03-22T09:45:37.772Z</time></trkpt><trkpt lat="43.506297" lon="11.2596172"><ele>543.8</ele><time>2026-03-22T09:45:38.772Z</time></trkpt><trkpt lat="43.5063599" lon="11.2597257"><ele>542.6</ele><time>2026-03-22T09:45:39.772Z</time></trkpt><trkpt lat="43.5064334" lon="11.2598237"><ele>541.4</ele><time>2026-03-22T09:45:40.771Z</time></trkpt><trkpt lat="43.5065232" lon="11.2599023"><ele>540.2</ele><time>2026-03-22T09:45:41.772Z</time></trkpt><trkpt lat="43.5066224" lon="11.259975"><ele>539.0</ele><time>2026-03-22T09:45:42.772Z</time></trkpt><trkpt lat="43.5067262" lon="11.2600417"><ele>539.0</ele><time>2026-03-22T09:45:43.771Z</time></trkpt><trkpt lat="43.5068269" lon="11.2600999"><ele>539.0</ele><time>2026-03-22T09:45:44.772Z</time></trkpt><trkpt lat="43.5069264" lon="11.260151"><ele>539.0</ele><time>2026-03-22T09:45:45.772Z</time></trkpt><trkpt lat="43.5070132" lon="11.2601907"><ele>539.0</ele><time>2026-03-22T09:45:46.772Z</time></trkpt><trkpt lat="43.5070943" lon="11.2602262"><ele>539.0</ele><time>2026-03-22T09:45:47.772Z</time></trkpt><trkpt lat="43.5071691" lon="11.2602575"><ele>538.5</ele><time>2026-03-22T09:45:48.772Z</time></trkpt><trkpt lat="43.5072293" lon="11.2602903"><ele>538.0</ele><time>2026-03-22T09:45:49.772Z</time></trkpt><trkpt lat="43.5073103" lon="11.2603151"><ele>537.5</ele><time>2026-03-22T09:45:51.773Z</time></trkpt><trkpt lat="43.5073812" lon="11.2603229"><ele>537.0</ele><time>2026-03-22T09:46:58.772Z</time></trkpt><trkpt lat="43.5074465" lon="11.2603485"><ele>536.5</ele><time>2026-03-22T09:46:59.772Z</time></trkpt><trkpt lat="43.5075579" lon="11.2604163"><ele>536.0</ele><time>2026-03-22T09:47:01.771Z</time></trkpt><trkpt lat="43.5076668" lon="11.2604756"><ele>536.0</ele><time>2026-03-22T09:47:03.772Z</time></trkpt><trkpt lat="43.5077371" lon="11.260516"><ele>536.0</ele><time>2026-03-22T09:47:04.772Z</time></trkpt><trkpt lat="43.5078198" lon="11.260562"><ele>536.0</ele><time>2026-03-22T09:47:05.773Z</time></trkpt><trkpt lat="43.5079116" lon="11.2606151"><ele>536.0</ele><time>2026-03-22T09:47:06.771Z</time></trkpt><trkpt lat="43.5080012" lon="11.2606868"><ele>536.0</ele><time>2026-03-22T09:47:07.771Z</time></trkpt><trkpt lat="43.5080849" lon="11.2607714"><ele>537.2</ele><time>2026-03-22T09:47:08.772Z</time></trkpt><trkpt lat="43.508172" lon="11.2608565"><ele>538.4000000000001</ele><time>2026-03-22T09:47:09.771Z</time></trkpt><trkpt lat="43.5082498" lon="11.2609544"><ele>539.6</ele><time>2026-03-22T09:47:10.773Z</time></trkpt><trkpt lat="43.5083195" lon="11.261061"><ele>540.8000000000001</ele><time>2026-03-22T09:47:11.772Z</time></trkpt><trkpt lat="43.5083805" lon="11.2611622"><ele>542.0</ele><time>2026-03-22T09:47:12.772Z</time></trkpt><trkpt lat="43.5084306" lon="11.2612658"><ele>542.0</ele><time>2026-03-22T09:47:13.772Z</time></trkpt><trkpt lat="43.5084727" lon="11.261383"><ele>542.0</ele><time>2026-03-22T09:47:14.773Z</time></trkpt><trkpt lat="43.508516" lon="11.2615127"><ele>542.0</ele><time>2026-03-22T09:47:15.773Z</time></trkpt><trkpt lat="43.5085729" lon="11.2616442"><ele>542.0</ele><time>2026-03-22T09:47:16.773Z</time></trkpt><trkpt lat="43.5086454" lon="11.2617744"><ele>542.0</ele><time>2026-03-22T09:47:17.772Z</time></trkpt><trkpt lat="43.5087263" lon="11.2618983"><ele>541.75</ele><time>2026-03-22T09:47:18.772Z</time></trkpt><trkpt lat="43.5088089" lon="11.2620246"><ele>541.5</ele><time>2026-03-22T09:47:19.773Z</time></trkpt><trkpt lat="43.508885" lon="11.2621489"><ele>541.25</ele><time>2026-03-22T09:47:20.772Z</time></trkpt><trkpt lat="43.5089558" lon="11.2622747"><ele>541.0</ele><time>2026-03-22T09:47:21.771Z</time></trkpt><trkpt lat="43.5090223" lon="11.2624022"><ele>541.0</ele><time>2026-03-22T09:47:22.773Z</time></trkpt><trkpt lat="43.5090862" lon="11.2625294"><ele>541.0</ele><time>2026-03-22T09:47:23.772Z</time></trkpt><trkpt lat="43.5091535" lon="11.262645"><ele>541.0</ele><time>2026-03-22T09:47:24.771Z</time></trkpt><trkpt lat="43.5092227" lon="11.2627493"><ele>541.0</ele><time>2026-03-22T09:47:25.771Z</time></trkpt><trkpt lat="43.5092861" lon="11.2628428"><ele>541.0</ele><time>2026-03-22T09:47:26.772Z</time></trkpt><trkpt lat="43.5093385" lon="11.2629353"><ele>541.0</ele><time>2026-03-22T09:47:27.772Z</time></trkpt><trkpt lat="43.5093855" lon="11.2630306"><ele>541.0</ele><time>2026-03-22T09:47:28.771Z</time></trkpt><trkpt lat="43.5094256" lon="11.2631287"><ele>541.0</ele><time>2026-03-22T09:47:29.772Z</time></trkpt><trkpt lat="43.5094583" lon="11.2632348"><ele>541.0</ele><time>2026-03-22T09:47:30.772Z</time></trkpt><trkpt lat="43.5094907" lon="11.2633489"><ele>541.0</ele><time>2026-03-22T09:47:31.771Z</time></trkpt><trkpt lat="43.5095273" lon="11.263462"><ele>541.0</ele><time>2026-03-22T09:47:32.772Z</time></trkpt><trkpt lat="43.509564" lon="11.2635741"><ele>539.8333333333334</ele><time>2026-03-22T09:47:33.772Z</time></trkpt><trkpt lat="43.5096015" lon="11.2636835"><ele>538.6666666666667</ele><time>2026-03-22T09:47:34.771Z</time></trkpt><trkpt lat="43.5096371" lon="11.2637847"><ele>537.5</ele><time>2026-03-22T09:47:35.771Z</time></trkpt><trkpt lat="43.5096764" lon="11.2638842"><ele>536.3333333333334</ele><time>2026-03-22T09:47:36.771Z</time></trkpt><trkpt lat="43.5097173" lon="11.2639912"><ele>535.1666666666666</ele><time>2026-03-22T09:47:37.771Z</time></trkpt><trkpt lat="43.5097489" lon="11.2641051"><ele>534.0</ele><time>2026-03-22T09:47:38.772Z</time></trkpt><trkpt lat="43.5097662" lon="11.2642257"><ele>532.6666666666666</ele><time>2026-03-22T09:47:39.771Z</time></trkpt><trkpt lat="43.5097791" lon="11.2643599"><ele>531.3333333333334</ele><time>2026-03-22T09:47:40.771Z</time></trkpt><trkpt lat="43.5097957" lon="11.2644956"><ele>530.0</ele><time>2026-03-22T09:47:41.772Z</time></trkpt><trkpt lat="43.5098148" lon="11.2646249"><ele>528.6666666666667</ele><time>2026-03-22T09:47:42.772Z</time></trkpt><trkpt lat="43.509834" lon="11.2647408"><ele>527.3333333333334</ele><time>2026-03-22T09:47:43.772Z</time></trkpt><trkpt lat="43.5098458" lon="11.264835"><ele>526.0</ele><time>2026-03-22T09:47:44.771Z</time></trkpt><trkpt lat="43.5098206" lon="11.2649817"><ele>525.1666666666667</ele><time>2026-03-22T09:47:46.771Z</time></trkpt><trkpt lat="43.5097362" lon="11.2650773"><ele>524.3333333333334</ele><time>2026-03-22T09:47:48.773Z</time></trkpt><trkpt lat="43.5097096" lon="11.2652226"><ele>523.5</ele><time>2026-03-22T09:47:50.771Z</time></trkpt><trkpt lat="43.5097225" lon="11.2653174"><ele>522.6666666666666</ele><time>2026-03-22T09:47:51.771Z</time></trkpt><trkpt lat="43.5097446" lon="11.2654158"><ele>521.8333333333333</ele><time>2026-03-22T09:47:52.771Z</time></trkpt><trkpt lat="43.5097695" lon="11.2655239"><ele>521.0</ele><time>2026-03-22T09:47:53.773Z</time></trkpt><trkpt lat="43.5097965" lon="11.2656382"><ele>519.5</ele><time>2026-03-22T09:47:54.773Z</time></trkpt><trkpt lat="43.5098181" lon="11.265749"><ele>518.0</ele><time>2026-03-22T09:47:55.772Z</time></trkpt><trkpt lat="43.5098366" lon="11.2658553"><ele>516.5</ele><time>2026-03-22T09:47:56.772Z</time></trkpt><trkpt lat="43.5098558" lon="11.2659575"><ele>515.0</ele><time>2026-03-22T09:47:57.773Z</time></trkpt><trkpt lat="43.5098878" lon="11.2660456"><ele>513.5</ele><time>2026-03-22T09:47:58.772Z</time></trkpt><trkpt lat="43.5099933" lon="11.2661294"><ele>512.0</ele><time>2026-03-22T09:48:00.772Z</time></trkpt><trkpt lat="43.5100633" lon="11.2661484"><ele>512.0</ele><time>2026-03-22T09:48:01.773Z</time></trkpt><trkpt lat="43.5101401" lon="11.2661601"><ele>511.99999999999994</ele><time>2026-03-22T09:48:02.772Z</time></trkpt><trkpt lat="43.510217" lon="11.2661636"><ele>512.0</ele><time>2026-03-22T09:48:03.771Z</time></trkpt><trkpt lat="43.51029" lon="11.2661493"><ele>512.0</ele><time>2026-03-22T09:48:04.772Z</time></trkpt><trkpt lat="43.5103568" lon="11.2661188"><ele>511.99999999999994</ele><time>2026-03-22T09:48:05.772Z</time></trkpt><trkpt lat="43.510417" lon="11.2660775"><ele>512.0</ele><time>2026-03-22T09:48:06.772Z</time></trkpt><trkpt lat="43.5104748" lon="11.2660309"><ele>512.0</ele><time>2026-03-22T09:48:07.772Z</time></trkpt><trkpt lat="43.5105347" lon="11.2659752"><ele>511.3333333333333</ele><time>2026-03-22T09:48:08.772Z</time></trkpt><trkpt lat="43.510591" lon="11.2659078"><ele>510.66666666666663</ele><time>2026-03-22T09:48:09.772Z</time></trkpt><trkpt lat="43.510643" lon="11.2658295"><ele>510.0</ele><time>2026-03-22T09:48:10.771Z</time></trkpt><trkpt lat="43.5106969" lon="11.2657433"><ele>509.33333333333337</ele><time>2026-03-22T09:48:11.772Z</time></trkpt><trkpt lat="43.5107462" lon="11.2656571"><ele>508.6666666666667</ele><time>2026-03-22T09:48:12.771Z</time></trkpt><trkpt lat="43.5107956" lon="11.26558"><ele>508.0</ele><time>2026-03-22T09:48:13.772Z</time></trkpt><trkpt lat="43.5108955" lon="11.2655087"><ele>508.0</ele><time>2026-03-22T09:48:15.772Z</time></trkpt><trkpt lat="43.5109766" lon="11.2655284"><ele>507.99999999999994</ele><time>2026-03-22T09:48:17.773Z</time></trkpt><trkpt lat="43.5110556" lon="11.2656427"><ele>507.99999999999994</ele><time>2026-03-22T09:48:19.771Z</time></trkpt><trkpt lat="43.5111037" lon="11.2657321"><ele>508.0</ele><time>2026-03-22T09:48:20.771Z</time></trkpt><trkpt lat="43.5111551" lon="11.2658223"><ele>508.0</ele><time>2026-03-22T09:48:21.772Z</time></trkpt><trkpt lat="43.5112045" lon="11.2659271"><ele>508.59999999999997</ele><time>2026-03-22T09:48:22.771Z</time></trkpt><trkpt lat="43.5112488" lon="11.2660435"><ele>509.19999999999993</ele><time>2026-03-22T09:48:23.771Z</time></trkpt><trkpt lat="43.5112917" lon="11.2661789"><ele>509.8</ele><time>2026-03-22T09:48:24.772Z</time></trkpt><trkpt lat="43.5113418" lon="11.266324"><ele>510.4</ele><time>2026-03-22T09:48:25.772Z</time></trkpt><trkpt lat="43.5114028" lon="11.2664726"><ele>511.0</ele><time>2026-03-22T09:48:26.772Z</time></trkpt><trkpt lat="43.5114679" lon="11.2666238"><ele>507.25</ele><time>2026-03-22T09:48:27.772Z</time></trkpt><trkpt lat="43.511538" lon="11.2667689"><ele>503.5</ele><time>2026-03-22T09:48:28.772Z</time></trkpt><trkpt lat="43.5116125" lon="11.2669051"><ele>499.75</ele><time>2026-03-22T09:48:29.772Z</time></trkpt><trkpt lat="43.5116848" lon="11.267036"><ele>496.0</ele><time>2026-03-22T09:48:30.772Z</time></trkpt><trkpt lat="43.5117569" lon="11.2671512"><ele>496.0</ele><time>2026-03-22T09:48:31.771Z</time></trkpt><trkpt lat="43.5118338" lon="11.2672488"><ele>496.0</ele><time>2026-03-22T09:48:32.771Z</time></trkpt><trkpt lat="43.511918" lon="11.2673269"><ele>496.0</ele><time>2026-03-22T09:48:33.771Z</time></trkpt><trkpt lat="43.5120109" lon="11.2673915"><ele>496.0</ele><time>2026-03-22T09:48:34.771Z</time></trkpt><trkpt lat="43.5121145" lon="11.2674391"><ele>496.0</ele><time>2026-03-22T09:48:35.773Z</time></trkpt><trkpt lat="43.5122221" lon="11.267468"><ele>494.4</ele><time>2026-03-22T09:48:36.772Z</time></trkpt><trkpt lat="43.5123287" lon="11.2674879"><ele>492.8</ele><time>2026-03-22T09:48:37.772Z</time></trkpt><trkpt lat="43.5124381" lon="11.2675072"><ele>491.19999999999993</ele><time>2026-03-22T09:48:38.772Z</time></trkpt><trkpt lat="43.5125502" lon="11.2675206"><ele>489.59999999999997</ele><time>2026-03-22T09:48:39.773Z</time></trkpt><trkpt lat="43.5126598" lon="11.2675208"><ele>488.0</ele><time>2026-03-22T09:48:40.771Z</time></trkpt><trkpt lat="43.5127736" lon="11.2675098"><ele>488.0</ele><time>2026-03-22T09:48:41.772Z</time></trkpt><trkpt lat="43.512881" lon="11.2674791"><ele>488.0</ele><time>2026-03-22T09:48:42.771Z</time></trkpt><trkpt lat="43.5129936" lon="11.2674409"><ele>488.0</ele><time>2026-03-22T09:48:43.771Z</time></trkpt><trkpt lat="43.5131068" lon="11.2674032"><ele>488.0</ele><time>2026-03-22T09:48:44.771Z</time></trkpt><trkpt lat="43.5132247" lon="11.2673557"><ele>486.79999999999995</ele><time>2026-03-22T09:48:45.771Z</time></trkpt><trkpt lat="43.5133482" lon="11.2673181"><ele>485.59999999999997</ele><time>2026-03-22T09:48:46.771Z</time></trkpt><trkpt lat="43.5134647" lon="11.2672808"><ele>484.40000000000003</ele><time>2026-03-22T09:48:47.772Z</time></trkpt><trkpt lat="43.5135434" lon="11.2672382"><ele>483.20000000000005</ele><time>2026-03-22T09:48:48.772Z</time></trkpt><trkpt lat="43.5136256" lon="11.2672023"><ele>482.0</ele><time>2026-03-22T09:48:49.773Z</time></trkpt><trkpt lat="43.5136779" lon="11.2671116"><ele>477.6</ele><time>2026-03-22T09:48:50.771Z</time></trkpt><trkpt lat="43.5137603" lon="11.2670518"><ele>473.20000000000005</ele><time>2026-03-22T09:48:51.773Z</time></trkpt><trkpt lat="43.5138" lon="11.2669668"><ele>468.8</ele><time>2026-03-22T09:48:52.771Z</time></trkpt><trkpt lat="43.5137635" lon="11.2667945"><ele>464.4</ele><time>2026-03-22T09:48:53.771Z</time></trkpt><trkpt lat="43.5137764" lon="11.2666559"><ele>460.0</ele><time>2026-03-22T09:48:54.772Z</time></trkpt><trkpt lat="43.5137837" lon="11.2665271"><ele>460.0</ele><time>2026-03-22T09:48:55.771Z</time></trkpt><trkpt lat="43.5137982" lon="11.2663943"><ele>460.0</ele><time>2026-03-22T09:48:56.772Z</time></trkpt><trkpt lat="43.5138002" lon="11.2662642"><ele>460.0</ele><time>2026-03-22T09:48:57.773Z</time></trkpt><trkpt lat="43.5138014" lon="11.2661375"><ele>460.0</ele><time>2026-03-22T09:48:58.772Z</time></trkpt><trkpt lat="43.5138254" lon="11.2660051"><ele>460.0</ele><time>2026-03-22T09:48:59.771Z</time></trkpt><trkpt lat="43.5138591" lon="11.2658876"><ele>460.0</ele><time>2026-03-22T09:49:00.772Z</time></trkpt><trkpt lat="43.5139107" lon="11.2657948"><ele>460.0</ele><time>2026-03-22T09:49:01.772Z</time></trkpt><trkpt lat="43.513996" lon="11.2657147"><ele>460.0</ele><time>2026-03-22T09:49:02.771Z</time></trkpt><trkpt lat="43.514062" lon="11.2656354"><ele>460.0</ele><time>2026-03-22T09:49:03.772Z</time></trkpt><trkpt lat="43.5141327" lon="11.2655663"><ele>460.0</ele><time>2026-03-22T09:49:04.772Z</time></trkpt><trkpt lat="43.514205" lon="11.2654983"><ele>460.83333333333337</ele><time>2026-03-22T09:49:05.771Z</time></trkpt><trkpt lat="43.5142706" lon="11.265431"><ele>461.6666666666667</ele><time>2026-03-22T09:49:06.771Z</time></trkpt><trkpt lat="43.5143352" lon="11.2653665"><ele>462.5</ele><time>2026-03-22T09:49:07.771Z</time></trkpt><trkpt lat="43.5143947" lon="11.265296"><ele>463.33333333333337</ele><time>2026-03-22T09:49:08.771Z</time></trkpt><trkpt lat="43.5144534" lon="11.2652231"><ele>464.1666666666667</ele><time>2026-03-22T09:49:09.771Z</time></trkpt><trkpt lat="43.5145085" lon="11.2651466"><ele>465.0</ele><time>2026-03-22T09:49:10.773Z</time></trkpt><trkpt lat="43.5145487" lon="11.2650644"><ele>463.3333333333333</ele><time>2026-03-22T09:49:11.771Z</time></trkpt><trkpt lat="43.514578" lon="11.2649726"><ele>461.66666666666663</ele><time>2026-03-22T09:49:12.772Z</time></trkpt><trkpt lat="43.5145873" lon="11.2648749"><ele>460.0</ele><time>2026-03-22T09:49:13.772Z</time></trkpt><trkpt lat="43.5145897" lon="11.2647576"><ele>458.3333333333333</ele><time>2026-03-22T09:49:14.771Z</time></trkpt><trkpt lat="43.5145985" lon="11.2646519"><ele>456.66666666666663</ele><time>2026-03-22T09:49:15.772Z</time></trkpt><trkpt lat="43.5146359" lon="11.2645402"><ele>455.0</ele><time>2026-03-22T09:49:16.772Z</time></trkpt><trkpt lat="43.514673" lon="11.2644312"><ele>455.0</ele><time>2026-03-22T09:49:17.771Z</time></trkpt><trkpt lat="43.5147826" lon="11.2644034"><ele>455.0</ele><time>2026-03-22T09:49:18.772Z</time></trkpt><trkpt lat="43.5148585" lon="11.2643485"><ele>455.0</ele><time>2026-03-22T09:49:19.772Z</time></trkpt><trkpt lat="43.5149458" lon="11.2642937"><ele>455.0</ele><time>2026-03-22T09:49:20.771Z</time></trkpt><trkpt lat="43.5150266" lon="11.2642542"><ele>455.0</ele><time>2026-03-22T09:49:21.772Z</time></trkpt><trkpt lat="43.5151078" lon="11.264195"><ele>455.0</ele><time>2026-03-22T09:49:22.772Z</time></trkpt><trkpt lat="43.5151948" lon="11.26414"><ele>455.0</ele><time>2026-03-22T09:49:23.772Z</time></trkpt><trkpt lat="43.5152822" lon="11.2640958"><ele>455.0</ele><time>2026-03-22T09:49:24.772Z</time></trkpt><trkpt lat="43.5153677" lon="11.2640523"><ele>455.0</ele><time>2026-03-22T09:49:25.772Z</time></trkpt><trkpt lat="43.5154506" lon="11.2639967"><ele>455.0</ele><time>2026-03-22T09:49:26.773Z</time></trkpt><trkpt lat="43.5155169" lon="11.2639255"><ele>453.66666666666663</ele><time>2026-03-22T09:49:27.772Z</time></trkpt><trkpt lat="43.5155812" lon="11.2638312"><ele>452.3333333333333</ele><time>2026-03-22T09:49:28.771Z</time></trkpt><trkpt lat="43.5156356" lon="11.2637405"><ele>451.0</ele><time>2026-03-22T09:49:29.771Z</time></trkpt><trkpt lat="43.5156819" lon="11.2636404"><ele>449.66666666666663</ele><time>2026-03-22T09:49:30.773Z</time></trkpt><trkpt lat="43.5157273" lon="11.2635412"><ele>448.3333333333333</ele><time>2026-03-22T09:49:31.771Z</time></trkpt><trkpt lat="43.5157798" lon="11.2634443"><ele>447.0</ele><time>2026-03-22T09:49:32.771Z</time></trkpt><trkpt lat="43.5158579" lon="11.2633781"><ele>447.0</ele><time>2026-03-22T09:49:33.771Z</time></trkpt><trkpt lat="43.5159313" lon="11.2633307"><ele>447.0</ele><time>2026-03-22T09:49:34.771Z</time></trkpt><trkpt lat="43.5160223" lon="11.2632921"><ele>447.0</ele><time>2026-03-22T09:49:35.772Z</time></trkpt><trkpt lat="43.5161141" lon="11.2632669"><ele>447.0</ele><time>2026-03-22T09:49:36.772Z</time></trkpt><trkpt lat="43.5162011" lon="11.2632631"><ele>447.0</ele><time>2026-03-22T09:49:37.772Z</time></trkpt><trkpt lat="43.5162763" lon="11.2632797"><ele>447.0</ele><time>2026-03-22T09:49:38.771Z</time></trkpt><trkpt lat="43.5163444" lon="11.2632948"><ele>448.1666666666667</ele><time>2026-03-22T09:49:39.771Z</time></trkpt><trkpt lat="43.5163873" lon="11.2634029"><ele>449.33333333333337</ele><time>2026-03-22T09:49:40.771Z</time></trkpt><trkpt lat="43.5164476" lon="11.2634523"><ele>450.5</ele><time>2026-03-22T09:49:41.772Z</time></trkpt><trkpt lat="43.5165168" lon="11.2634916"><ele>451.6666666666667</ele><time>2026-03-22T09:49:42.771Z</time></trkpt><trkpt lat="43.5165946" lon="11.2635258"><ele>452.83333333333337</ele><time>2026-03-22T09:49:43.771Z</time></trkpt><trkpt lat="43.516679" lon="11.2635434"><ele>454.0</ele><time>2026-03-22T09:49:44.772Z</time></trkpt><trkpt lat="43.5167704" lon="11.2635542"><ele>454.0</ele><time>2026-03-22T09:49:45.771Z</time></trkpt><trkpt lat="43.5168701" lon="11.2635544"><ele>454.0</ele><time>2026-03-22T09:49:46.771Z</time></trkpt><trkpt lat="43.5169775" lon="11.2635638"><ele>454.0</ele><time>2026-03-22T09:49:47.772Z</time></trkpt><trkpt lat="43.517085" lon="11.2635639"><ele>454.0</ele><time>2026-03-22T09:49:48.771Z</time></trkpt><trkpt lat="43.5171896" lon="11.2635271"><ele>454.0</ele><time>2026-03-22T09:49:49.772Z</time></trkpt><trkpt lat="43.5172901" lon="11.2634949"><ele>455.79999999999995</ele><time>2026-03-22T09:49:50.772Z</time></trkpt><trkpt lat="43.5173801" lon="11.2634493"><ele>457.59999999999997</ele><time>2026-03-22T09:49:51.771Z</time></trkpt><trkpt lat="43.5174774" lon="11.2634239"><ele>459.4</ele><time>2026-03-22T09:49:52.771Z</time></trkpt><trkpt lat="43.517566" lon="11.2633978"><ele>461.2</ele><time>2026-03-22T09:49:53.771Z</time></trkpt><trkpt lat="43.5176568" lon="11.2634398"><ele>463.0</ele><time>2026-03-22T09:49:54.771Z</time></trkpt><trkpt lat="43.5177318" lon="11.2634953"><ele>463.0</ele><time>2026-03-22T09:49:55.771Z</time></trkpt><trkpt lat="43.517797" lon="11.2635763"><ele>462.99999999999994</ele><time>2026-03-22T09:49:56.771Z</time></trkpt><trkpt lat="43.5178542" lon="11.2636767"><ele>462.99999999999994</ele><time>2026-03-22T09:49:57.773Z</time></trkpt><trkpt lat="43.5179068" lon="11.2637941"><ele>463.0</ele><time>2026-03-22T09:49:58.771Z</time></trkpt><trkpt lat="43.5179593" lon="11.263912"><ele>463.0</ele><time>2026-03-22T09:49:59.771Z</time></trkpt><trkpt lat="43.5180029" lon="11.2640387"><ele>462.79999999999995</ele><time>2026-03-22T09:50:00.772Z</time></trkpt><trkpt lat="43.5180405" lon="11.264174"><ele>462.59999999999997</ele><time>2026-03-22T09:50:01.772Z</time></trkpt><trkpt lat="43.5180652" lon="11.2643132"><ele>462.40000000000003</ele><time>2026-03-22T09:50:02.771Z</time></trkpt><trkpt lat="43.5180759" lon="11.2644532"><ele>462.20000000000005</ele><time>2026-03-22T09:50:03.771Z</time></trkpt><trkpt lat="43.5180803" lon="11.2645977"><ele>462.0</ele><time>2026-03-22T09:50:04.773Z</time></trkpt><trkpt lat="43.5180871" lon="11.2647376"><ele>461.8</ele><time>2026-03-22T09:50:05.771Z</time></trkpt><trkpt lat="43.5180908" lon="11.2648821"><ele>461.6</ele><time>2026-03-22T09:50:06.772Z</time></trkpt><trkpt lat="43.5180942" lon="11.2650257"><ele>461.40000000000003</ele><time>2026-03-22T09:50:07.772Z</time></trkpt><trkpt lat="43.5181029" lon="11.2651639"><ele>461.20000000000005</ele><time>2026-03-22T09:50:08.772Z</time></trkpt><trkpt lat="43.5181149" lon="11.2653008"><ele>461.0</ele><time>2026-03-22T09:50:09.771Z</time></trkpt><trkpt lat="43.5181301" lon="11.2654323"><ele>460.99999999999994</ele><time>2026-03-22T09:50:10.771Z</time></trkpt><trkpt lat="43.5181452" lon="11.2655597"><ele>461.0</ele><time>2026-03-22T09:50:11.773Z</time></trkpt><trkpt lat="43.5181697" lon="11.2656769"><ele>461.0</ele><time>2026-03-22T09:50:12.772Z</time></trkpt><trkpt lat="43.5182027" lon="11.2657869"><ele>461.0</ele><time>2026-03-22T09:50:13.772Z</time></trkpt><trkpt lat="43.518244" lon="11.2658874"><ele>460.99999999999994</ele><time>2026-03-22T09:50:14.771Z</time></trkpt><trkpt lat="43.5182939" lon="11.2659965"><ele>461.0</ele><time>2026-03-22T09:50:15.771Z</time></trkpt><trkpt lat="43.5183477" lon="11.2661154"><ele>459.5</ele><time>2026-03-22T09:50:16.772Z</time></trkpt><trkpt lat="43.518407" lon="11.2662316"><ele>458.0</ele><time>2026-03-22T09:50:17.771Z</time></trkpt><trkpt lat="43.5184748" lon="11.2663709"><ele>456.5</ele><time>2026-03-22T09:50:18.771Z</time></trkpt><trkpt lat="43.5185384" lon="11.2665056"><ele>455.0</ele><time>2026-03-22T09:50:19.773Z</time></trkpt><trkpt lat="43.5185993" lon="11.2666404"><ele>454.5</ele><time>2026-03-22T09:50:20.772Z</time></trkpt><trkpt lat="43.5186638" lon="11.2667688"><ele>454.0</ele><time>2026-03-22T09:50:21.772Z</time></trkpt><trkpt lat="43.5187321" lon="11.266903"><ele>453.5</ele><time>2026-03-22T09:50:22.772Z</time></trkpt><trkpt lat="43.5187946" lon="11.2670402"><ele>453.0</ele><time>2026-03-22T09:50:23.772Z</time></trkpt><trkpt lat="43.5188548" lon="11.2671697"><ele>450.75</ele><time>2026-03-22T09:50:24.773Z</time></trkpt><trkpt lat="43.5189193" lon="11.2673023"><ele>448.5</ele><time>2026-03-22T09:50:25.772Z</time></trkpt><trkpt lat="43.5189816" lon="11.2674464"><ele>446.25</ele><time>2026-03-22T09:50:26.773Z</time></trkpt><trkpt lat="43.519042" lon="11.2675859"><ele>444.0</ele><time>2026-03-22T09:50:27.771Z</time></trkpt><trkpt lat="43.5191076" lon="11.267716"><ele>444.0</ele><time>2026-03-22T09:50:28.771Z</time></trkpt><trkpt lat="43.5191772" lon="11.267828"><ele>444.0</ele><time>2026-03-22T09:50:29.771Z</time></trkpt><trkpt lat="43.5192478" lon="11.2679161"><ele>444.0</ele><time>2026-03-22T09:50:30.772Z</time></trkpt><trkpt lat="43.5193318" lon="11.2679812"><ele>444.0</ele><time>2026-03-22T09:50:31.771Z</time></trkpt><trkpt lat="43.5194175" lon="11.2680067"><ele>444.0</ele><time>2026-03-22T09:50:32.773Z</time></trkpt><trkpt lat="43.5195083" lon="11.2680047"><ele>444.0</ele><time>2026-03-22T09:50:33.772Z</time></trkpt><trkpt lat="43.5196106" lon="11.2679911"><ele>444.0</ele><time>2026-03-22T09:50:34.772Z</time></trkpt><trkpt lat="43.519716" lon="11.2679767"><ele>444.0</ele><time>2026-03-22T09:50:35.772Z</time></trkpt><trkpt lat="43.5198256" lon="11.2679837"><ele>444.0</ele><time>2026-03-22T09:50:36.772Z</time></trkpt><trkpt lat="43.5199402" lon="11.2680075"><ele>444.0</ele><time>2026-03-22T09:50:37.771Z</time></trkpt><trkpt lat="43.5200549" lon="11.2680521"><ele>444.0</ele><time>2026-03-22T09:50:38.771Z</time></trkpt><trkpt lat="43.5201797" lon="11.268102"><ele>444.0</ele><time>2026-03-22T09:50:39.771Z</time></trkpt><trkpt lat="43.5203053" lon="11.2681562"><ele>444.0</ele><time>2026-03-22T09:50:40.773Z</time></trkpt><trkpt lat="43.5204392" lon="11.2682127"><ele>444.0</ele><time>2026-03-22T09:50:41.772Z</time></trkpt><trkpt lat="43.520574" lon="11.2682667"><ele>444.0</ele><time>2026-03-22T09:50:42.772Z</time></trkpt><trkpt lat="43.5207059" lon="11.2683252"><ele>444.0</ele><time>2026-03-22T09:50:43.772Z</time></trkpt><trkpt lat="43.5208137" lon="11.2683782"><ele>444.0</ele><time>2026-03-22T09:50:44.772Z</time></trkpt><trkpt lat="43.5209108" lon="11.2684321"><ele>444.0</ele><time>2026-03-22T09:50:45.772Z</time></trkpt><trkpt lat="43.5209987" lon="11.2684791"><ele>444.0</ele><time>2026-03-22T09:50:46.772Z</time></trkpt><trkpt lat="43.5210727" lon="11.2685074"><ele>444.0</ele><time>2026-03-22T09:50:47.771Z</time></trkpt><trkpt lat="43.5211379" lon="11.2685232"><ele>444.0</ele><time>2026-03-22T09:50:48.772Z</time></trkpt><trkpt lat="43.5212319" lon="11.2684881"><ele>444.0</ele><time>2026-03-22T09:50:50.772Z</time></trkpt><trkpt lat="43.5212884" lon="11.2683769"><ele>444.0</ele><time>2026-03-22T09:50:52.772Z</time></trkpt><trkpt lat="43.5213212" lon="11.2682989"><ele>444.0</ele><time>2026-03-22T09:50:53.773Z</time></trkpt><trkpt lat="43.5213649" lon="11.2682044"><ele>448.4</ele><time>2026-03-22T09:50:54.772Z</time></trkpt><trkpt lat="43.5214184" lon="11.268087"><ele>452.79999999999995</ele><time>2026-03-22T09:50:55.771Z</time></trkpt><trkpt lat="43.5214833" lon="11.2679443"><ele>457.20000000000005</ele><time>2026-03-22T09:50:56.771Z</time></trkpt><trkpt lat="43.5215373" lon="11.2678173"><ele>461.6</ele><time>2026-03-22T09:50:57.771Z</time></trkpt><trkpt lat="43.5215772" lon="11.2677269"><ele>466.0</ele><time>2026-03-22T09:50:58.771Z</time></trkpt><trkpt lat="43.521622" lon="11.2676528"><ele>466.00000000000006</ele><time>2026-03-22T09:50:59.772Z</time></trkpt><trkpt lat="43.5216739" lon="11.2675762"><ele>466.0</ele><time>2026-03-22T09:51:00.772Z</time></trkpt><trkpt lat="43.5217879" lon="11.2676049"><ele>466.0</ele><time>2026-03-22T09:51:02.772Z</time></trkpt><trkpt lat="43.5218553" lon="11.2676297"><ele>466.0</ele><time>2026-03-22T09:51:03.772Z</time></trkpt><trkpt lat="43.5219136" lon="11.2676786"><ele>466.00000000000006</ele><time>2026-03-22T09:51:04.772Z</time></trkpt><trkpt lat="43.5219677" lon="11.2677314"><ele>466.0</ele><time>2026-03-22T09:51:05.772Z</time></trkpt><trkpt lat="43.5220483" lon="11.2677777"><ele>465.0</ele><time>2026-03-22T09:51:06.772Z</time></trkpt><trkpt lat="43.5221338" lon="11.2678374"><ele>464.0</ele><time>2026-03-22T09:51:07.771Z</time></trkpt><trkpt lat="43.5222373" lon="11.2678787"><ele>463.0</ele><time>2026-03-22T09:51:08.772Z</time></trkpt><trkpt lat="43.522342" lon="11.2679418"><ele>462.0</ele><time>2026-03-22T09:51:09.771Z</time></trkpt><trkpt lat="43.5224505" lon="11.2680105"><ele>461.0</ele><time>2026-03-22T09:51:10.772Z</time></trkpt><trkpt lat="43.5225536" lon="11.2680851"><ele>461.6</ele><time>2026-03-22T09:51:11.772Z</time></trkpt><trkpt lat="43.5226536" lon="11.2681635"><ele>462.20000000000005</ele><time>2026-03-22T09:51:12.773Z</time></trkpt><trkpt lat="43.5227574" lon="11.2682444"><ele>462.79999999999995</ele><time>2026-03-22T09:51:13.773Z</time></trkpt><trkpt lat="43.5228658" lon="11.2683127"><ele>463.4</ele><time>2026-03-22T09:51:14.773Z</time></trkpt><trkpt lat="43.5229519" lon="11.2683556"><ele>464.0</ele><time>2026-03-22T09:51:15.772Z</time></trkpt><trkpt lat="43.5230197" lon="11.2683857"><ele>464.3333333333333</ele><time>2026-03-22T09:51:16.772Z</time></trkpt><trkpt lat="43.5231008" lon="11.2684237"><ele>464.66666666666663</ele><time>2026-03-22T09:51:18.772Z</time></trkpt><trkpt lat="43.5231699" lon="11.2684643"><ele>465.0</ele><time>2026-03-22T09:52:24.772Z</time></trkpt><trkpt lat="43.5232151" lon="11.2685598"><ele>465.33333333333337</ele><time>2026-03-22T09:52:26.772Z</time></trkpt><trkpt lat="43.5232677" lon="11.2687131"><ele>465.6666666666667</ele><time>2026-03-22T09:52:28.772Z</time></trkpt><trkpt lat="43.523305" lon="11.2687964"><ele>466.0</ele><time>2026-03-22T09:52:29.772Z</time></trkpt><trkpt lat="43.5233484" lon="11.2688615"><ele>466.00000000000006</ele><time>2026-03-22T09:52:30.771Z</time></trkpt><trkpt lat="43.5234007" lon="11.2689236"><ele>466.0</ele><time>2026-03-22T09:52:31.772Z</time></trkpt><trkpt lat="43.5234645" lon="11.2689989"><ele>466.0</ele><time>2026-03-22T09:52:32.773Z</time></trkpt><trkpt lat="43.5235301" lon="11.2690734"><ele>466.0</ele><time>2026-03-22T09:52:33.771Z</time></trkpt><trkpt lat="43.5235989" lon="11.2691364"><ele>466.00000000000006</ele><time>2026-03-22T09:52:34.771Z</time></trkpt><trkpt lat="43.5236667" lon="11.2691838"><ele>466.0</ele><time>2026-03-22T09:52:35.772Z</time></trkpt><trkpt lat="43.5237351" lon="11.2692433"><ele>466.8</ele><time>2026-03-22T09:52:36.771Z</time></trkpt><trkpt lat="43.5237982" lon="11.2693163"><ele>467.6</ele><time>2026-03-22T09:52:37.772Z</time></trkpt><trkpt lat="43.5238572" lon="11.2694048"><ele>468.4</ele><time>2026-03-22T09:52:38.773Z</time></trkpt><trkpt lat="43.5239206" lon="11.2695193"><ele>469.2</ele><time>2026-03-22T09:52:39.772Z</time></trkpt><trkpt lat="43.5239719" lon="11.2696365"><ele>470.0</ele><time>2026-03-22T09:52:40.772Z</time></trkpt><trkpt lat="43.5240129" lon="11.2697641"><ele>467.8</ele><time>2026-03-22T09:52:41.772Z</time></trkpt><trkpt lat="43.524046" lon="11.2698948"><ele>465.6</ele><time>2026-03-22T09:52:42.772Z</time></trkpt><trkpt lat="43.5240739" lon="11.270021"><ele>463.4</ele><time>2026-03-22T09:52:43.773Z</time></trkpt><trkpt lat="43.5240958" lon="11.2701451"><ele>461.2</ele><time>2026-03-22T09:52:44.771Z</time></trkpt><trkpt lat="43.5241186" lon="11.2702651"><ele>459.0</ele><time>2026-03-22T09:52:45.772Z</time></trkpt><trkpt lat="43.5241449" lon="11.2703809"><ele>459.0</ele><time>2026-03-22T09:52:46.771Z</time></trkpt><trkpt lat="43.5241828" lon="11.2704804"><ele>459.0</ele><time>2026-03-22T09:52:47.772Z</time></trkpt><trkpt lat="43.5242304" lon="11.270557"><ele>459.0</ele><time>2026-03-22T09:52:48.772Z</time></trkpt><trkpt lat="43.5242722" lon="11.2706295"><ele>459.0</ele><time>2026-03-22T09:52:49.772Z</time></trkpt><trkpt lat="43.5243179" lon="11.2706966"><ele>459.0</ele><time>2026-03-22T09:52:50.772Z</time></trkpt><trkpt lat="43.5243529" lon="11.2708333"><ele>459.0</ele><time>2026-03-22T09:52:52.772Z</time></trkpt><trkpt lat="43.5243106" lon="11.2710074"><ele>455.4</ele><time>2026-03-22T09:52:54.772Z</time></trkpt><trkpt lat="43.5242694" lon="11.2711189"><ele>451.79999999999995</ele><time>2026-03-22T09:52:55.771Z</time></trkpt><trkpt lat="43.5242276" lon="11.2712352"><ele>448.20000000000005</ele><time>2026-03-22T09:52:56.771Z</time></trkpt><trkpt lat="43.5241827" lon="11.2713548"><ele>444.6</ele><time>2026-03-22T09:52:57.772Z</time></trkpt><trkpt lat="43.5241394" lon="11.2714815"><ele>441.0</ele><time>2026-03-22T09:52:58.772Z</time></trkpt><trkpt lat="43.5240963" lon="11.2716097"><ele>438.4</ele><time>2026-03-22T09:52:59.772Z</time></trkpt><trkpt lat="43.5240528" lon="11.2717337"><ele>435.8</ele><time>2026-03-22T09:53:00.771Z</time></trkpt><trkpt lat="43.5240122" lon="11.2718522"><ele>433.19999999999993</ele><time>2026-03-22T09:53:01.772Z</time></trkpt><trkpt lat="43.5239716" lon="11.2719601"><ele>430.59999999999997</ele><time>2026-03-22T09:53:02.772Z</time></trkpt><trkpt lat="43.5239425" lon="11.272046"><ele>428.0</ele><time>2026-03-22T09:53:03.773Z</time></trkpt><trkpt lat="43.5238934" lon="11.2721824"><ele>426.0</ele><time>2026-03-22T09:53:05.772Z</time></trkpt><trkpt lat="43.5238825" lon="11.2723124"><ele>423.99999999999994</ele><time>2026-03-22T09:53:07.773Z</time></trkpt><trkpt lat="43.5239268" lon="11.2724254"><ele>422.0</ele><time>2026-03-22T09:53:09.772Z</time></trkpt><trkpt lat="43.524026" lon="11.2725382"><ele>420.0</ele><time>2026-03-22T09:53:11.771Z</time></trkpt><trkpt lat="43.5240941" lon="11.272616"><ele>418.0</ele><time>2026-03-22T09:53:12.773Z</time></trkpt><trkpt lat="43.5241659" lon="11.2727008"><ele>418.00000000000006</ele><time>2026-03-22T09:53:13.771Z</time></trkpt><trkpt lat="43.5242425" lon="11.2727834"><ele>418.0</ele><time>2026-03-22T09:53:14.772Z</time></trkpt><trkpt lat="43.5243169" lon="11.2728499"><ele>418.0</ele><time>2026-03-22T09:53:15.772Z</time></trkpt><trkpt lat="43.5243898" lon="11.2728936"><ele>418.0</ele><time>2026-03-22T09:53:16.772Z</time></trkpt><trkpt lat="43.5244715" lon="11.2729318"><ele>418.00000000000006</ele><time>2026-03-22T09:53:17.771Z</time></trkpt><trkpt lat="43.5245515" lon="11.2729547"><ele>418.0</ele><time>2026-03-22T09:53:18.772Z</time></trkpt><trkpt lat="43.5246437" lon="11.2729715"><ele>417.79999999999995</ele><time>2026-03-22T09:53:19.772Z</time></trkpt><trkpt lat="43.524731" lon="11.2729941"><ele>417.6</ele><time>2026-03-22T09:53:20.772Z</time></trkpt><trkpt lat="43.52482" lon="11.2730147"><ele>417.4</ele><time>2026-03-22T09:53:21.772Z</time></trkpt><trkpt lat="43.5249171" lon="11.2730372"><ele>417.20000000000005</ele><time>2026-03-22T09:53:22.772Z</time></trkpt><trkpt lat="43.5250161" lon="11.2730573"><ele>417.0</ele><time>2026-03-22T09:53:23.772Z</time></trkpt><trkpt lat="43.5251172" lon="11.2730769"><ele>417.0</ele><time>2026-03-22T09:53:24.772Z</time></trkpt><trkpt lat="43.5252119" lon="11.2730994"><ele>417.0</ele><time>2026-03-22T09:53:25.772Z</time></trkpt><trkpt lat="43.5253023" lon="11.2731118"><ele>417.0</ele><time>2026-03-22T09:53:26.772Z</time></trkpt><trkpt lat="43.5253826" lon="11.2731256"><ele>417.0</ele><time>2026-03-22T09:53:27.772Z</time></trkpt><trkpt lat="43.5254516" lon="11.2731573"><ele>417.0</ele><time>2026-03-22T09:53:28.771Z</time></trkpt><trkpt lat="43.5255114" lon="11.2732186"><ele>417.0</ele><time>2026-03-22T09:53:29.771Z</time></trkpt><trkpt lat="43.5255691" lon="11.273299"><ele>414.6666666666667</ele><time>2026-03-22T09:53:30.772Z</time></trkpt><trkpt lat="43.5256253" lon="11.2733886"><ele>412.33333333333337</ele><time>2026-03-22T09:53:31.772Z</time></trkpt><trkpt lat="43.5256812" lon="11.2734876"><ele>410.0</ele><time>2026-03-22T09:53:32.771Z</time></trkpt><trkpt lat="43.5257426" lon="11.2735835"><ele>407.6666666666667</ele><time>2026-03-22T09:53:33.773Z</time></trkpt><trkpt lat="43.5258035" lon="11.2736648"><ele>405.33333333333337</ele><time>2026-03-22T09:53:34.772Z</time></trkpt><trkpt lat="43.5258758" lon="11.2737308"><ele>403.0</ele><time>2026-03-22T09:53:35.772Z</time></trkpt><trkpt lat="43.5259529" lon="11.2737878"><ele>403.0</ele><time>2026-03-22T09:53:36.771Z</time></trkpt><trkpt lat="43.5260406" lon="11.2738374"><ele>403.0</ele><time>2026-03-22T09:53:37.772Z</time></trkpt><trkpt lat="43.5261393" lon="11.2738908"><ele>403.0</ele><time>2026-03-22T09:53:38.771Z</time></trkpt><trkpt lat="43.5262465" lon="11.2739614"><ele>403.0</ele><time>2026-03-22T09:53:39.771Z</time></trkpt><trkpt lat="43.5263528" lon="11.2740455"><ele>403.0</ele><time>2026-03-22T09:53:40.772Z</time></trkpt><trkpt lat="43.5264578" lon="11.2741412"><ele>401.25</ele><time>2026-03-22T09:53:41.771Z</time></trkpt><trkpt lat="43.5265648" lon="11.274239"><ele>399.5</ele><time>2026-03-22T09:53:42.773Z</time></trkpt><trkpt lat="43.526671" lon="11.2743294"><ele>397.75</ele><time>2026-03-22T09:53:43.772Z</time></trkpt><trkpt lat="43.5267723" lon="11.2744134"><ele>396.0</ele><time>2026-03-22T09:53:44.772Z</time></trkpt><trkpt lat="43.5268684" lon="11.2744877"><ele>396.0</ele><time>2026-03-22T09:53:45.771Z</time></trkpt><trkpt lat="43.5269653" lon="11.2745582"><ele>396.0</ele><time>2026-03-22T09:53:46.771Z</time></trkpt><trkpt lat="43.5270583" lon="11.2746212"><ele>396.0</ele><time>2026-03-22T09:53:47.771Z</time></trkpt><trkpt lat="43.5271377" lon="11.2746852"><ele>396.0</ele><time>2026-03-22T09:53:48.771Z</time></trkpt><trkpt lat="43.5272019" lon="11.2747616"><ele>396.0</ele><time>2026-03-22T09:53:49.771Z</time></trkpt><trkpt lat="43.5272597" lon="11.2748549"><ele>394.8</ele><time>2026-03-22T09:53:50.772Z</time></trkpt><trkpt lat="43.5272982" lon="11.2749718"><ele>393.6</ele><time>2026-03-22T09:53:51.771Z</time></trkpt><trkpt lat="43.5273243" lon="11.2751102"><ele>392.4</ele><time>2026-03-22T09:53:52.771Z</time></trkpt><trkpt lat="43.5273437" lon="11.2752555"><ele>391.2</ele><time>2026-03-22T09:53:53.771Z</time></trkpt><trkpt lat="43.5273518" lon="11.2753927"><ele>390.0</ele><time>2026-03-22T09:53:54.772Z</time></trkpt><trkpt lat="43.5273356" lon="11.2755098"><ele>389.3333333333333</ele><time>2026-03-22T09:53:55.772Z</time></trkpt><trkpt lat="43.5272948" lon="11.2756119"><ele>388.66666666666663</ele><time>2026-03-22T09:53:56.771Z</time></trkpt><trkpt lat="43.5272404" lon="11.2756995"><ele>388.0</ele><time>2026-03-22T09:53:57.772Z</time></trkpt><trkpt lat="43.5271939" lon="11.2757742"><ele>387.3333333333333</ele><time>2026-03-22T09:53:58.772Z</time></trkpt><trkpt lat="43.5271914" lon="11.2759258"><ele>386.66666666666663</ele><time>2026-03-22T09:54:00.772Z</time></trkpt><trkpt lat="43.527242" lon="11.2760143"><ele>386.0</ele><time>2026-03-22T09:54:02.772Z</time></trkpt><trkpt lat="43.5273189" lon="11.2761433"><ele>385.99999999999994</ele><time>2026-03-22T09:54:04.771Z</time></trkpt><trkpt lat="43.5273644" lon="11.2762401"><ele>386.0</ele><time>2026-03-22T09:54:05.772Z</time></trkpt><trkpt lat="43.5274129" lon="11.2763218"><ele>386.0</ele><time>2026-03-22T09:54:06.771Z</time></trkpt><trkpt lat="43.5274451" lon="11.2764143"><ele>386.0</ele><time>2026-03-22T09:54:07.771Z</time></trkpt><trkpt lat="43.5274678" lon="11.2765242"><ele>385.99999999999994</ele><time>2026-03-22T09:54:08.771Z</time></trkpt><trkpt lat="43.5274745" lon="11.276639"><ele>386.0</ele><time>2026-03-22T09:54:09.771Z</time></trkpt><trkpt lat="43.5274777" lon="11.2767603"><ele>384.8</ele><time>2026-03-22T09:54:10.771Z</time></trkpt><trkpt lat="43.5274837" lon="11.2768984"><ele>383.6</ele><time>2026-03-22T09:54:11.772Z</time></trkpt><trkpt lat="43.5274878" lon="11.2770496"><ele>382.4</ele><time>2026-03-22T09:54:12.772Z</time></trkpt><trkpt lat="43.5275" lon="11.2772073"><ele>381.2</ele><time>2026-03-22T09:54:13.772Z</time></trkpt><trkpt lat="43.5275198" lon="11.2773615"><ele>380.0</ele><time>2026-03-22T09:54:14.771Z</time></trkpt><trkpt lat="43.5275488" lon="11.2775142"><ele>378.8</ele><time>2026-03-22T09:54:15.771Z</time></trkpt><trkpt lat="43.5275805" lon="11.2776683"><ele>377.6</ele><time>2026-03-22T09:54:16.772Z</time></trkpt><trkpt lat="43.5276057" lon="11.2778116"><ele>376.4</ele><time>2026-03-22T09:54:17.771Z</time></trkpt><trkpt lat="43.5276259" lon="11.2779494"><ele>375.2</ele><time>2026-03-22T09:54:18.772Z</time></trkpt><trkpt lat="43.5276414" lon="11.2780722"><ele>374.0</ele><time>2026-03-22T09:54:19.772Z</time></trkpt><trkpt lat="43.5276527" lon="11.2781949"><ele>373.6666666666667</ele><time>2026-03-22T09:54:20.772Z</time></trkpt><trkpt lat="43.5276717" lon="11.2783229"><ele>373.33333333333337</ele><time>2026-03-22T09:54:21.771Z</time></trkpt><trkpt lat="43.5277002" lon="11.2784417"><ele>373.0</ele><time>2026-03-22T09:54:22.771Z</time></trkpt><trkpt lat="43.5277337" lon="11.2785576"><ele>372.6666666666667</ele><time>2026-03-22T09:54:23.772Z</time></trkpt><trkpt lat="43.5277748" lon="11.2786638"><ele>372.3333333333333</ele><time>2026-03-22T09:54:24.772Z</time></trkpt><trkpt lat="43.5278252" lon="11.2787561"><ele>372.0</ele><time>2026-03-22T09:54:25.773Z</time></trkpt><trkpt lat="43.5278847" lon="11.2788382"><ele>371.40000000000003</ele><time>2026-03-22T09:54:26.773Z</time></trkpt><trkpt lat="43.5279592" lon="11.2789259"><ele>370.8</ele><time>2026-03-22T09:54:27.771Z</time></trkpt><trkpt lat="43.5280393" lon="11.2790069"><ele>370.2</ele><time>2026-03-22T09:54:28.771Z</time></trkpt><trkpt lat="43.5281195" lon="11.2790843"><ele>369.6</ele><time>2026-03-22T09:54:29.773Z</time></trkpt><trkpt lat="43.5281991" lon="11.2791539"><ele>369.0</ele><time>2026-03-22T09:54:30.772Z</time></trkpt><trkpt lat="43.5282743" lon="11.2792223"><ele>368.8333333333333</ele><time>2026-03-22T09:54:31.771Z</time></trkpt><trkpt lat="43.5283479" lon="11.2792881"><ele>368.6666666666667</ele><time>2026-03-22T09:54:32.771Z</time></trkpt><trkpt lat="43.5284171" lon="11.2793572"><ele>368.5</ele><time>2026-03-22T09:54:33.771Z</time></trkpt><trkpt lat="43.5284822" lon="11.2794335"><ele>368.33333333333337</ele><time>2026-03-22T09:54:34.772Z</time></trkpt><trkpt lat="43.528543" lon="11.2795278"><ele>368.1666666666667</ele><time>2026-03-22T09:54:35.771Z</time></trkpt><trkpt lat="43.5285963" lon="11.2796412"><ele>368.0</ele><time>2026-03-22T09:54:36.772Z</time></trkpt><trkpt lat="43.5286491" lon="11.2797648"><ele>367.79999999999995</ele><time>2026-03-22T09:54:37.773Z</time></trkpt><trkpt lat="43.528697" lon="11.2798954"><ele>367.6</ele><time>2026-03-22T09:54:38.771Z</time></trkpt><trkpt lat="43.5287377" lon="11.280025"><ele>367.4</ele><time>2026-03-22T09:54:39.771Z</time></trkpt><trkpt lat="43.5287626" lon="11.280155"><ele>367.20000000000005</ele><time>2026-03-22T09:54:40.772Z</time></trkpt><trkpt lat="43.5287905" lon="11.2802778"><ele>367.0</ele><time>2026-03-22T09:54:41.773Z</time></trkpt><trkpt lat="43.5287797" lon="11.2804075"><ele>365.8</ele><time>2026-03-22T09:54:42.771Z</time></trkpt><trkpt lat="43.528776" lon="11.2805375"><ele>364.6</ele><time>2026-03-22T09:54:43.771Z</time></trkpt><trkpt lat="43.5287754" lon="11.2806747"><ele>363.40000000000003</ele><time>2026-03-22T09:54:44.772Z</time></trkpt><trkpt lat="43.5287751" lon="11.2807986"><ele>362.20000000000005</ele><time>2026-03-22T09:54:45.773Z</time></trkpt><trkpt lat="43.5288045" lon="11.2809297"><ele>361.0</ele><time>2026-03-22T09:54:46.771Z</time></trkpt><trkpt lat="43.5288208" lon="11.2810596"><ele>359.0</ele><time>2026-03-22T09:54:47.771Z</time></trkpt><trkpt lat="43.5288426" lon="11.2811879"><ele>357.0</ele><time>2026-03-22T09:54:48.771Z</time></trkpt><trkpt lat="43.5288641" lon="11.281316"><ele>355.0</ele><time>2026-03-22T09:54:49.772Z</time></trkpt><trkpt lat="43.5288873" lon="11.2814436"><ele>353.0</ele><time>2026-03-22T09:54:50.771Z</time></trkpt><trkpt lat="43.5288982" lon="11.2815682"><ele>351.0</ele><time>2026-03-22T09:54:51.772Z</time></trkpt><trkpt lat="43.5289236" lon="11.2816525"><ele>349.0</ele><time>2026-03-22T09:54:52.772Z</time></trkpt><trkpt lat="43.5289505" lon="11.2817349"><ele>347.8333333333333</ele><time>2026-03-22T09:54:53.771Z</time></trkpt><trkpt lat="43.5289849" lon="11.2818375"><ele>346.66666666666663</ele><time>2026-03-22T09:54:55.773Z</time></trkpt><trkpt lat="43.5290124" lon="11.281935"><ele>345.5</ele><time>2026-03-22T09:54:58.772Z</time></trkpt><trkpt lat="43.529073" lon="11.2818632"><ele>344.3333333333333</ele><time>2026-03-22T09:55:44.771Z</time></trkpt><trkpt lat="43.529046" lon="11.2817528"><ele>343.1666666666667</ele><time>2026-03-22T09:55:45.772Z</time></trkpt><trkpt lat="43.5290461" lon="11.2816427"><ele>342.0</ele><time>2026-03-22T09:55:46.772Z</time></trkpt><trkpt lat="43.5290688" lon="11.281528"><ele>343.40000000000003</ele><time>2026-03-22T09:55:47.772Z</time></trkpt><trkpt lat="43.5291194" lon="11.2814248"><ele>344.8</ele><time>2026-03-22T09:55:48.771Z</time></trkpt><trkpt lat="43.5292037" lon="11.2813332"><ele>346.2</ele><time>2026-03-22T09:55:49.772Z</time></trkpt><trkpt lat="43.5293021" lon="11.2812663"><ele>347.6</ele><time>2026-03-22T09:55:50.771Z</time></trkpt><trkpt lat="43.5294181" lon="11.2812226"><ele>349.0</ele><time>2026-03-22T09:55:51.772Z</time></trkpt><trkpt lat="43.5295406" lon="11.2811842"><ele>349.0</ele><time>2026-03-22T09:55:52.773Z</time></trkpt><trkpt lat="43.529697" lon="11.2811402"><ele>349.0</ele><time>2026-03-22T09:55:53.772Z</time></trkpt><trkpt lat="43.5298811" lon="11.2810867"><ele>349.0</ele><time>2026-03-22T09:55:54.771Z</time></trkpt><trkpt lat="43.5300465" lon="11.2810398"><ele>349.0</ele><time>2026-03-22T09:55:55.771Z</time></trkpt><trkpt lat="43.530196" lon="11.2810044"><ele>349.0</ele><time>2026-03-22T09:55:56.773Z</time></trkpt><trkpt lat="43.5303204" lon="11.2809546"><ele>349.0</ele><time>2026-03-22T09:55:57.772Z</time></trkpt><trkpt lat="43.5304238" lon="11.2808982"><ele>349.0</ele><time>2026-03-22T09:55:58.771Z</time></trkpt><trkpt lat="43.530522" lon="11.2808348"><ele>349.79999999999995</ele><time>2026-03-22T09:55:59.771Z</time></trkpt><trkpt lat="43.5306229" lon="11.2807695"><ele>350.59999999999997</ele><time>2026-03-22T09:56:00.772Z</time></trkpt><trkpt lat="43.5307222" lon="11.2807082"><ele>351.4</ele><time>2026-03-22T09:56:01.772Z</time></trkpt><trkpt lat="43.5308273" lon="11.2806822"><ele>352.2</ele><time>2026-03-22T09:56:02.771Z</time></trkpt><trkpt lat="43.5309434" lon="11.2806797"><ele>353.0</ele><time>2026-03-22T09:56:03.772Z</time></trkpt><trkpt lat="43.53105" lon="11.2807191"><ele>353.0</ele><time>2026-03-22T09:56:04.771Z</time></trkpt><trkpt lat="43.5311488" lon="11.2807769"><ele>353.0</ele><time>2026-03-22T09:56:05.771Z</time></trkpt><trkpt lat="43.5312505" lon="11.2808314"><ele>353.0</ele><time>2026-03-22T09:56:06.771Z</time></trkpt><trkpt lat="43.5313533" lon="11.2808765"><ele>353.0</ele><time>2026-03-22T09:56:07.772Z</time></trkpt><trkpt lat="43.5314553" lon="11.2809099"><ele>353.0</ele><time>2026-03-22T09:56:08.771Z</time></trkpt><trkpt lat="43.5315572" lon="11.2809151"><ele>354.59999999999997</ele><time>2026-03-22T09:56:09.772Z</time></trkpt><trkpt lat="43.5316601" lon="11.2809066"><ele>356.2</ele><time>2026-03-22T09:56:10.772Z</time></trkpt><trkpt lat="43.5317583" lon="11.2808809"><ele>357.8</ele><time>2026-03-22T09:56:11.772Z</time></trkpt><trkpt lat="43.531854" lon="11.2808529"><ele>359.4</ele><time>2026-03-22T09:56:12.772Z</time></trkpt><trkpt lat="43.5319363" lon="11.2808272"><ele>361.0</ele><time>2026-03-22T09:56:13.771Z</time></trkpt><trkpt lat="43.532012" lon="11.2808029"><ele>360.3333333333333</ele><time>2026-03-22T09:56:14.771Z</time></trkpt><trkpt lat="43.5320786" lon="11.2807778"><ele>359.66666666666663</ele><time>2026-03-22T09:56:15.771Z</time></trkpt><trkpt lat="43.5321491" lon="11.2807361"><ele>359.0</ele><time>2026-03-22T09:56:16.771Z</time></trkpt><trkpt lat="43.5322168" lon="11.2806861"><ele>358.3333333333333</ele><time>2026-03-22T09:56:17.772Z</time></trkpt><trkpt lat="43.5322601" lon="11.2806188"><ele>357.6666666666667</ele><time>2026-03-22T09:56:18.771Z</time></trkpt><trkpt lat="43.5323204" lon="11.2804505"><ele>357.0</ele><time>2026-03-22T09:56:20.772Z</time></trkpt><trkpt lat="43.5323475" lon="11.2803324"><ele>358.6</ele><time>2026-03-22T09:56:21.772Z</time></trkpt><trkpt lat="43.5323794" lon="11.2801976"><ele>360.20000000000005</ele><time>2026-03-22T09:56:22.771Z</time></trkpt><trkpt lat="43.5324225" lon="11.2800649"><ele>361.8</ele><time>2026-03-22T09:56:23.771Z</time></trkpt><trkpt lat="43.5324823" lon="11.2799522"><ele>363.4</ele><time>2026-03-22T09:56:24.771Z</time></trkpt><trkpt lat="43.5325653" lon="11.2798575"><ele>365.0</ele><time>2026-03-22T09:56:25.771Z</time></trkpt><trkpt lat="43.5326655" lon="11.2797944"><ele>365.0</ele><time>2026-03-22T09:56:26.772Z</time></trkpt><trkpt lat="43.532779" lon="11.2797703"><ele>365.0</ele><time>2026-03-22T09:56:27.772Z</time></trkpt><trkpt lat="43.5328896" lon="11.2797486"><ele>365.0</ele><time>2026-03-22T09:56:28.771Z</time></trkpt><trkpt lat="43.5329798" lon="11.2797164"><ele>365.0</ele><time>2026-03-22T09:56:29.771Z</time></trkpt><trkpt lat="43.5330549" lon="11.2796753"><ele>365.0</ele><time>2026-03-22T09:56:30.771Z</time></trkpt><trkpt lat="43.5331136" lon="11.2796175"><ele>365.0</ele><time>2026-03-22T09:56:31.772Z</time></trkpt><trkpt lat="43.5331647" lon="11.2795385"><ele>365.0</ele><time>2026-03-22T09:56:32.772Z</time></trkpt><trkpt lat="43.5331905" lon="11.2794334"><ele>365.0</ele><time>2026-03-22T09:56:33.773Z</time></trkpt><trkpt lat="43.5332017" lon="11.2793115"><ele>365.0</ele><time>2026-03-22T09:56:34.772Z</time></trkpt><trkpt lat="43.5331853" lon="11.2791909"><ele>365.0</ele><time>2026-03-22T09:56:35.772Z</time></trkpt><trkpt lat="43.5331514" lon="11.2790536"><ele>365.0</ele><time>2026-03-22T09:56:36.771Z</time></trkpt><trkpt lat="43.5331187" lon="11.2789169"><ele>365.0</ele><time>2026-03-22T09:56:37.771Z</time></trkpt><trkpt lat="43.5330861" lon="11.2787964"><ele>365.0</ele><time>2026-03-22T09:56:38.773Z</time></trkpt><trkpt lat="43.5330548" lon="11.2786799"><ele>365.0</ele><time>2026-03-22T09:56:39.771Z</time></trkpt><trkpt lat="43.5330377" lon="11.2785464"><ele>365.0</ele><time>2026-03-22T09:56:40.771Z</time></trkpt><trkpt lat="43.533037" lon="11.2784224"><ele>365.0</ele><time>2026-03-22T09:56:41.772Z</time></trkpt><trkpt lat="43.5330545" lon="11.2783164"><ele>365.0</ele><time>2026-03-22T09:56:42.773Z</time></trkpt><trkpt lat="43.5330983" lon="11.2782107"><ele>365.0</ele><time>2026-03-22T09:56:43.772Z</time></trkpt><trkpt lat="43.5331614" lon="11.278125"><ele>365.0</ele><time>2026-03-22T09:56:44.772Z</time></trkpt><trkpt lat="43.533246" lon="11.2780468"><ele>365.0</ele><time>2026-03-22T09:56:45.772Z</time></trkpt><trkpt lat="43.5333438" lon="11.2779956"><ele>365.0</ele><time>2026-03-22T09:56:46.773Z</time></trkpt><trkpt lat="43.5334406" lon="11.277955"><ele>364.2</ele><time>2026-03-22T09:56:47.771Z</time></trkpt><trkpt lat="43.5335309" lon="11.277912"><ele>363.4</ele><time>2026-03-22T09:56:48.773Z</time></trkpt><trkpt lat="43.5336128" lon="11.2778591"><ele>362.6</ele><time>2026-03-22T09:56:49.771Z</time></trkpt><trkpt lat="43.5336762" lon="11.2777899"><ele>361.8</ele><time>2026-03-22T09:56:50.772Z</time></trkpt><trkpt lat="43.533733" lon="11.2776934"><ele>361.0</ele><time>2026-03-22T09:56:51.771Z</time></trkpt><trkpt lat="43.5337798" lon="11.2775737"><ele>361.0</ele><time>2026-03-22T09:56:52.771Z</time></trkpt><trkpt lat="43.5338148" lon="11.2774451"><ele>361.0</ele><time>2026-03-22T09:56:53.773Z</time></trkpt><trkpt lat="43.533842" lon="11.2773121"><ele>361.0</ele><time>2026-03-22T09:56:54.772Z</time></trkpt><trkpt lat="43.5338719" lon="11.2771821"><ele>361.0</ele><time>2026-03-22T09:56:55.772Z</time></trkpt><trkpt lat="43.5339092" lon="11.2770513"><ele>361.0</ele><time>2026-03-22T09:56:56.772Z</time></trkpt><trkpt lat="43.5339589" lon="11.2769316"><ele>362.8</ele><time>2026-03-22T09:56:57.772Z</time></trkpt><trkpt lat="43.5340185" lon="11.2768215"><ele>364.6</ele><time>2026-03-22T09:56:58.773Z</time></trkpt><trkpt lat="43.5340883" lon="11.2767162"><ele>366.4</ele><time>2026-03-22T09:56:59.771Z</time></trkpt><trkpt lat="43.5341587" lon="11.2766124"><ele>368.2</ele><time>2026-03-22T09:57:00.771Z</time></trkpt><trkpt lat="43.5342341" lon="11.2765106"><ele>370.0</ele><time>2026-03-22T09:57:01.771Z</time></trkpt><trkpt lat="43.5343127" lon="11.2764091"><ele>369.4</ele><time>2026-03-22T09:57:02.771Z</time></trkpt><trkpt lat="43.5343896" lon="11.2763057"><ele>368.8</ele><time>2026-03-22T09:57:03.772Z</time></trkpt><trkpt lat="43.5344632" lon="11.2761931"><ele>368.20000000000005</ele><time>2026-03-22T09:57:04.771Z</time></trkpt><trkpt lat="43.5345341" lon="11.2760752"><ele>367.6</ele><time>2026-03-22T09:57:05.772Z</time></trkpt><trkpt lat="43.5346078" lon="11.2759531"><ele>367.0</ele><time>2026-03-22T09:57:06.771Z</time></trkpt><trkpt lat="43.5346781" lon="11.2758289"><ele>367.0</ele><time>2026-03-22T09:57:07.772Z</time></trkpt><trkpt lat="43.5347494" lon="11.2757083"><ele>367.0</ele><time>2026-03-22T09:57:08.772Z</time></trkpt><trkpt lat="43.534816" lon="11.275588"><ele>367.0</ele><time>2026-03-22T09:57:09.771Z</time></trkpt><trkpt lat="43.5348787" lon="11.2754645"><ele>367.0</ele><time>2026-03-22T09:57:10.771Z</time></trkpt><trkpt lat="43.5349301" lon="11.2753402"><ele>367.0</ele><time>2026-03-22T09:57:11.772Z</time></trkpt><trkpt lat="43.5349721" lon="11.2752141"><ele>368.8</ele><time>2026-03-22T09:57:12.772Z</time></trkpt><trkpt lat="43.5350039" lon="11.2750864"><ele>370.6</ele><time>2026-03-22T09:57:13.771Z</time></trkpt><trkpt lat="43.5350278" lon="11.2749582"><ele>372.40000000000003</ele><time>2026-03-22T09:57:14.771Z</time></trkpt><trkpt lat="43.5350471" lon="11.274823"><ele>374.20000000000005</ele><time>2026-03-22T09:57:15.771Z</time></trkpt><trkpt lat="43.5350578" lon="11.274689"><ele>376.0</ele><time>2026-03-22T09:57:16.772Z</time></trkpt><trkpt lat="43.535061" lon="11.2745634"><ele>376.6</ele><time>2026-03-22T09:57:17.771Z</time></trkpt><trkpt lat="43.5350454" lon="11.2744253"><ele>377.20000000000005</ele><time>2026-03-22T09:57:18.772Z</time></trkpt><trkpt lat="43.5350358" lon="11.2742893"><ele>377.79999999999995</ele><time>2026-03-22T09:57:19.772Z</time></trkpt><trkpt lat="43.5350302" lon="11.274155"><ele>378.4</ele><time>2026-03-22T09:57:20.771Z</time></trkpt><trkpt lat="43.5350513" lon="11.2740226"><ele>379.0</ele><time>2026-03-22T09:57:21.772Z</time></trkpt><trkpt lat="43.5350878" lon="11.2739041"><ele>380.3333333333333</ele><time>2026-03-22T09:57:22.771Z</time></trkpt><trkpt lat="43.5351368" lon="11.2737874"><ele>381.66666666666663</ele><time>2026-03-22T09:57:23.772Z</time></trkpt><trkpt lat="43.5351793" lon="11.2736804"><ele>383.0</ele><time>2026-03-22T09:57:24.772Z</time></trkpt><trkpt lat="43.5352082" lon="11.273578"><ele>384.3333333333333</ele><time>2026-03-22T09:57:25.771Z</time></trkpt><trkpt lat="43.535229" lon="11.273483"><ele>385.6666666666667</ele><time>2026-03-22T09:57:26.772Z</time></trkpt><trkpt lat="43.5352445" lon="11.2733347"><ele>387.0</ele><time>2026-03-22T09:57:28.772Z</time></trkpt><trkpt lat="43.5352382" lon="11.2731948"><ele>387.8</ele><time>2026-03-22T09:57:30.772Z</time></trkpt><trkpt lat="43.5352184" lon="11.273057"><ele>388.6</ele><time>2026-03-22T09:57:32.771Z</time></trkpt><trkpt lat="43.5351946" lon="11.2729075"><ele>389.40000000000003</ele><time>2026-03-22T09:57:34.771Z</time></trkpt><trkpt lat="43.5351654" lon="11.2727386"><ele>390.20000000000005</ele><time>2026-03-22T09:57:36.771Z</time></trkpt><trkpt lat="43.5351559" lon="11.2726491"><ele>391.0</ele><time>2026-03-22T09:57:37.772Z</time></trkpt><trkpt lat="43.5351491" lon="11.2725518"><ele>391.00000000000006</ele><time>2026-03-22T09:57:38.772Z</time></trkpt><trkpt lat="43.5351521" lon="11.2724541"><ele>391.0</ele><time>2026-03-22T09:57:39.771Z</time></trkpt><trkpt lat="43.5351605" lon="11.2723603"><ele>391.0</ele><time>2026-03-22T09:57:40.771Z</time></trkpt><trkpt lat="43.5351784" lon="11.272211"><ele>391.0</ele><time>2026-03-22T09:57:42.771Z</time></trkpt><trkpt lat="43.5351952" lon="11.2720684"><ele>391.00000000000006</ele><time>2026-03-22T09:57:44.772Z</time></trkpt><trkpt lat="43.5351864" lon="11.2719537"><ele>391.0</ele><time>2026-03-22T09:57:46.771Z</time></trkpt><trkpt lat="43.5351946" lon="11.2718473"><ele>390.1666666666667</ele><time>2026-03-22T09:57:48.771Z</time></trkpt><trkpt lat="43.535253" lon="11.2717464"><ele>389.33333333333337</ele><time>2026-03-22T09:57:50.772Z</time></trkpt><trkpt lat="43.5353044" lon="11.2716872"><ele>388.5</ele><time>2026-03-22T09:57:51.772Z</time></trkpt><trkpt lat="43.5353538" lon="11.2716157"><ele>387.66666666666663</ele><time>2026-03-22T09:57:52.772Z</time></trkpt><trkpt lat="43.5354027" lon="11.2715396"><ele>386.8333333333333</ele><time>2026-03-22T09:57:53.772Z</time></trkpt><trkpt lat="43.535454" lon="11.2714617"><ele>386.0</ele><time>2026-03-22T09:57:54.771Z</time></trkpt><trkpt lat="43.5355067" lon="11.2713806"><ele>382.8</ele><time>2026-03-22T09:57:55.771Z</time></trkpt><trkpt lat="43.5355651" lon="11.2712935"><ele>379.6</ele><time>2026-03-22T09:57:56.772Z</time></trkpt><trkpt lat="43.5356231" lon="11.2712"><ele>376.4</ele><time>2026-03-22T09:57:57.771Z</time></trkpt><trkpt lat="43.5356856" lon="11.2711027"><ele>373.2</ele><time>2026-03-22T09:57:58.773Z</time></trkpt><trkpt lat="43.5357489" lon="11.2710011"><ele>370.0</ele><time>2026-03-22T09:57:59.773Z</time></trkpt><trkpt lat="43.5358127" lon="11.2708983"><ele>370.0</ele><time>2026-03-22T09:58:00.771Z</time></trkpt><trkpt lat="43.5358757" lon="11.2707948"><ele>370.0</ele><time>2026-03-22T09:58:01.772Z</time></trkpt><trkpt lat="43.5359394" lon="11.270694"><ele>370.0</ele><time>2026-03-22T09:58:02.772Z</time></trkpt><trkpt lat="43.5360018" lon="11.2705936"><ele>370.0</ele><time>2026-03-22T09:58:03.772Z</time></trkpt><trkpt lat="43.5360642" lon="11.2704904"><ele>370.0</ele><time>2026-03-22T09:58:04.772Z</time></trkpt><trkpt lat="43.5361225" lon="11.2703946"><ele>368.3333333333333</ele><time>2026-03-22T09:58:05.773Z</time></trkpt><trkpt lat="43.5361824" lon="11.2703009"><ele>366.66666666666663</ele><time>2026-03-22T09:58:06.771Z</time></trkpt><trkpt lat="43.5362363" lon="11.2702093"><ele>365.0</ele><time>2026-03-22T09:58:07.771Z</time></trkpt><trkpt lat="43.5362938" lon="11.2701185"><ele>363.3333333333333</ele><time>2026-03-22T09:58:08.772Z</time></trkpt><trkpt lat="43.5363461" lon="11.2700223"><ele>361.6666666666667</ele><time>2026-03-22T09:58:09.772Z</time></trkpt><trkpt lat="43.5363998" lon="11.2699408"><ele>360.0</ele><time>2026-03-22T09:58:10.771Z</time></trkpt><trkpt lat="43.5364402" lon="11.2698675"><ele>357.0</ele><time>2026-03-22T09:58:11.771Z</time></trkpt><trkpt lat="43.5365334" lon="11.2697566"><ele>354.0</ele><time>2026-03-22T09:58:13.771Z</time></trkpt><trkpt lat="43.5365889" lon="11.2697123"><ele>351.0</ele><time>2026-03-22T09:58:14.771Z</time></trkpt><trkpt lat="43.5366647" lon="11.2696776"><ele>348.0</ele><time>2026-03-22T09:58:15.772Z</time></trkpt><trkpt lat="43.5367349" lon="11.2696903"><ele>345.0</ele><time>2026-03-22T09:58:16.772Z</time></trkpt><trkpt lat="43.5368238" lon="11.2696795"><ele>342.0</ele><time>2026-03-22T09:58:17.771Z</time></trkpt><trkpt lat="43.5369023" lon="11.2696639"><ele>341.99999999999994</ele><time>2026-03-22T09:58:18.772Z</time></trkpt><trkpt lat="43.536978" lon="11.2696476"><ele>342.0</ele><time>2026-03-22T09:58:19.772Z</time></trkpt><trkpt lat="43.5370575" lon="11.2696388"><ele>342.0</ele><time>2026-03-22T09:58:20.771Z</time></trkpt><trkpt lat="43.5371275" lon="11.2696206"><ele>342.0</ele><time>2026-03-22T09:58:21.771Z</time></trkpt><trkpt lat="43.5372054" lon="11.2696034"><ele>342.0</ele><time>2026-03-22T09:58:22.771Z</time></trkpt><trkpt lat="43.5372763" lon="11.2695858"><ele>341.99999999999994</ele><time>2026-03-22T09:58:23.771Z</time></trkpt><trkpt lat="43.5373459" lon="11.2695697"><ele>342.0</ele><time>2026-03-22T09:58:24.771Z</time></trkpt><trkpt lat="43.5374185" lon="11.269562"><ele>340.8333333333333</ele><time>2026-03-22T09:58:25.771Z</time></trkpt><trkpt lat="43.537487" lon="11.2695418"><ele>339.6666666666667</ele><time>2026-03-22T09:58:26.772Z</time></trkpt><trkpt lat="43.5375735" lon="11.2695221"><ele>338.5</ele><time>2026-03-22T09:58:27.773Z</time></trkpt><trkpt lat="43.53765" lon="11.2695065"><ele>337.33333333333337</ele><time>2026-03-22T09:58:28.772Z</time></trkpt><trkpt lat="43.5377817" lon="11.2694759"><ele>336.1666666666667</ele><time>2026-03-22T09:58:30.772Z</time></trkpt><trkpt lat="43.537848" lon="11.2694586"><ele>335.0</ele><time>2026-03-22T09:58:31.771Z</time></trkpt><trkpt lat="43.5379788" lon="11.2694348"><ele>332.6666666666667</ele><time>2026-03-22T09:58:33.772Z</time></trkpt><trkpt lat="43.5380505" lon="11.2694161"><ele>330.33333333333337</ele><time>2026-03-22T09:58:34.771Z</time></trkpt><trkpt lat="43.5381291" lon="11.2693998"><ele>328.0</ele><time>2026-03-22T09:58:35.771Z</time></trkpt><trkpt lat="43.5382168" lon="11.2693821"><ele>325.6666666666667</ele><time>2026-03-22T09:58:36.772Z</time></trkpt><trkpt lat="43.5383079" lon="11.2693641"><ele>323.3333333333333</ele><time>2026-03-22T09:58:37.773Z</time></trkpt><trkpt lat="43.5384038" lon="11.2693411"><ele>321.0</ele><time>2026-03-22T09:58:38.771Z</time></trkpt><trkpt lat="43.5384966" lon="11.2693182"><ele>321.0</ele><time>2026-03-22T09:58:39.772Z</time></trkpt><trkpt lat="43.538586" lon="11.2692953"><ele>321.0</ele><time>2026-03-22T09:58:40.771Z</time></trkpt><trkpt lat="43.5386703" lon="11.2692732"><ele>321.0</ele><time>2026-03-22T09:58:41.771Z</time></trkpt><trkpt lat="43.5387554" lon="11.2692476"><ele>321.0</ele><time>2026-03-22T09:58:42.772Z</time></trkpt><trkpt lat="43.5388358" lon="11.2692256"><ele>321.0</ele><time>2026-03-22T09:58:43.772Z</time></trkpt><trkpt lat="43.5389155" lon="11.2692027"><ele>321.0</ele><time>2026-03-22T09:58:44.772Z</time></trkpt><trkpt lat="43.5389946" lon="11.2691819"><ele>319.2857142857143</ele><time>2026-03-22T09:58:45.772Z</time></trkpt><trkpt lat="43.5390692" lon="11.2691648"><ele>317.57142857142856</ele><time>2026-03-22T09:58:46.771Z</time></trkpt><trkpt lat="43.5391389" lon="11.2691498"><ele>315.8571428571429</ele><time>2026-03-22T09:58:47.772Z</time></trkpt><trkpt lat="43.5392096" lon="11.2691353"><ele>314.1428571428571</ele><time>2026-03-22T09:58:48.772Z</time></trkpt><trkpt lat="43.5392815" lon="11.2691279"><ele>312.42857142857144</ele><time>2026-03-22T09:58:49.772Z</time></trkpt><trkpt lat="43.5393479" lon="11.2691221"><ele>310.7142857142857</ele><time>2026-03-22T09:58:50.771Z</time></trkpt><trkpt lat="43.5394138" lon="11.2691083"><ele>309.0</ele><time>2026-03-22T09:58:51.77Z</time></trkpt><trkpt lat="43.5394874" lon="11.2690973"><ele>306.7142857142857</ele><time>2026-03-22T09:58:52.77Z</time></trkpt><trkpt lat="43.5395545" lon="11.2690854"><ele>304.42857142857144</ele><time>2026-03-22T09:58:53.771Z</time></trkpt><trkpt lat="43.5396209" lon="11.2690753"><ele>302.1428571428571</ele><time>2026-03-22T09:58:54.771Z</time></trkpt><trkpt lat="43.5396934" lon="11.2690541"><ele>299.8571428571429</ele><time>2026-03-22T09:58:55.771Z</time></trkpt><trkpt lat="43.5397682" lon="11.2690363"><ele>297.57142857142856</ele><time>2026-03-22T09:58:56.771Z</time></trkpt><trkpt lat="43.5398402" lon="11.2690322"><ele>295.2857142857143</ele><time>2026-03-22T09:58:57.771Z</time></trkpt><trkpt lat="43.5399153" lon="11.2690171"><ele>293.0</ele><time>2026-03-22T09:58:58.771Z</time></trkpt><trkpt lat="43.5399887" lon="11.2690057"><ele>293.0</ele><time>2026-03-22T09:58:59.771Z</time></trkpt><trkpt lat="43.5400713" lon="11.2689942"><ele>293.0</ele><time>2026-03-22T09:59:00.771Z</time></trkpt><trkpt lat="43.5401461" lon="11.2689809"><ele>293.0</ele><time>2026-03-22T09:59:01.77Z</time></trkpt><trkpt lat="43.5402157" lon="11.2689632"><ele>293.0</ele><time>2026-03-22T09:59:02.771Z</time></trkpt><trkpt lat="43.5402871" lon="11.2689487"><ele>293.0</ele><time>2026-03-22T09:59:03.771Z</time></trkpt><trkpt lat="43.5403547" lon="11.2689383"><ele>293.0</ele><time>2026-03-22T09:59:04.771Z</time></trkpt><trkpt lat="43.5404605" lon="11.2689187"><ele>291.0</ele><time>2026-03-22T09:59:06.771Z</time></trkpt><trkpt lat="43.540527" lon="11.2689022"><ele>289.0</ele><time>2026-03-22T09:59:08.77Z</time></trkpt><trkpt lat="43.5405965" lon="11.2688972"><ele>287.0</ele><time>2026-03-22T09:59:11.771Z</time></trkpt><trkpt lat="43.5406623" lon="11.2688546"><ele>285.0</ele><time>2026-03-22T09:59:14.771Z</time></trkpt><trkpt lat="43.5407609" lon="11.2688394"><ele>283.0</ele><time>2026-03-22T09:59:16.771Z</time></trkpt><trkpt lat="43.540894" lon="11.2688126"><ele>281.0</ele><time>2026-03-22T09:59:18.771Z</time></trkpt><trkpt lat="43.5409619" lon="11.2688038"><ele>281.00000000000006</ele><time>2026-03-22T09:59:19.77Z</time></trkpt><trkpt lat="43.5410398" lon="11.2687882"><ele>281.0</ele><time>2026-03-22T09:59:20.77Z</time></trkpt><trkpt lat="43.5411194" lon="11.268774"><ele>281.0</ele><time>2026-03-22T09:59:21.771Z</time></trkpt><trkpt lat="43.5411957" lon="11.2687612"><ele>281.0</ele><time>2026-03-22T09:59:22.771Z</time></trkpt><trkpt lat="43.541268" lon="11.2687457"><ele>281.0</ele><time>2026-03-22T09:59:23.771Z</time></trkpt><trkpt lat="43.5413396" lon="11.2687432"><ele>281.00000000000006</ele><time>2026-03-22T09:59:24.771Z</time></trkpt><trkpt lat="43.5414037" lon="11.2687496"><ele>281.0</ele><time>2026-03-22T09:59:25.771Z</time></trkpt><trkpt lat="43.5414719" lon="11.2687601"><ele>281.00000000000006</ele><time>2026-03-22T09:59:26.77Z</time></trkpt><trkpt lat="43.5415403" lon="11.2687759"><ele>281.0</ele><time>2026-03-22T09:59:27.77Z</time></trkpt><trkpt lat="43.5416135" lon="11.2687984"><ele>281.0</ele><time>2026-03-22T09:59:28.772Z</time></trkpt><trkpt lat="43.5416861" lon="11.2688139"><ele>281.0</ele><time>2026-03-22T09:59:29.771Z</time></trkpt><trkpt lat="43.5417679" lon="11.2688254"><ele>281.0</ele><time>2026-03-22T09:59:30.771Z</time></trkpt><trkpt lat="43.541826" lon="11.2688722"><ele>281.00000000000006</ele><time>2026-03-22T09:59:31.77Z</time></trkpt><trkpt lat="43.5419004" lon="11.2688951"><ele>281.0</ele><time>2026-03-22T09:59:32.771Z</time></trkpt><trkpt lat="43.5419663" lon="11.2689191"><ele>278.5</ele><time>2026-03-22T09:59:33.77Z</time></trkpt><trkpt lat="43.5421066" lon="11.268922"><ele>276.0</ele><time>2026-03-22T09:59:35.77Z</time></trkpt><trkpt lat="43.5421769" lon="11.268914"><ele>273.5</ele><time>2026-03-22T09:59:36.77Z</time></trkpt><trkpt lat="43.5422575" lon="11.2689088"><ele>271.0</ele><time>2026-03-22T09:59:37.772Z</time></trkpt><trkpt lat="43.5424187" lon="11.2688681"><ele>271.0</ele><time>2026-03-22T09:59:39.771Z</time></trkpt><trkpt lat="43.5425065" lon="11.2688484"><ele>271.0</ele><time>2026-03-22T09:59:40.77Z</time></trkpt><trkpt lat="43.5426137" lon="11.2688279"><ele>271.0</ele><time>2026-03-22T09:59:41.772Z</time></trkpt><trkpt lat="43.5427024" lon="11.2687906"><ele>271.0</ele><time>2026-03-22T09:59:42.771Z</time></trkpt><trkpt lat="43.5428237" lon="11.2687809"><ele>271.0</ele><time>2026-03-22T09:59:43.771Z</time></trkpt><trkpt lat="43.5429339" lon="11.2687645"><ele>265.5</ele><time>2026-03-22T09:59:44.77Z</time></trkpt><trkpt lat="43.543042" lon="11.2687549"><ele>260.0</ele><time>2026-03-22T09:59:45.771Z</time></trkpt><trkpt lat="43.5431732" lon="11.2687162"><ele>254.5</ele><time>2026-03-22T09:59:46.77Z</time></trkpt><trkpt lat="43.5432877" lon="11.2687103"><ele>249.0</ele><time>2026-03-22T09:59:47.77Z</time></trkpt><trkpt lat="43.5434025" lon="11.2687076"><ele>249.0</ele><time>2026-03-22T09:59:48.771Z</time></trkpt><trkpt lat="43.5434945" lon="11.268731"><ele>248.99999999999997</ele><time>2026-03-22T09:59:49.77Z</time></trkpt><trkpt lat="43.5435981" lon="11.2687368"><ele>248.99999999999997</ele><time>2026-03-22T09:59:50.771Z</time></trkpt><trkpt lat="43.5437117" lon="11.2687845"><ele>249.0</ele><time>2026-03-22T09:59:51.77Z</time></trkpt><trkpt lat="43.5438054" lon="11.2687949"><ele>249.0</ele><time>2026-03-22T09:59:52.77Z</time></trkpt><trkpt lat="43.5439021" lon="11.2688351"><ele>246.5</ele><time>2026-03-22T09:59:53.77Z</time></trkpt><trkpt lat="43.5440142" lon="11.2688661"><ele>244.0</ele><time>2026-03-22T09:59:54.771Z</time></trkpt><trkpt lat="43.5441406" lon="11.2688979"><ele>241.5</ele><time>2026-03-22T09:59:55.77Z</time></trkpt><trkpt lat="43.5442615" lon="11.2689528"><ele>239.0</ele><time>2026-03-22T09:59:56.771Z</time></trkpt><trkpt lat="43.5443875" lon="11.2689958"><ele>239.0</ele><time>2026-03-22T09:59:57.77Z</time></trkpt><trkpt lat="43.5444976" lon="11.2690311"><ele>238.99999999999997</ele><time>2026-03-22T09:59:58.771Z</time></trkpt><trkpt lat="43.5445931" lon="11.269064"><ele>238.99999999999997</ele><time>2026-03-22T09:59:59.771Z</time></trkpt><trkpt lat="43.5446847" lon="11.2690909"><ele>239.0</ele><time>2026-03-22T10:00:00.771Z</time></trkpt><trkpt lat="43.5447697" lon="11.2691127"><ele>239.0</ele><time>2026-03-22T10:00:01.771Z</time></trkpt><trkpt lat="43.5448573" lon="11.2691287"><ele>238.00000000000003</ele><time>2026-03-22T10:00:02.77Z</time></trkpt><trkpt lat="43.5449533" lon="11.2691489"><ele>237.0</ele><time>2026-03-22T10:00:04.771Z</time></trkpt><trkpt lat="43.5450182" lon="11.2691897"><ele>236.0</ele><time>2026-03-22T10:00:07.771Z</time></trkpt><trkpt lat="43.5450971" lon="11.2692024"><ele>235.0</ele><time>2026-03-22T10:00:41.771Z</time></trkpt><trkpt lat="43.5451639" lon="11.269187"><ele>234.00000000000003</ele><time>2026-03-22T10:00:45.771Z</time></trkpt><trkpt lat="43.5452821" lon="11.2691138"><ele>233.0</ele><time>2026-03-22T10:00:46.772Z</time></trkpt><trkpt lat="43.5453471" lon="11.2690869"><ele>232.83333333333334</ele><time>2026-03-22T10:00:47.772Z</time></trkpt><trkpt lat="43.5454265" lon="11.2690586"><ele>232.66666666666669</ele><time>2026-03-22T10:00:48.77Z</time></trkpt><trkpt lat="43.5455031" lon="11.2690387"><ele>232.5</ele><time>2026-03-22T10:00:49.771Z</time></trkpt><trkpt lat="43.54558" lon="11.2690154"><ele>232.33333333333331</ele><time>2026-03-22T10:00:50.77Z</time></trkpt><trkpt lat="43.5456509" lon="11.2689929"><ele>232.16666666666666</ele><time>2026-03-22T10:00:51.77Z</time></trkpt><trkpt lat="43.5457175" lon="11.2689732"><ele>232.0</ele><time>2026-03-22T10:00:52.771Z</time></trkpt><trkpt lat="43.5458307" lon="11.2689184"><ele>232.0</ele><time>2026-03-22T10:00:54.77Z</time></trkpt><trkpt lat="43.5458905" lon="11.268798"><ele>232.0</ele><time>2026-03-22T10:00:56.771Z</time></trkpt><trkpt lat="43.5458821" lon="11.2686268"><ele>232.0</ele><time>2026-03-22T10:00:58.771Z</time></trkpt><trkpt lat="43.545887" lon="11.2685289"><ele>232.0</ele><time>2026-03-22T10:00:59.77Z</time></trkpt><trkpt lat="43.5458949" lon="11.2684283"><ele>232.0</ele><time>2026-03-22T10:01:00.771Z</time></trkpt><trkpt lat="43.5459045" lon="11.2683212"><ele>231.99999999999997</ele><time>2026-03-22T10:01:01.772Z</time></trkpt><trkpt lat="43.5459093" lon="11.2682116"><ele>232.0</ele><time>2026-03-22T10:01:02.771Z</time></trkpt><trkpt lat="43.545908" lon="11.268101"><ele>232.0</ele><time>2026-03-22T10:01:03.77Z</time></trkpt><trkpt lat="43.5459062" lon="11.2679839"><ele>232.0</ele><time>2026-03-22T10:01:04.77Z</time></trkpt><trkpt lat="43.5459028" lon="11.2678705"><ele>231.99999999999997</ele><time>2026-03-22T10:01:05.771Z</time></trkpt><trkpt lat="43.5459052" lon="11.2677672"><ele>232.0</ele><time>2026-03-22T10:01:06.77Z</time></trkpt><trkpt lat="43.5459" lon="11.2676605"><ele>231.66666666666666</ele><time>2026-03-22T10:01:07.77Z</time></trkpt><trkpt lat="43.5458819" lon="11.2675592"><ele>231.33333333333331</ele><time>2026-03-22T10:01:08.77Z</time></trkpt><trkpt lat="43.5458664" lon="11.2674471"><ele>231.0</ele><time>2026-03-22T10:01:09.77Z</time></trkpt><trkpt lat="43.545852" lon="11.2673356"><ele>230.66666666666669</ele><time>2026-03-22T10:01:10.771Z</time></trkpt><trkpt lat="43.5458352" lon="11.267222"><ele>230.33333333333334</ele><time>2026-03-22T10:01:11.77Z</time></trkpt><trkpt lat="43.5458129" lon="11.2671223"><ele>230.0</ele><time>2026-03-22T10:01:12.771Z</time></trkpt><trkpt lat="43.545793" lon="11.2670302"><ele>229.83333333333334</ele><time>2026-03-22T10:01:13.772Z</time></trkpt><trkpt lat="43.5457752" lon="11.2669353"><ele>229.66666666666669</ele><time>2026-03-22T10:01:14.77Z</time></trkpt><trkpt lat="43.5457698" lon="11.2668463"><ele>229.5</ele><time>2026-03-22T10:01:15.77Z</time></trkpt><trkpt lat="43.545794" lon="11.266692"><ele>229.33333333333331</ele><time>2026-03-22T10:01:17.77Z</time></trkpt><trkpt lat="43.5458345" lon="11.2665738"><ele>229.16666666666666</ele><time>2026-03-22T10:01:19.771Z</time></trkpt><trkpt lat="43.5458016" lon="11.2664682"><ele>229.0</ele><time>2026-03-22T10:01:21.77Z</time></trkpt><trkpt lat="43.5457783" lon="11.2663697"><ele>228.99999999999997</ele><time>2026-03-22T10:01:23.771Z</time></trkpt><trkpt lat="43.5457658" lon="11.2662483"><ele>229.0</ele><time>2026-03-22T10:01:25.771Z</time></trkpt><trkpt lat="43.5457515" lon="11.2661469"><ele>229.0</ele><time>2026-03-22T10:01:27.771Z</time></trkpt><trkpt lat="43.5457407" lon="11.2660518"><ele>229.0</ele><time>2026-03-22T10:01:29.771Z</time></trkpt><trkpt lat="43.5457183" lon="11.265952"><ele>228.99999999999997</ele><time>2026-03-22T10:01:31.77Z</time></trkpt><trkpt lat="43.5457069" lon="11.2658344"><ele>229.0</ele><time>2026-03-22T10:01:33.772Z</time></trkpt><trkpt lat="43.5456872" lon="11.265693"><ele>228.66666666666666</ele><time>2026-03-22T10:01:35.771Z</time></trkpt><trkpt lat="43.5456708" lon="11.265587"><ele>228.33333333333331</ele><time>2026-03-22T10:01:37.77Z</time></trkpt><trkpt lat="43.5456107" lon="11.2654977"><ele>228.0</ele><time>2026-03-22T10:01:39.772Z</time></trkpt><trkpt lat="43.5455371" lon="11.2654622"><ele>227.66666666666669</ele><time>2026-03-22T10:01:41.771Z</time></trkpt><trkpt lat="43.5454558" lon="11.2654623"><ele>227.33333333333334</ele><time>2026-03-22T10:01:43.77Z</time></trkpt><trkpt lat="43.5453849" lon="11.2654689"><ele>227.0</ele><time>2026-03-22T10:01:45.771Z</time></trkpt><trkpt lat="43.5453159" lon="11.2654683"><ele>227.0</ele><time>2026-03-22T10:01:48.771Z</time></trkpt><trkpt lat="43.5453075" lon="11.2653809"><ele>227.0</ele><time>2026-03-22T10:01:50.771Z</time></trkpt><trkpt lat="43.5453559" lon="11.2652792"><ele>227.0</ele><time>2026-03-22T10:01:52.77Z</time></trkpt><trkpt lat="43.5453799" lon="11.2651513"><ele>227.0</ele><time>2026-03-22T10:01:54.771Z</time></trkpt><trkpt lat="43.5453532" lon="11.2650216"><ele>227.0</ele><time>2026-03-22T10:01:56.77Z</time></trkpt><trkpt lat="43.5453061" lon="11.2648766"><ele>229.0</ele><time>2026-03-22T10:01:58.772Z</time></trkpt><trkpt lat="43.5452515" lon="11.2647451"><ele>231.0</ele><time>2026-03-22T10:02:00.771Z</time></trkpt><trkpt lat="43.5451779" lon="11.2645891"><ele>233.0</ele><time>2026-03-22T10:02:02.771Z</time></trkpt><trkpt lat="43.545147" lon="11.2644948"><ele>235.0</ele><time>2026-03-22T10:02:03.771Z</time></trkpt><trkpt lat="43.5451394" lon="11.2643968"><ele>237.0</ele><time>2026-03-22T10:02:04.77Z</time></trkpt><trkpt lat="43.5451514" lon="11.2642892"><ele>237.0</ele><time>2026-03-22T10:02:05.772Z</time></trkpt><trkpt lat="43.5451641" lon="11.2641602"><ele>237.0</ele><time>2026-03-22T10:02:06.771Z</time></trkpt><trkpt lat="43.5451739" lon="11.2640426"><ele>237.0</ele><time>2026-03-22T10:02:07.77Z</time></trkpt><trkpt lat="43.5451833" lon="11.2639386"><ele>237.0</ele><time>2026-03-22T10:02:08.771Z</time></trkpt><trkpt lat="43.5451853" lon="11.2638439"><ele>237.0</ele><time>2026-03-22T10:02:09.771Z</time></trkpt><trkpt lat="43.5451786" lon="11.2637491"><ele>237.0</ele><time>2026-03-22T10:02:10.77Z</time></trkpt><trkpt lat="43.5451699" lon="11.2636485"><ele>237.16666666666666</ele><time>2026-03-22T10:02:11.77Z</time></trkpt><trkpt lat="43.5451591" lon="11.2635432"><ele>237.33333333333331</ele><time>2026-03-22T10:02:12.77Z</time></trkpt><trkpt lat="43.5451475" lon="11.2634406"><ele>237.5</ele><time>2026-03-22T10:02:13.772Z</time></trkpt><trkpt lat="43.5451351" lon="11.2633503"><ele>237.66666666666666</ele><time>2026-03-22T10:02:14.772Z</time></trkpt><trkpt lat="43.5451132" lon="11.2631851"><ele>237.83333333333331</ele><time>2026-03-22T10:02:16.771Z</time></trkpt><trkpt lat="43.5451099" lon="11.2630551"><ele>238.0</ele><time>2026-03-22T10:02:18.771Z</time></trkpt><trkpt lat="43.5451461" lon="11.2629509"><ele>238.14285714285714</ele><time>2026-03-22T10:02:20.772Z</time></trkpt><trkpt lat="43.5452169" lon="11.2628381"><ele>238.28571428571428</ele><time>2026-03-22T10:02:22.771Z</time></trkpt><trkpt lat="43.5452523" lon="11.2627624"><ele>238.42857142857144</ele><time>2026-03-22T10:02:23.771Z</time></trkpt><trkpt lat="43.5452838" lon="11.2626872"><ele>238.57142857142858</ele><time>2026-03-22T10:02:24.772Z</time></trkpt><trkpt lat="43.5453184" lon="11.2626077"><ele>238.71428571428572</ele><time>2026-03-22T10:02:25.771Z</time></trkpt><trkpt lat="43.5453546" lon="11.2625258"><ele>238.8571428571429</ele><time>2026-03-22T10:02:26.77Z</time></trkpt><trkpt lat="43.5453871" lon="11.2624456"><ele>239.00000000000003</ele><time>2026-03-22T10:02:27.77Z</time></trkpt><trkpt lat="43.5454152" lon="11.262366"><ele>236.39999999999998</ele><time>2026-03-22T10:02:28.77Z</time></trkpt><trkpt lat="43.5454439" lon="11.2622874"><ele>233.79999999999998</ele><time>2026-03-22T10:02:29.771Z</time></trkpt><trkpt lat="43.5454983" lon="11.2621331"><ele>231.20000000000002</ele><time>2026-03-22T10:02:31.771Z</time></trkpt><trkpt lat="43.5455301" lon="11.2619696"><ele>228.60000000000002</ele><time>2026-03-22T10:02:33.771Z</time></trkpt><trkpt lat="43.5455304" lon="11.261882"><ele>226.0</ele><time>2026-03-22T10:02:34.77Z</time></trkpt><trkpt lat="43.5455093" lon="11.2617415"><ele>226.0</ele><time>2026-03-22T10:02:36.771Z</time></trkpt><trkpt lat="43.5454831" lon="11.261641"><ele>226.00000000000003</ele><time>2026-03-22T10:02:39.77Z</time></trkpt><trkpt lat="43.5453737" lon="11.2615757"><ele>226.00000000000003</ele><time>2026-03-22T10:03:05.77Z</time></trkpt><trkpt lat="43.5453126" lon="11.2615063"><ele>226.0</ele><time>2026-03-22T10:03:06.77Z</time></trkpt><trkpt lat="43.545257" lon="11.2614211"><ele>226.0</ele><time>2026-03-22T10:03:07.771Z</time></trkpt><trkpt lat="43.5452107" lon="11.2613074"><ele>229.99999999999997</ele><time>2026-03-22T10:03:08.771Z</time></trkpt><trkpt lat="43.5451554" lon="11.2611653"><ele>234.0</ele><time>2026-03-22T10:03:10.77Z</time></trkpt><trkpt lat="43.5451139" lon="11.2610723"><ele>238.0</ele><time>2026-03-22T10:03:12.77Z</time></trkpt><trkpt lat="43.5450704" lon="11.2609834"><ele>242.0</ele><time>2026-03-22T10:03:15.771Z</time></trkpt><trkpt lat="43.5450089" lon="11.260913"><ele>245.99999999999997</ele><time>2026-03-22T10:03:18.771Z</time></trkpt><trkpt lat="43.545017" lon="11.2608215"><ele>250.0</ele><time>2026-03-22T10:03:35.77Z</time></trkpt><trkpt lat="43.5449761" lon="11.2607065"><ele>251.99999999999997</ele><time>2026-03-22T10:03:38.77Z</time></trkpt><trkpt lat="43.5449877" lon="11.2606091"><ele>254.0</ele><time>2026-03-22T10:03:51.77Z</time></trkpt><trkpt lat="43.5450399" lon="11.2605599"><ele>256.0</ele><time>2026-03-22T10:06:50.771Z</time></trkpt><trkpt lat="43.5451088" lon="11.2605232"><ele>258.0</ele><time>2026-03-22T10:06:52.771Z</time></trkpt><trkpt lat="43.5451792" lon="11.2604764"><ele>260.0</ele><time>2026-03-22T10:06:54.771Z</time></trkpt><trkpt lat="43.5452327" lon="11.2604278"><ele>262.0</ele><time>2026-03-22T10:06:56.77Z</time></trkpt><trkpt lat="43.5453205" lon="11.260351"><ele>256.4</ele><time>2026-03-22T10:06:58.771Z</time></trkpt><trkpt lat="43.5454108" lon="11.2602653"><ele>250.79999999999998</ele><time>2026-03-22T10:07:00.771Z</time></trkpt><trkpt lat="43.5454797" lon="11.2602869"><ele>245.2</ele><time>2026-03-22T10:07:02.771Z</time></trkpt><trkpt lat="43.5455856" lon="11.2603351"><ele>239.6</ele><time>2026-03-22T10:07:04.77Z</time></trkpt><trkpt lat="43.545699" lon="11.2602362"><ele>234.0</ele><time>2026-03-22T10:07:06.771Z</time></trkpt><trkpt lat="43.5457715" lon="11.2601466"><ele>234.0</ele><time>2026-03-22T10:07:07.771Z</time></trkpt><trkpt lat="43.5458459" lon="11.2600461"><ele>234.0</ele><time>2026-03-22T10:07:08.771Z</time></trkpt><trkpt lat="43.5459453" lon="11.2599509"><ele>234.0</ele><time>2026-03-22T10:07:09.771Z</time></trkpt><trkpt lat="43.5460531" lon="11.2598387"><ele>234.0</ele><time>2026-03-22T10:07:10.77Z</time></trkpt><trkpt lat="43.5461638" lon="11.2597069"><ele>231.33333333333331</ele><time>2026-03-22T10:07:11.771Z</time></trkpt><trkpt lat="43.5462872" lon="11.2595622"><ele>228.66666666666666</ele><time>2026-03-22T10:07:12.771Z</time></trkpt><trkpt lat="43.5463927" lon="11.2594169"><ele>226.0</ele><time>2026-03-22T10:07:13.771Z</time></trkpt><trkpt lat="43.5464971" lon="11.2592646"><ele>226.0</ele><time>2026-03-22T10:07:14.77Z</time></trkpt><trkpt lat="43.5466021" lon="11.2591"><ele>226.0</ele><time>2026-03-22T10:07:15.772Z</time></trkpt><trkpt lat="43.5466889" lon="11.2589575"><ele>226.0</ele><time>2026-03-22T10:07:16.771Z</time></trkpt><trkpt lat="43.5467629" lon="11.2588226"><ele>226.0</ele><time>2026-03-22T10:07:17.771Z</time></trkpt><trkpt lat="43.5468302" lon="11.2587027"><ele>226.0</ele><time>2026-03-22T10:07:18.772Z</time></trkpt><trkpt lat="43.5469014" lon="11.2585911"><ele>226.00000000000003</ele><time>2026-03-22T10:07:19.77Z</time></trkpt><trkpt lat="43.5469814" lon="11.2584879"><ele>226.00000000000003</ele><time>2026-03-22T10:07:20.771Z</time></trkpt><trkpt lat="43.5470718" lon="11.2583914"><ele>226.0</ele><time>2026-03-22T10:07:21.77Z</time></trkpt><trkpt lat="43.547164" lon="11.2583031"><ele>226.0</ele><time>2026-03-22T10:07:22.77Z</time></trkpt><trkpt lat="43.5472388" lon="11.2582192"><ele>226.0</ele><time>2026-03-22T10:07:23.77Z</time></trkpt><trkpt lat="43.5473145" lon="11.2581244"><ele>226.0</ele><time>2026-03-22T10:07:24.77Z</time></trkpt><trkpt lat="43.5473617" lon="11.2579615"><ele>226.0</ele><time>2026-03-22T10:07:25.771Z</time></trkpt><trkpt lat="43.5474116" lon="11.2578084"><ele>226.0</ele><time>2026-03-22T10:07:26.771Z</time></trkpt><trkpt lat="43.5474557" lon="11.2576621"><ele>225.4</ele><time>2026-03-22T10:07:27.771Z</time></trkpt><trkpt lat="43.5474986" lon="11.2575281"><ele>224.8</ele><time>2026-03-22T10:07:28.771Z</time></trkpt><trkpt lat="43.5475339" lon="11.2574071"><ele>224.20000000000002</ele><time>2026-03-22T10:07:29.772Z</time></trkpt><trkpt lat="43.5475671" lon="11.2572785"><ele>223.60000000000002</ele><time>2026-03-22T10:07:30.77Z</time></trkpt><trkpt lat="43.5475966" lon="11.2571601"><ele>223.0</ele><time>2026-03-22T10:07:31.77Z</time></trkpt><trkpt lat="43.5476171" lon="11.2570509"><ele>222.8</ele><time>2026-03-22T10:07:32.772Z</time></trkpt><trkpt lat="43.5476304" lon="11.2569659"><ele>222.60000000000002</ele><time>2026-03-22T10:07:33.771Z</time></trkpt><trkpt lat="43.5476453" lon="11.2568547"><ele>222.39999999999998</ele><time>2026-03-22T10:07:35.771Z</time></trkpt><trkpt lat="43.5477207" lon="11.2568333"><ele>222.2</ele><time>2026-03-22T10:08:43.77Z</time></trkpt><trkpt lat="43.5478458" lon="11.2568684"><ele>222.0</ele><time>2026-03-22T10:08:45.769Z</time></trkpt><trkpt lat="43.5479444" lon="11.2568961"><ele>222.5</ele><time>2026-03-22T10:08:46.77Z</time></trkpt><trkpt lat="43.5480254" lon="11.2569195"><ele>223.0</ele><time>2026-03-22T10:08:47.771Z</time></trkpt><trkpt lat="43.548091" lon="11.2569403"><ele>223.5</ele><time>2026-03-22T10:08:48.77Z</time></trkpt><trkpt lat="43.5481602" lon="11.2569583"><ele>224.0</ele><time>2026-03-22T10:08:49.77Z</time></trkpt><trkpt lat="43.5481573" lon="11.2570454"><ele>224.5</ele><time>2026-03-22T10:08:50.769Z</time></trkpt><trkpt lat="43.5481548" lon="11.2572551"><ele>225.0</ele><time>2026-03-22T10:08:52.77Z</time></trkpt><trkpt lat="43.5481468" lon="11.2573515"><ele>226.0</ele><time>2026-03-22T10:08:53.77Z</time></trkpt><trkpt lat="43.5481213" lon="11.2574958"><ele>227.0</ele><time>2026-03-22T10:08:55.77Z</time></trkpt><trkpt lat="43.5481442" lon="11.2575938"><ele>228.0</ele><time>2026-03-22T10:08:57.77Z</time></trkpt><trkpt lat="43.5482219" lon="11.2576791"><ele>229.0</ele><time>2026-03-22T10:08:59.77Z</time></trkpt><trkpt lat="43.5482836" lon="11.2577338"><ele>230.0</ele><time>2026-03-22T10:09:00.77Z</time></trkpt><trkpt lat="43.5483559" lon="11.2577968"><ele>231.0</ele><time>2026-03-22T10:09:01.771Z</time></trkpt><trkpt lat="43.5484268" lon="11.2578615"><ele>231.0</ele><time>2026-03-22T10:09:02.77Z</time></trkpt><trkpt lat="43.5484922" lon="11.2579146"><ele>231.0</ele><time>2026-03-22T10:09:03.77Z</time></trkpt><trkpt lat="43.5485447" lon="11.2579699"><ele>231.0</ele><time>2026-03-22T10:09:04.771Z</time></trkpt><trkpt lat="43.5486445" lon="11.258069"><ele>231.0</ele><time>2026-03-22T10:09:06.769Z</time></trkpt><trkpt lat="43.5487056" lon="11.258114"><ele>231.0</ele><time>2026-03-22T10:09:07.77Z</time></trkpt><trkpt lat="43.5487741" lon="11.2581633"><ele>231.0</ele><time>2026-03-22T10:09:08.77Z</time></trkpt><trkpt lat="43.5488435" lon="11.2582227"><ele>234.4</ele><time>2026-03-22T10:09:09.77Z</time></trkpt><trkpt lat="43.5489164" lon="11.2582922"><ele>237.8</ele><time>2026-03-22T10:09:10.769Z</time></trkpt><trkpt lat="43.5489957" lon="11.2583625"><ele>241.20000000000002</ele><time>2026-03-22T10:09:11.77Z</time></trkpt><trkpt lat="43.549066" lon="11.2584334"><ele>244.60000000000002</ele><time>2026-03-22T10:09:12.77Z</time></trkpt><trkpt lat="43.5491416" lon="11.2585096"><ele>248.0</ele><time>2026-03-22T10:09:13.77Z</time></trkpt><trkpt lat="43.5492292" lon="11.2585879"><ele>248.0</ele><time>2026-03-22T10:09:14.771Z</time></trkpt><trkpt lat="43.5493313" lon="11.2586784"><ele>248.0</ele><time>2026-03-22T10:09:15.769Z</time></trkpt><trkpt lat="43.5494413" lon="11.258778"><ele>248.0</ele><time>2026-03-22T10:09:16.77Z</time></trkpt><trkpt lat="43.5495571" lon="11.2588826"><ele>248.0</ele><time>2026-03-22T10:09:17.77Z</time></trkpt><trkpt lat="43.5496643" lon="11.2589756"><ele>250.75</ele><time>2026-03-22T10:09:18.769Z</time></trkpt><trkpt lat="43.5497661" lon="11.2590624"><ele>253.5</ele><time>2026-03-22T10:09:19.769Z</time></trkpt><trkpt lat="43.5498708" lon="11.2591621"><ele>256.25</ele><time>2026-03-22T10:09:20.77Z</time></trkpt><trkpt lat="43.5499777" lon="11.2592562"><ele>259.0</ele><time>2026-03-22T10:09:21.769Z</time></trkpt><trkpt lat="43.5500702" lon="11.2593404"><ele>259.0</ele><time>2026-03-22T10:09:22.771Z</time></trkpt><trkpt lat="43.5501479" lon="11.2594292"><ele>259.0</ele><time>2026-03-22T10:09:23.769Z</time></trkpt><trkpt lat="43.5502162" lon="11.2595131"><ele>259.0</ele><time>2026-03-22T10:09:24.771Z</time></trkpt><trkpt lat="43.5502742" lon="11.2596008"><ele>259.0</ele><time>2026-03-22T10:09:25.77Z</time></trkpt><trkpt lat="43.5503239" lon="11.2597001"><ele>259.0</ele><time>2026-03-22T10:09:26.769Z</time></trkpt><trkpt lat="43.55038" lon="11.2598086"><ele>261.4</ele><time>2026-03-22T10:09:27.769Z</time></trkpt><trkpt lat="43.5504443" lon="11.259934"><ele>263.79999999999995</ele><time>2026-03-22T10:09:28.77Z</time></trkpt><trkpt lat="43.5505135" lon="11.2600592"><ele>266.20000000000005</ele><time>2026-03-22T10:09:29.769Z</time></trkpt><trkpt lat="43.5505645" lon="11.2601597"><ele>268.6</ele><time>2026-03-22T10:09:30.769Z</time></trkpt><trkpt lat="43.5505486" lon="11.2603159"><ele>271.0</ele><time>2026-03-22T10:09:32.77Z</time></trkpt><trkpt lat="43.5504564" lon="11.260468"><ele>271.0</ele><time>2026-03-22T10:09:34.77Z</time></trkpt><trkpt lat="43.5503881" lon="11.2605528"><ele>271.0</ele><time>2026-03-22T10:09:35.77Z</time></trkpt><trkpt lat="43.5503316" lon="11.2606334"><ele>271.0</ele><time>2026-03-22T10:09:36.77Z</time></trkpt><trkpt lat="43.5502742" lon="11.2606947"><ele>271.0</ele><time>2026-03-22T10:09:37.77Z</time></trkpt><trkpt lat="43.5502137" lon="11.2607602"><ele>271.0</ele><time>2026-03-22T10:09:38.769Z</time></trkpt><trkpt lat="43.5501581" lon="11.2608437"><ele>271.0</ele><time>2026-03-22T10:09:39.771Z</time></trkpt><trkpt lat="43.5501067" lon="11.2609171"><ele>273.8333333333333</ele><time>2026-03-22T10:09:40.77Z</time></trkpt><trkpt lat="43.5500569" lon="11.2609866"><ele>276.66666666666663</ele><time>2026-03-22T10:09:41.769Z</time></trkpt><trkpt lat="43.5499988" lon="11.2610451"><ele>279.5</ele><time>2026-03-22T10:09:42.771Z</time></trkpt><trkpt lat="43.5499353" lon="11.2611221"><ele>282.3333333333333</ele><time>2026-03-22T10:09:43.77Z</time></trkpt><trkpt lat="43.5498658" lon="11.2612"><ele>285.1666666666667</ele><time>2026-03-22T10:09:44.77Z</time></trkpt><trkpt lat="43.5498016" lon="11.2612885"><ele>288.0</ele><time>2026-03-22T10:09:45.77Z</time></trkpt><trkpt lat="43.5497442" lon="11.2613676"><ele>288.0</ele><time>2026-03-22T10:09:46.769Z</time></trkpt><trkpt lat="43.5496959" lon="11.2614481"><ele>288.0</ele><time>2026-03-22T10:09:47.77Z</time></trkpt><trkpt lat="43.5496796" lon="11.2615685"><ele>288.0</ele><time>2026-03-22T10:09:49.77Z</time></trkpt><trkpt lat="43.5497222" lon="11.2617065"><ele>288.0</ele><time>2026-03-22T10:09:51.77Z</time></trkpt><trkpt lat="43.5497595" lon="11.261788"><ele>288.0</ele><time>2026-03-22T10:09:52.769Z</time></trkpt><trkpt lat="43.5498031" lon="11.261897"><ele>288.0</ele><time>2026-03-22T10:09:53.771Z</time></trkpt><trkpt lat="43.5498494" lon="11.262026"><ele>290.6</ele><time>2026-03-22T10:09:54.77Z</time></trkpt><trkpt lat="43.5498799" lon="11.2621237"><ele>293.20000000000005</ele><time>2026-03-22T10:09:55.769Z</time></trkpt><trkpt lat="43.5499237" lon="11.2622221"><ele>295.8</ele><time>2026-03-22T10:09:57.77Z</time></trkpt><trkpt lat="43.5500337" lon="11.2623059"><ele>298.40000000000003</ele><time>2026-03-22T10:09:59.77Z</time></trkpt><trkpt lat="43.5501164" lon="11.2623396"><ele>301.0</ele><time>2026-03-22T10:10:00.769Z</time></trkpt><trkpt lat="43.5502083" lon="11.2623838"><ele>303.40000000000003</ele><time>2026-03-22T10:10:01.77Z</time></trkpt><trkpt lat="43.5502959" lon="11.262455"><ele>305.8</ele><time>2026-03-22T10:10:02.769Z</time></trkpt><trkpt lat="43.5503869" lon="11.2625578"><ele>308.20000000000005</ele><time>2026-03-22T10:10:03.771Z</time></trkpt><trkpt lat="43.5504762" lon="11.2626516"><ele>310.6</ele><time>2026-03-22T10:10:04.769Z</time></trkpt><trkpt lat="43.5505534" lon="11.2627102"><ele>313.0</ele><time>2026-03-22T10:10:05.77Z</time></trkpt><trkpt lat="43.5506466" lon="11.2627281"><ele>313.25</ele><time>2026-03-22T10:10:06.769Z</time></trkpt><trkpt lat="43.5507665" lon="11.2627372"><ele>313.5</ele><time>2026-03-22T10:10:07.769Z</time></trkpt><trkpt lat="43.5508939" lon="11.2627596"><ele>313.75</ele><time>2026-03-22T10:10:08.77Z</time></trkpt><trkpt lat="43.5510223" lon="11.2627791"><ele>314.0</ele><time>2026-03-22T10:10:09.769Z</time></trkpt><trkpt lat="43.5511518" lon="11.2627962"><ele>313.75</ele><time>2026-03-22T10:10:10.77Z</time></trkpt><trkpt lat="43.551274" lon="11.2628223"><ele>313.5</ele><time>2026-03-22T10:10:11.769Z</time></trkpt><trkpt lat="43.5513855" lon="11.2628705"><ele>313.25</ele><time>2026-03-22T10:10:12.771Z</time></trkpt><trkpt lat="43.5514871" lon="11.2629358"><ele>313.0</ele><time>2026-03-22T10:10:13.77Z</time></trkpt><trkpt lat="43.5515866" lon="11.2630162"><ele>313.0</ele><time>2026-03-22T10:10:14.77Z</time></trkpt><trkpt lat="43.5516832" lon="11.2631125"><ele>313.0</ele><time>2026-03-22T10:10:15.769Z</time></trkpt><trkpt lat="43.5517654" lon="11.2632162"><ele>313.0</ele><time>2026-03-22T10:10:16.77Z</time></trkpt><trkpt lat="43.5518308" lon="11.2633317"><ele>313.0</ele><time>2026-03-22T10:10:17.77Z</time></trkpt><trkpt lat="43.5518906" lon="11.2634607"><ele>313.0</ele><time>2026-03-22T10:10:18.769Z</time></trkpt><trkpt lat="43.5519518" lon="11.2635776"><ele>314.2</ele><time>2026-03-22T10:10:19.769Z</time></trkpt><trkpt lat="43.5520162" lon="11.263663"><ele>315.4</ele><time>2026-03-22T10:10:20.77Z</time></trkpt><trkpt lat="43.5520881" lon="11.2637306"><ele>316.59999999999997</ele><time>2026-03-22T10:10:21.77Z</time></trkpt><trkpt lat="43.5521735" lon="11.2637789"><ele>317.8</ele><time>2026-03-22T10:10:22.769Z</time></trkpt><trkpt lat="43.552273" lon="11.2637995"><ele>319.0</ele><time>2026-03-22T10:10:23.77Z</time></trkpt><trkpt lat="43.5523813" lon="11.2638007"><ele>319.0</ele><time>2026-03-22T10:10:24.77Z</time></trkpt><trkpt lat="43.5525021" lon="11.2637994"><ele>319.0</ele><time>2026-03-22T10:10:25.771Z</time></trkpt><trkpt lat="43.5526284" lon="11.263801"><ele>319.0</ele><time>2026-03-22T10:10:26.77Z</time></trkpt><trkpt lat="43.5527551" lon="11.263806"><ele>319.0</ele><time>2026-03-22T10:10:27.769Z</time></trkpt><trkpt lat="43.5528805" lon="11.2638152"><ele>319.75</ele><time>2026-03-22T10:10:28.769Z</time></trkpt><trkpt lat="43.5530015" lon="11.263838"><ele>320.5</ele><time>2026-03-22T10:10:29.77Z</time></trkpt><trkpt lat="43.5531199" lon="11.263888"><ele>321.25</ele><time>2026-03-22T10:10:30.769Z</time></trkpt><trkpt lat="43.5532356" lon="11.2639645"><ele>322.0</ele><time>2026-03-22T10:10:31.769Z</time></trkpt><trkpt lat="43.5533538" lon="11.2640478"><ele>322.5</ele><time>2026-03-22T10:10:32.77Z</time></trkpt><trkpt lat="43.5534765" lon="11.2641376"><ele>323.0</ele><time>2026-03-22T10:10:33.77Z</time></trkpt><trkpt lat="43.5535991" lon="11.2642356"><ele>323.5</ele><time>2026-03-22T10:10:34.769Z</time></trkpt><trkpt lat="43.5537258" lon="11.2643404"><ele>324.0</ele><time>2026-03-22T10:10:35.77Z</time></trkpt><trkpt lat="43.5538561" lon="11.2644471"><ele>325.75</ele><time>2026-03-22T10:10:36.77Z</time></trkpt><trkpt lat="43.5539788" lon="11.2645484"><ele>327.5</ele><time>2026-03-22T10:10:37.77Z</time></trkpt><trkpt lat="43.5540855" lon="11.2646346"><ele>329.25</ele><time>2026-03-22T10:10:38.77Z</time></trkpt><trkpt lat="43.5541912" lon="11.2646987"><ele>331.0</ele><time>2026-03-22T10:10:39.77Z</time></trkpt><trkpt lat="43.5543108" lon="11.2647381"><ele>331.0</ele><time>2026-03-22T10:10:40.77Z</time></trkpt><trkpt lat="43.5544301" lon="11.2647445"><ele>331.0</ele><time>2026-03-22T10:10:41.769Z</time></trkpt><trkpt lat="43.5545427" lon="11.2647305"><ele>331.0</ele><time>2026-03-22T10:10:42.769Z</time></trkpt><trkpt lat="43.5546519" lon="11.2647299"><ele>331.0</ele><time>2026-03-22T10:10:43.77Z</time></trkpt><trkpt lat="43.5547661" lon="11.2647416"><ele>330.0</ele><time>2026-03-22T10:10:44.769Z</time></trkpt><trkpt lat="43.5548908" lon="11.264753"><ele>329.0</ele><time>2026-03-22T10:10:45.769Z</time></trkpt><trkpt lat="43.5550252" lon="11.2647658"><ele>328.0</ele><time>2026-03-22T10:10:46.77Z</time></trkpt><trkpt lat="43.5551656" lon="11.2647928"><ele>327.0</ele><time>2026-03-22T10:10:47.769Z</time></trkpt><trkpt lat="43.555312" lon="11.2648189"><ele>326.75</ele><time>2026-03-22T10:10:48.77Z</time></trkpt><trkpt lat="43.5554639" lon="11.2648473"><ele>326.5</ele><time>2026-03-22T10:10:49.769Z</time></trkpt><trkpt lat="43.5556027" lon="11.2648658"><ele>326.25</ele><time>2026-03-22T10:10:50.769Z</time></trkpt><trkpt lat="43.5557318" lon="11.2648858"><ele>326.0</ele><time>2026-03-22T10:10:51.77Z</time></trkpt><trkpt lat="43.5557598" lon="11.2649803"><ele>326.0</ele><time>2026-03-22T10:10:52.77Z</time></trkpt><trkpt lat="43.5558068" lon="11.2650885"><ele>326.0</ele><time>2026-03-22T10:10:53.769Z</time></trkpt><trkpt lat="43.5558567" lon="11.2652189"><ele>326.0</ele><time>2026-03-22T10:10:54.771Z</time></trkpt><trkpt lat="43.5559174" lon="11.2653713"><ele>326.0</ele><time>2026-03-22T10:10:55.769Z</time></trkpt><trkpt lat="43.5559851" lon="11.2655041"><ele>326.0</ele><time>2026-03-22T10:10:56.769Z</time></trkpt><trkpt lat="43.5560652" lon="11.2656172"><ele>326.4</ele><time>2026-03-22T10:10:57.77Z</time></trkpt><trkpt lat="43.5561549" lon="11.2657077"><ele>326.8</ele><time>2026-03-22T10:10:58.77Z</time></trkpt><trkpt lat="43.5562508" lon="11.2657692"><ele>327.2</ele><time>2026-03-22T10:10:59.77Z</time></trkpt><trkpt lat="43.5563538" lon="11.265808"><ele>327.59999999999997</ele><time>2026-03-22T10:11:00.771Z</time></trkpt><trkpt lat="43.5564621" lon="11.2658327"><ele>328.0</ele><time>2026-03-22T10:11:01.769Z</time></trkpt><trkpt lat="43.556576" lon="11.265852"><ele>329.5</ele><time>2026-03-22T10:11:02.769Z</time></trkpt><trkpt lat="43.5566933" lon="11.2658728"><ele>331.0</ele><time>2026-03-22T10:11:03.769Z</time></trkpt><trkpt lat="43.5568106" lon="11.2658947"><ele>332.5</ele><time>2026-03-22T10:11:04.77Z</time></trkpt><trkpt lat="43.5569248" lon="11.2659108"><ele>334.0</ele><time>2026-03-22T10:11:05.769Z</time></trkpt><trkpt lat="43.557038" lon="11.2659249"><ele>334.5</ele><time>2026-03-22T10:11:06.77Z</time></trkpt><trkpt lat="43.557155" lon="11.2659344"><ele>335.0</ele><time>2026-03-22T10:11:07.77Z</time></trkpt><trkpt lat="43.5572676" lon="11.2659299"><ele>335.5</ele><time>2026-03-22T10:11:08.77Z</time></trkpt><trkpt lat="43.5573801" lon="11.2658983"><ele>336.0</ele><time>2026-03-22T10:11:09.769Z</time></trkpt><trkpt lat="43.5575024" lon="11.2658378"><ele>336.0</ele><time>2026-03-22T10:11:10.769Z</time></trkpt><trkpt lat="43.5576306" lon="11.2657633"><ele>336.0</ele><time>2026-03-22T10:11:11.77Z</time></trkpt><trkpt lat="43.5577584" lon="11.2657012"><ele>336.0</ele><time>2026-03-22T10:11:12.771Z</time></trkpt><trkpt lat="43.5578813" lon="11.2656648"><ele>336.0</ele><time>2026-03-22T10:11:13.77Z</time></trkpt><trkpt lat="43.5580021" lon="11.2656525"><ele>337.75</ele><time>2026-03-22T10:11:14.769Z</time></trkpt><trkpt lat="43.5581334" lon="11.2656481"><ele>339.5</ele><time>2026-03-22T10:11:15.77Z</time></trkpt><trkpt lat="43.55828" lon="11.26565"><ele>341.25</ele><time>2026-03-22T10:11:16.769Z</time></trkpt><trkpt lat="43.5584454" lon="11.2656687"><ele>343.0</ele><time>2026-03-22T10:11:17.77Z</time></trkpt><trkpt lat="43.5586244" lon="11.265703"><ele>346.66666666666663</ele><time>2026-03-22T10:11:18.77Z</time></trkpt><trkpt lat="43.5587869" lon="11.2657556"><ele>350.3333333333333</ele><time>2026-03-22T10:11:19.77Z</time></trkpt><trkpt lat="43.5589357" lon="11.2658303"><ele>354.0</ele><time>2026-03-22T10:11:20.769Z</time></trkpt><trkpt lat="43.5590854" lon="11.2659224"><ele>354.0</ele><time>2026-03-22T10:11:21.77Z</time></trkpt><trkpt lat="43.5592166" lon="11.2660079"><ele>354.0</ele><time>2026-03-22T10:11:22.769Z</time></trkpt><trkpt lat="43.559328" lon="11.2660751"><ele>354.0</ele><time>2026-03-22T10:11:23.77Z</time></trkpt><trkpt lat="43.5594328" lon="11.2661325"><ele>354.0</ele><time>2026-03-22T10:11:24.771Z</time></trkpt><trkpt lat="43.5595474" lon="11.2661834"><ele>357.25</ele><time>2026-03-22T10:11:25.77Z</time></trkpt><trkpt lat="43.5596676" lon="11.2662276"><ele>360.5</ele><time>2026-03-22T10:11:26.771Z</time></trkpt><trkpt lat="43.5597939" lon="11.2662724"><ele>363.75</ele><time>2026-03-22T10:11:27.769Z</time></trkpt><trkpt lat="43.5599228" lon="11.2663178"><ele>367.0</ele><time>2026-03-22T10:11:28.77Z</time></trkpt><trkpt lat="43.5600478" lon="11.2663686"><ele>367.0</ele><time>2026-03-22T10:11:29.771Z</time></trkpt><trkpt lat="43.5601717" lon="11.2664255"><ele>367.0</ele><time>2026-03-22T10:11:30.769Z</time></trkpt><trkpt lat="43.5602987" lon="11.2664905"><ele>367.0</ele><time>2026-03-22T10:11:31.769Z</time></trkpt><trkpt lat="43.5604256" lon="11.2665596"><ele>367.0</ele><time>2026-03-22T10:11:32.77Z</time></trkpt><trkpt lat="43.5605531" lon="11.2666258"><ele>369.25</ele><time>2026-03-22T10:11:33.77Z</time></trkpt><trkpt lat="43.5606746" lon="11.2666921"><ele>371.5</ele><time>2026-03-22T10:11:34.77Z</time></trkpt><trkpt lat="43.5607935" lon="11.2667619"><ele>373.75</ele><time>2026-03-22T10:11:35.769Z</time></trkpt><trkpt lat="43.5609068" lon="11.2668257"><ele>376.0</ele><time>2026-03-22T10:11:36.77Z</time></trkpt><trkpt lat="43.5610017" lon="11.2668799"><ele>376.0</ele><time>2026-03-22T10:11:37.769Z</time></trkpt><trkpt lat="43.5610765" lon="11.2669202"><ele>376.0</ele><time>2026-03-22T10:11:38.769Z</time></trkpt><trkpt lat="43.561145" lon="11.2669397"><ele>376.0</ele><time>2026-03-22T10:11:39.769Z</time></trkpt><trkpt lat="43.5612086" lon="11.26694"><ele>376.0</ele><time>2026-03-22T10:11:40.77Z</time></trkpt><trkpt lat="43.5612793" lon="11.2669272"><ele>376.0</ele><time>2026-03-22T10:11:41.771Z</time></trkpt><trkpt lat="43.5613478" lon="11.2669201"><ele>376.0</ele><time>2026-03-22T10:11:42.771Z</time></trkpt><trkpt lat="43.5614162" lon="11.2669336"><ele>376.0</ele><time>2026-03-22T10:11:43.77Z</time></trkpt><trkpt lat="43.5614928" lon="11.26697"><ele>376.4</ele><time>2026-03-22T10:11:44.77Z</time></trkpt><trkpt lat="43.5615853" lon="11.2670153"><ele>376.8</ele><time>2026-03-22T10:11:45.77Z</time></trkpt><trkpt lat="43.5616817" lon="11.2670651"><ele>377.2</ele><time>2026-03-22T10:11:46.77Z</time></trkpt><trkpt lat="43.5617909" lon="11.2671153"><ele>377.59999999999997</ele><time>2026-03-22T10:11:47.77Z</time></trkpt><trkpt lat="43.5619138" lon="11.2671756"><ele>378.0</ele><time>2026-03-22T10:11:48.77Z</time></trkpt><trkpt lat="43.5620449" lon="11.2672365"><ele>379.5</ele><time>2026-03-22T10:11:49.769Z</time></trkpt><trkpt lat="43.5621837" lon="11.267299"><ele>381.0</ele><time>2026-03-22T10:11:50.77Z</time></trkpt><trkpt lat="43.5623263" lon="11.2673625"><ele>382.5</ele><time>2026-03-22T10:11:51.77Z</time></trkpt><trkpt lat="43.5624705" lon="11.2674278"><ele>384.0</ele><time>2026-03-22T10:11:52.771Z</time></trkpt><trkpt lat="43.5626143" lon="11.267495"><ele>384.0</ele><time>2026-03-22T10:11:53.769Z</time></trkpt><trkpt lat="43.562757" lon="11.267562"><ele>384.0</ele><time>2026-03-22T10:11:54.771Z</time></trkpt><trkpt lat="43.5628981" lon="11.2676216"><ele>384.0</ele><time>2026-03-22T10:11:55.769Z</time></trkpt><trkpt lat="43.5630349" lon="11.2676775"><ele>384.0</ele><time>2026-03-22T10:11:56.769Z</time></trkpt><trkpt lat="43.563171" lon="11.2677382"><ele>384.0</ele><time>2026-03-22T10:11:57.77Z</time></trkpt><trkpt lat="43.5632971" lon="11.2677949"><ele>384.0</ele><time>2026-03-22T10:11:58.77Z</time></trkpt><trkpt lat="43.5634187" lon="11.2678494"><ele>384.0</ele><time>2026-03-22T10:11:59.77Z</time></trkpt><trkpt lat="43.5635429" lon="11.2678986"><ele>384.0</ele><time>2026-03-22T10:12:00.771Z</time></trkpt><trkpt lat="43.5636596" lon="11.2679362"><ele>384.75</ele><time>2026-03-22T10:12:01.77Z</time></trkpt><trkpt lat="43.5637715" lon="11.2679519"><ele>385.5</ele><time>2026-03-22T10:12:02.769Z</time></trkpt><trkpt lat="43.5638894" lon="11.2679429"><ele>386.25</ele><time>2026-03-22T10:12:03.769Z</time></trkpt><trkpt lat="43.5640156" lon="11.2679191"><ele>387.0</ele><time>2026-03-22T10:12:04.769Z</time></trkpt><trkpt lat="43.5641339" lon="11.26784"><ele>387.0</ele><time>2026-03-22T10:12:05.769Z</time></trkpt><trkpt lat="43.5642469" lon="11.2677764"><ele>387.0</ele><time>2026-03-22T10:12:06.77Z</time></trkpt><trkpt lat="43.5643537" lon="11.2677315"><ele>387.0</ele><time>2026-03-22T10:12:07.77Z</time></trkpt><trkpt lat="43.5644521" lon="11.2677102"><ele>387.0</ele><time>2026-03-22T10:12:08.77Z</time></trkpt><trkpt lat="43.5645528" lon="11.2677242"><ele>387.0</ele><time>2026-03-22T10:12:09.769Z</time></trkpt><trkpt lat="43.5646628" lon="11.2677825"><ele>385.25</ele><time>2026-03-22T10:12:10.77Z</time></trkpt><trkpt lat="43.5647768" lon="11.2678575"><ele>383.5</ele><time>2026-03-22T10:12:11.771Z</time></trkpt><trkpt lat="43.5648823" lon="11.2679296"><ele>381.75</ele><time>2026-03-22T10:12:12.769Z</time></trkpt><trkpt lat="43.564971" lon="11.2680017"><ele>380.0</ele><time>2026-03-22T10:12:13.769Z</time></trkpt><trkpt lat="43.5650698" lon="11.2680771"><ele>382.25</ele><time>2026-03-22T10:12:14.769Z</time></trkpt><trkpt lat="43.5651254" lon="11.2682301"><ele>384.5</ele><time>2026-03-22T10:12:15.77Z</time></trkpt><trkpt lat="43.5652003" lon="11.2683667"><ele>386.75</ele><time>2026-03-22T10:12:16.77Z</time></trkpt><trkpt lat="43.5652734" lon="11.2685051"><ele>389.0</ele><time>2026-03-22T10:12:17.77Z</time></trkpt><trkpt lat="43.5653467" lon="11.2686207"><ele>387.2</ele><time>2026-03-22T10:12:18.77Z</time></trkpt><trkpt lat="43.5654207" lon="11.2687431"><ele>385.4</ele><time>2026-03-22T10:12:19.769Z</time></trkpt><trkpt lat="43.5655093" lon="11.2688234"><ele>383.6</ele><time>2026-03-22T10:12:20.769Z</time></trkpt><trkpt lat="43.5656022" lon="11.2689075"><ele>381.8</ele><time>2026-03-22T10:12:21.771Z</time></trkpt><trkpt lat="43.5656947" lon="11.2689719"><ele>380.0</ele><time>2026-03-22T10:12:22.769Z</time></trkpt><trkpt lat="43.5657883" lon="11.2690269"><ele>380.0</ele><time>2026-03-22T10:12:23.77Z</time></trkpt><trkpt lat="43.5658718" lon="11.2690954"><ele>380.0</ele><time>2026-03-22T10:12:24.769Z</time></trkpt><trkpt lat="43.5659501" lon="11.2691741"><ele>380.0</ele><time>2026-03-22T10:12:25.769Z</time></trkpt><trkpt lat="43.5660214" lon="11.2692334"><ele>380.0</ele><time>2026-03-22T10:12:26.769Z</time></trkpt><trkpt lat="43.566085" lon="11.2692981"><ele>380.0</ele><time>2026-03-22T10:12:27.769Z</time></trkpt><trkpt lat="43.5661637" lon="11.2693745"><ele>381.8</ele><time>2026-03-22T10:12:28.769Z</time></trkpt><trkpt lat="43.5662227" lon="11.2694729"><ele>383.6</ele><time>2026-03-22T10:12:29.769Z</time></trkpt><trkpt lat="43.5662778" lon="11.2695899"><ele>385.4</ele><time>2026-03-22T10:12:30.77Z</time></trkpt><trkpt lat="43.5663272" lon="11.2696901"><ele>387.2</ele><time>2026-03-22T10:12:31.77Z</time></trkpt><trkpt lat="43.5663554" lon="11.2698369"><ele>389.0</ele><time>2026-03-22T10:12:33.77Z</time></trkpt><trkpt lat="43.5663863" lon="11.269954"><ele>389.75</ele><time>2026-03-22T10:12:35.769Z</time></trkpt><trkpt lat="43.566402" lon="11.2701001"><ele>390.5</ele><time>2026-03-22T10:12:37.769Z</time></trkpt><trkpt lat="43.5664563" lon="11.2702315"><ele>391.25</ele><time>2026-03-22T10:12:39.771Z</time></trkpt><trkpt lat="43.5665285" lon="11.2703685"><ele>392.0</ele><time>2026-03-22T10:12:41.77Z</time></trkpt><trkpt lat="43.5666062" lon="11.2705015"><ele>392.0</ele><time>2026-03-22T10:12:43.77Z</time></trkpt><trkpt lat="43.5666692" lon="11.270574"><ele>392.0</ele><time>2026-03-22T10:12:44.769Z</time></trkpt><trkpt lat="43.566729" lon="11.2706489"><ele>392.0</ele><time>2026-03-22T10:12:45.769Z</time></trkpt><trkpt lat="43.5668318" lon="11.2706936"><ele>392.0</ele><time>2026-03-22T10:12:46.771Z</time></trkpt><trkpt lat="43.5669034" lon="11.2706557"><ele>392.0</ele><time>2026-03-22T10:12:47.77Z</time></trkpt><trkpt lat="43.5670111" lon="11.270647"><ele>393.40000000000003</ele><time>2026-03-22T10:12:48.77Z</time></trkpt><trkpt lat="43.5671186" lon="11.2706732"><ele>394.8</ele><time>2026-03-22T10:12:49.769Z</time></trkpt><trkpt lat="43.5672117" lon="11.2707077"><ele>396.2</ele><time>2026-03-22T10:12:50.769Z</time></trkpt><trkpt lat="43.567324" lon="11.2707601"><ele>397.6</ele><time>2026-03-22T10:12:51.769Z</time></trkpt><trkpt lat="43.5674061" lon="11.2708131"><ele>399.0</ele><time>2026-03-22T10:12:52.77Z</time></trkpt><trkpt lat="43.5674626" lon="11.270889"><ele>399.0</ele><time>2026-03-22T10:12:53.769Z</time></trkpt><trkpt lat="43.5675299" lon="11.2710076"><ele>399.0</ele><time>2026-03-22T10:12:54.769Z</time></trkpt><trkpt lat="43.5675939" lon="11.2711103"><ele>399.0</ele><time>2026-03-22T10:12:55.77Z</time></trkpt><trkpt lat="43.5676937" lon="11.2711785"><ele>399.0</ele><time>2026-03-22T10:12:56.77Z</time></trkpt><trkpt lat="43.567781" lon="11.2712575"><ele>399.0</ele><time>2026-03-22T10:12:57.77Z</time></trkpt><trkpt lat="43.5678676" lon="11.2713514"><ele>401.4</ele><time>2026-03-22T10:12:58.77Z</time></trkpt><trkpt lat="43.5679195" lon="11.2714516"><ele>403.79999999999995</ele><time>2026-03-22T10:12:59.769Z</time></trkpt><trkpt lat="43.5679792" lon="11.2715563"><ele>406.20000000000005</ele><time>2026-03-22T10:13:00.77Z</time></trkpt><trkpt lat="43.568007" lon="11.2716862"><ele>408.6</ele><time>2026-03-22T10:13:01.77Z</time></trkpt><trkpt lat="43.5680569" lon="11.2718045"><ele>411.0</ele><time>2026-03-22T10:13:02.771Z</time></trkpt><trkpt lat="43.5680931" lon="11.2719096"><ele>411.0</ele><time>2026-03-22T10:13:03.769Z</time></trkpt><trkpt lat="43.5681202" lon="11.2720028"><ele>411.0</ele><time>2026-03-22T10:13:04.77Z</time></trkpt><trkpt lat="43.5681466" lon="11.2720977"><ele>411.0</ele><time>2026-03-22T10:13:05.77Z</time></trkpt><trkpt lat="43.568291" lon="11.2721693"><ele>411.0</ele><time>2026-03-22T10:13:07.77Z</time></trkpt><trkpt lat="43.5683879" lon="11.2722407"><ele>411.0</ele><time>2026-03-22T10:13:08.77Z</time></trkpt><trkpt lat="43.5684573" lon="11.2722826"><ele>409.8</ele><time>2026-03-22T10:13:09.77Z</time></trkpt><trkpt lat="43.5685321" lon="11.2723257"><ele>408.6</ele><time>2026-03-22T10:13:10.769Z</time></trkpt><trkpt lat="43.5686388" lon="11.2723609"><ele>407.4</ele><time>2026-03-22T10:13:11.77Z</time></trkpt><trkpt lat="43.5687469" lon="11.272388"><ele>406.2</ele><time>2026-03-22T10:13:12.769Z</time></trkpt><trkpt lat="43.5688529" lon="11.272412"><ele>405.0</ele><time>2026-03-22T10:13:13.77Z</time></trkpt><trkpt lat="43.5689476" lon="11.2724218"><ele>405.0</ele><time>2026-03-22T10:13:14.77Z</time></trkpt><trkpt lat="43.5690422" lon="11.2724377"><ele>405.0</ele><time>2026-03-22T10:13:15.77Z</time></trkpt><trkpt lat="43.5691338" lon="11.2724641"><ele>405.0</ele><time>2026-03-22T10:13:16.77Z</time></trkpt><trkpt lat="43.569256" lon="11.2725094"><ele>405.0</ele><time>2026-03-22T10:13:17.769Z</time></trkpt><trkpt lat="43.5693466" lon="11.2725364"><ele>405.0</ele><time>2026-03-22T10:13:18.771Z</time></trkpt><trkpt lat="43.5694168" lon="11.2725744"><ele>405.0</ele><time>2026-03-22T10:13:19.769Z</time></trkpt><trkpt lat="43.5694933" lon="11.2726279"><ele>405.0</ele><time>2026-03-22T10:13:20.77Z</time></trkpt><trkpt lat="43.5695781" lon="11.2727576"><ele>405.0</ele><time>2026-03-22T10:13:21.769Z</time></trkpt><trkpt lat="43.5696505" lon="11.2728317"><ele>405.0</ele><time>2026-03-22T10:13:22.77Z</time></trkpt><trkpt lat="43.5697303" lon="11.2728873"><ele>405.0</ele><time>2026-03-22T10:13:23.77Z</time></trkpt><trkpt lat="43.5698196" lon="11.2729544"><ele>404.3333333333333</ele><time>2026-03-22T10:13:24.769Z</time></trkpt><trkpt lat="43.5698915" lon="11.2730319"><ele>403.66666666666663</ele><time>2026-03-22T10:13:25.771Z</time></trkpt><trkpt lat="43.569886" lon="11.2731262"><ele>403.0</ele><time>2026-03-22T10:13:26.77Z</time></trkpt><trkpt lat="43.5699035" lon="11.2732318"><ele>402.3333333333333</ele><time>2026-03-22T10:13:27.769Z</time></trkpt><trkpt lat="43.5698902" lon="11.2733178"><ele>401.66666666666663</ele><time>2026-03-22T10:13:28.77Z</time></trkpt><trkpt lat="43.5698918" lon="11.2734772"><ele>401.0</ele><time>2026-03-22T10:13:30.77Z</time></trkpt><trkpt lat="43.569917" lon="11.2735941"><ele>400.99999999999994</ele><time>2026-03-22T10:13:32.769Z</time></trkpt><trkpt lat="43.5699583" lon="11.2737177"><ele>401.0</ele><time>2026-03-22T10:13:34.77Z</time></trkpt><trkpt lat="43.5700039" lon="11.2737961"><ele>401.0</ele><time>2026-03-22T10:13:35.77Z</time></trkpt><trkpt lat="43.5700361" lon="11.2738778"><ele>401.0</ele><time>2026-03-22T10:13:36.77Z</time></trkpt><trkpt lat="43.5700729" lon="11.2739904"><ele>400.99999999999994</ele><time>2026-03-22T10:13:37.77Z</time></trkpt><trkpt lat="43.5701079" lon="11.274093"><ele>401.0</ele><time>2026-03-22T10:13:38.769Z</time></trkpt><trkpt lat="43.5701404" lon="11.2742008"><ele>401.16666666666663</ele><time>2026-03-22T10:13:39.77Z</time></trkpt><trkpt lat="43.5701204" lon="11.2743241"><ele>401.3333333333333</ele><time>2026-03-22T10:13:40.769Z</time></trkpt><trkpt lat="43.5701242" lon="11.2744278"><ele>401.5</ele><time>2026-03-22T10:13:41.77Z</time></trkpt><trkpt lat="43.5701292" lon="11.2745146"><ele>401.66666666666663</ele><time>2026-03-22T10:13:42.77Z</time></trkpt><trkpt lat="43.5701172" lon="11.274655"><ele>401.8333333333333</ele><time>2026-03-22T10:13:44.769Z</time></trkpt><trkpt lat="43.5701067" lon="11.2747416"><ele>402.0</ele><time>2026-03-22T10:13:45.77Z</time></trkpt><trkpt lat="43.5700829" lon="11.2748376"><ele>403.5</ele><time>2026-03-22T10:13:46.769Z</time></trkpt><trkpt lat="43.5700616" lon="11.2749378"><ele>405.0</ele><time>2026-03-22T10:13:47.769Z</time></trkpt><trkpt lat="43.5700426" lon="11.2750465"><ele>406.5</ele><time>2026-03-22T10:13:48.77Z</time></trkpt><trkpt lat="43.5700445" lon="11.2751601"><ele>408.0</ele><time>2026-03-22T10:13:49.769Z</time></trkpt><trkpt lat="43.5700496" lon="11.2752909"><ele>409.5</ele><time>2026-03-22T10:13:50.769Z</time></trkpt><trkpt lat="43.5700773" lon="11.2754109"><ele>411.0</ele><time>2026-03-22T10:13:51.77Z</time></trkpt><trkpt lat="43.5700964" lon="11.2755206"><ele>411.0</ele><time>2026-03-22T10:13:52.769Z</time></trkpt><trkpt lat="43.5701424" lon="11.2755907"><ele>411.0</ele><time>2026-03-22T10:13:53.769Z</time></trkpt><trkpt lat="43.570183" lon="11.2756855"><ele>411.0</ele><time>2026-03-22T10:13:54.769Z</time></trkpt><trkpt lat="43.5702101" lon="11.2757767"><ele>411.0</ele><time>2026-03-22T10:13:55.77Z</time></trkpt><trkpt lat="43.5702356" lon="11.2758726"><ele>411.0</ele><time>2026-03-22T10:13:56.769Z</time></trkpt><trkpt lat="43.5702558" lon="11.2759798"><ele>411.0</ele><time>2026-03-22T10:13:57.769Z</time></trkpt><trkpt lat="43.5702764" lon="11.2760685"><ele>411.0</ele><time>2026-03-22T10:13:58.77Z</time></trkpt><trkpt lat="43.5703486" lon="11.2761859"><ele>414.3333333333333</ele><time>2026-03-22T10:14:00.77Z</time></trkpt><trkpt lat="43.5703603" lon="11.2762761"><ele>417.66666666666663</ele><time>2026-03-22T10:14:01.769Z</time></trkpt><trkpt lat="43.5703643" lon="11.2763638"><ele>421.0</ele><time>2026-03-22T10:14:02.769Z</time></trkpt><trkpt lat="43.5703781" lon="11.2765526"><ele>424.3333333333333</ele><time>2026-03-22T10:14:04.771Z</time></trkpt><trkpt lat="43.5703679" lon="11.2766504"><ele>427.66666666666663</ele><time>2026-03-22T10:14:05.769Z</time></trkpt><trkpt lat="43.5703565" lon="11.2767528"><ele>431.0</ele><time>2026-03-22T10:14:06.769Z</time></trkpt><trkpt lat="43.5703976" lon="11.2769242"><ele>431.0</ele><time>2026-03-22T10:14:08.769Z</time></trkpt><trkpt lat="43.5704131" lon="11.2770129"><ele>431.0</ele><time>2026-03-22T10:14:09.77Z</time></trkpt><trkpt lat="43.5703925" lon="11.2771596"><ele>431.0</ele><time>2026-03-22T10:14:11.769Z</time></trkpt><trkpt lat="43.570306" lon="11.2771904"><ele>431.0</ele><time>2026-03-22T10:14:12.77Z</time></trkpt><trkpt lat="43.5702012" lon="11.2772324"><ele>431.0</ele><time>2026-03-22T10:14:13.77Z</time></trkpt><trkpt lat="43.5701099" lon="11.2772806"><ele>433.6</ele><time>2026-03-22T10:14:15.77Z</time></trkpt><trkpt lat="43.5700432" lon="11.2773972"><ele>436.20000000000005</ele><time>2026-03-22T10:14:17.77Z</time></trkpt><trkpt lat="43.5700556" lon="11.2775076"><ele>438.79999999999995</ele><time>2026-03-22T10:14:19.769Z</time></trkpt><trkpt lat="43.5700821" lon="11.2775936"><ele>441.4</ele><time>2026-03-22T10:14:22.769Z</time></trkpt><trkpt lat="43.5699675" lon="11.2776936"><ele>444.0</ele><time>2026-03-22T10:14:24.771Z</time></trkpt><trkpt lat="43.5698835" lon="11.2777268"><ele>444.0</ele><time>2026-03-22T10:14:25.769Z</time></trkpt><trkpt lat="43.5698061" lon="11.2777766"><ele>444.0</ele><time>2026-03-22T10:14:26.769Z</time></trkpt><trkpt lat="43.5697406" lon="11.2778674"><ele>444.0</ele><time>2026-03-22T10:14:27.77Z</time></trkpt><trkpt lat="43.5696753" lon="11.2779242"><ele>444.0</ele><time>2026-03-22T10:14:28.77Z</time></trkpt><trkpt lat="43.5695966" lon="11.27804"><ele>444.0</ele><time>2026-03-22T10:14:30.769Z</time></trkpt><trkpt lat="43.5695813" lon="11.2781672"><ele>446.6</ele><time>2026-03-22T10:14:32.77Z</time></trkpt><trkpt lat="43.5695901" lon="11.278349"><ele>449.2</ele><time>2026-03-22T10:14:34.77Z</time></trkpt><trkpt lat="43.5695801" lon="11.2784556"><ele>451.80000000000007</ele><time>2026-03-22T10:14:35.771Z</time></trkpt><trkpt lat="43.5695764" lon="11.2785474"><ele>454.40000000000003</ele><time>2026-03-22T10:14:36.77Z</time></trkpt><trkpt lat="43.5696033" lon="11.2786426"><ele>457.0</ele><time>2026-03-22T10:14:37.77Z</time></trkpt><trkpt lat="43.5696658" lon="11.2787659"><ele>457.0</ele><time>2026-03-22T10:14:39.771Z</time></trkpt><trkpt lat="43.5697311" lon="11.2788179"><ele>457.00000000000006</ele><time>2026-03-22T10:14:40.77Z</time></trkpt><trkpt lat="43.5698087" lon="11.278857"><ele>457.00000000000006</ele><time>2026-03-22T10:14:41.769Z</time></trkpt><trkpt lat="43.5698996" lon="11.2788393"><ele>457.0</ele><time>2026-03-22T10:14:42.771Z</time></trkpt><trkpt lat="43.5699942" lon="11.2788655"><ele>457.0</ele><time>2026-03-22T10:14:44.769Z</time></trkpt><trkpt lat="43.570078" lon="11.2790183"><ele>457.6</ele><time>2026-03-22T10:14:46.769Z</time></trkpt><trkpt lat="43.5701528" lon="11.2791578"><ele>458.20000000000005</ele><time>2026-03-22T10:14:47.769Z</time></trkpt><trkpt lat="43.5702231" lon="11.2792805"><ele>458.8</ele><time>2026-03-22T10:14:48.769Z</time></trkpt><trkpt lat="43.5703089" lon="11.2793835"><ele>459.4</ele><time>2026-03-22T10:14:49.77Z</time></trkpt><trkpt lat="43.57036" lon="11.2794717"><ele>460.0</ele><time>2026-03-22T10:14:50.771Z</time></trkpt><trkpt lat="43.5703624" lon="11.2795821"><ele>462.00000000000006</ele><time>2026-03-22T10:14:51.771Z</time></trkpt><trkpt lat="43.57037" lon="11.2796889"><ele>464.0</ele><time>2026-03-22T10:14:52.77Z</time></trkpt><trkpt lat="43.5703667" lon="11.2798096"><ele>466.0</ele><time>2026-03-22T10:14:53.77Z</time></trkpt><trkpt lat="43.5703589" lon="11.2799357"><ele>468.0</ele><time>2026-03-22T10:14:54.769Z</time></trkpt><trkpt lat="43.5703782" lon="11.2800437"><ele>470.00000000000006</ele><time>2026-03-22T10:14:55.769Z</time></trkpt><trkpt lat="43.5703855" lon="11.2801538"><ele>472.0</ele><time>2026-03-22T10:14:56.769Z</time></trkpt><trkpt lat="43.5704008" lon="11.2802578"><ele>472.33333333333337</ele><time>2026-03-22T10:14:57.77Z</time></trkpt><trkpt lat="43.5704362" lon="11.280363"><ele>472.6666666666667</ele><time>2026-03-22T10:14:58.77Z</time></trkpt><trkpt lat="43.5704989" lon="11.2804666"><ele>473.0</ele><time>2026-03-22T10:14:59.769Z</time></trkpt><trkpt lat="43.5705624" lon="11.280557"><ele>473.33333333333337</ele><time>2026-03-22T10:15:00.771Z</time></trkpt><trkpt lat="43.5706052" lon="11.2806268"><ele>473.6666666666667</ele><time>2026-03-22T10:15:01.77Z</time></trkpt><trkpt lat="43.5706672" lon="11.2806857"><ele>474.0</ele><time>2026-03-22T10:15:03.77Z</time></trkpt><trkpt lat="43.5706592" lon="11.2805497"><ele>474.0</ele><time>2026-03-22T10:15:09.771Z</time></trkpt><trkpt lat="43.5706278" lon="11.2803713"><ele>474.0</ele><time>2026-03-22T10:15:11.769Z</time></trkpt><trkpt lat="43.5706353" lon="11.2802609"><ele>474.0</ele><time>2026-03-22T10:15:12.769Z</time></trkpt><trkpt lat="43.5706653" lon="11.280172"><ele>474.0</ele><time>2026-03-22T10:15:13.77Z</time></trkpt><trkpt lat="43.5707687" lon="11.2801131"><ele>474.0</ele><time>2026-03-22T10:15:15.769Z</time></trkpt><trkpt lat="43.5708343" lon="11.2801294"><ele>474.0</ele><time>2026-03-22T10:15:16.77Z</time></trkpt><trkpt lat="43.5709114" lon="11.2801546"><ele>474.0</ele><time>2026-03-22T10:15:17.77Z</time></trkpt><trkpt lat="43.5709929" lon="11.2801906"><ele>474.0</ele><time>2026-03-22T10:15:18.77Z</time></trkpt><trkpt lat="43.5710796" lon="11.28023"><ele>474.0</ele><time>2026-03-22T10:15:19.77Z</time></trkpt><trkpt lat="43.5711791" lon="11.2802611"><ele>474.0</ele><time>2026-03-22T10:15:20.771Z</time></trkpt><trkpt lat="43.571295" lon="11.2802731"><ele>477.25</ele><time>2026-03-22T10:15:21.77Z</time></trkpt><trkpt lat="43.5714203" lon="11.2802434"><ele>480.5</ele><time>2026-03-22T10:15:22.769Z</time></trkpt><trkpt lat="43.5715696" lon="11.2802074"><ele>483.75</ele><time>2026-03-22T10:15:23.77Z</time></trkpt><trkpt lat="43.571719" lon="11.2801788"><ele>487.0</ele><time>2026-03-22T10:15:24.77Z</time></trkpt><trkpt lat="43.5718565" lon="11.2801446"><ele>487.0</ele><time>2026-03-22T10:15:25.77Z</time></trkpt><trkpt lat="43.5719839" lon="11.2800771"><ele>487.0</ele><time>2026-03-22T10:15:26.771Z</time></trkpt><trkpt lat="43.572084" lon="11.2799758"><ele>487.0</ele><time>2026-03-22T10:15:27.77Z</time></trkpt><trkpt lat="43.5721692" lon="11.2798352"><ele>487.0</ele><time>2026-03-22T10:15:28.769Z</time></trkpt><trkpt lat="43.5722301" lon="11.2796693"><ele>490.6666666666667</ele><time>2026-03-22T10:15:29.769Z</time></trkpt><trkpt lat="43.572286" lon="11.2794857"><ele>494.33333333333337</ele><time>2026-03-22T10:15:30.77Z</time></trkpt><trkpt lat="43.5723563" lon="11.2792942"><ele>498.0</ele><time>2026-03-22T10:15:31.77Z</time></trkpt><trkpt lat="43.5724479" lon="11.2791191"><ele>498.0</ele><time>2026-03-22T10:15:32.77Z</time></trkpt><trkpt lat="43.5725567" lon="11.2789558"><ele>498.0</ele><time>2026-03-22T10:15:33.769Z</time></trkpt><trkpt lat="43.5726602" lon="11.2788118"><ele>498.0</ele><time>2026-03-22T10:15:34.769Z</time></trkpt><trkpt lat="43.5727621" lon="11.2786765"><ele>498.0</ele><time>2026-03-22T10:15:35.77Z</time></trkpt><trkpt lat="43.5728712" lon="11.2785552"><ele>500.0</ele><time>2026-03-22T10:15:36.77Z</time></trkpt><trkpt lat="43.5729904" lon="11.2784467"><ele>502.0</ele><time>2026-03-22T10:15:37.77Z</time></trkpt><trkpt lat="43.5731139" lon="11.2783502"><ele>504.0</ele><time>2026-03-22T10:15:38.77Z</time></trkpt><trkpt lat="43.5732382" lon="11.2782575"><ele>506.0</ele><time>2026-03-22T10:15:39.77Z</time></trkpt><trkpt lat="43.5733621" lon="11.2781581"><ele>506.0</ele><time>2026-03-22T10:15:40.77Z</time></trkpt><trkpt lat="43.5734797" lon="11.2780393"><ele>506.0</ele><time>2026-03-22T10:15:41.77Z</time></trkpt><trkpt lat="43.5736018" lon="11.2778939"><ele>506.0</ele><time>2026-03-22T10:15:42.769Z</time></trkpt><trkpt lat="43.5737244" lon="11.2777284"><ele>508.66666666666663</ele><time>2026-03-22T10:15:43.769Z</time></trkpt><trkpt lat="43.5738394" lon="11.2775683"><ele>511.33333333333337</ele><time>2026-03-22T10:15:44.77Z</time></trkpt><trkpt lat="43.5739592" lon="11.2774159"><ele>514.0</ele><time>2026-03-22T10:15:45.769Z</time></trkpt><trkpt lat="43.5740958" lon="11.2772658"><ele>514.0</ele><time>2026-03-22T10:15:46.769Z</time></trkpt><trkpt lat="43.5742195" lon="11.2771461"><ele>514.0</ele><time>2026-03-22T10:15:47.77Z</time></trkpt><trkpt lat="43.5743535" lon="11.2770323"><ele>514.0</ele><time>2026-03-22T10:15:48.77Z</time></trkpt><trkpt lat="43.5744877" lon="11.2769277"><ele>515.6666666666667</ele><time>2026-03-22T10:15:49.77Z</time></trkpt><trkpt lat="43.5746253" lon="11.2768311"><ele>517.3333333333334</ele><time>2026-03-22T10:15:50.769Z</time></trkpt><trkpt lat="43.5747662" lon="11.2767423"><ele>519.0</ele><time>2026-03-22T10:15:51.769Z</time></trkpt><trkpt lat="43.5749098" lon="11.2766558"><ele>519.0</ele><time>2026-03-22T10:15:52.77Z</time></trkpt><trkpt lat="43.5750508" lon="11.2765678"><ele>519.0</ele><time>2026-03-22T10:15:53.771Z</time></trkpt><trkpt lat="43.5751935" lon="11.2764898"><ele>519.0</ele><time>2026-03-22T10:15:54.769Z</time></trkpt><trkpt lat="43.5753239" lon="11.2763951"><ele>521.5</ele><time>2026-03-22T10:15:55.771Z</time></trkpt><trkpt lat="43.5754597" lon="11.276325"><ele>524.0</ele><time>2026-03-22T10:15:56.77Z</time></trkpt><trkpt lat="43.5755936" lon="11.2762468"><ele>526.5</ele><time>2026-03-22T10:15:57.769Z</time></trkpt><trkpt lat="43.5757332" lon="11.2761617"><ele>529.0</ele><time>2026-03-22T10:15:58.769Z</time></trkpt><trkpt lat="43.575867" lon="11.2760802"><ele>529.0</ele><time>2026-03-22T10:15:59.77Z</time></trkpt><trkpt lat="43.575994" lon="11.2760002"><ele>529.0</ele><time>2026-03-22T10:16:00.769Z</time></trkpt><trkpt lat="43.576129" lon="11.2759101"><ele>529.0</ele><time>2026-03-22T10:16:01.77Z</time></trkpt><trkpt lat="43.5762661" lon="11.2758179"><ele>529.0</ele><time>2026-03-22T10:16:02.769Z</time></trkpt><trkpt lat="43.5764095" lon="11.2757109"><ele>528.0</ele><time>2026-03-22T10:16:03.77Z</time></trkpt><trkpt lat="43.5765517" lon="11.2755943"><ele>527.0</ele><time>2026-03-22T10:16:04.769Z</time></trkpt><trkpt lat="43.5766903" lon="11.2754789"><ele>526.0</ele><time>2026-03-22T10:16:05.769Z</time></trkpt><trkpt lat="43.5768358" lon="11.2753581"><ele>526.0</ele><time>2026-03-22T10:16:06.769Z</time></trkpt><trkpt lat="43.5769793" lon="11.2752373"><ele>526.0</ele><time>2026-03-22T10:16:07.769Z</time></trkpt><trkpt lat="43.5771226" lon="11.2751098"><ele>526.0</ele><time>2026-03-22T10:16:08.77Z</time></trkpt><trkpt lat="43.5772743" lon="11.2749802"><ele>521.0</ele><time>2026-03-22T10:16:09.77Z</time></trkpt><trkpt lat="43.5774112" lon="11.2748487"><ele>516.0</ele><time>2026-03-22T10:16:10.771Z</time></trkpt><trkpt lat="43.5775485" lon="11.274702"><ele>511.0</ele><time>2026-03-22T10:16:11.769Z</time></trkpt><trkpt lat="43.57769" lon="11.2745404"><ele>510.33333333333337</ele><time>2026-03-22T10:16:12.77Z</time></trkpt><trkpt lat="43.5778147" lon="11.274385"><ele>509.66666666666663</ele><time>2026-03-22T10:16:13.769Z</time></trkpt><trkpt lat="43.5779283" lon="11.2742299"><ele>509.0</ele><time>2026-03-22T10:16:14.769Z</time></trkpt><trkpt lat="43.5780356" lon="11.2740948"><ele>506.0</ele><time>2026-03-22T10:16:15.769Z</time></trkpt><trkpt lat="43.578142" lon="11.2739873"><ele>503.0</ele><time>2026-03-22T10:16:16.769Z</time></trkpt><trkpt lat="43.578263" lon="11.2739275"><ele>500.0</ele><time>2026-03-22T10:16:17.769Z</time></trkpt><trkpt lat="43.57839" lon="11.2738919"><ele>497.0</ele><time>2026-03-22T10:16:18.769Z</time></trkpt><trkpt lat="43.5785246" lon="11.2738635"><ele>495.8</ele><time>2026-03-22T10:16:19.77Z</time></trkpt><trkpt lat="43.5786471" lon="11.2738338"><ele>494.6</ele><time>2026-03-22T10:16:20.77Z</time></trkpt><trkpt lat="43.5787583" lon="11.273814"><ele>493.40000000000003</ele><time>2026-03-22T10:16:21.769Z</time></trkpt><trkpt lat="43.5788287" lon="11.2737514"><ele>492.20000000000005</ele><time>2026-03-22T10:16:22.77Z</time></trkpt><trkpt lat="43.5788915" lon="11.2736748"><ele>491.0</ele><time>2026-03-22T10:16:23.77Z</time></trkpt><trkpt lat="43.5789517" lon="11.2735862"><ele>491.0</ele><time>2026-03-22T10:16:24.769Z</time></trkpt><trkpt lat="43.5789658" lon="11.2734445"><ele>491.0</ele><time>2026-03-22T10:16:25.77Z</time></trkpt><trkpt lat="43.5790204" lon="11.2733449"><ele>491.0</ele><time>2026-03-22T10:16:26.771Z</time></trkpt><trkpt lat="43.5791086" lon="11.2732401"><ele>491.0</ele><time>2026-03-22T10:16:27.769Z</time></trkpt><trkpt lat="43.579225" lon="11.2731341"><ele>487.0</ele><time>2026-03-22T10:16:28.77Z</time></trkpt><trkpt lat="43.5793552" lon="11.2730234"><ele>483.0</ele><time>2026-03-22T10:16:29.77Z</time></trkpt><trkpt lat="43.5794888" lon="11.2729106"><ele>479.0</ele><time>2026-03-22T10:16:30.77Z</time></trkpt><trkpt lat="43.5796161" lon="11.2727913"><ele>479.0</ele><time>2026-03-22T10:16:31.769Z</time></trkpt><trkpt lat="43.5797533" lon="11.2726683"><ele>479.0</ele><time>2026-03-22T10:16:32.771Z</time></trkpt><trkpt lat="43.5799027" lon="11.2725487"><ele>479.0</ele><time>2026-03-22T10:16:33.771Z</time></trkpt><trkpt lat="43.5800582" lon="11.2724332"><ele>479.0</ele><time>2026-03-22T10:16:34.769Z</time></trkpt><trkpt lat="43.5802236" lon="11.2723151"><ele>479.0</ele><time>2026-03-22T10:16:35.77Z</time></trkpt><trkpt lat="43.5803784" lon="11.2722155"><ele>479.0</ele><time>2026-03-22T10:16:36.77Z</time></trkpt><trkpt lat="43.5805443" lon="11.2721425"><ele>477.66666666666663</ele><time>2026-03-22T10:16:37.77Z</time></trkpt><trkpt lat="43.5807059" lon="11.2720934"><ele>476.33333333333337</ele><time>2026-03-22T10:16:38.769Z</time></trkpt><trkpt lat="43.5808628" lon="11.2720475"><ele>475.0</ele><time>2026-03-22T10:16:39.769Z</time></trkpt><trkpt lat="43.5810122" lon="11.2719915"><ele>475.0</ele><time>2026-03-22T10:16:40.77Z</time></trkpt><trkpt lat="43.5811505" lon="11.2719145"><ele>475.0</ele><time>2026-03-22T10:16:41.77Z</time></trkpt><trkpt lat="43.5812733" lon="11.2718132"><ele>475.0</ele><time>2026-03-22T10:16:42.77Z</time></trkpt><trkpt lat="43.5813853" lon="11.2716924"><ele>475.0</ele><time>2026-03-22T10:16:43.77Z</time></trkpt><trkpt lat="43.5814937" lon="11.2715598"><ele>475.33333333333337</ele><time>2026-03-22T10:16:44.769Z</time></trkpt><trkpt lat="43.5816147" lon="11.2714359"><ele>475.66666666666663</ele><time>2026-03-22T10:16:45.77Z</time></trkpt><trkpt lat="43.5817551" lon="11.2713188"><ele>476.0</ele><time>2026-03-22T10:16:46.771Z</time></trkpt><trkpt lat="43.5819043" lon="11.2712048"><ele>478.3333333333333</ele><time>2026-03-22T10:16:47.771Z</time></trkpt><trkpt lat="43.5820574" lon="11.2710882"><ele>480.66666666666663</ele><time>2026-03-22T10:16:48.769Z</time></trkpt><trkpt lat="43.582214" lon="11.2709771"><ele>483.0</ele><time>2026-03-22T10:16:49.77Z</time></trkpt><trkpt lat="43.5823652" lon="11.270868"><ele>483.0</ele><time>2026-03-22T10:16:50.77Z</time></trkpt><trkpt lat="43.5825153" lon="11.2707559"><ele>483.0</ele><time>2026-03-22T10:16:51.77Z</time></trkpt><trkpt lat="43.5826611" lon="11.2706402"><ele>483.0</ele><time>2026-03-22T10:16:52.77Z</time></trkpt><trkpt lat="43.582805" lon="11.2705242"><ele>483.0</ele><time>2026-03-22T10:16:53.77Z</time></trkpt><trkpt lat="43.5829408" lon="11.2704072"><ele>483.0</ele><time>2026-03-22T10:16:54.769Z</time></trkpt><trkpt lat="43.5830727" lon="11.2702909"><ele>483.0</ele><time>2026-03-22T10:16:55.77Z</time></trkpt><trkpt lat="43.5831986" lon="11.2701725"><ele>483.0</ele><time>2026-03-22T10:16:56.769Z</time></trkpt><trkpt lat="43.583333" lon="11.2700587"><ele>483.0</ele><time>2026-03-22T10:16:57.77Z</time></trkpt><trkpt lat="43.5834625" lon="11.2699394"><ele>483.0</ele><time>2026-03-22T10:16:58.769Z</time></trkpt><trkpt lat="43.5835903" lon="11.2698224"><ele>483.33333333333337</ele><time>2026-03-22T10:16:59.77Z</time></trkpt><trkpt lat="43.5837206" lon="11.269715"><ele>483.6666666666667</ele><time>2026-03-22T10:17:00.77Z</time></trkpt><trkpt lat="43.5838519" lon="11.2696091"><ele>484.0</ele><time>2026-03-22T10:17:01.771Z</time></trkpt><trkpt lat="43.5839826" lon="11.2695081"><ele>484.0</ele><time>2026-03-22T10:17:02.769Z</time></trkpt><trkpt lat="43.5841153" lon="11.2694093"><ele>484.0</ele><time>2026-03-22T10:17:03.77Z</time></trkpt><trkpt lat="43.5842445" lon="11.2693082"><ele>484.0</ele><time>2026-03-22T10:17:04.77Z</time></trkpt><trkpt lat="43.5843764" lon="11.2692208"><ele>484.0</ele><time>2026-03-22T10:17:05.769Z</time></trkpt><trkpt lat="43.5845146" lon="11.2691465"><ele>483.75</ele><time>2026-03-22T10:17:06.769Z</time></trkpt><trkpt lat="43.584648" lon="11.2690838"><ele>483.5</ele><time>2026-03-22T10:17:07.77Z</time></trkpt><trkpt lat="43.5847706" lon="11.2690397"><ele>483.25</ele><time>2026-03-22T10:17:08.769Z</time></trkpt><trkpt lat="43.5848954" lon="11.2690016"><ele>483.0</ele><time>2026-03-22T10:17:09.77Z</time></trkpt><trkpt lat="43.5850114" lon="11.2689855"><ele>483.0</ele><time>2026-03-22T10:17:10.769Z</time></trkpt><trkpt lat="43.5851135" lon="11.2689832"><ele>482.99999999999994</ele><time>2026-03-22T10:17:11.77Z</time></trkpt><trkpt lat="43.5852" lon="11.268988"><ele>482.99999999999994</ele><time>2026-03-22T10:17:12.771Z</time></trkpt><trkpt lat="43.5852879" lon="11.2690731"><ele>483.0</ele><time>2026-03-22T10:17:14.77Z</time></trkpt><trkpt lat="43.5853184" lon="11.2691706"><ele>483.0</ele><time>2026-03-22T10:17:15.77Z</time></trkpt><trkpt lat="43.5853485" lon="11.2692999"><ele>483.25</ele><time>2026-03-22T10:17:16.769Z</time></trkpt><trkpt lat="43.5853849" lon="11.2694475"><ele>483.5</ele><time>2026-03-22T10:17:17.769Z</time></trkpt><trkpt lat="43.5854331" lon="11.2696154"><ele>483.75</ele><time>2026-03-22T10:17:18.77Z</time></trkpt><trkpt lat="43.5854875" lon="11.2698006"><ele>484.0</ele><time>2026-03-22T10:17:19.77Z</time></trkpt><trkpt lat="43.5855484" lon="11.2699987"><ele>481.6666666666667</ele><time>2026-03-22T10:17:20.77Z</time></trkpt><trkpt lat="43.5856039" lon="11.2701927"><ele>479.33333333333337</ele><time>2026-03-22T10:17:21.77Z</time></trkpt><trkpt lat="43.5856584" lon="11.2703889"><ele>477.0</ele><time>2026-03-22T10:17:22.77Z</time></trkpt><trkpt lat="43.5857156" lon="11.2705849"><ele>477.25</ele><time>2026-03-22T10:17:23.769Z</time></trkpt><trkpt lat="43.5857722" lon="11.2707804"><ele>477.5</ele><time>2026-03-22T10:17:24.77Z</time></trkpt><trkpt lat="43.5858259" lon="11.2709608"><ele>477.75</ele><time>2026-03-22T10:17:25.77Z</time></trkpt><trkpt lat="43.5858712" lon="11.2711227"><ele>478.0</ele><time>2026-03-22T10:17:26.769Z</time></trkpt><trkpt lat="43.5859103" lon="11.2712686"><ele>478.0</ele><time>2026-03-22T10:17:27.77Z</time></trkpt><trkpt lat="43.5859452" lon="11.2713972"><ele>477.99999999999994</ele><time>2026-03-22T10:17:28.769Z</time></trkpt><trkpt lat="43.5859788" lon="11.2715109"><ele>477.99999999999994</ele><time>2026-03-22T10:17:29.769Z</time></trkpt><trkpt lat="43.5860082" lon="11.2716118"><ele>478.0</ele><time>2026-03-22T10:17:30.769Z</time></trkpt><trkpt lat="43.5860784" lon="11.2717404"><ele>478.0</ele><time>2026-03-22T10:17:32.77Z</time></trkpt><trkpt lat="43.5861696" lon="11.2718325"><ele>477.4</ele><time>2026-03-22T10:17:34.77Z</time></trkpt><trkpt lat="43.5862484" lon="11.2719393"><ele>476.79999999999995</ele><time>2026-03-22T10:17:36.77Z</time></trkpt><trkpt lat="43.5862959" lon="11.272082"><ele>476.2</ele><time>2026-03-22T10:17:38.771Z</time></trkpt><trkpt lat="43.586319" lon="11.2722156"><ele>475.6</ele><time>2026-03-22T10:17:40.769Z</time></trkpt><trkpt lat="43.5863314" lon="11.2723709"><ele>475.0</ele><time>2026-03-22T10:17:42.769Z</time></trkpt><trkpt lat="43.5862794" lon="11.2725077"><ele>475.00000000000006</ele><time>2026-03-22T10:17:44.771Z</time></trkpt><trkpt lat="43.586222" lon="11.2726354"><ele>475.0</ele><time>2026-03-22T10:17:46.77Z</time></trkpt><trkpt lat="43.5861925" lon="11.2727231"><ele>475.0</ele><time>2026-03-22T10:17:48.771Z</time></trkpt><trkpt lat="43.5861948" lon="11.2728235"><ele>475.0</ele><time>2026-03-22T10:17:50.77Z</time></trkpt><trkpt lat="43.5862423" lon="11.2729081"><ele>475.00000000000006</ele><time>2026-03-22T10:17:52.77Z</time></trkpt><trkpt lat="43.5863237" lon="11.2729435"><ele>475.0</ele><time>2026-03-22T10:17:54.77Z</time></trkpt><trkpt lat="43.586381" lon="11.2730568"><ele>475.4</ele><time>2026-03-22T10:17:56.77Z</time></trkpt><trkpt lat="43.5864189" lon="11.273138"><ele>475.8</ele><time>2026-03-22T10:17:57.769Z</time></trkpt><trkpt lat="43.586449" lon="11.2732321"><ele>476.20000000000005</ele><time>2026-03-22T10:17:58.77Z</time></trkpt><trkpt lat="43.5865033" lon="11.2733535"><ele>476.6</ele><time>2026-03-22T10:17:59.77Z</time></trkpt><trkpt lat="43.5865447" lon="11.2734857"><ele>477.0</ele><time>2026-03-22T10:18:00.771Z</time></trkpt><trkpt lat="43.5865948" lon="11.2736193"><ele>477.0</ele><time>2026-03-22T10:18:01.77Z</time></trkpt><trkpt lat="43.5866133" lon="11.2737474"><ele>477.00000000000006</ele><time>2026-03-22T10:18:02.769Z</time></trkpt><trkpt lat="43.5866499" lon="11.2738606"><ele>477.00000000000006</ele><time>2026-03-22T10:18:03.77Z</time></trkpt><trkpt lat="43.5867002" lon="11.2739765"><ele>477.0</ele><time>2026-03-22T10:18:04.77Z</time></trkpt><trkpt lat="43.5867727" lon="11.2740742"><ele>477.0</ele><time>2026-03-22T10:18:05.769Z</time></trkpt><trkpt lat="43.5868315" lon="11.2741833"><ele>476.20000000000005</ele><time>2026-03-22T10:18:06.77Z</time></trkpt><trkpt lat="43.5868915" lon="11.2743062"><ele>475.40000000000003</ele><time>2026-03-22T10:18:07.769Z</time></trkpt><trkpt lat="43.5869378" lon="11.2744568"><ele>474.59999999999997</ele><time>2026-03-22T10:18:08.769Z</time></trkpt><trkpt lat="43.5869803" lon="11.2746033"><ele>473.79999999999995</ele><time>2026-03-22T10:18:09.769Z</time></trkpt><trkpt lat="43.5870153" lon="11.2747169"><ele>473.0</ele><time>2026-03-22T10:18:10.77Z</time></trkpt><trkpt lat="43.5870521" lon="11.274837"><ele>469.59999999999997</ele><time>2026-03-22T10:18:11.77Z</time></trkpt><trkpt lat="43.5870886" lon="11.2749405"><ele>466.19999999999993</ele><time>2026-03-22T10:18:12.77Z</time></trkpt><trkpt lat="43.5871385" lon="11.2750372"><ele>462.8</ele><time>2026-03-22T10:18:13.77Z</time></trkpt><trkpt lat="43.5871885" lon="11.2751446"><ele>459.4</ele><time>2026-03-22T10:18:14.77Z</time></trkpt><trkpt lat="43.5872511" lon="11.2752791"><ele>456.0</ele><time>2026-03-22T10:18:15.771Z</time></trkpt><trkpt lat="43.5872798" lon="11.2753896"><ele>456.0</ele><time>2026-03-22T10:18:16.77Z</time></trkpt><trkpt lat="43.5873293" lon="11.2754927"><ele>456.0</ele><time>2026-03-22T10:18:17.769Z</time></trkpt><trkpt lat="43.587389" lon="11.2755752"><ele>456.0</ele><time>2026-03-22T10:18:18.769Z</time></trkpt><trkpt lat="43.5874425" lon="11.2756622"><ele>456.0</ele><time>2026-03-22T10:18:19.769Z</time></trkpt><trkpt lat="43.5875043" lon="11.2757527"><ele>456.0</ele><time>2026-03-22T10:18:20.769Z</time></trkpt><trkpt lat="43.5875322" lon="11.2758787"><ele>456.0</ele><time>2026-03-22T10:18:21.77Z</time></trkpt><trkpt lat="43.5875551" lon="11.2760181"><ele>456.1666666666667</ele><time>2026-03-22T10:18:22.769Z</time></trkpt><trkpt lat="43.5875697" lon="11.2761315"><ele>456.33333333333337</ele><time>2026-03-22T10:18:23.77Z</time></trkpt><trkpt lat="43.5875807" lon="11.2762396"><ele>456.5</ele><time>2026-03-22T10:18:24.769Z</time></trkpt><trkpt lat="43.5875891" lon="11.2763605"><ele>456.6666666666667</ele><time>2026-03-22T10:18:25.77Z</time></trkpt><trkpt lat="43.5875885" lon="11.2764813"><ele>456.83333333333337</ele><time>2026-03-22T10:18:26.769Z</time></trkpt><trkpt lat="43.5875813" lon="11.2765866"><ele>457.0</ele><time>2026-03-22T10:18:27.77Z</time></trkpt><trkpt lat="43.5875687" lon="11.2767165"><ele>456.0</ele><time>2026-03-22T10:18:28.769Z</time></trkpt><trkpt lat="43.5875402" lon="11.2768506"><ele>455.00000000000006</ele><time>2026-03-22T10:18:29.769Z</time></trkpt><trkpt lat="43.5874791" lon="11.2769781"><ele>454.00000000000006</ele><time>2026-03-22T10:18:30.77Z</time></trkpt><trkpt lat="43.5874354" lon="11.2771141"><ele>453.0</ele><time>2026-03-22T10:18:31.77Z</time></trkpt><trkpt lat="43.5874153" lon="11.2772041"><ele>452.0</ele><time>2026-03-22T10:18:32.769Z</time></trkpt><trkpt lat="43.5873879" lon="11.2772982"><ele>449.0</ele><time>2026-03-22T10:18:33.769Z</time></trkpt><trkpt lat="43.5873213" lon="11.2774345"><ele>446.00000000000006</ele><time>2026-03-22T10:18:35.77Z</time></trkpt><trkpt lat="43.5872494" lon="11.277512"><ele>443.00000000000006</ele><time>2026-03-22T10:18:37.771Z</time></trkpt><trkpt lat="43.5871392" lon="11.2775107"><ele>440.0</ele><time>2026-03-22T10:18:39.77Z</time></trkpt><trkpt lat="43.587048" lon="11.2774815"><ele>437.0</ele><time>2026-03-22T10:18:40.77Z</time></trkpt><trkpt lat="43.5869567" lon="11.2774746"><ele>435.85714285714283</ele><time>2026-03-22T10:18:41.769Z</time></trkpt><trkpt lat="43.5868729" lon="11.2774604"><ele>434.7142857142857</ele><time>2026-03-22T10:18:42.77Z</time></trkpt><trkpt lat="43.5868015" lon="11.2774335"><ele>433.57142857142856</ele><time>2026-03-22T10:18:43.77Z</time></trkpt><trkpt lat="43.5867266" lon="11.2774147"><ele>432.42857142857144</ele><time>2026-03-22T10:18:44.769Z</time></trkpt><trkpt lat="43.5866634" lon="11.2774022"><ele>431.28571428571433</ele><time>2026-03-22T10:18:45.77Z</time></trkpt><trkpt lat="43.5865863" lon="11.2774048"><ele>430.14285714285717</ele><time>2026-03-22T10:18:46.77Z</time></trkpt><trkpt lat="43.5865129" lon="11.2774108"><ele>429.0</ele><time>2026-03-22T10:18:47.769Z</time></trkpt><trkpt lat="43.5864372" lon="11.2774146"><ele>429.0</ele><time>2026-03-22T10:18:48.769Z</time></trkpt><trkpt lat="43.5863712" lon="11.2774221"><ele>429.0</ele><time>2026-03-22T10:18:49.77Z</time></trkpt><trkpt lat="43.586301" lon="11.277421"><ele>429.0</ele><time>2026-03-22T10:18:50.771Z</time></trkpt><trkpt lat="43.586236" lon="11.2774135"><ele>429.0</ele><time>2026-03-22T10:18:51.77Z</time></trkpt><trkpt lat="43.5861635" lon="11.2774383"><ele>429.0</ele><time>2026-03-22T10:18:52.769Z</time></trkpt><trkpt lat="43.5860983" lon="11.2774692"><ele>429.0</ele><time>2026-03-22T10:18:53.769Z</time></trkpt><trkpt lat="43.5860263" lon="11.2775574"><ele>429.0</ele><time>2026-03-22T10:18:54.77Z</time></trkpt><trkpt lat="43.5859506" lon="11.277606"><ele>429.0</ele><time>2026-03-22T10:18:55.77Z</time></trkpt><trkpt lat="43.5858395" lon="11.2776882"><ele>429.0</ele><time>2026-03-22T10:18:57.769Z</time></trkpt><trkpt lat="43.5858538" lon="11.2777891"><ele>429.0</ele><time>2026-03-22T10:18:59.769Z</time></trkpt><trkpt lat="43.5859272" lon="11.277822"><ele>429.0</ele><time>2026-03-22T10:19:01.77Z</time></trkpt><trkpt lat="43.5860093" lon="11.2778139"><ele>429.0</ele><time>2026-03-22T10:19:02.769Z</time></trkpt><trkpt lat="43.5860825" lon="11.2778175"><ele>429.0</ele><time>2026-03-22T10:19:03.77Z</time></trkpt><trkpt lat="43.5861843" lon="11.2779265"><ele>429.0</ele><time>2026-03-22T10:19:05.769Z</time></trkpt><trkpt lat="43.5863321" lon="11.2779766"><ele>429.0</ele><time>2026-03-22T10:19:07.771Z</time></trkpt><trkpt lat="43.5864049" lon="11.2780191"><ele>429.0</ele><time>2026-03-22T10:19:08.77Z</time></trkpt><trkpt lat="43.5865176" lon="11.2780924"><ele>429.0</ele><time>2026-03-22T10:19:09.77Z</time></trkpt><trkpt lat="43.5866273" lon="11.2781463"><ele>427.4</ele><time>2026-03-22T10:19:10.769Z</time></trkpt><trkpt lat="43.5867118" lon="11.2782135"><ele>425.79999999999995</ele><time>2026-03-22T10:19:11.769Z</time></trkpt><trkpt lat="43.5867884" lon="11.2782907"><ele>424.20000000000005</ele><time>2026-03-22T10:19:12.771Z</time></trkpt><trkpt lat="43.5868755" lon="11.2784057"><ele>422.6</ele><time>2026-03-22T10:19:13.77Z</time></trkpt><trkpt lat="43.5869458" lon="11.2785155"><ele>421.0</ele><time>2026-03-22T10:19:14.769Z</time></trkpt><trkpt lat="43.5870201" lon="11.278646"><ele>421.0</ele><time>2026-03-22T10:19:15.77Z</time></trkpt><trkpt lat="43.5870995" lon="11.2787408"><ele>421.0</ele><time>2026-03-22T10:19:16.771Z</time></trkpt><trkpt lat="43.5872157" lon="11.2788534"><ele>421.0</ele><time>2026-03-22T10:19:17.769Z</time></trkpt><trkpt lat="43.5873223" lon="11.2789611"><ele>421.0</ele><time>2026-03-22T10:19:18.769Z</time></trkpt><trkpt lat="43.5874061" lon="11.279066"><ele>418.00000000000006</ele><time>2026-03-22T10:19:19.77Z</time></trkpt><trkpt lat="43.5874809" lon="11.2791508"><ele>415.0</ele><time>2026-03-22T10:19:20.77Z</time></trkpt><trkpt lat="43.5875342" lon="11.2792288"><ele>412.0</ele><time>2026-03-22T10:19:21.77Z</time></trkpt><trkpt lat="43.5875882" lon="11.2793121"><ele>409.0</ele><time>2026-03-22T10:19:22.769Z</time></trkpt><trkpt lat="43.5876479" lon="11.2793857"><ele>406.00000000000006</ele><time>2026-03-22T10:19:23.769Z</time></trkpt><trkpt lat="43.5877189" lon="11.2794456"><ele>403.0</ele><time>2026-03-22T10:19:24.77Z</time></trkpt><trkpt lat="43.5878455" lon="11.2794592"><ele>403.0</ele><time>2026-03-22T10:19:25.77Z</time></trkpt><trkpt lat="43.5879668" lon="11.2794847"><ele>403.0</ele><time>2026-03-22T10:19:26.771Z</time></trkpt><trkpt lat="43.5880719" lon="11.2795072"><ele>403.0</ele><time>2026-03-22T10:19:27.771Z</time></trkpt><trkpt lat="43.5881837" lon="11.2795353"><ele>403.0</ele><time>2026-03-22T10:19:28.77Z</time></trkpt><trkpt lat="43.58827" lon="11.2795723"><ele>403.0</ele><time>2026-03-22T10:19:29.769Z</time></trkpt><trkpt lat="43.5883748" lon="11.279601"><ele>403.0</ele><time>2026-03-22T10:19:30.77Z</time></trkpt><trkpt lat="43.5884758" lon="11.2796019"><ele>403.0</ele><time>2026-03-22T10:19:31.769Z</time></trkpt><trkpt lat="43.5885812" lon="11.2795919"><ele>403.0</ele><time>2026-03-22T10:19:32.77Z</time></trkpt><trkpt lat="43.5886863" lon="11.2795906"><ele>403.0</ele><time>2026-03-22T10:19:33.769Z</time></trkpt><trkpt lat="43.5887971" lon="11.2795651"><ele>403.0</ele><time>2026-03-22T10:19:34.77Z</time></trkpt><trkpt lat="43.5889021" lon="11.2795524"><ele>401.1666666666667</ele><time>2026-03-22T10:19:35.77Z</time></trkpt><trkpt lat="43.588995" lon="11.2795446"><ele>399.33333333333337</ele><time>2026-03-22T10:19:36.77Z</time></trkpt><trkpt lat="43.5890754" lon="11.2795071"><ele>397.5</ele><time>2026-03-22T10:19:37.769Z</time></trkpt><trkpt lat="43.5891528" lon="11.2794472"><ele>395.66666666666663</ele><time>2026-03-22T10:19:38.77Z</time></trkpt><trkpt lat="43.5892295" lon="11.2793791"><ele>393.8333333333333</ele><time>2026-03-22T10:19:39.77Z</time></trkpt><trkpt lat="43.5892803" lon="11.27931"><ele>392.0</ele><time>2026-03-22T10:19:40.77Z</time></trkpt><trkpt lat="43.5893459" lon="11.2791924"><ele>392.0</ele><time>2026-03-22T10:19:41.77Z</time></trkpt><trkpt lat="43.5893588" lon="11.2790008"><ele>392.0</ele><time>2026-03-22T10:19:42.77Z</time></trkpt><trkpt lat="43.5893719" lon="11.2788526"><ele>392.0</ele><time>2026-03-22T10:19:43.769Z</time></trkpt><trkpt lat="43.5893879" lon="11.2786982"><ele>392.0</ele><time>2026-03-22T10:19:44.769Z</time></trkpt><trkpt lat="43.5894145" lon="11.2785549"><ele>390.6</ele><time>2026-03-22T10:19:45.771Z</time></trkpt><trkpt lat="43.5894285" lon="11.2784198"><ele>389.20000000000005</ele><time>2026-03-22T10:19:46.769Z</time></trkpt><trkpt lat="43.5894422" lon="11.2782954"><ele>387.8</ele><time>2026-03-22T10:19:47.769Z</time></trkpt><trkpt lat="43.5894747" lon="11.2781832"><ele>386.4</ele><time>2026-03-22T10:19:48.77Z</time></trkpt><trkpt lat="43.5895466" lon="11.2780285"><ele>385.0</ele><time>2026-03-22T10:19:50.769Z</time></trkpt><trkpt lat="43.5896243" lon="11.2780192"><ele>385.0</ele><time>2026-03-22T10:19:51.77Z</time></trkpt><trkpt lat="43.5896702" lon="11.2779418"><ele>385.0</ele><time>2026-03-22T10:19:52.769Z</time></trkpt><trkpt lat="43.5897061" lon="11.2778422"><ele>385.0</ele><time>2026-03-22T10:19:53.77Z</time></trkpt><trkpt lat="43.589747" lon="11.2776896"><ele>385.0</ele><time>2026-03-22T10:19:55.77Z</time></trkpt><trkpt lat="43.5897665" lon="11.2775542"><ele>385.0</ele><time>2026-03-22T10:19:56.769Z</time></trkpt><trkpt lat="43.5897876" lon="11.2774459"><ele>385.0</ele><time>2026-03-22T10:19:57.771Z</time></trkpt><trkpt lat="43.58984" lon="11.2773114"><ele>385.0</ele><time>2026-03-22T10:19:59.769Z</time></trkpt><trkpt lat="43.5898142" lon="11.2771867"><ele>385.0</ele><time>2026-03-22T10:20:00.77Z</time></trkpt><trkpt lat="43.5897839" lon="11.2770302"><ele>385.0</ele><time>2026-03-22T10:20:02.769Z</time></trkpt><trkpt lat="43.5897919" lon="11.2769407"><ele>385.0</ele><time>2026-03-22T10:20:04.771Z</time></trkpt><trkpt lat="43.5898714" lon="11.2769197"><ele>386.6</ele><time>2026-03-22T10:20:06.77Z</time></trkpt><trkpt lat="43.5899711" lon="11.2768609"><ele>388.2</ele><time>2026-03-22T10:20:08.771Z</time></trkpt><trkpt lat="43.590054" lon="11.2767608"><ele>389.79999999999995</ele><time>2026-03-22T10:20:10.769Z</time></trkpt><trkpt lat="43.5901285" lon="11.2767485"><ele>391.4</ele><time>2026-03-22T10:20:12.771Z</time></trkpt><trkpt lat="43.5902063" lon="11.2766861"><ele>393.0</ele><time>2026-03-22T10:20:14.77Z</time></trkpt><trkpt lat="43.590314" lon="11.2767031"><ele>395.0</ele><time>2026-03-22T10:20:16.769Z</time></trkpt><trkpt lat="43.5903698" lon="11.2767792"><ele>397.0</ele><time>2026-03-22T10:20:17.77Z</time></trkpt><trkpt lat="43.590418" lon="11.2768486"><ele>399.0</ele><time>2026-03-22T10:20:18.769Z</time></trkpt><trkpt lat="43.5904906" lon="11.2769187"><ele>401.0</ele><time>2026-03-22T10:20:19.771Z</time></trkpt><trkpt lat="43.590551" lon="11.2769667"><ele>403.0</ele><time>2026-03-22T10:20:20.769Z</time></trkpt><trkpt lat="43.5906348" lon="11.2771244"><ele>405.0</ele><time>2026-03-22T10:20:22.771Z</time></trkpt><trkpt lat="43.5906423" lon="11.2772319"><ele>404.2</ele><time>2026-03-22T10:20:23.769Z</time></trkpt><trkpt lat="43.5906167" lon="11.2773892"><ele>403.4</ele><time>2026-03-22T10:20:24.769Z</time></trkpt><trkpt lat="43.5905927" lon="11.2775527"><ele>402.6</ele><time>2026-03-22T10:20:25.77Z</time></trkpt><trkpt lat="43.5905976" lon="11.2776925"><ele>401.8</ele><time>2026-03-22T10:20:26.769Z</time></trkpt><trkpt lat="43.5906197" lon="11.2778183"><ele>401.0</ele><time>2026-03-22T10:20:27.77Z</time></trkpt><trkpt lat="43.5906738" lon="11.2779376"><ele>400.99999999999994</ele><time>2026-03-22T10:20:28.771Z</time></trkpt><trkpt lat="43.5907053" lon="11.2780718"><ele>401.0</ele><time>2026-03-22T10:20:29.769Z</time></trkpt><trkpt lat="43.5907139" lon="11.2781996"><ele>401.0</ele><time>2026-03-22T10:20:30.77Z</time></trkpt><trkpt lat="43.59071" lon="11.2783241"><ele>401.0</ele><time>2026-03-22T10:20:31.769Z</time></trkpt><trkpt lat="43.5907" lon="11.2784232"><ele>400.99999999999994</ele><time>2026-03-22T10:20:32.769Z</time></trkpt><trkpt lat="43.5907232" lon="11.2785435"><ele>401.0</ele><time>2026-03-22T10:20:34.769Z</time></trkpt><trkpt lat="43.5907731" lon="11.2786563"><ele>400.0</ele><time>2026-03-22T10:20:36.77Z</time></trkpt><trkpt lat="43.5907648" lon="11.2787902"><ele>399.0</ele><time>2026-03-22T10:20:38.769Z</time></trkpt><trkpt lat="43.5907564" lon="11.2789449"><ele>398.0</ele><time>2026-03-22T10:20:40.769Z</time></trkpt><trkpt lat="43.5908036" lon="11.2791008"><ele>397.0</ele><time>2026-03-22T10:20:42.771Z</time></trkpt><trkpt lat="43.5908364" lon="11.2791839"><ele>396.0</ele><time>2026-03-22T10:20:43.77Z</time></trkpt><trkpt lat="43.5908573" lon="11.2792911"><ele>395.8333333333333</ele><time>2026-03-22T10:20:44.77Z</time></trkpt><trkpt lat="43.5908872" lon="11.2794052"><ele>395.66666666666663</ele><time>2026-03-22T10:20:45.769Z</time></trkpt><trkpt lat="43.5909175" lon="11.2795174"><ele>395.5</ele><time>2026-03-22T10:20:46.77Z</time></trkpt><trkpt lat="43.5909552" lon="11.2796299"><ele>395.3333333333333</ele><time>2026-03-22T10:20:47.769Z</time></trkpt><trkpt lat="43.5909938" lon="11.2797353"><ele>395.16666666666663</ele><time>2026-03-22T10:20:48.771Z</time></trkpt><trkpt lat="43.5910339" lon="11.2798526"><ele>395.0</ele><time>2026-03-22T10:20:49.771Z</time></trkpt><trkpt lat="43.591086" lon="11.2799425"><ele>394.99999999999994</ele><time>2026-03-22T10:20:50.769Z</time></trkpt><trkpt lat="43.591144" lon="11.2800214"><ele>395.0</ele><time>2026-03-22T10:20:51.77Z</time></trkpt><trkpt lat="43.5911948" lon="11.2800904"><ele>395.0</ele><time>2026-03-22T10:20:52.769Z</time></trkpt><trkpt lat="43.5912444" lon="11.2802383"><ele>395.0</ele><time>2026-03-22T10:20:54.771Z</time></trkpt><trkpt lat="43.5912803" lon="11.2803128"><ele>394.99999999999994</ele><time>2026-03-22T10:20:56.771Z</time></trkpt><trkpt lat="43.5913045" lon="11.2801804"><ele>395.0</ele><time>2026-03-22T10:21:00.771Z</time></trkpt><trkpt lat="43.5912959" lon="11.2799984"><ele>399.66666666666663</ele><time>2026-03-22T10:21:02.769Z</time></trkpt><trkpt lat="43.591326" lon="11.2798841"><ele>404.3333333333333</ele><time>2026-03-22T10:21:04.771Z</time></trkpt><trkpt lat="43.5914148" lon="11.2799277"><ele>409.0</ele><time>2026-03-22T10:21:07.77Z</time></trkpt><trkpt lat="43.5914778" lon="11.2800683"><ele>413.66666666666663</ele><time>2026-03-22T10:21:09.77Z</time></trkpt><trkpt lat="43.5915064" lon="11.2801502"><ele>418.3333333333333</ele><time>2026-03-22T10:21:10.769Z</time></trkpt><trkpt lat="43.5915233" lon="11.2802548"><ele>423.0</ele><time>2026-03-22T10:21:11.769Z</time></trkpt><trkpt lat="43.5915638" lon="11.2803833"><ele>423.0</ele><time>2026-03-22T10:21:12.769Z</time></trkpt><trkpt lat="43.5915928" lon="11.2805398"><ele>423.0</ele><time>2026-03-22T10:21:13.769Z</time></trkpt><trkpt lat="43.5916349" lon="11.2806908"><ele>423.0</ele><time>2026-03-22T10:21:14.77Z</time></trkpt><trkpt lat="43.5916716" lon="11.2808228"><ele>423.0</ele><time>2026-03-22T10:21:15.77Z</time></trkpt><trkpt lat="43.591726" lon="11.2809428"><ele>423.0</ele><time>2026-03-22T10:21:16.77Z</time></trkpt><trkpt lat="43.5917985" lon="11.2809732"><ele>424.2</ele><time>2026-03-22T10:21:17.77Z</time></trkpt><trkpt lat="43.5918762" lon="11.2809636"><ele>425.4</ele><time>2026-03-22T10:21:18.77Z</time></trkpt><trkpt lat="43.5920092" lon="11.2809177"><ele>426.59999999999997</ele><time>2026-03-22T10:21:19.769Z</time></trkpt><trkpt lat="43.5921082" lon="11.2809239"><ele>427.79999999999995</ele><time>2026-03-22T10:21:20.769Z</time></trkpt><trkpt lat="43.5921955" lon="11.280895"><ele>429.0</ele><time>2026-03-22T10:21:21.769Z</time></trkpt><trkpt lat="43.5922828" lon="11.2808549"><ele>429.0</ele><time>2026-03-22T10:21:22.769Z</time></trkpt><trkpt lat="43.5923684" lon="11.280799"><ele>429.0</ele><time>2026-03-22T10:21:23.769Z</time></trkpt><trkpt lat="43.5924532" lon="11.2807171"><ele>429.0</ele><time>2026-03-22T10:21:24.77Z</time></trkpt><trkpt lat="43.5925171" lon="11.2806796"><ele>429.0</ele><time>2026-03-22T10:21:25.77Z</time></trkpt><trkpt lat="43.5925848" lon="11.2806413"><ele>429.0</ele><time>2026-03-22T10:21:26.769Z</time></trkpt><trkpt lat="43.592719" lon="11.2806628"><ele>429.0</ele><time>2026-03-22T10:21:28.77Z</time></trkpt><trkpt lat="43.592802" lon="11.2806852"><ele>429.0</ele><time>2026-03-22T10:21:29.77Z</time></trkpt><trkpt lat="43.5928847" lon="11.2807049"><ele>429.0</ele><time>2026-03-22T10:21:30.771Z</time></trkpt><trkpt lat="43.5929745" lon="11.280686"><ele>429.0</ele><time>2026-03-22T10:21:31.77Z</time></trkpt><trkpt lat="43.5930667" lon="11.2806615"><ele>429.0</ele><time>2026-03-22T10:21:32.769Z</time></trkpt><trkpt lat="43.5931361" lon="11.280682"><ele>429.0</ele><time>2026-03-22T10:21:33.769Z</time></trkpt><trkpt lat="43.593223" lon="11.2807745"><ele>430.8333333333333</ele><time>2026-03-22T10:21:35.77Z</time></trkpt><trkpt lat="43.5932738" lon="11.2808436"><ele>432.66666666666663</ele><time>2026-03-22T10:21:36.769Z</time></trkpt><trkpt lat="43.5933404" lon="11.2809543"><ele>434.5</ele><time>2026-03-22T10:21:37.771Z</time></trkpt><trkpt lat="43.5934066" lon="11.2810053"><ele>436.3333333333333</ele><time>2026-03-22T10:21:38.77Z</time></trkpt><trkpt lat="43.5934752" lon="11.281073"><ele>438.16666666666663</ele><time>2026-03-22T10:21:39.77Z</time></trkpt><trkpt lat="43.5935515" lon="11.2811099"><ele>440.0</ele><time>2026-03-22T10:21:40.77Z</time></trkpt><trkpt lat="43.5936152" lon="11.2811143"><ele>442.6</ele><time>2026-03-22T10:21:41.771Z</time></trkpt><trkpt lat="43.5936824" lon="11.2811107"><ele>445.2</ele><time>2026-03-22T10:21:42.77Z</time></trkpt><trkpt lat="43.5937772" lon="11.2811299"><ele>447.79999999999995</ele><time>2026-03-22T10:21:44.769Z</time></trkpt><trkpt lat="43.5938721" lon="11.2812057"><ele>450.4</ele><time>2026-03-22T10:21:46.769Z</time></trkpt><trkpt lat="43.5939824" lon="11.2811843"><ele>453.0</ele><time>2026-03-22T10:21:48.77Z</time></trkpt><trkpt lat="43.5940554" lon="11.2811293"><ele>453.0</ele><time>2026-03-22T10:21:49.771Z</time></trkpt><trkpt lat="43.594161" lon="11.2811145"><ele>453.0</ele><time>2026-03-22T10:21:51.77Z</time></trkpt><trkpt lat="43.5942282" lon="11.2811182"><ele>453.0</ele><time>2026-03-22T10:21:53.769Z</time></trkpt><trkpt lat="43.5942929" lon="11.2810709"><ele>453.0</ele><time>2026-03-22T10:21:55.769Z</time></trkpt><trkpt lat="43.5943643" lon="11.2810953"><ele>453.0</ele><time>2026-03-22T10:22:46.771Z</time></trkpt><trkpt lat="43.5943782" lon="11.2811955"><ele>453.0</ele><time>2026-03-22T10:22:47.769Z</time></trkpt><trkpt lat="43.5944116" lon="11.2813007"><ele>453.0</ele><time>2026-03-22T10:22:48.769Z</time></trkpt><trkpt lat="43.5944495" lon="11.2814074"><ele>452.99999999999994</ele><time>2026-03-22T10:22:49.769Z</time></trkpt><trkpt lat="43.5944906" lon="11.2815217"><ele>452.99999999999994</ele><time>2026-03-22T10:22:50.769Z</time></trkpt><trkpt lat="43.5945262" lon="11.2816483"><ele>453.0</ele><time>2026-03-22T10:22:51.769Z</time></trkpt><trkpt lat="43.5945678" lon="11.2817671"><ele>453.0</ele><time>2026-03-22T10:22:52.771Z</time></trkpt><trkpt lat="43.5946261" lon="11.2818803"><ele>452.3333333333333</ele><time>2026-03-22T10:22:53.769Z</time></trkpt><trkpt lat="43.5946858" lon="11.2819972"><ele>451.66666666666663</ele><time>2026-03-22T10:22:54.769Z</time></trkpt><trkpt lat="43.5947329" lon="11.2820939"><ele>451.0</ele><time>2026-03-22T10:22:55.77Z</time></trkpt><trkpt lat="43.5947895" lon="11.2821782"><ele>450.3333333333333</ele><time>2026-03-22T10:22:56.771Z</time></trkpt><trkpt lat="43.5948503" lon="11.282252"><ele>449.66666666666663</ele><time>2026-03-22T10:22:57.769Z</time></trkpt><trkpt lat="43.5949131" lon="11.282311"><ele>449.0</ele><time>2026-03-22T10:22:58.769Z</time></trkpt><trkpt lat="43.5950122" lon="11.2824051"><ele>449.0</ele><time>2026-03-22T10:22:59.77Z</time></trkpt><trkpt lat="43.5950754" lon="11.2824973"><ele>449.0</ele><time>2026-03-22T10:23:00.77Z</time></trkpt><trkpt lat="43.5951477" lon="11.282598"><ele>449.0</ele><time>2026-03-22T10:23:01.77Z</time></trkpt><trkpt lat="43.5952322" lon="11.2826977"><ele>449.0</ele><time>2026-03-22T10:23:02.77Z</time></trkpt><trkpt lat="43.5952923" lon="11.2827711"><ele>449.0</ele><time>2026-03-22T10:23:03.77Z</time></trkpt><trkpt lat="43.5953461" lon="11.282853"><ele>447.2</ele><time>2026-03-22T10:23:04.77Z</time></trkpt><trkpt lat="43.5954402" lon="11.2829364"><ele>445.4</ele><time>2026-03-22T10:23:06.769Z</time></trkpt><trkpt lat="43.595521" lon="11.2830073"><ele>443.6</ele><time>2026-03-22T10:23:08.769Z</time></trkpt><trkpt lat="43.5955898" lon="11.2831264"><ele>441.8</ele><time>2026-03-22T10:23:10.77Z</time></trkpt><trkpt lat="43.595624" lon="11.2832143"><ele>440.0</ele><time>2026-03-22T10:23:11.771Z</time></trkpt><trkpt lat="43.5956775" lon="11.2833044"><ele>439.99999999999994</ele><time>2026-03-22T10:23:12.77Z</time></trkpt><trkpt lat="43.5957049" lon="11.2834089"><ele>440.0</ele><time>2026-03-22T10:23:13.77Z</time></trkpt><trkpt lat="43.5957014" lon="11.283501"><ele>440.0</ele><time>2026-03-22T10:23:14.77Z</time></trkpt><trkpt lat="43.5956554" lon="11.2835996"><ele>440.0</ele><time>2026-03-22T10:23:15.77Z</time></trkpt><trkpt lat="43.5956405" lon="11.2837146"><ele>439.99999999999994</ele><time>2026-03-22T10:23:16.77Z</time></trkpt><trkpt lat="43.5956439" lon="11.2838478"><ele>440.0</ele><time>2026-03-22T10:23:17.769Z</time></trkpt><trkpt lat="43.5956585" lon="11.2840085"><ele>440.25</ele><time>2026-03-22T10:23:18.769Z</time></trkpt><trkpt lat="43.5956804" lon="11.2841743"><ele>440.5</ele><time>2026-03-22T10:23:19.769Z</time></trkpt><trkpt lat="43.5957067" lon="11.2843467"><ele>440.75</ele><time>2026-03-22T10:23:20.769Z</time></trkpt><trkpt lat="43.5957337" lon="11.2845293"><ele>441.0</ele><time>2026-03-22T10:23:21.769Z</time></trkpt><trkpt lat="43.5957635" lon="11.2846987"><ele>441.8</ele><time>2026-03-22T10:23:22.769Z</time></trkpt><trkpt lat="43.5958065" lon="11.2848401"><ele>442.6</ele><time>2026-03-22T10:23:23.77Z</time></trkpt><trkpt lat="43.5958659" lon="11.2849466"><ele>443.4</ele><time>2026-03-22T10:23:24.771Z</time></trkpt><trkpt lat="43.5959498" lon="11.2850371"><ele>444.2</ele><time>2026-03-22T10:23:25.769Z</time></trkpt><trkpt lat="43.5960355" lon="11.2851316"><ele>445.0</ele><time>2026-03-22T10:23:26.77Z</time></trkpt><trkpt lat="43.596157" lon="11.2852529"><ele>445.5</ele><time>2026-03-22T10:23:27.77Z</time></trkpt><trkpt lat="43.5962644" lon="11.2853717"><ele>446.0</ele><time>2026-03-22T10:23:28.769Z</time></trkpt><trkpt lat="43.5963686" lon="11.2854929"><ele>446.5</ele><time>2026-03-22T10:23:29.769Z</time></trkpt><trkpt lat="43.5964579" lon="11.2856004"><ele>447.0</ele><time>2026-03-22T10:23:30.77Z</time></trkpt><trkpt lat="43.596558" lon="11.2857009"><ele>447.0</ele><time>2026-03-22T10:23:31.771Z</time></trkpt><trkpt lat="43.5966617" lon="11.2857599"><ele>447.0</ele><time>2026-03-22T10:23:32.77Z</time></trkpt><trkpt lat="43.5967742" lon="11.2858349"><ele>447.0</ele><time>2026-03-22T10:23:33.769Z</time></trkpt><trkpt lat="43.596883" lon="11.2859019"><ele>447.0</ele><time>2026-03-22T10:23:34.769Z</time></trkpt><trkpt lat="43.5969997" lon="11.2859777"><ele>442.75</ele><time>2026-03-22T10:23:35.77Z</time></trkpt><trkpt lat="43.5971216" lon="11.2860269"><ele>438.5</ele><time>2026-03-22T10:23:36.77Z</time></trkpt><trkpt lat="43.5972395" lon="11.286077"><ele>434.25</ele><time>2026-03-22T10:23:37.77Z</time></trkpt><trkpt lat="43.5973573" lon="11.2861233"><ele>430.0</ele><time>2026-03-22T10:23:38.77Z</time></trkpt><trkpt lat="43.59746" lon="11.2861868"><ele>430.0</ele><time>2026-03-22T10:23:39.77Z</time></trkpt><trkpt lat="43.5975605" lon="11.2862267"><ele>430.0</ele><time>2026-03-22T10:23:40.77Z</time></trkpt><trkpt lat="43.5976217" lon="11.2862994"><ele>430.0</ele><time>2026-03-22T10:23:41.77Z</time></trkpt><trkpt lat="43.5977027" lon="11.2863719"><ele>430.0</ele><time>2026-03-22T10:23:42.77Z</time></trkpt><trkpt lat="43.59771" lon="11.2865021"><ele>430.0</ele><time>2026-03-22T10:23:43.77Z</time></trkpt><trkpt lat="43.5977392" lon="11.2866217"><ele>431.0</ele><time>2026-03-22T10:23:44.771Z</time></trkpt><trkpt lat="43.5977748" lon="11.2867322"><ele>432.0</ele><time>2026-03-22T10:23:45.77Z</time></trkpt><trkpt lat="43.5978168" lon="11.2868658"><ele>433.0</ele><time>2026-03-22T10:23:46.77Z</time></trkpt><trkpt lat="43.5978866" lon="11.2869959"><ele>434.0</ele><time>2026-03-22T10:23:47.77Z</time></trkpt><trkpt lat="43.5979597" lon="11.2871691"><ele>430.0</ele><time>2026-03-22T10:23:48.77Z</time></trkpt><trkpt lat="43.5980218" lon="11.2873152"><ele>426.0</ele><time>2026-03-22T10:23:49.77Z</time></trkpt><trkpt lat="43.5980988" lon="11.2874544"><ele>422.0</ele><time>2026-03-22T10:23:50.77Z</time></trkpt><trkpt lat="43.5981746" lon="11.2875932"><ele>418.0</ele><time>2026-03-22T10:23:51.77Z</time></trkpt><trkpt lat="43.5982439" lon="11.2877222"><ele>418.0</ele><time>2026-03-22T10:23:52.771Z</time></trkpt><trkpt lat="43.5983007" lon="11.2878602"><ele>418.0</ele><time>2026-03-22T10:23:53.77Z</time></trkpt><trkpt lat="43.5983613" lon="11.2879853"><ele>418.0</ele><time>2026-03-22T10:23:54.769Z</time></trkpt><trkpt lat="43.5984243" lon="11.2880988"><ele>418.0</ele><time>2026-03-22T10:23:55.77Z</time></trkpt><trkpt lat="43.5984866" lon="11.2881874"><ele>418.0</ele><time>2026-03-22T10:23:56.769Z</time></trkpt><trkpt lat="43.598549" lon="11.2882613"><ele>417.83333333333337</ele><time>2026-03-22T10:23:57.769Z</time></trkpt><trkpt lat="43.5986136" lon="11.2883134"><ele>417.6666666666667</ele><time>2026-03-22T10:23:58.77Z</time></trkpt><trkpt lat="43.5986916" lon="11.2883402"><ele>417.5</ele><time>2026-03-22T10:23:59.77Z</time></trkpt><trkpt lat="43.5987779" lon="11.2883671"><ele>417.33333333333337</ele><time>2026-03-22T10:24:00.771Z</time></trkpt><trkpt lat="43.5988603" lon="11.2883995"><ele>417.1666666666667</ele><time>2026-03-22T10:24:01.77Z</time></trkpt><trkpt lat="43.5989508" lon="11.2884511"><ele>417.0</ele><time>2026-03-22T10:24:02.769Z</time></trkpt><trkpt lat="43.5990422" lon="11.2885374"><ele>414.5</ele><time>2026-03-22T10:24:03.769Z</time></trkpt><trkpt lat="43.5991353" lon="11.2886251"><ele>412.0</ele><time>2026-03-22T10:24:04.77Z</time></trkpt><trkpt lat="43.5992459" lon="11.2887016"><ele>409.5</ele><time>2026-03-22T10:24:05.77Z</time></trkpt><trkpt lat="43.5993654" lon="11.2887785"><ele>407.0</ele><time>2026-03-22T10:24:06.77Z</time></trkpt><trkpt lat="43.5994855" lon="11.288859"><ele>405.8</ele><time>2026-03-22T10:24:07.769Z</time></trkpt><trkpt lat="43.5995926" lon="11.2889418"><ele>404.6</ele><time>2026-03-22T10:24:08.771Z</time></trkpt><trkpt lat="43.5996858" lon="11.2889988"><ele>403.40000000000003</ele><time>2026-03-22T10:24:09.771Z</time></trkpt><trkpt lat="43.5997776" lon="11.2890699"><ele>402.20000000000005</ele><time>2026-03-22T10:24:10.77Z</time></trkpt><trkpt lat="43.5998564" lon="11.2891345"><ele>401.0</ele><time>2026-03-22T10:24:11.77Z</time></trkpt><trkpt lat="43.5999446" lon="11.2891924"><ele>401.0</ele><time>2026-03-22T10:24:12.769Z</time></trkpt><trkpt lat="43.6000306" lon="11.2892624"><ele>401.0</ele><time>2026-03-22T10:24:13.77Z</time></trkpt><trkpt lat="43.6001221" lon="11.289364"><ele>401.0</ele><time>2026-03-22T10:24:14.769Z</time></trkpt><trkpt lat="43.6002122" lon="11.2894777"><ele>401.0</ele><time>2026-03-22T10:24:15.77Z</time></trkpt><trkpt lat="43.6003114" lon="11.2895962"><ele>395.25</ele><time>2026-03-22T10:24:16.771Z</time></trkpt><trkpt lat="43.6003828" lon="11.2897363"><ele>389.5</ele><time>2026-03-22T10:24:17.77Z</time></trkpt><trkpt lat="43.6004608" lon="11.2898703"><ele>383.75</ele><time>2026-03-22T10:24:18.77Z</time></trkpt><trkpt lat="43.6005425" lon="11.2900054"><ele>378.0</ele><time>2026-03-22T10:24:19.769Z</time></trkpt><trkpt lat="43.6006384" lon="11.2901322"><ele>378.0</ele><time>2026-03-22T10:24:20.769Z</time></trkpt><trkpt lat="43.6007253" lon="11.2902572"><ele>378.0</ele><time>2026-03-22T10:24:21.77Z</time></trkpt><trkpt lat="43.6008286" lon="11.2903889"><ele>378.0</ele><time>2026-03-22T10:24:22.769Z</time></trkpt><trkpt lat="43.6008968" lon="11.2904545"><ele>378.0</ele><time>2026-03-22T10:24:23.769Z</time></trkpt><trkpt lat="43.6009506" lon="11.2905497"><ele>378.0</ele><time>2026-03-22T10:24:24.769Z</time></trkpt><trkpt lat="43.6009799" lon="11.290643"><ele>377.59999999999997</ele><time>2026-03-22T10:24:25.77Z</time></trkpt><trkpt lat="43.6010012" lon="11.2907375"><ele>377.2</ele><time>2026-03-22T10:24:26.77Z</time></trkpt><trkpt lat="43.6010127" lon="11.2908635"><ele>376.8</ele><time>2026-03-22T10:24:27.769Z</time></trkpt><trkpt lat="43.6010352" lon="11.2909883"><ele>376.4</ele><time>2026-03-22T10:24:28.769Z</time></trkpt><trkpt lat="43.6010791" lon="11.2911005"><ele>376.0</ele><time>2026-03-22T10:24:29.77Z</time></trkpt><trkpt lat="43.6011476" lon="11.2912214"><ele>373.20000000000005</ele><time>2026-03-22T10:24:30.769Z</time></trkpt><trkpt lat="43.6012435" lon="11.2913095"><ele>370.40000000000003</ele><time>2026-03-22T10:24:31.77Z</time></trkpt><trkpt lat="43.6013197" lon="11.2913878"><ele>367.6</ele><time>2026-03-22T10:24:32.77Z</time></trkpt><trkpt lat="43.6014002" lon="11.2914742"><ele>364.8</ele><time>2026-03-22T10:24:33.769Z</time></trkpt><trkpt lat="43.6014756" lon="11.2915479"><ele>362.0</ele><time>2026-03-22T10:24:34.769Z</time></trkpt><trkpt lat="43.6015704" lon="11.2916038"><ele>362.0</ele><time>2026-03-22T10:24:35.769Z</time></trkpt><trkpt lat="43.6016658" lon="11.291594"><ele>362.0</ele><time>2026-03-22T10:24:36.769Z</time></trkpt><trkpt lat="43.601768" lon="11.2915839"><ele>362.0</ele><time>2026-03-22T10:24:37.77Z</time></trkpt><trkpt lat="43.6018494" lon="11.2915732"><ele>362.0</ele><time>2026-03-22T10:24:38.771Z</time></trkpt><trkpt lat="43.6019523" lon="11.2916725"><ele>362.0</ele><time>2026-03-22T10:24:40.77Z</time></trkpt><trkpt lat="43.6020422" lon="11.2917497"><ele>358.6666666666667</ele><time>2026-03-22T10:24:41.769Z</time></trkpt><trkpt lat="43.6021162" lon="11.2918168"><ele>355.33333333333337</ele><time>2026-03-22T10:24:42.77Z</time></trkpt><trkpt lat="43.6022007" lon="11.2918524"><ele>352.0</ele><time>2026-03-22T10:24:43.769Z</time></trkpt><trkpt lat="43.6022831" lon="11.291879"><ele>348.6666666666667</ele><time>2026-03-22T10:24:44.77Z</time></trkpt><trkpt lat="43.602344" lon="11.2918553"><ele>345.3333333333333</ele><time>2026-03-22T10:24:45.77Z</time></trkpt><trkpt lat="43.6024085" lon="11.2918655"><ele>342.0</ele><time>2026-03-22T10:24:46.769Z</time></trkpt><trkpt lat="43.6024831" lon="11.291881"><ele>342.0</ele><time>2026-03-22T10:24:47.77Z</time></trkpt><trkpt lat="43.6024917" lon="11.2919814"><ele>342.0</ele><time>2026-03-22T10:24:48.77Z</time></trkpt><trkpt lat="43.6024777" lon="11.2921043"><ele>342.0</ele><time>2026-03-22T10:24:49.771Z</time></trkpt><trkpt lat="43.6024931" lon="11.2922"><ele>342.0</ele><time>2026-03-22T10:24:50.769Z</time></trkpt><trkpt lat="43.6025302" lon="11.292295"><ele>342.0</ele><time>2026-03-22T10:24:51.769Z</time></trkpt><trkpt lat="43.6025715" lon="11.2923737"><ele>342.0</ele><time>2026-03-22T10:24:52.77Z</time></trkpt><trkpt lat="43.6026129" lon="11.2924532"><ele>341.5</ele><time>2026-03-22T10:24:53.77Z</time></trkpt><trkpt lat="43.6027084" lon="11.2925034"><ele>341.0</ele><time>2026-03-22T10:24:55.769Z</time></trkpt><trkpt lat="43.6028134" lon="11.2924765"><ele>340.5</ele><time>2026-03-22T10:24:57.77Z</time></trkpt><trkpt lat="43.6029287" lon="11.2923654"><ele>340.0</ele><time>2026-03-22T10:24:59.77Z</time></trkpt><trkpt lat="43.6030224" lon="11.2922695"><ele>337.2</ele><time>2026-03-22T10:25:01.769Z</time></trkpt><trkpt lat="43.6031351" lon="11.2923334"><ele>334.4</ele><time>2026-03-22T10:25:03.77Z</time></trkpt><trkpt lat="43.6032" lon="11.2924033"><ele>331.6</ele><time>2026-03-22T10:25:04.77Z</time></trkpt><trkpt lat="43.6032776" lon="11.2925117"><ele>328.8</ele><time>2026-03-22T10:25:05.769Z</time></trkpt><trkpt lat="43.6033826" lon="11.2926086"><ele>326.0</ele><time>2026-03-22T10:25:06.769Z</time></trkpt><trkpt lat="43.6034906" lon="11.2927122"><ele>326.0</ele><time>2026-03-22T10:25:07.77Z</time></trkpt><trkpt lat="43.603605" lon="11.2928135"><ele>326.0</ele><time>2026-03-22T10:25:08.771Z</time></trkpt><trkpt lat="43.6037231" lon="11.2929163"><ele>326.0</ele><time>2026-03-22T10:25:09.769Z</time></trkpt><trkpt lat="43.6038422" lon="11.2930126"><ele>326.0</ele><time>2026-03-22T10:25:10.768Z</time></trkpt><trkpt lat="43.6039678" lon="11.2930969"><ele>323.0</ele><time>2026-03-22T10:25:11.769Z</time></trkpt><trkpt lat="43.6040842" lon="11.2931747"><ele>320.0</ele><time>2026-03-22T10:25:12.769Z</time></trkpt><trkpt lat="43.6041852" lon="11.2932604"><ele>317.0</ele><time>2026-03-22T10:25:13.768Z</time></trkpt><trkpt lat="43.6042668" lon="11.2933573"><ele>314.0</ele><time>2026-03-22T10:25:14.769Z</time></trkpt><trkpt lat="43.6043348" lon="11.2934799"><ele>314.0</ele><time>2026-03-22T10:25:15.769Z</time></trkpt><trkpt lat="43.6043672" lon="11.2936179"><ele>314.0</ele><time>2026-03-22T10:25:16.768Z</time></trkpt><trkpt lat="43.6043895" lon="11.2937679"><ele>314.0</ele><time>2026-03-22T10:25:17.769Z</time></trkpt><trkpt lat="43.6043939" lon="11.2939334"><ele>314.0</ele><time>2026-03-22T10:25:18.769Z</time></trkpt><trkpt lat="43.6044008" lon="11.2941163"><ele>315.0</ele><time>2026-03-22T10:25:19.768Z</time></trkpt><trkpt lat="43.604391" lon="11.2943259"><ele>316.0</ele><time>2026-03-22T10:25:20.769Z</time></trkpt><trkpt lat="43.6043454" lon="11.2945633"><ele>317.0</ele><time>2026-03-22T10:25:21.769Z</time></trkpt><trkpt lat="43.6043375" lon="11.2947628"><ele>315.25</ele><time>2026-03-22T10:25:22.77Z</time></trkpt><trkpt lat="43.6043237" lon="11.2949646"><ele>313.5</ele><time>2026-03-22T10:25:23.768Z</time></trkpt><trkpt lat="43.6043007" lon="11.2951719"><ele>311.75</ele><time>2026-03-22T10:25:24.769Z</time></trkpt><trkpt lat="43.6043045" lon="11.2953554"><ele>310.0</ele><time>2026-03-22T10:25:25.768Z</time></trkpt><trkpt lat="43.6042813" lon="11.2955485"><ele>307.75</ele><time>2026-03-22T10:25:26.768Z</time></trkpt><trkpt lat="43.604254" lon="11.2957101"><ele>305.5</ele><time>2026-03-22T10:25:27.769Z</time></trkpt><trkpt lat="43.6042622" lon="11.295883"><ele>303.25</ele><time>2026-03-22T10:25:28.769Z</time></trkpt><trkpt lat="43.6042696" lon="11.2960545"><ele>301.0</ele><time>2026-03-22T10:25:29.768Z</time></trkpt><trkpt lat="43.6042735" lon="11.296227"><ele>301.0</ele><time>2026-03-22T10:25:30.769Z</time></trkpt><trkpt lat="43.6042984" lon="11.2963758"><ele>301.0</ele><time>2026-03-22T10:25:31.769Z</time></trkpt><trkpt lat="43.6043095" lon="11.2964913"><ele>301.0</ele><time>2026-03-22T10:25:32.769Z</time></trkpt><trkpt lat="43.6043088" lon="11.2965906"><ele>301.0</ele><time>2026-03-22T10:25:33.769Z</time></trkpt><trkpt lat="43.6042866" lon="11.2967059"><ele>301.0</ele><time>2026-03-22T10:25:34.768Z</time></trkpt><trkpt lat="43.6042294" lon="11.2968009"><ele>301.0</ele><time>2026-03-22T10:25:35.769Z</time></trkpt><trkpt lat="43.6041531" lon="11.2969005"><ele>298.5</ele><time>2026-03-22T10:25:36.769Z</time></trkpt><trkpt lat="43.6040671" lon="11.2970001"><ele>296.0</ele><time>2026-03-22T10:25:37.768Z</time></trkpt><trkpt lat="43.6039794" lon="11.2971236"><ele>293.5</ele><time>2026-03-22T10:25:38.769Z</time></trkpt><trkpt lat="43.6038924" lon="11.2972601"><ele>291.0</ele><time>2026-03-22T10:25:39.769Z</time></trkpt><trkpt lat="43.6038178" lon="11.2974"><ele>288.40000000000003</ele><time>2026-03-22T10:25:40.769Z</time></trkpt><trkpt lat="43.6037512" lon="11.2975335"><ele>285.8</ele><time>2026-03-22T10:25:41.769Z</time></trkpt><trkpt lat="43.6036987" lon="11.2976534"><ele>283.20000000000005</ele><time>2026-03-22T10:25:42.769Z</time></trkpt><trkpt lat="43.6036589" lon="11.2977679"><ele>280.6</ele><time>2026-03-22T10:25:43.768Z</time></trkpt><trkpt lat="43.6036372" lon="11.2978872"><ele>278.0</ele><time>2026-03-22T10:25:44.769Z</time></trkpt><trkpt lat="43.6036496" lon="11.2980075"><ele>275.25</ele><time>2026-03-22T10:25:45.769Z</time></trkpt><trkpt lat="43.6036932" lon="11.2981334"><ele>272.5</ele><time>2026-03-22T10:25:46.769Z</time></trkpt><trkpt lat="43.6037623" lon="11.2982602"><ele>269.75</ele><time>2026-03-22T10:25:47.768Z</time></trkpt><trkpt lat="43.6038528" lon="11.2983786"><ele>267.0</ele><time>2026-03-22T10:25:48.768Z</time></trkpt><trkpt lat="43.6039605" lon="11.2984804"><ele>267.0</ele><time>2026-03-22T10:25:49.768Z</time></trkpt><trkpt lat="43.6040784" lon="11.2985599"><ele>267.0</ele><time>2026-03-22T10:25:50.769Z</time></trkpt><trkpt lat="43.6042133" lon="11.2986507"><ele>267.0</ele><time>2026-03-22T10:25:51.77Z</time></trkpt><trkpt lat="43.6043424" lon="11.2987394"><ele>267.0</ele><time>2026-03-22T10:25:52.768Z</time></trkpt><trkpt lat="43.604474" lon="11.2988282"><ele>263.75</ele><time>2026-03-22T10:25:53.769Z</time></trkpt><trkpt lat="43.6046038" lon="11.2989156"><ele>260.5</ele><time>2026-03-22T10:25:54.768Z</time></trkpt><trkpt lat="43.6047331" lon="11.2989913"><ele>257.25</ele><time>2026-03-22T10:25:55.768Z</time></trkpt><trkpt lat="43.6048622" lon="11.2990381"><ele>254.0</ele><time>2026-03-22T10:25:56.769Z</time></trkpt><trkpt lat="43.6049911" lon="11.2990609"><ele>253.25</ele><time>2026-03-22T10:25:57.768Z</time></trkpt><trkpt lat="43.605124" lon="11.2990708"><ele>252.5</ele><time>2026-03-22T10:25:58.768Z</time></trkpt><trkpt lat="43.6052592" lon="11.2990717"><ele>251.75</ele><time>2026-03-22T10:25:59.769Z</time></trkpt><trkpt lat="43.6053953" lon="11.2990666"><ele>251.0</ele><time>2026-03-22T10:26:00.769Z</time></trkpt><trkpt lat="43.6055243" lon="11.2990612"><ele>248.4</ele><time>2026-03-22T10:26:01.769Z</time></trkpt><trkpt lat="43.6056455" lon="11.2990584"><ele>245.8</ele><time>2026-03-22T10:26:02.769Z</time></trkpt><trkpt lat="43.605761" lon="11.2990593"><ele>243.20000000000002</ele><time>2026-03-22T10:26:03.768Z</time></trkpt><trkpt lat="43.6058657" lon="11.2990519"><ele>240.60000000000002</ele><time>2026-03-22T10:26:04.768Z</time></trkpt><trkpt lat="43.6059574" lon="11.2990333"><ele>238.0</ele><time>2026-03-22T10:26:05.769Z</time></trkpt><trkpt lat="43.6060398" lon="11.2989891"><ele>237.0</ele><time>2026-03-22T10:26:06.769Z</time></trkpt><trkpt lat="43.6060993" lon="11.2989025"><ele>236.0</ele><time>2026-03-22T10:26:07.77Z</time></trkpt><trkpt lat="43.6061507" lon="11.2988004"><ele>235.0</ele><time>2026-03-22T10:26:08.769Z</time></trkpt><trkpt lat="43.6062243" lon="11.298716"><ele>234.0</ele><time>2026-03-22T10:26:09.768Z</time></trkpt><trkpt lat="43.6063283" lon="11.2986563"><ele>233.0</ele><time>2026-03-22T10:26:10.768Z</time></trkpt><trkpt lat="43.6064431" lon="11.2985986"><ele>230.16666666666669</ele><time>2026-03-22T10:26:11.768Z</time></trkpt><trkpt lat="43.6065489" lon="11.2985484"><ele>227.33333333333334</ele><time>2026-03-22T10:26:12.769Z</time></trkpt><trkpt lat="43.6066375" lon="11.2985201"><ele>224.5</ele><time>2026-03-22T10:26:13.768Z</time></trkpt><trkpt lat="43.606711" lon="11.2985244"><ele>221.66666666666669</ele><time>2026-03-22T10:26:14.769Z</time></trkpt><trkpt lat="43.6067716" lon="11.2985669"><ele>218.83333333333334</ele><time>2026-03-22T10:26:15.769Z</time></trkpt><trkpt lat="43.6068451" lon="11.2986316"><ele>216.0</ele><time>2026-03-22T10:26:16.768Z</time></trkpt><trkpt lat="43.6068987" lon="11.2987166"><ele>216.0</ele><time>2026-03-22T10:26:17.768Z</time></trkpt><trkpt lat="43.6069268" lon="11.2988348"><ele>216.00000000000003</ele><time>2026-03-22T10:26:18.768Z</time></trkpt><trkpt lat="43.6069347" lon="11.2989793"><ele>216.00000000000003</ele><time>2026-03-22T10:26:19.769Z</time></trkpt><trkpt lat="43.6069438" lon="11.2991394"><ele>216.0</ele><time>2026-03-22T10:26:20.768Z</time></trkpt><trkpt lat="43.6069506" lon="11.2992987"><ele>216.0</ele><time>2026-03-22T10:26:21.769Z</time></trkpt><trkpt lat="43.6069536" lon="11.2994587"><ele>216.0</ele><time>2026-03-22T10:26:22.77Z</time></trkpt><trkpt lat="43.6069622" lon="11.2996079"><ele>216.00000000000003</ele><time>2026-03-22T10:26:23.769Z</time></trkpt><trkpt lat="43.6069679" lon="11.2997432"><ele>216.00000000000003</ele><time>2026-03-22T10:26:24.769Z</time></trkpt><trkpt lat="43.606985" lon="11.2998759"><ele>216.0</ele><time>2026-03-22T10:26:25.77Z</time></trkpt><trkpt lat="43.6070354" lon="11.3000029"><ele>216.0</ele><time>2026-03-22T10:26:26.769Z</time></trkpt><trkpt lat="43.6071093" lon="11.3001207"><ele>213.0</ele><time>2026-03-22T10:26:27.768Z</time></trkpt><trkpt lat="43.6071976" lon="11.3002313"><ele>210.0</ele><time>2026-03-22T10:26:28.769Z</time></trkpt><trkpt lat="43.6072894" lon="11.3003386"><ele>207.0</ele><time>2026-03-22T10:26:29.769Z</time></trkpt><trkpt lat="43.6073801" lon="11.3004398"><ele>204.0</ele><time>2026-03-22T10:26:30.768Z</time></trkpt><trkpt lat="43.6074705" lon="11.3005364"><ele>204.2</ele><time>2026-03-22T10:26:31.768Z</time></trkpt><trkpt lat="43.6075589" lon="11.3006275"><ele>204.39999999999998</ele><time>2026-03-22T10:26:32.769Z</time></trkpt><trkpt lat="43.607647" lon="11.3007069"><ele>204.6</ele><time>2026-03-22T10:26:33.768Z</time></trkpt><trkpt lat="43.6077395" lon="11.3007745"><ele>204.8</ele><time>2026-03-22T10:26:34.768Z</time></trkpt><trkpt lat="43.6078192" lon="11.3008309"><ele>205.0</ele><time>2026-03-22T10:26:35.768Z</time></trkpt><trkpt lat="43.6078938" lon="11.3008783"><ele>205.49999999999997</ele><time>2026-03-22T10:26:36.769Z</time></trkpt><trkpt lat="43.6079584" lon="11.3009235"><ele>206.0</ele><time>2026-03-22T10:26:37.768Z</time></trkpt><trkpt lat="43.6080472" lon="11.3010217"><ele>206.5</ele><time>2026-03-22T10:26:39.769Z</time></trkpt><trkpt lat="43.6080983" lon="11.301088"><ele>207.0</ele><time>2026-03-22T10:26:42.769Z</time></trkpt><trkpt lat="43.6080782" lon="11.3011986"><ele>207.49999999999997</ele><time>2026-03-22T10:27:38.769Z</time></trkpt><trkpt lat="43.6080758" lon="11.3013026"><ele>208.0</ele><time>2026-03-22T10:27:39.768Z</time></trkpt><trkpt lat="43.6080466" lon="11.3014285"><ele>209.2</ele><time>2026-03-22T10:27:40.769Z</time></trkpt><trkpt lat="43.608026" lon="11.3015483"><ele>210.4</ele><time>2026-03-22T10:27:41.769Z</time></trkpt><trkpt lat="43.6080005" lon="11.301679"><ele>211.59999999999997</ele><time>2026-03-22T10:27:42.77Z</time></trkpt><trkpt lat="43.6079818" lon="11.3018143"><ele>212.79999999999998</ele><time>2026-03-22T10:27:43.769Z</time></trkpt><trkpt lat="43.6079704" lon="11.3019423"><ele>214.0</ele><time>2026-03-22T10:27:44.768Z</time></trkpt><trkpt lat="43.6079657" lon="11.3020603"><ele>213.99999999999997</ele><time>2026-03-22T10:27:45.769Z</time></trkpt><trkpt lat="43.6079567" lon="11.3021508"><ele>214.0</ele><time>2026-03-22T10:27:46.768Z</time></trkpt><trkpt lat="43.6079455" lon="11.3022849"><ele>214.0</ele><time>2026-03-22T10:27:48.769Z</time></trkpt><trkpt lat="43.6079127" lon="11.3024293"><ele>214.0</ele><time>2026-03-22T10:27:51.768Z</time></trkpt><trkpt lat="43.6078844" lon="11.3025131"><ele>213.99999999999997</ele><time>2026-03-22T10:27:52.769Z</time></trkpt><trkpt lat="43.6078428" lon="11.3026051"><ele>214.0</ele><time>2026-03-22T10:27:53.769Z</time></trkpt><trkpt lat="43.6077894" lon="11.3027084"><ele>213.0</ele><time>2026-03-22T10:27:54.768Z</time></trkpt><trkpt lat="43.6077284" lon="11.3028183"><ele>211.99999999999997</ele><time>2026-03-22T10:27:55.769Z</time></trkpt><trkpt lat="43.60767" lon="11.3029305"><ele>211.0</ele><time>2026-03-22T10:27:56.769Z</time></trkpt><trkpt lat="43.6076088" lon="11.3030407"><ele>210.0</ele><time>2026-03-22T10:27:57.768Z</time></trkpt><trkpt lat="43.6075478" lon="11.3031508"><ele>209.0</ele><time>2026-03-22T10:27:58.768Z</time></trkpt><trkpt lat="43.6074886" lon="11.3032605"><ele>209.0</ele><time>2026-03-22T10:27:59.769Z</time></trkpt><trkpt lat="43.6074255" lon="11.3033781"><ele>209.0</ele><time>2026-03-22T10:28:00.768Z</time></trkpt><trkpt lat="43.6073592" lon="11.3035019"><ele>209.0</ele><time>2026-03-22T10:28:01.769Z</time></trkpt><trkpt lat="43.6072936" lon="11.3036288"><ele>209.0</ele><time>2026-03-22T10:28:02.769Z</time></trkpt><trkpt lat="43.6072255" lon="11.3037673"><ele>209.0</ele><time>2026-03-22T10:28:03.769Z</time></trkpt><trkpt lat="43.6071578" lon="11.3039097"><ele>209.0</ele><time>2026-03-22T10:28:04.769Z</time></trkpt><trkpt lat="43.607086" lon="11.3040496"><ele>209.0</ele><time>2026-03-22T10:28:05.768Z</time></trkpt><trkpt lat="43.607014" lon="11.3041847"><ele>209.0</ele><time>2026-03-22T10:28:06.769Z</time></trkpt><trkpt lat="43.6069406" lon="11.304312"><ele>209.0</ele><time>2026-03-22T10:28:07.768Z</time></trkpt><trkpt lat="43.6068613" lon="11.3044371"><ele>209.0</ele><time>2026-03-22T10:28:08.769Z</time></trkpt><trkpt lat="43.6067776" lon="11.3045494"><ele>209.0</ele><time>2026-03-22T10:28:09.769Z</time></trkpt><trkpt lat="43.6066917" lon="11.3046434"><ele>209.0</ele><time>2026-03-22T10:28:10.769Z</time></trkpt><trkpt lat="43.6065987" lon="11.3047318"><ele>210.75</ele><time>2026-03-22T10:28:11.768Z</time></trkpt><trkpt lat="43.6064995" lon="11.3048189"><ele>212.5</ele><time>2026-03-22T10:28:12.769Z</time></trkpt><trkpt lat="43.6063985" lon="11.3049074"><ele>214.25</ele><time>2026-03-22T10:28:13.769Z</time></trkpt><trkpt lat="43.606302" lon="11.3049923"><ele>216.0</ele><time>2026-03-22T10:28:14.769Z</time></trkpt><trkpt lat="43.6062101" lon="11.3050726"><ele>214.4</ele><time>2026-03-22T10:28:15.769Z</time></trkpt><trkpt lat="43.6061233" lon="11.3051498"><ele>212.8</ele><time>2026-03-22T10:28:16.768Z</time></trkpt><trkpt lat="43.606037" lon="11.305225"><ele>211.20000000000002</ele><time>2026-03-22T10:28:17.768Z</time></trkpt><trkpt lat="43.6059488" lon="11.3053008"><ele>209.60000000000002</ele><time>2026-03-22T10:28:18.769Z</time></trkpt><trkpt lat="43.6058685" lon="11.3053705"><ele>208.0</ele><time>2026-03-22T10:28:19.768Z</time></trkpt><trkpt lat="43.6058042" lon="11.3054278"><ele>207.99999999999997</ele><time>2026-03-22T10:28:20.768Z</time></trkpt><trkpt lat="43.6057307" lon="11.3055115"><ele>208.0</ele><time>2026-03-22T10:28:22.769Z</time></trkpt><trkpt lat="43.6057237" lon="11.3056102"><ele>208.0</ele><time>2026-03-22T10:28:24.769Z</time></trkpt><trkpt lat="43.6057788" lon="11.3057576"><ele>208.0</ele><time>2026-03-22T10:28:26.769Z</time></trkpt><trkpt lat="43.6058146" lon="11.3058428"><ele>207.99999999999997</ele><time>2026-03-22T10:28:27.769Z</time></trkpt><trkpt lat="43.6058504" lon="11.3059343"><ele>208.0</ele><time>2026-03-22T10:28:28.77Z</time></trkpt><trkpt lat="43.605888" lon="11.3060352"><ele>209.0</ele><time>2026-03-22T10:28:29.769Z</time></trkpt><trkpt lat="43.605931" lon="11.3061513"><ele>210.0</ele><time>2026-03-22T10:28:30.769Z</time></trkpt><trkpt lat="43.6059743" lon="11.3062754"><ele>211.0</ele><time>2026-03-22T10:28:31.768Z</time></trkpt><trkpt lat="43.6060195" lon="11.3064026"><ele>212.0</ele><time>2026-03-22T10:28:32.769Z</time></trkpt><trkpt lat="43.6060697" lon="11.306533"><ele>213.0</ele><time>2026-03-22T10:28:33.769Z</time></trkpt><trkpt lat="43.6061229" lon="11.3066688"><ele>215.8</ele><time>2026-03-22T10:28:34.769Z</time></trkpt><trkpt lat="43.6061719" lon="11.3068033"><ele>218.60000000000002</ele><time>2026-03-22T10:28:35.769Z</time></trkpt><trkpt lat="43.6062309" lon="11.3069218"><ele>221.39999999999998</ele><time>2026-03-22T10:28:36.768Z</time></trkpt><trkpt lat="43.6063001" lon="11.3070129"><ele>224.2</ele><time>2026-03-22T10:28:37.769Z</time></trkpt><trkpt lat="43.6063793" lon="11.3070812"><ele>227.0</ele><time>2026-03-22T10:28:38.77Z</time></trkpt><trkpt lat="43.6064614" lon="11.3071408"><ele>227.0</ele><time>2026-03-22T10:28:39.769Z</time></trkpt><trkpt lat="43.6065458" lon="11.3071929"><ele>227.0</ele><time>2026-03-22T10:28:40.769Z</time></trkpt><trkpt lat="43.6066297" lon="11.307249"><ele>227.0</ele><time>2026-03-22T10:28:41.768Z</time></trkpt><trkpt lat="43.6067168" lon="11.3073055"><ele>227.0</ele><time>2026-03-22T10:28:42.768Z</time></trkpt><trkpt lat="43.6068035" lon="11.3073583"><ele>227.0</ele><time>2026-03-22T10:28:43.768Z</time></trkpt><trkpt lat="43.6068927" lon="11.3074086"><ele>227.5</ele><time>2026-03-22T10:28:44.768Z</time></trkpt><trkpt lat="43.6069878" lon="11.3074617"><ele>228.0</ele><time>2026-03-22T10:28:45.769Z</time></trkpt><trkpt lat="43.6071138" lon="11.3075308"><ele>228.5</ele><time>2026-03-22T10:28:46.768Z</time></trkpt><trkpt lat="43.6072328" lon="11.3075948"><ele>229.0</ele><time>2026-03-22T10:28:47.769Z</time></trkpt><trkpt lat="43.6073484" lon="11.3076636"><ele>232.6</ele><time>2026-03-22T10:28:48.768Z</time></trkpt><trkpt lat="43.6074644" lon="11.3077338"><ele>236.2</ele><time>2026-03-22T10:28:49.769Z</time></trkpt><trkpt lat="43.607561" lon="11.3077807"><ele>239.79999999999998</ele><time>2026-03-22T10:28:50.769Z</time></trkpt><trkpt lat="43.6076509" lon="11.3078016"><ele>243.39999999999998</ele><time>2026-03-22T10:28:51.769Z</time></trkpt><trkpt lat="43.6077416" lon="11.3078212"><ele>247.0</ele><time>2026-03-22T10:28:52.769Z</time></trkpt><trkpt lat="43.6078536" lon="11.3077648"><ele>250.6</ele><time>2026-03-22T10:28:54.768Z</time></trkpt><trkpt lat="43.6078773" lon="11.3075967"><ele>254.2</ele><time>2026-03-22T10:28:55.768Z</time></trkpt><trkpt lat="43.6079307" lon="11.30754"><ele>257.8</ele><time>2026-03-22T10:28:56.768Z</time></trkpt><trkpt lat="43.6080376" lon="11.307527"><ele>261.4</ele><time>2026-03-22T10:28:58.77Z</time></trkpt><trkpt lat="43.608146" lon="11.3075537"><ele>265.0</ele><time>2026-03-22T10:29:00.768Z</time></trkpt><trkpt lat="43.6082333" lon="11.3075574"><ele>265.0</ele><time>2026-03-22T10:29:01.769Z</time></trkpt><trkpt lat="43.6083101" lon="11.3075813"><ele>265.0</ele><time>2026-03-22T10:29:02.769Z</time></trkpt><trkpt lat="43.6083626" lon="11.3076384"><ele>265.0</ele><time>2026-03-22T10:29:03.769Z</time></trkpt><trkpt lat="43.60844" lon="11.3077903"><ele>265.0</ele><time>2026-03-22T10:29:05.77Z</time></trkpt><trkpt lat="43.6084781" lon="11.3078829"><ele>265.0</ele><time>2026-03-22T10:29:06.769Z</time></trkpt><trkpt lat="43.608526" lon="11.3080119"><ele>266.0</ele><time>2026-03-22T10:29:07.769Z</time></trkpt><trkpt lat="43.6085512" lon="11.3081118"><ele>267.0</ele><time>2026-03-22T10:29:08.769Z</time></trkpt><trkpt lat="43.6086766" lon="11.3081216"><ele>268.0</ele><time>2026-03-22T10:29:10.768Z</time></trkpt><trkpt lat="43.6088143" lon="11.3080358"><ele>269.0</ele><time>2026-03-22T10:29:12.769Z</time></trkpt><trkpt lat="43.6089046" lon="11.3079733"><ele>269.33333333333337</ele><time>2026-03-22T10:29:13.769Z</time></trkpt><trkpt lat="43.6089877" lon="11.3079381"><ele>269.6666666666667</ele><time>2026-03-22T10:29:14.769Z</time></trkpt><trkpt lat="43.6090515" lon="11.3079151"><ele>270.0</ele><time>2026-03-22T10:29:15.769Z</time></trkpt><trkpt lat="43.6091334" lon="11.3079444"><ele>270.3333333333333</ele><time>2026-03-22T10:29:16.77Z</time></trkpt><trkpt lat="43.6092048" lon="11.3080702"><ele>270.66666666666663</ele><time>2026-03-22T10:29:17.768Z</time></trkpt><trkpt lat="43.6092835" lon="11.3081395"><ele>271.0</ele><time>2026-03-22T10:29:18.77Z</time></trkpt><trkpt lat="43.6093814" lon="11.3082483"><ele>273.75</ele><time>2026-03-22T10:29:19.768Z</time></trkpt><trkpt lat="43.6094916" lon="11.3083083"><ele>276.5</ele><time>2026-03-22T10:29:20.77Z</time></trkpt><trkpt lat="43.6096072" lon="11.3083794"><ele>279.25</ele><time>2026-03-22T10:29:21.77Z</time></trkpt><trkpt lat="43.6097739" lon="11.3084294"><ele>282.0</ele><time>2026-03-22T10:29:22.77Z</time></trkpt><trkpt lat="43.6098927" lon="11.3084683"><ele>282.5</ele><time>2026-03-22T10:29:23.769Z</time></trkpt><trkpt lat="43.6100114" lon="11.3084948"><ele>283.0</ele><time>2026-03-22T10:29:24.769Z</time></trkpt><trkpt lat="43.6101383" lon="11.3085215"><ele>283.5</ele><time>2026-03-22T10:29:25.769Z</time></trkpt><trkpt lat="43.6102404" lon="11.3085698"><ele>284.0</ele><time>2026-03-22T10:29:26.769Z</time></trkpt><trkpt lat="43.6103491" lon="11.3086118"><ele>282.5</ele><time>2026-03-22T10:29:27.768Z</time></trkpt><trkpt lat="43.6104655" lon="11.3086929"><ele>281.0</ele><time>2026-03-22T10:29:28.768Z</time></trkpt><trkpt lat="43.6105741" lon="11.3087617"><ele>279.5</ele><time>2026-03-22T10:29:29.769Z</time></trkpt><trkpt lat="43.6106757" lon="11.3088449"><ele>278.0</ele><time>2026-03-22T10:29:30.769Z</time></trkpt><trkpt lat="43.6107636" lon="11.3088977"><ele>279.75</ele><time>2026-03-22T10:29:31.769Z</time></trkpt><trkpt lat="43.610873" lon="11.3089466"><ele>281.5</ele><time>2026-03-22T10:29:32.768Z</time></trkpt><trkpt lat="43.6109879" lon="11.3090305"><ele>283.25</ele><time>2026-03-22T10:29:33.768Z</time></trkpt><trkpt lat="43.6111012" lon="11.3091076"><ele>285.0</ele><time>2026-03-22T10:29:34.769Z</time></trkpt><trkpt lat="43.6112231" lon="11.3091739"><ele>285.0</ele><time>2026-03-22T10:29:35.769Z</time></trkpt><trkpt lat="43.611313" lon="11.3092351"><ele>285.0</ele><time>2026-03-22T10:29:36.769Z</time></trkpt><trkpt lat="43.6114009" lon="11.3092788"><ele>285.0</ele><time>2026-03-22T10:29:37.77Z</time></trkpt><trkpt lat="43.6114918" lon="11.3093108"><ele>285.0</ele><time>2026-03-22T10:29:38.769Z</time></trkpt><trkpt lat="43.6115907" lon="11.3093404"><ele>285.0</ele><time>2026-03-22T10:29:39.768Z</time></trkpt><trkpt lat="43.6116826" lon="11.3094001"><ele>285.0</ele><time>2026-03-22T10:29:40.769Z</time></trkpt><trkpt lat="43.6117307" lon="11.3095051"><ele>285.0</ele><time>2026-03-22T10:29:41.769Z</time></trkpt><trkpt lat="43.6118026" lon="11.3096303"><ele>285.0</ele><time>2026-03-22T10:29:42.769Z</time></trkpt><trkpt lat="43.6118672" lon="11.3097428"><ele>285.0</ele><time>2026-03-22T10:29:43.769Z</time></trkpt><trkpt lat="43.6119344" lon="11.3098577"><ele>285.0</ele><time>2026-03-22T10:29:44.77Z</time></trkpt><trkpt lat="43.6120777" lon="11.3099324"><ele>286.25</ele><time>2026-03-22T10:29:45.768Z</time></trkpt><trkpt lat="43.6122014" lon="11.3100213"><ele>287.5</ele><time>2026-03-22T10:29:46.769Z</time></trkpt><trkpt lat="43.6123441" lon="11.3101113"><ele>288.75</ele><time>2026-03-22T10:29:47.768Z</time></trkpt><trkpt lat="43.612436" lon="11.3101907"><ele>290.0</ele><time>2026-03-22T10:29:48.768Z</time></trkpt><trkpt lat="43.6125295" lon="11.3102405"><ele>290.0</ele><time>2026-03-22T10:29:49.768Z</time></trkpt><trkpt lat="43.6126138" lon="11.310258"><ele>290.0</ele><time>2026-03-22T10:29:50.769Z</time></trkpt><trkpt lat="43.6127046" lon="11.3103106"><ele>290.0</ele><time>2026-03-22T10:29:51.769Z</time></trkpt><trkpt lat="43.6127981" lon="11.3103489"><ele>290.0</ele><time>2026-03-22T10:29:52.769Z</time></trkpt><trkpt lat="43.6129082" lon="11.31041"><ele>290.0</ele><time>2026-03-22T10:29:53.769Z</time></trkpt><trkpt lat="43.6130203" lon="11.3104673"><ele>291.25</ele><time>2026-03-22T10:29:54.769Z</time></trkpt><trkpt lat="43.6131259" lon="11.3105242"><ele>292.5</ele><time>2026-03-22T10:29:55.769Z</time></trkpt><trkpt lat="43.6132292" lon="11.3105914"><ele>293.75</ele><time>2026-03-22T10:29:56.769Z</time></trkpt><trkpt lat="43.6133502" lon="11.3106452"><ele>295.0</ele><time>2026-03-22T10:29:57.769Z</time></trkpt><trkpt lat="43.6134733" lon="11.310711"><ele>295.8</ele><time>2026-03-22T10:29:58.77Z</time></trkpt><trkpt lat="43.6135914" lon="11.3107721"><ele>296.6</ele><time>2026-03-22T10:29:59.769Z</time></trkpt><trkpt lat="43.6137042" lon="11.3108314"><ele>297.4</ele><time>2026-03-22T10:30:00.769Z</time></trkpt><trkpt lat="43.6138009" lon="11.3108801"><ele>298.2</ele><time>2026-03-22T10:30:01.769Z</time></trkpt><trkpt lat="43.613892" lon="11.3108892"><ele>299.0</ele><time>2026-03-22T10:30:02.768Z</time></trkpt><trkpt lat="43.614011" lon="11.3108692"><ele>303.0</ele><time>2026-03-22T10:30:03.769Z</time></trkpt><trkpt lat="43.6141182" lon="11.3108808"><ele>307.0</ele><time>2026-03-22T10:30:04.769Z</time></trkpt><trkpt lat="43.6142503" lon="11.3108856"><ele>311.0</ele><time>2026-03-22T10:30:05.768Z</time></trkpt><trkpt lat="43.6143787" lon="11.3109004"><ele>315.0</ele><time>2026-03-22T10:30:06.769Z</time></trkpt><trkpt lat="43.6145017" lon="11.3109053"><ele>317.6</ele><time>2026-03-22T10:30:07.769Z</time></trkpt><trkpt lat="43.6146143" lon="11.3109151"><ele>320.2</ele><time>2026-03-22T10:30:08.769Z</time></trkpt><trkpt lat="43.6147264" lon="11.3109062"><ele>322.79999999999995</ele><time>2026-03-22T10:30:09.768Z</time></trkpt><trkpt lat="43.6148467" lon="11.3109049"><ele>325.4</ele><time>2026-03-22T10:30:10.769Z</time></trkpt><trkpt lat="43.6149492" lon="11.3109072"><ele>328.0</ele><time>2026-03-22T10:30:11.768Z</time></trkpt><trkpt lat="43.6150466" lon="11.3109088"><ele>328.0</ele><time>2026-03-22T10:30:12.769Z</time></trkpt><trkpt lat="43.6151256" lon="11.3109108"><ele>328.0</ele><time>2026-03-22T10:30:13.77Z</time></trkpt><trkpt lat="43.6151926" lon="11.310913"><ele>328.0</ele><time>2026-03-22T10:30:14.768Z</time></trkpt><trkpt lat="43.6153059" lon="11.3109376"><ele>328.0</ele><time>2026-03-22T10:30:16.768Z</time></trkpt><trkpt lat="43.6153222" lon="11.3110693"><ele>328.0</ele><time>2026-03-22T10:30:18.768Z</time></trkpt><trkpt lat="43.6153485" lon="11.3112173"><ele>327.5</ele><time>2026-03-22T10:30:20.77Z</time></trkpt><trkpt lat="43.6153635" lon="11.3113029"><ele>327.0</ele><time>2026-03-22T10:30:21.768Z</time></trkpt><trkpt lat="43.6153734" lon="11.3114013"><ele>326.5</ele><time>2026-03-22T10:30:22.77Z</time></trkpt><trkpt lat="43.615386" lon="11.3114982"><ele>326.0</ele><time>2026-03-22T10:30:23.769Z</time></trkpt><trkpt lat="43.6153997" lon="11.3116038"><ele>325.5</ele><time>2026-03-22T10:30:24.769Z</time></trkpt><trkpt lat="43.6154143" lon="11.3117234"><ele>325.0</ele><time>2026-03-22T10:30:25.768Z</time></trkpt><trkpt lat="43.6154247" lon="11.311853"><ele>327.4</ele><time>2026-03-22T10:30:26.768Z</time></trkpt><trkpt lat="43.6154327" lon="11.3119897"><ele>329.8</ele><time>2026-03-22T10:30:27.769Z</time></trkpt><trkpt lat="43.6154406" lon="11.3121279"><ele>332.20000000000005</ele><time>2026-03-22T10:30:28.768Z</time></trkpt><trkpt lat="43.6154556" lon="11.312265"><ele>334.6</ele><time>2026-03-22T10:30:29.769Z</time></trkpt><trkpt lat="43.6154682" lon="11.3124063"><ele>337.0</ele><time>2026-03-22T10:30:30.768Z</time></trkpt><trkpt lat="43.6154815" lon="11.3125509"><ele>338.40000000000003</ele><time>2026-03-22T10:30:31.769Z</time></trkpt><trkpt lat="43.6154948" lon="11.3126935"><ele>339.8</ele><time>2026-03-22T10:30:32.769Z</time></trkpt><trkpt lat="43.6155263" lon="11.3128258"><ele>341.2</ele><time>2026-03-22T10:30:33.768Z</time></trkpt><trkpt lat="43.615562" lon="11.3129522"><ele>342.6</ele><time>2026-03-22T10:30:34.768Z</time></trkpt><trkpt lat="43.6156015" lon="11.3130752"><ele>344.0</ele><time>2026-03-22T10:30:35.77Z</time></trkpt><trkpt lat="43.615639" lon="11.3131964"><ele>344.79999999999995</ele><time>2026-03-22T10:30:36.768Z</time></trkpt><trkpt lat="43.6156747" lon="11.3133223"><ele>345.59999999999997</ele><time>2026-03-22T10:30:37.768Z</time></trkpt><trkpt lat="43.6156956" lon="11.3134552"><ele>346.4</ele><time>2026-03-22T10:30:38.769Z</time></trkpt><trkpt lat="43.6156991" lon="11.3135898"><ele>347.2</ele><time>2026-03-22T10:30:39.77Z</time></trkpt><trkpt lat="43.615692" lon="11.3137243"><ele>348.0</ele><time>2026-03-22T10:30:40.769Z</time></trkpt><trkpt lat="43.6156799" lon="11.3138693"><ele>348.59999999999997</ele><time>2026-03-22T10:30:41.768Z</time></trkpt><trkpt lat="43.615673" lon="11.3140102"><ele>349.2</ele><time>2026-03-22T10:30:42.768Z</time></trkpt><trkpt lat="43.6156808" lon="11.314154"><ele>349.8</ele><time>2026-03-22T10:30:43.769Z</time></trkpt><trkpt lat="43.6156761" lon="11.314296"><ele>350.4</ele><time>2026-03-22T10:30:44.769Z</time></trkpt><trkpt lat="43.6156844" lon="11.3144188"><ele>351.0</ele><time>2026-03-22T10:30:45.768Z</time></trkpt><trkpt lat="43.615709" lon="11.3145357"><ele>351.0</ele><time>2026-03-22T10:30:46.769Z</time></trkpt><trkpt lat="43.6157512" lon="11.3146348"><ele>351.0</ele><time>2026-03-22T10:30:47.769Z</time></trkpt><trkpt lat="43.6158014" lon="11.3147299"><ele>351.0</ele><time>2026-03-22T10:30:48.769Z</time></trkpt><trkpt lat="43.6158399" lon="11.3148211"><ele>351.0</ele><time>2026-03-22T10:30:49.769Z</time></trkpt><trkpt lat="43.6158808" lon="11.3149138"><ele>351.0</ele><time>2026-03-22T10:30:50.769Z</time></trkpt><trkpt lat="43.6158877" lon="11.3150313"><ele>351.0</ele><time>2026-03-22T10:30:51.77Z</time></trkpt><trkpt lat="43.6158759" lon="11.3151658"><ele>351.8</ele><time>2026-03-22T10:30:52.768Z</time></trkpt><trkpt lat="43.6158509" lon="11.3153195"><ele>352.6</ele><time>2026-03-22T10:30:53.768Z</time></trkpt><trkpt lat="43.6158296" lon="11.3154525"><ele>353.4</ele><time>2026-03-22T10:30:54.768Z</time></trkpt><trkpt lat="43.6158113" lon="11.3155835"><ele>354.2</ele><time>2026-03-22T10:30:55.769Z</time></trkpt><trkpt lat="43.6157792" lon="11.3157103"><ele>355.0</ele><time>2026-03-22T10:30:56.768Z</time></trkpt><trkpt lat="43.6157698" lon="11.3158138"><ele>355.6</ele><time>2026-03-22T10:30:57.768Z</time></trkpt><trkpt lat="43.6157714" lon="11.3159903"><ele>356.2</ele><time>2026-03-22T10:30:59.768Z</time></trkpt><trkpt lat="43.6158344" lon="11.3160144"><ele>356.79999999999995</ele><time>2026-03-22T10:31:00.769Z</time></trkpt><trkpt lat="43.6159086" lon="11.3160919"><ele>357.4</ele><time>2026-03-22T10:31:01.77Z</time></trkpt><trkpt lat="43.6159951" lon="11.3161531"><ele>358.0</ele><time>2026-03-22T10:31:02.769Z</time></trkpt><trkpt lat="43.6160861" lon="11.3162731"><ele>358.25</ele><time>2026-03-22T10:31:03.769Z</time></trkpt><trkpt lat="43.6161723" lon="11.3164156"><ele>358.5</ele><time>2026-03-22T10:31:04.769Z</time></trkpt><trkpt lat="43.6162576" lon="11.316527"><ele>358.75</ele><time>2026-03-22T10:31:05.768Z</time></trkpt><trkpt lat="43.6163365" lon="11.3166517"><ele>359.0</ele><time>2026-03-22T10:31:06.769Z</time></trkpt><trkpt lat="43.6164369" lon="11.316766"><ele>359.0</ele><time>2026-03-22T10:31:07.768Z</time></trkpt><trkpt lat="43.6165198" lon="11.3168886"><ele>359.0</ele><time>2026-03-22T10:31:08.768Z</time></trkpt><trkpt lat="43.6166095" lon="11.3170057"><ele>359.0</ele><time>2026-03-22T10:31:09.768Z</time></trkpt><trkpt lat="43.6167109" lon="11.3171301"><ele>359.0</ele><time>2026-03-22T10:31:10.769Z</time></trkpt><trkpt lat="43.6168035" lon="11.3172795"><ele>359.5</ele><time>2026-03-22T10:31:11.768Z</time></trkpt><trkpt lat="43.616904" lon="11.317421"><ele>360.0</ele><time>2026-03-22T10:31:12.768Z</time></trkpt><trkpt lat="43.6170056" lon="11.31753"><ele>360.5</ele><time>2026-03-22T10:31:13.77Z</time></trkpt><trkpt lat="43.6171279" lon="11.3176271"><ele>361.0</ele><time>2026-03-22T10:31:14.769Z</time></trkpt><trkpt lat="43.6172553" lon="11.3177189"><ele>361.0</ele><time>2026-03-22T10:31:15.77Z</time></trkpt><trkpt lat="43.6173838" lon="11.3178163"><ele>361.0</ele><time>2026-03-22T10:31:16.769Z</time></trkpt><trkpt lat="43.6175245" lon="11.317917"><ele>361.0</ele><time>2026-03-22T10:31:17.768Z</time></trkpt><trkpt lat="43.6176539" lon="11.318015"><ele>361.25</ele><time>2026-03-22T10:31:18.77Z</time></trkpt><trkpt lat="43.6177682" lon="11.3181095"><ele>361.5</ele><time>2026-03-22T10:31:19.769Z</time></trkpt><trkpt lat="43.6178651" lon="11.3181959"><ele>361.75</ele><time>2026-03-22T10:31:20.769Z</time></trkpt><trkpt lat="43.6179633" lon="11.3182635"><ele>362.0</ele><time>2026-03-22T10:31:21.769Z</time></trkpt><trkpt lat="43.618059" lon="11.3183366"><ele>362.0</ele><time>2026-03-22T10:31:22.769Z</time></trkpt><trkpt lat="43.6181627" lon="11.3184202"><ele>362.0</ele><time>2026-03-22T10:31:23.769Z</time></trkpt><trkpt lat="43.6182676" lon="11.31852"><ele>362.0</ele><time>2026-03-22T10:31:24.769Z</time></trkpt><trkpt lat="43.6183659" lon="11.3186348"><ele>362.0</ele><time>2026-03-22T10:31:25.769Z</time></trkpt><trkpt lat="43.6184672" lon="11.318769"><ele>361.0</ele><time>2026-03-22T10:31:26.769Z</time></trkpt><trkpt lat="43.6185651" lon="11.3189037"><ele>360.0</ele><time>2026-03-22T10:31:27.769Z</time></trkpt><trkpt lat="43.6186617" lon="11.3190277"><ele>359.0</ele><time>2026-03-22T10:31:28.769Z</time></trkpt><trkpt lat="43.6187548" lon="11.3191418"><ele>358.0</ele><time>2026-03-22T10:31:29.769Z</time></trkpt><trkpt lat="43.6188405" lon="11.319252"><ele>357.79999999999995</ele><time>2026-03-22T10:31:30.769Z</time></trkpt><trkpt lat="43.6189185" lon="11.3193514"><ele>357.6</ele><time>2026-03-22T10:31:31.769Z</time></trkpt><trkpt lat="43.6190015" lon="11.3194506"><ele>357.4</ele><time>2026-03-22T10:31:32.768Z</time></trkpt><trkpt lat="43.6190768" lon="11.3195466"><ele>357.20000000000005</ele><time>2026-03-22T10:31:33.768Z</time></trkpt><trkpt lat="43.619152" lon="11.3196382"><ele>357.0</ele><time>2026-03-22T10:31:34.768Z</time></trkpt><trkpt lat="43.6192256" lon="11.3197298"><ele>357.1666666666667</ele><time>2026-03-22T10:31:35.768Z</time></trkpt><trkpt lat="43.6192995" lon="11.3198135"><ele>357.3333333333333</ele><time>2026-03-22T10:31:36.77Z</time></trkpt><trkpt lat="43.6193667" lon="11.3198954"><ele>357.5</ele><time>2026-03-22T10:31:37.768Z</time></trkpt><trkpt lat="43.6194306" lon="11.3199777"><ele>357.66666666666663</ele><time>2026-03-22T10:31:38.769Z</time></trkpt><trkpt lat="43.6194911" lon="11.3200537"><ele>357.8333333333333</ele><time>2026-03-22T10:31:39.768Z</time></trkpt><trkpt lat="43.6195465" lon="11.3201259"><ele>358.0</ele><time>2026-03-22T10:31:40.768Z</time></trkpt><trkpt lat="43.6196035" lon="11.3201992"><ele>358.0</ele><time>2026-03-22T10:31:41.769Z</time></trkpt><trkpt lat="43.6196564" lon="11.3202786"><ele>358.0</ele><time>2026-03-22T10:31:42.768Z</time></trkpt><trkpt lat="43.6197036" lon="11.3203609"><ele>358.0</ele><time>2026-03-22T10:31:43.768Z</time></trkpt><trkpt lat="43.6197437" lon="11.3204564"><ele>358.0</ele><time>2026-03-22T10:31:44.769Z</time></trkpt><trkpt lat="43.6197819" lon="11.3205528"><ele>358.0</ele><time>2026-03-22T10:31:45.769Z</time></trkpt><trkpt lat="43.6198224" lon="11.3206498"><ele>358.0</ele><time>2026-03-22T10:31:46.769Z</time></trkpt><trkpt lat="43.619864" lon="11.3207523"><ele>358.2</ele><time>2026-03-22T10:31:47.769Z</time></trkpt><trkpt lat="43.619908" lon="11.3208641"><ele>358.4</ele><time>2026-03-22T10:31:48.768Z</time></trkpt><trkpt lat="43.619954" lon="11.3209827"><ele>358.59999999999997</ele><time>2026-03-22T10:31:49.769Z</time></trkpt><trkpt lat="43.6199984" lon="11.3210716"><ele>358.79999999999995</ele><time>2026-03-22T10:31:50.768Z</time></trkpt><trkpt lat="43.6200504" lon="11.3211264"><ele>359.0</ele><time>2026-03-22T10:31:51.769Z</time></trkpt><trkpt lat="43.6201833" lon="11.3211249"><ele>359.0</ele><time>2026-03-22T10:31:53.769Z</time></trkpt><trkpt lat="43.6202825" lon="11.3210791"><ele>359.0</ele><time>2026-03-22T10:31:54.769Z</time></trkpt><trkpt lat="43.6204043" lon="11.3210159"><ele>359.0</ele><time>2026-03-22T10:31:55.769Z</time></trkpt><trkpt lat="43.6205311" lon="11.3209497"><ele>359.0</ele><time>2026-03-22T10:31:56.769Z</time></trkpt><trkpt lat="43.6206483" lon="11.320893"><ele>356.75</ele><time>2026-03-22T10:31:57.769Z</time></trkpt><trkpt lat="43.6207707" lon="11.3208368"><ele>354.5</ele><time>2026-03-22T10:31:58.769Z</time></trkpt><trkpt lat="43.6209045" lon="11.3207928"><ele>352.25</ele><time>2026-03-22T10:31:59.77Z</time></trkpt><trkpt lat="43.6210419" lon="11.3207588"><ele>350.0</ele><time>2026-03-22T10:32:00.768Z</time></trkpt><trkpt lat="43.6211706" lon="11.3207316"><ele>347.0</ele><time>2026-03-22T10:32:01.77Z</time></trkpt><trkpt lat="43.6212855" lon="11.3207144"><ele>344.0</ele><time>2026-03-22T10:32:02.769Z</time></trkpt><trkpt lat="43.6213922" lon="11.3207023"><ele>341.0</ele><time>2026-03-22T10:32:03.769Z</time></trkpt><trkpt lat="43.6214867" lon="11.3207018"><ele>338.0</ele><time>2026-03-22T10:32:04.768Z</time></trkpt><trkpt lat="43.6215625" lon="11.3207246"><ele>335.0</ele><time>2026-03-22T10:32:05.769Z</time></trkpt><trkpt lat="43.621627" lon="11.3207728"><ele>335.0</ele><time>2026-03-22T10:32:06.768Z</time></trkpt><trkpt lat="43.6216883" lon="11.3208195"><ele>335.0</ele><time>2026-03-22T10:32:07.769Z</time></trkpt><trkpt lat="43.6216936" lon="11.3209124"><ele>335.0</ele><time>2026-03-22T10:32:08.77Z</time></trkpt><trkpt lat="43.621713" lon="11.3210283"><ele>335.0</ele><time>2026-03-22T10:32:09.769Z</time></trkpt><trkpt lat="43.6217391" lon="11.3211482"><ele>335.0</ele><time>2026-03-22T10:32:10.769Z</time></trkpt><trkpt lat="43.6217615" lon="11.3212498"><ele>335.0</ele><time>2026-03-22T10:32:11.77Z</time></trkpt><trkpt lat="43.6217972" lon="11.3213237"><ele>335.0</ele><time>2026-03-22T10:32:12.769Z</time></trkpt><trkpt lat="43.6218746" lon="11.3213341"><ele>335.0</ele><time>2026-03-22T10:32:13.768Z</time></trkpt><trkpt lat="43.6219571" lon="11.3212629"><ele>335.0</ele><time>2026-03-22T10:32:14.77Z</time></trkpt><trkpt lat="43.6220744" lon="11.3212471"><ele>335.0</ele><time>2026-03-22T10:32:15.768Z</time></trkpt><trkpt lat="43.6221627" lon="11.321154"><ele>335.0</ele><time>2026-03-22T10:32:16.768Z</time></trkpt><trkpt lat="43.622289" lon="11.3210605"><ele>335.33333333333337</ele><time>2026-03-22T10:32:17.768Z</time></trkpt><trkpt lat="43.62238" lon="11.3208706"><ele>335.6666666666667</ele><time>2026-03-22T10:32:18.768Z</time></trkpt><trkpt lat="43.622469" lon="11.3206737"><ele>336.0</ele><time>2026-03-22T10:32:19.768Z</time></trkpt><trkpt lat="43.6225373" lon="11.3204648"><ele>333.0</ele><time>2026-03-22T10:32:20.769Z</time></trkpt><trkpt lat="43.6226007" lon="11.3202142"><ele>330.0</ele><time>2026-03-22T10:32:21.769Z</time></trkpt><trkpt lat="43.6226539" lon="11.3199466"><ele>327.0</ele><time>2026-03-22T10:32:22.769Z</time></trkpt><trkpt lat="43.6227082" lon="11.3197501"><ele>325.8</ele><time>2026-03-22T10:32:23.769Z</time></trkpt><trkpt lat="43.6227213" lon="11.3196019"><ele>324.6</ele><time>2026-03-22T10:32:24.769Z</time></trkpt><trkpt lat="43.6227458" lon="11.3194868"><ele>323.40000000000003</ele><time>2026-03-22T10:32:25.769Z</time></trkpt><trkpt lat="43.6228267" lon="11.3193346"><ele>322.20000000000005</ele><time>2026-03-22T10:32:26.769Z</time></trkpt><trkpt lat="43.6228902" lon="11.3192942"><ele>321.0</ele><time>2026-03-22T10:32:27.77Z</time></trkpt><trkpt lat="43.6230214" lon="11.3193818"><ele>321.0</ele><time>2026-03-22T10:32:29.768Z</time></trkpt><trkpt lat="43.6230743" lon="11.3194785"><ele>321.0</ele><time>2026-03-22T10:32:30.769Z</time></trkpt><trkpt lat="43.6231388" lon="11.319629"><ele>321.0</ele><time>2026-03-22T10:32:31.769Z</time></trkpt><trkpt lat="43.6232136" lon="11.3197005"><ele>321.0</ele><time>2026-03-22T10:32:32.769Z</time></trkpt><trkpt lat="43.6234034" lon="11.3197866"><ele>326.25</ele><time>2026-03-22T10:32:33.768Z</time></trkpt><trkpt lat="43.6235176" lon="11.3198345"><ele>331.5</ele><time>2026-03-22T10:32:34.769Z</time></trkpt><trkpt lat="43.6236352" lon="11.3198396"><ele>336.75</ele><time>2026-03-22T10:32:35.768Z</time></trkpt><trkpt lat="43.6237426" lon="11.3198582"><ele>342.0</ele><time>2026-03-22T10:32:36.769Z</time></trkpt><trkpt lat="43.6238613" lon="11.3198517"><ele>341.0</ele><time>2026-03-22T10:32:37.768Z</time></trkpt><trkpt lat="43.6239428" lon="11.3197016"><ele>340.0</ele><time>2026-03-22T10:32:38.768Z</time></trkpt><trkpt lat="43.6239654" lon="11.3195577"><ele>339.0</ele><time>2026-03-22T10:32:39.77Z</time></trkpt><trkpt lat="43.6240275" lon="11.3194975"><ele>338.0</ele><time>2026-03-22T10:32:40.769Z</time></trkpt><trkpt lat="43.6241481" lon="11.3194574"><ele>337.0</ele><time>2026-03-22T10:32:42.769Z</time></trkpt><trkpt lat="43.6242472" lon="11.3194772"><ele>337.0</ele><time>2026-03-22T10:32:44.769Z</time></trkpt><trkpt lat="43.6243157" lon="11.319621"><ele>337.0</ele><time>2026-03-22T10:32:46.769Z</time></trkpt><trkpt lat="43.6243488" lon="11.3197188"><ele>337.0</ele><time>2026-03-22T10:32:47.769Z</time></trkpt><trkpt lat="43.624315" lon="11.3198731"><ele>337.0</ele><time>2026-03-22T10:32:48.768Z</time></trkpt><trkpt lat="43.62432" lon="11.3200071"><ele>337.0</ele><time>2026-03-22T10:32:49.769Z</time></trkpt><trkpt lat="43.6243316" lon="11.3201825"><ele>342.0</ele><time>2026-03-22T10:32:50.769Z</time></trkpt><trkpt lat="43.6243872" lon="11.3203717"><ele>347.0</ele><time>2026-03-22T10:32:51.768Z</time></trkpt><trkpt lat="43.6244661" lon="11.3205778"><ele>352.0</ele><time>2026-03-22T10:32:52.768Z</time></trkpt><trkpt lat="43.6245298" lon="11.320795"><ele>353.3333333333333</ele><time>2026-03-22T10:32:53.769Z</time></trkpt><trkpt lat="43.6246258" lon="11.3210521"><ele>354.6666666666667</ele><time>2026-03-22T10:32:54.769Z</time></trkpt><trkpt lat="43.6247339" lon="11.3212795"><ele>356.0</ele><time>2026-03-22T10:32:55.768Z</time></trkpt><trkpt lat="43.6248142" lon="11.3215386"><ele>358.25</ele><time>2026-03-22T10:32:56.768Z</time></trkpt><trkpt lat="43.6248886" lon="11.3217033"><ele>360.5</ele><time>2026-03-22T10:32:57.769Z</time></trkpt><trkpt lat="43.6249442" lon="11.3218553"><ele>362.75</ele><time>2026-03-22T10:32:58.769Z</time></trkpt><trkpt lat="43.6250071" lon="11.3220083"><ele>365.0</ele><time>2026-03-22T10:32:59.769Z</time></trkpt><trkpt lat="43.6250769" lon="11.3221418"><ele>365.0</ele><time>2026-03-22T10:33:00.768Z</time></trkpt><trkpt lat="43.6251781" lon="11.3222406"><ele>365.0</ele><time>2026-03-22T10:33:01.769Z</time></trkpt><trkpt lat="43.6252425" lon="11.3222027"><ele>365.0</ele><time>2026-03-22T10:33:02.768Z</time></trkpt><trkpt lat="43.6253134" lon="11.3222461"><ele>365.0</ele><time>2026-03-22T10:33:03.768Z</time></trkpt><trkpt lat="43.6254069" lon="11.3222394"><ele>365.0</ele><time>2026-03-22T10:33:05.769Z</time></trkpt><trkpt lat="43.6254041" lon="11.3221248"><ele>365.0</ele><time>2026-03-22T10:33:07.769Z</time></trkpt><trkpt lat="43.6253256" lon="11.3219618"><ele>365.0</ele><time>2026-03-22T10:33:08.768Z</time></trkpt><trkpt lat="43.6252908" lon="11.3218196"><ele>365.0</ele><time>2026-03-22T10:33:09.77Z</time></trkpt><trkpt lat="43.6252868" lon="11.3216662"><ele>365.0</ele><time>2026-03-22T10:33:10.769Z</time></trkpt><trkpt lat="43.6252954" lon="11.3215075"><ele>365.0</ele><time>2026-03-22T10:33:11.769Z</time></trkpt><trkpt lat="43.6253139" lon="11.3213527"><ele>365.0</ele><time>2026-03-22T10:33:12.769Z</time></trkpt><trkpt lat="43.6253674" lon="11.3211895"><ele>364.0</ele><time>2026-03-22T10:33:13.768Z</time></trkpt><trkpt lat="43.6254096" lon="11.321014"><ele>363.0</ele><time>2026-03-22T10:33:14.768Z</time></trkpt><trkpt lat="43.6254911" lon="11.3207684"><ele>362.0</ele><time>2026-03-22T10:33:15.769Z</time></trkpt><trkpt lat="43.6255484" lon="11.3205509"><ele>362.0</ele><time>2026-03-22T10:33:16.769Z</time></trkpt><trkpt lat="43.625602" lon="11.3203492"><ele>362.0</ele><time>2026-03-22T10:33:17.769Z</time></trkpt><trkpt lat="43.6256476" lon="11.3201619"><ele>362.0</ele><time>2026-03-22T10:33:18.769Z</time></trkpt><trkpt lat="43.6256752" lon="11.3200228"><ele>362.0</ele><time>2026-03-22T10:33:19.769Z</time></trkpt><trkpt lat="43.6257166" lon="11.3199222"><ele>362.0</ele><time>2026-03-22T10:33:20.768Z</time></trkpt><trkpt lat="43.6257636" lon="11.3197949"><ele>362.0</ele><time>2026-03-22T10:33:21.769Z</time></trkpt><trkpt lat="43.6258691" lon="11.3198522"><ele>362.0</ele><time>2026-03-22T10:33:22.769Z</time></trkpt><trkpt lat="43.6259359" lon="11.3198468"><ele>362.0</ele><time>2026-03-22T10:33:23.768Z</time></trkpt><trkpt lat="43.6260025" lon="11.3198832"><ele>362.0</ele><time>2026-03-22T10:33:24.769Z</time></trkpt><trkpt lat="43.6260583" lon="11.3199256"><ele>362.0</ele><time>2026-03-22T10:33:25.769Z</time></trkpt><trkpt lat="43.626122" lon="11.3200468"><ele>363.33333333333337</ele><time>2026-03-22T10:33:26.769Z</time></trkpt><trkpt lat="43.6261918" lon="11.3202196"><ele>364.6666666666667</ele><time>2026-03-22T10:33:27.769Z</time></trkpt><trkpt lat="43.6262666" lon="11.3203984"><ele>366.0</ele><time>2026-03-22T10:33:28.77Z</time></trkpt><trkpt lat="43.6263452" lon="11.3205966"><ele>366.0</ele><time>2026-03-22T10:33:29.769Z</time></trkpt><trkpt lat="43.6264344" lon="11.3207956"><ele>366.0</ele><time>2026-03-22T10:33:30.768Z</time></trkpt><trkpt lat="43.6265065" lon="11.32096"><ele>366.0</ele><time>2026-03-22T10:33:31.769Z</time></trkpt><trkpt lat="43.6265799" lon="11.3211363"><ele>366.0</ele><time>2026-03-22T10:33:32.768Z</time></trkpt><trkpt lat="43.6266474" lon="11.3212977"><ele>366.0</ele><time>2026-03-22T10:33:33.768Z</time></trkpt><trkpt lat="43.6267256" lon="11.3214587"><ele>366.0</ele><time>2026-03-22T10:33:34.768Z</time></trkpt><trkpt lat="43.6268149" lon="11.3215971"><ele>366.0</ele><time>2026-03-22T10:33:35.769Z</time></trkpt><trkpt lat="43.62691" lon="11.3217195"><ele>368.8</ele><time>2026-03-22T10:33:36.769Z</time></trkpt><trkpt lat="43.6269859" lon="11.3217848"><ele>371.6</ele><time>2026-03-22T10:33:37.769Z</time></trkpt><trkpt lat="43.6270606" lon="11.3218898"><ele>374.4</ele><time>2026-03-22T10:33:38.769Z</time></trkpt><trkpt lat="43.6271353" lon="11.3219461"><ele>377.2</ele><time>2026-03-22T10:33:39.769Z</time></trkpt><trkpt lat="43.6272026" lon="11.3219746"><ele>380.0</ele><time>2026-03-22T10:33:40.769Z</time></trkpt><trkpt lat="43.6272016" lon="11.3218357"><ele>380.0</ele><time>2026-03-22T10:33:41.768Z</time></trkpt><trkpt lat="43.6271639" lon="11.3214942"><ele>380.0</ele><time>2026-03-22T10:33:43.768Z</time></trkpt><trkpt lat="43.6271573" lon="11.3213293"><ele>380.0</ele><time>2026-03-22T10:33:44.77Z</time></trkpt><trkpt lat="43.6271852" lon="11.3212142"><ele>377.8</ele><time>2026-03-22T10:33:45.769Z</time></trkpt><trkpt lat="43.627231" lon="11.3211144"><ele>375.6</ele><time>2026-03-22T10:33:46.768Z</time></trkpt><trkpt lat="43.6273086" lon="11.3210821"><ele>373.4</ele><time>2026-03-22T10:33:48.769Z</time></trkpt><trkpt lat="43.6274525" lon="11.3211671"><ele>371.2</ele><time>2026-03-22T10:33:50.769Z</time></trkpt><trkpt lat="43.6275335" lon="11.3212646"><ele>369.0</ele><time>2026-03-22T10:33:51.768Z</time></trkpt><trkpt lat="43.6276277" lon="11.3213297"><ele>369.0</ele><time>2026-03-22T10:33:52.769Z</time></trkpt><trkpt lat="43.6277108" lon="11.3213624"><ele>369.0</ele><time>2026-03-22T10:33:53.769Z</time></trkpt><trkpt lat="43.6277962" lon="11.3214077"><ele>369.0</ele><time>2026-03-22T10:33:54.769Z</time></trkpt><trkpt lat="43.6279157" lon="11.3213812"><ele>369.0</ele><time>2026-03-22T10:33:55.768Z</time></trkpt><trkpt lat="43.6279932" lon="11.3212648"><ele>369.0</ele><time>2026-03-22T10:33:56.768Z</time></trkpt><trkpt lat="43.6280447" lon="11.3211323"><ele>370.0</ele><time>2026-03-22T10:33:57.769Z</time></trkpt><trkpt lat="43.6280663" lon="11.3209542"><ele>371.0</ele><time>2026-03-22T10:33:58.768Z</time></trkpt><trkpt lat="43.6281118" lon="11.3207757"><ele>372.0</ele><time>2026-03-22T10:33:59.768Z</time></trkpt><trkpt lat="43.6281642" lon="11.3206373"><ele>373.0</ele><time>2026-03-22T10:34:00.768Z</time></trkpt><trkpt lat="43.6282007" lon="11.3204722"><ele>373.0</ele><time>2026-03-22T10:34:01.768Z</time></trkpt><trkpt lat="43.6282194" lon="11.3203119"><ele>373.0</ele><time>2026-03-22T10:34:02.768Z</time></trkpt><trkpt lat="43.6282464" lon="11.3201629"><ele>373.0</ele><time>2026-03-22T10:34:03.769Z</time></trkpt><trkpt lat="43.6282775" lon="11.3200555"><ele>373.0</ele><time>2026-03-22T10:34:04.769Z</time></trkpt><trkpt lat="43.6283193" lon="11.3199706"><ele>373.0</ele><time>2026-03-22T10:34:05.769Z</time></trkpt><trkpt lat="43.6283781" lon="11.3198893"><ele>373.0</ele><time>2026-03-22T10:34:06.768Z</time></trkpt><trkpt lat="43.6284797" lon="11.3198775"><ele>373.0</ele><time>2026-03-22T10:34:07.769Z</time></trkpt><trkpt lat="43.6285752" lon="11.3198299"><ele>373.0</ele><time>2026-03-22T10:34:08.769Z</time></trkpt><trkpt lat="43.6287372" lon="11.3198751"><ele>373.0</ele><time>2026-03-22T10:34:09.769Z</time></trkpt><trkpt lat="43.6288723" lon="11.3198841"><ele>373.2</ele><time>2026-03-22T10:34:10.769Z</time></trkpt><trkpt lat="43.628997" lon="11.3198613"><ele>373.4</ele><time>2026-03-22T10:34:12.769Z</time></trkpt><trkpt lat="43.6290536" lon="11.319808"><ele>373.59999999999997</ele><time>2026-03-22T10:34:13.769Z</time></trkpt><trkpt lat="43.6291256" lon="11.3196966"><ele>373.79999999999995</ele><time>2026-03-22T10:34:15.769Z</time></trkpt><trkpt lat="43.6291203" lon="11.3195771"><ele>374.0</ele><time>2026-03-22T10:34:16.769Z</time></trkpt><trkpt lat="43.6290258" lon="11.319344"><ele>374.0</ele><time>2026-03-22T10:34:17.769Z</time></trkpt><trkpt lat="43.6289798" lon="11.319138"><ele>374.0</ele><time>2026-03-22T10:34:18.769Z</time></trkpt><trkpt lat="43.6289321" lon="11.3189535"><ele>374.0</ele><time>2026-03-22T10:34:19.768Z</time></trkpt><trkpt lat="43.6288916" lon="11.318769"><ele>374.0</ele><time>2026-03-22T10:34:20.769Z</time></trkpt><trkpt lat="43.628841" lon="11.3185998"><ele>372.79999999999995</ele><time>2026-03-22T10:34:21.77Z</time></trkpt><trkpt lat="43.6287895" lon="11.3184791"><ele>371.59999999999997</ele><time>2026-03-22T10:34:22.769Z</time></trkpt><trkpt lat="43.6287479" lon="11.3183519"><ele>370.4</ele><time>2026-03-22T10:34:23.77Z</time></trkpt><trkpt lat="43.6287221" lon="11.3182403"><ele>369.2</ele><time>2026-03-22T10:34:24.77Z</time></trkpt><trkpt lat="43.6286946" lon="11.3181279"><ele>368.0</ele><time>2026-03-22T10:34:25.768Z</time></trkpt><trkpt lat="43.6287098" lon="11.3180077"><ele>365.4</ele><time>2026-03-22T10:34:26.769Z</time></trkpt><trkpt lat="43.6287597" lon="11.3179269"><ele>362.79999999999995</ele><time>2026-03-22T10:34:27.769Z</time></trkpt><trkpt lat="43.6288116" lon="11.3178153"><ele>360.2</ele><time>2026-03-22T10:34:28.769Z</time></trkpt><trkpt lat="43.6288737" lon="11.3177056"><ele>357.6</ele><time>2026-03-22T10:34:29.769Z</time></trkpt><trkpt lat="43.6289776" lon="11.3176126"><ele>355.0</ele><time>2026-03-22T10:34:30.77Z</time></trkpt><trkpt lat="43.6290969" lon="11.3175814"><ele>355.0</ele><time>2026-03-22T10:34:31.769Z</time></trkpt><trkpt lat="43.6291881" lon="11.3175582"><ele>355.0</ele><time>2026-03-22T10:34:32.769Z</time></trkpt><trkpt lat="43.6292895" lon="11.3176322"><ele>355.0</ele><time>2026-03-22T10:34:33.768Z</time></trkpt><trkpt lat="43.6293917" lon="11.3176701"><ele>355.0</ele><time>2026-03-22T10:34:34.769Z</time></trkpt><trkpt lat="43.6294915" lon="11.3177101"><ele>355.0</ele><time>2026-03-22T10:34:35.768Z</time></trkpt><trkpt lat="43.6295968" lon="11.3177147"><ele>356.0</ele><time>2026-03-22T10:34:36.768Z</time></trkpt><trkpt lat="43.6297202" lon="11.3177161"><ele>357.0</ele><time>2026-03-22T10:34:37.768Z</time></trkpt><trkpt lat="43.6298226" lon="11.3176839"><ele>358.0</ele><time>2026-03-22T10:34:38.768Z</time></trkpt><trkpt lat="43.6298997" lon="11.317622"><ele>359.0</ele><time>2026-03-22T10:34:39.769Z</time></trkpt><trkpt lat="43.6299638" lon="11.3176162"><ele>360.0</ele><time>2026-03-22T10:34:40.77Z</time></trkpt><trkpt lat="43.6299461" lon="11.3175109"><ele>360.0</ele><time>2026-03-22T10:34:41.77Z</time></trkpt><trkpt lat="43.6300114" lon="11.3174492"><ele>360.0</ele><time>2026-03-22T10:34:42.768Z</time></trkpt><trkpt lat="43.6300306" lon="11.3173503"><ele>360.0</ele><time>2026-03-22T10:34:43.768Z</time></trkpt><trkpt lat="43.6299241" lon="11.3171666"><ele>360.0</ele><time>2026-03-22T10:34:44.768Z</time></trkpt><trkpt lat="43.6298909" lon="11.3170403"><ele>360.0</ele><time>2026-03-22T10:34:45.769Z</time></trkpt><trkpt lat="43.6299243" lon="11.3169203"><ele>358.8</ele><time>2026-03-22T10:34:46.77Z</time></trkpt><trkpt lat="43.6299784" lon="11.3168412"><ele>357.6</ele><time>2026-03-22T10:34:47.769Z</time></trkpt><trkpt lat="43.6301205" lon="11.316863"><ele>356.4</ele><time>2026-03-22T10:34:48.769Z</time></trkpt><trkpt lat="43.63023" lon="11.316822"><ele>355.2</ele><time>2026-03-22T10:34:49.769Z</time></trkpt><trkpt lat="43.6303376" lon="11.3167814"><ele>354.0</ele><time>2026-03-22T10:34:50.768Z</time></trkpt><trkpt lat="43.6303863" lon="11.3166953"><ele>356.2</ele><time>2026-03-22T10:34:51.769Z</time></trkpt><trkpt lat="43.630452" lon="11.316604"><ele>358.4</ele><time>2026-03-22T10:34:52.768Z</time></trkpt><trkpt lat="43.6304613" lon="11.3164556"><ele>360.6</ele><time>2026-03-22T10:34:53.768Z</time></trkpt><trkpt lat="43.6304649" lon="11.316348"><ele>362.8</ele><time>2026-03-22T10:34:54.768Z</time></trkpt><trkpt lat="43.6304538" lon="11.3162287"><ele>365.0</ele><time>2026-03-22T10:34:55.769Z</time></trkpt><trkpt lat="43.6303672" lon="11.3161502"><ele>362.5</ele><time>2026-03-22T10:34:56.769Z</time></trkpt><trkpt lat="43.6302952" lon="11.3160364"><ele>360.0</ele><time>2026-03-22T10:34:57.769Z</time></trkpt><trkpt lat="43.630221" lon="11.3159282"><ele>357.5</ele><time>2026-03-22T10:34:58.769Z</time></trkpt><trkpt lat="43.630142" lon="11.3157974"><ele>355.0</ele><time>2026-03-22T10:34:59.769Z</time></trkpt><trkpt lat="43.63006" lon="11.3156616"><ele>356.75</ele><time>2026-03-22T10:35:00.768Z</time></trkpt><trkpt lat="43.6299648" lon="11.3155241"><ele>358.5</ele><time>2026-03-22T10:35:01.768Z</time></trkpt><trkpt lat="43.6298838" lon="11.3153599"><ele>360.25</ele><time>2026-03-22T10:35:02.768Z</time></trkpt><trkpt lat="43.6297949" lon="11.3151997"><ele>362.0</ele><time>2026-03-22T10:35:03.769Z</time></trkpt><trkpt lat="43.6296905" lon="11.3150383"><ele>362.0</ele><time>2026-03-22T10:35:04.769Z</time></trkpt><trkpt lat="43.629587" lon="11.3148883"><ele>362.0</ele><time>2026-03-22T10:35:05.768Z</time></trkpt><trkpt lat="43.6294911" lon="11.3147295"><ele>362.0</ele><time>2026-03-22T10:35:06.768Z</time></trkpt><trkpt lat="43.6294092" lon="11.3145978"><ele>362.0</ele><time>2026-03-22T10:35:07.768Z</time></trkpt><trkpt lat="43.6293497" lon="11.3144675"><ele>361.25</ele><time>2026-03-22T10:35:08.77Z</time></trkpt><trkpt lat="43.6292867" lon="11.31433"><ele>360.5</ele><time>2026-03-22T10:35:09.769Z</time></trkpt><trkpt lat="43.6292156" lon="11.3142145"><ele>359.75</ele><time>2026-03-22T10:35:10.77Z</time></trkpt><trkpt lat="43.6291657" lon="11.3140643"><ele>359.0</ele><time>2026-03-22T10:35:11.768Z</time></trkpt><trkpt lat="43.6290947" lon="11.3139243"><ele>358.75</ele><time>2026-03-22T10:35:12.768Z</time></trkpt><trkpt lat="43.6290281" lon="11.3137753"><ele>358.5</ele><time>2026-03-22T10:35:13.768Z</time></trkpt><trkpt lat="43.6289567" lon="11.3136317"><ele>358.25</ele><time>2026-03-22T10:35:14.768Z</time></trkpt><trkpt lat="43.6289023" lon="11.3134923"><ele>358.0</ele><time>2026-03-22T10:35:15.768Z</time></trkpt><trkpt lat="43.6288523" lon="11.3133654"><ele>358.0</ele><time>2026-03-22T10:35:16.768Z</time></trkpt><trkpt lat="43.6288094" lon="11.3132604"><ele>358.0</ele><time>2026-03-22T10:35:17.77Z</time></trkpt><trkpt lat="43.628767" lon="11.3131487"><ele>358.0</ele><time>2026-03-22T10:35:18.768Z</time></trkpt><trkpt lat="43.628724" lon="11.3130546"><ele>358.0</ele><time>2026-03-22T10:35:20.769Z</time></trkpt><trkpt lat="43.6288218" lon="11.3130936"><ele>358.0</ele><time>2026-03-22T10:35:28.769Z</time></trkpt><trkpt lat="43.6289509" lon="11.3131669"><ele>358.0</ele><time>2026-03-22T10:35:30.769Z</time></trkpt><trkpt lat="43.6290279" lon="11.3132015"><ele>358.0</ele><time>2026-03-22T10:35:31.769Z</time></trkpt><trkpt lat="43.629109" lon="11.3132491"><ele>358.0</ele><time>2026-03-22T10:35:32.768Z</time></trkpt><trkpt lat="43.6291837" lon="11.3133058"><ele>358.0</ele><time>2026-03-22T10:35:33.769Z</time></trkpt><trkpt lat="43.6292661" lon="11.3133569"><ele>358.0</ele><time>2026-03-22T10:35:34.769Z</time></trkpt><trkpt lat="43.6293422" lon="11.3134124"><ele>358.0</ele><time>2026-03-22T10:35:35.769Z</time></trkpt><trkpt lat="43.629408" lon="11.3134605"><ele>358.0</ele><time>2026-03-22T10:35:36.769Z</time></trkpt><trkpt lat="43.6294747" lon="11.3135244"><ele>358.0</ele><time>2026-03-22T10:35:37.769Z</time></trkpt><trkpt lat="43.6295319" lon="11.3135996"><ele>358.0</ele><time>2026-03-22T10:35:38.769Z</time></trkpt><trkpt lat="43.6295974" lon="11.3136677"><ele>358.0</ele><time>2026-03-22T10:35:39.769Z</time></trkpt><trkpt lat="43.6296428" lon="11.3137887"><ele>358.0</ele><time>2026-03-22T10:35:40.768Z</time></trkpt><trkpt lat="43.6297041" lon="11.3138991"><ele>358.0</ele><time>2026-03-22T10:35:41.768Z</time></trkpt><trkpt lat="43.6297683" lon="11.3140164"><ele>358.5</ele><time>2026-03-22T10:35:42.77Z</time></trkpt><trkpt lat="43.6298328" lon="11.314131"><ele>359.0</ele><time>2026-03-22T10:35:43.768Z</time></trkpt><trkpt lat="43.6298976" lon="11.314256"><ele>359.5</ele><time>2026-03-22T10:35:44.768Z</time></trkpt><trkpt lat="43.6299714" lon="11.3143867"><ele>360.0</ele><time>2026-03-22T10:35:45.769Z</time></trkpt><trkpt lat="43.6300638" lon="11.3144959"><ele>360.0</ele><time>2026-03-22T10:35:46.768Z</time></trkpt><trkpt lat="43.6301344" lon="11.3146241"><ele>360.0</ele><time>2026-03-22T10:35:47.769Z</time></trkpt><trkpt lat="43.6302007" lon="11.3147403"><ele>360.0</ele><time>2026-03-22T10:35:48.768Z</time></trkpt><trkpt lat="43.6302697" lon="11.3148853"><ele>360.0</ele><time>2026-03-22T10:35:49.769Z</time></trkpt><trkpt lat="43.630328" lon="11.3150378"><ele>358.25</ele><time>2026-03-22T10:35:50.77Z</time></trkpt><trkpt lat="43.6303862" lon="11.3151843"><ele>356.5</ele><time>2026-03-22T10:35:51.768Z</time></trkpt><trkpt lat="43.6304458" lon="11.3153179"><ele>354.75</ele><time>2026-03-22T10:35:52.769Z</time></trkpt><trkpt lat="43.6305175" lon="11.3154304"><ele>353.0</ele><time>2026-03-22T10:35:53.769Z</time></trkpt><trkpt lat="43.6306021" lon="11.3155232"><ele>356.0</ele><time>2026-03-22T10:35:54.768Z</time></trkpt><trkpt lat="43.6306822" lon="11.3156095"><ele>359.0</ele><time>2026-03-22T10:35:55.768Z</time></trkpt><trkpt lat="43.6307835" lon="11.3156889"><ele>362.0</ele><time>2026-03-22T10:35:56.77Z</time></trkpt><trkpt lat="43.630881" lon="11.315783"><ele>365.0</ele><time>2026-03-22T10:35:57.769Z</time></trkpt><trkpt lat="43.630994" lon="11.3158486"><ele>365.0</ele><time>2026-03-22T10:35:58.768Z</time></trkpt><trkpt lat="43.6310906" lon="11.3159317"><ele>365.0</ele><time>2026-03-22T10:35:59.769Z</time></trkpt><trkpt lat="43.6311614" lon="11.3160311"><ele>365.0</ele><time>2026-03-22T10:36:00.768Z</time></trkpt><trkpt lat="43.6312487" lon="11.3161016"><ele>365.0</ele><time>2026-03-22T10:36:01.769Z</time></trkpt><trkpt lat="43.6313389" lon="11.3161782"><ele>365.0</ele><time>2026-03-22T10:36:02.769Z</time></trkpt><trkpt lat="43.6313564" lon="11.3163097"><ele>365.4</ele><time>2026-03-22T10:36:03.769Z</time></trkpt><trkpt lat="43.6313799" lon="11.3164356"><ele>365.8</ele><time>2026-03-22T10:36:04.769Z</time></trkpt><trkpt lat="43.6313934" lon="11.316582"><ele>366.20000000000005</ele><time>2026-03-22T10:36:05.769Z</time></trkpt><trkpt lat="43.6314072" lon="11.3167404"><ele>366.6</ele><time>2026-03-22T10:36:06.768Z</time></trkpt><trkpt lat="43.6314258" lon="11.316899"><ele>367.0</ele><time>2026-03-22T10:36:07.77Z</time></trkpt><trkpt lat="43.6314562" lon="11.3170642"><ele>367.0</ele><time>2026-03-22T10:36:08.768Z</time></trkpt><trkpt lat="43.6314855" lon="11.3172145"><ele>367.0</ele><time>2026-03-22T10:36:09.769Z</time></trkpt><trkpt lat="43.6315026" lon="11.3173617"><ele>367.0</ele><time>2026-03-22T10:36:10.768Z</time></trkpt><trkpt lat="43.6315277" lon="11.3175205"><ele>367.0</ele><time>2026-03-22T10:36:11.768Z</time></trkpt><trkpt lat="43.6315532" lon="11.3176918"><ele>369.0</ele><time>2026-03-22T10:36:12.769Z</time></trkpt><trkpt lat="43.6315804" lon="11.317866"><ele>371.0</ele><time>2026-03-22T10:36:13.769Z</time></trkpt><trkpt lat="43.6316063" lon="11.3180367"><ele>373.0</ele><time>2026-03-22T10:36:14.768Z</time></trkpt><trkpt lat="43.6316294" lon="11.3182171"><ele>375.0</ele><time>2026-03-22T10:36:15.769Z</time></trkpt><trkpt lat="43.6316625" lon="11.3184179"><ele>376.4</ele><time>2026-03-22T10:36:16.769Z</time></trkpt><trkpt lat="43.631687" lon="11.3185997"><ele>377.8</ele><time>2026-03-22T10:36:17.768Z</time></trkpt><trkpt lat="43.6317122" lon="11.3187449"><ele>379.20000000000005</ele><time>2026-03-22T10:36:18.77Z</time></trkpt><trkpt lat="43.6317303" lon="11.3188637"><ele>380.6</ele><time>2026-03-22T10:36:19.769Z</time></trkpt><trkpt lat="43.6317477" lon="11.3189517"><ele>382.0</ele><time>2026-03-22T10:36:20.769Z</time></trkpt><trkpt lat="43.6317834" lon="11.3190924"><ele>382.14285714285717</ele><time>2026-03-22T10:36:22.768Z</time></trkpt><trkpt lat="43.6318208" lon="11.3191644"><ele>382.2857142857143</ele><time>2026-03-22T10:36:23.768Z</time></trkpt><trkpt lat="43.6318612" lon="11.3192366"><ele>382.42857142857144</ele><time>2026-03-22T10:36:24.768Z</time></trkpt><trkpt lat="43.6319097" lon="11.3193295"><ele>382.57142857142856</ele><time>2026-03-22T10:36:25.769Z</time></trkpt><trkpt lat="43.6319564" lon="11.319424"><ele>382.71428571428567</ele><time>2026-03-22T10:36:26.769Z</time></trkpt><trkpt lat="43.6319837" lon="11.3195178"><ele>382.85714285714283</ele><time>2026-03-22T10:36:27.77Z</time></trkpt><trkpt lat="43.6319895" lon="11.3196046"><ele>383.0</ele><time>2026-03-22T10:36:28.769Z</time></trkpt><trkpt lat="43.6319928" lon="11.3196996"><ele>384.0</ele><time>2026-03-22T10:36:29.769Z</time></trkpt><trkpt lat="43.6319891" lon="11.3198029"><ele>385.0</ele><time>2026-03-22T10:36:30.768Z</time></trkpt><trkpt lat="43.6319729" lon="11.3198989"><ele>386.0</ele><time>2026-03-22T10:36:31.768Z</time></trkpt><trkpt lat="43.6319252" lon="11.3200219"><ele>387.0</ele><time>2026-03-22T10:36:33.768Z</time></trkpt><trkpt lat="43.6318613" lon="11.3200432"><ele>387.99999999999994</ele><time>2026-03-22T10:36:35.768Z</time></trkpt><trkpt lat="43.6318081" lon="11.3201333"><ele>389.0</ele><time>2026-03-22T10:36:38.769Z</time></trkpt><trkpt lat="43.6317386" lon="11.3202322"><ele>391.16666666666663</ele><time>2026-03-22T10:36:40.769Z</time></trkpt><trkpt lat="43.6316925" lon="11.3203039"><ele>393.3333333333333</ele><time>2026-03-22T10:36:41.769Z</time></trkpt><trkpt lat="43.631647" lon="11.3203878"><ele>395.5</ele><time>2026-03-22T10:36:42.77Z</time></trkpt><trkpt lat="43.6316081" lon="11.3204617"><ele>397.66666666666663</ele><time>2026-03-22T10:36:43.768Z</time></trkpt><trkpt lat="43.6315621" lon="11.3205862"><ele>399.8333333333333</ele><time>2026-03-22T10:36:45.77Z</time></trkpt><trkpt lat="43.6315765" lon="11.3207089"><ele>402.0</ele><time>2026-03-22T10:36:47.769Z</time></trkpt><trkpt lat="43.6316483" lon="11.3207585"><ele>402.0</ele><time>2026-03-22T10:36:48.77Z</time></trkpt><trkpt lat="43.6317192" lon="11.3208123"><ele>402.0</ele><time>2026-03-22T10:36:49.768Z</time></trkpt><trkpt lat="43.6317932" lon="11.3208846"><ele>402.0</ele><time>2026-03-22T10:36:50.769Z</time></trkpt><trkpt lat="43.6318826" lon="11.3209714"><ele>402.0</ele><time>2026-03-22T10:36:51.768Z</time></trkpt><trkpt lat="43.6319644" lon="11.3210498"><ele>402.0</ele><time>2026-03-22T10:36:52.768Z</time></trkpt><trkpt lat="43.6320288" lon="11.3211307"><ele>402.0</ele><time>2026-03-22T10:36:53.77Z</time></trkpt><trkpt lat="43.6320589" lon="11.3212474"><ele>402.0</ele><time>2026-03-22T10:36:54.77Z</time></trkpt><trkpt lat="43.6320891" lon="11.32134"><ele>402.0</ele><time>2026-03-22T10:36:55.768Z</time></trkpt><trkpt lat="43.6321179" lon="11.3214285"><ele>402.0</ele><time>2026-03-22T10:36:56.769Z</time></trkpt><trkpt lat="43.6321561" lon="11.3215153"><ele>402.0</ele><time>2026-03-22T10:36:57.769Z</time></trkpt><trkpt lat="43.6322431" lon="11.3215479"><ele>402.0</ele><time>2026-03-22T10:36:59.769Z</time></trkpt><trkpt lat="43.6323461" lon="11.3215445"><ele>406.0</ele><time>2026-03-22T10:37:00.769Z</time></trkpt><trkpt lat="43.6324417" lon="11.3215576"><ele>410.0</ele><time>2026-03-22T10:37:01.77Z</time></trkpt><trkpt lat="43.6325393" lon="11.3215847"><ele>414.0</ele><time>2026-03-22T10:37:02.769Z</time></trkpt><trkpt lat="43.6326153" lon="11.3216901"><ele>418.0</ele><time>2026-03-22T10:37:03.769Z</time></trkpt><trkpt lat="43.6326831" lon="11.3217776"><ele>422.0</ele><time>2026-03-22T10:37:04.77Z</time></trkpt><trkpt lat="43.6327433" lon="11.3219104"><ele>421.99999999999994</ele><time>2026-03-22T10:37:05.769Z</time></trkpt><trkpt lat="43.6327585" lon="11.3220392"><ele>422.0</ele><time>2026-03-22T10:37:06.768Z</time></trkpt><trkpt lat="43.6327723" lon="11.322141"><ele>422.0</ele><time>2026-03-22T10:37:07.768Z</time></trkpt><trkpt lat="43.6327573" lon="11.322227"><ele>422.0</ele><time>2026-03-22T10:37:08.768Z</time></trkpt><trkpt lat="43.632775" lon="11.3223887"><ele>421.99999999999994</ele><time>2026-03-22T10:37:10.768Z</time></trkpt><trkpt lat="43.6328633" lon="11.3224463"><ele>422.0</ele><time>2026-03-22T10:37:12.768Z</time></trkpt><trkpt lat="43.6329269" lon="11.3225441"><ele>423.49999999999994</ele><time>2026-03-22T10:37:14.769Z</time></trkpt><trkpt lat="43.6330185" lon="11.3226208"><ele>425.0</ele><time>2026-03-22T10:37:16.769Z</time></trkpt><trkpt lat="43.6330998" lon="11.3226527"><ele>426.5</ele><time>2026-03-22T10:37:17.769Z</time></trkpt><trkpt lat="43.6331733" lon="11.3226781"><ele>428.0</ele><time>2026-03-22T10:37:18.77Z</time></trkpt><trkpt lat="43.6332228" lon="11.3228123"><ele>429.49999999999994</ele><time>2026-03-22T10:37:20.769Z</time></trkpt><trkpt lat="43.633244" lon="11.3229038"><ele>431.0</ele><time>2026-03-22T10:37:21.769Z</time></trkpt><trkpt lat="43.633279" lon="11.3230047"><ele>433.0</ele><time>2026-03-22T10:37:22.77Z</time></trkpt><trkpt lat="43.6333456" lon="11.3231345"><ele>435.0</ele><time>2026-03-22T10:37:23.769Z</time></trkpt><trkpt lat="43.6333864" lon="11.323239"><ele>437.0</ele><time>2026-03-22T10:37:24.768Z</time></trkpt><trkpt lat="43.6334175" lon="11.323342"><ele>439.0</ele><time>2026-03-22T10:37:25.769Z</time></trkpt><trkpt lat="43.6334472" lon="11.3234455"><ele>441.0</ele><time>2026-03-22T10:37:26.768Z</time></trkpt><trkpt lat="43.6334776" lon="11.3235639"><ele>441.0</ele><time>2026-03-22T10:37:27.768Z</time></trkpt><trkpt lat="43.6335086" lon="11.3237245"><ele>441.0</ele><time>2026-03-22T10:37:28.77Z</time></trkpt><trkpt lat="43.6335463" lon="11.3238582"><ele>441.0</ele><time>2026-03-22T10:37:29.769Z</time></trkpt><trkpt lat="43.6335719" lon="11.323969"><ele>441.0</ele><time>2026-03-22T10:37:30.769Z</time></trkpt><trkpt lat="43.6335977" lon="11.3240607"><ele>441.0</ele><time>2026-03-22T10:37:31.768Z</time></trkpt><trkpt lat="43.6336544" lon="11.3241266"><ele>441.0</ele><time>2026-03-22T10:37:32.769Z</time></trkpt><trkpt lat="43.6337116" lon="11.3242192"><ele>441.0</ele><time>2026-03-22T10:37:33.77Z</time></trkpt><trkpt lat="43.6337631" lon="11.3243264"><ele>441.0</ele><time>2026-03-22T10:37:34.769Z</time></trkpt><trkpt lat="43.6338148" lon="11.3244272"><ele>441.0</ele><time>2026-03-22T10:37:35.769Z</time></trkpt><trkpt lat="43.6338681" lon="11.3245218"><ele>441.0</ele><time>2026-03-22T10:37:36.769Z</time></trkpt><trkpt lat="43.6339246" lon="11.3246222"><ele>441.0</ele><time>2026-03-22T10:37:37.769Z</time></trkpt><trkpt lat="43.6339923" lon="11.3247134"><ele>445.4</ele><time>2026-03-22T10:37:38.768Z</time></trkpt><trkpt lat="43.6340554" lon="11.3248096"><ele>449.8</ele><time>2026-03-22T10:37:39.769Z</time></trkpt><trkpt lat="43.6341524" lon="11.3248015"><ele>454.19999999999993</ele><time>2026-03-22T10:37:41.769Z</time></trkpt><trkpt lat="43.6342869" lon="11.3248164"><ele>458.59999999999997</ele><time>2026-03-22T10:37:43.769Z</time></trkpt><trkpt lat="43.6343686" lon="11.3248445"><ele>463.0</ele><time>2026-03-22T10:37:44.769Z</time></trkpt><trkpt lat="43.6344696" lon="11.3249181"><ele>460.79999999999995</ele><time>2026-03-22T10:37:45.769Z</time></trkpt><trkpt lat="43.634569" lon="11.324988"><ele>458.59999999999997</ele><time>2026-03-22T10:37:46.769Z</time></trkpt><trkpt lat="43.6346768" lon="11.3250503"><ele>456.40000000000003</ele><time>2026-03-22T10:37:47.768Z</time></trkpt><trkpt lat="43.6347911" lon="11.3251053"><ele>454.20000000000005</ele><time>2026-03-22T10:37:48.77Z</time></trkpt><trkpt lat="43.6348732" lon="11.3251311"><ele>452.0</ele><time>2026-03-22T10:37:49.768Z</time></trkpt><trkpt lat="43.6349355" lon="11.3251726"><ele>452.0</ele><time>2026-03-22T10:37:50.769Z</time></trkpt><trkpt lat="43.6350294" lon="11.3252343"><ele>452.00000000000006</ele><time>2026-03-22T10:37:51.769Z</time></trkpt><trkpt lat="43.6351067" lon="11.3252465"><ele>452.00000000000006</ele><time>2026-03-22T10:37:52.769Z</time></trkpt><trkpt lat="43.6351797" lon="11.3252631"><ele>452.0</ele><time>2026-03-22T10:37:53.77Z</time></trkpt><trkpt lat="43.6352507" lon="11.3251422"><ele>452.0</ele><time>2026-03-22T10:37:54.77Z</time></trkpt><trkpt lat="43.6353647" lon="11.3250395"><ele>451.20000000000005</ele><time>2026-03-22T10:37:55.768Z</time></trkpt><trkpt lat="43.6354632" lon="11.3249585"><ele>450.40000000000003</ele><time>2026-03-22T10:37:56.768Z</time></trkpt><trkpt lat="43.6355604" lon="11.3249048"><ele>449.59999999999997</ele><time>2026-03-22T10:37:57.768Z</time></trkpt><trkpt lat="43.6356541" lon="11.3248389"><ele>448.79999999999995</ele><time>2026-03-22T10:37:58.768Z</time></trkpt><trkpt lat="43.6357471" lon="11.3248196"><ele>448.0</ele><time>2026-03-22T10:38:00.769Z</time></trkpt><trkpt lat="43.6358713" lon="11.3247413"><ele>444.83333333333337</ele><time>2026-03-22T10:38:02.768Z</time></trkpt><trkpt lat="43.6359479" lon="11.3247236"><ele>441.6666666666667</ele><time>2026-03-22T10:38:03.768Z</time></trkpt><trkpt lat="43.6360226" lon="11.3247168"><ele>438.5</ele><time>2026-03-22T10:38:04.769Z</time></trkpt><trkpt lat="43.6361067" lon="11.3247005"><ele>435.33333333333337</ele><time>2026-03-22T10:38:05.769Z</time></trkpt><trkpt lat="43.6361839" lon="11.3246516"><ele>432.1666666666667</ele><time>2026-03-22T10:38:06.768Z</time></trkpt><trkpt lat="43.6362642" lon="11.3246332"><ele>429.0</ele><time>2026-03-22T10:38:07.769Z</time></trkpt><trkpt lat="43.6363341" lon="11.3246014"><ele>428.42857142857144</ele><time>2026-03-22T10:38:08.769Z</time></trkpt><trkpt lat="43.6363975" lon="11.3245701"><ele>427.8571428571429</ele><time>2026-03-22T10:38:09.768Z</time></trkpt><trkpt lat="43.636455" lon="11.3245291"><ele>427.2857142857143</ele><time>2026-03-22T10:38:10.768Z</time></trkpt><trkpt lat="43.6365148" lon="11.3244795"><ele>426.7142857142857</ele><time>2026-03-22T10:38:11.768Z</time></trkpt><trkpt lat="43.6365754" lon="11.3244238"><ele>426.1428571428571</ele><time>2026-03-22T10:38:12.768Z</time></trkpt><trkpt lat="43.6366401" lon="11.3243651"><ele>425.57142857142856</ele><time>2026-03-22T10:38:13.769Z</time></trkpt><trkpt lat="43.6367063" lon="11.3243006"><ele>425.0</ele><time>2026-03-22T10:38:14.769Z</time></trkpt><trkpt lat="43.6367714" lon="11.3242318"><ele>424.99999999999994</ele><time>2026-03-22T10:38:15.768Z</time></trkpt><trkpt lat="43.6368272" lon="11.3241719"><ele>425.0</ele><time>2026-03-22T10:38:16.769Z</time></trkpt><trkpt lat="43.6368994" lon="11.324014"><ele>425.0</ele><time>2026-03-22T10:38:18.769Z</time></trkpt><trkpt lat="43.6369344" lon="11.3239171"><ele>425.0</ele><time>2026-03-22T10:38:19.769Z</time></trkpt><trkpt lat="43.6369702" lon="11.3238202"><ele>424.99999999999994</ele><time>2026-03-22T10:38:20.769Z</time></trkpt><trkpt lat="43.6370042" lon="11.3237238"><ele>425.0</ele><time>2026-03-22T10:38:21.768Z</time></trkpt><trkpt lat="43.6370457" lon="11.3236375"><ele>420.6</ele><time>2026-03-22T10:38:22.768Z</time></trkpt><trkpt lat="43.637094" lon="11.3235535"><ele>416.2</ele><time>2026-03-22T10:38:23.768Z</time></trkpt><trkpt lat="43.6371389" lon="11.3234637"><ele>411.79999999999995</ele><time>2026-03-22T10:38:24.768Z</time></trkpt><trkpt lat="43.6371796" lon="11.3233957"><ele>407.4</ele><time>2026-03-22T10:38:25.768Z</time></trkpt><trkpt lat="43.6372583" lon="11.3233371"><ele>403.0</ele><time>2026-03-22T10:38:27.769Z</time></trkpt><trkpt lat="43.6374046" lon="11.3233741"><ele>403.0</ele><time>2026-03-22T10:38:29.769Z</time></trkpt><trkpt lat="43.637487" lon="11.3234325"><ele>403.0</ele><time>2026-03-22T10:38:30.769Z</time></trkpt><trkpt lat="43.6375821" lon="11.3234936"><ele>403.0</ele><time>2026-03-22T10:38:31.769Z</time></trkpt><trkpt lat="43.6376744" lon="11.3235758"><ele>403.0</ele><time>2026-03-22T10:38:32.769Z</time></trkpt><trkpt lat="43.6377598" lon="11.3236575"><ele>403.0</ele><time>2026-03-22T10:38:33.768Z</time></trkpt><trkpt lat="43.6378314" lon="11.3237315"><ele>401.1666666666667</ele><time>2026-03-22T10:38:34.769Z</time></trkpt><trkpt lat="43.6379087" lon="11.3237838"><ele>399.33333333333337</ele><time>2026-03-22T10:38:35.769Z</time></trkpt><trkpt lat="43.6379978" lon="11.3238304"><ele>397.5</ele><time>2026-03-22T10:38:36.769Z</time></trkpt><trkpt lat="43.6380569" lon="11.3238633"><ele>395.66666666666663</ele><time>2026-03-22T10:38:37.768Z</time></trkpt><trkpt lat="43.6381744" lon="11.3238947"><ele>393.8333333333333</ele><time>2026-03-22T10:38:39.769Z</time></trkpt><trkpt lat="43.6382537" lon="11.3239036"><ele>392.0</ele><time>2026-03-22T10:38:40.769Z</time></trkpt><trkpt lat="43.6383691" lon="11.3239697"><ele>391.99999999999994</ele><time>2026-03-22T10:38:42.769Z</time></trkpt><trkpt lat="43.6384168" lon="11.3240573"><ele>392.0</ele><time>2026-03-22T10:38:43.77Z</time></trkpt><trkpt lat="43.6384598" lon="11.3242283"><ele>392.0</ele><time>2026-03-22T10:38:45.769Z</time></trkpt><trkpt lat="43.6384543" lon="11.3243262"><ele>392.0</ele><time>2026-03-22T10:38:46.77Z</time></trkpt><trkpt lat="43.6384512" lon="11.324426"><ele>391.99999999999994</ele><time>2026-03-22T10:38:47.77Z</time></trkpt><trkpt lat="43.6384437" lon="11.3245245"><ele>392.0</ele><time>2026-03-22T10:38:48.769Z</time></trkpt><trkpt lat="43.6384302" lon="11.324623"><ele>392.0</ele><time>2026-03-22T10:38:49.768Z</time></trkpt><trkpt lat="43.6384069" lon="11.3247748"><ele>392.0</ele><time>2026-03-22T10:38:51.769Z</time></trkpt><trkpt lat="43.6384789" lon="11.3247594"><ele>392.0</ele><time>2026-03-22T10:39:34.768Z</time></trkpt><trkpt lat="43.6385487" lon="11.3247008"><ele>392.0</ele><time>2026-03-22T10:39:37.77Z</time></trkpt><trkpt lat="43.638639" lon="11.3245771"><ele>392.0</ele><time>2026-03-22T10:39:39.768Z</time></trkpt><trkpt lat="43.6387043" lon="11.3245071"><ele>385.99999999999994</ele><time>2026-03-22T10:39:40.768Z</time></trkpt><trkpt lat="43.6387696" lon="11.3244492"><ele>380.0</ele><time>2026-03-22T10:39:41.769Z</time></trkpt><trkpt lat="43.6388396" lon="11.3243982"><ele>374.0</ele><time>2026-03-22T10:39:42.769Z</time></trkpt><trkpt lat="43.6389138" lon="11.3243679"><ele>368.0</ele><time>2026-03-22T10:39:43.768Z</time></trkpt><trkpt lat="43.6390196" lon="11.3243683"><ele>362.0</ele><time>2026-03-22T10:39:45.768Z</time></trkpt><trkpt lat="43.6390901" lon="11.3243281"><ele>356.0</ele><time>2026-03-22T10:39:46.769Z</time></trkpt><trkpt lat="43.6391575" lon="11.3243044"><ele>356.0</ele><time>2026-03-22T10:39:47.769Z</time></trkpt><trkpt lat="43.6392288" lon="11.324303"><ele>356.0</ele><time>2026-03-22T10:39:48.77Z</time></trkpt><trkpt lat="43.6392928" lon="11.3242951"><ele>356.0</ele><time>2026-03-22T10:39:49.769Z</time></trkpt><trkpt lat="43.6393625" lon="11.3242752"><ele>356.0</ele><time>2026-03-22T10:39:50.769Z</time></trkpt><trkpt lat="43.6394333" lon="11.3242579"><ele>356.0</ele><time>2026-03-22T10:39:51.769Z</time></trkpt><trkpt lat="43.6394932" lon="11.3242297"><ele>356.0</ele><time>2026-03-22T10:39:52.769Z</time></trkpt><trkpt lat="43.6395879" lon="11.3241567"><ele>352.1666666666667</ele><time>2026-03-22T10:39:54.768Z</time></trkpt><trkpt lat="43.6396519" lon="11.3241316"><ele>348.33333333333337</ele><time>2026-03-22T10:39:55.768Z</time></trkpt><trkpt lat="43.639722" lon="11.3241039"><ele>344.5</ele><time>2026-03-22T10:39:56.768Z</time></trkpt><trkpt lat="43.6397893" lon="11.3240821"><ele>340.6666666666667</ele><time>2026-03-22T10:39:57.769Z</time></trkpt><trkpt lat="43.6398711" lon="11.3240964"><ele>336.8333333333333</ele><time>2026-03-22T10:39:58.768Z</time></trkpt><trkpt lat="43.6399624" lon="11.3240817"><ele>333.0</ele><time>2026-03-22T10:39:59.768Z</time></trkpt><trkpt lat="43.6400529" lon="11.3240644"><ele>333.0</ele><time>2026-03-22T10:40:00.768Z</time></trkpt><trkpt lat="43.6401464" lon="11.3240388"><ele>333.0</ele><time>2026-03-22T10:40:01.769Z</time></trkpt><trkpt lat="43.640238" lon="11.3240143"><ele>333.0</ele><time>2026-03-22T10:40:02.77Z</time></trkpt><trkpt lat="43.6403309" lon="11.3239813"><ele>333.0</ele><time>2026-03-22T10:40:03.769Z</time></trkpt><trkpt lat="43.6404172" lon="11.3239497"><ele>333.0</ele><time>2026-03-22T10:40:04.769Z</time></trkpt><trkpt lat="43.6404989" lon="11.3239462"><ele>330.6666666666667</ele><time>2026-03-22T10:40:05.768Z</time></trkpt><trkpt lat="43.6405808" lon="11.3239651"><ele>328.3333333333333</ele><time>2026-03-22T10:40:06.768Z</time></trkpt><trkpt lat="43.6406539" lon="11.3239703"><ele>326.0</ele><time>2026-03-22T10:40:07.768Z</time></trkpt><trkpt lat="43.6407157" lon="11.3239422"><ele>323.66666666666663</ele><time>2026-03-22T10:40:08.769Z</time></trkpt><trkpt lat="43.6407754" lon="11.3238855"><ele>321.3333333333333</ele><time>2026-03-22T10:40:09.768Z</time></trkpt><trkpt lat="43.6408311" lon="11.3238072"><ele>319.0</ele><time>2026-03-22T10:40:10.769Z</time></trkpt><trkpt lat="43.6408813" lon="11.3237073"><ele>319.0</ele><time>2026-03-22T10:40:11.768Z</time></trkpt><trkpt lat="43.6409148" lon="11.3236018"><ele>319.0</ele><time>2026-03-22T10:40:12.769Z</time></trkpt><trkpt lat="43.6409466" lon="11.3234964"><ele>319.0</ele><time>2026-03-22T10:40:13.769Z</time></trkpt><trkpt lat="43.6409827" lon="11.3234102"><ele>319.0</ele><time>2026-03-22T10:40:14.768Z</time></trkpt><trkpt lat="43.641029" lon="11.323349"><ele>319.0</ele><time>2026-03-22T10:40:15.77Z</time></trkpt><trkpt lat="43.6411476" lon="11.3233224"><ele>319.0</ele><time>2026-03-22T10:40:17.77Z</time></trkpt><trkpt lat="43.6412155" lon="11.3233406"><ele>316.8</ele><time>2026-03-22T10:40:18.768Z</time></trkpt><trkpt lat="43.6413654" lon="11.3233339"><ele>314.59999999999997</ele><time>2026-03-22T10:40:20.769Z</time></trkpt><trkpt lat="43.6414551" lon="11.3233114"><ele>312.4</ele><time>2026-03-22T10:40:21.768Z</time></trkpt><trkpt lat="43.6415518" lon="11.323291"><ele>310.2</ele><time>2026-03-22T10:40:22.769Z</time></trkpt><trkpt lat="43.6416457" lon="11.3232649"><ele>308.0</ele><time>2026-03-22T10:40:23.77Z</time></trkpt><trkpt lat="43.6417471" lon="11.3232361"><ele>308.0</ele><time>2026-03-22T10:40:24.769Z</time></trkpt><trkpt lat="43.6418479" lon="11.3232131"><ele>308.0</ele><time>2026-03-22T10:40:25.768Z</time></trkpt><trkpt lat="43.6419372" lon="11.3231886"><ele>308.0</ele><time>2026-03-22T10:40:26.77Z</time></trkpt><trkpt lat="43.6420249" lon="11.3231837"><ele>308.0</ele><time>2026-03-22T10:40:27.768Z</time></trkpt><trkpt lat="43.6421157" lon="11.3232041"><ele>308.0</ele><time>2026-03-22T10:40:28.769Z</time></trkpt><trkpt lat="43.642205" lon="11.3232497"><ele>307.0</ele><time>2026-03-22T10:40:29.769Z</time></trkpt><trkpt lat="43.6422866" lon="11.3233024"><ele>306.0</ele><time>2026-03-22T10:40:30.768Z</time></trkpt><trkpt lat="43.6423606" lon="11.3233457"><ele>305.0</ele><time>2026-03-22T10:40:31.768Z</time></trkpt><trkpt lat="43.642421" lon="11.3233732"><ele>304.0</ele><time>2026-03-22T10:40:32.769Z</time></trkpt><trkpt lat="43.6425061" lon="11.3233954"><ele>303.0</ele><time>2026-03-22T10:40:34.769Z</time></trkpt><trkpt lat="43.6426081" lon="11.3234013"><ele>302.0</ele><time>2026-03-22T10:40:36.768Z</time></trkpt><trkpt lat="43.6426845" lon="11.3234059"><ele>302.00000000000006</ele><time>2026-03-22T10:40:37.769Z</time></trkpt><trkpt lat="43.6427628" lon="11.3233992"><ele>302.0</ele><time>2026-03-22T10:40:38.769Z</time></trkpt><trkpt lat="43.6428327" lon="11.3233814"><ele>302.0</ele><time>2026-03-22T10:40:39.768Z</time></trkpt><trkpt lat="43.6428982" lon="11.3233682"><ele>302.0</ele><time>2026-03-22T10:40:40.769Z</time></trkpt><trkpt lat="43.6429641" lon="11.3233563"><ele>302.0</ele><time>2026-03-22T10:40:41.769Z</time></trkpt><trkpt lat="43.6430283" lon="11.3233439"><ele>302.00000000000006</ele><time>2026-03-22T10:40:42.769Z</time></trkpt><trkpt lat="43.643091" lon="11.3233338"><ele>302.0</ele><time>2026-03-22T10:40:43.769Z</time></trkpt><trkpt lat="43.6431551" lon="11.3233141"><ele>301.6</ele><time>2026-03-22T10:40:44.769Z</time></trkpt><trkpt lat="43.6432158" lon="11.3232879"><ele>301.2</ele><time>2026-03-22T10:40:45.768Z</time></trkpt><trkpt lat="43.6433079" lon="11.3232111"><ele>300.8</ele><time>2026-03-22T10:40:47.769Z</time></trkpt><trkpt lat="43.6433998" lon="11.3231499"><ele>300.4</ele><time>2026-03-22T10:40:49.769Z</time></trkpt><trkpt lat="43.6434954" lon="11.3231281"><ele>300.0</ele><time>2026-03-22T10:40:51.768Z</time></trkpt><trkpt lat="43.6435943" lon="11.3231578"><ele>298.8</ele><time>2026-03-22T10:40:53.769Z</time></trkpt><trkpt lat="43.643721" lon="11.3232166"><ele>297.6</ele><time>2026-03-22T10:40:55.768Z</time></trkpt><trkpt lat="43.6437952" lon="11.3232541"><ele>296.4</ele><time>2026-03-22T10:40:56.768Z</time></trkpt><trkpt lat="43.6438739" lon="11.3232926"><ele>295.2</ele><time>2026-03-22T10:40:57.77Z</time></trkpt><trkpt lat="43.6439592" lon="11.3233357"><ele>294.0</ele><time>2026-03-22T10:40:58.77Z</time></trkpt><trkpt lat="43.6440458" lon="11.3233847"><ele>294.0</ele><time>2026-03-22T10:40:59.77Z</time></trkpt><trkpt lat="43.6441307" lon="11.3234293"><ele>294.0</ele><time>2026-03-22T10:41:00.768Z</time></trkpt><trkpt lat="43.6442084" lon="11.3234587"><ele>294.0</ele><time>2026-03-22T10:41:01.768Z</time></trkpt><trkpt lat="43.6442865" lon="11.3234973"><ele>294.0</ele><time>2026-03-22T10:41:02.769Z</time></trkpt><trkpt lat="43.6443653" lon="11.3235413"><ele>294.0</ele><time>2026-03-22T10:41:03.768Z</time></trkpt><trkpt lat="43.6444443" lon="11.3235895"><ele>294.0</ele><time>2026-03-22T10:41:04.769Z</time></trkpt><trkpt lat="43.6445262" lon="11.3236197"><ele>291.59999999999997</ele><time>2026-03-22T10:41:05.77Z</time></trkpt><trkpt lat="43.6446127" lon="11.3236343"><ele>289.2</ele><time>2026-03-22T10:41:06.768Z</time></trkpt><trkpt lat="43.6447062" lon="11.3236551"><ele>286.79999999999995</ele><time>2026-03-22T10:41:07.769Z</time></trkpt><trkpt lat="43.644803" lon="11.3236763"><ele>284.4</ele><time>2026-03-22T10:41:08.769Z</time></trkpt><trkpt lat="43.6448941" lon="11.3237047"><ele>282.0</ele><time>2026-03-22T10:41:09.769Z</time></trkpt><trkpt lat="43.6449797" lon="11.3237238"><ele>282.0</ele><time>2026-03-22T10:41:10.768Z</time></trkpt><trkpt lat="43.6450574" lon="11.3237479"><ele>282.0</ele><time>2026-03-22T10:41:11.769Z</time></trkpt><trkpt lat="43.6451333" lon="11.3237709"><ele>282.0</ele><time>2026-03-22T10:41:12.768Z</time></trkpt><trkpt lat="43.6452025" lon="11.3237966"><ele>282.0</ele><time>2026-03-22T10:41:13.768Z</time></trkpt><trkpt lat="43.6452664" lon="11.3238076"><ele>282.0</ele><time>2026-03-22T10:41:14.769Z</time></trkpt><trkpt lat="43.6453589" lon="11.3237809"><ele>282.0</ele><time>2026-03-22T10:41:16.769Z</time></trkpt><trkpt lat="43.6453974" lon="11.3236795"><ele>277.8</ele><time>2026-03-22T10:41:17.77Z</time></trkpt><trkpt lat="43.6454427" lon="11.3236047"><ele>273.6</ele><time>2026-03-22T10:41:18.77Z</time></trkpt><trkpt lat="43.6455074" lon="11.3235025"><ele>269.40000000000003</ele><time>2026-03-22T10:41:20.768Z</time></trkpt><trkpt lat="43.6455335" lon="11.3236189"><ele>265.2</ele><time>2026-03-22T10:41:22.769Z</time></trkpt><trkpt lat="43.6455554" lon="11.3237954"><ele>261.0</ele><time>2026-03-22T10:41:24.768Z</time></trkpt><trkpt lat="43.6455544" lon="11.3238906"><ele>259.40000000000003</ele><time>2026-03-22T10:41:25.768Z</time></trkpt><trkpt lat="43.6455324" lon="11.3239737"><ele>257.8</ele><time>2026-03-22T10:41:26.769Z</time></trkpt><trkpt lat="43.6454626" lon="11.3241004"><ele>256.20000000000005</ele><time>2026-03-22T10:41:28.768Z</time></trkpt><trkpt lat="43.6454214" lon="11.3242009"><ele>254.60000000000002</ele><time>2026-03-22T10:41:30.769Z</time></trkpt><trkpt lat="43.6454664" lon="11.3242663"><ele>253.0</ele><time>2026-03-22T10:41:33.769Z</time></trkpt><trkpt lat="43.6455943" lon="11.3241602"><ele>253.0</ele><time>2026-03-22T10:41:35.769Z</time></trkpt><trkpt lat="43.6456591" lon="11.3240795"><ele>253.0</ele><time>2026-03-22T10:41:36.768Z</time></trkpt><trkpt lat="43.6457089" lon="11.3239597"><ele>253.0</ele><time>2026-03-22T10:41:37.77Z</time></trkpt><trkpt lat="43.6457375" lon="11.3238059"><ele>253.0</ele><time>2026-03-22T10:41:38.77Z</time></trkpt><trkpt lat="43.6457572" lon="11.3236732"><ele>253.0</ele><time>2026-03-22T10:41:39.769Z</time></trkpt><trkpt lat="43.6457718" lon="11.3235448"><ele>254.60000000000002</ele><time>2026-03-22T10:41:40.768Z</time></trkpt><trkpt lat="43.6457847" lon="11.3234139"><ele>256.20000000000005</ele><time>2026-03-22T10:41:41.768Z</time></trkpt><trkpt lat="43.6458081" lon="11.3232865"><ele>257.8</ele><time>2026-03-22T10:41:42.768Z</time></trkpt><trkpt lat="43.6458445" lon="11.3231505"><ele>259.40000000000003</ele><time>2026-03-22T10:41:43.769Z</time></trkpt><trkpt lat="43.6458974" lon="11.3230316"><ele>261.0</ele><time>2026-03-22T10:41:44.769Z</time></trkpt><trkpt lat="43.6459676" lon="11.3229255"><ele>261.40000000000003</ele><time>2026-03-22T10:41:45.77Z</time></trkpt><trkpt lat="43.6460438" lon="11.3228357"><ele>261.8</ele><time>2026-03-22T10:41:46.768Z</time></trkpt><trkpt lat="43.6461169" lon="11.3227511"><ele>262.20000000000005</ele><time>2026-03-22T10:41:47.769Z</time></trkpt><trkpt lat="43.6461942" lon="11.3226666"><ele>262.6</ele><time>2026-03-22T10:41:48.769Z</time></trkpt><trkpt lat="43.6462686" lon="11.322581"><ele>263.0</ele><time>2026-03-22T10:41:49.769Z</time></trkpt><trkpt lat="43.6463384" lon="11.3224791"><ele>260.6</ele><time>2026-03-22T10:41:50.769Z</time></trkpt><trkpt lat="43.6463847" lon="11.3223642"><ele>258.20000000000005</ele><time>2026-03-22T10:41:51.77Z</time></trkpt><trkpt lat="43.6464018" lon="11.3222344"><ele>255.8</ele><time>2026-03-22T10:41:52.769Z</time></trkpt><trkpt lat="43.6463923" lon="11.322086"><ele>253.4</ele><time>2026-03-22T10:41:53.768Z</time></trkpt><trkpt lat="43.6463786" lon="11.3219428"><ele>251.0</ele><time>2026-03-22T10:41:54.77Z</time></trkpt><trkpt lat="43.6463221" lon="11.3217828"><ele>251.25</ele><time>2026-03-22T10:41:55.769Z</time></trkpt><trkpt lat="43.6462719" lon="11.3216092"><ele>251.5</ele><time>2026-03-22T10:41:56.769Z</time></trkpt><trkpt lat="43.646217" lon="11.3214328"><ele>251.75</ele><time>2026-03-22T10:41:57.769Z</time></trkpt><trkpt lat="43.6461611" lon="11.3212643"><ele>252.0</ele><time>2026-03-22T10:41:58.768Z</time></trkpt><trkpt lat="43.6461118" lon="11.321092"><ele>252.0</ele><time>2026-03-22T10:41:59.769Z</time></trkpt><trkpt lat="43.6460669" lon="11.3209191"><ele>252.0</ele><time>2026-03-22T10:42:00.768Z</time></trkpt><trkpt lat="43.6460149" lon="11.3207536"><ele>252.0</ele><time>2026-03-22T10:42:01.768Z</time></trkpt><trkpt lat="43.6459667" lon="11.3205894"><ele>252.0</ele><time>2026-03-22T10:42:02.77Z</time></trkpt><trkpt lat="43.6459202" lon="11.3204187"><ele>251.0</ele><time>2026-03-22T10:42:03.768Z</time></trkpt><trkpt lat="43.6458937" lon="11.3202555"><ele>250.0</ele><time>2026-03-22T10:42:04.769Z</time></trkpt><trkpt lat="43.6458791" lon="11.3200965"><ele>249.0</ele><time>2026-03-22T10:42:05.769Z</time></trkpt><trkpt lat="43.6458813" lon="11.3199287"><ele>248.0</ele><time>2026-03-22T10:42:06.768Z</time></trkpt><trkpt lat="43.6458899" lon="11.3197539"><ele>246.75</ele><time>2026-03-22T10:42:07.769Z</time></trkpt><trkpt lat="43.6459193" lon="11.3195715"><ele>245.5</ele><time>2026-03-22T10:42:08.77Z</time></trkpt><trkpt lat="43.6459464" lon="11.3194039"><ele>244.25</ele><time>2026-03-22T10:42:09.768Z</time></trkpt><trkpt lat="43.645948" lon="11.3192418"><ele>243.0</ele><time>2026-03-22T10:42:10.77Z</time></trkpt><trkpt lat="43.6459236" lon="11.3190913"><ele>243.0</ele><time>2026-03-22T10:42:11.77Z</time></trkpt><trkpt lat="43.6458648" lon="11.3189481"><ele>243.0</ele><time>2026-03-22T10:42:12.768Z</time></trkpt><trkpt lat="43.6457696" lon="11.3188199"><ele>243.0</ele><time>2026-03-22T10:42:13.768Z</time></trkpt><trkpt lat="43.6456571" lon="11.3187153"><ele>243.0</ele><time>2026-03-22T10:42:14.769Z</time></trkpt><trkpt lat="43.64553" lon="11.3186379"><ele>240.5</ele><time>2026-03-22T10:42:15.768Z</time></trkpt><trkpt lat="43.6453852" lon="11.3186182"><ele>238.0</ele><time>2026-03-22T10:42:16.769Z</time></trkpt><trkpt lat="43.64526" lon="11.3186007"><ele>235.5</ele><time>2026-03-22T10:42:17.768Z</time></trkpt><trkpt lat="43.6451401" lon="11.3185786"><ele>233.0</ele><time>2026-03-22T10:42:18.769Z</time></trkpt><trkpt lat="43.6450454" lon="11.318479"><ele>233.0</ele><time>2026-03-22T10:42:19.77Z</time></trkpt><trkpt lat="43.6449661" lon="11.3183622"><ele>233.0</ele><time>2026-03-22T10:42:20.768Z</time></trkpt><trkpt lat="43.6449095" lon="11.3181965"><ele>233.0</ele><time>2026-03-22T10:42:21.769Z</time></trkpt><trkpt lat="43.6448516" lon="11.3180256"><ele>233.0</ele><time>2026-03-22T10:42:22.769Z</time></trkpt><trkpt lat="43.6447659" lon="11.317897"><ele>231.5</ele><time>2026-03-22T10:42:23.769Z</time></trkpt><trkpt lat="43.644658" lon="11.3177926"><ele>230.0</ele><time>2026-03-22T10:42:24.769Z</time></trkpt><trkpt lat="43.6445361" lon="11.3177399"><ele>228.5</ele><time>2026-03-22T10:42:25.769Z</time></trkpt><trkpt lat="43.6444032" lon="11.317738"><ele>227.0</ele><time>2026-03-22T10:42:26.768Z</time></trkpt><trkpt lat="43.6442711" lon="11.3177593"><ele>227.0</ele><time>2026-03-22T10:42:27.77Z</time></trkpt><trkpt lat="43.6441533" lon="11.3177497"><ele>227.0</ele><time>2026-03-22T10:42:28.769Z</time></trkpt><trkpt lat="43.6440469" lon="11.3176891"><ele>227.0</ele><time>2026-03-22T10:42:29.768Z</time></trkpt><trkpt lat="43.6439649" lon="11.3175848"><ele>227.0</ele><time>2026-03-22T10:42:30.769Z</time></trkpt><trkpt lat="43.6439081" lon="11.3174401"><ele>227.0</ele><time>2026-03-22T10:42:31.77Z</time></trkpt><trkpt lat="43.6438788" lon="11.3172708"><ele>227.0</ele><time>2026-03-22T10:42:32.769Z</time></trkpt><trkpt lat="43.643866" lon="11.3170827"><ele>227.0</ele><time>2026-03-22T10:42:33.769Z</time></trkpt><trkpt lat="43.6438516" lon="11.3168728"><ele>227.0</ele><time>2026-03-22T10:42:34.768Z</time></trkpt><trkpt lat="43.6438348" lon="11.3166507"><ele>225.0</ele><time>2026-03-22T10:42:35.77Z</time></trkpt><trkpt lat="43.6438161" lon="11.316437"><ele>223.0</ele><time>2026-03-22T10:42:36.769Z</time></trkpt><trkpt lat="43.6438001" lon="11.3162379"><ele>221.0</ele><time>2026-03-22T10:42:37.768Z</time></trkpt><trkpt lat="43.6437603" lon="11.316057"><ele>219.0</ele><time>2026-03-22T10:42:38.768Z</time></trkpt><trkpt lat="43.6436789" lon="11.3159001"><ele>220.0</ele><time>2026-03-22T10:42:39.769Z</time></trkpt><trkpt lat="43.6435708" lon="11.3157811"><ele>221.0</ele><time>2026-03-22T10:42:40.77Z</time></trkpt><trkpt lat="43.6434723" lon="11.3156718"><ele>222.0</ele><time>2026-03-22T10:42:41.769Z</time></trkpt><trkpt lat="43.6433909" lon="11.3155464"><ele>223.0</ele><time>2026-03-22T10:42:42.768Z</time></trkpt><trkpt lat="43.6433363" lon="11.3154133"><ele>223.60000000000002</ele><time>2026-03-22T10:42:43.769Z</time></trkpt><trkpt lat="43.6433157" lon="11.3152867"><ele>224.20000000000002</ele><time>2026-03-22T10:42:44.768Z</time></trkpt><trkpt lat="43.6432881" lon="11.3151556"><ele>224.8</ele><time>2026-03-22T10:42:45.769Z</time></trkpt><trkpt lat="43.643376" lon="11.3150185"><ele>225.4</ele><time>2026-03-22T10:42:46.769Z</time></trkpt><trkpt lat="43.6434967" lon="11.3149955"><ele>226.0</ele><time>2026-03-22T10:42:47.769Z</time></trkpt><trkpt lat="43.6436217" lon="11.3149579"><ele>224.66666666666666</ele><time>2026-03-22T10:42:48.768Z</time></trkpt><trkpt lat="43.6437545" lon="11.3149569"><ele>223.33333333333331</ele><time>2026-03-22T10:42:49.768Z</time></trkpt><trkpt lat="43.643905" lon="11.3149724"><ele>222.0</ele><time>2026-03-22T10:42:50.769Z</time></trkpt><trkpt lat="43.6440693" lon="11.3150164"><ele>222.0</ele><time>2026-03-22T10:42:51.769Z</time></trkpt><trkpt lat="43.6442242" lon="11.3150401"><ele>222.0</ele><time>2026-03-22T10:42:52.768Z</time></trkpt><trkpt lat="43.6443844" lon="11.3150661"><ele>222.0</ele><time>2026-03-22T10:42:53.769Z</time></trkpt><trkpt lat="43.6445188" lon="11.3150519"><ele>221.66666666666669</ele><time>2026-03-22T10:42:54.769Z</time></trkpt><trkpt lat="43.644668" lon="11.3149951"><ele>221.33333333333334</ele><time>2026-03-22T10:42:55.768Z</time></trkpt><trkpt lat="43.6448126" lon="11.3149427"><ele>221.0</ele><time>2026-03-22T10:42:56.768Z</time></trkpt><trkpt lat="43.6449246" lon="11.3148"><ele>222.66666666666669</ele><time>2026-03-22T10:42:57.768Z</time></trkpt><trkpt lat="43.6450683" lon="11.3147357"><ele>224.33333333333331</ele><time>2026-03-22T10:42:58.77Z</time></trkpt><trkpt lat="43.6452051" lon="11.3146678"><ele>226.0</ele><time>2026-03-22T10:42:59.769Z</time></trkpt><trkpt lat="43.6453524" lon="11.314609"><ele>226.0</ele><time>2026-03-22T10:43:00.77Z</time></trkpt><trkpt lat="43.6454971" lon="11.3145481"><ele>226.0</ele><time>2026-03-22T10:43:01.768Z</time></trkpt><trkpt lat="43.6456387" lon="11.3144845"><ele>226.0</ele><time>2026-03-22T10:43:02.768Z</time></trkpt><trkpt lat="43.6457859" lon="11.3144136"><ele>226.0</ele><time>2026-03-22T10:43:03.77Z</time></trkpt><trkpt lat="43.6459262" lon="11.3143374"><ele>226.0</ele><time>2026-03-22T10:43:04.769Z</time></trkpt><trkpt lat="43.6460559" lon="11.3142658"><ele>226.0</ele><time>2026-03-22T10:43:05.769Z</time></trkpt><trkpt lat="43.6461825" lon="11.3142044"><ele>226.0</ele><time>2026-03-22T10:43:06.77Z</time></trkpt><trkpt lat="43.6463174" lon="11.3141671"><ele>225.75</ele><time>2026-03-22T10:43:07.77Z</time></trkpt><trkpt lat="43.646454" lon="11.3141443"><ele>225.5</ele><time>2026-03-22T10:43:08.768Z</time></trkpt><trkpt lat="43.646593" lon="11.314148"><ele>225.25</ele><time>2026-03-22T10:43:09.769Z</time></trkpt><trkpt lat="43.6467305" lon="11.314169"><ele>225.0</ele><time>2026-03-22T10:43:10.768Z</time></trkpt><trkpt lat="43.646866" lon="11.3142182"><ele>225.5</ele><time>2026-03-22T10:43:11.769Z</time></trkpt><trkpt lat="43.6470007" lon="11.3142847"><ele>226.0</ele><time>2026-03-22T10:43:12.769Z</time></trkpt><trkpt lat="43.647132" lon="11.3143739"><ele>226.5</ele><time>2026-03-22T10:43:13.769Z</time></trkpt><trkpt lat="43.6472607" lon="11.3144661"><ele>227.0</ele><time>2026-03-22T10:43:14.769Z</time></trkpt><trkpt lat="43.6473921" lon="11.314557"><ele>227.0</ele><time>2026-03-22T10:43:15.768Z</time></trkpt><trkpt lat="43.6475262" lon="11.3146354"><ele>227.0</ele><time>2026-03-22T10:43:16.769Z</time></trkpt><trkpt lat="43.6476637" lon="11.3146924"><ele>227.0</ele><time>2026-03-22T10:43:17.768Z</time></trkpt><trkpt lat="43.6478091" lon="11.3147146"><ele>227.0</ele><time>2026-03-22T10:43:18.768Z</time></trkpt><trkpt lat="43.6479545" lon="11.3147261"><ele>227.25</ele><time>2026-03-22T10:43:19.769Z</time></trkpt><trkpt lat="43.6481063" lon="11.3147308"><ele>227.5</ele><time>2026-03-22T10:43:20.769Z</time></trkpt><trkpt lat="43.6482536" lon="11.3147231"><ele>227.75</ele><time>2026-03-22T10:43:21.769Z</time></trkpt><trkpt lat="43.6483952" lon="11.3146931"><ele>228.0</ele><time>2026-03-22T10:43:22.768Z</time></trkpt><trkpt lat="43.6485401" lon="11.3146455"><ele>225.5</ele><time>2026-03-22T10:43:23.769Z</time></trkpt><trkpt lat="43.6486475" lon="11.3145202"><ele>223.0</ele><time>2026-03-22T10:43:24.769Z</time></trkpt><trkpt lat="43.6487521" lon="11.3143877"><ele>220.5</ele><time>2026-03-22T10:43:25.769Z</time></trkpt><trkpt lat="43.648843" lon="11.3142317"><ele>218.0</ele><time>2026-03-22T10:43:26.768Z</time></trkpt><trkpt lat="43.6489216" lon="11.3140466"><ele>219.66666666666669</ele><time>2026-03-22T10:43:27.769Z</time></trkpt><trkpt lat="43.6489842" lon="11.3138289"><ele>221.33333333333331</ele><time>2026-03-22T10:43:28.769Z</time></trkpt><trkpt lat="43.6490246" lon="11.3135995"><ele>223.0</ele><time>2026-03-22T10:43:29.769Z</time></trkpt><trkpt lat="43.6490632" lon="11.3133757"><ele>223.0</ele><time>2026-03-22T10:43:30.768Z</time></trkpt><trkpt lat="43.6491118" lon="11.3131541"><ele>223.0</ele><time>2026-03-22T10:43:31.769Z</time></trkpt><trkpt lat="43.6491773" lon="11.3129619"><ele>223.0</ele><time>2026-03-22T10:43:32.768Z</time></trkpt><trkpt lat="43.6492683" lon="11.3128034"><ele>221.66666666666666</ele><time>2026-03-22T10:43:33.769Z</time></trkpt><trkpt lat="43.6493937" lon="11.3126624"><ele>220.33333333333331</ele><time>2026-03-22T10:43:34.768Z</time></trkpt><trkpt lat="43.649537" lon="11.31255"><ele>219.0</ele><time>2026-03-22T10:43:35.768Z</time></trkpt><trkpt lat="43.6496791" lon="11.312454"><ele>219.0</ele><time>2026-03-22T10:43:36.769Z</time></trkpt><trkpt lat="43.649812" lon="11.3123374"><ele>219.0</ele><time>2026-03-22T10:43:37.77Z</time></trkpt><trkpt lat="43.6499339" lon="11.31219"><ele>219.0</ele><time>2026-03-22T10:43:38.769Z</time></trkpt><trkpt lat="43.6500374" lon="11.3120184"><ele>221.0</ele><time>2026-03-22T10:43:39.768Z</time></trkpt><trkpt lat="43.6501335" lon="11.3118297"><ele>223.0</ele><time>2026-03-22T10:43:40.768Z</time></trkpt><trkpt lat="43.6502236" lon="11.3116374"><ele>225.0</ele><time>2026-03-22T10:43:41.769Z</time></trkpt><trkpt lat="43.6503082" lon="11.3114406"><ele>222.0</ele><time>2026-03-22T10:43:42.768Z</time></trkpt><trkpt lat="43.6503885" lon="11.3112445"><ele>219.0</ele><time>2026-03-22T10:43:43.769Z</time></trkpt><trkpt lat="43.6504667" lon="11.3110603"><ele>216.0</ele><time>2026-03-22T10:43:44.768Z</time></trkpt><trkpt lat="43.6505311" lon="11.3108988"><ele>216.0</ele><time>2026-03-22T10:43:45.768Z</time></trkpt><trkpt lat="43.650591" lon="11.3107477"><ele>216.0</ele><time>2026-03-22T10:43:46.768Z</time></trkpt><trkpt lat="43.6506483" lon="11.3106017"><ele>216.0</ele><time>2026-03-22T10:43:47.768Z</time></trkpt><trkpt lat="43.6507021" lon="11.3104637"><ele>216.0</ele><time>2026-03-22T10:43:48.77Z</time></trkpt><trkpt lat="43.6507535" lon="11.3103381"><ele>216.8</ele><time>2026-03-22T10:43:49.769Z</time></trkpt><trkpt lat="43.6508035" lon="11.3102181"><ele>217.60000000000002</ele><time>2026-03-22T10:43:50.769Z</time></trkpt><trkpt lat="43.6508489" lon="11.3101028"><ele>218.4</ele><time>2026-03-22T10:43:51.769Z</time></trkpt><trkpt lat="43.6508912" lon="11.3099987"><ele>219.2</ele><time>2026-03-22T10:43:52.769Z</time></trkpt><trkpt lat="43.6509324" lon="11.3099115"><ele>220.0</ele><time>2026-03-22T10:43:53.769Z</time></trkpt><trkpt lat="43.6509875" lon="11.3098083"><ele>219.66666666666666</ele><time>2026-03-22T10:43:55.768Z</time></trkpt><trkpt lat="43.6510251" lon="11.3097144"><ele>219.33333333333331</ele><time>2026-03-22T10:44:06.769Z</time></trkpt><trkpt lat="43.6510557" lon="11.3096358"><ele>219.0</ele><time>2026-03-22T10:44:07.769Z</time></trkpt><trkpt lat="43.6511113" lon="11.3094927"><ele>218.66666666666669</ele><time>2026-03-22T10:44:09.768Z</time></trkpt><trkpt lat="43.6511742" lon="11.3094261"><ele>218.33333333333334</ele><time>2026-03-22T10:44:10.769Z</time></trkpt><trkpt lat="43.6512564" lon="11.309343"><ele>218.0</ele><time>2026-03-22T10:44:11.769Z</time></trkpt><trkpt lat="43.65135" lon="11.3092499"><ele>217.25</ele><time>2026-03-22T10:44:12.769Z</time></trkpt><trkpt lat="43.6514573" lon="11.3091437"><ele>216.5</ele><time>2026-03-22T10:44:13.769Z</time></trkpt><trkpt lat="43.6515756" lon="11.3090328"><ele>215.75</ele><time>2026-03-22T10:44:14.769Z</time></trkpt><trkpt lat="43.6517016" lon="11.3089112"><ele>215.0</ele><time>2026-03-22T10:44:15.768Z</time></trkpt><trkpt lat="43.6518346" lon="11.3087866"><ele>214.66666666666669</ele><time>2026-03-22T10:44:16.769Z</time></trkpt><trkpt lat="43.651973" lon="11.308665"><ele>214.33333333333331</ele><time>2026-03-22T10:44:17.768Z</time></trkpt><trkpt lat="43.652114" lon="11.3085491"><ele>214.0</ele><time>2026-03-22T10:44:18.769Z</time></trkpt><trkpt lat="43.6522563" lon="11.3084485"><ele>214.0</ele><time>2026-03-22T10:44:19.769Z</time></trkpt><trkpt lat="43.6523941" lon="11.3083635"><ele>214.0</ele><time>2026-03-22T10:44:20.768Z</time></trkpt><trkpt lat="43.6525234" lon="11.3082937"><ele>214.0</ele><time>2026-03-22T10:44:21.769Z</time></trkpt><trkpt lat="43.6526396" lon="11.3082314"><ele>214.0</ele><time>2026-03-22T10:44:22.77Z</time></trkpt><trkpt lat="43.6527472" lon="11.3081805"><ele>213.5</ele><time>2026-03-22T10:44:23.769Z</time></trkpt><trkpt lat="43.6528613" lon="11.3081555"><ele>213.0</ele><time>2026-03-22T10:44:24.769Z</time></trkpt><trkpt lat="43.6529856" lon="11.3081564"><ele>212.5</ele><time>2026-03-22T10:44:25.768Z</time></trkpt><trkpt lat="43.6531234" lon="11.3081746"><ele>212.0</ele><time>2026-03-22T10:44:26.768Z</time></trkpt><trkpt lat="43.6532703" lon="11.3082005"><ele>212.0</ele><time>2026-03-22T10:44:27.768Z</time></trkpt><trkpt lat="43.6534244" lon="11.3082292"><ele>212.0</ele><time>2026-03-22T10:44:28.769Z</time></trkpt><trkpt lat="43.6535881" lon="11.3082626"><ele>212.0</ele><time>2026-03-22T10:44:29.769Z</time></trkpt><trkpt lat="43.6537638" lon="11.308307"><ele>211.0</ele><time>2026-03-22T10:44:30.769Z</time></trkpt><trkpt lat="43.6539466" lon="11.3083621"><ele>210.0</ele><time>2026-03-22T10:44:31.769Z</time></trkpt><trkpt lat="43.6541339" lon="11.3084293"><ele>209.0</ele><time>2026-03-22T10:44:32.769Z</time></trkpt><trkpt lat="43.6543161" lon="11.3084978"><ele>209.33333333333334</ele><time>2026-03-22T10:44:33.768Z</time></trkpt><trkpt lat="43.6544793" lon="11.3085623"><ele>209.66666666666669</ele><time>2026-03-22T10:44:34.769Z</time></trkpt><trkpt lat="43.6546259" lon="11.3086257"><ele>210.0</ele><time>2026-03-22T10:44:35.768Z</time></trkpt><trkpt lat="43.6547601" lon="11.3086795"><ele>210.0</ele><time>2026-03-22T10:44:36.768Z</time></trkpt><trkpt lat="43.6548889" lon="11.3087339"><ele>210.0</ele><time>2026-03-22T10:44:37.768Z</time></trkpt><trkpt lat="43.6550105" lon="11.308787"><ele>210.0</ele><time>2026-03-22T10:44:38.768Z</time></trkpt><trkpt lat="43.6551275" lon="11.3088375"><ele>210.0</ele><time>2026-03-22T10:44:39.769Z</time></trkpt><trkpt lat="43.6552416" lon="11.3088857"><ele>207.5</ele><time>2026-03-22T10:44:40.769Z</time></trkpt><trkpt lat="43.6553526" lon="11.308935"><ele>205.0</ele><time>2026-03-22T10:44:41.769Z</time></trkpt><trkpt lat="43.6554766" lon="11.3089989"><ele>202.5</ele><time>2026-03-22T10:44:42.769Z</time></trkpt><trkpt lat="43.6556135" lon="11.3090768"><ele>200.0</ele><time>2026-03-22T10:44:43.769Z</time></trkpt><trkpt lat="43.6557441" lon="11.3091527"><ele>200.0</ele><time>2026-03-22T10:44:44.769Z</time></trkpt><trkpt lat="43.6558712" lon="11.3092309"><ele>200.0</ele><time>2026-03-22T10:44:45.769Z</time></trkpt><trkpt lat="43.6559944" lon="11.3093"><ele>200.0</ele><time>2026-03-22T10:44:46.769Z</time></trkpt><trkpt lat="43.6561116" lon="11.3093725"><ele>200.0</ele><time>2026-03-22T10:44:47.769Z</time></trkpt><trkpt lat="43.6562302" lon="11.3094542"><ele>201.0</ele><time>2026-03-22T10:44:48.77Z</time></trkpt><trkpt lat="43.6563521" lon="11.3095501"><ele>202.0</ele><time>2026-03-22T10:44:49.768Z</time></trkpt><trkpt lat="43.6564744" lon="11.3096592"><ele>203.0</ele><time>2026-03-22T10:44:50.769Z</time></trkpt><trkpt lat="43.6565968" lon="11.3097742"><ele>204.0</ele><time>2026-03-22T10:44:51.769Z</time></trkpt><trkpt lat="43.656713" lon="11.3098871"><ele>201.5</ele><time>2026-03-22T10:44:52.769Z</time></trkpt><trkpt lat="43.6568254" lon="11.3099976"><ele>199.0</ele><time>2026-03-22T10:44:53.769Z</time></trkpt><trkpt lat="43.6569475" lon="11.310109"><ele>196.5</ele><time>2026-03-22T10:44:54.769Z</time></trkpt><trkpt lat="43.6570699" lon="11.3102014"><ele>194.0</ele><time>2026-03-22T10:44:55.769Z</time></trkpt><trkpt lat="43.6572082" lon="11.3102671"><ele>194.0</ele><time>2026-03-22T10:44:56.769Z</time></trkpt><trkpt lat="43.6573528" lon="11.3103043"><ele>194.0</ele><time>2026-03-22T10:44:57.77Z</time></trkpt><trkpt lat="43.6574948" lon="11.3103477"><ele>194.0</ele><time>2026-03-22T10:44:58.77Z</time></trkpt><trkpt lat="43.6576207" lon="11.3104088"><ele>194.0</ele><time>2026-03-22T10:44:59.768Z</time></trkpt><trkpt lat="43.657725" lon="11.3105025"><ele>194.0</ele><time>2026-03-22T10:45:00.769Z</time></trkpt><trkpt lat="43.6578071" lon="11.3106367"><ele>194.0</ele><time>2026-03-22T10:45:01.769Z</time></trkpt><trkpt lat="43.657852" lon="11.3107968"><ele>194.0</ele><time>2026-03-22T10:45:02.768Z</time></trkpt><trkpt lat="43.657867" lon="11.3109808"><ele>194.0</ele><time>2026-03-22T10:45:03.769Z</time></trkpt><trkpt lat="43.6578857" lon="11.3111738"><ele>194.0</ele><time>2026-03-22T10:45:04.768Z</time></trkpt><trkpt lat="43.6579177" lon="11.3113483"><ele>194.0</ele><time>2026-03-22T10:45:05.769Z</time></trkpt><trkpt lat="43.6579805" lon="11.3115237"><ele>194.0</ele><time>2026-03-22T10:45:06.768Z</time></trkpt><trkpt lat="43.6580747" lon="11.3116899"><ele>194.0</ele><time>2026-03-22T10:45:07.769Z</time></trkpt><trkpt lat="43.6581791" lon="11.3118498"><ele>191.25</ele><time>2026-03-22T10:45:08.768Z</time></trkpt><trkpt lat="43.6582799" lon="11.3119988"><ele>188.5</ele><time>2026-03-22T10:45:09.768Z</time></trkpt><trkpt lat="43.6583785" lon="11.3121476"><ele>185.75</ele><time>2026-03-22T10:45:10.769Z</time></trkpt><trkpt lat="43.65848" lon="11.3122968"><ele>183.0</ele><time>2026-03-22T10:45:11.769Z</time></trkpt><trkpt lat="43.6585817" lon="11.3124383"><ele>182.25</ele><time>2026-03-22T10:45:12.769Z</time></trkpt><trkpt lat="43.6586838" lon="11.3125831"><ele>181.5</ele><time>2026-03-22T10:45:13.769Z</time></trkpt><trkpt lat="43.6587843" lon="11.3127295"><ele>180.75</ele><time>2026-03-22T10:45:14.768Z</time></trkpt><trkpt lat="43.6588866" lon="11.3128722"><ele>180.0</ele><time>2026-03-22T10:45:15.769Z</time></trkpt><trkpt lat="43.6589924" lon="11.3130104"><ele>178.5</ele><time>2026-03-22T10:45:16.769Z</time></trkpt><trkpt lat="43.6591047" lon="11.3131407"><ele>177.0</ele><time>2026-03-22T10:45:17.769Z</time></trkpt><trkpt lat="43.6592268" lon="11.3132551"><ele>175.5</ele><time>2026-03-22T10:45:18.768Z</time></trkpt><trkpt lat="43.6593585" lon="11.3133548"><ele>174.0</ele><time>2026-03-22T10:45:19.769Z</time></trkpt><trkpt lat="43.6594977" lon="11.313453"><ele>174.0</ele><time>2026-03-22T10:45:20.769Z</time></trkpt><trkpt lat="43.6596332" lon="11.3135444"><ele>174.0</ele><time>2026-03-22T10:45:21.768Z</time></trkpt><trkpt lat="43.6597638" lon="11.3136315"><ele>174.0</ele><time>2026-03-22T10:45:22.768Z</time></trkpt><trkpt lat="43.659893" lon="11.3137093"><ele>174.0</ele><time>2026-03-22T10:45:23.768Z</time></trkpt><trkpt lat="43.6600281" lon="11.3137666"><ele>174.0</ele><time>2026-03-22T10:45:24.769Z</time></trkpt><trkpt lat="43.6601813" lon="11.313802"><ele>174.0</ele><time>2026-03-22T10:45:25.768Z</time></trkpt><trkpt lat="43.6603399" lon="11.3138204"><ele>174.0</ele><time>2026-03-22T10:45:26.768Z</time></trkpt><trkpt lat="43.6605036" lon="11.3138318"><ele>174.66666666666666</ele><time>2026-03-22T10:45:27.768Z</time></trkpt><trkpt lat="43.6606711" lon="11.3138449"><ele>175.33333333333331</ele><time>2026-03-22T10:45:28.768Z</time></trkpt><trkpt lat="43.6608344" lon="11.3138626"><ele>176.0</ele><time>2026-03-22T10:45:29.769Z</time></trkpt><trkpt lat="43.6610001" lon="11.3138916"><ele>169.33333333333331</ele><time>2026-03-22T10:45:30.769Z</time></trkpt><trkpt lat="43.6611575" lon="11.3139377"><ele>162.66666666666666</ele><time>2026-03-22T10:45:31.769Z</time></trkpt><trkpt lat="43.6613084" lon="11.313993"><ele>156.0</ele><time>2026-03-22T10:45:32.769Z</time></trkpt><trkpt lat="43.661458" lon="11.3140577"><ele>156.0</ele><time>2026-03-22T10:45:33.77Z</time></trkpt><trkpt lat="43.6616042" lon="11.3141266"><ele>156.0</ele><time>2026-03-22T10:45:34.768Z</time></trkpt><trkpt lat="43.6617461" lon="11.3141988"><ele>156.0</ele><time>2026-03-22T10:45:35.769Z</time></trkpt><trkpt lat="43.6618897" lon="11.3142748"><ele>157.0</ele><time>2026-03-22T10:45:36.769Z</time></trkpt><trkpt lat="43.6620336" lon="11.3143611"><ele>158.0</ele><time>2026-03-22T10:45:37.768Z</time></trkpt><trkpt lat="43.6621687" lon="11.3144578"><ele>159.0</ele><time>2026-03-22T10:45:38.769Z</time></trkpt><trkpt lat="43.6623021" lon="11.3145572"><ele>159.0</ele><time>2026-03-22T10:45:39.769Z</time></trkpt><trkpt lat="43.6624342" lon="11.3146538"><ele>159.0</ele><time>2026-03-22T10:45:40.768Z</time></trkpt><trkpt lat="43.6625641" lon="11.3147396"><ele>159.0</ele><time>2026-03-22T10:45:41.768Z</time></trkpt><trkpt lat="43.6626944" lon="11.3148077"><ele>159.0</ele><time>2026-03-22T10:45:42.769Z</time></trkpt><trkpt lat="43.6628261" lon="11.3148607"><ele>155.75</ele><time>2026-03-22T10:45:43.77Z</time></trkpt><trkpt lat="43.6629609" lon="11.3148898"><ele>152.5</ele><time>2026-03-22T10:45:44.769Z</time></trkpt><trkpt lat="43.6630948" lon="11.3148844"><ele>149.25</ele><time>2026-03-22T10:45:45.768Z</time></trkpt><trkpt lat="43.6632257" lon="11.3148505"><ele>146.0</ele><time>2026-03-22T10:45:46.769Z</time></trkpt><trkpt lat="43.6633515" lon="11.3147944"><ele>145.5</ele><time>2026-03-22T10:45:47.768Z</time></trkpt><trkpt lat="43.6634721" lon="11.3147277"><ele>145.0</ele><time>2026-03-22T10:45:48.769Z</time></trkpt><trkpt lat="43.663583" lon="11.3146567"><ele>144.5</ele><time>2026-03-22T10:45:49.768Z</time></trkpt><trkpt lat="43.6637001" lon="11.3145978"><ele>144.0</ele><time>2026-03-22T10:45:50.769Z</time></trkpt><trkpt lat="43.6638233" lon="11.3145544"><ele>144.0</ele><time>2026-03-22T10:45:51.769Z</time></trkpt><trkpt lat="43.6639475" lon="11.3145395"><ele>144.0</ele><time>2026-03-22T10:45:52.768Z</time></trkpt><trkpt lat="43.6640739" lon="11.3145494"><ele>144.0</ele><time>2026-03-22T10:45:53.769Z</time></trkpt><trkpt lat="43.6641987" lon="11.3145708"><ele>144.0</ele><time>2026-03-22T10:45:54.769Z</time></trkpt><trkpt lat="43.6643135" lon="11.3145889"><ele>144.0</ele><time>2026-03-22T10:45:55.768Z</time></trkpt><trkpt lat="43.6644233" lon="11.3146094"><ele>144.0</ele><time>2026-03-22T10:45:56.768Z</time></trkpt><trkpt lat="43.6645352" lon="11.3146371"><ele>144.0</ele><time>2026-03-22T10:45:57.769Z</time></trkpt><trkpt lat="43.664648" lon="11.3146651"><ele>144.0</ele><time>2026-03-22T10:45:58.769Z</time></trkpt><trkpt lat="43.6647592" lon="11.3147046"><ele>143.25</ele><time>2026-03-22T10:45:59.768Z</time></trkpt><trkpt lat="43.6648659" lon="11.3147556"><ele>142.5</ele><time>2026-03-22T10:46:00.768Z</time></trkpt><trkpt lat="43.664974" lon="11.3148274"><ele>141.75</ele><time>2026-03-22T10:46:01.769Z</time></trkpt><trkpt lat="43.665077" lon="11.3149164"><ele>141.0</ele><time>2026-03-22T10:46:02.769Z</time></trkpt><trkpt lat="43.6651695" lon="11.3150269"><ele>141.0</ele><time>2026-03-22T10:46:03.769Z</time></trkpt><trkpt lat="43.6652479" lon="11.3151567"><ele>141.0</ele><time>2026-03-22T10:46:04.768Z</time></trkpt><trkpt lat="43.6653097" lon="11.3153037"><ele>141.0</ele><time>2026-03-22T10:46:05.77Z</time></trkpt><trkpt lat="43.6653577" lon="11.3154623"><ele>141.0</ele><time>2026-03-22T10:46:06.77Z</time></trkpt><trkpt lat="43.665401" lon="11.3156293"><ele>142.25</ele><time>2026-03-22T10:46:07.768Z</time></trkpt><trkpt lat="43.6654436" lon="11.3157986"><ele>143.5</ele><time>2026-03-22T10:46:08.77Z</time></trkpt><trkpt lat="43.6654875" lon="11.3159753"><ele>144.75</ele><time>2026-03-22T10:46:09.768Z</time></trkpt><trkpt lat="43.6655334" lon="11.3161515"><ele>146.0</ele><time>2026-03-22T10:46:10.768Z</time></trkpt><trkpt lat="43.6655745" lon="11.3163177"><ele>146.0</ele><time>2026-03-22T10:46:11.77Z</time></trkpt><trkpt lat="43.6656119" lon="11.3164659"><ele>146.0</ele><time>2026-03-22T10:46:12.768Z</time></trkpt><trkpt lat="43.6656473" lon="11.3166032"><ele>146.0</ele><time>2026-03-22T10:46:13.769Z</time></trkpt><trkpt lat="43.665681" lon="11.3167258"><ele>146.0</ele><time>2026-03-22T10:46:14.769Z</time></trkpt><trkpt lat="43.6657173" lon="11.3168363"><ele>146.0</ele><time>2026-03-22T10:46:15.769Z</time></trkpt><trkpt lat="43.6657573" lon="11.316911"><ele>146.0</ele><time>2026-03-22T10:46:16.768Z</time></trkpt><trkpt lat="43.665865" lon="11.3169217"><ele>146.0</ele><time>2026-03-22T10:46:18.769Z</time></trkpt><trkpt lat="43.6659291" lon="11.3168824"><ele>146.0</ele><time>2026-03-22T10:46:19.768Z</time></trkpt><trkpt lat="43.6660139" lon="11.3168309"><ele>146.0</ele><time>2026-03-22T10:46:20.769Z</time></trkpt><trkpt lat="43.6661086" lon="11.3167958"><ele>146.0</ele><time>2026-03-22T10:46:21.769Z</time></trkpt><trkpt lat="43.6661878" lon="11.3167857"><ele>146.0</ele><time>2026-03-22T10:46:22.768Z</time></trkpt><trkpt lat="43.6662509" lon="11.3167962"><ele>149.4</ele><time>2026-03-22T10:46:23.769Z</time></trkpt><trkpt lat="43.6663048" lon="11.316915"><ele>152.8</ele><time>2026-03-22T10:46:25.768Z</time></trkpt><trkpt lat="43.6663315" lon="11.3170237"><ele>156.20000000000002</ele><time>2026-03-22T10:46:26.769Z</time></trkpt><trkpt lat="43.6663626" lon="11.3171597"><ele>159.6</ele><time>2026-03-22T10:46:27.769Z</time></trkpt><trkpt lat="43.6663969" lon="11.3172714"><ele>163.0</ele><time>2026-03-22T10:46:28.769Z</time></trkpt><trkpt lat="43.6664735" lon="11.3173564"><ele>163.0</ele><time>2026-03-22T10:46:30.769Z</time></trkpt><trkpt lat="43.6665696" lon="11.3172975"><ele>163.0</ele><time>2026-03-22T10:46:32.768Z</time></trkpt><trkpt lat="43.666644" lon="11.3172486"><ele>163.0</ele><time>2026-03-22T10:46:33.768Z</time></trkpt><trkpt lat="43.6667359" lon="11.3171948"><ele>163.0</ele><time>2026-03-22T10:46:34.769Z</time></trkpt><trkpt lat="43.6668119" lon="11.3171573"><ele>163.0</ele><time>2026-03-22T10:46:35.768Z</time></trkpt><trkpt lat="43.6668863" lon="11.3171366"><ele>163.0</ele><time>2026-03-22T10:46:36.768Z</time></trkpt><trkpt lat="43.6669528" lon="11.3172417"><ele>166.0</ele><time>2026-03-22T10:46:38.768Z</time></trkpt><trkpt lat="43.6670044" lon="11.3172966"><ele>169.0</ele><time>2026-03-22T10:46:39.769Z</time></trkpt><trkpt lat="43.667128" lon="11.3173643"><ele>172.0</ele><time>2026-03-22T10:46:41.77Z</time></trkpt><trkpt lat="43.6671916" lon="11.3173525"><ele>175.0</ele><time>2026-03-22T10:46:42.769Z</time></trkpt><trkpt lat="43.6672485" lon="11.3173087"><ele>178.0</ele><time>2026-03-22T10:46:43.77Z</time></trkpt><trkpt lat="43.6672906" lon="11.3171501"><ele>178.5</ele><time>2026-03-22T10:46:45.768Z</time></trkpt><trkpt lat="43.6672595" lon="11.316938"><ele>179.0</ele><time>2026-03-22T10:46:47.769Z</time></trkpt><trkpt lat="43.66722" lon="11.3167953"><ele>179.5</ele><time>2026-03-22T10:46:48.768Z</time></trkpt><trkpt lat="43.6671885" lon="11.3166534"><ele>180.0</ele><time>2026-03-22T10:46:49.768Z</time></trkpt><trkpt lat="43.6671696" lon="11.3165369"><ele>180.0</ele><time>2026-03-22T10:46:50.769Z</time></trkpt><trkpt lat="43.6671663" lon="11.3164483"><ele>180.0</ele><time>2026-03-22T10:46:51.769Z</time></trkpt><trkpt lat="43.6672337" lon="11.3163303"><ele>180.0</ele><time>2026-03-22T10:46:53.768Z</time></trkpt><trkpt lat="43.6672972" lon="11.316283"><ele>180.0</ele><time>2026-03-22T10:46:54.768Z</time></trkpt><trkpt lat="43.6673749" lon="11.3162179"><ele>180.0</ele><time>2026-03-22T10:46:55.769Z</time></trkpt><trkpt lat="43.6674673" lon="11.3161349"><ele>180.0</ele><time>2026-03-22T10:46:56.769Z</time></trkpt><trkpt lat="43.6675645" lon="11.3160466"><ele>179.25</ele><time>2026-03-22T10:46:57.769Z</time></trkpt><trkpt lat="43.6676665" lon="11.3159608"><ele>178.5</ele><time>2026-03-22T10:46:58.768Z</time></trkpt><trkpt lat="43.6677679" lon="11.3158668"><ele>177.75</ele><time>2026-03-22T10:46:59.769Z</time></trkpt><trkpt lat="43.6678765" lon="11.3157739"><ele>177.0</ele><time>2026-03-22T10:47:00.769Z</time></trkpt><trkpt lat="43.6679924" lon="11.3156741"><ele>176.75</ele><time>2026-03-22T10:47:01.768Z</time></trkpt><trkpt lat="43.6681012" lon="11.3155762"><ele>176.5</ele><time>2026-03-22T10:47:02.77Z</time></trkpt><trkpt lat="43.6682044" lon="11.3154827"><ele>176.25</ele><time>2026-03-22T10:47:03.769Z</time></trkpt><trkpt lat="43.6683056" lon="11.3153941"><ele>176.0</ele><time>2026-03-22T10:47:04.768Z</time></trkpt><trkpt lat="43.6684024" lon="11.3153115"><ele>176.0</ele><time>2026-03-22T10:47:05.769Z</time></trkpt><trkpt lat="43.6685052" lon="11.3152196"><ele>176.0</ele><time>2026-03-22T10:47:06.77Z</time></trkpt><trkpt lat="43.6686125" lon="11.3151268"><ele>176.0</ele><time>2026-03-22T10:47:07.768Z</time></trkpt><trkpt lat="43.6687107" lon="11.3150409"><ele>176.0</ele><time>2026-03-22T10:47:08.768Z</time></trkpt><trkpt lat="43.668802" lon="11.314927"><ele>176.5</ele><time>2026-03-22T10:47:09.768Z</time></trkpt><trkpt lat="43.6689013" lon="11.3147765"><ele>177.0</ele><time>2026-03-22T10:47:10.768Z</time></trkpt><trkpt lat="43.6689894" lon="11.314623"><ele>177.5</ele><time>2026-03-22T10:47:11.768Z</time></trkpt><trkpt lat="43.6690724" lon="11.3144523"><ele>178.0</ele><time>2026-03-22T10:47:12.769Z</time></trkpt><trkpt lat="43.6691438" lon="11.314296"><ele>178.0</ele><time>2026-03-22T10:47:13.768Z</time></trkpt><trkpt lat="43.6692135" lon="11.3141432"><ele>178.0</ele><time>2026-03-22T10:47:14.769Z</time></trkpt><trkpt lat="43.6692754" lon="11.3139764"><ele>178.0</ele><time>2026-03-22T10:47:15.769Z</time></trkpt><trkpt lat="43.6693453" lon="11.3138038"><ele>178.0</ele><time>2026-03-22T10:47:16.768Z</time></trkpt><trkpt lat="43.6694221" lon="11.3136245"><ele>182.0</ele><time>2026-03-22T10:47:17.769Z</time></trkpt><trkpt lat="43.6694964" lon="11.3134447"><ele>186.0</ele><time>2026-03-22T10:47:18.769Z</time></trkpt><trkpt lat="43.6695786" lon="11.3132538"><ele>190.0</ele><time>2026-03-22T10:47:19.769Z</time></trkpt><trkpt lat="43.6696562" lon="11.3130676"><ele>190.0</ele><time>2026-03-22T10:47:20.769Z</time></trkpt><trkpt lat="43.6697294" lon="11.3128949"><ele>190.0</ele><time>2026-03-22T10:47:21.768Z</time></trkpt><trkpt lat="43.6697973" lon="11.3127378"><ele>190.0</ele><time>2026-03-22T10:47:22.77Z</time></trkpt><trkpt lat="43.6698636" lon="11.312572"><ele>190.0</ele><time>2026-03-22T10:47:23.768Z</time></trkpt><trkpt lat="43.6699336" lon="11.3124162"><ele>190.0</ele><time>2026-03-22T10:47:24.769Z</time></trkpt><trkpt lat="43.6699988" lon="11.3122912"><ele>190.0</ele><time>2026-03-22T10:47:25.77Z</time></trkpt><trkpt lat="43.6700783" lon="11.3122036"><ele>190.0</ele><time>2026-03-22T10:47:26.769Z</time></trkpt><trkpt lat="43.6701611" lon="11.3121244"><ele>190.0</ele><time>2026-03-22T10:47:27.768Z</time></trkpt><trkpt lat="43.6702598" lon="11.3120404"><ele>190.0</ele><time>2026-03-22T10:47:28.768Z</time></trkpt><trkpt lat="43.6703348" lon="11.3119919"><ele>190.0</ele><time>2026-03-22T10:47:29.77Z</time></trkpt><trkpt lat="43.6704223" lon="11.3119778"><ele>190.0</ele><time>2026-03-22T10:47:31.769Z</time></trkpt><trkpt lat="43.6704858" lon="11.3120763"><ele>190.0</ele><time>2026-03-22T10:47:33.769Z</time></trkpt><trkpt lat="43.6705084" lon="11.3121712"><ele>190.0</ele><time>2026-03-22T10:47:34.769Z</time></trkpt><trkpt lat="43.6705447" lon="11.3122975"><ele>190.0</ele><time>2026-03-22T10:47:35.77Z</time></trkpt><trkpt lat="43.6705835" lon="11.3124289"><ele>192.25</ele><time>2026-03-22T10:47:36.769Z</time></trkpt><trkpt lat="43.6706329" lon="11.3125798"><ele>194.5</ele><time>2026-03-22T10:47:37.769Z</time></trkpt><trkpt lat="43.6706957" lon="11.3127497"><ele>196.75</ele><time>2026-03-22T10:47:38.768Z</time></trkpt><trkpt lat="43.6707766" lon="11.312953"><ele>199.0</ele><time>2026-03-22T10:47:39.769Z</time></trkpt><trkpt lat="43.6708597" lon="11.3131365"><ele>200.25</ele><time>2026-03-22T10:47:40.769Z</time></trkpt><trkpt lat="43.6709388" lon="11.3133127"><ele>201.5</ele><time>2026-03-22T10:47:41.768Z</time></trkpt><trkpt lat="43.671006" lon="11.3134834"><ele>202.75</ele><time>2026-03-22T10:47:42.768Z</time></trkpt><trkpt lat="43.6710708" lon="11.3136442"><ele>204.0</ele><time>2026-03-22T10:47:43.768Z</time></trkpt><trkpt lat="43.6711317" lon="11.3138124"><ele>206.0</ele><time>2026-03-22T10:47:44.769Z</time></trkpt><trkpt lat="43.6711926" lon="11.3139686"><ele>208.0</ele><time>2026-03-22T10:47:45.769Z</time></trkpt><trkpt lat="43.6712229" lon="11.3141205"><ele>210.0</ele><time>2026-03-22T10:47:46.768Z</time></trkpt><trkpt lat="43.6712285" lon="11.3142719"><ele>212.0</ele><time>2026-03-22T10:47:47.768Z</time></trkpt><trkpt lat="43.6712453" lon="11.3144102"><ele>212.00000000000003</ele><time>2026-03-22T10:47:48.769Z</time></trkpt><trkpt lat="43.6712718" lon="11.3145244"><ele>212.0</ele><time>2026-03-22T10:47:50.768Z</time></trkpt><trkpt lat="43.6713197" lon="11.3146647"><ele>212.0</ele><time>2026-03-22T10:47:52.769Z</time></trkpt><trkpt lat="43.6713413" lon="11.3147779"><ele>212.0</ele><time>2026-03-22T10:47:53.769Z</time></trkpt><trkpt lat="43.6713284" lon="11.3148896"><ele>212.00000000000003</ele><time>2026-03-22T10:47:54.77Z</time></trkpt><trkpt lat="43.6713401" lon="11.3149935"><ele>212.0</ele><time>2026-03-22T10:47:55.769Z</time></trkpt><trkpt lat="43.671361" lon="11.3151057"><ele>212.2</ele><time>2026-03-22T10:47:56.768Z</time></trkpt><trkpt lat="43.6714753" lon="11.3152073"><ele>212.39999999999998</ele><time>2026-03-22T10:47:58.769Z</time></trkpt><trkpt lat="43.6714767" lon="11.3153232"><ele>212.60000000000002</ele><time>2026-03-22T10:47:59.77Z</time></trkpt><trkpt lat="43.6715201" lon="11.3154249"><ele>212.8</ele><time>2026-03-22T10:48:00.769Z</time></trkpt><trkpt lat="43.6715526" lon="11.3155994"><ele>213.0</ele><time>2026-03-22T10:48:01.768Z</time></trkpt><trkpt lat="43.6715577" lon="11.3157916"><ele>213.0</ele><time>2026-03-22T10:48:02.769Z</time></trkpt><trkpt lat="43.6715813" lon="11.3160371"><ele>213.0</ele><time>2026-03-22T10:48:03.769Z</time></trkpt><trkpt lat="43.6716055" lon="11.3162333"><ele>213.0</ele><time>2026-03-22T10:48:04.768Z</time></trkpt><trkpt lat="43.6716327" lon="11.3164305"><ele>212.33333333333331</ele><time>2026-03-22T10:48:05.768Z</time></trkpt><trkpt lat="43.6716605" lon="11.3166455"><ele>211.66666666666666</ele><time>2026-03-22T10:48:06.769Z</time></trkpt><trkpt lat="43.6716851" lon="11.3168522"><ele>211.0</ele><time>2026-03-22T10:48:07.768Z</time></trkpt><trkpt lat="43.6717102" lon="11.3170507"><ele>211.0</ele><time>2026-03-22T10:48:08.769Z</time></trkpt><trkpt lat="43.6717305" lon="11.317228"><ele>211.0</ele><time>2026-03-22T10:48:09.768Z</time></trkpt><trkpt lat="43.6717511" lon="11.3173836"><ele>211.0</ele><time>2026-03-22T10:48:10.769Z</time></trkpt><trkpt lat="43.671767" lon="11.3175019"><ele>211.0</ele><time>2026-03-22T10:48:11.769Z</time></trkpt><trkpt lat="43.671778" lon="11.3175921"><ele>211.0</ele><time>2026-03-22T10:48:12.769Z</time></trkpt><trkpt lat="43.6717952" lon="11.3176887"><ele>211.25</ele><time>2026-03-22T10:48:15.769Z</time></trkpt><trkpt lat="43.6718963" lon="11.3176096"><ele>211.5</ele><time>2026-03-22T10:48:18.77Z</time></trkpt><trkpt lat="43.671981" lon="11.3175256"><ele>211.75</ele><time>2026-03-22T10:48:19.769Z</time></trkpt><trkpt lat="43.6720734" lon="11.3174389"><ele>212.0</ele><time>2026-03-22T10:48:20.77Z</time></trkpt><trkpt lat="43.6721824" lon="11.3173405"><ele>211.75</ele><time>2026-03-22T10:48:21.769Z</time></trkpt><trkpt lat="43.6722954" lon="11.3172342"><ele>211.5</ele><time>2026-03-22T10:48:22.768Z</time></trkpt><trkpt lat="43.6724055" lon="11.3171267"><ele>211.25</ele><time>2026-03-22T10:48:23.769Z</time></trkpt><trkpt lat="43.6725114" lon="11.3170256"><ele>211.0</ele><time>2026-03-22T10:48:24.769Z</time></trkpt><trkpt lat="43.6726145" lon="11.3169298"><ele>211.0</ele><time>2026-03-22T10:48:25.768Z</time></trkpt><trkpt lat="43.6727189" lon="11.3168288"><ele>211.0</ele><time>2026-03-22T10:48:26.77Z</time></trkpt><trkpt lat="43.6728254" lon="11.3167361"><ele>211.0</ele><time>2026-03-22T10:48:27.769Z</time></trkpt><trkpt lat="43.6729305" lon="11.3166355"><ele>211.0</ele><time>2026-03-22T10:48:28.768Z</time></trkpt><trkpt lat="43.6730427" lon="11.3165312"><ele>210.25</ele><time>2026-03-22T10:48:29.769Z</time></trkpt><trkpt lat="43.6731564" lon="11.316419"><ele>209.5</ele><time>2026-03-22T10:48:30.769Z</time></trkpt><trkpt lat="43.6732709" lon="11.3163038"><ele>208.75</ele><time>2026-03-22T10:48:31.769Z</time></trkpt><trkpt lat="43.6733913" lon="11.3161901"><ele>208.0</ele><time>2026-03-22T10:48:32.769Z</time></trkpt><trkpt lat="43.673514" lon="11.3160697"><ele>205.75</ele><time>2026-03-22T10:48:33.768Z</time></trkpt><trkpt lat="43.6736343" lon="11.315952"><ele>203.5</ele><time>2026-03-22T10:48:34.768Z</time></trkpt><trkpt lat="43.6737556" lon="11.3158364"><ele>201.25</ele><time>2026-03-22T10:48:35.768Z</time></trkpt><trkpt lat="43.6738802" lon="11.3157206"><ele>199.0</ele><time>2026-03-22T10:48:36.769Z</time></trkpt><trkpt lat="43.6740053" lon="11.3155936"><ele>198.0</ele><time>2026-03-22T10:48:37.768Z</time></trkpt><trkpt lat="43.6741292" lon="11.315465"><ele>197.0</ele><time>2026-03-22T10:48:38.768Z</time></trkpt><trkpt lat="43.6742572" lon="11.3153388"><ele>196.0</ele><time>2026-03-22T10:48:39.769Z</time></trkpt><trkpt lat="43.674381" lon="11.3152175"><ele>198.25</ele><time>2026-03-22T10:48:40.768Z</time></trkpt><trkpt lat="43.6744997" lon="11.3151055"><ele>200.5</ele><time>2026-03-22T10:48:41.769Z</time></trkpt><trkpt lat="43.6746206" lon="11.3149939"><ele>202.75</ele><time>2026-03-22T10:48:42.77Z</time></trkpt><trkpt lat="43.6747414" lon="11.3148899"><ele>205.0</ele><time>2026-03-22T10:48:43.768Z</time></trkpt><trkpt lat="43.674865" lon="11.3147937"><ele>203.5</ele><time>2026-03-22T10:48:44.769Z</time></trkpt><trkpt lat="43.6749914" lon="11.3147004"><ele>202.0</ele><time>2026-03-22T10:48:45.77Z</time></trkpt><trkpt lat="43.6751201" lon="11.3146058"><ele>200.5</ele><time>2026-03-22T10:48:46.769Z</time></trkpt><trkpt lat="43.675242" lon="11.3145136"><ele>199.0</ele><time>2026-03-22T10:48:47.768Z</time></trkpt><trkpt lat="43.6753689" lon="11.3144192"><ele>199.0</ele><time>2026-03-22T10:48:48.77Z</time></trkpt><trkpt lat="43.6754958" lon="11.3143268"><ele>199.0</ele><time>2026-03-22T10:48:49.771Z</time></trkpt><trkpt lat="43.6756177" lon="11.3142278"><ele>199.0</ele><time>2026-03-22T10:48:50.77Z</time></trkpt><trkpt lat="43.675742" lon="11.3141273"><ele>199.0</ele><time>2026-03-22T10:48:51.769Z</time></trkpt><trkpt lat="43.6758695" lon="11.3140214"><ele>199.0</ele><time>2026-03-22T10:48:52.77Z</time></trkpt><trkpt lat="43.675996" lon="11.3139147"><ele>199.0</ele><time>2026-03-22T10:48:53.77Z</time></trkpt><trkpt lat="43.6761232" lon="11.3138078"><ele>199.0</ele><time>2026-03-22T10:48:54.769Z</time></trkpt><trkpt lat="43.6762457" lon="11.3137005"><ele>199.0</ele><time>2026-03-22T10:48:55.769Z</time></trkpt><trkpt lat="43.6763613" lon="11.3136039"><ele>197.75</ele><time>2026-03-22T10:48:56.77Z</time></trkpt><trkpt lat="43.6764789" lon="11.3135085"><ele>196.5</ele><time>2026-03-22T10:48:57.769Z</time></trkpt><trkpt lat="43.6765938" lon="11.3134116"><ele>195.25</ele><time>2026-03-22T10:48:58.769Z</time></trkpt><trkpt lat="43.676709" lon="11.3133079"><ele>194.0</ele><time>2026-03-22T10:48:59.77Z</time></trkpt><trkpt lat="43.676818" lon="11.313189"><ele>195.0</ele><time>2026-03-22T10:49:00.771Z</time></trkpt><trkpt lat="43.6769192" lon="11.3130516"><ele>196.0</ele><time>2026-03-22T10:49:01.771Z</time></trkpt><trkpt lat="43.6770174" lon="11.3129068"><ele>197.0</ele><time>2026-03-22T10:49:02.77Z</time></trkpt><trkpt lat="43.6771127" lon="11.3127606"><ele>198.0</ele><time>2026-03-22T10:49:03.769Z</time></trkpt><trkpt lat="43.6772067" lon="11.312611"><ele>198.0</ele><time>2026-03-22T10:49:04.769Z</time></trkpt><trkpt lat="43.6773009" lon="11.3124643"><ele>198.0</ele><time>2026-03-22T10:49:05.77Z</time></trkpt><trkpt lat="43.6773947" lon="11.3123125"><ele>198.0</ele><time>2026-03-22T10:49:06.77Z</time></trkpt><trkpt lat="43.6774834" lon="11.3121635"><ele>198.0</ele><time>2026-03-22T10:49:07.77Z</time></trkpt><trkpt lat="43.677564" lon="11.3120311"><ele>197.60000000000002</ele><time>2026-03-22T10:49:08.769Z</time></trkpt><trkpt lat="43.677637" lon="11.3119189"><ele>197.20000000000002</ele><time>2026-03-22T10:49:09.77Z</time></trkpt><trkpt lat="43.67771" lon="11.31184"><ele>196.8</ele><time>2026-03-22T10:49:10.77Z</time></trkpt><trkpt lat="43.6778059" lon="11.3117697"><ele>196.4</ele><time>2026-03-22T10:49:11.77Z</time></trkpt><trkpt lat="43.6779176" lon="11.3117019"><ele>196.0</ele><time>2026-03-22T10:49:12.769Z</time></trkpt><trkpt lat="43.6780411" lon="11.3116394"><ele>196.0</ele><time>2026-03-22T10:49:13.77Z</time></trkpt><trkpt lat="43.6781693" lon="11.3115614"><ele>196.0</ele><time>2026-03-22T10:49:14.77Z</time></trkpt><trkpt lat="43.6783063" lon="11.3114846"><ele>196.0</ele><time>2026-03-22T10:49:15.77Z</time></trkpt><trkpt lat="43.6784524" lon="11.3114061"><ele>196.0</ele><time>2026-03-22T10:49:16.77Z</time></trkpt><trkpt lat="43.6785979" lon="11.3113253"><ele>194.66666666666666</ele><time>2026-03-22T10:49:17.769Z</time></trkpt><trkpt lat="43.6787424" lon="11.311246"><ele>193.33333333333331</ele><time>2026-03-22T10:49:18.769Z</time></trkpt><trkpt lat="43.6788856" lon="11.3111629"><ele>192.0</ele><time>2026-03-22T10:49:19.769Z</time></trkpt><trkpt lat="43.6790178" lon="11.3110824"><ele>192.0</ele><time>2026-03-22T10:49:20.77Z</time></trkpt><trkpt lat="43.6791497" lon="11.3110024"><ele>192.0</ele><time>2026-03-22T10:49:21.77Z</time></trkpt><trkpt lat="43.6792797" lon="11.3109224"><ele>192.0</ele><time>2026-03-22T10:49:22.77Z</time></trkpt><trkpt lat="43.6794062" lon="11.3108572"><ele>192.0</ele><time>2026-03-22T10:49:23.77Z</time></trkpt><trkpt lat="43.6795233" lon="11.3107871"><ele>192.2</ele><time>2026-03-22T10:49:24.769Z</time></trkpt><trkpt lat="43.6796323" lon="11.3107192"><ele>192.39999999999998</ele><time>2026-03-22T10:49:25.769Z</time></trkpt><trkpt lat="43.6797366" lon="11.3106625"><ele>192.60000000000002</ele><time>2026-03-22T10:49:26.77Z</time></trkpt><trkpt lat="43.679837" lon="11.3106225"><ele>192.8</ele><time>2026-03-22T10:49:27.769Z</time></trkpt><trkpt lat="43.6799375" lon="11.3106187"><ele>193.0</ele><time>2026-03-22T10:49:28.77Z</time></trkpt><trkpt lat="43.6800389" lon="11.3106187"><ele>193.0</ele><time>2026-03-22T10:49:29.77Z</time></trkpt><trkpt lat="43.6801574" lon="11.3106815"><ele>193.0</ele><time>2026-03-22T10:49:30.77Z</time></trkpt><trkpt lat="43.6802841" lon="11.3107148"><ele>193.0</ele><time>2026-03-22T10:49:31.77Z</time></trkpt><trkpt lat="43.6804459" lon="11.3108165"><ele>193.0</ele><time>2026-03-22T10:49:32.77Z</time></trkpt><trkpt lat="43.6805991" lon="11.3108953"><ele>188.33333333333331</ele><time>2026-03-22T10:49:33.771Z</time></trkpt><trkpt lat="43.6807507" lon="11.3109962"><ele>183.66666666666666</ele><time>2026-03-22T10:49:34.771Z</time></trkpt><trkpt lat="43.6808948" lon="11.3110656"><ele>179.0</ele><time>2026-03-22T10:49:35.77Z</time></trkpt><trkpt lat="43.6810316" lon="11.3111344"><ele>177.5</ele><time>2026-03-22T10:49:36.77Z</time></trkpt><trkpt lat="43.6811777" lon="11.3111796"><ele>176.0</ele><time>2026-03-22T10:49:37.77Z</time></trkpt><trkpt lat="43.6813225" lon="11.3112014"><ele>174.5</ele><time>2026-03-22T10:49:38.77Z</time></trkpt><trkpt lat="43.6814658" lon="11.3112019"><ele>173.0</ele><time>2026-03-22T10:49:39.769Z</time></trkpt><trkpt lat="43.681604" lon="11.3111913"><ele>173.0</ele><time>2026-03-22T10:49:40.769Z</time></trkpt><trkpt lat="43.6817487" lon="11.3111736"><ele>173.0</ele><time>2026-03-22T10:49:41.77Z</time></trkpt><trkpt lat="43.681892" lon="11.3111577"><ele>173.0</ele><time>2026-03-22T10:49:42.77Z</time></trkpt><trkpt lat="43.6820335" lon="11.3111546"><ele>173.0</ele><time>2026-03-22T10:49:43.77Z</time></trkpt><trkpt lat="43.6821736" lon="11.3111619"><ele>172.5</ele><time>2026-03-22T10:49:44.77Z</time></trkpt><trkpt lat="43.682315" lon="11.3111697"><ele>172.0</ele><time>2026-03-22T10:49:45.77Z</time></trkpt><trkpt lat="43.6824586" lon="11.3111725"><ele>171.5</ele><time>2026-03-22T10:49:46.77Z</time></trkpt><trkpt lat="43.6826086" lon="11.3111844"><ele>171.0</ele><time>2026-03-22T10:49:47.77Z</time></trkpt><trkpt lat="43.6827615" lon="11.3111931"><ele>169.33333333333334</ele><time>2026-03-22T10:49:48.771Z</time></trkpt><trkpt lat="43.6829191" lon="11.3112019"><ele>167.66666666666669</ele><time>2026-03-22T10:49:49.77Z</time></trkpt><trkpt lat="43.6830744" lon="11.3112097"><ele>166.0</ele><time>2026-03-22T10:49:50.769Z</time></trkpt><trkpt lat="43.6832272" lon="11.3112154"><ele>166.0</ele><time>2026-03-22T10:49:51.77Z</time></trkpt><trkpt lat="43.6833775" lon="11.3112209"><ele>166.0</ele><time>2026-03-22T10:49:52.77Z</time></trkpt><trkpt lat="43.6835304" lon="11.311223"><ele>166.0</ele><time>2026-03-22T10:49:53.769Z</time></trkpt><trkpt lat="43.6836826" lon="11.3112287"><ele>164.0</ele><time>2026-03-22T10:49:54.769Z</time></trkpt><trkpt lat="43.6838412" lon="11.3112384"><ele>162.0</ele><time>2026-03-22T10:49:55.769Z</time></trkpt><trkpt lat="43.6840024" lon="11.3112496"><ele>160.0</ele><time>2026-03-22T10:49:56.769Z</time></trkpt><trkpt lat="43.6841622" lon="11.3112653"><ele>160.0</ele><time>2026-03-22T10:49:57.769Z</time></trkpt><trkpt lat="43.6843228" lon="11.3112808"><ele>160.0</ele><time>2026-03-22T10:49:58.769Z</time></trkpt><trkpt lat="43.6844816" lon="11.3112929"><ele>160.0</ele><time>2026-03-22T10:49:59.769Z</time></trkpt><trkpt lat="43.6846388" lon="11.311305"><ele>158.33333333333334</ele><time>2026-03-22T10:50:00.769Z</time></trkpt><trkpt lat="43.6847933" lon="11.3113165"><ele>156.66666666666666</ele><time>2026-03-22T10:50:01.769Z</time></trkpt><trkpt lat="43.6849471" lon="11.3113228"><ele>155.0</ele><time>2026-03-22T10:50:02.769Z</time></trkpt><trkpt lat="43.6850968" lon="11.3113271"><ele>155.0</ele><time>2026-03-22T10:50:03.769Z</time></trkpt><trkpt lat="43.6852449" lon="11.3113287"><ele>155.0</ele><time>2026-03-22T10:50:04.77Z</time></trkpt><trkpt lat="43.6853905" lon="11.3113282"><ele>155.0</ele><time>2026-03-22T10:50:05.77Z</time></trkpt><trkpt lat="43.6855353" lon="11.3113274"><ele>155.0</ele><time>2026-03-22T10:50:06.77Z</time></trkpt><trkpt lat="43.6856747" lon="11.3113286"><ele>154.5</ele><time>2026-03-22T10:50:07.77Z</time></trkpt><trkpt lat="43.6858137" lon="11.3113278"><ele>154.0</ele><time>2026-03-22T10:50:08.77Z</time></trkpt><trkpt lat="43.685945" lon="11.3113169"><ele>153.5</ele><time>2026-03-22T10:50:09.769Z</time></trkpt><trkpt lat="43.686078" lon="11.3113002"><ele>153.0</ele><time>2026-03-22T10:50:10.77Z</time></trkpt><trkpt lat="43.6862166" lon="11.3112688"><ele>152.75</ele><time>2026-03-22T10:50:11.769Z</time></trkpt><trkpt lat="43.6863571" lon="11.3112247"><ele>152.5</ele><time>2026-03-22T10:50:12.769Z</time></trkpt><trkpt lat="43.6864968" lon="11.3111774"><ele>152.25</ele><time>2026-03-22T10:50:13.769Z</time></trkpt><trkpt lat="43.6866423" lon="11.3111292"><ele>152.0</ele><time>2026-03-22T10:50:14.769Z</time></trkpt><trkpt lat="43.6867865" lon="11.3110779"><ele>152.33333333333331</ele><time>2026-03-22T10:50:15.769Z</time></trkpt><trkpt lat="43.6869368" lon="11.3110244"><ele>152.66666666666666</ele><time>2026-03-22T10:50:16.769Z</time></trkpt><trkpt lat="43.6870907" lon="11.3109678"><ele>153.0</ele><time>2026-03-22T10:50:17.77Z</time></trkpt><trkpt lat="43.6872456" lon="11.3109091"><ele>153.0</ele><time>2026-03-22T10:50:18.77Z</time></trkpt><trkpt lat="43.6873985" lon="11.3108535"><ele>153.0</ele><time>2026-03-22T10:50:19.77Z</time></trkpt><trkpt lat="43.6875408" lon="11.3108056"><ele>153.0</ele><time>2026-03-22T10:50:20.77Z</time></trkpt><trkpt lat="43.6876847" lon="11.3107587"><ele>154.75</ele><time>2026-03-22T10:50:21.769Z</time></trkpt><trkpt lat="43.6878311" lon="11.310709"><ele>156.5</ele><time>2026-03-22T10:50:22.769Z</time></trkpt><trkpt lat="43.6879775" lon="11.3106668"><ele>158.25</ele><time>2026-03-22T10:50:23.77Z</time></trkpt><trkpt lat="43.6881233" lon="11.3106339"><ele>160.0</ele><time>2026-03-22T10:50:24.77Z</time></trkpt><trkpt lat="43.688269" lon="11.3106125"><ele>160.0</ele><time>2026-03-22T10:50:25.77Z</time></trkpt><trkpt lat="43.6884102" lon="11.3105876"><ele>160.0</ele><time>2026-03-22T10:50:26.771Z</time></trkpt><trkpt lat="43.6885462" lon="11.3105603"><ele>160.0</ele><time>2026-03-22T10:50:27.769Z</time></trkpt><trkpt lat="43.688688" lon="11.3105402"><ele>160.0</ele><time>2026-03-22T10:50:28.77Z</time></trkpt><trkpt lat="43.6888328" lon="11.3105198"><ele>154.75</ele><time>2026-03-22T10:50:29.77Z</time></trkpt><trkpt lat="43.6889815" lon="11.3104995"><ele>149.5</ele><time>2026-03-22T10:50:30.77Z</time></trkpt><trkpt lat="43.6891241" lon="11.3104764"><ele>144.25</ele><time>2026-03-22T10:50:31.77Z</time></trkpt><trkpt lat="43.6892718" lon="11.3104506"><ele>139.0</ele><time>2026-03-22T10:50:32.769Z</time></trkpt><trkpt lat="43.6894065" lon="11.310429"><ele>137.25</ele><time>2026-03-22T10:50:33.769Z</time></trkpt><trkpt lat="43.6895271" lon="11.3104177"><ele>135.5</ele><time>2026-03-22T10:50:34.769Z</time></trkpt><trkpt lat="43.689649" lon="11.3103992"><ele>133.75</ele><time>2026-03-22T10:50:35.769Z</time></trkpt><trkpt lat="43.6897667" lon="11.3103715"><ele>132.0</ele><time>2026-03-22T10:50:36.769Z</time></trkpt><trkpt lat="43.6898876" lon="11.3103261"><ele>132.0</ele><time>2026-03-22T10:50:37.77Z</time></trkpt><trkpt lat="43.6899997" lon="11.3102557"><ele>132.0</ele><time>2026-03-22T10:50:38.77Z</time></trkpt><trkpt lat="43.6901101" lon="11.3101474"><ele>132.0</ele><time>2026-03-22T10:50:39.77Z</time></trkpt><trkpt lat="43.6902187" lon="11.310013"><ele>132.0</ele><time>2026-03-22T10:50:40.771Z</time></trkpt><trkpt lat="43.6903313" lon="11.3098787"><ele>130.5</ele><time>2026-03-22T10:50:41.77Z</time></trkpt><trkpt lat="43.690442" lon="11.309747"><ele>129.0</ele><time>2026-03-22T10:50:42.77Z</time></trkpt><trkpt lat="43.6905553" lon="11.3096173"><ele>127.5</ele><time>2026-03-22T10:50:43.769Z</time></trkpt><trkpt lat="43.6906723" lon="11.3094993"><ele>126.0</ele><time>2026-03-22T10:50:44.771Z</time></trkpt><trkpt lat="43.6907987" lon="11.3093912"><ele>123.0</ele><time>2026-03-22T10:50:45.77Z</time></trkpt><trkpt lat="43.6909361" lon="11.3092993"><ele>120.0</ele><time>2026-03-22T10:50:46.77Z</time></trkpt><trkpt lat="43.6910773" lon="11.3092268"><ele>117.0</ele><time>2026-03-22T10:50:47.769Z</time></trkpt><trkpt lat="43.6912274" lon="11.3091625"><ele>116.0</ele><time>2026-03-22T10:50:48.771Z</time></trkpt><trkpt lat="43.6913714" lon="11.3090913"><ele>115.0</ele><time>2026-03-22T10:50:49.77Z</time></trkpt><trkpt lat="43.6915087" lon="11.3089953"><ele>114.0</ele><time>2026-03-22T10:50:50.769Z</time></trkpt><trkpt lat="43.6916325" lon="11.3088771"><ele>113.66666666666666</ele><time>2026-03-22T10:50:51.77Z</time></trkpt><trkpt lat="43.6917564" lon="11.3087479"><ele>113.33333333333333</ele><time>2026-03-22T10:50:52.769Z</time></trkpt><trkpt lat="43.6918827" lon="11.3086324"><ele>113.0</ele><time>2026-03-22T10:50:53.77Z</time></trkpt><trkpt lat="43.6920171" lon="11.3085347"><ele>113.66666666666666</ele><time>2026-03-22T10:50:54.769Z</time></trkpt><trkpt lat="43.6921632" lon="11.3084549"><ele>114.33333333333334</ele><time>2026-03-22T10:50:55.769Z</time></trkpt><trkpt lat="43.6923155" lon="11.3083801"><ele>115.0</ele><time>2026-03-22T10:50:56.77Z</time></trkpt><trkpt lat="43.69247" lon="11.3083007"><ele>115.0</ele><time>2026-03-22T10:50:57.769Z</time></trkpt><trkpt lat="43.6926221" lon="11.3082278"><ele>115.0</ele><time>2026-03-22T10:50:58.769Z</time></trkpt><trkpt lat="43.6927696" lon="11.3081381"><ele>115.0</ele><time>2026-03-22T10:50:59.769Z</time></trkpt><trkpt lat="43.6929117" lon="11.3080322"><ele>114.33333333333334</ele><time>2026-03-22T10:51:00.77Z</time></trkpt><trkpt lat="43.6930527" lon="11.307928"><ele>113.66666666666666</ele><time>2026-03-22T10:51:01.77Z</time></trkpt><trkpt lat="43.6931929" lon="11.3078183"><ele>113.0</ele><time>2026-03-22T10:51:02.771Z</time></trkpt><trkpt lat="43.6933313" lon="11.3077059"><ele>113.0</ele><time>2026-03-22T10:51:03.77Z</time></trkpt><trkpt lat="43.6934685" lon="11.3075942"><ele>113.0</ele><time>2026-03-22T10:51:04.769Z</time></trkpt><trkpt lat="43.6935969" lon="11.3074906"><ele>113.0</ele><time>2026-03-22T10:51:05.77Z</time></trkpt><trkpt lat="43.6937226" lon="11.3073905"><ele>113.5</ele><time>2026-03-22T10:51:06.77Z</time></trkpt><trkpt lat="43.6938452" lon="11.3072916"><ele>114.0</ele><time>2026-03-22T10:51:07.77Z</time></trkpt><trkpt lat="43.693964" lon="11.3071966"><ele>114.5</ele><time>2026-03-22T10:51:08.77Z</time></trkpt><trkpt lat="43.6940888" lon="11.3071154"><ele>115.0</ele><time>2026-03-22T10:51:09.77Z</time></trkpt><trkpt lat="43.6942144" lon="11.307054"><ele>113.75</ele><time>2026-03-22T10:51:10.771Z</time></trkpt><trkpt lat="43.6943498" lon="11.3070161"><ele>112.5</ele><time>2026-03-22T10:51:11.771Z</time></trkpt><trkpt lat="43.6944891" lon="11.3070085"><ele>111.25</ele><time>2026-03-22T10:51:12.77Z</time></trkpt><trkpt lat="43.6946301" lon="11.3070367"><ele>110.0</ele><time>2026-03-22T10:51:13.77Z</time></trkpt><trkpt lat="43.6947676" lon="11.3070994"><ele>109.33333333333333</ele><time>2026-03-22T10:51:14.769Z</time></trkpt><trkpt lat="43.6949039" lon="11.3071869"><ele>108.66666666666666</ele><time>2026-03-22T10:51:15.769Z</time></trkpt><trkpt lat="43.6950344" lon="11.3072923"><ele>108.0</ele><time>2026-03-22T10:51:16.77Z</time></trkpt><trkpt lat="43.695164" lon="11.3074033"><ele>108.5</ele><time>2026-03-22T10:51:17.77Z</time></trkpt><trkpt lat="43.695292" lon="11.3075086"><ele>109.0</ele><time>2026-03-22T10:51:18.77Z</time></trkpt><trkpt lat="43.6954168" lon="11.3076082"><ele>109.5</ele><time>2026-03-22T10:51:19.77Z</time></trkpt><trkpt lat="43.6955449" lon="11.3076912"><ele>110.0</ele><time>2026-03-22T10:51:20.769Z</time></trkpt><trkpt lat="43.6956794" lon="11.307753"><ele>110.0</ele><time>2026-03-22T10:51:21.77Z</time></trkpt><trkpt lat="43.6958196" lon="11.3077967"><ele>110.0</ele><time>2026-03-22T10:51:22.77Z</time></trkpt><trkpt lat="43.6959635" lon="11.3078338"><ele>110.0</ele><time>2026-03-22T10:51:23.77Z</time></trkpt><trkpt lat="43.6961129" lon="11.3078676"><ele>110.0</ele><time>2026-03-22T10:51:24.77Z</time></trkpt><trkpt lat="43.696259" lon="11.3079015"><ele>109.0</ele><time>2026-03-22T10:51:25.77Z</time></trkpt><trkpt lat="43.696407" lon="11.3079225"><ele>108.0</ele><time>2026-03-22T10:51:26.769Z</time></trkpt><trkpt lat="43.6965575" lon="11.3079346"><ele>107.0</ele><time>2026-03-22T10:51:27.769Z</time></trkpt><trkpt lat="43.6967075" lon="11.3079312"><ele>107.0</ele><time>2026-03-22T10:51:28.77Z</time></trkpt><trkpt lat="43.6968556" lon="11.3079232"><ele>107.0</ele><time>2026-03-22T10:51:29.77Z</time></trkpt><trkpt lat="43.6969966" lon="11.3079242"><ele>107.0</ele><time>2026-03-22T10:51:30.77Z</time></trkpt><trkpt lat="43.6971328" lon="11.3079333"><ele>107.0</ele><time>2026-03-22T10:51:31.77Z</time></trkpt><trkpt lat="43.6972587" lon="11.3079575"><ele>106.75</ele><time>2026-03-22T10:51:32.771Z</time></trkpt><trkpt lat="43.6973839" lon="11.307999"><ele>106.5</ele><time>2026-03-22T10:51:33.771Z</time></trkpt><trkpt lat="43.6975062" lon="11.3080609"><ele>106.25</ele><time>2026-03-22T10:51:34.77Z</time></trkpt><trkpt lat="43.6976334" lon="11.3081428"><ele>106.0</ele><time>2026-03-22T10:51:35.77Z</time></trkpt><trkpt lat="43.6977678" lon="11.3082276"><ele>106.0</ele><time>2026-03-22T10:51:36.77Z</time></trkpt><trkpt lat="43.6978966" lon="11.3083247"><ele>106.0</ele><time>2026-03-22T10:51:37.77Z</time></trkpt><trkpt lat="43.6980276" lon="11.308438"><ele>106.0</ele><time>2026-03-22T10:51:38.77Z</time></trkpt><trkpt lat="43.6981617" lon="11.3085636"><ele>106.0</ele><time>2026-03-22T10:51:39.769Z</time></trkpt><trkpt lat="43.6982934" lon="11.3086844"><ele>106.0</ele><time>2026-03-22T10:51:40.769Z</time></trkpt><trkpt lat="43.698416" lon="11.3087988"><ele>106.0</ele><time>2026-03-22T10:51:41.77Z</time></trkpt><trkpt lat="43.6985355" lon="11.3089192"><ele>106.0</ele><time>2026-03-22T10:51:42.769Z</time></trkpt><trkpt lat="43.698653" lon="11.3090305"><ele>106.0</ele><time>2026-03-22T10:51:43.769Z</time></trkpt><trkpt lat="43.6987617" lon="11.3091343"><ele>106.0</ele><time>2026-03-22T10:51:44.769Z</time></trkpt><trkpt lat="43.6988729" lon="11.30924"><ele>106.0</ele><time>2026-03-22T10:51:45.769Z</time></trkpt><trkpt lat="43.6989833" lon="11.309342"><ele>106.0</ele><time>2026-03-22T10:51:46.769Z</time></trkpt><trkpt lat="43.6990904" lon="11.3094427"><ele>106.0</ele><time>2026-03-22T10:51:47.769Z</time></trkpt><trkpt lat="43.6991965" lon="11.3095474"><ele>106.0</ele><time>2026-03-22T10:51:48.771Z</time></trkpt><trkpt lat="43.6992951" lon="11.3096361"><ele>106.0</ele><time>2026-03-22T10:51:49.769Z</time></trkpt><trkpt lat="43.6993956" lon="11.3097133"><ele>106.25</ele><time>2026-03-22T10:51:50.769Z</time></trkpt><trkpt lat="43.6995021" lon="11.3097726"><ele>106.5</ele><time>2026-03-22T10:51:51.77Z</time></trkpt><trkpt lat="43.699619" lon="11.3098061"><ele>106.75</ele><time>2026-03-22T10:51:52.771Z</time></trkpt><trkpt lat="43.6997409" lon="11.3098167"><ele>107.0</ele><time>2026-03-22T10:51:53.77Z</time></trkpt><trkpt lat="43.6998654" lon="11.3098245"><ele>107.0</ele><time>2026-03-22T10:51:54.77Z</time></trkpt><trkpt lat="43.699987" lon="11.3098254"><ele>106.99999999999999</ele><time>2026-03-22T10:51:55.771Z</time></trkpt><trkpt lat="43.7001037" lon="11.3098189"><ele>106.99999999999999</ele><time>2026-03-22T10:51:56.77Z</time></trkpt><trkpt lat="43.7002107" lon="11.3098105"><ele>107.0</ele><time>2026-03-22T10:51:57.77Z</time></trkpt><trkpt lat="43.7003002" lon="11.3098088"><ele>107.0</ele><time>2026-03-22T10:51:58.769Z</time></trkpt><trkpt lat="43.7003704" lon="11.3098079"><ele>107.39999999999999</ele><time>2026-03-22T10:51:59.769Z</time></trkpt><trkpt lat="43.7004664" lon="11.3098206"><ele>107.79999999999998</ele><time>2026-03-22T10:52:01.77Z</time></trkpt><trkpt lat="43.7005536" lon="11.3097612"><ele>108.2</ele><time>2026-03-22T10:52:04.769Z</time></trkpt><trkpt lat="43.7006251" lon="11.3095852"><ele>108.6</ele><time>2026-03-22T10:52:06.77Z</time></trkpt><trkpt lat="43.7006739" lon="11.3094728"><ele>109.0</ele><time>2026-03-22T10:52:07.769Z</time></trkpt><trkpt lat="43.700734" lon="11.3093438"><ele>109.0</ele><time>2026-03-22T10:52:08.769Z</time></trkpt><trkpt lat="43.7007947" lon="11.3092128"><ele>109.0</ele><time>2026-03-22T10:52:09.77Z</time></trkpt><trkpt lat="43.7008588" lon="11.3090729"><ele>109.0</ele><time>2026-03-22T10:52:10.77Z</time></trkpt><trkpt lat="43.7009233" lon="11.3089352"><ele>109.0</ele><time>2026-03-22T10:52:11.77Z</time></trkpt><trkpt lat="43.7009914" lon="11.3088016"><ele>108.75</ele><time>2026-03-22T10:52:12.769Z</time></trkpt><trkpt lat="43.7010679" lon="11.3086683"><ele>108.5</ele><time>2026-03-22T10:52:13.769Z</time></trkpt><trkpt lat="43.7011545" lon="11.3085439"><ele>108.25</ele><time>2026-03-22T10:52:14.77Z</time></trkpt><trkpt lat="43.7012594" lon="11.308441"><ele>108.0</ele><time>2026-03-22T10:52:15.769Z</time></trkpt><trkpt lat="43.7013645" lon="11.3083393"><ele>108.0</ele><time>2026-03-22T10:52:16.769Z</time></trkpt><trkpt lat="43.7014595" lon="11.3082318"><ele>108.0</ele><time>2026-03-22T10:52:17.769Z</time></trkpt><trkpt lat="43.7015503" lon="11.308113"><ele>108.0</ele><time>2026-03-22T10:52:18.769Z</time></trkpt><trkpt lat="43.7016394" lon="11.3079817"><ele>108.0</ele><time>2026-03-22T10:52:19.769Z</time></trkpt><trkpt lat="43.7017315" lon="11.3078419"><ele>107.0</ele><time>2026-03-22T10:52:20.769Z</time></trkpt><trkpt lat="43.7018234" lon="11.3077047"><ele>106.0</ele><time>2026-03-22T10:52:21.77Z</time></trkpt><trkpt lat="43.7019161" lon="11.3075746"><ele>105.0</ele><time>2026-03-22T10:52:22.77Z</time></trkpt><trkpt lat="43.7020127" lon="11.3074725"><ele>104.0</ele><time>2026-03-22T10:52:23.769Z</time></trkpt><trkpt lat="43.7021264" lon="11.3074064"><ele>104.0</ele><time>2026-03-22T10:52:24.769Z</time></trkpt><trkpt lat="43.7022482" lon="11.3073719"><ele>104.0</ele><time>2026-03-22T10:52:25.77Z</time></trkpt><trkpt lat="43.7023894" lon="11.3073595"><ele>104.0</ele><time>2026-03-22T10:52:26.771Z</time></trkpt><trkpt lat="43.7025452" lon="11.3073552"><ele>104.0</ele><time>2026-03-22T10:52:27.77Z</time></trkpt><trkpt lat="43.7027005" lon="11.3073515"><ele>104.0</ele><time>2026-03-22T10:52:28.769Z</time></trkpt><trkpt lat="43.7028535" lon="11.307354"><ele>104.0</ele><time>2026-03-22T10:52:29.769Z</time></trkpt><trkpt lat="43.7030065" lon="11.3073581"><ele>104.0</ele><time>2026-03-22T10:52:30.771Z</time></trkpt><trkpt lat="43.7031583" lon="11.3073619"><ele>104.0</ele><time>2026-03-22T10:52:31.771Z</time></trkpt><trkpt lat="43.7033052" lon="11.3073683"><ele>104.0</ele><time>2026-03-22T10:52:32.769Z</time></trkpt><trkpt lat="43.7034287" lon="11.3073785"><ele>104.0</ele><time>2026-03-22T10:52:33.77Z</time></trkpt><trkpt lat="43.7035394" lon="11.3073976"><ele>104.0</ele><time>2026-03-22T10:52:34.77Z</time></trkpt><trkpt lat="43.7036389" lon="11.3074138"><ele>103.99999999999999</ele><time>2026-03-22T10:52:35.77Z</time></trkpt><trkpt lat="43.7037263" lon="11.3074305"><ele>104.0</ele><time>2026-03-22T10:52:36.77Z</time></trkpt><trkpt lat="43.7037922" lon="11.3074453"><ele>104.0</ele><time>2026-03-22T10:52:37.77Z</time></trkpt><trkpt lat="43.7038522" lon="11.3075056"><ele>104.0</ele><time>2026-03-22T10:52:39.77Z</time></trkpt><trkpt lat="43.703834" lon="11.3076169"><ele>103.99999999999999</ele><time>2026-03-22T10:52:41.77Z</time></trkpt><trkpt lat="43.703794" lon="11.3077692"><ele>104.0</ele><time>2026-03-22T10:52:43.771Z</time></trkpt><trkpt lat="43.7038109" lon="11.307898"><ele>103.99999999999999</ele><time>2026-03-22T10:52:45.77Z</time></trkpt><trkpt lat="43.7038691" lon="11.3079374"><ele>104.0</ele><time>2026-03-22T10:52:49.771Z</time></trkpt><trkpt lat="43.7039448" lon="11.307971"><ele>104.0</ele><time>2026-03-22T10:52:51.77Z</time></trkpt><trkpt lat="43.7040497" lon="11.3080416"><ele>104.0</ele><time>2026-03-22T10:52:53.77Z</time></trkpt><trkpt lat="43.7041102" lon="11.3080794"><ele>103.99999999999999</ele><time>2026-03-22T10:52:54.77Z</time></trkpt><trkpt lat="43.7041914" lon="11.3081091"><ele>104.0</ele><time>2026-03-22T10:52:56.77Z</time></trkpt><trkpt lat="43.7042478" lon="11.3081535"><ele>103.99999999999999</ele><time>2026-03-22T10:53:20.769Z</time></trkpt><trkpt lat="43.7041594" lon="11.3081336"><ele>104.0</ele><time>2026-03-22T10:53:23.769Z</time></trkpt><trkpt lat="43.7040837" lon="11.308035"><ele>104.0</ele><time>2026-03-22T10:53:25.769Z</time></trkpt><trkpt lat="43.7040049" lon="11.3079696"><ele>104.0</ele><time>2026-03-22T10:53:27.77Z</time></trkpt><trkpt lat="43.7039213" lon="11.3079552"><ele>103.99999999999999</ele><time>2026-03-22T10:53:29.77Z</time></trkpt><trkpt lat="43.7038506" lon="11.3079341"><ele>104.0</ele><time>2026-03-22T10:53:31.771Z</time></trkpt><trkpt lat="43.703782" lon="11.3079012"><ele>103.99999999999999</ele><time>2026-03-22T10:53:34.77Z</time></trkpt><trkpt lat="43.7037751" lon="11.3077537"><ele>104.0</ele><time>2026-03-22T10:53:36.769Z</time></trkpt><trkpt lat="43.7037965" lon="11.3076586"><ele>104.0</ele><time>2026-03-22T10:53:37.77Z</time></trkpt><trkpt lat="43.7038127" lon="11.3075697"><ele>104.0</ele><time>2026-03-22T10:53:38.77Z</time></trkpt><trkpt lat="43.7038099" lon="11.3074709"><ele>103.99999999999999</ele><time>2026-03-22T10:53:41.769Z</time></trkpt><trkpt lat="43.7037497" lon="11.3074137"><ele>104.0</ele><time>2026-03-22T10:53:43.771Z</time></trkpt><trkpt lat="43.7036562" lon="11.3073873"><ele>104.0</ele><time>2026-03-22T10:53:44.769Z</time></trkpt><trkpt lat="43.7035352" lon="11.3073714"><ele>104.0</ele><time>2026-03-22T10:53:45.769Z</time></trkpt><trkpt lat="43.7033822" lon="11.3073578"><ele>104.0</ele><time>2026-03-22T10:53:46.769Z</time></trkpt><trkpt lat="43.7032016" lon="11.3073483"><ele>104.0</ele><time>2026-03-22T10:53:47.769Z</time></trkpt><trkpt lat="43.7029789" lon="11.3073363"><ele>104.0</ele><time>2026-03-22T10:53:48.769Z</time></trkpt><trkpt lat="43.7027665" lon="11.3073252"><ele>104.0</ele><time>2026-03-22T10:53:49.77Z</time></trkpt><trkpt lat="43.7025768" lon="11.3073222"><ele>104.0</ele><time>2026-03-22T10:53:50.769Z</time></trkpt><trkpt lat="43.7024049" lon="11.307326"><ele>104.0</ele><time>2026-03-22T10:53:51.77Z</time></trkpt><trkpt lat="43.7022575" lon="11.3073383"><ele>104.0</ele><time>2026-03-22T10:53:52.77Z</time></trkpt><trkpt lat="43.7021436" lon="11.3073581"><ele>104.0</ele><time>2026-03-22T10:53:53.769Z</time></trkpt><trkpt lat="43.7020474" lon="11.3074131"><ele>104.0</ele><time>2026-03-22T10:53:54.77Z</time></trkpt><trkpt lat="43.7019438" lon="11.3075131"><ele>104.0</ele><time>2026-03-22T10:53:55.77Z</time></trkpt><trkpt lat="43.7018331" lon="11.3076626"><ele>104.0</ele><time>2026-03-22T10:53:56.77Z</time></trkpt><trkpt lat="43.701709" lon="11.3078452"><ele>104.0</ele><time>2026-03-22T10:53:57.771Z</time></trkpt><trkpt lat="43.7015796" lon="11.3080232"><ele>104.0</ele><time>2026-03-22T10:53:58.77Z</time></trkpt><trkpt lat="43.701455" lon="11.3081812"><ele>104.0</ele><time>2026-03-22T10:53:59.769Z</time></trkpt><trkpt lat="43.7013353" lon="11.3083139"><ele>103.99999999999999</ele><time>2026-03-22T10:54:00.77Z</time></trkpt><trkpt lat="43.7012383" lon="11.308412"><ele>104.0</ele><time>2026-03-22T10:54:01.769Z</time></trkpt><trkpt lat="43.7011567" lon="11.3084831"><ele>104.0</ele><time>2026-03-22T10:54:02.77Z</time></trkpt><trkpt lat="43.7010838" lon="11.3085146"><ele>104.0</ele><time>2026-03-22T10:54:03.771Z</time></trkpt><trkpt lat="43.7010061" lon="11.3085282"><ele>103.99999999999999</ele><time>2026-03-22T10:54:04.77Z</time></trkpt><trkpt lat="43.7009385" lon="11.3085105"><ele>104.0</ele><time>2026-03-22T10:54:05.77Z</time></trkpt><trkpt lat="43.7008661" lon="11.3084067"><ele>103.99999999999999</ele><time>2026-03-22T10:54:07.77Z</time></trkpt><trkpt lat="43.7008328" lon="11.3082908"><ele>104.0</ele><time>2026-03-22T10:54:09.769Z</time></trkpt><trkpt lat="43.7008337" lon="11.3081727"><ele>104.0</ele><time>2026-03-22T10:54:12.77Z</time></trkpt><trkpt lat="43.7009202" lon="11.3081605"><ele>104.0</ele><time>2026-03-22T10:54:14.769Z</time></trkpt><trkpt lat="43.7009819" lon="11.3081432"><ele>103.99999999999999</ele><time>2026-03-22T10:54:15.77Z</time></trkpt><trkpt lat="43.7010593" lon="11.3081273"><ele>104.0</ele><time>2026-03-22T10:54:16.769Z</time></trkpt><trkpt lat="43.7011415" lon="11.3080983"><ele>104.0</ele><time>2026-03-22T10:54:17.769Z</time></trkpt><trkpt lat="43.7012295" lon="11.3080479"><ele>104.0</ele><time>2026-03-22T10:54:18.77Z</time></trkpt><trkpt lat="43.7013107" lon="11.3079788"><ele>104.0</ele><time>2026-03-22T10:54:19.77Z</time></trkpt><trkpt lat="43.7013962" lon="11.3078812"><ele>104.0</ele><time>2026-03-22T10:54:20.77Z</time></trkpt><trkpt lat="43.7014672" lon="11.3077676"><ele>104.0</ele><time>2026-03-22T10:54:21.77Z</time></trkpt><trkpt lat="43.7015341" lon="11.3076349"><ele>104.0</ele><time>2026-03-22T10:54:22.771Z</time></trkpt><trkpt lat="43.7015834" lon="11.3075365"><ele>104.0</ele><time>2026-03-22T10:54:23.77Z</time></trkpt><trkpt lat="43.7016054" lon="11.3074316"><ele>104.0</ele><time>2026-03-22T10:54:24.77Z</time></trkpt><trkpt lat="43.7016173" lon="11.3073255"><ele>104.0</ele><time>2026-03-22T10:54:25.771Z</time></trkpt><trkpt lat="43.7016503" lon="11.3071921"><ele>104.0</ele><time>2026-03-22T10:54:26.77Z</time></trkpt><trkpt lat="43.7017049" lon="11.3070312"><ele>103.80000000000001</ele><time>2026-03-22T10:54:27.769Z</time></trkpt><trkpt lat="43.701756" lon="11.3068751"><ele>103.60000000000001</ele><time>2026-03-22T10:54:28.769Z</time></trkpt><trkpt lat="43.701812" lon="11.3067367"><ele>103.4</ele><time>2026-03-22T10:54:29.769Z</time></trkpt><trkpt lat="43.7018625" lon="11.3066153"><ele>103.2</ele><time>2026-03-22T10:54:30.769Z</time></trkpt><trkpt lat="43.7019078" lon="11.3065161"><ele>103.0</ele><time>2026-03-22T10:54:31.77Z</time></trkpt><trkpt lat="43.7019441" lon="11.3064326"><ele>104.16666666666667</ele><time>2026-03-22T10:54:32.771Z</time></trkpt><trkpt lat="43.70196" lon="11.3062714"><ele>105.33333333333334</ele><time>2026-03-22T10:54:34.77Z</time></trkpt><trkpt lat="43.7019537" lon="11.3061693"><ele>106.5</ele><time>2026-03-22T10:54:35.769Z</time></trkpt><trkpt lat="43.7019536" lon="11.3060719"><ele>107.66666666666666</ele><time>2026-03-22T10:54:36.77Z</time></trkpt><trkpt lat="43.7019697" lon="11.3059853"><ele>108.83333333333333</ele><time>2026-03-22T10:54:37.769Z</time></trkpt><trkpt lat="43.7020075" lon="11.3059076"><ele>110.0</ele><time>2026-03-22T10:54:38.77Z</time></trkpt><trkpt lat="43.70213" lon="11.3058093"><ele>110.0</ele><time>2026-03-22T10:54:40.77Z</time></trkpt><trkpt lat="43.7021926" lon="11.3057251"><ele>110.0</ele><time>2026-03-22T10:54:41.77Z</time></trkpt><trkpt lat="43.702267" lon="11.3056512"><ele>110.0</ele><time>2026-03-22T10:54:42.771Z</time></trkpt><trkpt lat="43.7023716" lon="11.3055821"><ele>110.0</ele><time>2026-03-22T10:54:43.769Z</time></trkpt><trkpt lat="43.7024724" lon="11.3055019"><ele>110.0</ele><time>2026-03-22T10:54:44.769Z</time></trkpt><trkpt lat="43.702567" lon="11.3054192"><ele>110.4</ele><time>2026-03-22T10:54:45.769Z</time></trkpt><trkpt lat="43.7026531" lon="11.3053288"><ele>110.8</ele><time>2026-03-22T10:54:46.77Z</time></trkpt><trkpt lat="43.7027458" lon="11.3054171"><ele>111.19999999999999</ele><time>2026-03-22T10:54:47.77Z</time></trkpt><trkpt lat="43.70283" lon="11.3054366"><ele>111.6</ele><time>2026-03-22T10:54:48.769Z</time></trkpt><trkpt lat="43.7029149" lon="11.3054947"><ele>112.0</ele><time>2026-03-22T10:54:49.769Z</time></trkpt><trkpt lat="43.7030094" lon="11.3055755"><ele>112.0</ele><time>2026-03-22T10:54:51.77Z</time></trkpt><trkpt lat="43.7031808" lon="11.3054595"><ele>112.0</ele><time>2026-03-22T10:54:53.77Z</time></trkpt><trkpt lat="43.7032959" lon="11.3053412"><ele>112.0</ele><time>2026-03-22T10:54:54.769Z</time></trkpt><trkpt lat="43.7034205" lon="11.3051822"><ele>112.0</ele><time>2026-03-22T10:54:55.769Z</time></trkpt><trkpt lat="43.7035262" lon="11.3050482"><ele>111.99999999999999</ele><time>2026-03-22T10:54:56.77Z</time></trkpt><trkpt lat="43.7036121" lon="11.3049473"><ele>111.99999999999999</ele><time>2026-03-22T10:54:57.77Z</time></trkpt><trkpt lat="43.7036827" lon="11.3048555"><ele>112.0</ele><time>2026-03-22T10:54:58.769Z</time></trkpt><trkpt lat="43.7037515" lon="11.3047746"><ele>112.0</ele><time>2026-03-22T10:54:59.769Z</time></trkpt><trkpt lat="43.7038244" lon="11.3046872"><ele>111.0</ele><time>2026-03-22T10:55:00.769Z</time></trkpt><trkpt lat="43.7038984" lon="11.304613"><ele>109.99999999999999</ele><time>2026-03-22T10:55:01.769Z</time></trkpt><trkpt lat="43.7039658" lon="11.3045344"><ele>108.99999999999999</ele><time>2026-03-22T10:55:02.769Z</time></trkpt><trkpt lat="43.7040448" lon="11.3044453"><ele>108.0</ele><time>2026-03-22T10:55:03.77Z</time></trkpt><trkpt lat="43.7041167" lon="11.3043413"><ele>107.0</ele><time>2026-03-22T10:55:04.77Z</time></trkpt><trkpt lat="43.7042084" lon="11.3042226"><ele>107.0</ele><time>2026-03-22T10:55:05.77Z</time></trkpt><trkpt lat="43.7042713" lon="11.304117"><ele>106.99999999999999</ele><time>2026-03-22T10:55:06.769Z</time></trkpt><trkpt lat="43.704327" lon="11.3040159"><ele>106.99999999999999</ele><time>2026-03-22T10:55:07.77Z</time></trkpt><trkpt lat="43.7043818" lon="11.3039177"><ele>107.0</ele><time>2026-03-22T10:55:08.769Z</time></trkpt><trkpt lat="43.7044427" lon="11.3038163"><ele>107.0</ele><time>2026-03-22T10:55:09.769Z</time></trkpt><trkpt lat="43.7045075" lon="11.3037216"><ele>106.99999999999999</ele><time>2026-03-22T10:55:10.769Z</time></trkpt><trkpt lat="43.7045844" lon="11.3036308"><ele>107.0</ele><time>2026-03-22T10:55:11.769Z</time></trkpt><trkpt lat="43.7046374" lon="11.3035604"><ele>107.0</ele><time>2026-03-22T10:55:12.77Z</time></trkpt><trkpt lat="43.7046928" lon="11.3034827"><ele>107.0</ele><time>2026-03-22T10:55:13.769Z</time></trkpt><trkpt lat="43.7047599" lon="11.3033848"><ele>106.99999999999999</ele><time>2026-03-22T10:55:14.77Z</time></trkpt><trkpt lat="43.704825" lon="11.3033003"><ele>107.0</ele><time>2026-03-22T10:55:15.771Z</time></trkpt><trkpt lat="43.7049025" lon="11.3031942"><ele>107.0</ele><time>2026-03-22T10:55:16.77Z</time></trkpt><trkpt lat="43.7049913" lon="11.3030945"><ele>106.99999999999999</ele><time>2026-03-22T10:55:17.77Z</time></trkpt><trkpt lat="43.705064" lon="11.3030112"><ele>106.99999999999999</ele><time>2026-03-22T10:55:18.771Z</time></trkpt><trkpt lat="43.7051126" lon="11.3029214"><ele>107.0</ele><time>2026-03-22T10:55:19.77Z</time></trkpt><trkpt lat="43.7051675" lon="11.3028307"><ele>107.0</ele><time>2026-03-22T10:55:20.77Z</time></trkpt><trkpt lat="43.7052181" lon="11.3027084"><ele>106.6</ele><time>2026-03-22T10:55:21.769Z</time></trkpt><trkpt lat="43.7052487" lon="11.3025844"><ele>106.19999999999999</ele><time>2026-03-22T10:55:22.77Z</time></trkpt><trkpt lat="43.7053029" lon="11.3024535"><ele>105.8</ele><time>2026-03-22T10:55:23.77Z</time></trkpt><trkpt lat="43.7053526" lon="11.3023299"><ele>105.4</ele><time>2026-03-22T10:55:24.77Z</time></trkpt><trkpt lat="43.7054018" lon="11.3021929"><ele>105.0</ele><time>2026-03-22T10:55:25.769Z</time></trkpt><trkpt lat="43.7053792" lon="11.3020858"><ele>105.0</ele><time>2026-03-22T10:55:26.769Z</time></trkpt><trkpt lat="43.7053879" lon="11.301965"><ele>105.0</ele><time>2026-03-22T10:55:27.771Z</time></trkpt><trkpt lat="43.7053869" lon="11.3018665"><ele>105.0</ele><time>2026-03-22T10:55:28.769Z</time></trkpt><trkpt lat="43.7054065" lon="11.3017785"><ele>105.0</ele><time>2026-03-22T10:55:29.769Z</time></trkpt><trkpt lat="43.7054651" lon="11.301684"><ele>105.0</ele><time>2026-03-22T10:55:30.77Z</time></trkpt><trkpt lat="43.7055109" lon="11.3015681"><ele>105.0</ele><time>2026-03-22T10:55:32.77Z</time></trkpt><trkpt lat="43.7055413" lon="11.3014757"><ele>105.0</ele><time>2026-03-22T10:55:34.77Z</time></trkpt><trkpt lat="43.705638" lon="11.301451"><ele>105.0</ele><time>2026-03-22T10:55:36.769Z</time></trkpt><trkpt lat="43.7057058" lon="11.3014005"><ele>105.0</ele><time>2026-03-22T10:55:38.77Z</time></trkpt><trkpt lat="43.7057759" lon="11.3013482"><ele>105.0</ele><time>2026-03-22T10:55:39.77Z</time></trkpt><trkpt lat="43.7058582" lon="11.3012861"><ele>105.0</ele><time>2026-03-22T10:55:40.769Z</time></trkpt><trkpt lat="43.7059305" lon="11.3012193"><ele>105.0</ele><time>2026-03-22T10:55:41.77Z</time></trkpt><trkpt lat="43.7060088" lon="11.3011753"><ele>105.66666666666667</ele><time>2026-03-22T10:55:42.77Z</time></trkpt><trkpt lat="43.7061249" lon="11.3011024"><ele>106.33333333333334</ele><time>2026-03-22T10:55:44.769Z</time></trkpt><trkpt lat="43.7061884" lon="11.3010572"><ele>107.0</ele><time>2026-03-22T10:55:45.769Z</time></trkpt><trkpt lat="43.7062506" lon="11.3009932"><ele>107.66666666666667</ele><time>2026-03-22T10:55:47.771Z</time></trkpt><trkpt lat="43.7063195" lon="11.3009711"><ele>108.33333333333334</ele><time>2026-03-22T10:55:49.771Z</time></trkpt><trkpt lat="43.7064053" lon="11.3009088"><ele>109.0</ele><time>2026-03-22T10:55:51.769Z</time></trkpt><trkpt lat="43.706501" lon="11.3009403"><ele>109.0</ele><time>2026-03-22T10:55:53.77Z</time></trkpt><trkpt lat="43.7065978" lon="11.3009499"><ele>109.0</ele><time>2026-03-22T10:55:55.77Z</time></trkpt><trkpt lat="43.7067364" lon="11.3009652"><ele>109.0</ele><time>2026-03-22T10:55:57.77Z</time></trkpt><trkpt lat="43.7068017" lon="11.3009698"><ele>109.0</ele><time>2026-03-22T10:55:58.771Z</time></trkpt><trkpt lat="43.7068814" lon="11.3009951"><ele>109.0</ele><time>2026-03-22T10:55:59.77Z</time></trkpt><trkpt lat="43.7070071" lon="11.3010568"><ele>107.83333333333334</ele><time>2026-03-22T10:56:01.771Z</time></trkpt><trkpt lat="43.7070911" lon="11.3010795"><ele>106.66666666666667</ele><time>2026-03-22T10:56:02.771Z</time></trkpt><trkpt lat="43.7071636" lon="11.3011105"><ele>105.5</ele><time>2026-03-22T10:56:03.77Z</time></trkpt><trkpt lat="43.7072371" lon="11.3011288"><ele>104.33333333333334</ele><time>2026-03-22T10:56:04.77Z</time></trkpt><trkpt lat="43.7073295" lon="11.3011186"><ele>103.16666666666667</ele><time>2026-03-22T10:56:05.77Z</time></trkpt><trkpt lat="43.7073008" lon="11.3009662"><ele>102.0</ele><time>2026-03-22T10:56:07.77Z</time></trkpt><trkpt lat="43.7074182" lon="11.3009643"><ele>102.0</ele><time>2026-03-22T10:56:10.771Z</time></trkpt><trkpt lat="43.7075005" lon="11.3009328"><ele>102.0</ele><time>2026-03-22T10:56:11.769Z</time></trkpt><trkpt lat="43.7075799" lon="11.3008879"><ele>102.0</ele><time>2026-03-22T10:56:12.77Z</time></trkpt><trkpt lat="43.7076459" lon="11.3007627"><ele>102.0</ele><time>2026-03-22T10:56:13.77Z</time></trkpt><trkpt lat="43.7077076" lon="11.3006386"><ele>102.0</ele><time>2026-03-22T10:56:14.77Z</time></trkpt><trkpt lat="43.7077718" lon="11.300468"><ele>101.0</ele><time>2026-03-22T10:56:15.77Z</time></trkpt><trkpt lat="43.7078434" lon="11.300284"><ele>100.0</ele><time>2026-03-22T10:56:16.771Z</time></trkpt><trkpt lat="43.70793" lon="11.3000821"><ele>99.0</ele><time>2026-03-22T10:56:17.77Z</time></trkpt><trkpt lat="43.7080048" lon="11.2998908"><ele>99.5</ele><time>2026-03-22T10:56:18.77Z</time></trkpt><trkpt lat="43.7080822" lon="11.2997088"><ele>100.0</ele><time>2026-03-22T10:56:19.77Z</time></trkpt><trkpt lat="43.7081588" lon="11.2995427"><ele>100.5</ele><time>2026-03-22T10:56:20.77Z</time></trkpt><trkpt lat="43.7082317" lon="11.2993866"><ele>101.0</ele><time>2026-03-22T10:56:21.77Z</time></trkpt><trkpt lat="43.7083011" lon="11.2992341"><ele>101.0</ele><time>2026-03-22T10:56:22.769Z</time></trkpt><trkpt lat="43.7083643" lon="11.2990918"><ele>101.0</ele><time>2026-03-22T10:56:23.769Z</time></trkpt><trkpt lat="43.7084196" lon="11.2989639"><ele>101.0</ele><time>2026-03-22T10:56:24.77Z</time></trkpt><trkpt lat="43.7084686" lon="11.2988585"><ele>101.0</ele><time>2026-03-22T10:56:25.77Z</time></trkpt><trkpt lat="43.7085163" lon="11.2987827"><ele>101.0</ele><time>2026-03-22T10:56:26.77Z</time></trkpt><trkpt lat="43.7085791" lon="11.2987405"><ele>100.19999999999999</ele><time>2026-03-22T10:56:27.77Z</time></trkpt><trkpt lat="43.70866" lon="11.2987368"><ele>99.39999999999999</ele><time>2026-03-22T10:56:28.771Z</time></trkpt><trkpt lat="43.70877" lon="11.2987268"><ele>98.6</ele><time>2026-03-22T10:56:29.771Z</time></trkpt><trkpt lat="43.7088798" lon="11.2987052"><ele>97.8</ele><time>2026-03-22T10:56:30.769Z</time></trkpt><trkpt lat="43.7090171" lon="11.2986739"><ele>97.0</ele><time>2026-03-22T10:56:31.769Z</time></trkpt><trkpt lat="43.7091335" lon="11.2986405"><ele>97.0</ele><time>2026-03-22T10:56:32.77Z</time></trkpt><trkpt lat="43.7092434" lon="11.2986112"><ele>97.0</ele><time>2026-03-22T10:56:33.77Z</time></trkpt><trkpt lat="43.7093689" lon="11.2986064"><ele>97.0</ele><time>2026-03-22T10:56:34.769Z</time></trkpt><trkpt lat="43.7094899" lon="11.2986242"><ele>97.0</ele><time>2026-03-22T10:56:35.771Z</time></trkpt><trkpt lat="43.7096036" lon="11.2986758"><ele>96.8</ele><time>2026-03-22T10:56:36.771Z</time></trkpt><trkpt lat="43.7097295" lon="11.2987494"><ele>96.6</ele><time>2026-03-22T10:56:37.77Z</time></trkpt><trkpt lat="43.7098366" lon="11.298813"><ele>96.39999999999999</ele><time>2026-03-22T10:56:38.77Z</time></trkpt><trkpt lat="43.7099292" lon="11.2988652"><ele>96.19999999999999</ele><time>2026-03-22T10:56:39.77Z</time></trkpt><trkpt lat="43.7100027" lon="11.2989054"><ele>96.0</ele><time>2026-03-22T10:56:40.77Z</time></trkpt><trkpt lat="43.7100819" lon="11.2989768"><ele>95.83333333333333</ele><time>2026-03-22T10:56:42.77Z</time></trkpt><trkpt lat="43.7101349" lon="11.2990402"><ele>95.66666666666667</ele><time>2026-03-22T10:56:44.769Z</time></trkpt><trkpt lat="43.7101283" lon="11.2991578"><ele>95.5</ele><time>2026-03-22T10:56:46.77Z</time></trkpt><trkpt lat="43.7101265" lon="11.2992507"><ele>95.33333333333334</ele><time>2026-03-22T10:56:47.771Z</time></trkpt><trkpt lat="43.7101705" lon="11.2993668"><ele>95.16666666666667</ele><time>2026-03-22T10:56:49.771Z</time></trkpt><trkpt lat="43.7102324" lon="11.2993886"><ele>95.0</ele><time>2026-03-22T10:56:50.77Z</time></trkpt><trkpt lat="43.7103013" lon="11.2994152"><ele>95.33333333333334</ele><time>2026-03-22T10:56:51.771Z</time></trkpt><trkpt lat="43.7103591" lon="11.299464"><ele>95.66666666666667</ele><time>2026-03-22T10:56:52.77Z</time></trkpt><trkpt lat="43.7104112" lon="11.2995161"><ele>96.0</ele><time>2026-03-22T10:56:53.77Z</time></trkpt><trkpt lat="43.7105183" lon="11.2995473"><ele>96.33333333333334</ele><time>2026-03-22T10:56:55.771Z</time></trkpt><trkpt lat="43.7105888" lon="11.2995435"><ele>96.66666666666667</ele><time>2026-03-22T10:56:56.771Z</time></trkpt><trkpt lat="43.710659" lon="11.2995332"><ele>97.0</ele><time>2026-03-22T10:56:57.771Z</time></trkpt><trkpt lat="43.7107322" lon="11.2995132"><ele>97.00000000000001</ele><time>2026-03-22T10:56:58.77Z</time></trkpt><trkpt lat="43.7108106" lon="11.2995048"><ele>97.0</ele><time>2026-03-22T10:56:59.769Z</time></trkpt><trkpt lat="43.710885" lon="11.2994789"><ele>97.0</ele><time>2026-03-22T10:57:00.769Z</time></trkpt><trkpt lat="43.7109631" lon="11.299446"><ele>97.0</ele><time>2026-03-22T10:57:01.77Z</time></trkpt><trkpt lat="43.7110347" lon="11.299405"><ele>97.00000000000001</ele><time>2026-03-22T10:57:02.769Z</time></trkpt><trkpt lat="43.7111081" lon="11.2993604"><ele>97.0</ele><time>2026-03-22T10:57:03.771Z</time></trkpt><trkpt lat="43.7111695" lon="11.2993266"><ele>97.16666666666667</ele><time>2026-03-22T10:57:04.769Z</time></trkpt><trkpt lat="43.7112387" lon="11.299298"><ele>97.33333333333334</ele><time>2026-03-22T10:57:05.769Z</time></trkpt><trkpt lat="43.7113242" lon="11.2992932"><ele>97.5</ele><time>2026-03-22T10:57:07.769Z</time></trkpt><trkpt lat="43.7113977" lon="11.2992825"><ele>97.66666666666666</ele><time>2026-03-22T10:57:09.769Z</time></trkpt><trkpt lat="43.7115013" lon="11.2991724"><ele>97.83333333333333</ele><time>2026-03-22T10:57:11.77Z</time></trkpt><trkpt lat="43.711565" lon="11.2991197"><ele>98.0</ele><time>2026-03-22T10:57:12.771Z</time></trkpt><trkpt lat="43.7116341" lon="11.2990721"><ele>97.99999999999999</ele><time>2026-03-22T10:57:13.769Z</time></trkpt><trkpt lat="43.7117116" lon="11.2990349"><ele>98.0</ele><time>2026-03-22T10:57:14.77Z</time></trkpt><trkpt lat="43.7117749" lon="11.2990091"><ele>98.0</ele><time>2026-03-22T10:57:15.77Z</time></trkpt><trkpt lat="43.7118495" lon="11.2989455"><ele>98.0</ele><time>2026-03-22T10:57:17.77Z</time></trkpt><trkpt lat="43.7119173" lon="11.2989124"><ele>97.99999999999999</ele><time>2026-03-22T10:57:18.77Z</time></trkpt><trkpt lat="43.7119936" lon="11.2988686"><ele>98.0</ele><time>2026-03-22T10:57:19.769Z</time></trkpt><trkpt lat="43.7120611" lon="11.2988294"><ele>98.16666666666666</ele><time>2026-03-22T10:57:20.77Z</time></trkpt><trkpt lat="43.7121301" lon="11.2987966"><ele>98.33333333333333</ele><time>2026-03-22T10:57:21.771Z</time></trkpt><trkpt lat="43.7121988" lon="11.2987565"><ele>98.5</ele><time>2026-03-22T10:57:22.769Z</time></trkpt><trkpt lat="43.7122814" lon="11.2987032"><ele>98.66666666666666</ele><time>2026-03-22T10:57:23.77Z</time></trkpt><trkpt lat="43.7123471" lon="11.2986767"><ele>98.83333333333333</ele><time>2026-03-22T10:57:24.769Z</time></trkpt><trkpt lat="43.7124392" lon="11.2986542"><ele>99.0</ele><time>2026-03-22T10:57:26.77Z</time></trkpt><trkpt lat="43.7125594" lon="11.2986153"><ele>99.0</ele><time>2026-03-22T10:57:28.77Z</time></trkpt><trkpt lat="43.7126446" lon="11.2985808"><ele>99.0</ele><time>2026-03-22T10:57:30.769Z</time></trkpt><trkpt lat="43.7127113" lon="11.2985645"><ele>99.0</ele><time>2026-03-22T10:57:46.77Z</time></trkpt><trkpt lat="43.7127961" lon="11.298539"><ele>99.0</ele><time>2026-03-22T10:57:52.769Z</time></trkpt><trkpt lat="43.7129175" lon="11.2985038"><ele>99.0</ele><time>2026-03-22T10:57:54.77Z</time></trkpt><trkpt lat="43.7130045" lon="11.2984762"><ele>98.5</ele><time>2026-03-22T10:57:55.771Z</time></trkpt><trkpt lat="43.7131108" lon="11.2984487"><ele>98.0</ele><time>2026-03-22T10:57:56.769Z</time></trkpt><trkpt lat="43.7132449" lon="11.2984079"><ele>97.5</ele><time>2026-03-22T10:57:57.77Z</time></trkpt><trkpt lat="43.7133841" lon="11.2983624"><ele>97.0</ele><time>2026-03-22T10:57:58.77Z</time></trkpt><trkpt lat="43.7135121" lon="11.2983127"><ele>98.25</ele><time>2026-03-22T10:57:59.771Z</time></trkpt><trkpt lat="43.7136293" lon="11.2982755"><ele>99.5</ele><time>2026-03-22T10:58:00.77Z</time></trkpt><trkpt lat="43.7137357" lon="11.2982459"><ele>100.75</ele><time>2026-03-22T10:58:01.771Z</time></trkpt><trkpt lat="43.7138423" lon="11.2982256"><ele>102.0</ele><time>2026-03-22T10:58:02.769Z</time></trkpt><trkpt lat="43.7139614" lon="11.2982266"><ele>102.0</ele><time>2026-03-22T10:58:03.769Z</time></trkpt><trkpt lat="43.7140846" lon="11.2982288"><ele>102.0</ele><time>2026-03-22T10:58:04.77Z</time></trkpt><trkpt lat="43.7142074" lon="11.2982388"><ele>102.0</ele><time>2026-03-22T10:58:05.77Z</time></trkpt><trkpt lat="43.7143293" lon="11.2982612"><ele>102.0</ele><time>2026-03-22T10:58:06.77Z</time></trkpt><trkpt lat="43.7144469" lon="11.2982828"><ele>101.6</ele><time>2026-03-22T10:58:07.77Z</time></trkpt><trkpt lat="43.7145649" lon="11.2983041"><ele>101.19999999999999</ele><time>2026-03-22T10:58:08.77Z</time></trkpt><trkpt lat="43.714658" lon="11.2983023"><ele>100.8</ele><time>2026-03-22T10:58:09.77Z</time></trkpt><trkpt lat="43.7147667" lon="11.2983071"><ele>100.4</ele><time>2026-03-22T10:58:10.77Z</time></trkpt><trkpt lat="43.7148759" lon="11.2983164"><ele>100.0</ele><time>2026-03-22T10:58:11.769Z</time></trkpt><trkpt lat="43.7149928" lon="11.2983322"><ele>100.0</ele><time>2026-03-22T10:58:12.769Z</time></trkpt><trkpt lat="43.7151017" lon="11.298344"><ele>100.0</ele><time>2026-03-22T10:58:13.769Z</time></trkpt><trkpt lat="43.7152084" lon="11.2983607"><ele>100.0</ele><time>2026-03-22T10:58:14.769Z</time></trkpt><trkpt lat="43.7153189" lon="11.2983815"><ele>100.0</ele><time>2026-03-22T10:58:15.77Z</time></trkpt><trkpt lat="43.7154171" lon="11.2984014"><ele>100.0</ele><time>2026-03-22T10:58:16.771Z</time></trkpt><trkpt lat="43.7155078" lon="11.2984247"><ele>100.00000000000001</ele><time>2026-03-22T10:58:17.77Z</time></trkpt><trkpt lat="43.7155918" lon="11.2984653"><ele>100.0</ele><time>2026-03-22T10:58:18.771Z</time></trkpt><trkpt lat="43.7156782" lon="11.2985143"><ele>100.0</ele><time>2026-03-22T10:58:19.77Z</time></trkpt><trkpt lat="43.7157477" lon="11.298577"><ele>100.0</ele><time>2026-03-22T10:58:20.77Z</time></trkpt><trkpt lat="43.7158311" lon="11.2986339"><ele>100.00000000000001</ele><time>2026-03-22T10:58:21.77Z</time></trkpt><trkpt lat="43.715898" lon="11.2986848"><ele>100.0</ele><time>2026-03-22T10:58:22.769Z</time></trkpt><trkpt lat="43.7159637" lon="11.298736"><ele>100.0</ele><time>2026-03-22T10:58:23.769Z</time></trkpt><trkpt lat="43.716008" lon="11.2988706"><ele>100.0</ele><time>2026-03-22T10:58:25.77Z</time></trkpt><trkpt lat="43.7160137" lon="11.2989771"><ele>100.0</ele><time>2026-03-22T10:58:27.769Z</time></trkpt><trkpt lat="43.7160955" lon="11.2990489"><ele>100.0</ele><time>2026-03-22T10:58:30.77Z</time></trkpt><trkpt lat="43.716167" lon="11.2990524"><ele>100.0</ele><time>2026-03-22T10:58:31.769Z</time></trkpt><trkpt lat="43.71627" lon="11.2990481"><ele>99.0</ele><time>2026-03-22T10:58:32.769Z</time></trkpt><trkpt lat="43.7163911" lon="11.2990477"><ele>98.0</ele><time>2026-03-22T10:58:33.769Z</time></trkpt><trkpt lat="43.7165359" lon="11.2990622"><ele>97.0</ele><time>2026-03-22T10:58:34.77Z</time></trkpt><trkpt lat="43.7166925" lon="11.2991109"><ele>96.0</ele><time>2026-03-22T10:58:35.769Z</time></trkpt><trkpt lat="43.7168489" lon="11.2991903"><ele>95.66666666666667</ele><time>2026-03-22T10:58:36.77Z</time></trkpt><trkpt lat="43.7170093" lon="11.2993072"><ele>95.33333333333334</ele><time>2026-03-22T10:58:37.77Z</time></trkpt><trkpt lat="43.7171491" lon="11.2994322"><ele>95.0</ele><time>2026-03-22T10:58:38.77Z</time></trkpt><trkpt lat="43.7172619" lon="11.2995678"><ele>95.0</ele><time>2026-03-22T10:58:39.771Z</time></trkpt><trkpt lat="43.7173603" lon="11.2997029"><ele>95.0</ele><time>2026-03-22T10:58:40.769Z</time></trkpt><trkpt lat="43.7174518" lon="11.2998218"><ele>95.0</ele><time>2026-03-22T10:58:41.769Z</time></trkpt><trkpt lat="43.7175394" lon="11.2999141"><ele>95.0</ele><time>2026-03-22T10:58:42.77Z</time></trkpt><trkpt lat="43.7176281" lon="11.2999806"><ele>95.2</ele><time>2026-03-22T10:58:43.77Z</time></trkpt><trkpt lat="43.7177141" lon="11.2999984"><ele>95.4</ele><time>2026-03-22T10:58:44.77Z</time></trkpt><trkpt lat="43.7177984" lon="11.2999705"><ele>95.6</ele><time>2026-03-22T10:58:45.769Z</time></trkpt><trkpt lat="43.7178833" lon="11.2998988"><ele>95.8</ele><time>2026-03-22T10:58:46.77Z</time></trkpt><trkpt lat="43.7179923" lon="11.2997929"><ele>96.0</ele><time>2026-03-22T10:58:47.77Z</time></trkpt><trkpt lat="43.7181221" lon="11.2996975"><ele>96.0</ele><time>2026-03-22T10:58:48.769Z</time></trkpt><trkpt lat="43.7182741" lon="11.2996017"><ele>96.0</ele><time>2026-03-22T10:58:49.769Z</time></trkpt><trkpt lat="43.7184423" lon="11.2995217"><ele>96.0</ele><time>2026-03-22T10:58:50.769Z</time></trkpt><trkpt lat="43.7186272" lon="11.2994612"><ele>97.66666666666666</ele><time>2026-03-22T10:58:51.77Z</time></trkpt><trkpt lat="43.7188137" lon="11.2994202"><ele>99.33333333333333</ele><time>2026-03-22T10:58:52.769Z</time></trkpt><trkpt lat="43.7190055" lon="11.2993727"><ele>101.0</ele><time>2026-03-22T10:58:53.769Z</time></trkpt><trkpt lat="43.7191904" lon="11.2993439"><ele>99.5</ele><time>2026-03-22T10:58:54.771Z</time></trkpt><trkpt lat="43.7194143" lon="11.2993955"><ele>98.0</ele><time>2026-03-22T10:58:55.77Z</time></trkpt><trkpt lat="43.7196704" lon="11.2995665"><ele>98.0</ele><time>2026-03-22T10:58:56.77Z</time></trkpt><trkpt lat="43.7199368" lon="11.299708"><ele>98.0</ele><time>2026-03-22T10:58:57.769Z</time></trkpt><trkpt lat="43.7201573" lon="11.2998059"><ele>101.0</ele><time>2026-03-22T10:58:58.77Z</time></trkpt><trkpt lat="43.7203781" lon="11.2998811"><ele>104.0</ele><time>2026-03-22T10:58:59.771Z</time></trkpt><trkpt lat="43.7205968" lon="11.2999337"><ele>107.0</ele><time>2026-03-22T10:59:00.77Z</time></trkpt><trkpt lat="43.7208112" lon="11.2999643"><ele>107.0</ele><time>2026-03-22T10:59:01.77Z</time></trkpt><trkpt lat="43.7210278" lon="11.2999682"><ele>107.0</ele><time>2026-03-22T10:59:02.771Z</time></trkpt><trkpt lat="43.7212406" lon="11.2999474"><ele>107.0</ele><time>2026-03-22T10:59:03.771Z</time></trkpt><trkpt lat="43.7214518" lon="11.2999114"><ele>107.0</ele><time>2026-03-22T10:59:04.77Z</time></trkpt><trkpt lat="43.7216613" lon="11.2998576"><ele>107.0</ele><time>2026-03-22T10:59:05.77Z</time></trkpt><trkpt lat="43.7218739" lon="11.2997962"><ele>107.0</ele><time>2026-03-22T10:59:06.769Z</time></trkpt><trkpt lat="43.7220834" lon="11.2997279"><ele>107.0</ele><time>2026-03-22T10:59:07.769Z</time></trkpt><trkpt lat="43.7222927" lon="11.2996761"><ele>107.0</ele><time>2026-03-22T10:59:08.77Z</time></trkpt><trkpt lat="43.7224963" lon="11.2996443"><ele>107.0</ele><time>2026-03-22T10:59:09.769Z</time></trkpt><trkpt lat="43.7226953" lon="11.2996379"><ele>108.0</ele><time>2026-03-22T10:59:10.769Z</time></trkpt><trkpt lat="43.7228916" lon="11.2996542"><ele>109.0</ele><time>2026-03-22T10:59:11.769Z</time></trkpt><trkpt lat="43.723083" lon="11.2996995"><ele>110.0</ele><time>2026-03-22T10:59:12.771Z</time></trkpt><trkpt lat="43.7232811" lon="11.2997417"><ele>110.33333333333333</ele><time>2026-03-22T10:59:13.77Z</time></trkpt><trkpt lat="43.7234803" lon="11.2998136"><ele>110.66666666666666</ele><time>2026-03-22T10:59:14.771Z</time></trkpt><trkpt lat="43.7236745" lon="11.2998733"><ele>111.0</ele><time>2026-03-22T10:59:15.77Z</time></trkpt><trkpt lat="43.7238523" lon="11.2999575"><ele>111.0</ele><time>2026-03-22T10:59:16.77Z</time></trkpt><trkpt lat="43.7240437" lon="11.3000364"><ele>111.0</ele><time>2026-03-22T10:59:17.77Z</time></trkpt><trkpt lat="43.7242107" lon="11.3001387"><ele>111.0</ele><time>2026-03-22T10:59:18.77Z</time></trkpt><trkpt lat="43.7241931" lon="11.3005479"><ele>112.66666666666666</ele><time>2026-03-22T10:59:19.77Z</time></trkpt><trkpt lat="43.7243003" lon="11.3008395"><ele>114.33333333333333</ele><time>2026-03-22T10:59:20.77Z</time></trkpt><trkpt lat="43.7243863" lon="11.3011077"><ele>116.0</ele><time>2026-03-22T10:59:21.771Z</time></trkpt><trkpt lat="43.7244608" lon="11.3013665"><ele>114.0</ele><time>2026-03-22T10:59:22.771Z</time></trkpt><trkpt lat="43.7245473" lon="11.3016148"><ele>112.0</ele><time>2026-03-22T10:59:23.771Z</time></trkpt><trkpt lat="43.7246251" lon="11.3018689"><ele>110.0</ele><time>2026-03-22T10:59:24.769Z</time></trkpt><trkpt lat="43.7247048" lon="11.3021252"><ele>112.33333333333333</ele><time>2026-03-22T10:59:25.771Z</time></trkpt><trkpt lat="43.7247816" lon="11.3023758"><ele>114.66666666666666</ele><time>2026-03-22T10:59:26.769Z</time></trkpt><trkpt lat="43.7248637" lon="11.3026161"><ele>117.0</ele><time>2026-03-22T10:59:27.77Z</time></trkpt><trkpt lat="43.7249467" lon="11.3028548"><ele>117.66666666666666</ele><time>2026-03-22T10:59:28.77Z</time></trkpt><trkpt lat="43.7250387" lon="11.3030866"><ele>118.33333333333333</ele><time>2026-03-22T10:59:29.769Z</time></trkpt><trkpt lat="43.7251391" lon="11.3033085"><ele>119.0</ele><time>2026-03-22T10:59:30.77Z</time></trkpt><trkpt lat="43.7252459" lon="11.3035196"><ele>116.66666666666666</ele><time>2026-03-22T10:59:31.77Z</time></trkpt><trkpt lat="43.7253695" lon="11.3037126"><ele>114.33333333333334</ele><time>2026-03-22T10:59:32.771Z</time></trkpt><trkpt lat="43.7255051" lon="11.3038891"><ele>112.0</ele><time>2026-03-22T10:59:33.769Z</time></trkpt><trkpt lat="43.7256542" lon="11.3040451"><ele>112.0</ele><time>2026-03-22T10:59:34.769Z</time></trkpt><trkpt lat="43.7258126" lon="11.3041783"><ele>112.0</ele><time>2026-03-22T10:59:35.769Z</time></trkpt><trkpt lat="43.7259798" lon="11.3042815"><ele>112.0</ele><time>2026-03-22T10:59:36.77Z</time></trkpt><trkpt lat="43.7261517" lon="11.3043586"><ele>114.33333333333334</ele><time>2026-03-22T10:59:37.769Z</time></trkpt><trkpt lat="43.7263284" lon="11.3044111"><ele>116.66666666666666</ele><time>2026-03-22T10:59:38.77Z</time></trkpt><trkpt lat="43.7265097" lon="11.3044358"><ele>119.0</ele><time>2026-03-22T10:59:39.769Z</time></trkpt><trkpt lat="43.7266938" lon="11.3044313"><ele>119.0</ele><time>2026-03-22T10:59:40.769Z</time></trkpt><trkpt lat="43.7268731" lon="11.3043951"><ele>119.0</ele><time>2026-03-22T10:59:41.77Z</time></trkpt><trkpt lat="43.7270489" lon="11.304328"><ele>119.0</ele><time>2026-03-22T10:59:42.77Z</time></trkpt><trkpt lat="43.7272153" lon="11.3042379"><ele>122.0</ele><time>2026-03-22T10:59:43.77Z</time></trkpt><trkpt lat="43.727378" lon="11.3041282"><ele>125.0</ele><time>2026-03-22T10:59:44.77Z</time></trkpt><trkpt lat="43.7275231" lon="11.3040028"><ele>128.0</ele><time>2026-03-22T10:59:45.769Z</time></trkpt><trkpt lat="43.7276431" lon="11.3038866"><ele>129.5</ele><time>2026-03-22T10:59:46.769Z</time></trkpt><trkpt lat="43.7277483" lon="11.3037963"><ele>131.0</ele><time>2026-03-22T10:59:47.77Z</time></trkpt><trkpt lat="43.7278449" lon="11.3037255"><ele>132.5</ele><time>2026-03-22T10:59:48.77Z</time></trkpt><trkpt lat="43.7279427" lon="11.3036601"><ele>134.0</ele><time>2026-03-22T10:59:49.769Z</time></trkpt><trkpt lat="43.7280418" lon="11.3035819"><ele>134.0</ele><time>2026-03-22T10:59:50.769Z</time></trkpt><trkpt lat="43.7281268" lon="11.3034681"><ele>134.0</ele><time>2026-03-22T10:59:51.769Z</time></trkpt><trkpt lat="43.7282037" lon="11.303318"><ele>134.0</ele><time>2026-03-22T10:59:52.769Z</time></trkpt><trkpt lat="43.728273" lon="11.3031432"><ele>134.0</ele><time>2026-03-22T10:59:53.769Z</time></trkpt><trkpt lat="43.7283579" lon="11.3029455"><ele>134.0</ele><time>2026-03-22T10:59:54.77Z</time></trkpt><trkpt lat="43.7284366" lon="11.3027436"><ele>134.0</ele><time>2026-03-22T10:59:55.769Z</time></trkpt><trkpt lat="43.7285087" lon="11.3025209"><ele>134.0</ele><time>2026-03-22T10:59:56.769Z</time></trkpt><trkpt lat="43.728572" lon="11.3022905"><ele>130.0</ele><time>2026-03-22T10:59:57.769Z</time></trkpt><trkpt lat="43.7286285" lon="11.3020549"><ele>126.0</ele><time>2026-03-22T10:59:58.769Z</time></trkpt><trkpt lat="43.7286814" lon="11.3018186"><ele>122.0</ele><time>2026-03-22T10:59:59.769Z</time></trkpt><trkpt lat="43.7287304" lon="11.3015749"><ele>121.66666666666666</ele><time>2026-03-22T11:00:00.769Z</time></trkpt><trkpt lat="43.7287805" lon="11.3013277"><ele>121.33333333333334</ele><time>2026-03-22T11:00:01.769Z</time></trkpt><trkpt lat="43.7288341" lon="11.3010796"><ele>121.0</ele><time>2026-03-22T11:00:02.769Z</time></trkpt><trkpt lat="43.7288919" lon="11.3008322"><ele>121.0</ele><time>2026-03-22T11:00:03.77Z</time></trkpt><trkpt lat="43.7289598" lon="11.3005879"><ele>121.0</ele><time>2026-03-22T11:00:04.77Z</time></trkpt><trkpt lat="43.7290356" lon="11.3003647"><ele>121.0</ele><time>2026-03-22T11:00:05.771Z</time></trkpt><trkpt lat="43.7291217" lon="11.3001523"><ele>121.0</ele><time>2026-03-22T11:00:06.77Z</time></trkpt><trkpt lat="43.7292225" lon="11.2999413"><ele>121.0</ele><time>2026-03-22T11:00:07.769Z</time></trkpt><trkpt lat="43.7293379" lon="11.299742"><ele>121.0</ele><time>2026-03-22T11:00:08.77Z</time></trkpt><trkpt lat="43.7294642" lon="11.2995586"><ele>117.0</ele><time>2026-03-22T11:00:09.77Z</time></trkpt><trkpt lat="43.7296043" lon="11.2993912"><ele>113.0</ele><time>2026-03-22T11:00:10.771Z</time></trkpt><trkpt lat="43.7297502" lon="11.2992346"><ele>109.0</ele><time>2026-03-22T11:00:11.769Z</time></trkpt><trkpt lat="43.7299026" lon="11.2990895"><ele>109.0</ele><time>2026-03-22T11:00:12.769Z</time></trkpt><trkpt lat="43.7300525" lon="11.2989489"><ele>109.0</ele><time>2026-03-22T11:00:13.769Z</time></trkpt><trkpt lat="43.7301966" lon="11.2988018"><ele>109.0</ele><time>2026-03-22T11:00:14.77Z</time></trkpt><trkpt lat="43.7303322" lon="11.2986401"><ele>104.0</ele><time>2026-03-22T11:00:15.77Z</time></trkpt><trkpt lat="43.730454" lon="11.2984704"><ele>99.0</ele><time>2026-03-22T11:00:16.769Z</time></trkpt><trkpt lat="43.7305643" lon="11.2982969"><ele>94.0</ele><time>2026-03-22T11:00:17.77Z</time></trkpt><trkpt lat="43.7306674" lon="11.2981191"><ele>97.0</ele><time>2026-03-22T11:00:18.77Z</time></trkpt><trkpt lat="43.7307676" lon="11.2979371"><ele>100.0</ele><time>2026-03-22T11:00:19.769Z</time></trkpt><trkpt lat="43.7308727" lon="11.2977546"><ele>103.0</ele><time>2026-03-22T11:00:20.77Z</time></trkpt><trkpt lat="43.7309809" lon="11.297576"><ele>98.0</ele><time>2026-03-22T11:00:21.771Z</time></trkpt><trkpt lat="43.7310954" lon="11.2974043"><ele>93.0</ele><time>2026-03-22T11:00:22.77Z</time></trkpt><trkpt lat="43.7312174" lon="11.2972471"><ele>88.0</ele><time>2026-03-22T11:00:23.77Z</time></trkpt><trkpt lat="43.7313443" lon="11.2971074"><ele>88.0</ele><time>2026-03-22T11:00:24.77Z</time></trkpt><trkpt lat="43.7314803" lon="11.2969934"><ele>88.0</ele><time>2026-03-22T11:00:25.77Z</time></trkpt><trkpt lat="43.7316314" lon="11.2969016"><ele>88.0</ele><time>2026-03-22T11:00:26.77Z</time></trkpt><trkpt lat="43.7317899" lon="11.2968342"><ele>87.66666666666666</ele><time>2026-03-22T11:00:27.77Z</time></trkpt><trkpt lat="43.7319588" lon="11.296795"><ele>87.33333333333333</ele><time>2026-03-22T11:00:28.77Z</time></trkpt><trkpt lat="43.732133" lon="11.2967869"><ele>87.0</ele><time>2026-03-22T11:00:29.769Z</time></trkpt><trkpt lat="43.7323062" lon="11.296808"><ele>87.0</ele><time>2026-03-22T11:00:30.769Z</time></trkpt><trkpt lat="43.732475" lon="11.2968588"><ele>87.0</ele><time>2026-03-22T11:00:31.769Z</time></trkpt><trkpt lat="43.732639" lon="11.2969368"><ele>87.0</ele><time>2026-03-22T11:00:32.769Z</time></trkpt><trkpt lat="43.7327928" lon="11.2970333"><ele>86.75</ele><time>2026-03-22T11:00:33.77Z</time></trkpt><trkpt lat="43.7329315" lon="11.2971344"><ele>86.5</ele><time>2026-03-22T11:00:34.769Z</time></trkpt><trkpt lat="43.7330594" lon="11.297229"><ele>86.25</ele><time>2026-03-22T11:00:35.769Z</time></trkpt><trkpt lat="43.7331763" lon="11.2973164"><ele>86.0</ele><time>2026-03-22T11:00:36.769Z</time></trkpt><trkpt lat="43.7332779" lon="11.2973966"><ele>86.0</ele><time>2026-03-22T11:00:37.77Z</time></trkpt><trkpt lat="43.7333734" lon="11.2974779"><ele>86.0</ele><time>2026-03-22T11:00:38.771Z</time></trkpt><trkpt lat="43.733463" lon="11.2975629"><ele>86.0</ele><time>2026-03-22T11:00:39.769Z</time></trkpt><trkpt lat="43.7335396" lon="11.297647"><ele>86.0</ele><time>2026-03-22T11:00:40.769Z</time></trkpt><trkpt lat="43.7335966" lon="11.2977268"><ele>86.0</ele><time>2026-03-22T11:00:41.769Z</time></trkpt><trkpt lat="43.7336571" lon="11.2978396"><ele>86.0</ele><time>2026-03-22T11:00:43.771Z</time></trkpt><trkpt lat="43.7337053" lon="11.2979816"><ele>86.0</ele><time>2026-03-22T11:00:46.77Z</time></trkpt><trkpt lat="43.7337664" lon="11.298107"><ele>86.0</ele><time>2026-03-22T11:00:48.77Z</time></trkpt><trkpt lat="43.73386" lon="11.298163"><ele>86.0</ele><time>2026-03-22T11:00:50.77Z</time></trkpt><trkpt lat="43.7339722" lon="11.2981131"><ele>86.0</ele><time>2026-03-22T11:00:52.769Z</time></trkpt><trkpt lat="43.7340264" lon="11.2980504"><ele>86.0</ele><time>2026-03-22T11:00:53.77Z</time></trkpt><trkpt lat="43.7340888" lon="11.2979642"><ele>86.0</ele><time>2026-03-22T11:00:54.77Z</time></trkpt><trkpt lat="43.7341561" lon="11.29787"><ele>86.0</ele><time>2026-03-22T11:00:55.771Z</time></trkpt><trkpt lat="43.734233" lon="11.2977769"><ele>86.0</ele><time>2026-03-22T11:00:56.769Z</time></trkpt><trkpt lat="43.7343087" lon="11.297694"><ele>86.0</ele><time>2026-03-22T11:00:57.769Z</time></trkpt><trkpt lat="43.7343833" lon="11.2976115"><ele>86.0</ele><time>2026-03-22T11:00:58.769Z</time></trkpt><trkpt lat="43.7344579" lon="11.2975297"><ele>86.0</ele><time>2026-03-22T11:00:59.77Z</time></trkpt><trkpt lat="43.734538" lon="11.2974541"><ele>86.0</ele><time>2026-03-22T11:01:00.77Z</time></trkpt><trkpt lat="43.7346224" lon="11.2973824"><ele>86.0</ele><time>2026-03-22T11:01:01.769Z</time></trkpt><trkpt lat="43.7347084" lon="11.297304"><ele>86.0</ele><time>2026-03-22T11:01:02.769Z</time></trkpt><trkpt lat="43.7347905" lon="11.2972255"><ele>86.0</ele><time>2026-03-22T11:01:03.77Z</time></trkpt><trkpt lat="43.7348686" lon="11.2971482"><ele>86.0</ele><time>2026-03-22T11:01:04.77Z</time></trkpt><trkpt lat="43.7349456" lon="11.2970759"><ele>86.0</ele><time>2026-03-22T11:01:05.77Z</time></trkpt><trkpt lat="43.7350183" lon="11.2970111"><ele>86.0</ele><time>2026-03-22T11:01:06.769Z</time></trkpt><trkpt lat="43.7350909" lon="11.2969471"><ele>86.0</ele><time>2026-03-22T11:01:07.771Z</time></trkpt><trkpt lat="43.7351693" lon="11.2968723"><ele>86.19999999999999</ele><time>2026-03-22T11:01:08.77Z</time></trkpt><trkpt lat="43.7352531" lon="11.2968016"><ele>86.39999999999999</ele><time>2026-03-22T11:01:09.77Z</time></trkpt><trkpt lat="43.7353466" lon="11.2967367"><ele>86.6</ele><time>2026-03-22T11:01:10.77Z</time></trkpt><trkpt lat="43.735443" lon="11.2966759"><ele>86.8</ele><time>2026-03-22T11:01:11.77Z</time></trkpt><trkpt lat="43.735541" lon="11.2966355"><ele>87.0</ele><time>2026-03-22T11:01:12.77Z</time></trkpt><trkpt lat="43.7356563" lon="11.2966132"><ele>87.0</ele><time>2026-03-22T11:01:13.77Z</time></trkpt><trkpt lat="43.7357671" lon="11.2966015"><ele>87.0</ele><time>2026-03-22T11:01:14.769Z</time></trkpt><trkpt lat="43.7358794" lon="11.2965929"><ele>87.0</ele><time>2026-03-22T11:01:15.77Z</time></trkpt><trkpt lat="43.7359798" lon="11.2965977"><ele>87.0</ele><time>2026-03-22T11:01:16.769Z</time></trkpt><trkpt lat="43.7360704" lon="11.2966172"><ele>87.0</ele><time>2026-03-22T11:01:17.77Z</time></trkpt><trkpt lat="43.7361553" lon="11.296636"><ele>86.8</ele><time>2026-03-22T11:01:18.769Z</time></trkpt><trkpt lat="43.7362379" lon="11.2966764"><ele>86.6</ele><time>2026-03-22T11:01:19.77Z</time></trkpt><trkpt lat="43.7363295" lon="11.2967181"><ele>86.39999999999999</ele><time>2026-03-22T11:01:20.77Z</time></trkpt><trkpt lat="43.7364181" lon="11.2967361"><ele>86.19999999999999</ele><time>2026-03-22T11:01:21.771Z</time></trkpt><trkpt lat="43.7365124" lon="11.2967773"><ele>86.0</ele><time>2026-03-22T11:01:22.77Z</time></trkpt><trkpt lat="43.7366224" lon="11.2966839"><ele>86.0</ele><time>2026-03-22T11:01:24.769Z</time></trkpt><trkpt lat="43.7366727" lon="11.2965777"><ele>86.0</ele><time>2026-03-22T11:01:25.77Z</time></trkpt><trkpt lat="43.7367215" lon="11.2964123"><ele>86.0</ele><time>2026-03-22T11:01:26.77Z</time></trkpt><trkpt lat="43.7367681" lon="11.2962552"><ele>86.0</ele><time>2026-03-22T11:01:27.769Z</time></trkpt><trkpt lat="43.7368194" lon="11.296115"><ele>85.6</ele><time>2026-03-22T11:01:28.769Z</time></trkpt><trkpt lat="43.7368572" lon="11.2959957"><ele>85.19999999999999</ele><time>2026-03-22T11:01:29.769Z</time></trkpt><trkpt lat="43.7368813" lon="11.2958817"><ele>84.80000000000001</ele><time>2026-03-22T11:01:30.77Z</time></trkpt><trkpt lat="43.7369086" lon="11.2957598"><ele>84.4</ele><time>2026-03-22T11:01:31.769Z</time></trkpt><trkpt lat="43.7369441" lon="11.295645"><ele>84.0</ele><time>2026-03-22T11:01:32.769Z</time></trkpt><trkpt lat="43.7370057" lon="11.2955287"><ele>82.75</ele><time>2026-03-22T11:01:33.769Z</time></trkpt><trkpt lat="43.7370852" lon="11.2954329"><ele>81.5</ele><time>2026-03-22T11:01:34.771Z</time></trkpt><trkpt lat="43.737191" lon="11.2953327"><ele>80.25</ele><time>2026-03-22T11:01:35.77Z</time></trkpt><trkpt lat="43.737327" lon="11.2952164"><ele>79.0</ele><time>2026-03-22T11:01:36.77Z</time></trkpt><trkpt lat="43.7374627" lon="11.2950614"><ele>79.0</ele><time>2026-03-22T11:01:37.77Z</time></trkpt><trkpt lat="43.737593" lon="11.2948744"><ele>79.0</ele><time>2026-03-22T11:01:38.769Z</time></trkpt><trkpt lat="43.7377149" lon="11.2946546"><ele>79.0</ele><time>2026-03-22T11:01:39.77Z</time></trkpt><trkpt lat="43.7378168" lon="11.2944301"><ele>79.0</ele><time>2026-03-22T11:01:40.769Z</time></trkpt><trkpt lat="43.7378983" lon="11.2942029"><ele>79.0</ele><time>2026-03-22T11:01:41.769Z</time></trkpt><trkpt lat="43.7379591" lon="11.2939924"><ele>79.0</ele><time>2026-03-22T11:01:42.769Z</time></trkpt><trkpt lat="43.7380061" lon="11.2938106"><ele>79.2</ele><time>2026-03-22T11:01:43.769Z</time></trkpt><trkpt lat="43.7380403" lon="11.2936621"><ele>79.4</ele><time>2026-03-22T11:01:44.77Z</time></trkpt><trkpt lat="43.7380682" lon="11.2935392"><ele>79.6</ele><time>2026-03-22T11:01:45.77Z</time></trkpt><trkpt lat="43.738092" lon="11.293413"><ele>79.8</ele><time>2026-03-22T11:01:46.769Z</time></trkpt><trkpt lat="43.7381177" lon="11.2932597"><ele>80.0</ele><time>2026-03-22T11:01:47.77Z</time></trkpt><trkpt lat="43.7381416" lon="11.2930952"><ele>80.0</ele><time>2026-03-22T11:01:48.77Z</time></trkpt><trkpt lat="43.7381691" lon="11.2929085"><ele>80.0</ele><time>2026-03-22T11:01:49.769Z</time></trkpt><trkpt lat="43.7382058" lon="11.2927142"><ele>80.0</ele><time>2026-03-22T11:01:50.769Z</time></trkpt><trkpt lat="43.7382409" lon="11.2925205"><ele>80.0</ele><time>2026-03-22T11:01:51.769Z</time></trkpt><trkpt lat="43.7382734" lon="11.2923381"><ele>80.4</ele><time>2026-03-22T11:01:52.77Z</time></trkpt><trkpt lat="43.7383045" lon="11.2921755"><ele>80.8</ele><time>2026-03-22T11:01:53.77Z</time></trkpt><trkpt lat="43.7383257" lon="11.2920446"><ele>81.19999999999999</ele><time>2026-03-22T11:01:54.769Z</time></trkpt><trkpt lat="43.7383402" lon="11.2919544"><ele>81.6</ele><time>2026-03-22T11:01:55.769Z</time></trkpt><trkpt lat="43.7383554" lon="11.2918432"><ele>82.0</ele><time>2026-03-22T11:01:57.77Z</time></trkpt><trkpt lat="43.7383112" lon="11.2916939"><ele>82.0</ele><time>2026-03-22T11:01:59.769Z</time></trkpt><trkpt lat="43.7382294" lon="11.2915672"><ele>82.0</ele><time>2026-03-22T11:02:01.769Z</time></trkpt><trkpt lat="43.7381597" lon="11.2914938"><ele>82.0</ele><time>2026-03-22T11:02:03.769Z</time></trkpt><trkpt lat="43.7380925" lon="11.2915016"><ele>82.0</ele><time>2026-03-22T11:04:37.77Z</time></trkpt></trkseg></trk></gpx>